<?xml version='1.0' encoding='UTF-8'?>
<gpx version="1.1" creator="https://www.komoot.de" xmlns="http://www.topografix.com/GPX/1/1" xmlns:xsi="http://www.w3.org/2001/XMLSchema-instance" xsi:schemaLocation="http://www.topografix.com/GPX/1/1 http://www.topografix.com/GPX/1/1/gpx.xsd">
  <metadata>
    <name>Radtour 17, Kellergasse Velm-Götzendorf, Papstkapelle, Schlossteich Niederabsdorf</name>
    <author>
      <link href="https://www.komoot.de">
        <text>komoot</text>
        <type>text/html</type>
      </link>
    </author>
  </metadata>
  <trk>
    <name>Radtour 17, Kellergasse Velm-Götzendorf, Papstkapelle, Schlossteich Niederabsdorf</name>
    <trkseg>
      <trkpt lat="48.584008" lon="16.649206">
        <ele>222.081282</ele>
        <time>2020-08-26T07:45:16.555Z</time>
      </trkpt>
      <trkpt lat="48.584096" lon="16.649018">
        <ele>222.081282</ele>
        <time>2020-08-26T07:45:50.351Z</time>
      </trkpt>
      <trkpt lat="48.584199" lon="16.648930">
        <ele>222.081282</ele>
        <time>2020-08-26T07:45:53.334Z</time>
      </trkpt>
      <trkpt lat="48.584279" lon="16.648856">
        <ele>222.081282</ele>
        <time>2020-08-26T07:45:55.368Z</time>
      </trkpt>
      <trkpt lat="48.584351" lon="16.648770">
        <ele>222.081282</ele>
        <time>2020-08-26T07:45:57.343Z</time>
      </trkpt>
      <trkpt lat="48.584450" lon="16.648671">
        <ele>222.081282</ele>
        <time>2020-08-26T07:46:00.363Z</time>
      </trkpt>
      <trkpt lat="48.584426" lon="16.648501">
        <ele>222.081282</ele>
        <time>2020-08-26T07:46:04.356Z</time>
      </trkpt>
      <trkpt lat="48.584370" lon="16.648393">
        <ele>222.081282</ele>
        <time>2020-08-26T07:46:06.366Z</time>
      </trkpt>
      <trkpt lat="48.584300" lon="16.648245">
        <ele>222.081909</ele>
        <time>2020-08-26T07:46:09.368Z</time>
      </trkpt>
      <trkpt lat="48.584215" lon="16.648097">
        <ele>222.129343</ele>
        <time>2020-08-26T07:46:12.354Z</time>
      </trkpt>
      <trkpt lat="48.584153" lon="16.647992">
        <ele>222.163405</ele>
        <time>2020-08-26T07:46:14.404Z</time>
      </trkpt>
      <trkpt lat="48.584089" lon="16.647884">
        <ele>222.198496</ele>
        <time>2020-08-26T07:46:16.361Z</time>
      </trkpt>
      <trkpt lat="48.584029" lon="16.647768">
        <ele>222.234132</ele>
        <time>2020-08-26T07:46:18.347Z</time>
      </trkpt>
      <trkpt lat="48.583966" lon="16.647653">
        <ele>222.270268</ele>
        <time>2020-08-26T07:46:20.369Z</time>
      </trkpt>
      <trkpt lat="48.583900" lon="16.647536">
        <ele>222.307481</ele>
        <time>2020-08-26T07:46:22.371Z</time>
      </trkpt>
      <trkpt lat="48.583832" lon="16.647419">
        <ele>222.345172</ele>
        <time>2020-08-26T07:46:24.361Z</time>
      </trkpt>
      <trkpt lat="48.583765" lon="16.647302">
        <ele>222.382623</ele>
        <time>2020-08-26T07:46:26.367Z</time>
      </trkpt>
      <trkpt lat="48.583701" lon="16.647178">
        <ele>222.420687</ele>
        <time>2020-08-26T07:46:28.359Z</time>
      </trkpt>
      <trkpt lat="48.583641" lon="16.647053">
        <ele>222.458063</ele>
        <time>2020-08-26T07:46:30.349Z</time>
      </trkpt>
      <trkpt lat="48.583574" lon="16.646932">
        <ele>222.496252</ele>
        <time>2020-08-26T07:46:32.365Z</time>
      </trkpt>
      <trkpt lat="48.583507" lon="16.646808">
        <ele>222.535000</ele>
        <time>2020-08-26T07:46:34.372Z</time>
      </trkpt>
      <trkpt lat="48.583444" lon="16.646684">
        <ele>222.572839</ele>
        <time>2020-08-26T07:46:36.360Z</time>
      </trkpt>
      <trkpt lat="48.583382" lon="16.646555">
        <ele>222.611429</ele>
        <time>2020-08-26T07:46:38.384Z</time>
      </trkpt>
      <trkpt lat="48.583322" lon="16.646423">
        <ele>222.650189</ele>
        <time>2020-08-26T07:46:40.358Z</time>
      </trkpt>
      <trkpt lat="48.583264" lon="16.646290">
        <ele>222.688742</ele>
        <time>2020-08-26T07:46:42.387Z</time>
      </trkpt>
      <trkpt lat="48.583207" lon="16.646159">
        <ele>222.726690</ele>
        <time>2020-08-26T07:46:44.367Z</time>
      </trkpt>
      <trkpt lat="48.583152" lon="16.646030">
        <ele>222.768578</ele>
        <time>2020-08-26T07:46:46.381Z</time>
      </trkpt>
      <trkpt lat="48.583102" lon="16.645903">
        <ele>222.811266</ele>
        <time>2020-08-26T07:46:48.366Z</time>
      </trkpt>
      <trkpt lat="48.583054" lon="16.645777">
        <ele>222.853264</ele>
        <time>2020-08-26T07:46:50.354Z</time>
      </trkpt>
      <trkpt lat="48.582997" lon="16.645619">
        <ele>222.905246</ele>
        <time>2020-08-26T07:46:53.366Z</time>
      </trkpt>
      <trkpt lat="48.582947" lon="16.645463">
        <ele>222.955316</ele>
        <time>2020-08-26T07:46:58.380Z</time>
      </trkpt>
      <trkpt lat="48.583045" lon="16.645367">
        <ele>223.006305</ele>
        <time>2020-08-26T07:47:03.357Z</time>
      </trkpt>
      <trkpt lat="48.583128" lon="16.645278">
        <ele>223.050737</ele>
        <time>2020-08-26T07:47:07.371Z</time>
      </trkpt>
      <trkpt lat="48.583050" lon="16.645122">
        <ele>223.107220</ele>
        <time>2020-08-26T07:47:10.365Z</time>
      </trkpt>
      <trkpt lat="48.582986" lon="16.644990">
        <ele>223.154491</ele>
        <time>2020-08-26T07:47:12.367Z</time>
      </trkpt>
      <trkpt lat="48.582928" lon="16.644843">
        <ele>223.203930</ele>
        <time>2020-08-26T07:47:14.371Z</time>
      </trkpt>
      <trkpt lat="48.582875" lon="16.644692">
        <ele>223.253304</ele>
        <time>2020-08-26T07:47:16.381Z</time>
      </trkpt>
      <trkpt lat="48.582823" lon="16.644545">
        <ele>223.301454</ele>
        <time>2020-08-26T07:47:18.361Z</time>
      </trkpt>
      <trkpt lat="48.582772" lon="16.644401">
        <ele>223.348633</ele>
        <time>2020-08-26T07:47:20.388Z</time>
      </trkpt>
      <trkpt lat="48.582724" lon="16.644257">
        <ele>223.395209</ele>
        <time>2020-08-26T07:47:22.394Z</time>
      </trkpt>
      <trkpt lat="48.582674" lon="16.644116">
        <ele>223.441419</ele>
        <time>2020-08-26T07:47:24.371Z</time>
      </trkpt>
      <trkpt lat="48.582615" lon="16.643970">
        <ele>223.490836</ele>
        <time>2020-08-26T07:47:26.379Z</time>
      </trkpt>
      <trkpt lat="48.582555" lon="16.643822">
        <ele>223.529991</ele>
        <time>2020-08-26T07:47:28.352Z</time>
      </trkpt>
      <trkpt lat="48.582498" lon="16.643676">
        <ele>223.546027</ele>
        <time>2020-08-26T07:47:30.349Z</time>
      </trkpt>
      <trkpt lat="48.582442" lon="16.643533">
        <ele>223.561745</ele>
        <time>2020-08-26T07:47:32.369Z</time>
      </trkpt>
      <trkpt lat="48.582387" lon="16.643395">
        <ele>223.576985</ele>
        <time>2020-08-26T07:47:34.356Z</time>
      </trkpt>
      <trkpt lat="48.582329" lon="16.643255">
        <ele>223.592610</ele>
        <time>2020-08-26T07:47:36.351Z</time>
      </trkpt>
      <trkpt lat="48.582275" lon="16.643109">
        <ele>223.608432</ele>
        <time>2020-08-26T07:47:38.356Z</time>
      </trkpt>
      <trkpt lat="48.582223" lon="16.642964">
        <ele>223.624034</ele>
        <time>2020-08-26T07:47:40.382Z</time>
      </trkpt>
      <trkpt lat="48.582171" lon="16.642820">
        <ele>223.639552</ele>
        <time>2020-08-26T07:47:42.352Z</time>
      </trkpt>
      <trkpt lat="48.582120" lon="16.642683">
        <ele>223.654422</ele>
        <time>2020-08-26T07:47:44.378Z</time>
      </trkpt>
      <trkpt lat="48.582066" lon="16.642544">
        <ele>223.669670</ele>
        <time>2020-08-26T07:47:46.360Z</time>
      </trkpt>
      <trkpt lat="48.582017" lon="16.642403">
        <ele>223.684736</ele>
        <time>2020-08-26T07:47:48.376Z</time>
      </trkpt>
      <trkpt lat="48.581980" lon="16.642273">
        <ele>223.698122</ele>
        <time>2020-08-26T07:47:50.353Z</time>
      </trkpt>
      <trkpt lat="48.581913" lon="16.642106">
        <ele>223.716597</ele>
        <time>2020-08-26T07:47:53.381Z</time>
      </trkpt>
      <trkpt lat="48.581860" lon="16.641977">
        <ele>223.730961</ele>
        <time>2020-08-26T07:47:55.365Z</time>
      </trkpt>
      <trkpt lat="48.581808" lon="16.641838">
        <ele>223.746066</ele>
        <time>2020-08-26T07:47:57.389Z</time>
      </trkpt>
      <trkpt lat="48.581761" lon="16.641699">
        <ele>223.760832</ele>
        <time>2020-08-26T07:47:59.343Z</time>
      </trkpt>
      <trkpt lat="48.581716" lon="16.641566">
        <ele>223.774963</ele>
        <time>2020-08-26T07:48:01.367Z</time>
      </trkpt>
      <trkpt lat="48.581670" lon="16.641433">
        <ele>223.775259</ele>
        <time>2020-08-26T07:48:03.368Z</time>
      </trkpt>
      <trkpt lat="48.581622" lon="16.641301">
        <ele>223.762512</ele>
        <time>2020-08-26T07:48:05.374Z</time>
      </trkpt>
      <trkpt lat="48.581569" lon="16.641171">
        <ele>223.749590</ele>
        <time>2020-08-26T07:48:07.384Z</time>
      </trkpt>
      <trkpt lat="48.581516" lon="16.641038">
        <ele>223.736450</ele>
        <time>2020-08-26T07:48:09.393Z</time>
      </trkpt>
      <trkpt lat="48.581464" lon="16.640904">
        <ele>223.723303</ele>
        <time>2020-08-26T07:48:11.362Z</time>
      </trkpt>
      <trkpt lat="48.581417" lon="16.640765">
        <ele>223.710093</ele>
        <time>2020-08-26T07:48:13.361Z</time>
      </trkpt>
      <trkpt lat="48.581371" lon="16.640626">
        <ele>223.696940</ele>
        <time>2020-08-26T07:48:15.353Z</time>
      </trkpt>
      <trkpt lat="48.581322" lon="16.640490">
        <ele>223.683835</ele>
        <time>2020-08-26T07:48:17.358Z</time>
      </trkpt>
      <trkpt lat="48.581271" lon="16.640352">
        <ele>223.670458</ele>
        <time>2020-08-26T07:48:19.357Z</time>
      </trkpt>
      <trkpt lat="48.581215" lon="16.640213">
        <ele>223.656685</ele>
        <time>2020-08-26T07:48:21.360Z</time>
      </trkpt>
      <trkpt lat="48.581158" lon="16.640081">
        <ele>223.643345</ele>
        <time>2020-08-26T07:48:23.355Z</time>
      </trkpt>
      <trkpt lat="48.581103" lon="16.639955">
        <ele>223.630570</ele>
        <time>2020-08-26T07:48:25.380Z</time>
      </trkpt>
      <trkpt lat="48.581045" lon="16.639830">
        <ele>223.617650</ele>
        <time>2020-08-26T07:48:27.375Z</time>
      </trkpt>
      <trkpt lat="48.580987" lon="16.639706">
        <ele>223.604798</ele>
        <time>2020-08-26T07:48:29.376Z</time>
      </trkpt>
      <trkpt lat="48.580931" lon="16.639581">
        <ele>223.592022</ele>
        <time>2020-08-26T07:48:31.358Z</time>
      </trkpt>
      <trkpt lat="48.580876" lon="16.639455">
        <ele>223.579247</ele>
        <time>2020-08-26T07:48:33.387Z</time>
      </trkpt>
      <trkpt lat="48.580823" lon="16.639323">
        <ele>223.566180</ele>
        <time>2020-08-26T07:48:35.354Z</time>
      </trkpt>
      <trkpt lat="48.580776" lon="16.639189">
        <ele>223.553345</ele>
        <time>2020-08-26T07:48:37.371Z</time>
      </trkpt>
      <trkpt lat="48.580725" lon="16.639060">
        <ele>223.571340</ele>
        <time>2020-08-26T07:48:39.369Z</time>
      </trkpt>
      <trkpt lat="48.580677" lon="16.638933">
        <ele>223.593171</ele>
        <time>2020-08-26T07:48:41.361Z</time>
      </trkpt>
      <trkpt lat="48.580627" lon="16.638816">
        <ele>223.613959</ele>
        <time>2020-08-26T07:48:43.360Z</time>
      </trkpt>
      <trkpt lat="48.580547" lon="16.638700">
        <ele>223.638969</ele>
        <time>2020-08-26T07:48:46.347Z</time>
      </trkpt>
      <trkpt lat="48.580444" lon="16.638714">
        <ele>223.662300</ele>
        <time>2020-08-26T07:48:59.364Z</time>
      </trkpt>
      <trkpt lat="48.580386" lon="16.638858">
        <ele>223.687462</ele>
        <time>2020-08-26T07:49:02.353Z</time>
      </trkpt>
      <trkpt lat="48.580331" lon="16.639018">
        <ele>223.714374</ele>
        <time>2020-08-26T07:49:05.365Z</time>
      </trkpt>
      <trkpt lat="48.580265" lon="16.639198">
        <ele>223.745090</ele>
        <time>2020-08-26T07:49:08.371Z</time>
      </trkpt>
      <trkpt lat="48.580224" lon="16.639326">
        <ele>223.766316</ele>
        <time>2020-08-26T07:49:10.368Z</time>
      </trkpt>
      <trkpt lat="48.580183" lon="16.639465">
        <ele>223.789030</ele>
        <time>2020-08-26T07:49:12.373Z</time>
      </trkpt>
      <trkpt lat="48.580141" lon="16.639606">
        <ele>223.812110</ele>
        <time>2020-08-26T07:49:14.366Z</time>
      </trkpt>
      <trkpt lat="48.580098" lon="16.639746">
        <ele>223.835147</ele>
        <time>2020-08-26T07:49:16.343Z</time>
      </trkpt>
      <trkpt lat="48.580056" lon="16.639886">
        <ele>223.858091</ele>
        <time>2020-08-26T07:49:18.396Z</time>
      </trkpt>
      <trkpt lat="48.580011" lon="16.640026">
        <ele>223.881322</ele>
        <time>2020-08-26T07:49:20.359Z</time>
      </trkpt>
      <trkpt lat="48.579966" lon="16.640180">
        <ele>223.906449</ele>
        <time>2020-08-26T07:49:22.357Z</time>
      </trkpt>
      <trkpt lat="48.579918" lon="16.640343">
        <ele>223.933079</ele>
        <time>2020-08-26T07:49:24.354Z</time>
      </trkpt>
      <trkpt lat="48.579868" lon="16.640521">
        <ele>223.964982</ele>
        <time>2020-08-26T07:49:26.369Z</time>
      </trkpt>
      <trkpt lat="48.579812" lon="16.640699">
        <ele>224.014636</ele>
        <time>2020-08-26T07:49:28.384Z</time>
      </trkpt>
      <trkpt lat="48.579756" lon="16.640870">
        <ele>224.062704</ele>
        <time>2020-08-26T07:49:30.367Z</time>
      </trkpt>
      <trkpt lat="48.579707" lon="16.641044">
        <ele>224.110344</ele>
        <time>2020-08-26T07:49:32.357Z</time>
      </trkpt>
      <trkpt lat="48.579648" lon="16.641212">
        <ele>224.158260</ele>
        <time>2020-08-26T07:49:34.367Z</time>
      </trkpt>
      <trkpt lat="48.579561" lon="16.641340">
        <ele>224.204492</ele>
        <time>2020-08-26T07:49:36.353Z</time>
      </trkpt>
      <trkpt lat="48.579457" lon="16.641394">
        <ele>224.246365</ele>
        <time>2020-08-26T07:49:38.381Z</time>
      </trkpt>
      <trkpt lat="48.579361" lon="16.641312">
        <ele>224.288354</ele>
        <time>2020-08-26T07:49:40.366Z</time>
      </trkpt>
      <trkpt lat="48.579263" lon="16.641215">
        <ele>224.332961</ele>
        <time>2020-08-26T07:49:42.371Z</time>
      </trkpt>
      <trkpt lat="48.579163" lon="16.641129">
        <ele>224.376772</ele>
        <time>2020-08-26T07:49:44.369Z</time>
      </trkpt>
      <trkpt lat="48.579064" lon="16.641063">
        <ele>224.417974</ele>
        <time>2020-08-26T07:49:46.361Z</time>
      </trkpt>
      <trkpt lat="48.578967" lon="16.641004">
        <ele>224.457789</ele>
        <time>2020-08-26T07:49:48.357Z</time>
      </trkpt>
      <trkpt lat="48.578820" lon="16.640914">
        <ele>224.518183</ele>
        <time>2020-08-26T07:49:51.354Z</time>
      </trkpt>
      <trkpt lat="48.578732" lon="16.640859">
        <ele>224.554444</ele>
        <time>2020-08-26T07:49:53.371Z</time>
      </trkpt>
      <trkpt lat="48.578605" lon="16.640798">
        <ele>224.605187</ele>
        <time>2020-08-26T07:49:56.354Z</time>
      </trkpt>
      <trkpt lat="48.578480" lon="16.640740">
        <ele>224.678570</ele>
        <time>2020-08-26T07:49:59.376Z</time>
      </trkpt>
      <trkpt lat="48.578394" lon="16.640700">
        <ele>224.777231</ele>
        <time>2020-08-26T07:50:01.371Z</time>
      </trkpt>
      <trkpt lat="48.578301" lon="16.640656">
        <ele>224.884082</ele>
        <time>2020-08-26T07:50:03.383Z</time>
      </trkpt>
      <trkpt lat="48.578203" lon="16.640611">
        <ele>224.996387</ele>
        <time>2020-08-26T07:50:05.361Z</time>
      </trkpt>
      <trkpt lat="48.578102" lon="16.640569">
        <ele>225.111247</ele>
        <time>2020-08-26T07:50:07.364Z</time>
      </trkpt>
      <trkpt lat="48.577994" lon="16.640523">
        <ele>225.234279</ele>
        <time>2020-08-26T07:50:09.412Z</time>
      </trkpt>
      <trkpt lat="48.577889" lon="16.640475">
        <ele>225.354560</ele>
        <time>2020-08-26T07:50:11.365Z</time>
      </trkpt>
      <trkpt lat="48.577785" lon="16.640431">
        <ele>225.472977</ele>
        <time>2020-08-26T07:50:13.350Z</time>
      </trkpt>
      <trkpt lat="48.577683" lon="16.640392">
        <ele>225.588342</ele>
        <time>2020-08-26T07:50:15.352Z</time>
      </trkpt>
      <trkpt lat="48.577591" lon="16.640359">
        <ele>225.692020</ele>
        <time>2020-08-26T07:50:17.358Z</time>
      </trkpt>
      <trkpt lat="48.577463" lon="16.640309">
        <ele>225.836981</ele>
        <time>2020-08-26T07:50:20.363Z</time>
      </trkpt>
      <trkpt lat="48.577337" lon="16.640283">
        <ele>225.976419</ele>
        <time>2020-08-26T07:50:23.351Z</time>
      </trkpt>
      <trkpt lat="48.577262" lon="16.640434">
        <ele>226.113395</ele>
        <time>2020-08-26T07:50:26.349Z</time>
      </trkpt>
      <trkpt lat="48.577235" lon="16.640600">
        <ele>226.237404</ele>
        <time>2020-08-26T07:50:28.360Z</time>
      </trkpt>
      <trkpt lat="48.577167" lon="16.640759">
        <ele>226.374750</ele>
        <time>2020-08-26T07:50:30.352Z</time>
      </trkpt>
      <trkpt lat="48.577104" lon="16.640917">
        <ele>226.508577</ele>
        <time>2020-08-26T07:50:32.364Z</time>
      </trkpt>
      <trkpt lat="48.577051" lon="16.641085">
        <ele>226.634064</ele>
        <time>2020-08-26T07:50:34.346Z</time>
      </trkpt>
      <trkpt lat="48.577004" lon="16.641247">
        <ele>226.720185</ele>
        <time>2020-08-26T07:50:36.363Z</time>
      </trkpt>
      <trkpt lat="48.576955" lon="16.641401">
        <ele>226.803380</ele>
        <time>2020-08-26T07:50:38.359Z</time>
      </trkpt>
      <trkpt lat="48.576911" lon="16.641559">
        <ele>226.886840</ele>
        <time>2020-08-26T07:50:40.363Z</time>
      </trkpt>
      <trkpt lat="48.576861" lon="16.641711">
        <ele>226.969485</ele>
        <time>2020-08-26T07:50:42.362Z</time>
      </trkpt>
      <trkpt lat="48.576811" lon="16.641861">
        <ele>227.051258</ele>
        <time>2020-08-26T07:50:44.348Z</time>
      </trkpt>
      <trkpt lat="48.576761" lon="16.642010">
        <ele>227.132598</ele>
        <time>2020-08-26T07:50:46.356Z</time>
      </trkpt>
      <trkpt lat="48.576715" lon="16.642164">
        <ele>227.214861</ele>
        <time>2020-08-26T07:50:48.382Z</time>
      </trkpt>
      <trkpt lat="48.576668" lon="16.642314">
        <ele>227.295666</ele>
        <time>2020-08-26T07:50:50.338Z</time>
      </trkpt>
      <trkpt lat="48.576620" lon="16.642459">
        <ele>227.374604</ele>
        <time>2020-08-26T07:50:52.374Z</time>
      </trkpt>
      <trkpt lat="48.576573" lon="16.642600">
        <ele>227.451471</ele>
        <time>2020-08-26T07:50:54.384Z</time>
      </trkpt>
      <trkpt lat="48.576516" lon="16.642730">
        <ele>227.527400</ele>
        <time>2020-08-26T07:50:56.377Z</time>
      </trkpt>
      <trkpt lat="48.576445" lon="16.642846">
        <ele>227.604336</ele>
        <time>2020-08-26T07:50:58.355Z</time>
      </trkpt>
      <trkpt lat="48.576359" lon="16.642944">
        <ele>227.683592</ele>
        <time>2020-08-26T07:51:00.354Z</time>
      </trkpt>
      <trkpt lat="48.576265" lon="16.643029">
        <ele>227.764197</ele>
        <time>2020-08-26T07:51:02.349Z</time>
      </trkpt>
      <trkpt lat="48.576160" lon="16.643102">
        <ele>227.849245</ele>
        <time>2020-08-26T07:51:04.345Z</time>
      </trkpt>
      <trkpt lat="48.576064" lon="16.643181">
        <ele>227.929680</ele>
        <time>2020-08-26T07:51:06.343Z</time>
      </trkpt>
      <trkpt lat="48.575964" lon="16.643262">
        <ele>227.911113</ele>
        <time>2020-08-26T07:51:08.354Z</time>
      </trkpt>
      <trkpt lat="48.575864" lon="16.643348">
        <ele>227.880576</ele>
        <time>2020-08-26T07:51:10.374Z</time>
      </trkpt>
      <trkpt lat="48.575778" lon="16.643424">
        <ele>227.854135</ele>
        <time>2020-08-26T07:51:12.371Z</time>
      </trkpt>
      <trkpt lat="48.575699" lon="16.643515">
        <ele>227.827773</ele>
        <time>2020-08-26T07:51:14.381Z</time>
      </trkpt>
      <trkpt lat="48.575621" lon="16.643597">
        <ele>227.802555</ele>
        <time>2020-08-26T07:51:16.375Z</time>
      </trkpt>
      <trkpt lat="48.575538" lon="16.643680">
        <ele>227.776141</ele>
        <time>2020-08-26T07:51:18.371Z</time>
      </trkpt>
      <trkpt lat="48.575455" lon="16.643761">
        <ele>227.749919</ele>
        <time>2020-08-26T07:51:20.372Z</time>
      </trkpt>
      <trkpt lat="48.575369" lon="16.643842">
        <ele>227.723024</ele>
        <time>2020-08-26T07:51:22.375Z</time>
      </trkpt>
      <trkpt lat="48.575282" lon="16.643921">
        <ele>227.696087</ele>
        <time>2020-08-26T07:51:24.396Z</time>
      </trkpt>
      <trkpt lat="48.575194" lon="16.643998">
        <ele>227.669099</ele>
        <time>2020-08-26T07:51:26.361Z</time>
      </trkpt>
      <trkpt lat="48.575105" lon="16.644074">
        <ele>227.641968</ele>
        <time>2020-08-26T07:51:28.389Z</time>
      </trkpt>
      <trkpt lat="48.575015" lon="16.644150">
        <ele>227.614606</ele>
        <time>2020-08-26T07:51:30.350Z</time>
      </trkpt>
      <trkpt lat="48.574925" lon="16.644228">
        <ele>227.587070</ele>
        <time>2020-08-26T07:51:32.357Z</time>
      </trkpt>
      <trkpt lat="48.574833" lon="16.644304">
        <ele>227.559243</ele>
        <time>2020-08-26T07:51:34.360Z</time>
      </trkpt>
      <trkpt lat="48.574741" lon="16.644377">
        <ele>227.531665</ele>
        <time>2020-08-26T07:51:36.389Z</time>
      </trkpt>
      <trkpt lat="48.574649" lon="16.644448">
        <ele>227.504248</ele>
        <time>2020-08-26T07:51:38.371Z</time>
      </trkpt>
      <trkpt lat="48.574554" lon="16.644508">
        <ele>227.476921</ele>
        <time>2020-08-26T07:51:40.352Z</time>
      </trkpt>
      <trkpt lat="48.574459" lon="16.644563">
        <ele>227.473411</ele>
        <time>2020-08-26T07:51:42.367Z</time>
      </trkpt>
      <trkpt lat="48.574364" lon="16.644616">
        <ele>227.504639</ele>
        <time>2020-08-26T07:51:44.364Z</time>
      </trkpt>
      <trkpt lat="48.574267" lon="16.644667">
        <ele>227.536310</ele>
        <time>2020-08-26T07:51:46.363Z</time>
      </trkpt>
      <trkpt lat="48.574169" lon="16.644715">
        <ele>227.568079</ele>
        <time>2020-08-26T07:51:48.355Z</time>
      </trkpt>
      <trkpt lat="48.574071" lon="16.644764">
        <ele>227.599911</ele>
        <time>2020-08-26T07:51:50.377Z</time>
      </trkpt>
      <trkpt lat="48.573976" lon="16.644812">
        <ele>227.630801</ele>
        <time>2020-08-26T07:51:52.357Z</time>
      </trkpt>
      <trkpt lat="48.573884" lon="16.644856">
        <ele>227.660558</ele>
        <time>2020-08-26T07:51:54.370Z</time>
      </trkpt>
      <trkpt lat="48.573794" lon="16.644900">
        <ele>227.689728</ele>
        <time>2020-08-26T07:51:56.361Z</time>
      </trkpt>
      <trkpt lat="48.573703" lon="16.644946">
        <ele>227.719319</ele>
        <time>2020-08-26T07:51:58.363Z</time>
      </trkpt>
      <trkpt lat="48.573610" lon="16.644995">
        <ele>227.749691</ele>
        <time>2020-08-26T07:52:00.347Z</time>
      </trkpt>
      <trkpt lat="48.573517" lon="16.645041">
        <ele>227.779867</ele>
        <time>2020-08-26T07:52:02.371Z</time>
      </trkpt>
      <trkpt lat="48.573423" lon="16.645083">
        <ele>227.810095</ele>
        <time>2020-08-26T07:52:04.373Z</time>
      </trkpt>
      <trkpt lat="48.573329" lon="16.645129">
        <ele>227.840564</ele>
        <time>2020-08-26T07:52:06.360Z</time>
      </trkpt>
      <trkpt lat="48.573238" lon="16.645173">
        <ele>227.870028</ele>
        <time>2020-08-26T07:52:08.367Z</time>
      </trkpt>
      <trkpt lat="48.573145" lon="16.645218">
        <ele>227.900141</ele>
        <time>2020-08-26T07:52:10.383Z</time>
      </trkpt>
      <trkpt lat="48.573050" lon="16.645264">
        <ele>227.930904</ele>
        <time>2020-08-26T07:52:12.370Z</time>
      </trkpt>
      <trkpt lat="48.572958" lon="16.645313">
        <ele>227.960985</ele>
        <time>2020-08-26T07:52:14.360Z</time>
      </trkpt>
      <trkpt lat="48.572869" lon="16.645356">
        <ele>227.989800</ele>
        <time>2020-08-26T07:52:16.366Z</time>
      </trkpt>
      <trkpt lat="48.572780" lon="16.645400">
        <ele>228.021520</ele>
        <time>2020-08-26T07:52:18.405Z</time>
      </trkpt>
      <trkpt lat="48.572690" lon="16.645445">
        <ele>228.076531</ele>
        <time>2020-08-26T07:52:20.410Z</time>
      </trkpt>
      <trkpt lat="48.572599" lon="16.645492">
        <ele>228.132337</ele>
        <time>2020-08-26T07:52:22.364Z</time>
      </trkpt>
      <trkpt lat="48.572507" lon="16.645544">
        <ele>228.189336</ele>
        <time>2020-08-26T07:52:24.363Z</time>
      </trkpt>
      <trkpt lat="48.572415" lon="16.645596">
        <ele>228.246336</ele>
        <time>2020-08-26T07:52:26.385Z</time>
      </trkpt>
      <trkpt lat="48.572324" lon="16.645645">
        <ele>228.302395</ele>
        <time>2020-08-26T07:52:28.356Z</time>
      </trkpt>
      <trkpt lat="48.572236" lon="16.645692">
        <ele>228.356556</ele>
        <time>2020-08-26T07:52:30.374Z</time>
      </trkpt>
      <trkpt lat="48.572148" lon="16.645738">
        <ele>228.410591</ele>
        <time>2020-08-26T07:52:32.373Z</time>
      </trkpt>
      <trkpt lat="48.572060" lon="16.645783">
        <ele>228.464502</ele>
        <time>2020-08-26T07:52:34.349Z</time>
      </trkpt>
      <trkpt lat="48.571971" lon="16.645824">
        <ele>228.518494</ele>
        <time>2020-08-26T07:52:36.352Z</time>
      </trkpt>
      <trkpt lat="48.571878" lon="16.645857">
        <ele>228.573930</ele>
        <time>2020-08-26T07:52:38.364Z</time>
      </trkpt>
      <trkpt lat="48.571786" lon="16.645878">
        <ele>228.627923</ele>
        <time>2020-08-26T07:52:40.368Z</time>
      </trkpt>
      <trkpt lat="48.571695" lon="16.645888">
        <ele>228.680870</ele>
        <time>2020-08-26T07:52:42.341Z</time>
      </trkpt>
      <trkpt lat="48.571601" lon="16.645891">
        <ele>228.735431</ele>
        <time>2020-08-26T07:52:44.349Z</time>
      </trkpt>
      <trkpt lat="48.571509" lon="16.645883">
        <ele>228.788907</ele>
        <time>2020-08-26T07:52:46.374Z</time>
      </trkpt>
      <trkpt lat="48.571417" lon="16.645871">
        <ele>228.842493</ele>
        <time>2020-08-26T07:52:48.368Z</time>
      </trkpt>
      <trkpt lat="48.571327" lon="16.645859">
        <ele>228.894923</ele>
        <time>2020-08-26T07:52:50.354Z</time>
      </trkpt>
      <trkpt lat="48.571231" lon="16.645843">
        <ele>228.950969</ele>
        <time>2020-08-26T07:52:52.359Z</time>
      </trkpt>
      <trkpt lat="48.571132" lon="16.645825">
        <ele>229.008834</ele>
        <time>2020-08-26T07:52:54.370Z</time>
      </trkpt>
      <trkpt lat="48.571035" lon="16.645810">
        <ele>229.066170</ele>
        <time>2020-08-26T07:52:56.369Z</time>
      </trkpt>
      <trkpt lat="48.570936" lon="16.645825">
        <ele>229.130907</ele>
        <time>2020-08-26T07:52:58.370Z</time>
      </trkpt>
      <trkpt lat="48.570840" lon="16.645849">
        <ele>229.194219</ele>
        <time>2020-08-26T07:53:00.376Z</time>
      </trkpt>
      <trkpt lat="48.570750" lon="16.645881">
        <ele>229.254377</ele>
        <time>2020-08-26T07:53:02.371Z</time>
      </trkpt>
      <trkpt lat="48.570660" lon="16.645919">
        <ele>229.315179</ele>
        <time>2020-08-26T07:53:04.354Z</time>
      </trkpt>
      <trkpt lat="48.570567" lon="16.645956">
        <ele>229.377751</ele>
        <time>2020-08-26T07:53:06.362Z</time>
      </trkpt>
      <trkpt lat="48.570476" lon="16.646006">
        <ele>229.440753</ele>
        <time>2020-08-26T07:53:08.361Z</time>
      </trkpt>
      <trkpt lat="48.570389" lon="16.646058">
        <ele>229.501626</ele>
        <time>2020-08-26T07:53:10.371Z</time>
      </trkpt>
      <trkpt lat="48.570310" lon="16.646123">
        <ele>229.560152</ele>
        <time>2020-08-26T07:53:12.347Z</time>
      </trkpt>
      <trkpt lat="48.570235" lon="16.646198">
        <ele>229.618668</ele>
        <time>2020-08-26T07:53:14.352Z</time>
      </trkpt>
      <trkpt lat="48.570158" lon="16.646276">
        <ele>229.678982</ele>
        <time>2020-08-26T07:53:16.402Z</time>
      </trkpt>
      <trkpt lat="48.570085" lon="16.646359">
        <ele>229.738421</ele>
        <time>2020-08-26T07:53:18.374Z</time>
      </trkpt>
      <trkpt lat="48.570013" lon="16.646444">
        <ele>229.797868</ele>
        <time>2020-08-26T07:53:20.386Z</time>
      </trkpt>
      <trkpt lat="48.569941" lon="16.646530">
        <ele>229.857581</ele>
        <time>2020-08-26T07:53:22.361Z</time>
      </trkpt>
      <trkpt lat="48.569870" lon="16.646617">
        <ele>229.917055</ele>
        <time>2020-08-26T07:53:24.371Z</time>
      </trkpt>
      <trkpt lat="48.569798" lon="16.646699">
        <ele>229.975716</ele>
        <time>2020-08-26T07:53:26.391Z</time>
      </trkpt>
      <trkpt lat="48.569729" lon="16.646787">
        <ele>230.034462</ele>
        <time>2020-08-26T07:53:28.354Z</time>
      </trkpt>
      <trkpt lat="48.569657" lon="16.646875">
        <ele>230.094712</ele>
        <time>2020-08-26T07:53:30.380Z</time>
      </trkpt>
      <trkpt lat="48.569585" lon="16.646963">
        <ele>230.154963</ele>
        <time>2020-08-26T07:53:32.379Z</time>
      </trkpt>
      <trkpt lat="48.569513" lon="16.647048">
        <ele>230.214410</ele>
        <time>2020-08-26T07:53:34.365Z</time>
      </trkpt>
      <trkpt lat="48.569440" lon="16.647131">
        <ele>230.229652</ele>
        <time>2020-08-26T07:53:36.390Z</time>
      </trkpt>
      <trkpt lat="48.569368" lon="16.647217">
        <ele>230.229851</ele>
        <time>2020-08-26T07:53:38.367Z</time>
      </trkpt>
      <trkpt lat="48.569295" lon="16.647305">
        <ele>230.230054</ele>
        <time>2020-08-26T07:53:40.370Z</time>
      </trkpt>
      <trkpt lat="48.569221" lon="16.647392">
        <ele>230.230257</ele>
        <time>2020-08-26T07:53:42.357Z</time>
      </trkpt>
      <trkpt lat="48.569146" lon="16.647480">
        <ele>230.230463</ele>
        <time>2020-08-26T07:53:44.346Z</time>
      </trkpt>
      <trkpt lat="48.569069" lon="16.647564">
        <ele>230.230669</ele>
        <time>2020-08-26T07:53:46.360Z</time>
      </trkpt>
      <trkpt lat="48.568990" lon="16.647648">
        <ele>230.230879</ele>
        <time>2020-08-26T07:53:48.373Z</time>
      </trkpt>
      <trkpt lat="48.568911" lon="16.647734">
        <ele>230.231090</ele>
        <time>2020-08-26T07:53:50.363Z</time>
      </trkpt>
      <trkpt lat="48.568832" lon="16.647816">
        <ele>230.231298</ele>
        <time>2020-08-26T07:53:52.363Z</time>
      </trkpt>
      <trkpt lat="48.568756" lon="16.647897">
        <ele>230.231499</ele>
        <time>2020-08-26T07:53:54.363Z</time>
      </trkpt>
      <trkpt lat="48.568681" lon="16.647978">
        <ele>230.231699</ele>
        <time>2020-08-26T07:53:56.366Z</time>
      </trkpt>
      <trkpt lat="48.568604" lon="16.648062">
        <ele>230.231905</ele>
        <time>2020-08-26T07:53:58.357Z</time>
      </trkpt>
      <trkpt lat="48.568530" lon="16.648156">
        <ele>230.232115</ele>
        <time>2020-08-26T07:54:00.376Z</time>
      </trkpt>
      <trkpt lat="48.568457" lon="16.648252">
        <ele>230.232325</ele>
        <time>2020-08-26T07:54:02.358Z</time>
      </trkpt>
      <trkpt lat="48.568386" lon="16.648344">
        <ele>230.232528</ele>
        <time>2020-08-26T07:54:04.367Z</time>
      </trkpt>
      <trkpt lat="48.568317" lon="16.648439">
        <ele>230.232731</ele>
        <time>2020-08-26T07:54:06.358Z</time>
      </trkpt>
      <trkpt lat="48.568246" lon="16.648542">
        <ele>230.232944</ele>
        <time>2020-08-26T07:54:08.370Z</time>
      </trkpt>
      <trkpt lat="48.568173" lon="16.648643">
        <ele>230.233159</ele>
        <time>2020-08-26T07:54:10.366Z</time>
      </trkpt>
      <trkpt lat="48.568101" lon="16.648743">
        <ele>230.233371</ele>
        <time>2020-08-26T07:54:12.338Z</time>
      </trkpt>
      <trkpt lat="48.568030" lon="16.648842">
        <ele>230.240276</ele>
        <time>2020-08-26T07:54:14.362Z</time>
      </trkpt>
      <trkpt lat="48.567967" lon="16.648949">
        <ele>230.248375</ele>
        <time>2020-08-26T07:54:16.388Z</time>
      </trkpt>
      <trkpt lat="48.567904" lon="16.649059">
        <ele>230.256602</ele>
        <time>2020-08-26T07:54:18.360Z</time>
      </trkpt>
      <trkpt lat="48.567842" lon="16.649168">
        <ele>230.264730</ele>
        <time>2020-08-26T07:54:20.353Z</time>
      </trkpt>
      <trkpt lat="48.567777" lon="16.649277">
        <ele>230.273027</ele>
        <time>2020-08-26T07:54:22.347Z</time>
      </trkpt>
      <trkpt lat="48.567709" lon="16.649390">
        <ele>230.281664</ele>
        <time>2020-08-26T07:54:24.361Z</time>
      </trkpt>
      <trkpt lat="48.567636" lon="16.649495">
        <ele>230.290277</ele>
        <time>2020-08-26T07:54:26.372Z</time>
      </trkpt>
      <trkpt lat="48.567561" lon="16.649602">
        <ele>230.299091</ele>
        <time>2020-08-26T07:54:28.392Z</time>
      </trkpt>
      <trkpt lat="48.567472" lon="16.649683">
        <ele>230.307969</ele>
        <time>2020-08-26T07:54:30.359Z</time>
      </trkpt>
      <trkpt lat="48.567368" lon="16.649730">
        <ele>230.317245</ele>
        <time>2020-08-26T07:54:32.378Z</time>
      </trkpt>
      <trkpt lat="48.567261" lon="16.649774">
        <ele>230.326722</ele>
        <time>2020-08-26T07:54:34.350Z</time>
      </trkpt>
      <trkpt lat="48.567153" lon="16.649815">
        <ele>230.336238</ele>
        <time>2020-08-26T07:54:36.371Z</time>
      </trkpt>
      <trkpt lat="48.567046" lon="16.649849">
        <ele>230.345582</ele>
        <time>2020-08-26T07:54:38.374Z</time>
      </trkpt>
      <trkpt lat="48.566946" lon="16.649882">
        <ele>230.354329</ele>
        <time>2020-08-26T07:54:40.395Z</time>
      </trkpt>
      <trkpt lat="48.566857" lon="16.649922">
        <ele>230.362263</ele>
        <time>2020-08-26T07:54:42.347Z</time>
      </trkpt>
      <trkpt lat="48.566773" lon="16.649994">
        <ele>230.370516</ele>
        <time>2020-08-26T07:54:44.399Z</time>
      </trkpt>
      <trkpt lat="48.566691" lon="16.650100">
        <ele>230.379738</ele>
        <time>2020-08-26T07:54:46.367Z</time>
      </trkpt>
      <trkpt lat="48.566611" lon="16.650207">
        <ele>230.390245</ele>
        <time>2020-08-26T07:54:48.371Z</time>
      </trkpt>
      <trkpt lat="48.566534" lon="16.650314">
        <ele>230.406201</ele>
        <time>2020-08-26T07:54:50.362Z</time>
      </trkpt>
      <trkpt lat="48.566453" lon="16.650418">
        <ele>230.422412</ele>
        <time>2020-08-26T07:54:52.384Z</time>
      </trkpt>
      <trkpt lat="48.566368" lon="16.650526">
        <ele>230.439351</ele>
        <time>2020-08-26T07:54:54.377Z</time>
      </trkpt>
      <trkpt lat="48.566283" lon="16.650638">
        <ele>230.456552</ele>
        <time>2020-08-26T07:54:56.368Z</time>
      </trkpt>
      <trkpt lat="48.566197" lon="16.650752">
        <ele>230.474000</ele>
        <time>2020-08-26T07:54:58.367Z</time>
      </trkpt>
      <trkpt lat="48.566107" lon="16.650855">
        <ele>230.491220</ele>
        <time>2020-08-26T07:55:00.379Z</time>
      </trkpt>
      <trkpt lat="48.566018" lon="16.650962">
        <ele>230.508567</ele>
        <time>2020-08-26T07:55:02.371Z</time>
      </trkpt>
      <trkpt lat="48.565927" lon="16.651059">
        <ele>230.525552</ele>
        <time>2020-08-26T07:55:04.402Z</time>
      </trkpt>
      <trkpt lat="48.565836" lon="16.651147">
        <ele>230.542030</ele>
        <time>2020-08-26T07:55:06.386Z</time>
      </trkpt>
      <trkpt lat="48.565744" lon="16.651234">
        <ele>230.558584</ele>
        <time>2020-08-26T07:55:08.369Z</time>
      </trkpt>
      <trkpt lat="48.565644" lon="16.651333">
        <ele>230.576818</ele>
        <time>2020-08-26T07:55:10.363Z</time>
      </trkpt>
      <trkpt lat="48.565543" lon="16.651419">
        <ele>230.594500</ele>
        <time>2020-08-26T07:55:12.354Z</time>
      </trkpt>
      <trkpt lat="48.565445" lon="16.651499">
        <ele>230.611489</ele>
        <time>2020-08-26T07:55:14.373Z</time>
      </trkpt>
      <trkpt lat="48.565348" lon="16.651566">
        <ele>230.627756</ele>
        <time>2020-08-26T07:55:16.352Z</time>
      </trkpt>
      <trkpt lat="48.565251" lon="16.651631">
        <ele>230.643941</ele>
        <time>2020-08-26T07:55:18.350Z</time>
      </trkpt>
      <trkpt lat="48.565154" lon="16.651693">
        <ele>230.660005</ele>
        <time>2020-08-26T07:55:20.357Z</time>
      </trkpt>
      <trkpt lat="48.565060" lon="16.651745">
        <ele>230.661261</ele>
        <time>2020-08-26T07:55:22.365Z</time>
      </trkpt>
      <trkpt lat="48.564968" lon="16.651799">
        <ele>230.661058</ele>
        <time>2020-08-26T07:55:24.359Z</time>
      </trkpt>
      <trkpt lat="48.564877" lon="16.651858">
        <ele>230.660854</ele>
        <time>2020-08-26T07:55:26.388Z</time>
      </trkpt>
      <trkpt lat="48.564785" lon="16.651927">
        <ele>230.660643</ele>
        <time>2020-08-26T07:55:28.357Z</time>
      </trkpt>
      <trkpt lat="48.564696" lon="16.651999">
        <ele>230.660435</ele>
        <time>2020-08-26T07:55:30.358Z</time>
      </trkpt>
      <trkpt lat="48.564609" lon="16.652082">
        <ele>230.660223</ele>
        <time>2020-08-26T07:55:32.388Z</time>
      </trkpt>
      <trkpt lat="48.564530" lon="16.652175">
        <ele>230.660017</ele>
        <time>2020-08-26T07:55:34.354Z</time>
      </trkpt>
      <trkpt lat="48.564451" lon="16.652274">
        <ele>230.659806</ele>
        <time>2020-08-26T07:55:36.384Z</time>
      </trkpt>
      <trkpt lat="48.564370" lon="16.652374">
        <ele>230.659591</ele>
        <time>2020-08-26T07:55:38.361Z</time>
      </trkpt>
      <trkpt lat="48.564292" lon="16.652484">
        <ele>230.659371</ele>
        <time>2020-08-26T07:55:40.359Z</time>
      </trkpt>
      <trkpt lat="48.564219" lon="16.652593">
        <ele>230.659160</ele>
        <time>2020-08-26T07:55:42.370Z</time>
      </trkpt>
      <trkpt lat="48.564147" lon="16.652699">
        <ele>230.658953</ele>
        <time>2020-08-26T07:55:44.353Z</time>
      </trkpt>
      <trkpt lat="48.564058" lon="16.652782">
        <ele>230.658737</ele>
        <time>2020-08-26T07:55:46.380Z</time>
      </trkpt>
      <trkpt lat="48.563958" lon="16.652834">
        <ele>230.658520</ele>
        <time>2020-08-26T07:55:48.389Z</time>
      </trkpt>
      <trkpt lat="48.563865" lon="16.652863">
        <ele>230.658324</ele>
        <time>2020-08-26T07:55:50.369Z</time>
      </trkpt>
      <trkpt lat="48.563768" lon="16.652880">
        <ele>230.658123</ele>
        <time>2020-08-26T07:55:52.371Z</time>
      </trkpt>
      <trkpt lat="48.563672" lon="16.652904">
        <ele>230.657923</ele>
        <time>2020-08-26T07:55:54.357Z</time>
      </trkpt>
      <trkpt lat="48.563578" lon="16.652926">
        <ele>230.658144</ele>
        <time>2020-08-26T07:55:56.361Z</time>
      </trkpt>
      <trkpt lat="48.563479" lon="16.652939">
        <ele>230.662620</ele>
        <time>2020-08-26T07:55:58.368Z</time>
      </trkpt>
      <trkpt lat="48.563379" lon="16.652969">
        <ele>230.667213</ele>
        <time>2020-08-26T07:56:00.358Z</time>
      </trkpt>
      <trkpt lat="48.563280" lon="16.653019">
        <ele>230.671915</ele>
        <time>2020-08-26T07:56:02.368Z</time>
      </trkpt>
      <trkpt lat="48.563175" lon="16.653076">
        <ele>230.676940</ele>
        <time>2020-08-26T07:56:04.345Z</time>
      </trkpt>
      <trkpt lat="48.563078" lon="16.653147">
        <ele>230.681795</ele>
        <time>2020-08-26T07:56:06.360Z</time>
      </trkpt>
      <trkpt lat="48.563046" lon="16.653295">
        <ele>230.686437</ele>
        <time>2020-08-26T07:56:08.349Z</time>
      </trkpt>
      <trkpt lat="48.563083" lon="16.653455">
        <ele>230.691489</ele>
        <time>2020-08-26T07:56:10.360Z</time>
      </trkpt>
      <trkpt lat="48.563119" lon="16.653607">
        <ele>230.696302</ele>
        <time>2020-08-26T07:56:12.361Z</time>
      </trkpt>
      <trkpt lat="48.563156" lon="16.653756">
        <ele>230.701046</ele>
        <time>2020-08-26T07:56:14.370Z</time>
      </trkpt>
      <trkpt lat="48.563193" lon="16.653906">
        <ele>230.705818</ele>
        <time>2020-08-26T07:56:16.391Z</time>
      </trkpt>
      <trkpt lat="48.563236" lon="16.654058">
        <ele>230.710745</ele>
        <time>2020-08-26T07:56:18.393Z</time>
      </trkpt>
      <trkpt lat="48.563283" lon="16.654209">
        <ele>230.715720</ele>
        <time>2020-08-26T07:56:20.380Z</time>
      </trkpt>
      <trkpt lat="48.563326" lon="16.654354">
        <ele>230.720456</ele>
        <time>2020-08-26T07:56:22.382Z</time>
      </trkpt>
      <trkpt lat="48.563377" lon="16.654491">
        <ele>230.725142</ele>
        <time>2020-08-26T07:56:24.365Z</time>
      </trkpt>
      <trkpt lat="48.563424" lon="16.654641">
        <ele>230.730089</ele>
        <time>2020-08-26T07:56:26.374Z</time>
      </trkpt>
      <trkpt lat="48.563405" lon="16.654800">
        <ele>230.734906</ele>
        <time>2020-08-26T07:56:28.355Z</time>
      </trkpt>
      <trkpt lat="48.563336" lon="16.654930">
        <ele>230.743508</ele>
        <time>2020-08-26T07:56:30.354Z</time>
      </trkpt>
      <trkpt lat="48.563277" lon="16.655068">
        <ele>230.764450</ele>
        <time>2020-08-26T07:56:32.358Z</time>
      </trkpt>
      <trkpt lat="48.563232" lon="16.655212">
        <ele>230.784749</ele>
        <time>2020-08-26T07:56:34.368Z</time>
      </trkpt>
      <trkpt lat="48.563178" lon="16.655341">
        <ele>230.804206</ele>
        <time>2020-08-26T07:56:36.373Z</time>
      </trkpt>
      <trkpt lat="48.563115" lon="16.655457">
        <ele>230.823335</ele>
        <time>2020-08-26T07:56:38.363Z</time>
      </trkpt>
      <trkpt lat="48.563059" lon="16.655567">
        <ele>230.841025</ele>
        <time>2020-08-26T07:56:40.346Z</time>
      </trkpt>
      <trkpt lat="48.563003" lon="16.655674">
        <ele>230.858414</ele>
        <time>2020-08-26T07:56:42.349Z</time>
      </trkpt>
      <trkpt lat="48.562938" lon="16.655788">
        <ele>230.877595</ele>
        <time>2020-08-26T07:56:44.379Z</time>
      </trkpt>
      <trkpt lat="48.562869" lon="16.655894">
        <ele>230.896548</ele>
        <time>2020-08-26T07:56:46.353Z</time>
      </trkpt>
      <trkpt lat="48.562792" lon="16.656056">
        <ele>230.921972</ele>
        <time>2020-08-26T07:56:49.349Z</time>
      </trkpt>
      <trkpt lat="48.562730" lon="16.656159">
        <ele>230.939720</ele>
        <time>2020-08-26T07:56:51.370Z</time>
      </trkpt>
      <trkpt lat="48.562663" lon="16.656310">
        <ele>230.962894</ele>
        <time>2020-08-26T07:56:54.367Z</time>
      </trkpt>
      <trkpt lat="48.562609" lon="16.656494">
        <ele>230.988551</ele>
        <time>2020-08-26T07:56:57.365Z</time>
      </trkpt>
      <trkpt lat="48.562579" lon="16.656624">
        <ele>231.006101</ele>
        <time>2020-08-26T07:56:59.355Z</time>
      </trkpt>
      <trkpt lat="48.562545" lon="16.656758">
        <ele>231.024394</ele>
        <time>2020-08-26T07:57:01.366Z</time>
      </trkpt>
      <trkpt lat="48.562503" lon="16.656886">
        <ele>231.042606</ele>
        <time>2020-08-26T07:57:03.351Z</time>
      </trkpt>
      <trkpt lat="48.562465" lon="16.657010">
        <ele>231.060025</ele>
        <time>2020-08-26T07:57:05.354Z</time>
      </trkpt>
      <trkpt lat="48.562419" lon="16.657134">
        <ele>231.078145</ele>
        <time>2020-08-26T07:57:07.363Z</time>
      </trkpt>
      <trkpt lat="48.562364" lon="16.657259">
        <ele>231.085810</ele>
        <time>2020-08-26T07:57:09.386Z</time>
      </trkpt>
      <trkpt lat="48.562314" lon="16.657380">
        <ele>231.086722</ele>
        <time>2020-08-26T07:57:11.361Z</time>
      </trkpt>
      <trkpt lat="48.562266" lon="16.657501">
        <ele>231.087624</ele>
        <time>2020-08-26T07:57:13.357Z</time>
      </trkpt>
      <trkpt lat="48.562222" lon="16.657622">
        <ele>231.088506</ele>
        <time>2020-08-26T07:57:15.356Z</time>
      </trkpt>
      <trkpt lat="48.562179" lon="16.657750">
        <ele>231.089424</ele>
        <time>2020-08-26T07:57:17.358Z</time>
      </trkpt>
      <trkpt lat="48.562133" lon="16.657874">
        <ele>231.090333</ele>
        <time>2020-08-26T07:57:19.353Z</time>
      </trkpt>
      <trkpt lat="48.562060" lon="16.658045">
        <ele>231.091633</ele>
        <time>2020-08-26T07:57:22.364Z</time>
      </trkpt>
      <trkpt lat="48.561997" lon="16.658207">
        <ele>231.092834</ele>
        <time>2020-08-26T07:57:25.352Z</time>
      </trkpt>
      <trkpt lat="48.561940" lon="16.658368">
        <ele>231.094002</ele>
        <time>2020-08-26T07:57:28.362Z</time>
      </trkpt>
      <trkpt lat="48.561888" lon="16.658523">
        <ele>231.095112</ele>
        <time>2020-08-26T07:57:31.364Z</time>
      </trkpt>
      <trkpt lat="48.561853" lon="16.658656">
        <ele>231.096027</ele>
        <time>2020-08-26T07:57:33.361Z</time>
      </trkpt>
      <trkpt lat="48.561827" lon="16.658790">
        <ele>231.096920</ele>
        <time>2020-08-26T07:57:35.378Z</time>
      </trkpt>
      <trkpt lat="48.561792" lon="16.658983">
        <ele>231.098199</ele>
        <time>2020-08-26T07:57:38.388Z</time>
      </trkpt>
      <trkpt lat="48.561748" lon="16.659158">
        <ele>231.099396</ele>
        <time>2020-08-26T07:57:41.359Z</time>
      </trkpt>
      <trkpt lat="48.561702" lon="16.659314">
        <ele>231.100488</ele>
        <time>2020-08-26T07:57:44.363Z</time>
      </trkpt>
      <trkpt lat="48.561657" lon="16.659453">
        <ele>231.101477</ele>
        <time>2020-08-26T07:57:47.395Z</time>
      </trkpt>
      <trkpt lat="48.561571" lon="16.659562">
        <ele>231.102561</ele>
        <time>2020-08-26T07:57:50.385Z</time>
      </trkpt>
      <trkpt lat="48.561481" lon="16.659657">
        <ele>231.145003</ele>
        <time>2020-08-26T07:57:53.361Z</time>
      </trkpt>
      <trkpt lat="48.561432" lon="16.659795">
        <ele>231.185689</ele>
        <time>2020-08-26T07:57:56.369Z</time>
      </trkpt>
      <trkpt lat="48.561395" lon="16.659952">
        <ele>231.228987</ele>
        <time>2020-08-26T07:58:00.376Z</time>
      </trkpt>
      <trkpt lat="48.561361" lon="16.660123">
        <ele>231.275374</ele>
        <time>2020-08-26T07:58:04.367Z</time>
      </trkpt>
      <trkpt lat="48.561336" lon="16.660265">
        <ele>231.313548</ele>
        <time>2020-08-26T07:58:08.363Z</time>
      </trkpt>
      <trkpt lat="48.561294" lon="16.660391">
        <ele>231.350200</ele>
        <time>2020-08-26T07:58:12.349Z</time>
      </trkpt>
      <trkpt lat="48.561249" lon="16.660534">
        <ele>231.391338</ele>
        <time>2020-08-26T07:58:16.383Z</time>
      </trkpt>
      <trkpt lat="48.561203" lon="16.660668">
        <ele>231.430555</ele>
        <time>2020-08-26T07:58:20.372Z</time>
      </trkpt>
      <trkpt lat="48.561168" lon="16.660804">
        <ele>231.468465</ele>
        <time>2020-08-26T07:58:24.366Z</time>
      </trkpt>
      <trkpt lat="48.561103" lon="16.660950">
        <ele>231.514180</ele>
        <time>2020-08-26T07:58:28.367Z</time>
      </trkpt>
      <trkpt lat="48.561061" lon="16.661091">
        <ele>231.554351</ele>
        <time>2020-08-26T07:58:32.392Z</time>
      </trkpt>
      <trkpt lat="48.561016" lon="16.661245">
        <ele>231.598086</ele>
        <time>2020-08-26T07:58:36.389Z</time>
      </trkpt>
      <trkpt lat="48.560971" lon="16.661397">
        <ele>231.641347</ele>
        <time>2020-08-26T07:58:40.368Z</time>
      </trkpt>
      <trkpt lat="48.560922" lon="16.661555">
        <ele>231.686678</ele>
        <time>2020-08-26T07:58:44.378Z</time>
      </trkpt>
      <trkpt lat="48.560879" lon="16.661708">
        <ele>231.729864</ele>
        <time>2020-08-26T07:58:48.379Z</time>
      </trkpt>
      <trkpt lat="48.560831" lon="16.661881">
        <ele>231.778599</ele>
        <time>2020-08-26T07:58:52.376Z</time>
      </trkpt>
      <trkpt lat="48.560782" lon="16.661995">
        <ele>231.823774</ele>
        <time>2020-08-26T07:58:55.389Z</time>
      </trkpt>
      <trkpt lat="48.560728" lon="16.662129">
        <ele>231.940731</ele>
        <time>2020-08-26T07:58:59.363Z</time>
      </trkpt>
      <trkpt lat="48.560674" lon="16.662285">
        <ele>232.071974</ele>
        <time>2020-08-26T07:59:03.371Z</time>
      </trkpt>
      <trkpt lat="48.560629" lon="16.662450">
        <ele>232.205015</ele>
        <time>2020-08-26T07:59:07.384Z</time>
      </trkpt>
      <trkpt lat="48.560587" lon="16.662618">
        <ele>232.338895</ele>
        <time>2020-08-26T07:59:11.379Z</time>
      </trkpt>
      <trkpt lat="48.560542" lon="16.662765">
        <ele>232.459637</ele>
        <time>2020-08-26T07:59:15.370Z</time>
      </trkpt>
      <trkpt lat="48.560485" lon="16.662900">
        <ele>232.579015</ele>
        <time>2020-08-26T07:59:19.387Z</time>
      </trkpt>
      <trkpt lat="48.560455" lon="16.663033">
        <ele>232.683766</ele>
        <time>2020-08-26T07:59:22.383Z</time>
      </trkpt>
      <trkpt lat="48.560424" lon="16.663163">
        <ele>232.786779</ele>
        <time>2020-08-26T07:59:25.551Z</time>
      </trkpt>
      <trkpt lat="48.560390" lon="16.663323">
        <ele>232.912056</ele>
        <time>2020-08-26T07:59:29.354Z</time>
      </trkpt>
      <trkpt lat="48.560346" lon="16.663469">
        <ele>233.031652</ele>
        <time>2020-08-26T07:59:33.364Z</time>
      </trkpt>
      <trkpt lat="48.560323" lon="16.663615">
        <ele>233.143535</ele>
        <time>2020-08-26T07:59:37.375Z</time>
      </trkpt>
      <trkpt lat="48.560294" lon="16.663752">
        <ele>233.250764</ele>
        <time>2020-08-26T07:59:40.359Z</time>
      </trkpt>
      <trkpt lat="48.560259" lon="16.663877">
        <ele>233.351948</ele>
        <time>2020-08-26T07:59:43.384Z</time>
      </trkpt>
      <trkpt lat="48.560222" lon="16.664008">
        <ele>233.458129</ele>
        <time>2020-08-26T07:59:46.362Z</time>
      </trkpt>
      <trkpt lat="48.560181" lon="16.664168">
        <ele>233.586038</ele>
        <time>2020-08-26T07:59:50.355Z</time>
      </trkpt>
      <trkpt lat="48.560153" lon="16.664300">
        <ele>233.689374</ele>
        <time>2020-08-26T07:59:53.392Z</time>
      </trkpt>
      <trkpt lat="48.560118" lon="16.664435">
        <ele>233.797463</ele>
        <time>2020-08-26T07:59:56.365Z</time>
      </trkpt>
      <trkpt lat="48.560075" lon="16.664569">
        <ele>233.954800</ele>
        <time>2020-08-26T07:59:59.377Z</time>
      </trkpt>
      <trkpt lat="48.560029" lon="16.664706">
        <ele>234.141176</ele>
        <time>2020-08-26T08:00:02.367Z</time>
      </trkpt>
      <trkpt lat="48.559988" lon="16.664850">
        <ele>234.331359</ele>
        <time>2020-08-26T08:00:05.362Z</time>
      </trkpt>
      <trkpt lat="48.559943" lon="16.664997">
        <ele>234.527855</ele>
        <time>2020-08-26T08:00:08.382Z</time>
      </trkpt>
      <trkpt lat="48.559894" lon="16.665155">
        <ele>234.739545</ele>
        <time>2020-08-26T08:00:11.395Z</time>
      </trkpt>
      <trkpt lat="48.559842" lon="16.665299">
        <ele>234.938561</ele>
        <time>2020-08-26T08:00:14.393Z</time>
      </trkpt>
      <trkpt lat="48.559793" lon="16.665445">
        <ele>235.137163</ele>
        <time>2020-08-26T08:00:17.387Z</time>
      </trkpt>
      <trkpt lat="48.559735" lon="16.665603">
        <ele>235.356363</ele>
        <time>2020-08-26T08:00:20.388Z</time>
      </trkpt>
      <trkpt lat="48.559651" lon="16.665721">
        <ele>235.566613</ele>
        <time>2020-08-26T08:00:23.353Z</time>
      </trkpt>
      <trkpt lat="48.559571" lon="16.665864">
        <ele>235.793780</ele>
        <time>2020-08-26T08:00:26.358Z</time>
      </trkpt>
      <trkpt lat="48.559506" lon="16.666001">
        <ele>235.998288</ele>
        <time>2020-08-26T08:00:29.358Z</time>
      </trkpt>
      <trkpt lat="48.559470" lon="16.666139">
        <ele>236.178249</ele>
        <time>2020-08-26T08:00:32.403Z</time>
      </trkpt>
      <trkpt lat="48.559409" lon="16.666283">
        <ele>236.385675</ele>
        <time>2020-08-26T08:00:35.372Z</time>
      </trkpt>
      <trkpt lat="48.559335" lon="16.666442">
        <ele>236.621498</ele>
        <time>2020-08-26T08:00:38.384Z</time>
      </trkpt>
      <trkpt lat="48.559260" lon="16.666599">
        <ele>236.856409</ele>
        <time>2020-08-26T08:00:41.362Z</time>
      </trkpt>
      <trkpt lat="48.559195" lon="16.666750">
        <ele>237.074946</ele>
        <time>2020-08-26T08:00:44.362Z</time>
      </trkpt>
      <trkpt lat="48.559122" lon="16.666904">
        <ele>237.282950</ele>
        <time>2020-08-26T08:00:47.389Z</time>
      </trkpt>
      <trkpt lat="48.559047" lon="16.667067">
        <ele>237.493434</ele>
        <time>2020-08-26T08:00:50.365Z</time>
      </trkpt>
      <trkpt lat="48.558979" lon="16.667232">
        <ele>237.699523</ele>
        <time>2020-08-26T08:00:53.361Z</time>
      </trkpt>
      <trkpt lat="48.558905" lon="16.667392">
        <ele>237.906482</ele>
        <time>2020-08-26T08:00:56.369Z</time>
      </trkpt>
      <trkpt lat="48.558846" lon="16.667496">
        <ele>238.051715</ele>
        <time>2020-08-26T08:00:58.366Z</time>
      </trkpt>
      <trkpt lat="48.558761" lon="16.667636">
        <ele>238.253149</ele>
        <time>2020-08-26T08:01:01.403Z</time>
      </trkpt>
      <trkpt lat="48.558683" lon="16.667774">
        <ele>238.445562</ele>
        <time>2020-08-26T08:01:04.371Z</time>
      </trkpt>
      <trkpt lat="48.558606" lon="16.667919">
        <ele>238.642671</ele>
        <time>2020-08-26T08:01:07.363Z</time>
      </trkpt>
      <trkpt lat="48.558532" lon="16.668066">
        <ele>238.838492</ele>
        <time>2020-08-26T08:01:10.383Z</time>
      </trkpt>
      <trkpt lat="48.558457" lon="16.668201">
        <ele>239.025373</ele>
        <time>2020-08-26T08:01:13.378Z</time>
      </trkpt>
      <trkpt lat="48.558380" lon="16.668336">
        <ele>239.214329</ele>
        <time>2020-08-26T08:01:16.374Z</time>
      </trkpt>
      <trkpt lat="48.558309" lon="16.668477">
        <ele>239.402178</ele>
        <time>2020-08-26T08:01:19.371Z</time>
      </trkpt>
      <trkpt lat="48.558234" lon="16.668613">
        <ele>239.589872</ele>
        <time>2020-08-26T08:01:22.363Z</time>
      </trkpt>
      <trkpt lat="48.558157" lon="16.668755">
        <ele>239.784511</ele>
        <time>2020-08-26T08:01:25.362Z</time>
      </trkpt>
      <trkpt lat="48.558073" lon="16.668885">
        <ele>239.977143</ele>
        <time>2020-08-26T08:01:28.365Z</time>
      </trkpt>
      <trkpt lat="48.557984" lon="16.669021">
        <ele>240.176216</ele>
        <time>2020-08-26T08:01:31.373Z</time>
      </trkpt>
      <trkpt lat="48.557900" lon="16.669160">
        <ele>240.371346</ele>
        <time>2020-08-26T08:01:34.368Z</time>
      </trkpt>
      <trkpt lat="48.557819" lon="16.669294">
        <ele>240.559480</ele>
        <time>2020-08-26T08:01:37.368Z</time>
      </trkpt>
      <trkpt lat="48.557739" lon="16.669428">
        <ele>240.746561</ele>
        <time>2020-08-26T08:01:40.392Z</time>
      </trkpt>
      <trkpt lat="48.557662" lon="16.669560">
        <ele>240.928968</ele>
        <time>2020-08-26T08:01:43.355Z</time>
      </trkpt>
      <trkpt lat="48.557586" lon="16.669702">
        <ele>241.118287</ele>
        <time>2020-08-26T08:01:46.379Z</time>
      </trkpt>
      <trkpt lat="48.557509" lon="16.669827">
        <ele>241.295315</ele>
        <time>2020-08-26T08:01:49.396Z</time>
      </trkpt>
      <trkpt lat="48.557432" lon="16.669956">
        <ele>241.475401</ele>
        <time>2020-08-26T08:01:52.362Z</time>
      </trkpt>
      <trkpt lat="48.557355" lon="16.670083">
        <ele>241.653953</ele>
        <time>2020-08-26T08:01:55.364Z</time>
      </trkpt>
      <trkpt lat="48.557288" lon="16.670220">
        <ele>241.830546</ele>
        <time>2020-08-26T08:01:58.401Z</time>
      </trkpt>
      <trkpt lat="48.557208" lon="16.670341">
        <ele>242.007851</ele>
        <time>2020-08-26T08:02:01.370Z</time>
      </trkpt>
      <trkpt lat="48.557132" lon="16.670471">
        <ele>242.187668</ele>
        <time>2020-08-26T08:02:04.361Z</time>
      </trkpt>
      <trkpt lat="48.557055" lon="16.670601">
        <ele>242.368526</ele>
        <time>2020-08-26T08:02:07.375Z</time>
      </trkpt>
      <trkpt lat="48.556983" lon="16.670737">
        <ele>242.549073</ele>
        <time>2020-08-26T08:02:10.384Z</time>
      </trkpt>
      <trkpt lat="48.556913" lon="16.670887">
        <ele>242.739346</ele>
        <time>2020-08-26T08:02:13.355Z</time>
      </trkpt>
      <trkpt lat="48.556839" lon="16.671007">
        <ele>242.896552</ele>
        <time>2020-08-26T08:02:16.376Z</time>
      </trkpt>
      <trkpt lat="48.556773" lon="16.671131">
        <ele>243.034718</ele>
        <time>2020-08-26T08:02:19.356Z</time>
      </trkpt>
      <trkpt lat="48.556707" lon="16.671254">
        <ele>243.172209</ele>
        <time>2020-08-26T08:02:22.341Z</time>
      </trkpt>
      <trkpt lat="48.556634" lon="16.671387">
        <ele>243.322237</ele>
        <time>2020-08-26T08:02:25.378Z</time>
      </trkpt>
      <trkpt lat="48.556563" lon="16.671509">
        <ele>243.463297</ele>
        <time>2020-08-26T08:02:28.363Z</time>
      </trkpt>
      <trkpt lat="48.556493" lon="16.671635">
        <ele>243.606137</ele>
        <time>2020-08-26T08:02:31.355Z</time>
      </trkpt>
      <trkpt lat="48.556427" lon="16.671755">
        <ele>243.741614</ele>
        <time>2020-08-26T08:02:34.360Z</time>
      </trkpt>
      <trkpt lat="48.556362" lon="16.671869">
        <ele>243.872267</ele>
        <time>2020-08-26T08:02:37.365Z</time>
      </trkpt>
      <trkpt lat="48.556299" lon="16.671978">
        <ele>243.997921</ele>
        <time>2020-08-26T08:02:40.380Z</time>
      </trkpt>
      <trkpt lat="48.556234" lon="16.672097">
        <ele>244.131894</ele>
        <time>2020-08-26T08:02:43.354Z</time>
      </trkpt>
      <trkpt lat="48.556171" lon="16.672221">
        <ele>244.267629</ele>
        <time>2020-08-26T08:02:46.383Z</time>
      </trkpt>
      <trkpt lat="48.556108" lon="16.672336">
        <ele>244.397253</ele>
        <time>2020-08-26T08:02:49.363Z</time>
      </trkpt>
      <trkpt lat="48.556044" lon="16.672444">
        <ele>244.523126</ele>
        <time>2020-08-26T08:02:52.350Z</time>
      </trkpt>
      <trkpt lat="48.555980" lon="16.672543">
        <ele>244.643289</ele>
        <time>2020-08-26T08:02:55.367Z</time>
      </trkpt>
      <trkpt lat="48.555919" lon="16.672654">
        <ele>244.768565</ele>
        <time>2020-08-26T08:02:58.403Z</time>
      </trkpt>
      <trkpt lat="48.555857" lon="16.672763">
        <ele>244.893360</ele>
        <time>2020-08-26T08:03:01.361Z</time>
      </trkpt>
      <trkpt lat="48.555797" lon="16.672882">
        <ele>245.023257</ele>
        <time>2020-08-26T08:03:04.368Z</time>
      </trkpt>
      <trkpt lat="48.555735" lon="16.672994">
        <ele>245.150040</ele>
        <time>2020-08-26T08:03:07.363Z</time>
      </trkpt>
      <trkpt lat="48.555671" lon="16.673108">
        <ele>245.337062</ele>
        <time>2020-08-26T08:03:10.376Z</time>
      </trkpt>
      <trkpt lat="48.555613" lon="16.673219">
        <ele>245.538107</ele>
        <time>2020-08-26T08:03:13.379Z</time>
      </trkpt>
      <trkpt lat="48.555535" lon="16.673356">
        <ele>245.795008</ele>
        <time>2020-08-26T08:03:17.376Z</time>
      </trkpt>
      <trkpt lat="48.555461" lon="16.673485">
        <ele>246.037686</ele>
        <time>2020-08-26T08:03:21.371Z</time>
      </trkpt>
      <trkpt lat="48.555382" lon="16.673608">
        <ele>246.281338</ele>
        <time>2020-08-26T08:03:25.364Z</time>
      </trkpt>
      <trkpt lat="48.555305" lon="16.673732">
        <ele>246.523053</ele>
        <time>2020-08-26T08:03:29.358Z</time>
      </trkpt>
      <trkpt lat="48.555244" lon="16.673833">
        <ele>246.717428</ele>
        <time>2020-08-26T08:03:32.365Z</time>
      </trkpt>
      <trkpt lat="48.555186" lon="16.673937">
        <ele>246.910761</ele>
        <time>2020-08-26T08:03:35.380Z</time>
      </trkpt>
      <trkpt lat="48.555117" lon="16.674032">
        <ele>247.111267</ele>
        <time>2020-08-26T08:03:38.366Z</time>
      </trkpt>
      <trkpt lat="48.555051" lon="16.674135">
        <ele>247.315070</ele>
        <time>2020-08-26T08:03:41.393Z</time>
      </trkpt>
      <trkpt lat="48.554994" lon="16.674262">
        <ele>247.533211</ele>
        <time>2020-08-26T08:03:45.379Z</time>
      </trkpt>
      <trkpt lat="48.554930" lon="16.674368">
        <ele>247.737181</ele>
        <time>2020-08-26T08:03:48.370Z</time>
      </trkpt>
      <trkpt lat="48.554869" lon="16.674477">
        <ele>247.940103</ele>
        <time>2020-08-26T08:03:51.380Z</time>
      </trkpt>
      <trkpt lat="48.554794" lon="16.674612">
        <ele>248.190667</ele>
        <time>2020-08-26T08:03:55.365Z</time>
      </trkpt>
      <trkpt lat="48.554723" lon="16.674735">
        <ele>248.422682</ele>
        <time>2020-08-26T08:03:59.360Z</time>
      </trkpt>
      <trkpt lat="48.554656" lon="16.674854">
        <ele>248.644782</ele>
        <time>2020-08-26T08:04:03.381Z</time>
      </trkpt>
      <trkpt lat="48.554582" lon="16.674977">
        <ele>248.881083</ele>
        <time>2020-08-26T08:04:07.399Z</time>
      </trkpt>
      <trkpt lat="48.554510" lon="16.675095">
        <ele>249.122129</ele>
        <time>2020-08-26T08:04:11.376Z</time>
      </trkpt>
      <trkpt lat="48.554438" lon="16.675196">
        <ele>249.381665</ele>
        <time>2020-08-26T08:04:15.392Z</time>
      </trkpt>
      <trkpt lat="48.554364" lon="16.675302">
        <ele>249.651036</ele>
        <time>2020-08-26T08:04:19.392Z</time>
      </trkpt>
      <trkpt lat="48.554294" lon="16.675408">
        <ele>249.912841</ele>
        <time>2020-08-26T08:04:23.387Z</time>
      </trkpt>
      <trkpt lat="48.554222" lon="16.675516">
        <ele>250.180856</ele>
        <time>2020-08-26T08:04:27.402Z</time>
      </trkpt>
      <trkpt lat="48.554133" lon="16.675623">
        <ele>250.481311</ele>
        <time>2020-08-26T08:04:31.404Z</time>
      </trkpt>
      <trkpt lat="48.554051" lon="16.675720">
        <ele>250.756419</ele>
        <time>2020-08-26T08:04:35.379Z</time>
      </trkpt>
      <trkpt lat="48.553974" lon="16.675819">
        <ele>251.023505</ele>
        <time>2020-08-26T08:04:39.375Z</time>
      </trkpt>
      <trkpt lat="48.553902" lon="16.675922">
        <ele>251.285435</ele>
        <time>2020-08-26T08:04:43.377Z</time>
      </trkpt>
      <trkpt lat="48.553834" lon="16.676015">
        <ele>251.527731</ele>
        <time>2020-08-26T08:04:47.406Z</time>
      </trkpt>
      <trkpt lat="48.553767" lon="16.676110">
        <ele>251.770455</ele>
        <time>2020-08-26T08:04:51.370Z</time>
      </trkpt>
      <trkpt lat="48.553691" lon="16.676220">
        <ele>252.048478</ele>
        <time>2020-08-26T08:04:55.366Z</time>
      </trkpt>
      <trkpt lat="48.553609" lon="16.676317">
        <ele>252.323586</ele>
        <time>2020-08-26T08:04:59.365Z</time>
      </trkpt>
      <trkpt lat="48.553525" lon="16.676414">
        <ele>252.602874</ele>
        <time>2020-08-26T08:05:03.371Z</time>
      </trkpt>
      <trkpt lat="48.553445" lon="16.676513">
        <ele>252.876045</ele>
        <time>2020-08-26T08:05:07.364Z</time>
      </trkpt>
      <trkpt lat="48.553370" lon="16.676629">
        <ele>253.159574</ele>
        <time>2020-08-26T08:05:11.383Z</time>
      </trkpt>
      <trkpt lat="48.553299" lon="16.676730">
        <ele>253.417184</ele>
        <time>2020-08-26T08:05:15.360Z</time>
      </trkpt>
      <trkpt lat="48.553220" lon="16.676836">
        <ele>253.696291</ele>
        <time>2020-08-26T08:05:19.380Z</time>
      </trkpt>
      <trkpt lat="48.553138" lon="16.676934">
        <ele>253.982027</ele>
        <time>2020-08-26T08:05:23.404Z</time>
      </trkpt>
      <trkpt lat="48.553064" lon="16.677033">
        <ele>254.257960</ele>
        <time>2020-08-26T08:05:27.382Z</time>
      </trkpt>
      <trkpt lat="48.552993" lon="16.677125">
        <ele>254.519081</ele>
        <time>2020-08-26T08:05:31.375Z</time>
      </trkpt>
      <trkpt lat="48.552927" lon="16.677217">
        <ele>254.769772</ele>
        <time>2020-08-26T08:05:35.375Z</time>
      </trkpt>
      <trkpt lat="48.552866" lon="16.677322">
        <ele>255.027923</ele>
        <time>2020-08-26T08:05:39.406Z</time>
      </trkpt>
      <trkpt lat="48.552806" lon="16.677427">
        <ele>255.284241</ele>
        <time>2020-08-26T08:05:43.369Z</time>
      </trkpt>
      <trkpt lat="48.552732" lon="16.677547">
        <ele>255.587296</ele>
        <time>2020-08-26T08:05:48.359Z</time>
      </trkpt>
      <trkpt lat="48.552653" lon="16.677640">
        <ele>255.866881</ele>
        <time>2020-08-26T08:05:52.377Z</time>
      </trkpt>
      <trkpt lat="48.552572" lon="16.677748">
        <ele>256.168471</ele>
        <time>2020-08-26T08:05:56.401Z</time>
      </trkpt>
      <trkpt lat="48.552494" lon="16.677850">
        <ele>256.456458</ele>
        <time>2020-08-26T08:06:00.388Z</time>
      </trkpt>
      <trkpt lat="48.552402" lon="16.677955">
        <ele>256.778334</ele>
        <time>2020-08-26T08:06:04.365Z</time>
      </trkpt>
      <trkpt lat="48.552330" lon="16.678039">
        <ele>257.032286</ele>
        <time>2020-08-26T08:06:07.383Z</time>
      </trkpt>
      <trkpt lat="48.552240" lon="16.678148">
        <ele>257.354297</ele>
        <time>2020-08-26T08:06:11.387Z</time>
      </trkpt>
      <trkpt lat="48.552140" lon="16.678152">
        <ele>257.633553</ele>
        <time>2020-08-26T08:06:14.363Z</time>
      </trkpt>
      <trkpt lat="48.552052" lon="16.678072">
        <ele>257.920261</ele>
        <time>2020-08-26T08:06:17.364Z</time>
      </trkpt>
      <trkpt lat="48.551947" lon="16.677951">
        <ele>258.288921</ele>
        <time>2020-08-26T08:06:20.385Z</time>
      </trkpt>
      <trkpt lat="48.551856" lon="16.677855">
        <ele>258.598763</ele>
        <time>2020-08-26T08:06:22.389Z</time>
      </trkpt>
      <trkpt lat="48.551752" lon="16.677743">
        <ele>258.962787</ele>
        <time>2020-08-26T08:06:24.374Z</time>
      </trkpt>
      <trkpt lat="48.551649" lon="16.677633">
        <ele>259.335206</ele>
        <time>2020-08-26T08:06:26.369Z</time>
      </trkpt>
      <trkpt lat="48.551565" lon="16.677537">
        <ele>259.646187</ele>
        <time>2020-08-26T08:06:28.389Z</time>
      </trkpt>
      <trkpt lat="48.551465" lon="16.677423">
        <ele>260.016065</ele>
        <time>2020-08-26T08:06:31.369Z</time>
      </trkpt>
      <trkpt lat="48.551383" lon="16.677329">
        <ele>260.319979</ele>
        <time>2020-08-26T08:06:34.377Z</time>
      </trkpt>
      <trkpt lat="48.551290" lon="16.677223">
        <ele>260.663942</ele>
        <time>2020-08-26T08:06:38.380Z</time>
      </trkpt>
      <trkpt lat="48.551208" lon="16.677139">
        <ele>260.956457</ele>
        <time>2020-08-26T08:06:42.401Z</time>
      </trkpt>
      <trkpt lat="48.551120" lon="16.677045">
        <ele>261.274663</ele>
        <time>2020-08-26T08:06:47.388Z</time>
      </trkpt>
      <trkpt lat="48.551043" lon="16.676970">
        <ele>261.545161</ele>
        <time>2020-08-26T08:06:51.438Z</time>
      </trkpt>
      <trkpt lat="48.550958" lon="16.676893">
        <ele>261.837783</ele>
        <time>2020-08-26T08:06:55.367Z</time>
      </trkpt>
      <trkpt lat="48.550881" lon="16.676816">
        <ele>262.110419</ele>
        <time>2020-08-26T08:06:59.383Z</time>
      </trkpt>
      <trkpt lat="48.550804" lon="16.676726">
        <ele>262.397861</ele>
        <time>2020-08-26T08:07:03.407Z</time>
      </trkpt>
      <trkpt lat="48.550726" lon="16.676638">
        <ele>262.685288</ele>
        <time>2020-08-26T08:07:07.376Z</time>
      </trkpt>
      <trkpt lat="48.550636" lon="16.676553">
        <ele>262.998666</ele>
        <time>2020-08-26T08:07:11.391Z</time>
      </trkpt>
      <trkpt lat="48.550546" lon="16.676466">
        <ele>263.314133</ele>
        <time>2020-08-26T08:07:15.413Z</time>
      </trkpt>
      <trkpt lat="48.550465" lon="16.676367">
        <ele>263.621753</ele>
        <time>2020-08-26T08:07:19.376Z</time>
      </trkpt>
      <trkpt lat="48.550387" lon="16.676275">
        <ele>263.913926</ele>
        <time>2020-08-26T08:07:23.369Z</time>
      </trkpt>
      <trkpt lat="48.550297" lon="16.676183">
        <ele>264.258195</ele>
        <time>2020-08-26T08:07:27.385Z</time>
      </trkpt>
      <trkpt lat="48.550196" lon="16.676082">
        <ele>264.700549</ele>
        <time>2020-08-26T08:07:31.360Z</time>
      </trkpt>
      <trkpt lat="48.550112" lon="16.675996">
        <ele>265.071139</ele>
        <time>2020-08-26T08:07:34.398Z</time>
      </trkpt>
      <trkpt lat="48.550039" lon="16.675909">
        <ele>265.410718</ele>
        <time>2020-08-26T08:07:37.365Z</time>
      </trkpt>
      <trkpt lat="48.549948" lon="16.675807">
        <ele>265.824549</ele>
        <time>2020-08-26T08:07:40.391Z</time>
      </trkpt>
      <trkpt lat="48.549837" lon="16.675689">
        <ele>266.320244</ele>
        <time>2020-08-26T08:07:43.366Z</time>
      </trkpt>
      <trkpt lat="48.549757" lon="16.675605">
        <ele>266.676054</ele>
        <time>2020-08-26T08:07:45.367Z</time>
      </trkpt>
      <trkpt lat="48.549666" lon="16.675517">
        <ele>267.070655</ele>
        <time>2020-08-26T08:07:47.392Z</time>
      </trkpt>
      <trkpt lat="48.549569" lon="16.675418">
        <ele>267.498180</ele>
        <time>2020-08-26T08:07:49.381Z</time>
      </trkpt>
      <trkpt lat="48.549465" lon="16.675313">
        <ele>267.955015</ele>
        <time>2020-08-26T08:07:51.394Z</time>
      </trkpt>
      <trkpt lat="48.549354" lon="16.675196">
        <ele>268.449324</ele>
        <time>2020-08-26T08:07:53.391Z</time>
      </trkpt>
      <trkpt lat="48.549238" lon="16.675068">
        <ele>268.973949</ele>
        <time>2020-08-26T08:07:55.377Z</time>
      </trkpt>
      <trkpt lat="48.549113" lon="16.674928">
        <ele>269.542244</ele>
        <time>2020-08-26T08:07:57.404Z</time>
      </trkpt>
      <trkpt lat="48.548977" lon="16.674778">
        <ele>270.157224</ele>
        <time>2020-08-26T08:07:59.380Z</time>
      </trkpt>
      <trkpt lat="48.548838" lon="16.674633">
        <ele>270.731982</ele>
        <time>2020-08-26T08:08:01.381Z</time>
      </trkpt>
      <trkpt lat="48.548698" lon="16.674483">
        <ele>270.978356</ele>
        <time>2020-08-26T08:08:03.391Z</time>
      </trkpt>
      <trkpt lat="48.548559" lon="16.674334">
        <ele>271.223008</ele>
        <time>2020-08-26T08:08:05.376Z</time>
      </trkpt>
      <trkpt lat="48.548424" lon="16.674177">
        <ele>271.467564</ele>
        <time>2020-08-26T08:08:07.363Z</time>
      </trkpt>
      <trkpt lat="48.548308" lon="16.674048">
        <ele>271.674326</ele>
        <time>2020-08-26T08:08:09.368Z</time>
      </trkpt>
      <trkpt lat="48.548225" lon="16.673982">
        <ele>271.808964</ele>
        <time>2020-08-26T08:08:11.356Z</time>
      </trkpt>
      <trkpt lat="48.548125" lon="16.673954">
        <ele>271.954950</ele>
        <time>2020-08-26T08:08:15.381Z</time>
      </trkpt>
      <trkpt lat="48.548062" lon="16.674064">
        <ele>272.093165</ele>
        <time>2020-08-26T08:08:18.373Z</time>
      </trkpt>
      <trkpt lat="48.548009" lon="16.674182">
        <ele>272.228665</ele>
        <time>2020-08-26T08:08:22.379Z</time>
      </trkpt>
      <trkpt lat="48.547956" lon="16.674302">
        <ele>272.365742</ele>
        <time>2020-08-26T08:08:26.383Z</time>
      </trkpt>
      <trkpt lat="48.547901" lon="16.674430">
        <ele>272.510748</ele>
        <time>2020-08-26T08:08:30.400Z</time>
      </trkpt>
      <trkpt lat="48.547854" lon="16.674553">
        <ele>272.645700</ele>
        <time>2020-08-26T08:08:34.389Z</time>
      </trkpt>
      <trkpt lat="48.547799" lon="16.674674">
        <ele>272.785173</ele>
        <time>2020-08-26T08:08:38.410Z</time>
      </trkpt>
      <trkpt lat="48.547729" lon="16.674798">
        <ele>272.940028</ele>
        <time>2020-08-26T08:08:42.393Z</time>
      </trkpt>
      <trkpt lat="48.547664" lon="16.674925">
        <ele>273.092569</ele>
        <time>2020-08-26T08:08:46.366Z</time>
      </trkpt>
      <trkpt lat="48.547607" lon="16.675062">
        <ele>273.246329</ele>
        <time>2020-08-26T08:08:50.395Z</time>
      </trkpt>
      <trkpt lat="48.547544" lon="16.675188">
        <ele>273.625300</ele>
        <time>2020-08-26T08:08:54.384Z</time>
      </trkpt>
      <trkpt lat="48.547466" lon="16.675308">
        <ele>274.118021</ele>
        <time>2020-08-26T08:08:58.379Z</time>
      </trkpt>
      <trkpt lat="48.547415" lon="16.675426">
        <ele>274.530897</ele>
        <time>2020-08-26T08:09:01.371Z</time>
      </trkpt>
      <trkpt lat="48.547351" lon="16.675568">
        <ele>275.034198</ele>
        <time>2020-08-26T08:09:05.355Z</time>
      </trkpt>
      <trkpt lat="48.547276" lon="16.675699">
        <ele>275.541627</ele>
        <time>2020-08-26T08:09:09.387Z</time>
      </trkpt>
      <trkpt lat="48.547202" lon="16.675826">
        <ele>276.037316</ele>
        <time>2020-08-26T08:09:14.370Z</time>
      </trkpt>
      <trkpt lat="48.547152" lon="16.675943">
        <ele>276.445326</ele>
        <time>2020-08-26T08:09:17.373Z</time>
      </trkpt>
      <trkpt lat="48.547090" lon="16.676071">
        <ele>276.910010</ele>
        <time>2020-08-26T08:09:21.384Z</time>
      </trkpt>
      <trkpt lat="48.547027" lon="16.676209">
        <ele>277.401144</ele>
        <time>2020-08-26T08:09:25.368Z</time>
      </trkpt>
      <trkpt lat="48.546969" lon="16.676340">
        <ele>277.862880</ele>
        <time>2020-08-26T08:09:29.380Z</time>
      </trkpt>
      <trkpt lat="48.546907" lon="16.676466">
        <ele>278.322849</ele>
        <time>2020-08-26T08:09:33.360Z</time>
      </trkpt>
      <trkpt lat="48.546850" lon="16.676593">
        <ele>278.772392</ele>
        <time>2020-08-26T08:09:37.370Z</time>
      </trkpt>
      <trkpt lat="48.546791" lon="16.676721">
        <ele>279.229364</ele>
        <time>2020-08-26T08:09:41.380Z</time>
      </trkpt>
      <trkpt lat="48.546718" lon="16.676848">
        <ele>279.722142</ele>
        <time>2020-08-26T08:09:45.376Z</time>
      </trkpt>
      <trkpt lat="48.546649" lon="16.676969">
        <ele>280.190045</ele>
        <time>2020-08-26T08:09:49.366Z</time>
      </trkpt>
      <trkpt lat="48.546585" lon="16.677099">
        <ele>280.664702</ele>
        <time>2020-08-26T08:09:53.387Z</time>
      </trkpt>
      <trkpt lat="48.546520" lon="16.677231">
        <ele>281.146702</ele>
        <time>2020-08-26T08:09:57.384Z</time>
      </trkpt>
      <trkpt lat="48.546443" lon="16.677359">
        <ele>281.983891</ele>
        <time>2020-08-26T08:10:01.377Z</time>
      </trkpt>
      <trkpt lat="48.546375" lon="16.677505">
        <ele>282.931907</ele>
        <time>2020-08-26T08:10:05.386Z</time>
      </trkpt>
      <trkpt lat="48.546306" lon="16.677636">
        <ele>283.820934</ele>
        <time>2020-08-26T08:10:09.379Z</time>
      </trkpt>
      <trkpt lat="48.546230" lon="16.677772">
        <ele>284.766099</ele>
        <time>2020-08-26T08:10:13.370Z</time>
      </trkpt>
      <trkpt lat="48.546166" lon="16.677878">
        <ele>285.527987</ele>
        <time>2020-08-26T08:10:16.379Z</time>
      </trkpt>
      <trkpt lat="48.546103" lon="16.677990">
        <ele>286.308495</ele>
        <time>2020-08-26T08:10:19.380Z</time>
      </trkpt>
      <trkpt lat="48.546036" lon="16.678103">
        <ele>287.114101</ele>
        <time>2020-08-26T08:10:22.412Z</time>
      </trkpt>
      <trkpt lat="48.545975" lon="16.678208">
        <ele>287.855986</ele>
        <time>2020-08-26T08:10:25.395Z</time>
      </trkpt>
      <trkpt lat="48.545927" lon="16.678333">
        <ele>288.623413</ele>
        <time>2020-08-26T08:10:28.362Z</time>
      </trkpt>
      <trkpt lat="48.545860" lon="16.678429">
        <ele>289.364221</ele>
        <time>2020-08-26T08:10:31.366Z</time>
      </trkpt>
      <trkpt lat="48.545785" lon="16.678540">
        <ele>290.206524</ele>
        <time>2020-08-26T08:10:34.370Z</time>
      </trkpt>
      <trkpt lat="48.545705" lon="16.678663">
        <ele>291.122243</ele>
        <time>2020-08-26T08:10:37.384Z</time>
      </trkpt>
      <trkpt lat="48.545623" lon="16.678798">
        <ele>292.095235</ele>
        <time>2020-08-26T08:10:40.385Z</time>
      </trkpt>
      <trkpt lat="48.545535" lon="16.678928">
        <ele>293.082647</ele>
        <time>2020-08-26T08:10:43.374Z</time>
      </trkpt>
      <trkpt lat="48.545445" lon="16.679062">
        <ele>294.096391</ele>
        <time>2020-08-26T08:10:46.382Z</time>
      </trkpt>
      <trkpt lat="48.545375" lon="16.679153">
        <ele>294.837255</ele>
        <time>2020-08-26T08:10:48.400Z</time>
      </trkpt>
      <trkpt lat="48.545278" lon="16.679285">
        <ele>295.740156</ele>
        <time>2020-08-26T08:10:51.385Z</time>
      </trkpt>
      <trkpt lat="48.545179" lon="16.679414">
        <ele>296.064940</ele>
        <time>2020-08-26T08:10:54.371Z</time>
      </trkpt>
      <trkpt lat="48.545103" lon="16.679506">
        <ele>296.306875</ele>
        <time>2020-08-26T08:10:56.369Z</time>
      </trkpt>
      <trkpt lat="48.545021" lon="16.679613">
        <ele>296.576051</ele>
        <time>2020-08-26T08:10:58.374Z</time>
      </trkpt>
      <trkpt lat="48.544941" lon="16.679710">
        <ele>296.830883</ele>
        <time>2020-08-26T08:11:00.391Z</time>
      </trkpt>
      <trkpt lat="48.544854" lon="16.679817">
        <ele>297.109577</ele>
        <time>2020-08-26T08:11:02.370Z</time>
      </trkpt>
      <trkpt lat="48.544765" lon="16.679917">
        <ele>297.385118</ele>
        <time>2020-08-26T08:11:04.413Z</time>
      </trkpt>
      <trkpt lat="48.544675" lon="16.680019">
        <ele>297.664619</ele>
        <time>2020-08-26T08:11:06.371Z</time>
      </trkpt>
      <trkpt lat="48.544582" lon="16.680121">
        <ele>297.950116</ele>
        <time>2020-08-26T08:11:08.392Z</time>
      </trkpt>
      <trkpt lat="48.544491" lon="16.680212">
        <ele>298.221218</ele>
        <time>2020-08-26T08:11:10.381Z</time>
      </trkpt>
      <trkpt lat="48.544400" lon="16.680286">
        <ele>298.477946</ele>
        <time>2020-08-26T08:11:12.358Z</time>
      </trkpt>
      <trkpt lat="48.544308" lon="16.680349">
        <ele>298.728871</ele>
        <time>2020-08-26T08:11:14.367Z</time>
      </trkpt>
      <trkpt lat="48.544218" lon="16.680401">
        <ele>298.968236</ele>
        <time>2020-08-26T08:11:16.374Z</time>
      </trkpt>
      <trkpt lat="48.544131" lon="16.680448">
        <ele>299.197758</ele>
        <time>2020-08-26T08:11:18.374Z</time>
      </trkpt>
      <trkpt lat="48.544023" lon="16.680521">
        <ele>299.491676</ele>
        <time>2020-08-26T08:11:21.374Z</time>
      </trkpt>
      <trkpt lat="48.543915" lon="16.680593">
        <ele>299.784926</ele>
        <time>2020-08-26T08:11:24.371Z</time>
      </trkpt>
      <trkpt lat="48.543836" lon="16.680664">
        <ele>300.013280</ele>
        <time>2020-08-26T08:11:26.421Z</time>
      </trkpt>
      <trkpt lat="48.543753" lon="16.680728">
        <ele>300.209762</ele>
        <time>2020-08-26T08:11:28.351Z</time>
      </trkpt>
      <trkpt lat="48.543671" lon="16.680785">
        <ele>300.356591</ele>
        <time>2020-08-26T08:11:30.373Z</time>
      </trkpt>
      <trkpt lat="48.543550" lon="16.680868">
        <ele>300.572756</ele>
        <time>2020-08-26T08:11:33.378Z</time>
      </trkpt>
      <trkpt lat="48.543461" lon="16.680929">
        <ele>300.731731</ele>
        <time>2020-08-26T08:11:35.389Z</time>
      </trkpt>
      <trkpt lat="48.543372" lon="16.680999">
        <ele>300.894951</ele>
        <time>2020-08-26T08:11:37.373Z</time>
      </trkpt>
      <trkpt lat="48.543288" lon="16.681062">
        <ele>301.047503</ele>
        <time>2020-08-26T08:11:39.370Z</time>
      </trkpt>
      <trkpt lat="48.543205" lon="16.681135">
        <ele>301.203732</ele>
        <time>2020-08-26T08:11:41.387Z</time>
      </trkpt>
      <trkpt lat="48.543116" lon="16.681216">
        <ele>301.372749</ele>
        <time>2020-08-26T08:11:43.379Z</time>
      </trkpt>
      <trkpt lat="48.543032" lon="16.681295">
        <ele>301.533706</ele>
        <time>2020-08-26T08:11:45.362Z</time>
      </trkpt>
      <trkpt lat="48.542952" lon="16.681375">
        <ele>301.689770</ele>
        <time>2020-08-26T08:11:47.378Z</time>
      </trkpt>
      <trkpt lat="48.542859" lon="16.681454">
        <ele>301.863327</ele>
        <time>2020-08-26T08:11:49.404Z</time>
      </trkpt>
      <trkpt lat="48.542774" lon="16.681525">
        <ele>302.021323</ele>
        <time>2020-08-26T08:11:51.400Z</time>
      </trkpt>
      <trkpt lat="48.542688" lon="16.681594">
        <ele>302.179722</ele>
        <time>2020-08-26T08:11:53.374Z</time>
      </trkpt>
      <trkpt lat="48.542604" lon="16.681670">
        <ele>302.338995</ele>
        <time>2020-08-26T08:11:55.382Z</time>
      </trkpt>
      <trkpt lat="48.542522" lon="16.681747">
        <ele>302.496052</ele>
        <time>2020-08-26T08:11:57.371Z</time>
      </trkpt>
      <trkpt lat="48.542438" lon="16.681827">
        <ele>302.657582</ele>
        <time>2020-08-26T08:11:59.369Z</time>
      </trkpt>
      <trkpt lat="48.542354" lon="16.681909">
        <ele>302.820270</ele>
        <time>2020-08-26T08:12:01.381Z</time>
      </trkpt>
      <trkpt lat="48.542269" lon="16.681989">
        <ele>302.983178</ele>
        <time>2020-08-26T08:12:03.382Z</time>
      </trkpt>
      <trkpt lat="48.542190" lon="16.682076">
        <ele>303.117719</ele>
        <time>2020-08-26T08:12:05.382Z</time>
      </trkpt>
      <trkpt lat="48.542116" lon="16.682162">
        <ele>303.218757</ele>
        <time>2020-08-26T08:12:07.387Z</time>
      </trkpt>
      <trkpt lat="48.542039" lon="16.682249">
        <ele>303.322814</ele>
        <time>2020-08-26T08:12:09.369Z</time>
      </trkpt>
      <trkpt lat="48.541961" lon="16.682338">
        <ele>303.428597</ele>
        <time>2020-08-26T08:12:11.367Z</time>
      </trkpt>
      <trkpt lat="48.541879" lon="16.682425">
        <ele>303.537035</ele>
        <time>2020-08-26T08:12:13.365Z</time>
      </trkpt>
      <trkpt lat="48.541797" lon="16.682511">
        <ele>303.645064</ele>
        <time>2020-08-26T08:12:15.384Z</time>
      </trkpt>
      <trkpt lat="48.541710" lon="16.682602">
        <ele>303.759579</ele>
        <time>2020-08-26T08:12:17.395Z</time>
      </trkpt>
      <trkpt lat="48.541618" lon="16.682697">
        <ele>303.880177</ele>
        <time>2020-08-26T08:12:19.373Z</time>
      </trkpt>
      <trkpt lat="48.541529" lon="16.682793">
        <ele>303.998524</ele>
        <time>2020-08-26T08:12:21.415Z</time>
      </trkpt>
      <trkpt lat="48.541436" lon="16.682885">
        <ele>304.118826</ele>
        <time>2020-08-26T08:12:23.368Z</time>
      </trkpt>
      <trkpt lat="48.541345" lon="16.682974">
        <ele>304.236141</ele>
        <time>2020-08-26T08:12:25.369Z</time>
      </trkpt>
      <trkpt lat="48.541251" lon="16.683067">
        <ele>304.357741</ele>
        <time>2020-08-26T08:12:27.395Z</time>
      </trkpt>
      <trkpt lat="48.541160" lon="16.683163">
        <ele>304.477856</ele>
        <time>2020-08-26T08:12:29.372Z</time>
      </trkpt>
      <trkpt lat="48.541071" lon="16.683252">
        <ele>304.593361</ele>
        <time>2020-08-26T08:12:31.394Z</time>
      </trkpt>
      <trkpt lat="48.540984" lon="16.683348">
        <ele>304.709954</ele>
        <time>2020-08-26T08:12:33.394Z</time>
      </trkpt>
      <trkpt lat="48.540892" lon="16.683445">
        <ele>304.831366</ele>
        <time>2020-08-26T08:12:35.390Z</time>
      </trkpt>
      <trkpt lat="48.540800" lon="16.683541">
        <ele>304.952370</ele>
        <time>2020-08-26T08:12:37.361Z</time>
      </trkpt>
      <trkpt lat="48.540706" lon="16.683634">
        <ele>305.060707</ele>
        <time>2020-08-26T08:12:39.382Z</time>
      </trkpt>
      <trkpt lat="48.540626" lon="16.683724">
        <ele>305.144207</ele>
        <time>2020-08-26T08:12:41.385Z</time>
      </trkpt>
      <trkpt lat="48.540537" lon="16.683812">
        <ele>305.233250</ele>
        <time>2020-08-26T08:12:43.387Z</time>
      </trkpt>
      <trkpt lat="48.540459" lon="16.683897">
        <ele>305.313762</ele>
        <time>2020-08-26T08:12:45.383Z</time>
      </trkpt>
      <trkpt lat="48.540370" lon="16.683978">
        <ele>305.400741</ele>
        <time>2020-08-26T08:12:47.373Z</time>
      </trkpt>
      <trkpt lat="48.540282" lon="16.684063">
        <ele>305.488178</ele>
        <time>2020-08-26T08:12:49.386Z</time>
      </trkpt>
      <trkpt lat="48.540196" lon="16.684144">
        <ele>305.573016</ele>
        <time>2020-08-26T08:12:51.405Z</time>
      </trkpt>
      <trkpt lat="48.540088" lon="16.684261">
        <ele>305.684269</ele>
        <time>2020-08-26T08:12:54.379Z</time>
      </trkpt>
      <trkpt lat="48.540010" lon="16.684337">
        <ele>305.761968</ele>
        <time>2020-08-26T08:12:56.367Z</time>
      </trkpt>
      <trkpt lat="48.539936" lon="16.684416">
        <ele>305.837823</ele>
        <time>2020-08-26T08:12:58.373Z</time>
      </trkpt>
      <trkpt lat="48.539831" lon="16.684525">
        <ele>305.944473</ele>
        <time>2020-08-26T08:13:01.381Z</time>
      </trkpt>
      <trkpt lat="48.539724" lon="16.684641">
        <ele>306.054724</ele>
        <time>2020-08-26T08:13:04.377Z</time>
      </trkpt>
      <trkpt lat="48.539615" lon="16.684748">
        <ele>306.163543</ele>
        <time>2020-08-26T08:13:07.369Z</time>
      </trkpt>
      <trkpt lat="48.539538" lon="16.684821">
        <ele>306.239643</ele>
        <time>2020-08-26T08:13:09.405Z</time>
      </trkpt>
      <trkpt lat="48.539426" lon="16.684927">
        <ele>306.350280</ele>
        <time>2020-08-26T08:13:12.354Z</time>
      </trkpt>
      <trkpt lat="48.539306" lon="16.685021">
        <ele>306.463434</ele>
        <time>2020-08-26T08:13:15.369Z</time>
      </trkpt>
      <trkpt lat="48.539226" lon="16.685089">
        <ele>306.546383</ele>
        <time>2020-08-26T08:13:17.388Z</time>
      </trkpt>
      <trkpt lat="48.539148" lon="16.685160">
        <ele>306.646745</ele>
        <time>2020-08-26T08:13:19.366Z</time>
      </trkpt>
      <trkpt lat="48.539068" lon="16.685226">
        <ele>306.747203</ele>
        <time>2020-08-26T08:13:21.397Z</time>
      </trkpt>
      <trkpt lat="48.538989" lon="16.685292">
        <ele>306.846695</ele>
        <time>2020-08-26T08:13:23.383Z</time>
      </trkpt>
      <trkpt lat="48.538871" lon="16.685389">
        <ele>306.994747</ele>
        <time>2020-08-26T08:13:26.377Z</time>
      </trkpt>
      <trkpt lat="48.538792" lon="16.685454">
        <ele>307.093888</ele>
        <time>2020-08-26T08:13:28.376Z</time>
      </trkpt>
      <trkpt lat="48.538708" lon="16.685514">
        <ele>307.196289</ele>
        <time>2020-08-26T08:13:30.430Z</time>
      </trkpt>
      <trkpt lat="48.538627" lon="16.685579">
        <ele>307.297371</ele>
        <time>2020-08-26T08:13:32.376Z</time>
      </trkpt>
      <trkpt lat="48.538506" lon="16.685666">
        <ele>307.445056</ele>
        <time>2020-08-26T08:13:35.379Z</time>
      </trkpt>
      <trkpt lat="48.538424" lon="16.685733">
        <ele>307.547798</ele>
        <time>2020-08-26T08:13:37.398Z</time>
      </trkpt>
      <trkpt lat="48.538345" lon="16.685805">
        <ele>307.649482</ele>
        <time>2020-08-26T08:13:39.372Z</time>
      </trkpt>
      <trkpt lat="48.538259" lon="16.685872">
        <ele>307.756122</ele>
        <time>2020-08-26T08:13:41.398Z</time>
      </trkpt>
      <trkpt lat="48.538179" lon="16.685939">
        <ele>307.856932</ele>
        <time>2020-08-26T08:13:43.396Z</time>
      </trkpt>
      <trkpt lat="48.538058" lon="16.686032">
        <ele>308.006551</ele>
        <time>2020-08-26T08:13:46.375Z</time>
      </trkpt>
      <trkpt lat="48.537967" lon="16.686090">
        <ele>308.115400</ele>
        <time>2020-08-26T08:13:48.385Z</time>
      </trkpt>
      <trkpt lat="48.537881" lon="16.686156">
        <ele>308.221708</ele>
        <time>2020-08-26T08:13:50.409Z</time>
      </trkpt>
      <trkpt lat="48.537791" lon="16.686218">
        <ele>308.330721</ele>
        <time>2020-08-26T08:13:52.368Z</time>
      </trkpt>
      <trkpt lat="48.537703" lon="16.686284">
        <ele>308.438999</ele>
        <time>2020-08-26T08:13:54.365Z</time>
      </trkpt>
      <trkpt lat="48.537623" lon="16.686360">
        <ele>308.544249</ele>
        <time>2020-08-26T08:13:56.386Z</time>
      </trkpt>
      <trkpt lat="48.537542" lon="16.686431">
        <ele>308.650287</ele>
        <time>2020-08-26T08:13:58.378Z</time>
      </trkpt>
      <trkpt lat="48.537457" lon="16.686490">
        <ele>308.756205</ele>
        <time>2020-08-26T08:14:00.376Z</time>
      </trkpt>
      <trkpt lat="48.537375" lon="16.686551">
        <ele>308.859700</ele>
        <time>2020-08-26T08:14:02.374Z</time>
      </trkpt>
      <trkpt lat="48.537283" lon="16.686600">
        <ele>308.970153</ele>
        <time>2020-08-26T08:14:04.368Z</time>
      </trkpt>
      <trkpt lat="48.537192" lon="16.686654">
        <ele>309.080855</ele>
        <time>2020-08-26T08:14:06.381Z</time>
      </trkpt>
      <trkpt lat="48.537111" lon="16.686719">
        <ele>309.184708</ele>
        <time>2020-08-26T08:14:08.364Z</time>
      </trkpt>
      <trkpt lat="48.536990" lon="16.686800">
        <ele>309.334563</ele>
        <time>2020-08-26T08:14:11.389Z</time>
      </trkpt>
      <trkpt lat="48.536903" lon="16.686848">
        <ele>309.439435</ele>
        <time>2020-08-26T08:14:13.359Z</time>
      </trkpt>
      <trkpt lat="48.536816" lon="16.686886">
        <ele>309.541976</ele>
        <time>2020-08-26T08:14:15.378Z</time>
      </trkpt>
      <trkpt lat="48.536727" lon="16.686923">
        <ele>309.646494</ele>
        <time>2020-08-26T08:14:17.358Z</time>
      </trkpt>
      <trkpt lat="48.536640" lon="16.686957">
        <ele>309.748243</ele>
        <time>2020-08-26T08:14:19.382Z</time>
      </trkpt>
      <trkpt lat="48.536513" lon="16.686998">
        <ele>309.895285</ele>
        <time>2020-08-26T08:14:22.409Z</time>
      </trkpt>
      <trkpt lat="48.536387" lon="16.687040">
        <ele>310.041380</ele>
        <time>2020-08-26T08:14:25.360Z</time>
      </trkpt>
      <trkpt lat="48.536298" lon="16.687075">
        <ele>310.145509</ele>
        <time>2020-08-26T08:14:27.358Z</time>
      </trkpt>
      <trkpt lat="48.536166" lon="16.687129">
        <ele>310.300350</ele>
        <time>2020-08-26T08:14:30.405Z</time>
      </trkpt>
      <trkpt lat="48.536077" lon="16.687170">
        <ele>310.405703</ele>
        <time>2020-08-26T08:14:32.397Z</time>
      </trkpt>
      <trkpt lat="48.535988" lon="16.687212">
        <ele>310.511277</ele>
        <time>2020-08-26T08:14:34.378Z</time>
      </trkpt>
      <trkpt lat="48.535905" lon="16.687263">
        <ele>310.616031</ele>
        <time>2020-08-26T08:14:36.386Z</time>
      </trkpt>
      <trkpt lat="48.535777" lon="16.687338">
        <ele>310.778496</ele>
        <time>2020-08-26T08:14:39.369Z</time>
      </trkpt>
      <trkpt lat="48.535686" lon="16.687405">
        <ele>310.898292</ele>
        <time>2020-08-26T08:14:41.369Z</time>
      </trkpt>
      <trkpt lat="48.535602" lon="16.687477">
        <ele>311.012584</ele>
        <time>2020-08-26T08:14:43.368Z</time>
      </trkpt>
      <trkpt lat="48.535514" lon="16.687550">
        <ele>311.131391</ele>
        <time>2020-08-26T08:14:45.361Z</time>
      </trkpt>
      <trkpt lat="48.535398" lon="16.687635">
        <ele>311.283960</ele>
        <time>2020-08-26T08:14:48.356Z</time>
      </trkpt>
      <trkpt lat="48.535315" lon="16.687703">
        <ele>311.395696</ele>
        <time>2020-08-26T08:14:50.369Z</time>
      </trkpt>
      <trkpt lat="48.535226" lon="16.687770">
        <ele>311.513370</ele>
        <time>2020-08-26T08:14:52.368Z</time>
      </trkpt>
      <trkpt lat="48.535107" lon="16.687846">
        <ele>311.666258</ele>
        <time>2020-08-26T08:14:55.375Z</time>
      </trkpt>
      <trkpt lat="48.534992" lon="16.687927">
        <ele>311.816412</ele>
        <time>2020-08-26T08:14:58.373Z</time>
      </trkpt>
      <trkpt lat="48.534906" lon="16.687988">
        <ele>311.928843</ele>
        <time>2020-08-26T08:15:00.354Z</time>
      </trkpt>
      <trkpt lat="48.534784" lon="16.688071">
        <ele>312.087179</ele>
        <time>2020-08-26T08:15:03.399Z</time>
      </trkpt>
      <trkpt lat="48.534701" lon="16.688148">
        <ele>312.202446</ele>
        <time>2020-08-26T08:15:05.389Z</time>
      </trkpt>
      <trkpt lat="48.534593" lon="16.688252">
        <ele>312.354014</ele>
        <time>2020-08-26T08:15:08.371Z</time>
      </trkpt>
      <trkpt lat="48.534481" lon="16.688347">
        <ele>312.506018</ele>
        <time>2020-08-26T08:15:11.404Z</time>
      </trkpt>
      <trkpt lat="48.534364" lon="16.688430">
        <ele>312.658980</ele>
        <time>2020-08-26T08:15:14.394Z</time>
      </trkpt>
      <trkpt lat="48.534247" lon="16.688509">
        <ele>312.787353</ele>
        <time>2020-08-26T08:15:17.376Z</time>
      </trkpt>
      <trkpt lat="48.534142" lon="16.688587">
        <ele>312.903220</ele>
        <time>2020-08-26T08:15:20.381Z</time>
      </trkpt>
      <trkpt lat="48.534029" lon="16.688695">
        <ele>313.035636</ele>
        <time>2020-08-26T08:15:23.404Z</time>
      </trkpt>
      <trkpt lat="48.533933" lon="16.688795">
        <ele>313.151113</ele>
        <time>2020-08-26T08:15:26.379Z</time>
      </trkpt>
      <trkpt lat="48.533837" lon="16.688889">
        <ele>313.264403</ele>
        <time>2020-08-26T08:15:29.403Z</time>
      </trkpt>
      <trkpt lat="48.533739" lon="16.688990">
        <ele>313.381884</ele>
        <time>2020-08-26T08:15:32.369Z</time>
      </trkpt>
      <trkpt lat="48.533636" lon="16.689089">
        <ele>313.502778</ele>
        <time>2020-08-26T08:15:35.366Z</time>
      </trkpt>
      <trkpt lat="48.533538" lon="16.689173">
        <ele>313.614357</ele>
        <time>2020-08-26T08:15:38.396Z</time>
      </trkpt>
      <trkpt lat="48.533443" lon="16.689269">
        <ele>313.727542</ele>
        <time>2020-08-26T08:15:41.379Z</time>
      </trkpt>
      <trkpt lat="48.533329" lon="16.689360">
        <ele>313.855222</ele>
        <time>2020-08-26T08:15:44.371Z</time>
      </trkpt>
      <trkpt lat="48.533227" lon="16.689444">
        <ele>313.970262</ele>
        <time>2020-08-26T08:15:47.376Z</time>
      </trkpt>
      <trkpt lat="48.533133" lon="16.689532">
        <ele>314.079773</ele>
        <time>2020-08-26T08:15:50.359Z</time>
      </trkpt>
      <trkpt lat="48.533029" lon="16.689631">
        <ele>314.201504</ele>
        <time>2020-08-26T08:15:53.413Z</time>
      </trkpt>
      <trkpt lat="48.532926" lon="16.689724">
        <ele>314.320332</ele>
        <time>2020-08-26T08:15:56.377Z</time>
      </trkpt>
      <trkpt lat="48.532818" lon="16.689817">
        <ele>314.443435</ele>
        <time>2020-08-26T08:15:59.382Z</time>
      </trkpt>
      <trkpt lat="48.532714" lon="16.689904">
        <ele>314.552117</ele>
        <time>2020-08-26T08:16:02.370Z</time>
      </trkpt>
      <trkpt lat="48.532600" lon="16.689992">
        <ele>314.668674</ele>
        <time>2020-08-26T08:16:05.408Z</time>
      </trkpt>
      <trkpt lat="48.532515" lon="16.690073">
        <ele>314.760175</ele>
        <time>2020-08-26T08:16:07.358Z</time>
      </trkpt>
      <trkpt lat="48.532425" lon="16.690147">
        <ele>314.853467</ele>
        <time>2020-08-26T08:16:09.361Z</time>
      </trkpt>
      <trkpt lat="48.532332" lon="16.690220">
        <ele>314.948887</ele>
        <time>2020-08-26T08:16:11.369Z</time>
      </trkpt>
      <trkpt lat="48.532235" lon="16.690303">
        <ele>315.050385</ele>
        <time>2020-08-26T08:16:13.377Z</time>
      </trkpt>
      <trkpt lat="48.532140" lon="16.690385">
        <ele>315.150003</ele>
        <time>2020-08-26T08:16:15.378Z</time>
      </trkpt>
      <trkpt lat="48.532053" lon="16.690456">
        <ele>315.240032</ele>
        <time>2020-08-26T08:16:18.380Z</time>
      </trkpt>
      <trkpt lat="48.531956" lon="16.690528">
        <ele>315.338430</ele>
        <time>2020-08-26T08:16:22.415Z</time>
      </trkpt>
      <trkpt lat="48.531866" lon="16.690614">
        <ele>315.435390</ele>
        <time>2020-08-26T08:16:25.402Z</time>
      </trkpt>
      <trkpt lat="48.531830" lon="16.690792">
        <ele>315.547592</ele>
        <time>2020-08-26T08:16:28.367Z</time>
      </trkpt>
      <trkpt lat="48.531787" lon="16.690934">
        <ele>315.641724</ele>
        <time>2020-08-26T08:16:31.374Z</time>
      </trkpt>
      <trkpt lat="48.531738" lon="16.691089">
        <ele>315.745269</ele>
        <time>2020-08-26T08:16:34.363Z</time>
      </trkpt>
      <trkpt lat="48.531697" lon="16.691242">
        <ele>315.844773</ele>
        <time>2020-08-26T08:16:37.363Z</time>
      </trkpt>
      <trkpt lat="48.531648" lon="16.691383">
        <ele>315.940770</ele>
        <time>2020-08-26T08:16:40.364Z</time>
      </trkpt>
      <trkpt lat="48.531603" lon="16.691536">
        <ele>316.041697</ele>
        <time>2020-08-26T08:16:43.363Z</time>
      </trkpt>
      <trkpt lat="48.531562" lon="16.691694">
        <ele>316.147406</ele>
        <time>2020-08-26T08:16:46.383Z</time>
      </trkpt>
      <trkpt lat="48.531521" lon="16.691850">
        <ele>316.254572</ele>
        <time>2020-08-26T08:16:49.393Z</time>
      </trkpt>
      <trkpt lat="48.531476" lon="16.692011">
        <ele>316.366154</ele>
        <time>2020-08-26T08:16:52.381Z</time>
      </trkpt>
      <trkpt lat="48.531431" lon="16.692154">
        <ele>316.467246</ele>
        <time>2020-08-26T08:16:55.411Z</time>
      </trkpt>
      <trkpt lat="48.531389" lon="16.692309">
        <ele>316.574181</ele>
        <time>2020-08-26T08:16:58.406Z</time>
      </trkpt>
      <trkpt lat="48.531355" lon="16.692478">
        <ele>316.686959</ele>
        <time>2020-08-26T08:17:01.396Z</time>
      </trkpt>
      <trkpt lat="48.531311" lon="16.692659">
        <ele>316.810071</ele>
        <time>2020-08-26T08:17:04.382Z</time>
      </trkpt>
      <trkpt lat="48.531260" lon="16.692843">
        <ele>316.937434</ele>
        <time>2020-08-26T08:17:07.382Z</time>
      </trkpt>
      <trkpt lat="48.531224" lon="16.692969">
        <ele>317.025056</ele>
        <time>2020-08-26T08:17:09.408Z</time>
      </trkpt>
      <trkpt lat="48.531189" lon="16.693108">
        <ele>317.120009</ele>
        <time>2020-08-26T08:17:11.377Z</time>
      </trkpt>
      <trkpt lat="48.531148" lon="16.693249">
        <ele>317.218337</ele>
        <time>2020-08-26T08:17:13.371Z</time>
      </trkpt>
      <trkpt lat="48.531107" lon="16.693395">
        <ele>317.319596</ele>
        <time>2020-08-26T08:17:15.366Z</time>
      </trkpt>
      <trkpt lat="48.531064" lon="16.693545">
        <ele>317.423962</ele>
        <time>2020-08-26T08:17:17.381Z</time>
      </trkpt>
      <trkpt lat="48.531020" lon="16.693700">
        <ele>317.531642</ele>
        <time>2020-08-26T08:17:19.407Z</time>
      </trkpt>
      <trkpt lat="48.530982" lon="16.693854">
        <ele>317.636579</ele>
        <time>2020-08-26T08:17:21.411Z</time>
      </trkpt>
      <trkpt lat="48.530944" lon="16.694015">
        <ele>317.745715</ele>
        <time>2020-08-26T08:17:23.397Z</time>
      </trkpt>
      <trkpt lat="48.530907" lon="16.694177">
        <ele>317.836905</ele>
        <time>2020-08-26T08:17:25.377Z</time>
      </trkpt>
      <trkpt lat="48.530869" lon="16.694351">
        <ele>317.891962</ele>
        <time>2020-08-26T08:17:27.416Z</time>
      </trkpt>
      <trkpt lat="48.530828" lon="16.694522">
        <ele>317.946611</ele>
        <time>2020-08-26T08:17:29.388Z</time>
      </trkpt>
      <trkpt lat="48.530785" lon="16.694694">
        <ele>318.001857</ele>
        <time>2020-08-26T08:17:31.364Z</time>
      </trkpt>
      <trkpt lat="48.530742" lon="16.694864">
        <ele>318.056541</ele>
        <time>2020-08-26T08:17:33.375Z</time>
      </trkpt>
      <trkpt lat="48.530701" lon="16.695036">
        <ele>318.111474</ele>
        <time>2020-08-26T08:17:35.389Z</time>
      </trkpt>
      <trkpt lat="48.530664" lon="16.695209">
        <ele>318.166104</ele>
        <time>2020-08-26T08:17:37.386Z</time>
      </trkpt>
      <trkpt lat="48.530626" lon="16.695385">
        <ele>318.221731</ele>
        <time>2020-08-26T08:17:39.388Z</time>
      </trkpt>
      <trkpt lat="48.530591" lon="16.695561">
        <ele>318.276952</ele>
        <time>2020-08-26T08:17:41.393Z</time>
      </trkpt>
      <trkpt lat="48.530553" lon="16.695736">
        <ele>318.332295</ele>
        <time>2020-08-26T08:17:43.379Z</time>
      </trkpt>
      <trkpt lat="48.530517" lon="16.695913">
        <ele>318.387935</ele>
        <time>2020-08-26T08:17:45.382Z</time>
      </trkpt>
      <trkpt lat="48.530481" lon="16.696090">
        <ele>318.443575</ele>
        <time>2020-08-26T08:17:47.384Z</time>
      </trkpt>
      <trkpt lat="48.530441" lon="16.696269">
        <ele>318.500345</ele>
        <time>2020-08-26T08:17:49.383Z</time>
      </trkpt>
      <trkpt lat="48.530406" lon="16.696451">
        <ele>318.557295</ele>
        <time>2020-08-26T08:17:51.379Z</time>
      </trkpt>
      <trkpt lat="48.530374" lon="16.696634">
        <ele>318.614171</ele>
        <time>2020-08-26T08:17:53.371Z</time>
      </trkpt>
      <trkpt lat="48.530340" lon="16.696816">
        <ele>318.678978</ele>
        <time>2020-08-26T08:17:55.379Z</time>
      </trkpt>
      <trkpt lat="48.530309" lon="16.697000">
        <ele>318.749379</ele>
        <time>2020-08-26T08:17:57.403Z</time>
      </trkpt>
      <trkpt lat="48.530282" lon="16.697191">
        <ele>318.821797</ele>
        <time>2020-08-26T08:17:59.410Z</time>
      </trkpt>
      <trkpt lat="48.530257" lon="16.697385">
        <ele>318.895081</ele>
        <time>2020-08-26T08:18:01.389Z</time>
      </trkpt>
      <trkpt lat="48.530234" lon="16.697580">
        <ele>318.968525</ele>
        <time>2020-08-26T08:18:03.374Z</time>
      </trkpt>
      <trkpt lat="48.530214" lon="16.697775">
        <ele>319.041693</ele>
        <time>2020-08-26T08:18:05.386Z</time>
      </trkpt>
      <trkpt lat="48.530193" lon="16.697975">
        <ele>319.116779</ele>
        <time>2020-08-26T08:18:07.379Z</time>
      </trkpt>
      <trkpt lat="48.530174" lon="16.698180">
        <ele>319.193534</ele>
        <time>2020-08-26T08:18:09.417Z</time>
      </trkpt>
      <trkpt lat="48.530158" lon="16.698386">
        <ele>319.270442</ele>
        <time>2020-08-26T08:18:11.368Z</time>
      </trkpt>
      <trkpt lat="48.530142" lon="16.698592">
        <ele>319.347351</ele>
        <time>2020-08-26T08:18:13.400Z</time>
      </trkpt>
      <trkpt lat="48.530127" lon="16.698798">
        <ele>319.424196</ele>
        <time>2020-08-26T08:18:15.373Z</time>
      </trkpt>
      <trkpt lat="48.530113" lon="16.699006">
        <ele>319.501720</ele>
        <time>2020-08-26T08:18:17.368Z</time>
      </trkpt>
      <trkpt lat="48.530103" lon="16.699215">
        <ele>319.579419</ele>
        <time>2020-08-26T08:18:19.369Z</time>
      </trkpt>
      <trkpt lat="48.530094" lon="16.699423">
        <ele>319.656489</ele>
        <time>2020-08-26T08:18:21.365Z</time>
      </trkpt>
      <trkpt lat="48.530087" lon="16.699628">
        <ele>319.731281</ele>
        <time>2020-08-26T08:18:23.374Z</time>
      </trkpt>
      <trkpt lat="48.530083" lon="16.699831">
        <ele>319.805278</ele>
        <time>2020-08-26T08:18:25.394Z</time>
      </trkpt>
      <trkpt lat="48.530063" lon="16.700036">
        <ele>319.880778</ele>
        <time>2020-08-26T08:18:27.398Z</time>
      </trkpt>
      <trkpt lat="48.530054" lon="16.700241">
        <ele>319.955635</ele>
        <time>2020-08-26T08:18:29.409Z</time>
      </trkpt>
      <trkpt lat="48.530050" lon="16.700442">
        <ele>320.028904</ele>
        <time>2020-08-26T08:18:31.368Z</time>
      </trkpt>
      <trkpt lat="48.530052" lon="16.700641">
        <ele>320.101419</ele>
        <time>2020-08-26T08:18:33.387Z</time>
      </trkpt>
      <trkpt lat="48.530063" lon="16.700836">
        <ele>320.172726</ele>
        <time>2020-08-26T08:18:35.396Z</time>
      </trkpt>
      <trkpt lat="48.530082" lon="16.701025">
        <ele>320.242379</ele>
        <time>2020-08-26T08:18:37.387Z</time>
      </trkpt>
      <trkpt lat="48.530105" lon="16.701207">
        <ele>320.309888</ele>
        <time>2020-08-26T08:18:39.382Z</time>
      </trkpt>
      <trkpt lat="48.530135" lon="16.701387">
        <ele>320.377518</ele>
        <time>2020-08-26T08:18:41.405Z</time>
      </trkpt>
      <trkpt lat="48.530167" lon="16.701565">
        <ele>320.444721</ele>
        <time>2020-08-26T08:18:43.384Z</time>
      </trkpt>
      <trkpt lat="48.530202" lon="16.701734">
        <ele>320.509238</ele>
        <time>2020-08-26T08:18:45.374Z</time>
      </trkpt>
      <trkpt lat="48.530247" lon="16.701890">
        <ele>320.571236</ele>
        <time>2020-08-26T08:18:47.372Z</time>
      </trkpt>
      <trkpt lat="48.530296" lon="16.702039">
        <ele>320.631850</ele>
        <time>2020-08-26T08:18:49.391Z</time>
      </trkpt>
      <trkpt lat="48.530355" lon="16.702180">
        <ele>320.730131</ele>
        <time>2020-08-26T08:18:51.372Z</time>
      </trkpt>
      <trkpt lat="48.530415" lon="16.702315">
        <ele>320.827023</ele>
        <time>2020-08-26T08:18:53.371Z</time>
      </trkpt>
      <trkpt lat="48.530446" lon="16.702464">
        <ele>320.920097</ele>
        <time>2020-08-26T08:18:55.361Z</time>
      </trkpt>
      <trkpt lat="48.530444" lon="16.702617">
        <ele>321.011294</ele>
        <time>2020-08-26T08:18:57.367Z</time>
      </trkpt>
      <trkpt lat="48.530433" lon="16.702758">
        <ele>321.095903</ele>
        <time>2020-08-26T08:18:59.369Z</time>
      </trkpt>
      <trkpt lat="48.530412" lon="16.702943">
        <ele>321.207760</ele>
        <time>2020-08-26T08:19:02.371Z</time>
      </trkpt>
      <trkpt lat="48.530395" lon="16.703133">
        <ele>321.322017</ele>
        <time>2020-08-26T08:19:05.399Z</time>
      </trkpt>
      <trkpt lat="48.530387" lon="16.703324">
        <ele>321.436070</ele>
        <time>2020-08-26T08:19:08.364Z</time>
      </trkpt>
      <trkpt lat="48.530372" lon="16.703484">
        <ele>321.532371</ele>
        <time>2020-08-26T08:19:11.398Z</time>
      </trkpt>
      <trkpt lat="48.530348" lon="16.703645">
        <ele>321.630719</ele>
        <time>2020-08-26T08:19:14.394Z</time>
      </trkpt>
      <trkpt lat="48.530314" lon="16.703782">
        <ele>321.717908</ele>
        <time>2020-08-26T08:19:17.377Z</time>
      </trkpt>
      <trkpt lat="48.530292" lon="16.703926">
        <ele>321.805978</ele>
        <time>2020-08-26T08:19:20.383Z</time>
      </trkpt>
      <trkpt lat="48.530265" lon="16.704067">
        <ele>321.893448</ele>
        <time>2020-08-26T08:19:23.392Z</time>
      </trkpt>
      <trkpt lat="48.530241" lon="16.704249">
        <ele>322.004039</ele>
        <time>2020-08-26T08:19:27.385Z</time>
      </trkpt>
      <trkpt lat="48.530229" lon="16.704393">
        <ele>322.090532</ele>
        <time>2020-08-26T08:19:30.411Z</time>
      </trkpt>
      <trkpt lat="48.530207" lon="16.704557">
        <ele>322.190252</ele>
        <time>2020-08-26T08:19:33.392Z</time>
      </trkpt>
      <trkpt lat="48.530188" lon="16.704713">
        <ele>322.278760</ele>
        <time>2020-08-26T08:19:36.370Z</time>
      </trkpt>
      <trkpt lat="48.530159" lon="16.704877">
        <ele>322.361220</ele>
        <time>2020-08-26T08:19:39.366Z</time>
      </trkpt>
      <trkpt lat="48.530126" lon="16.705046">
        <ele>322.446811</ele>
        <time>2020-08-26T08:19:42.399Z</time>
      </trkpt>
      <trkpt lat="48.530081" lon="16.705216">
        <ele>322.535747</ele>
        <time>2020-08-26T08:19:45.373Z</time>
      </trkpt>
      <trkpt lat="48.530025" lon="16.705381">
        <ele>322.625815</ele>
        <time>2020-08-26T08:19:48.388Z</time>
      </trkpt>
      <trkpt lat="48.529966" lon="16.705530">
        <ele>322.710149</ele>
        <time>2020-08-26T08:19:51.388Z</time>
      </trkpt>
      <trkpt lat="48.529886" lon="16.705634">
        <ele>322.787585</ele>
        <time>2020-08-26T08:19:54.384Z</time>
      </trkpt>
      <trkpt lat="48.529776" lon="16.705721">
        <ele>322.878674</ele>
        <time>2020-08-26T08:19:57.367Z</time>
      </trkpt>
      <trkpt lat="48.529696" lon="16.705799">
        <ele>322.948528</ele>
        <time>2020-08-26T08:19:59.390Z</time>
      </trkpt>
      <trkpt lat="48.529623" lon="16.705896">
        <ele>323.019858</ele>
        <time>2020-08-26T08:20:01.375Z</time>
      </trkpt>
      <trkpt lat="48.529554" lon="16.706003">
        <ele>323.092410</ele>
        <time>2020-08-26T08:20:03.377Z</time>
      </trkpt>
      <trkpt lat="48.529484" lon="16.706114">
        <ele>323.166870</ele>
        <time>2020-08-26T08:20:05.390Z</time>
      </trkpt>
      <trkpt lat="48.529398" lon="16.706210">
        <ele>323.245322</ele>
        <time>2020-08-26T08:20:07.379Z</time>
      </trkpt>
      <trkpt lat="48.529317" lon="16.706341">
        <ele>323.332388</ele>
        <time>2020-08-26T08:20:09.386Z</time>
      </trkpt>
      <trkpt lat="48.529226" lon="16.706470">
        <ele>323.423947</ele>
        <time>2020-08-26T08:20:11.404Z</time>
      </trkpt>
      <trkpt lat="48.529143" lon="16.706637">
        <ele>323.525380</ele>
        <time>2020-08-26T08:20:13.383Z</time>
      </trkpt>
      <trkpt lat="48.529070" lon="16.706788">
        <ele>323.591248</ele>
        <time>2020-08-26T08:20:15.375Z</time>
      </trkpt>
      <trkpt lat="48.529037" lon="16.706944">
        <ele>323.626262</ele>
        <time>2020-08-26T08:20:17.366Z</time>
      </trkpt>
      <trkpt lat="48.528997" lon="16.707093">
        <ele>323.660637</ele>
        <time>2020-08-26T08:20:19.377Z</time>
      </trkpt>
      <trkpt lat="48.528970" lon="16.707238">
        <ele>323.692841</ele>
        <time>2020-08-26T08:20:21.390Z</time>
      </trkpt>
      <trkpt lat="48.528952" lon="16.707380">
        <ele>323.723752</ele>
        <time>2020-08-26T08:20:23.384Z</time>
      </trkpt>
      <trkpt lat="48.528935" lon="16.707546">
        <ele>323.759666</ele>
        <time>2020-08-26T08:20:25.367Z</time>
      </trkpt>
      <trkpt lat="48.528915" lon="16.707723">
        <ele>323.798056</ele>
        <time>2020-08-26T08:20:27.387Z</time>
      </trkpt>
      <trkpt lat="48.528889" lon="16.707927">
        <ele>323.842473</ele>
        <time>2020-08-26T08:20:29.367Z</time>
      </trkpt>
      <trkpt lat="48.528853" lon="16.708153">
        <ele>323.892171</ele>
        <time>2020-08-26T08:20:31.392Z</time>
      </trkpt>
      <trkpt lat="48.528814" lon="16.708385">
        <ele>323.943347</ele>
        <time>2020-08-26T08:20:33.371Z</time>
      </trkpt>
      <trkpt lat="48.528772" lon="16.708617">
        <ele>323.994770</ele>
        <time>2020-08-26T08:20:35.388Z</time>
      </trkpt>
      <trkpt lat="48.528730" lon="16.708852">
        <ele>324.046812</ele>
        <time>2020-08-26T08:20:37.377Z</time>
      </trkpt>
      <trkpt lat="48.528685" lon="16.709089">
        <ele>324.099526</ele>
        <time>2020-08-26T08:20:39.377Z</time>
      </trkpt>
      <trkpt lat="48.528642" lon="16.709322">
        <ele>324.151241</ele>
        <time>2020-08-26T08:20:41.368Z</time>
      </trkpt>
      <trkpt lat="48.528598" lon="16.709554">
        <ele>324.215081</ele>
        <time>2020-08-26T08:20:43.389Z</time>
      </trkpt>
      <trkpt lat="48.528553" lon="16.709787">
        <ele>324.279550</ele>
        <time>2020-08-26T08:20:45.391Z</time>
      </trkpt>
      <trkpt lat="48.528507" lon="16.710018">
        <ele>324.343624</ele>
        <time>2020-08-26T08:20:47.384Z</time>
      </trkpt>
      <trkpt lat="48.528468" lon="16.710263">
        <ele>324.410557</ele>
        <time>2020-08-26T08:20:49.378Z</time>
      </trkpt>
      <trkpt lat="48.528440" lon="16.710493">
        <ele>324.472675</ele>
        <time>2020-08-26T08:20:51.362Z</time>
      </trkpt>
      <trkpt lat="48.528412" lon="16.710709">
        <ele>324.531139</ele>
        <time>2020-08-26T08:20:53.379Z</time>
      </trkpt>
      <trkpt lat="48.528381" lon="16.710910">
        <ele>324.585959</ele>
        <time>2020-08-26T08:20:55.389Z</time>
      </trkpt>
      <trkpt lat="48.528362" lon="16.711115">
        <ele>324.640944</ele>
        <time>2020-08-26T08:20:57.373Z</time>
      </trkpt>
      <trkpt lat="48.528325" lon="16.711299">
        <ele>324.692023</ele>
        <time>2020-08-26T08:20:59.398Z</time>
      </trkpt>
      <trkpt lat="48.528280" lon="16.711473">
        <ele>324.741641</ele>
        <time>2020-08-26T08:21:01.373Z</time>
      </trkpt>
      <trkpt lat="48.528223" lon="16.711643">
        <ele>324.792256</ele>
        <time>2020-08-26T08:21:03.396Z</time>
      </trkpt>
      <trkpt lat="48.528158" lon="16.711805">
        <ele>324.842570</ele>
        <time>2020-08-26T08:21:05.378Z</time>
      </trkpt>
      <trkpt lat="48.528080" lon="16.711958">
        <ele>324.890844</ele>
        <time>2020-08-26T08:21:07.382Z</time>
      </trkpt>
      <trkpt lat="48.528001" lon="16.712115">
        <ele>324.935365</ele>
        <time>2020-08-26T08:21:09.381Z</time>
      </trkpt>
      <trkpt lat="48.527921" lon="16.712273">
        <ele>324.980272</ele>
        <time>2020-08-26T08:21:11.381Z</time>
      </trkpt>
      <trkpt lat="48.527843" lon="16.712431">
        <ele>325.024769</ele>
        <time>2020-08-26T08:21:13.400Z</time>
      </trkpt>
      <trkpt lat="48.527766" lon="16.712584">
        <ele>325.068158</ele>
        <time>2020-08-26T08:21:15.376Z</time>
      </trkpt>
      <trkpt lat="48.527693" lon="16.712737">
        <ele>325.110736</ele>
        <time>2020-08-26T08:21:17.394Z</time>
      </trkpt>
      <trkpt lat="48.527626" lon="16.712890">
        <ele>325.152152</ele>
        <time>2020-08-26T08:21:19.370Z</time>
      </trkpt>
      <trkpt lat="48.527560" lon="16.713047">
        <ele>325.194140</ele>
        <time>2020-08-26T08:21:21.402Z</time>
      </trkpt>
      <trkpt lat="48.527494" lon="16.713204">
        <ele>325.236128</ele>
        <time>2020-08-26T08:21:23.388Z</time>
      </trkpt>
      <trkpt lat="48.527429" lon="16.713367">
        <ele>325.279089</ele>
        <time>2020-08-26T08:21:25.378Z</time>
      </trkpt>
      <trkpt lat="48.527366" lon="16.713535">
        <ele>325.322682</ele>
        <time>2020-08-26T08:21:27.376Z</time>
      </trkpt>
      <trkpt lat="48.527304" lon="16.713696">
        <ele>325.364734</ele>
        <time>2020-08-26T08:21:29.360Z</time>
      </trkpt>
      <trkpt lat="48.527253" lon="16.713863">
        <ele>325.406257</ele>
        <time>2020-08-26T08:21:31.389Z</time>
      </trkpt>
      <trkpt lat="48.527200" lon="16.714024">
        <ele>325.446854</ele>
        <time>2020-08-26T08:21:33.381Z</time>
      </trkpt>
      <trkpt lat="48.527153" lon="16.714190">
        <ele>325.487513</ele>
        <time>2020-08-26T08:21:35.373Z</time>
      </trkpt>
      <trkpt lat="48.527111" lon="16.714357">
        <ele>325.521058</ele>
        <time>2020-08-26T08:21:37.370Z</time>
      </trkpt>
      <trkpt lat="48.527075" lon="16.714528">
        <ele>325.554753</ele>
        <time>2020-08-26T08:21:39.374Z</time>
      </trkpt>
      <trkpt lat="48.527037" lon="16.714705">
        <ele>325.589694</ele>
        <time>2020-08-26T08:21:41.402Z</time>
      </trkpt>
      <trkpt lat="48.526998" lon="16.714876">
        <ele>325.623657</ele>
        <time>2020-08-26T08:21:43.374Z</time>
      </trkpt>
      <trkpt lat="48.526963" lon="16.715045">
        <ele>325.656908</ele>
        <time>2020-08-26T08:21:45.391Z</time>
      </trkpt>
      <trkpt lat="48.526928" lon="16.715213">
        <ele>325.689980</ele>
        <time>2020-08-26T08:21:47.383Z</time>
      </trkpt>
      <trkpt lat="48.526891" lon="16.715384">
        <ele>325.723762</ele>
        <time>2020-08-26T08:21:49.398Z</time>
      </trkpt>
      <trkpt lat="48.526853" lon="16.715562">
        <ele>325.758882</ele>
        <time>2020-08-26T08:21:51.379Z</time>
      </trkpt>
      <trkpt lat="48.526818" lon="16.715736">
        <ele>325.793031</ele>
        <time>2020-08-26T08:21:53.401Z</time>
      </trkpt>
      <trkpt lat="48.526785" lon="16.715915">
        <ele>325.827923</ele>
        <time>2020-08-26T08:21:55.377Z</time>
      </trkpt>
      <trkpt lat="48.526750" lon="16.716092">
        <ele>325.862612</ele>
        <time>2020-08-26T08:21:57.377Z</time>
      </trkpt>
      <trkpt lat="48.526715" lon="16.716263">
        <ele>325.896222</ele>
        <time>2020-08-26T08:21:59.386Z</time>
      </trkpt>
      <trkpt lat="48.526679" lon="16.716433">
        <ele>325.929738</ele>
        <time>2020-08-26T08:22:01.379Z</time>
      </trkpt>
      <trkpt lat="48.526650" lon="16.716595">
        <ele>325.961252</ele>
        <time>2020-08-26T08:22:03.387Z</time>
      </trkpt>
      <trkpt lat="48.526628" lon="16.716735">
        <ele>325.988272</ele>
        <time>2020-08-26T08:22:05.399Z</time>
      </trkpt>
      <trkpt lat="48.526597" lon="16.716871">
        <ele>325.943514</ele>
        <time>2020-08-26T08:22:07.380Z</time>
      </trkpt>
      <trkpt lat="48.526517" lon="16.716961">
        <ele>325.860721</ele>
        <time>2020-08-26T08:22:09.370Z</time>
      </trkpt>
      <trkpt lat="48.526412" lon="16.717032">
        <ele>325.765243</ele>
        <time>2020-08-26T08:22:11.373Z</time>
      </trkpt>
      <trkpt lat="48.526302" lon="16.717115">
        <ele>325.663191</ele>
        <time>2020-08-26T08:22:13.378Z</time>
      </trkpt>
      <trkpt lat="48.526185" lon="16.717188">
        <ele>325.558131</ele>
        <time>2020-08-26T08:22:15.414Z</time>
      </trkpt>
      <trkpt lat="48.526065" lon="16.717266">
        <ele>325.449708</ele>
        <time>2020-08-26T08:22:17.388Z</time>
      </trkpt>
      <trkpt lat="48.525942" lon="16.717359">
        <ele>325.335548</ele>
        <time>2020-08-26T08:22:19.369Z</time>
      </trkpt>
      <trkpt lat="48.525818" lon="16.717454">
        <ele>325.220153</ele>
        <time>2020-08-26T08:22:21.370Z</time>
      </trkpt>
      <trkpt lat="48.525695" lon="16.717555">
        <ele>325.103958</ele>
        <time>2020-08-26T08:22:23.402Z</time>
      </trkpt>
      <trkpt lat="48.525573" lon="16.717660">
        <ele>324.987418</ele>
        <time>2020-08-26T08:22:25.390Z</time>
      </trkpt>
      <trkpt lat="48.525446" lon="16.717753">
        <ele>324.870281</ele>
        <time>2020-08-26T08:22:27.386Z</time>
      </trkpt>
      <trkpt lat="48.525309" lon="16.717833">
        <ele>324.748379</ele>
        <time>2020-08-26T08:22:29.365Z</time>
      </trkpt>
      <trkpt lat="48.525173" lon="16.717895">
        <ele>324.630481</ele>
        <time>2020-08-26T08:22:31.387Z</time>
      </trkpt>
      <trkpt lat="48.525034" lon="16.717937">
        <ele>324.512839</ele>
        <time>2020-08-26T08:22:33.381Z</time>
      </trkpt>
      <trkpt lat="48.524893" lon="16.717967">
        <ele>324.247974</ele>
        <time>2020-08-26T08:22:35.396Z</time>
      </trkpt>
      <trkpt lat="48.524753" lon="16.717999">
        <ele>323.973265</ele>
        <time>2020-08-26T08:22:37.372Z</time>
      </trkpt>
      <trkpt lat="48.524612" lon="16.718035">
        <ele>323.695827</ele>
        <time>2020-08-26T08:22:39.385Z</time>
      </trkpt>
      <trkpt lat="48.524468" lon="16.718075">
        <ele>323.411763</ele>
        <time>2020-08-26T08:22:41.381Z</time>
      </trkpt>
      <trkpt lat="48.524324" lon="16.718118">
        <ele>323.126977</ele>
        <time>2020-08-26T08:22:43.378Z</time>
      </trkpt>
      <trkpt lat="48.524186" lon="16.718173">
        <ele>322.850072</ele>
        <time>2020-08-26T08:22:45.381Z</time>
      </trkpt>
      <trkpt lat="48.524049" lon="16.718231">
        <ele>322.574027</ele>
        <time>2020-08-26T08:22:47.391Z</time>
      </trkpt>
      <trkpt lat="48.523910" lon="16.718287">
        <ele>322.294917</ele>
        <time>2020-08-26T08:22:49.420Z</time>
      </trkpt>
      <trkpt lat="48.523771" lon="16.718341">
        <ele>322.016459</ele>
        <time>2020-08-26T08:22:51.400Z</time>
      </trkpt>
      <trkpt lat="48.523638" lon="16.718401">
        <ele>321.747153</ele>
        <time>2020-08-26T08:22:53.418Z</time>
      </trkpt>
      <trkpt lat="48.523500" lon="16.718438">
        <ele>321.475230</ele>
        <time>2020-08-26T08:22:55.385Z</time>
      </trkpt>
      <trkpt lat="48.523362" lon="16.718482">
        <ele>321.201591</ele>
        <time>2020-08-26T08:22:57.380Z</time>
      </trkpt>
      <trkpt lat="48.523222" lon="16.718530">
        <ele>320.918279</ele>
        <time>2020-08-26T08:22:59.388Z</time>
      </trkpt>
      <trkpt lat="48.523082" lon="16.718586">
        <ele>320.622639</ele>
        <time>2020-08-26T08:23:01.390Z</time>
      </trkpt>
      <trkpt lat="48.522942" lon="16.718651">
        <ele>320.323652</ele>
        <time>2020-08-26T08:23:03.371Z</time>
      </trkpt>
      <trkpt lat="48.522805" lon="16.718726">
        <ele>320.026180</ele>
        <time>2020-08-26T08:23:05.365Z</time>
      </trkpt>
      <trkpt lat="48.522665" lon="16.718794">
        <ele>319.725976</ele>
        <time>2020-08-26T08:23:07.379Z</time>
      </trkpt>
      <trkpt lat="48.522525" lon="16.718860">
        <ele>319.426588</ele>
        <time>2020-08-26T08:23:09.384Z</time>
      </trkpt>
      <trkpt lat="48.522386" lon="16.718927">
        <ele>319.128740</ele>
        <time>2020-08-26T08:23:11.391Z</time>
      </trkpt>
      <trkpt lat="48.522246" lon="16.718995">
        <ele>318.828535</ele>
        <time>2020-08-26T08:23:13.376Z</time>
      </trkpt>
      <trkpt lat="48.522110" lon="16.719066">
        <ele>318.534792</ele>
        <time>2020-08-26T08:23:15.415Z</time>
      </trkpt>
      <trkpt lat="48.521975" lon="16.719129">
        <ele>318.246355</ele>
        <time>2020-08-26T08:23:17.380Z</time>
      </trkpt>
      <trkpt lat="48.521842" lon="16.719199">
        <ele>317.958840</ele>
        <time>2020-08-26T08:23:19.391Z</time>
      </trkpt>
      <trkpt lat="48.521710" lon="16.719283">
        <ele>317.666434</ele>
        <time>2020-08-26T08:23:21.379Z</time>
      </trkpt>
      <trkpt lat="48.521578" lon="16.719368">
        <ele>317.373500</ele>
        <time>2020-08-26T08:23:23.396Z</time>
      </trkpt>
      <trkpt lat="48.521448" lon="16.719449">
        <ele>317.148708</ele>
        <time>2020-08-26T08:23:25.375Z</time>
      </trkpt>
      <trkpt lat="48.521319" lon="16.719534">
        <ele>316.931085</ele>
        <time>2020-08-26T08:23:27.373Z</time>
      </trkpt>
      <trkpt lat="48.521191" lon="16.719618">
        <ele>316.715289</ele>
        <time>2020-08-26T08:23:29.487Z</time>
      </trkpt>
      <trkpt lat="48.521058" lon="16.719689">
        <ele>316.497172</ele>
        <time>2020-08-26T08:23:31.381Z</time>
      </trkpt>
      <trkpt lat="48.520930" lon="16.719780">
        <ele>316.278419</ele>
        <time>2020-08-26T08:23:33.398Z</time>
      </trkpt>
      <trkpt lat="48.520794" lon="16.719860">
        <ele>316.052744</ele>
        <time>2020-08-26T08:23:35.373Z</time>
      </trkpt>
      <trkpt lat="48.520660" lon="16.719943">
        <ele>315.828800</ele>
        <time>2020-08-26T08:23:37.394Z</time>
      </trkpt>
      <trkpt lat="48.520532" lon="16.720037">
        <ele>315.608720</ele>
        <time>2020-08-26T08:23:39.389Z</time>
      </trkpt>
      <trkpt lat="48.520408" lon="16.720132">
        <ele>315.393723</ele>
        <time>2020-08-26T08:23:41.369Z</time>
      </trkpt>
      <trkpt lat="48.520277" lon="16.720209">
        <ele>315.176366</ele>
        <time>2020-08-26T08:23:43.399Z</time>
      </trkpt>
      <trkpt lat="48.520150" lon="16.720306">
        <ele>314.956306</ele>
        <time>2020-08-26T08:23:45.383Z</time>
      </trkpt>
      <trkpt lat="48.520026" lon="16.720410">
        <ele>314.736983</ele>
        <time>2020-08-26T08:23:47.404Z</time>
      </trkpt>
      <trkpt lat="48.519906" lon="16.720509">
        <ele>314.534748</ele>
        <time>2020-08-26T08:23:49.359Z</time>
      </trkpt>
      <trkpt lat="48.519791" lon="16.720609">
        <ele>314.381038</ele>
        <time>2020-08-26T08:23:51.381Z</time>
      </trkpt>
      <trkpt lat="48.519677" lon="16.720708">
        <ele>314.228716</ele>
        <time>2020-08-26T08:23:53.381Z</time>
      </trkpt>
      <trkpt lat="48.519559" lon="16.720799">
        <ele>314.075247</ele>
        <time>2020-08-26T08:23:55.400Z</time>
      </trkpt>
      <trkpt lat="48.519446" lon="16.720901">
        <ele>313.922758</ele>
        <time>2020-08-26T08:23:57.377Z</time>
      </trkpt>
      <trkpt lat="48.519326" lon="16.720992">
        <ele>313.767223</ele>
        <time>2020-08-26T08:23:59.387Z</time>
      </trkpt>
      <trkpt lat="48.519214" lon="16.721098">
        <ele>313.614120</ele>
        <time>2020-08-26T08:24:01.382Z</time>
      </trkpt>
      <trkpt lat="48.519094" lon="16.721190">
        <ele>313.458239</ele>
        <time>2020-08-26T08:24:03.395Z</time>
      </trkpt>
      <trkpt lat="48.518976" lon="16.721289">
        <ele>313.301882</ele>
        <time>2020-08-26T08:24:05.387Z</time>
      </trkpt>
      <trkpt lat="48.518858" lon="16.721393">
        <ele>313.143627</ele>
        <time>2020-08-26T08:24:07.408Z</time>
      </trkpt>
      <trkpt lat="48.518740" lon="16.721491">
        <ele>312.987641</ele>
        <time>2020-08-26T08:24:09.376Z</time>
      </trkpt>
      <trkpt lat="48.518616" lon="16.721587">
        <ele>312.826238</ele>
        <time>2020-08-26T08:24:11.368Z</time>
      </trkpt>
      <trkpt lat="48.518493" lon="16.721688">
        <ele>312.664068</ele>
        <time>2020-08-26T08:24:13.376Z</time>
      </trkpt>
      <trkpt lat="48.518369" lon="16.721799">
        <ele>312.497099</ele>
        <time>2020-08-26T08:24:15.381Z</time>
      </trkpt>
      <trkpt lat="48.518244" lon="16.721915">
        <ele>312.494990</ele>
        <time>2020-08-26T08:24:17.375Z</time>
      </trkpt>
      <trkpt lat="48.518116" lon="16.722031">
        <ele>312.513230</ele>
        <time>2020-08-26T08:24:19.369Z</time>
      </trkpt>
      <trkpt lat="48.517991" lon="16.722164">
        <ele>312.531913</ele>
        <time>2020-08-26T08:24:21.393Z</time>
      </trkpt>
      <trkpt lat="48.517873" lon="16.722315">
        <ele>312.550811</ele>
        <time>2020-08-26T08:24:23.376Z</time>
      </trkpt>
      <trkpt lat="48.517751" lon="16.722470">
        <ele>312.570291</ele>
        <time>2020-08-26T08:24:25.365Z</time>
      </trkpt>
      <trkpt lat="48.517625" lon="16.722631">
        <ele>312.590459</ele>
        <time>2020-08-26T08:24:27.381Z</time>
      </trkpt>
      <trkpt lat="48.517500" lon="16.722798">
        <ele>312.610851</ele>
        <time>2020-08-26T08:24:29.372Z</time>
      </trkpt>
      <trkpt lat="48.517371" lon="16.722968">
        <ele>312.631771</ele>
        <time>2020-08-26T08:24:31.389Z</time>
      </trkpt>
      <trkpt lat="48.517243" lon="16.723144">
        <ele>312.652923</ele>
        <time>2020-08-26T08:24:33.398Z</time>
      </trkpt>
      <trkpt lat="48.517111" lon="16.723318">
        <ele>312.674332</ele>
        <time>2020-08-26T08:24:35.386Z</time>
      </trkpt>
      <trkpt lat="48.516981" lon="16.723495">
        <ele>312.695719</ele>
        <time>2020-08-26T08:24:37.364Z</time>
      </trkpt>
      <trkpt lat="48.516851" lon="16.723671">
        <ele>312.729370</ele>
        <time>2020-08-26T08:24:39.366Z</time>
      </trkpt>
      <trkpt lat="48.516727" lon="16.723847">
        <ele>312.764133</ele>
        <time>2020-08-26T08:24:41.410Z</time>
      </trkpt>
      <trkpt lat="48.516607" lon="16.724029">
        <ele>312.798875</ele>
        <time>2020-08-26T08:24:43.387Z</time>
      </trkpt>
      <trkpt lat="48.516489" lon="16.724214">
        <ele>312.833623</ele>
        <time>2020-08-26T08:24:45.374Z</time>
      </trkpt>
      <trkpt lat="48.516365" lon="16.724392">
        <ele>312.868571</ele>
        <time>2020-08-26T08:24:47.373Z</time>
      </trkpt>
      <trkpt lat="48.516248" lon="16.724580">
        <ele>312.903472</ele>
        <time>2020-08-26T08:24:49.365Z</time>
      </trkpt>
      <trkpt lat="48.516128" lon="16.724763">
        <ele>312.938311</ele>
        <time>2020-08-26T08:24:51.403Z</time>
      </trkpt>
      <trkpt lat="48.516011" lon="16.724948">
        <ele>312.972917</ele>
        <time>2020-08-26T08:24:53.368Z</time>
      </trkpt>
      <trkpt lat="48.515897" lon="16.725134">
        <ele>313.007202</ele>
        <time>2020-08-26T08:24:55.392Z</time>
      </trkpt>
      <trkpt lat="48.515779" lon="16.725312">
        <ele>313.041273</ele>
        <time>2020-08-26T08:24:57.382Z</time>
      </trkpt>
      <trkpt lat="48.515655" lon="16.725480">
        <ele>312.917004</ele>
        <time>2020-08-26T08:24:59.390Z</time>
      </trkpt>
      <trkpt lat="48.515535" lon="16.725659">
        <ele>312.359489</ele>
        <time>2020-08-26T08:25:01.401Z</time>
      </trkpt>
      <trkpt lat="48.515413" lon="16.725832">
        <ele>311.806327</ele>
        <time>2020-08-26T08:25:03.378Z</time>
      </trkpt>
      <trkpt lat="48.515296" lon="16.726020">
        <ele>311.241625</ele>
        <time>2020-08-26T08:25:05.383Z</time>
      </trkpt>
      <trkpt lat="48.515173" lon="16.726198">
        <ele>310.678530</ele>
        <time>2020-08-26T08:25:07.397Z</time>
      </trkpt>
      <trkpt lat="48.515044" lon="16.726362">
        <ele>310.121175</ele>
        <time>2020-08-26T08:25:09.402Z</time>
      </trkpt>
      <trkpt lat="48.514917" lon="16.726535">
        <ele>309.555854</ele>
        <time>2020-08-26T08:25:11.364Z</time>
      </trkpt>
      <trkpt lat="48.514787" lon="16.726708">
        <ele>308.983132</ele>
        <time>2020-08-26T08:25:13.371Z</time>
      </trkpt>
      <trkpt lat="48.514656" lon="16.726874">
        <ele>308.417899</ele>
        <time>2020-08-26T08:25:15.373Z</time>
      </trkpt>
      <trkpt lat="48.514527" lon="16.727045">
        <ele>307.850550</ele>
        <time>2020-08-26T08:25:17.425Z</time>
      </trkpt>
      <trkpt lat="48.514397" lon="16.727214">
        <ele>307.283579</ele>
        <time>2020-08-26T08:25:19.379Z</time>
      </trkpt>
      <trkpt lat="48.514268" lon="16.727387">
        <ele>306.757276</ele>
        <time>2020-08-26T08:25:21.373Z</time>
      </trkpt>
      <trkpt lat="48.514140" lon="16.727566">
        <ele>306.242661</ele>
        <time>2020-08-26T08:25:23.389Z</time>
      </trkpt>
      <trkpt lat="48.514013" lon="16.727739">
        <ele>305.738132</ele>
        <time>2020-08-26T08:25:25.420Z</time>
      </trkpt>
      <trkpt lat="48.513884" lon="16.727915">
        <ele>305.225297</ele>
        <time>2020-08-26T08:25:27.373Z</time>
      </trkpt>
      <trkpt lat="48.513753" lon="16.728085">
        <ele>304.715788</ele>
        <time>2020-08-26T08:25:29.375Z</time>
      </trkpt>
      <trkpt lat="48.513623" lon="16.728260">
        <ele>304.202061</ele>
        <time>2020-08-26T08:25:31.384Z</time>
      </trkpt>
      <trkpt lat="48.513496" lon="16.728446">
        <ele>303.680174</ele>
        <time>2020-08-26T08:25:33.381Z</time>
      </trkpt>
      <trkpt lat="48.513360" lon="16.728608">
        <ele>303.169218</ele>
        <time>2020-08-26T08:25:35.426Z</time>
      </trkpt>
      <trkpt lat="48.513221" lon="16.728766">
        <ele>302.656026</ele>
        <time>2020-08-26T08:25:37.370Z</time>
      </trkpt>
      <trkpt lat="48.513091" lon="16.728939">
        <ele>302.144890</ele>
        <time>2020-08-26T08:25:39.364Z</time>
      </trkpt>
      <trkpt lat="48.512899" lon="16.729203">
        <ele>301.737542</ele>
        <time>2020-08-26T08:25:42.406Z</time>
      </trkpt>
      <trkpt lat="48.512765" lon="16.729366">
        <ele>301.645406</ele>
        <time>2020-08-26T08:25:44.406Z</time>
      </trkpt>
      <trkpt lat="48.512629" lon="16.729522">
        <ele>301.553956</ele>
        <time>2020-08-26T08:25:46.393Z</time>
      </trkpt>
      <trkpt lat="48.512495" lon="16.729681">
        <ele>301.462703</ele>
        <time>2020-08-26T08:25:48.376Z</time>
      </trkpt>
      <trkpt lat="48.512359" lon="16.729840">
        <ele>301.370605</ele>
        <time>2020-08-26T08:25:50.389Z</time>
      </trkpt>
      <trkpt lat="48.512229" lon="16.730007">
        <ele>301.279213</ele>
        <time>2020-08-26T08:25:52.367Z</time>
      </trkpt>
      <trkpt lat="48.512099" lon="16.730176">
        <ele>301.187359</ele>
        <time>2020-08-26T08:25:54.404Z</time>
      </trkpt>
      <trkpt lat="48.511972" lon="16.730351">
        <ele>301.095295</ele>
        <time>2020-08-26T08:25:56.391Z</time>
      </trkpt>
      <trkpt lat="48.511842" lon="16.730526">
        <ele>301.002039</ele>
        <time>2020-08-26T08:25:58.373Z</time>
      </trkpt>
      <trkpt lat="48.511713" lon="16.730702">
        <ele>300.908944</ele>
        <time>2020-08-26T08:26:00.369Z</time>
      </trkpt>
      <trkpt lat="48.511584" lon="16.730873">
        <ele>300.798291</ele>
        <time>2020-08-26T08:26:02.369Z</time>
      </trkpt>
      <trkpt lat="48.511458" lon="16.731038">
        <ele>300.663853</ele>
        <time>2020-08-26T08:26:04.385Z</time>
      </trkpt>
      <trkpt lat="48.511336" lon="16.731211">
        <ele>300.528946</ele>
        <time>2020-08-26T08:26:06.380Z</time>
      </trkpt>
      <trkpt lat="48.511222" lon="16.731389">
        <ele>300.396757</ele>
        <time>2020-08-26T08:26:08.379Z</time>
      </trkpt>
      <trkpt lat="48.511114" lon="16.731577">
        <ele>300.263896</ele>
        <time>2020-08-26T08:26:10.374Z</time>
      </trkpt>
      <trkpt lat="48.511009" lon="16.731761">
        <ele>300.134231</ele>
        <time>2020-08-26T08:26:12.386Z</time>
      </trkpt>
      <trkpt lat="48.510900" lon="16.731940">
        <ele>300.004417</ele>
        <time>2020-08-26T08:26:14.379Z</time>
      </trkpt>
      <trkpt lat="48.510794" lon="16.732122">
        <ele>299.875029</ele>
        <time>2020-08-26T08:26:16.393Z</time>
      </trkpt>
      <trkpt lat="48.510689" lon="16.732304">
        <ele>299.746171</ele>
        <time>2020-08-26T08:26:18.379Z</time>
      </trkpt>
      <trkpt lat="48.510577" lon="16.732481">
        <ele>299.615483</ele>
        <time>2020-08-26T08:26:20.402Z</time>
      </trkpt>
      <trkpt lat="48.510468" lon="16.732667">
        <ele>299.482893</ele>
        <time>2020-08-26T08:26:22.384Z</time>
      </trkpt>
      <trkpt lat="48.510359" lon="16.732849">
        <ele>299.363500</ele>
        <time>2020-08-26T08:26:24.388Z</time>
      </trkpt>
      <trkpt lat="48.510249" lon="16.733029">
        <ele>299.261601</ele>
        <time>2020-08-26T08:26:26.382Z</time>
      </trkpt>
      <trkpt lat="48.510141" lon="16.733210">
        <ele>299.160240</ele>
        <time>2020-08-26T08:26:28.365Z</time>
      </trkpt>
      <trkpt lat="48.510039" lon="16.733391">
        <ele>299.061362</ele>
        <time>2020-08-26T08:26:30.375Z</time>
      </trkpt>
      <trkpt lat="48.509935" lon="16.733566">
        <ele>298.963538</ele>
        <time>2020-08-26T08:26:32.372Z</time>
      </trkpt>
      <trkpt lat="48.509832" lon="16.733738">
        <ele>298.867061</ele>
        <time>2020-08-26T08:26:34.365Z</time>
      </trkpt>
      <trkpt lat="48.509731" lon="16.733913">
        <ele>298.770485</ele>
        <time>2020-08-26T08:26:36.397Z</time>
      </trkpt>
      <trkpt lat="48.509634" lon="16.734088">
        <ele>298.675539</ele>
        <time>2020-08-26T08:26:38.374Z</time>
      </trkpt>
      <trkpt lat="48.509539" lon="16.734256">
        <ele>298.583630</ele>
        <time>2020-08-26T08:26:40.366Z</time>
      </trkpt>
      <trkpt lat="48.509447" lon="16.734420">
        <ele>298.494209</ele>
        <time>2020-08-26T08:26:42.401Z</time>
      </trkpt>
      <trkpt lat="48.509357" lon="16.734585">
        <ele>298.405273</ele>
        <time>2020-08-26T08:26:44.402Z</time>
      </trkpt>
      <trkpt lat="48.509264" lon="16.734749">
        <ele>298.315444</ele>
        <time>2020-08-26T08:26:46.364Z</time>
      </trkpt>
      <trkpt lat="48.509172" lon="16.734915">
        <ele>298.203025</ele>
        <time>2020-08-26T08:26:48.404Z</time>
      </trkpt>
      <trkpt lat="48.509081" lon="16.735081">
        <ele>298.072760</ele>
        <time>2020-08-26T08:26:50.366Z</time>
      </trkpt>
      <trkpt lat="48.508989" lon="16.735238">
        <ele>297.946037</ele>
        <time>2020-08-26T08:26:52.409Z</time>
      </trkpt>
      <trkpt lat="48.508902" lon="16.735393">
        <ele>297.823215</ele>
        <time>2020-08-26T08:26:54.366Z</time>
      </trkpt>
      <trkpt lat="48.508821" lon="16.735552">
        <ele>297.701951</ele>
        <time>2020-08-26T08:26:56.385Z</time>
      </trkpt>
      <trkpt lat="48.508736" lon="16.735700">
        <ele>297.583529</ele>
        <time>2020-08-26T08:26:58.379Z</time>
      </trkpt>
      <trkpt lat="48.508653" lon="16.735850">
        <ele>297.465370</ele>
        <time>2020-08-26T08:27:00.362Z</time>
      </trkpt>
      <trkpt lat="48.508576" lon="16.736006">
        <ele>297.347755</ele>
        <time>2020-08-26T08:27:02.362Z</time>
      </trkpt>
      <trkpt lat="48.508503" lon="16.736160">
        <ele>297.233269</ele>
        <time>2020-08-26T08:27:04.381Z</time>
      </trkpt>
      <trkpt lat="48.508429" lon="16.736312">
        <ele>297.119226</ele>
        <time>2020-08-26T08:27:06.367Z</time>
      </trkpt>
      <trkpt lat="48.508352" lon="16.736460">
        <ele>297.005453</ele>
        <time>2020-08-26T08:27:08.400Z</time>
      </trkpt>
      <trkpt lat="48.508278" lon="16.736600">
        <ele>296.897171</ele>
        <time>2020-08-26T08:27:10.418Z</time>
      </trkpt>
      <trkpt lat="48.508204" lon="16.736739">
        <ele>296.789361</ele>
        <time>2020-08-26T08:27:12.366Z</time>
      </trkpt>
      <trkpt lat="48.508125" lon="16.736884">
        <ele>296.675857</ele>
        <time>2020-08-26T08:27:14.361Z</time>
      </trkpt>
      <trkpt lat="48.508050" lon="16.737043">
        <ele>296.491284</ele>
        <time>2020-08-26T08:27:16.374Z</time>
      </trkpt>
      <trkpt lat="48.508029" lon="16.737222">
        <ele>296.284471</ele>
        <time>2020-08-26T08:27:18.372Z</time>
      </trkpt>
      <trkpt lat="48.508035" lon="16.737413">
        <ele>296.066929</ele>
        <time>2020-08-26T08:27:20.360Z</time>
      </trkpt>
      <trkpt lat="48.508023" lon="16.737617">
        <ele>295.833929</ele>
        <time>2020-08-26T08:27:22.370Z</time>
      </trkpt>
      <trkpt lat="48.508019" lon="16.737832">
        <ele>295.589232</ele>
        <time>2020-08-26T08:27:24.398Z</time>
      </trkpt>
      <trkpt lat="48.508007" lon="16.738055">
        <ele>295.334693</ele>
        <time>2020-08-26T08:27:26.377Z</time>
      </trkpt>
      <trkpt lat="48.507994" lon="16.738283">
        <ele>295.074343</ele>
        <time>2020-08-26T08:27:28.393Z</time>
      </trkpt>
      <trkpt lat="48.507987" lon="16.738522">
        <ele>294.802172</ele>
        <time>2020-08-26T08:27:30.383Z</time>
      </trkpt>
      <trkpt lat="48.507976" lon="16.738769">
        <ele>294.520530</ele>
        <time>2020-08-26T08:27:32.374Z</time>
      </trkpt>
      <trkpt lat="48.507917" lon="16.739012">
        <ele>294.226093</ele>
        <time>2020-08-26T08:27:34.361Z</time>
      </trkpt>
      <trkpt lat="48.507820" lon="16.739231">
        <ele>293.926389</ele>
        <time>2020-08-26T08:27:36.382Z</time>
      </trkpt>
      <trkpt lat="48.507747" lon="16.739453">
        <ele>293.644424</ele>
        <time>2020-08-26T08:27:38.379Z</time>
      </trkpt>
      <trkpt lat="48.507671" lon="16.739643">
        <ele>293.349166</ele>
        <time>2020-08-26T08:27:40.378Z</time>
      </trkpt>
      <trkpt lat="48.507596" lon="16.739805">
        <ele>293.061394</ele>
        <time>2020-08-26T08:27:42.374Z</time>
      </trkpt>
      <trkpt lat="48.507525" lon="16.739959">
        <ele>292.788204</ele>
        <time>2020-08-26T08:27:44.372Z</time>
      </trkpt>
      <trkpt lat="48.507460" lon="16.740110">
        <ele>292.526001</ele>
        <time>2020-08-26T08:27:46.385Z</time>
      </trkpt>
      <trkpt lat="48.507400" lon="16.740249">
        <ele>292.284435</ele>
        <time>2020-08-26T08:27:48.366Z</time>
      </trkpt>
      <trkpt lat="48.507344" lon="16.740382">
        <ele>292.054974</ele>
        <time>2020-08-26T08:27:50.373Z</time>
      </trkpt>
      <trkpt lat="48.507287" lon="16.740517">
        <ele>291.821876</ele>
        <time>2020-08-26T08:27:52.372Z</time>
      </trkpt>
      <trkpt lat="48.507229" lon="16.740654">
        <ele>291.585141</ele>
        <time>2020-08-26T08:27:54.401Z</time>
      </trkpt>
      <trkpt lat="48.507170" lon="16.740791">
        <ele>291.347214</ele>
        <time>2020-08-26T08:27:56.376Z</time>
      </trkpt>
      <trkpt lat="48.507111" lon="16.740934">
        <ele>291.101917</ele>
        <time>2020-08-26T08:27:58.371Z</time>
      </trkpt>
      <trkpt lat="48.507055" lon="16.741077">
        <ele>290.860039</ele>
        <time>2020-08-26T08:28:00.388Z</time>
      </trkpt>
      <trkpt lat="48.506998" lon="16.741219">
        <ele>290.618282</ele>
        <time>2020-08-26T08:28:02.391Z</time>
      </trkpt>
      <trkpt lat="48.506938" lon="16.741362">
        <ele>290.371815</ele>
        <time>2020-08-26T08:28:04.368Z</time>
      </trkpt>
      <trkpt lat="48.506875" lon="16.741502">
        <ele>290.125384</ele>
        <time>2020-08-26T08:28:06.367Z</time>
      </trkpt>
      <trkpt lat="48.506816" lon="16.741642">
        <ele>289.883782</ele>
        <time>2020-08-26T08:28:08.389Z</time>
      </trkpt>
      <trkpt lat="48.506757" lon="16.741788">
        <ele>289.634764</ele>
        <time>2020-08-26T08:28:10.376Z</time>
      </trkpt>
      <trkpt lat="48.506697" lon="16.741936">
        <ele>289.447386</ele>
        <time>2020-08-26T08:28:12.371Z</time>
      </trkpt>
      <trkpt lat="48.506633" lon="16.742087">
        <ele>289.267686</ele>
        <time>2020-08-26T08:28:14.407Z</time>
      </trkpt>
      <trkpt lat="48.506570" lon="16.742238">
        <ele>289.088796</ele>
        <time>2020-08-26T08:28:16.375Z</time>
      </trkpt>
      <trkpt lat="48.506499" lon="16.742400">
        <ele>288.894075</ele>
        <time>2020-08-26T08:28:18.374Z</time>
      </trkpt>
      <trkpt lat="48.506423" lon="16.742575">
        <ele>288.684309</ele>
        <time>2020-08-26T08:28:20.408Z</time>
      </trkpt>
      <trkpt lat="48.506347" lon="16.742754">
        <ele>288.471178</ele>
        <time>2020-08-26T08:28:22.391Z</time>
      </trkpt>
      <trkpt lat="48.506269" lon="16.742938">
        <ele>288.252193</ele>
        <time>2020-08-26T08:28:24.413Z</time>
      </trkpt>
      <trkpt lat="48.506188" lon="16.743131">
        <ele>288.023159</ele>
        <time>2020-08-26T08:28:26.418Z</time>
      </trkpt>
      <trkpt lat="48.506104" lon="16.743332">
        <ele>287.784921</ele>
        <time>2020-08-26T08:28:28.399Z</time>
      </trkpt>
      <trkpt lat="48.506022" lon="16.743552">
        <ele>287.531866</ele>
        <time>2020-08-26T08:28:30.389Z</time>
      </trkpt>
      <trkpt lat="48.505930" lon="16.743750">
        <ele>287.289423</ele>
        <time>2020-08-26T08:28:32.396Z</time>
      </trkpt>
      <trkpt lat="48.505841" lon="16.743952">
        <ele>287.046229</ele>
        <time>2020-08-26T08:28:34.398Z</time>
      </trkpt>
      <trkpt lat="48.505765" lon="16.744146">
        <ele>286.782018</ele>
        <time>2020-08-26T08:28:36.387Z</time>
      </trkpt>
      <trkpt lat="48.505688" lon="16.744333">
        <ele>286.391653</ele>
        <time>2020-08-26T08:28:38.389Z</time>
      </trkpt>
      <trkpt lat="48.505619" lon="16.744519">
        <ele>286.013701</ele>
        <time>2020-08-26T08:28:40.391Z</time>
      </trkpt>
      <trkpt lat="48.505550" lon="16.744690">
        <ele>285.658715</ele>
        <time>2020-08-26T08:28:42.371Z</time>
      </trkpt>
      <trkpt lat="48.505482" lon="16.744846">
        <ele>285.327634</ele>
        <time>2020-08-26T08:28:44.415Z</time>
      </trkpt>
      <trkpt lat="48.505417" lon="16.744978">
        <ele>285.036036</ele>
        <time>2020-08-26T08:28:46.402Z</time>
      </trkpt>
      <trkpt lat="48.505361" lon="16.745108">
        <ele>284.761112</ele>
        <time>2020-08-26T08:28:48.374Z</time>
      </trkpt>
      <trkpt lat="48.505317" lon="16.745251">
        <ele>284.481564</ele>
        <time>2020-08-26T08:28:50.371Z</time>
      </trkpt>
      <trkpt lat="48.505280" lon="16.745389">
        <ele>284.217613</ele>
        <time>2020-08-26T08:28:52.396Z</time>
      </trkpt>
      <trkpt lat="48.505214" lon="16.745711">
        <ele>283.620007</ele>
        <time>2020-08-26T08:29:40.379Z</time>
      </trkpt>
      <trkpt lat="48.505164" lon="16.745893">
        <ele>283.270678</ele>
        <time>2020-08-26T08:29:43.368Z</time>
      </trkpt>
      <trkpt lat="48.505131" lon="16.746026">
        <ele>283.018873</ele>
        <time>2020-08-26T08:29:45.369Z</time>
      </trkpt>
      <trkpt lat="48.505086" lon="16.746172">
        <ele>282.733373</ele>
        <time>2020-08-26T08:29:47.360Z</time>
      </trkpt>
      <trkpt lat="48.505041" lon="16.746330">
        <ele>282.428449</ele>
        <time>2020-08-26T08:29:49.384Z</time>
      </trkpt>
      <trkpt lat="48.504996" lon="16.746516">
        <ele>282.077369</ele>
        <time>2020-08-26T08:29:51.383Z</time>
      </trkpt>
      <trkpt lat="48.504945" lon="16.746706">
        <ele>281.740212</ele>
        <time>2020-08-26T08:29:53.368Z</time>
      </trkpt>
      <trkpt lat="48.504886" lon="16.746925">
        <ele>281.353208</ele>
        <time>2020-08-26T08:29:55.370Z</time>
      </trkpt>
      <trkpt lat="48.504814" lon="16.747158">
        <ele>280.932346</ele>
        <time>2020-08-26T08:29:57.374Z</time>
      </trkpt>
      <trkpt lat="48.504756" lon="16.747365">
        <ele>280.564434</ele>
        <time>2020-08-26T08:29:59.390Z</time>
      </trkpt>
      <trkpt lat="48.504708" lon="16.747526">
        <ele>280.275425</ele>
        <time>2020-08-26T08:30:01.373Z</time>
      </trkpt>
      <trkpt lat="48.504667" lon="16.747665">
        <ele>280.026353</ele>
        <time>2020-08-26T08:30:03.384Z</time>
      </trkpt>
      <trkpt lat="48.504629" lon="16.747797">
        <ele>279.790754</ele>
        <time>2020-08-26T08:30:05.377Z</time>
      </trkpt>
      <trkpt lat="48.504589" lon="16.747921">
        <ele>279.564987</ele>
        <time>2020-08-26T08:30:07.385Z</time>
      </trkpt>
      <trkpt lat="48.504538" lon="16.748097">
        <ele>279.250525</ele>
        <time>2020-08-26T08:30:10.399Z</time>
      </trkpt>
      <trkpt lat="48.504493" lon="16.748294">
        <ele>278.909409</ele>
        <time>2020-08-26T08:30:13.387Z</time>
      </trkpt>
      <trkpt lat="48.504462" lon="16.748432">
        <ele>278.670872</ele>
        <time>2020-08-26T08:30:15.383Z</time>
      </trkpt>
      <trkpt lat="48.504425" lon="16.748571">
        <ele>278.425652</ele>
        <time>2020-08-26T08:30:17.387Z</time>
      </trkpt>
      <trkpt lat="48.504381" lon="16.748713">
        <ele>278.169033</ele>
        <time>2020-08-26T08:30:19.381Z</time>
      </trkpt>
      <trkpt lat="48.504343" lon="16.748858">
        <ele>277.913774</ele>
        <time>2020-08-26T08:30:21.399Z</time>
      </trkpt>
      <trkpt lat="48.504305" lon="16.749000">
        <ele>277.663075</ele>
        <time>2020-08-26T08:30:23.389Z</time>
      </trkpt>
      <trkpt lat="48.504269" lon="16.749144">
        <ele>277.429664</ele>
        <time>2020-08-26T08:30:25.368Z</time>
      </trkpt>
      <trkpt lat="48.504231" lon="16.749291">
        <ele>277.195090</ele>
        <time>2020-08-26T08:30:27.373Z</time>
      </trkpt>
      <trkpt lat="48.504185" lon="16.749437">
        <ele>276.954756</ele>
        <time>2020-08-26T08:30:29.395Z</time>
      </trkpt>
      <trkpt lat="48.504145" lon="16.749583">
        <ele>276.719889</ele>
        <time>2020-08-26T08:30:31.366Z</time>
      </trkpt>
      <trkpt lat="48.504105" lon="16.749722">
        <ele>276.494602</ele>
        <time>2020-08-26T08:30:33.373Z</time>
      </trkpt>
      <trkpt lat="48.504066" lon="16.749867">
        <ele>276.261961</ele>
        <time>2020-08-26T08:30:35.399Z</time>
      </trkpt>
      <trkpt lat="48.504027" lon="16.750009">
        <ele>276.033445</ele>
        <time>2020-08-26T08:30:37.374Z</time>
      </trkpt>
      <trkpt lat="48.503992" lon="16.750143">
        <ele>275.819319</ele>
        <time>2020-08-26T08:30:39.378Z</time>
      </trkpt>
      <trkpt lat="48.503960" lon="16.750279">
        <ele>275.604770</ele>
        <time>2020-08-26T08:30:41.366Z</time>
      </trkpt>
      <trkpt lat="48.503928" lon="16.750415">
        <ele>275.390221</ele>
        <time>2020-08-26T08:30:43.383Z</time>
      </trkpt>
      <trkpt lat="48.503892" lon="16.750547">
        <ele>275.178015</ele>
        <time>2020-08-26T08:30:45.392Z</time>
      </trkpt>
      <trkpt lat="48.503856" lon="16.750677">
        <ele>274.968555</ele>
        <time>2020-08-26T08:30:47.376Z</time>
      </trkpt>
      <trkpt lat="48.503821" lon="16.750804">
        <ele>274.764074</ele>
        <time>2020-08-26T08:30:49.390Z</time>
      </trkpt>
      <trkpt lat="48.503771" lon="16.750985">
        <ele>274.472547</ele>
        <time>2020-08-26T08:30:52.360Z</time>
      </trkpt>
      <trkpt lat="48.503722" lon="16.751176">
        <ele>274.168062</ele>
        <time>2020-08-26T08:30:55.401Z</time>
      </trkpt>
      <trkpt lat="48.503686" lon="16.751304">
        <ele>273.961342</ele>
        <time>2020-08-26T08:30:57.372Z</time>
      </trkpt>
      <trkpt lat="48.503650" lon="16.751432">
        <ele>273.754621</ele>
        <time>2020-08-26T08:30:59.380Z</time>
      </trkpt>
      <trkpt lat="48.503611" lon="16.751564">
        <ele>273.560759</ele>
        <time>2020-08-26T08:31:01.365Z</time>
      </trkpt>
      <trkpt lat="48.503569" lon="16.751697">
        <ele>273.464303</ele>
        <time>2020-08-26T08:31:03.380Z</time>
      </trkpt>
      <trkpt lat="48.503529" lon="16.751832">
        <ele>273.367486</ele>
        <time>2020-08-26T08:31:05.366Z</time>
      </trkpt>
      <trkpt lat="48.503493" lon="16.751972">
        <ele>273.269169</ele>
        <time>2020-08-26T08:31:07.365Z</time>
      </trkpt>
      <trkpt lat="48.503454" lon="16.752115">
        <ele>273.167929</ele>
        <time>2020-08-26T08:31:09.382Z</time>
      </trkpt>
      <trkpt lat="48.503416" lon="16.752255">
        <ele>273.068880</ele>
        <time>2020-08-26T08:31:11.373Z</time>
      </trkpt>
      <trkpt lat="48.503376" lon="16.752393">
        <ele>272.970267</ele>
        <time>2020-08-26T08:31:13.390Z</time>
      </trkpt>
      <trkpt lat="48.503338" lon="16.752525">
        <ele>272.876044</ele>
        <time>2020-08-26T08:31:15.376Z</time>
      </trkpt>
      <trkpt lat="48.503293" lon="16.752669">
        <ele>272.771810</ele>
        <time>2020-08-26T08:31:17.371Z</time>
      </trkpt>
      <trkpt lat="48.503254" lon="16.752819">
        <ele>272.666317</ele>
        <time>2020-08-26T08:31:19.394Z</time>
      </trkpt>
      <trkpt lat="48.503212" lon="16.752967">
        <ele>272.560910</ele>
        <time>2020-08-26T08:31:21.381Z</time>
      </trkpt>
      <trkpt lat="48.503170" lon="16.753115">
        <ele>272.455503</ele>
        <time>2020-08-26T08:31:23.390Z</time>
      </trkpt>
      <trkpt lat="48.503131" lon="16.753260">
        <ele>272.353050</ele>
        <time>2020-08-26T08:31:25.392Z</time>
      </trkpt>
      <trkpt lat="48.503098" lon="16.753404">
        <ele>272.253295</ele>
        <time>2020-08-26T08:31:27.375Z</time>
      </trkpt>
      <trkpt lat="48.503080" lon="16.753546">
        <ele>272.158643</ele>
        <time>2020-08-26T08:31:29.388Z</time>
      </trkpt>
      <trkpt lat="48.503060" lon="16.753692">
        <ele>272.061037</ele>
        <time>2020-08-26T08:31:31.372Z</time>
      </trkpt>
      <trkpt lat="48.503040" lon="16.753841">
        <ele>271.961507</ele>
        <time>2020-08-26T08:31:33.410Z</time>
      </trkpt>
      <trkpt lat="48.503023" lon="16.753996">
        <ele>271.858649</ele>
        <time>2020-08-26T08:31:35.382Z</time>
      </trkpt>
      <trkpt lat="48.503008" lon="16.754148">
        <ele>271.773732</ele>
        <time>2020-08-26T08:31:37.370Z</time>
      </trkpt>
      <trkpt lat="48.502993" lon="16.754307">
        <ele>271.707853</ele>
        <time>2020-08-26T08:31:39.402Z</time>
      </trkpt>
      <trkpt lat="48.502980" lon="16.754468">
        <ele>271.641323</ele>
        <time>2020-08-26T08:31:41.385Z</time>
      </trkpt>
      <trkpt lat="48.502962" lon="16.754639">
        <ele>271.570299</ele>
        <time>2020-08-26T08:31:43.395Z</time>
      </trkpt>
      <trkpt lat="48.502944" lon="16.754812">
        <ele>271.498466</ele>
        <time>2020-08-26T08:31:45.368Z</time>
      </trkpt>
      <trkpt lat="48.502927" lon="16.754990">
        <ele>271.424696</ele>
        <time>2020-08-26T08:31:47.371Z</time>
      </trkpt>
      <trkpt lat="48.502911" lon="16.755169">
        <ele>271.350606</ele>
        <time>2020-08-26T08:31:49.390Z</time>
      </trkpt>
      <trkpt lat="48.502894" lon="16.755351">
        <ele>271.275212</ele>
        <time>2020-08-26T08:31:51.411Z</time>
      </trkpt>
      <trkpt lat="48.502872" lon="16.755535">
        <ele>271.198517</ele>
        <time>2020-08-26T08:31:53.379Z</time>
      </trkpt>
      <trkpt lat="48.502854" lon="16.755723">
        <ele>271.120598</ele>
        <time>2020-08-26T08:31:55.392Z</time>
      </trkpt>
      <trkpt lat="48.502835" lon="16.755908">
        <ele>271.043806</ele>
        <time>2020-08-26T08:31:57.395Z</time>
      </trkpt>
      <trkpt lat="48.502821" lon="16.756092">
        <ele>270.967833</ele>
        <time>2020-08-26T08:31:59.403Z</time>
      </trkpt>
      <trkpt lat="48.502807" lon="16.756277">
        <ele>270.891454</ele>
        <time>2020-08-26T08:32:01.381Z</time>
      </trkpt>
      <trkpt lat="48.502779" lon="16.756457">
        <ele>270.815610</ele>
        <time>2020-08-26T08:32:03.396Z</time>
      </trkpt>
      <trkpt lat="48.502762" lon="16.756636">
        <ele>270.741435</ele>
        <time>2020-08-26T08:32:05.371Z</time>
      </trkpt>
      <trkpt lat="48.502746" lon="16.756817">
        <ele>270.677589</ele>
        <time>2020-08-26T08:32:07.369Z</time>
      </trkpt>
      <trkpt lat="48.502727" lon="16.757000">
        <ele>270.643595</ele>
        <time>2020-08-26T08:32:09.381Z</time>
      </trkpt>
      <trkpt lat="48.502704" lon="16.757184">
        <ele>270.609232</ele>
        <time>2020-08-26T08:32:11.404Z</time>
      </trkpt>
      <trkpt lat="48.502686" lon="16.757367">
        <ele>270.575280</ele>
        <time>2020-08-26T08:32:13.378Z</time>
      </trkpt>
      <trkpt lat="48.502669" lon="16.757546">
        <ele>270.542094</ele>
        <time>2020-08-26T08:32:15.376Z</time>
      </trkpt>
      <trkpt lat="48.502654" lon="16.757716">
        <ele>270.510620</ele>
        <time>2020-08-26T08:32:17.392Z</time>
      </trkpt>
      <trkpt lat="48.502639" lon="16.757879">
        <ele>270.480419</ele>
        <time>2020-08-26T08:32:19.370Z</time>
      </trkpt>
      <trkpt lat="48.502624" lon="16.758031">
        <ele>270.452217</ele>
        <time>2020-08-26T08:32:21.372Z</time>
      </trkpt>
      <trkpt lat="48.502613" lon="16.758180">
        <ele>270.424703</ele>
        <time>2020-08-26T08:32:23.387Z</time>
      </trkpt>
      <trkpt lat="48.502601" lon="16.758319">
        <ele>270.398978</ele>
        <time>2020-08-26T08:32:25.375Z</time>
      </trkpt>
      <trkpt lat="48.502587" lon="16.758455">
        <ele>270.373720</ele>
        <time>2020-08-26T08:32:27.388Z</time>
      </trkpt>
      <trkpt lat="48.502573" lon="16.758594">
        <ele>270.347918</ele>
        <time>2020-08-26T08:32:29.402Z</time>
      </trkpt>
      <trkpt lat="48.502562" lon="16.758739">
        <ele>270.321133</ele>
        <time>2020-08-26T08:32:31.367Z</time>
      </trkpt>
      <trkpt lat="48.502550" lon="16.758885">
        <ele>270.294134</ele>
        <time>2020-08-26T08:32:33.373Z</time>
      </trkpt>
      <trkpt lat="48.502536" lon="16.759036">
        <ele>270.266152</ele>
        <time>2020-08-26T08:32:35.394Z</time>
      </trkpt>
      <trkpt lat="48.502516" lon="16.759190">
        <ele>270.237352</ele>
        <time>2020-08-26T08:32:37.380Z</time>
      </trkpt>
      <trkpt lat="48.502494" lon="16.759346">
        <ele>270.208082</ele>
        <time>2020-08-26T08:32:39.415Z</time>
      </trkpt>
      <trkpt lat="48.502476" lon="16.759506">
        <ele>270.168518</ele>
        <time>2020-08-26T08:32:41.374Z</time>
      </trkpt>
      <trkpt lat="48.502459" lon="16.759670">
        <ele>270.108450</ele>
        <time>2020-08-26T08:32:43.373Z</time>
      </trkpt>
      <trkpt lat="48.502440" lon="16.759834">
        <ele>270.048202</ele>
        <time>2020-08-26T08:32:45.372Z</time>
      </trkpt>
      <trkpt lat="48.502422" lon="16.760002">
        <ele>269.986618</ele>
        <time>2020-08-26T08:32:47.383Z</time>
      </trkpt>
      <trkpt lat="48.502404" lon="16.760170">
        <ele>269.925034</ele>
        <time>2020-08-26T08:32:49.385Z</time>
      </trkpt>
      <trkpt lat="48.502381" lon="16.760339">
        <ele>269.862601</ele>
        <time>2020-08-26T08:32:51.402Z</time>
      </trkpt>
      <trkpt lat="48.502362" lon="16.760515">
        <ele>269.798071</ele>
        <time>2020-08-26T08:32:53.379Z</time>
      </trkpt>
      <trkpt lat="48.502339" lon="16.760695">
        <ele>269.731734</ele>
        <time>2020-08-26T08:32:55.373Z</time>
      </trkpt>
      <trkpt lat="48.502320" lon="16.760878">
        <ele>269.664703</ele>
        <time>2020-08-26T08:32:57.379Z</time>
      </trkpt>
      <trkpt lat="48.502306" lon="16.761069">
        <ele>269.595164</ele>
        <time>2020-08-26T08:32:59.368Z</time>
      </trkpt>
      <trkpt lat="48.502289" lon="16.761260">
        <ele>269.525425</ele>
        <time>2020-08-26T08:33:01.364Z</time>
      </trkpt>
      <trkpt lat="48.502275" lon="16.761454">
        <ele>269.454807</ele>
        <time>2020-08-26T08:33:03.378Z</time>
      </trkpt>
      <trkpt lat="48.502253" lon="16.761651">
        <ele>269.382512</ele>
        <time>2020-08-26T08:33:05.375Z</time>
      </trkpt>
      <trkpt lat="48.502229" lon="16.761847">
        <ele>269.310384</ele>
        <time>2020-08-26T08:33:07.393Z</time>
      </trkpt>
      <trkpt lat="48.502209" lon="16.762043">
        <ele>269.238621</ele>
        <time>2020-08-26T08:33:09.387Z</time>
      </trkpt>
      <trkpt lat="48.502187" lon="16.762235">
        <ele>269.198800</ele>
        <time>2020-08-26T08:33:11.378Z</time>
      </trkpt>
      <trkpt lat="48.502164" lon="16.762425">
        <ele>269.185467</ele>
        <time>2020-08-26T08:33:13.387Z</time>
      </trkpt>
      <trkpt lat="48.502140" lon="16.762618">
        <ele>269.171911</ele>
        <time>2020-08-26T08:33:15.374Z</time>
      </trkpt>
      <trkpt lat="48.502119" lon="16.762814">
        <ele>269.158205</ele>
        <time>2020-08-26T08:33:17.372Z</time>
      </trkpt>
      <trkpt lat="48.502104" lon="16.763014">
        <ele>269.144311</ele>
        <time>2020-08-26T08:33:19.384Z</time>
      </trkpt>
      <trkpt lat="48.502077" lon="16.763213">
        <ele>269.130289</ele>
        <time>2020-08-26T08:33:21.379Z</time>
      </trkpt>
      <trkpt lat="48.502036" lon="16.763405">
        <ele>269.116363</ele>
        <time>2020-08-26T08:33:23.374Z</time>
      </trkpt>
      <trkpt lat="48.501969" lon="16.763574">
        <ele>269.102768</ele>
        <time>2020-08-26T08:33:25.373Z</time>
      </trkpt>
      <trkpt lat="48.501866" lon="16.763691">
        <ele>269.089338</ele>
        <time>2020-08-26T08:33:27.376Z</time>
      </trkpt>
      <trkpt lat="48.501754" lon="16.763781">
        <ele>269.076118</ele>
        <time>2020-08-26T08:33:29.366Z</time>
      </trkpt>
      <trkpt lat="48.501645" lon="16.763884">
        <ele>269.062720</ele>
        <time>2020-08-26T08:33:31.388Z</time>
      </trkpt>
      <trkpt lat="48.501534" lon="16.764000">
        <ele>269.048654</ele>
        <time>2020-08-26T08:33:33.374Z</time>
      </trkpt>
      <trkpt lat="48.501418" lon="16.764123">
        <ele>269.033884</ele>
        <time>2020-08-26T08:33:35.396Z</time>
      </trkpt>
      <trkpt lat="48.501303" lon="16.764258">
        <ele>269.018705</ele>
        <time>2020-08-26T08:33:37.392Z</time>
      </trkpt>
      <trkpt lat="48.501183" lon="16.764379">
        <ele>268.948043</ele>
        <time>2020-08-26T08:33:39.368Z</time>
      </trkpt>
      <trkpt lat="48.501072" lon="16.764499">
        <ele>268.880981</ele>
        <time>2020-08-26T08:33:41.385Z</time>
      </trkpt>
      <trkpt lat="48.500974" lon="16.764616">
        <ele>268.819609</ele>
        <time>2020-08-26T08:33:43.393Z</time>
      </trkpt>
      <trkpt lat="48.500880" lon="16.764716">
        <ele>268.763124</ele>
        <time>2020-08-26T08:33:45.377Z</time>
      </trkpt>
      <trkpt lat="48.500785" lon="16.764817">
        <ele>268.706049</ele>
        <time>2020-08-26T08:33:47.391Z</time>
      </trkpt>
      <trkpt lat="48.500691" lon="16.764921">
        <ele>268.648804</ele>
        <time>2020-08-26T08:33:49.390Z</time>
      </trkpt>
      <trkpt lat="48.500596" lon="16.765024">
        <ele>268.591352</ele>
        <time>2020-08-26T08:33:51.367Z</time>
      </trkpt>
      <trkpt lat="48.500497" lon="16.765130">
        <ele>268.531734</ele>
        <time>2020-08-26T08:33:53.369Z</time>
      </trkpt>
      <trkpt lat="48.500401" lon="16.765236">
        <ele>268.473312</ele>
        <time>2020-08-26T08:33:55.372Z</time>
      </trkpt>
      <trkpt lat="48.500312" lon="16.765338">
        <ele>268.418424</ele>
        <time>2020-08-26T08:33:57.381Z</time>
      </trkpt>
      <trkpt lat="48.500231" lon="16.765441">
        <ele>268.366401</ele>
        <time>2020-08-26T08:33:59.376Z</time>
      </trkpt>
      <trkpt lat="48.500127" lon="16.765559">
        <ele>268.302496</ele>
        <time>2020-08-26T08:34:02.368Z</time>
      </trkpt>
      <trkpt lat="48.500024" lon="16.765673">
        <ele>268.239761</ele>
        <time>2020-08-26T08:34:05.375Z</time>
      </trkpt>
      <trkpt lat="48.499920" lon="16.765792">
        <ele>268.175660</ele>
        <time>2020-08-26T08:34:08.407Z</time>
      </trkpt>
      <trkpt lat="48.499813" lon="16.765907">
        <ele>268.051334</ele>
        <time>2020-08-26T08:34:11.368Z</time>
      </trkpt>
      <trkpt lat="48.499738" lon="16.765982">
        <ele>267.897485</ele>
        <time>2020-08-26T08:34:13.408Z</time>
      </trkpt>
      <trkpt lat="48.499660" lon="16.766057">
        <ele>267.739334</ele>
        <time>2020-08-26T08:34:15.401Z</time>
      </trkpt>
      <trkpt lat="48.499587" lon="16.766141">
        <ele>267.582359</ele>
        <time>2020-08-26T08:34:17.403Z</time>
      </trkpt>
      <trkpt lat="48.499510" lon="16.766224">
        <ele>267.420552</ele>
        <time>2020-08-26T08:34:19.381Z</time>
      </trkpt>
      <trkpt lat="48.499437" lon="16.766303">
        <ele>267.266945</ele>
        <time>2020-08-26T08:34:21.381Z</time>
      </trkpt>
      <trkpt lat="48.499362" lon="16.766383">
        <ele>267.109896</ele>
        <time>2020-08-26T08:34:23.380Z</time>
      </trkpt>
      <trkpt lat="48.499282" lon="16.766464">
        <ele>266.945161</ele>
        <time>2020-08-26T08:34:25.386Z</time>
      </trkpt>
      <trkpt lat="48.499202" lon="16.766543">
        <ele>266.781678</ele>
        <time>2020-08-26T08:34:27.382Z</time>
      </trkpt>
      <trkpt lat="48.499122" lon="16.766628">
        <ele>266.614375</ele>
        <time>2020-08-26T08:34:29.380Z</time>
      </trkpt>
      <trkpt lat="48.499043" lon="16.766712">
        <ele>266.449123</ele>
        <time>2020-08-26T08:34:31.380Z</time>
      </trkpt>
      <trkpt lat="48.498963" lon="16.766798">
        <ele>266.281166</ele>
        <time>2020-08-26T08:34:33.370Z</time>
      </trkpt>
      <trkpt lat="48.498882" lon="16.766885">
        <ele>266.111158</ele>
        <time>2020-08-26T08:34:35.395Z</time>
      </trkpt>
      <trkpt lat="48.498701" lon="16.767058">
        <ele>265.744796</ele>
        <time>2020-08-26T08:35:24.374Z</time>
      </trkpt>
      <trkpt lat="48.498623" lon="16.767139">
        <ele>265.582889</ele>
        <time>2020-08-26T08:35:28.382Z</time>
      </trkpt>
      <trkpt lat="48.498532" lon="16.767240">
        <ele>265.389727</ele>
        <time>2020-08-26T08:35:32.394Z</time>
      </trkpt>
      <trkpt lat="48.498453" lon="16.767330">
        <ele>265.220468</ele>
        <time>2020-08-26T08:35:35.392Z</time>
      </trkpt>
      <trkpt lat="48.498370" lon="16.767422">
        <ele>265.040365</ele>
        <time>2020-08-26T08:35:38.391Z</time>
      </trkpt>
      <trkpt lat="48.498270" lon="16.767532">
        <ele>264.773095</ele>
        <time>2020-08-26T08:35:41.373Z</time>
      </trkpt>
      <trkpt lat="48.498191" lon="16.767612">
        <ele>264.567613</ele>
        <time>2020-08-26T08:35:43.397Z</time>
      </trkpt>
      <trkpt lat="48.498108" lon="16.767696">
        <ele>264.351767</ele>
        <time>2020-08-26T08:35:45.381Z</time>
      </trkpt>
      <trkpt lat="48.498019" lon="16.767791">
        <ele>264.116317</ele>
        <time>2020-08-26T08:35:47.401Z</time>
      </trkpt>
      <trkpt lat="48.497926" lon="16.767895">
        <ele>263.866314</ele>
        <time>2020-08-26T08:35:49.356Z</time>
      </trkpt>
      <trkpt lat="48.497832" lon="16.768007">
        <ele>263.607638</ele>
        <time>2020-08-26T08:35:51.369Z</time>
      </trkpt>
      <trkpt lat="48.497732" lon="16.768117">
        <ele>263.340367</ele>
        <time>2020-08-26T08:35:53.380Z</time>
      </trkpt>
      <trkpt lat="48.497628" lon="16.768228">
        <ele>263.065243</ele>
        <time>2020-08-26T08:35:55.400Z</time>
      </trkpt>
      <trkpt lat="48.497518" lon="16.768347">
        <ele>262.772921</ele>
        <time>2020-08-26T08:35:57.388Z</time>
      </trkpt>
      <trkpt lat="48.497405" lon="16.768474">
        <ele>262.468612</ele>
        <time>2020-08-26T08:35:59.373Z</time>
      </trkpt>
      <trkpt lat="48.497285" lon="16.768587">
        <ele>262.163112</ele>
        <time>2020-08-26T08:36:01.371Z</time>
      </trkpt>
      <trkpt lat="48.497168" lon="16.768715">
        <ele>261.850992</ele>
        <time>2020-08-26T08:36:03.377Z</time>
      </trkpt>
      <trkpt lat="48.497051" lon="16.768840">
        <ele>261.541373</ele>
        <time>2020-08-26T08:36:05.367Z</time>
      </trkpt>
      <trkpt lat="48.496944" lon="16.768959">
        <ele>261.254291</ele>
        <time>2020-08-26T08:36:07.379Z</time>
      </trkpt>
      <trkpt lat="48.496844" lon="16.769070">
        <ele>261.116199</ele>
        <time>2020-08-26T08:36:09.380Z</time>
      </trkpt>
      <trkpt lat="48.496747" lon="16.769174">
        <ele>261.036339</ele>
        <time>2020-08-26T08:36:11.392Z</time>
      </trkpt>
      <trkpt lat="48.496656" lon="16.769269">
        <ele>260.962075</ele>
        <time>2020-08-26T08:36:13.394Z</time>
      </trkpt>
      <trkpt lat="48.496571" lon="16.769356">
        <ele>260.893144</ele>
        <time>2020-08-26T08:36:15.390Z</time>
      </trkpt>
      <trkpt lat="48.496488" lon="16.769443">
        <ele>260.825319</ele>
        <time>2020-08-26T08:36:17.402Z</time>
      </trkpt>
      <trkpt lat="48.496405" lon="16.769528">
        <ele>260.757998</ele>
        <time>2020-08-26T08:36:19.366Z</time>
      </trkpt>
      <trkpt lat="48.496323" lon="16.769616">
        <ele>260.690466</ele>
        <time>2020-08-26T08:36:21.386Z</time>
      </trkpt>
      <trkpt lat="48.496240" lon="16.769708">
        <ele>260.621349</ele>
        <time>2020-08-26T08:36:23.374Z</time>
      </trkpt>
      <trkpt lat="48.496156" lon="16.769804">
        <ele>260.550629</ele>
        <time>2020-08-26T08:36:25.369Z</time>
      </trkpt>
      <trkpt lat="48.496074" lon="16.769896">
        <ele>260.482051</ele>
        <time>2020-08-26T08:36:27.405Z</time>
      </trkpt>
      <trkpt lat="48.495990" lon="16.769989">
        <ele>260.412130</ele>
        <time>2020-08-26T08:36:29.396Z</time>
      </trkpt>
      <trkpt lat="48.495904" lon="16.770086">
        <ele>260.340070</ele>
        <time>2020-08-26T08:36:31.390Z</time>
      </trkpt>
      <trkpt lat="48.495812" lon="16.770183">
        <ele>260.264747</ele>
        <time>2020-08-26T08:36:33.411Z</time>
      </trkpt>
      <trkpt lat="48.495720" lon="16.770275">
        <ele>260.190674</ele>
        <time>2020-08-26T08:36:35.398Z</time>
      </trkpt>
      <trkpt lat="48.495626" lon="16.770371">
        <ele>260.114497</ele>
        <time>2020-08-26T08:36:37.404Z</time>
      </trkpt>
      <trkpt lat="48.495529" lon="16.770475">
        <ele>260.034637</ele>
        <time>2020-08-26T08:36:39.381Z</time>
      </trkpt>
      <trkpt lat="48.495429" lon="16.770583">
        <ele>259.941318</ele>
        <time>2020-08-26T08:36:41.372Z</time>
      </trkpt>
      <trkpt lat="48.495325" lon="16.770693">
        <ele>259.797002</ele>
        <time>2020-08-26T08:36:43.381Z</time>
      </trkpt>
      <trkpt lat="48.495211" lon="16.770816">
        <ele>259.637755</ele>
        <time>2020-08-26T08:36:45.407Z</time>
      </trkpt>
      <trkpt lat="48.495087" lon="16.770945">
        <ele>259.466611</ele>
        <time>2020-08-26T08:36:47.372Z</time>
      </trkpt>
      <trkpt lat="48.494954" lon="16.771083">
        <ele>259.283201</ele>
        <time>2020-08-26T08:36:49.357Z</time>
      </trkpt>
      <trkpt lat="48.494815" lon="16.771227">
        <ele>259.091612</ele>
        <time>2020-08-26T08:36:51.377Z</time>
      </trkpt>
      <trkpt lat="48.494676" lon="16.771375">
        <ele>258.898302</ele>
        <time>2020-08-26T08:36:53.396Z</time>
      </trkpt>
      <trkpt lat="48.494549" lon="16.771520">
        <ele>258.717336</ele>
        <time>2020-08-26T08:36:55.366Z</time>
      </trkpt>
      <trkpt lat="48.494431" lon="16.771640">
        <ele>258.555643</ele>
        <time>2020-08-26T08:36:57.384Z</time>
      </trkpt>
      <trkpt lat="48.494330" lon="16.771750">
        <ele>258.414104</ele>
        <time>2020-08-26T08:36:59.387Z</time>
      </trkpt>
      <trkpt lat="48.494244" lon="16.771851">
        <ele>258.290271</ele>
        <time>2020-08-26T08:37:01.379Z</time>
      </trkpt>
      <trkpt lat="48.494168" lon="16.771931">
        <ele>258.184974</ele>
        <time>2020-08-26T08:37:03.397Z</time>
      </trkpt>
      <trkpt lat="48.494075" lon="16.772039">
        <ele>258.051624</ele>
        <time>2020-08-26T08:37:06.402Z</time>
      </trkpt>
      <trkpt lat="48.493991" lon="16.772148">
        <ele>257.925734</ele>
        <time>2020-08-26T08:37:09.386Z</time>
      </trkpt>
      <trkpt lat="48.493901" lon="16.772239">
        <ele>257.724950</ele>
        <time>2020-08-26T08:37:12.373Z</time>
      </trkpt>
      <trkpt lat="48.493810" lon="16.772323">
        <ele>257.526037</ele>
        <time>2020-08-26T08:37:15.368Z</time>
      </trkpt>
      <trkpt lat="48.493716" lon="16.772421">
        <ele>257.312995</ele>
        <time>2020-08-26T08:37:18.383Z</time>
      </trkpt>
      <trkpt lat="48.493603" lon="16.772528">
        <ele>257.064240</ele>
        <time>2020-08-26T08:37:21.389Z</time>
      </trkpt>
      <trkpt lat="48.493521" lon="16.772612">
        <ele>256.879435</ele>
        <time>2020-08-26T08:37:23.385Z</time>
      </trkpt>
      <trkpt lat="48.493429" lon="16.772717">
        <ele>256.664345</ele>
        <time>2020-08-26T08:37:25.405Z</time>
      </trkpt>
      <trkpt lat="48.493327" lon="16.772834">
        <ele>256.425438</ele>
        <time>2020-08-26T08:37:27.385Z</time>
      </trkpt>
      <trkpt lat="48.493229" lon="16.772973">
        <ele>256.174649</ele>
        <time>2020-08-26T08:37:29.371Z</time>
      </trkpt>
      <trkpt lat="48.493148" lon="16.773145">
        <ele>255.913907</ele>
        <time>2020-08-26T08:37:31.373Z</time>
      </trkpt>
      <trkpt lat="48.493076" lon="16.773318">
        <ele>255.661467</ele>
        <time>2020-08-26T08:37:33.369Z</time>
      </trkpt>
      <trkpt lat="48.493011" lon="16.773471">
        <ele>255.436888</ele>
        <time>2020-08-26T08:37:35.373Z</time>
      </trkpt>
      <trkpt lat="48.492956" lon="16.773601">
        <ele>255.246299</ele>
        <time>2020-08-26T08:37:37.368Z</time>
      </trkpt>
      <trkpt lat="48.492893" lon="16.773754">
        <ele>255.023711</ele>
        <time>2020-08-26T08:37:40.392Z</time>
      </trkpt>
      <trkpt lat="48.492835" lon="16.773894">
        <ele>254.819687</ele>
        <time>2020-08-26T08:37:44.373Z</time>
      </trkpt>
      <trkpt lat="48.492786" lon="16.774020">
        <ele>254.639157</ele>
        <time>2020-08-26T08:37:48.386Z</time>
      </trkpt>
      <trkpt lat="48.492740" lon="16.774143">
        <ele>254.562981</ele>
        <time>2020-08-26T08:37:52.389Z</time>
      </trkpt>
      <trkpt lat="48.492681" lon="16.774270">
        <ele>254.550226</ele>
        <time>2020-08-26T08:37:56.389Z</time>
      </trkpt>
      <trkpt lat="48.492619" lon="16.774401">
        <ele>254.536988</ele>
        <time>2020-08-26T08:38:00.393Z</time>
      </trkpt>
      <trkpt lat="48.492553" lon="16.774547">
        <ele>254.522453</ele>
        <time>2020-08-26T08:38:04.408Z</time>
      </trkpt>
      <trkpt lat="48.492503" lon="16.774661">
        <ele>254.511211</ele>
        <time>2020-08-26T08:38:07.404Z</time>
      </trkpt>
      <trkpt lat="48.492453" lon="16.774780">
        <ele>254.499623</ele>
        <time>2020-08-26T08:38:10.373Z</time>
      </trkpt>
      <trkpt lat="48.492395" lon="16.774899">
        <ele>254.487475</ele>
        <time>2020-08-26T08:38:13.378Z</time>
      </trkpt>
      <trkpt lat="48.492343" lon="16.775028">
        <ele>254.475058</ele>
        <time>2020-08-26T08:38:16.384Z</time>
      </trkpt>
      <trkpt lat="48.492291" lon="16.775154">
        <ele>254.462851</ele>
        <time>2020-08-26T08:38:19.378Z</time>
      </trkpt>
      <trkpt lat="48.492234" lon="16.775286">
        <ele>254.449894</ele>
        <time>2020-08-26T08:38:22.367Z</time>
      </trkpt>
      <trkpt lat="48.492176" lon="16.775418">
        <ele>254.436869</ele>
        <time>2020-08-26T08:38:25.420Z</time>
      </trkpt>
      <trkpt lat="48.492121" lon="16.775555">
        <ele>254.423696</ele>
        <time>2020-08-26T08:38:28.384Z</time>
      </trkpt>
      <trkpt lat="48.492063" lon="16.775686">
        <ele>254.410740</ele>
        <time>2020-08-26T08:38:31.399Z</time>
      </trkpt>
      <trkpt lat="48.492000" lon="16.775819">
        <ele>254.397295</ele>
        <time>2020-08-26T08:38:34.407Z</time>
      </trkpt>
      <trkpt lat="48.491945" lon="16.775964">
        <ele>254.383555</ele>
        <time>2020-08-26T08:38:37.416Z</time>
      </trkpt>
      <trkpt lat="48.491888" lon="16.776096">
        <ele>254.370598</ele>
        <time>2020-08-26T08:38:40.422Z</time>
      </trkpt>
      <trkpt lat="48.491829" lon="16.776233">
        <ele>254.357162</ele>
        <time>2020-08-26T08:38:43.376Z</time>
      </trkpt>
      <trkpt lat="48.491771" lon="16.776360">
        <ele>254.354399</ele>
        <time>2020-08-26T08:38:46.376Z</time>
      </trkpt>
      <trkpt lat="48.491712" lon="16.776482">
        <ele>254.395204</ele>
        <time>2020-08-26T08:38:49.368Z</time>
      </trkpt>
      <trkpt lat="48.491654" lon="16.776616">
        <ele>254.438445</ele>
        <time>2020-08-26T08:38:52.382Z</time>
      </trkpt>
      <trkpt lat="48.491598" lon="16.776752">
        <ele>254.481704</ele>
        <time>2020-08-26T08:38:55.386Z</time>
      </trkpt>
      <trkpt lat="48.491541" lon="16.776898">
        <ele>254.527486</ele>
        <time>2020-08-26T08:38:58.370Z</time>
      </trkpt>
      <trkpt lat="48.491480" lon="16.777047">
        <ele>254.574804</ele>
        <time>2020-08-26T08:39:01.383Z</time>
      </trkpt>
      <trkpt lat="48.491415" lon="16.777198">
        <ele>254.623452</ele>
        <time>2020-08-26T08:39:04.391Z</time>
      </trkpt>
      <trkpt lat="48.491339" lon="16.777339">
        <ele>254.672556</ele>
        <time>2020-08-26T08:39:07.389Z</time>
      </trkpt>
      <trkpt lat="48.491268" lon="16.777495">
        <ele>254.723686</ele>
        <time>2020-08-26T08:39:10.392Z</time>
      </trkpt>
      <trkpt lat="48.491198" lon="16.777646">
        <ele>254.773474</ele>
        <time>2020-08-26T08:39:13.401Z</time>
      </trkpt>
      <trkpt lat="48.491131" lon="16.777799">
        <ele>254.823021</ele>
        <time>2020-08-26T08:39:16.383Z</time>
      </trkpt>
      <trkpt lat="48.491063" lon="16.777956">
        <ele>254.873695</ele>
        <time>2020-08-26T08:39:19.380Z</time>
      </trkpt>
      <trkpt lat="48.490989" lon="16.778109">
        <ele>254.924870</ele>
        <time>2020-08-26T08:39:22.405Z</time>
      </trkpt>
      <trkpt lat="48.490918" lon="16.778277">
        <ele>254.978704</ele>
        <time>2020-08-26T08:39:25.404Z</time>
      </trkpt>
      <trkpt lat="48.490846" lon="16.778445">
        <ele>255.032759</ele>
        <time>2020-08-26T08:39:28.384Z</time>
      </trkpt>
      <trkpt lat="48.490794" lon="16.778556">
        <ele>255.069485</ele>
        <time>2020-08-26T08:39:30.389Z</time>
      </trkpt>
      <trkpt lat="48.490720" lon="16.778723">
        <ele>255.054101</ele>
        <time>2020-08-26T08:39:33.378Z</time>
      </trkpt>
      <trkpt lat="48.490672" lon="16.778839">
        <ele>255.032159</ele>
        <time>2020-08-26T08:39:35.413Z</time>
      </trkpt>
      <trkpt lat="48.490623" lon="16.778961">
        <ele>255.009269</ele>
        <time>2020-08-26T08:39:37.379Z</time>
      </trkpt>
      <trkpt lat="48.490567" lon="16.779080">
        <ele>254.985852</ele>
        <time>2020-08-26T08:39:39.372Z</time>
      </trkpt>
      <trkpt lat="48.490512" lon="16.779203">
        <ele>254.962044</ele>
        <time>2020-08-26T08:39:41.401Z</time>
      </trkpt>
      <trkpt lat="48.490460" lon="16.779325">
        <ele>254.938770</ele>
        <time>2020-08-26T08:39:43.371Z</time>
      </trkpt>
      <trkpt lat="48.490411" lon="16.779447">
        <ele>254.915881</ele>
        <time>2020-08-26T08:39:45.369Z</time>
      </trkpt>
      <trkpt lat="48.490357" lon="16.779574">
        <ele>254.891670</ele>
        <time>2020-08-26T08:39:47.389Z</time>
      </trkpt>
      <trkpt lat="48.490298" lon="16.779696">
        <ele>254.867438</ele>
        <time>2020-08-26T08:39:49.376Z</time>
      </trkpt>
      <trkpt lat="48.490242" lon="16.779824">
        <ele>254.842828</ele>
        <time>2020-08-26T08:39:51.373Z</time>
      </trkpt>
      <trkpt lat="48.490190" lon="16.779953">
        <ele>254.818602</ele>
        <time>2020-08-26T08:39:53.366Z</time>
      </trkpt>
      <trkpt lat="48.490138" lon="16.780082">
        <ele>254.794376</ele>
        <time>2020-08-26T08:39:55.373Z</time>
      </trkpt>
      <trkpt lat="48.490080" lon="16.780216">
        <ele>254.768696</ele>
        <time>2020-08-26T08:39:57.355Z</time>
      </trkpt>
      <trkpt lat="48.490020" lon="16.780349">
        <ele>254.742881</ele>
        <time>2020-08-26T08:39:59.370Z</time>
      </trkpt>
      <trkpt lat="48.489958" lon="16.780490">
        <ele>254.715730</ele>
        <time>2020-08-26T08:40:01.390Z</time>
      </trkpt>
      <trkpt lat="48.489899" lon="16.780633">
        <ele>254.688702</ele>
        <time>2020-08-26T08:40:03.403Z</time>
      </trkpt>
      <trkpt lat="48.489841" lon="16.780777">
        <ele>254.661665</ele>
        <time>2020-08-26T08:40:05.391Z</time>
      </trkpt>
      <trkpt lat="48.489777" lon="16.780926">
        <ele>254.642460</ele>
        <time>2020-08-26T08:40:07.379Z</time>
      </trkpt>
      <trkpt lat="48.489707" lon="16.781076">
        <ele>254.636947</ele>
        <time>2020-08-26T08:40:09.383Z</time>
      </trkpt>
      <trkpt lat="48.489639" lon="16.781230">
        <ele>254.631386</ele>
        <time>2020-08-26T08:40:11.375Z</time>
      </trkpt>
      <trkpt lat="48.489570" lon="16.781382">
        <ele>254.625849</ele>
        <time>2020-08-26T08:40:13.382Z</time>
      </trkpt>
      <trkpt lat="48.489502" lon="16.781535">
        <ele>254.620313</ele>
        <time>2020-08-26T08:40:15.384Z</time>
      </trkpt>
      <trkpt lat="48.489436" lon="16.781686">
        <ele>254.614877</ele>
        <time>2020-08-26T08:40:17.393Z</time>
      </trkpt>
      <trkpt lat="48.489369" lon="16.781837">
        <ele>254.609415</ele>
        <time>2020-08-26T08:40:19.399Z</time>
      </trkpt>
      <trkpt lat="48.489309" lon="16.781992">
        <ele>254.604021</ele>
        <time>2020-08-26T08:40:21.371Z</time>
      </trkpt>
      <trkpt lat="48.489247" lon="16.782143">
        <ele>254.598683</ele>
        <time>2020-08-26T08:40:23.383Z</time>
      </trkpt>
      <trkpt lat="48.489183" lon="16.782296">
        <ele>254.593245</ele>
        <time>2020-08-26T08:40:25.371Z</time>
      </trkpt>
      <trkpt lat="48.489119" lon="16.782448">
        <ele>254.587833</ele>
        <time>2020-08-26T08:40:27.373Z</time>
      </trkpt>
      <trkpt lat="48.489056" lon="16.782599">
        <ele>254.582471</ele>
        <time>2020-08-26T08:40:29.385Z</time>
      </trkpt>
      <trkpt lat="48.488993" lon="16.782746">
        <ele>254.577210</ele>
        <time>2020-08-26T08:40:31.391Z</time>
      </trkpt>
      <trkpt lat="48.488935" lon="16.782859">
        <ele>254.572915</ele>
        <time>2020-08-26T08:40:33.379Z</time>
      </trkpt>
      <trkpt lat="48.488833" lon="16.782888">
        <ele>254.568208</ele>
        <time>2020-08-26T08:40:36.372Z</time>
      </trkpt>
      <trkpt lat="48.488738" lon="16.782800">
        <ele>254.563153</ele>
        <time>2020-08-26T08:40:39.371Z</time>
      </trkpt>
      <trkpt lat="48.488637" lon="16.782723">
        <ele>254.561006</ele>
        <time>2020-08-26T08:40:42.374Z</time>
      </trkpt>
      <trkpt lat="48.488532" lon="16.782657">
        <ele>254.558915</ele>
        <time>2020-08-26T08:40:45.378Z</time>
      </trkpt>
      <trkpt lat="48.488418" lon="16.782584">
        <ele>254.556639</ele>
        <time>2020-08-26T08:40:48.387Z</time>
      </trkpt>
      <trkpt lat="48.488305" lon="16.782499">
        <ele>254.554318</ele>
        <time>2020-08-26T08:40:51.365Z</time>
      </trkpt>
      <trkpt lat="48.488187" lon="16.782422">
        <ele>254.551955</ele>
        <time>2020-08-26T08:40:54.380Z</time>
      </trkpt>
      <trkpt lat="48.488076" lon="16.782346">
        <ele>254.549715</ele>
        <time>2020-08-26T08:40:57.394Z</time>
      </trkpt>
      <trkpt lat="48.487965" lon="16.782252">
        <ele>254.547375</ele>
        <time>2020-08-26T08:41:00.382Z</time>
      </trkpt>
      <trkpt lat="48.487846" lon="16.782171">
        <ele>254.544976</ele>
        <time>2020-08-26T08:41:03.392Z</time>
      </trkpt>
      <trkpt lat="48.487724" lon="16.782097">
        <ele>254.542559</ele>
        <time>2020-08-26T08:41:06.366Z</time>
      </trkpt>
      <trkpt lat="48.487643" lon="16.782033">
        <ele>254.540878</ele>
        <time>2020-08-26T08:41:08.386Z</time>
      </trkpt>
      <trkpt lat="48.487564" lon="16.781969">
        <ele>254.539230</ele>
        <time>2020-08-26T08:41:10.368Z</time>
      </trkpt>
      <trkpt lat="48.487482" lon="16.781907">
        <ele>254.537544</ele>
        <time>2020-08-26T08:41:12.387Z</time>
      </trkpt>
      <trkpt lat="48.487398" lon="16.781854">
        <ele>254.535871</ele>
        <time>2020-08-26T08:41:14.389Z</time>
      </trkpt>
      <trkpt lat="48.487312" lon="16.781801">
        <ele>254.534163</ele>
        <time>2020-08-26T08:41:16.389Z</time>
      </trkpt>
      <trkpt lat="48.487227" lon="16.781740">
        <ele>254.532433</ele>
        <time>2020-08-26T08:41:18.404Z</time>
      </trkpt>
      <trkpt lat="48.487144" lon="16.781676">
        <ele>254.530720</ele>
        <time>2020-08-26T08:41:20.373Z</time>
      </trkpt>
      <trkpt lat="48.487054" lon="16.781614">
        <ele>254.505795</ele>
        <time>2020-08-26T08:41:22.398Z</time>
      </trkpt>
      <trkpt lat="48.486960" lon="16.781552">
        <ele>254.463533</ele>
        <time>2020-08-26T08:41:24.391Z</time>
      </trkpt>
      <trkpt lat="48.486862" lon="16.781483">
        <ele>254.418981</ele>
        <time>2020-08-26T08:41:26.394Z</time>
      </trkpt>
      <trkpt lat="48.486765" lon="16.781411">
        <ele>254.374448</ele>
        <time>2020-08-26T08:41:28.378Z</time>
      </trkpt>
      <trkpt lat="48.486667" lon="16.781330">
        <ele>254.328415</ele>
        <time>2020-08-26T08:41:30.364Z</time>
      </trkpt>
      <trkpt lat="48.486566" lon="16.781249">
        <ele>254.281295</ele>
        <time>2020-08-26T08:41:32.370Z</time>
      </trkpt>
      <trkpt lat="48.486467" lon="16.781168">
        <ele>254.234900</ele>
        <time>2020-08-26T08:41:34.399Z</time>
      </trkpt>
      <trkpt lat="48.486367" lon="16.781091">
        <ele>254.188650</ele>
        <time>2020-08-26T08:41:36.377Z</time>
      </trkpt>
      <trkpt lat="48.486265" lon="16.781007">
        <ele>254.140778</ele>
        <time>2020-08-26T08:41:38.399Z</time>
      </trkpt>
      <trkpt lat="48.486162" lon="16.780927">
        <ele>254.093054</ele>
        <time>2020-08-26T08:41:40.386Z</time>
      </trkpt>
      <trkpt lat="48.486053" lon="16.780838">
        <ele>254.041997</ele>
        <time>2020-08-26T08:41:42.366Z</time>
      </trkpt>
      <trkpt lat="48.485942" lon="16.780742">
        <ele>253.989290</ele>
        <time>2020-08-26T08:41:44.386Z</time>
      </trkpt>
      <trkpt lat="48.485825" lon="16.780642">
        <ele>253.933894</ele>
        <time>2020-08-26T08:41:46.386Z</time>
      </trkpt>
      <trkpt lat="48.485704" lon="16.780540">
        <ele>253.876795</ele>
        <time>2020-08-26T08:41:48.386Z</time>
      </trkpt>
      <trkpt lat="48.485583" lon="16.780440">
        <ele>253.819960</ele>
        <time>2020-08-26T08:41:50.367Z</time>
      </trkpt>
      <trkpt lat="48.485466" lon="16.780344">
        <ele>253.784753</ele>
        <time>2020-08-26T08:41:52.381Z</time>
      </trkpt>
      <trkpt lat="48.485358" lon="16.780263">
        <ele>253.775894</ele>
        <time>2020-08-26T08:41:54.364Z</time>
      </trkpt>
      <trkpt lat="48.485267" lon="16.780192">
        <ele>253.768370</ele>
        <time>2020-08-26T08:41:56.406Z</time>
      </trkpt>
      <trkpt lat="48.485163" lon="16.780091">
        <ele>253.759285</ele>
        <time>2020-08-26T08:41:59.378Z</time>
      </trkpt>
      <trkpt lat="48.485064" lon="16.780007">
        <ele>253.750943</ele>
        <time>2020-08-26T08:42:02.370Z</time>
      </trkpt>
      <trkpt lat="48.484976" lon="16.779942">
        <ele>253.743746</ele>
        <time>2020-08-26T08:42:05.374Z</time>
      </trkpt>
      <trkpt lat="48.484895" lon="16.779877">
        <ele>253.737008</ele>
        <time>2020-08-26T08:42:08.369Z</time>
      </trkpt>
      <trkpt lat="48.484809" lon="16.779817">
        <ele>253.730048</ele>
        <time>2020-08-26T08:42:11.381Z</time>
      </trkpt>
      <trkpt lat="48.484724" lon="16.779734">
        <ele>253.722612</ele>
        <time>2020-08-26T08:42:14.383Z</time>
      </trkpt>
      <trkpt lat="48.484644" lon="16.779667">
        <ele>253.715891</ele>
        <time>2020-08-26T08:42:17.421Z</time>
      </trkpt>
      <trkpt lat="48.484559" lon="16.779600">
        <ele>253.708847</ele>
        <time>2020-08-26T08:42:20.369Z</time>
      </trkpt>
      <trkpt lat="48.484468" lon="16.779541">
        <ele>253.701572</ele>
        <time>2020-08-26T08:42:23.387Z</time>
      </trkpt>
      <trkpt lat="48.484374" lon="16.779465">
        <ele>253.693739</ele>
        <time>2020-08-26T08:42:26.369Z</time>
      </trkpt>
      <trkpt lat="48.484276" lon="16.779389">
        <ele>253.685646</ele>
        <time>2020-08-26T08:42:29.378Z</time>
      </trkpt>
      <trkpt lat="48.484167" lon="16.779354">
        <ele>253.677460</ele>
        <time>2020-08-26T08:42:32.367Z</time>
      </trkpt>
      <trkpt lat="48.484081" lon="16.779441">
        <ele>253.669855</ele>
        <time>2020-08-26T08:42:35.374Z</time>
      </trkpt>
      <trkpt lat="48.484047" lon="16.779591">
        <ele>253.662137</ele>
        <time>2020-08-26T08:42:38.394Z</time>
      </trkpt>
      <trkpt lat="48.484009" lon="16.779757">
        <ele>253.641105</ele>
        <time>2020-08-26T08:42:41.388Z</time>
      </trkpt>
      <trkpt lat="48.483962" lon="16.779933">
        <ele>253.597158</ele>
        <time>2020-08-26T08:42:44.390Z</time>
      </trkpt>
      <trkpt lat="48.483914" lon="16.780122">
        <ele>253.550282</ele>
        <time>2020-08-26T08:42:47.387Z</time>
      </trkpt>
      <trkpt lat="48.483856" lon="16.780304">
        <ele>253.503511</ele>
        <time>2020-08-26T08:42:50.370Z</time>
      </trkpt>
      <trkpt lat="48.483807" lon="16.780427">
        <ele>253.470274</ele>
        <time>2020-08-26T08:42:52.366Z</time>
      </trkpt>
      <trkpt lat="48.483757" lon="16.780555">
        <ele>253.435864</ele>
        <time>2020-08-26T08:42:54.363Z</time>
      </trkpt>
      <trkpt lat="48.483713" lon="16.780689">
        <ele>253.401229</ele>
        <time>2020-08-26T08:42:56.378Z</time>
      </trkpt>
      <trkpt lat="48.483668" lon="16.780820">
        <ele>253.367056</ele>
        <time>2020-08-26T08:42:58.394Z</time>
      </trkpt>
      <trkpt lat="48.483618" lon="16.780947">
        <ele>253.332845</ele>
        <time>2020-08-26T08:43:00.390Z</time>
      </trkpt>
      <trkpt lat="48.483568" lon="16.781084">
        <ele>253.296623</ele>
        <time>2020-08-26T08:43:02.388Z</time>
      </trkpt>
      <trkpt lat="48.483517" lon="16.781217">
        <ele>253.261036</ele>
        <time>2020-08-26T08:43:04.383Z</time>
      </trkpt>
      <trkpt lat="48.483466" lon="16.781355">
        <ele>253.224442</ele>
        <time>2020-08-26T08:43:06.385Z</time>
      </trkpt>
      <trkpt lat="48.483418" lon="16.781499">
        <ele>253.187111</ele>
        <time>2020-08-26T08:43:08.362Z</time>
      </trkpt>
      <trkpt lat="48.483367" lon="16.781649">
        <ele>253.148066</ele>
        <time>2020-08-26T08:43:10.375Z</time>
      </trkpt>
      <trkpt lat="48.483313" lon="16.781804">
        <ele>253.107510</ele>
        <time>2020-08-26T08:43:12.381Z</time>
      </trkpt>
      <trkpt lat="48.483261" lon="16.781953">
        <ele>253.068510</ele>
        <time>2020-08-26T08:43:14.366Z</time>
      </trkpt>
      <trkpt lat="48.483211" lon="16.782098">
        <ele>253.030654</ele>
        <time>2020-08-26T08:43:16.369Z</time>
      </trkpt>
      <trkpt lat="48.483164" lon="16.782233">
        <ele>253.024135</ele>
        <time>2020-08-26T08:43:18.381Z</time>
      </trkpt>
      <trkpt lat="48.483116" lon="16.782369">
        <ele>253.019502</ele>
        <time>2020-08-26T08:43:20.383Z</time>
      </trkpt>
      <trkpt lat="48.483069" lon="16.782509">
        <ele>253.014784</ele>
        <time>2020-08-26T08:43:22.369Z</time>
      </trkpt>
      <trkpt lat="48.483022" lon="16.782650">
        <ele>253.010038</ele>
        <time>2020-08-26T08:43:24.378Z</time>
      </trkpt>
      <trkpt lat="48.482969" lon="16.782816">
        <ele>253.004498</ele>
        <time>2020-08-26T08:43:27.384Z</time>
      </trkpt>
      <trkpt lat="48.482926" lon="16.782963">
        <ele>252.999667</ele>
        <time>2020-08-26T08:43:30.382Z</time>
      </trkpt>
      <trkpt lat="48.482836" lon="16.783068">
        <ele>252.994506</ele>
        <time>2020-08-26T08:43:33.371Z</time>
      </trkpt>
      <trkpt lat="48.482711" lon="16.783036">
        <ele>252.988755</ele>
        <time>2020-08-26T08:43:36.398Z</time>
      </trkpt>
      <trkpt lat="48.482612" lon="16.782987">
        <ele>252.984029</ele>
        <time>2020-08-26T08:43:39.395Z</time>
      </trkpt>
      <trkpt lat="48.482521" lon="16.782950">
        <ele>252.979753</ele>
        <time>2020-08-26T08:43:42.361Z</time>
      </trkpt>
      <trkpt lat="48.482429" lon="16.782918">
        <ele>252.975471</ele>
        <time>2020-08-26T08:43:45.378Z</time>
      </trkpt>
      <trkpt lat="48.482340" lon="16.782888">
        <ele>252.971334</ele>
        <time>2020-08-26T08:43:48.375Z</time>
      </trkpt>
      <trkpt lat="48.482243" lon="16.782875">
        <ele>252.966917</ele>
        <time>2020-08-26T08:43:51.390Z</time>
      </trkpt>
      <trkpt lat="48.482140" lon="16.782862">
        <ele>252.962228</ele>
        <time>2020-08-26T08:43:54.367Z</time>
      </trkpt>
      <trkpt lat="48.482032" lon="16.782845">
        <ele>252.957302</ele>
        <time>2020-08-26T08:43:57.389Z</time>
      </trkpt>
      <trkpt lat="48.481923" lon="16.782820">
        <ele>252.952301</ele>
        <time>2020-08-26T08:44:00.354Z</time>
      </trkpt>
      <trkpt lat="48.481810" lon="16.782807">
        <ele>252.947160</ele>
        <time>2020-08-26T08:44:03.410Z</time>
      </trkpt>
      <trkpt lat="48.481688" lon="16.782786">
        <ele>252.939012</ele>
        <time>2020-08-26T08:44:06.397Z</time>
      </trkpt>
      <trkpt lat="48.481561" lon="16.782767">
        <ele>252.930380</ele>
        <time>2020-08-26T08:44:09.368Z</time>
      </trkpt>
      <trkpt lat="48.481470" lon="16.782758">
        <ele>252.924213</ele>
        <time>2020-08-26T08:44:11.391Z</time>
      </trkpt>
      <trkpt lat="48.481372" lon="16.782750">
        <ele>252.917575</ele>
        <time>2020-08-26T08:44:13.388Z</time>
      </trkpt>
      <trkpt lat="48.481271" lon="16.782741">
        <ele>252.910732</ele>
        <time>2020-08-26T08:44:15.396Z</time>
      </trkpt>
      <trkpt lat="48.481170" lon="16.782733">
        <ele>252.903892</ele>
        <time>2020-08-26T08:44:17.371Z</time>
      </trkpt>
      <trkpt lat="48.481068" lon="16.782721">
        <ele>252.896972</ele>
        <time>2020-08-26T08:44:19.406Z</time>
      </trkpt>
      <trkpt lat="48.480969" lon="16.782714">
        <ele>252.890270</ele>
        <time>2020-08-26T08:44:21.368Z</time>
      </trkpt>
      <trkpt lat="48.480867" lon="16.782711">
        <ele>252.883370</ele>
        <time>2020-08-26T08:44:23.384Z</time>
      </trkpt>
      <trkpt lat="48.480765" lon="16.782699">
        <ele>252.876450</ele>
        <time>2020-08-26T08:44:25.374Z</time>
      </trkpt>
      <trkpt lat="48.480663" lon="16.782687">
        <ele>252.869531</ele>
        <time>2020-08-26T08:44:27.398Z</time>
      </trkpt>
      <trkpt lat="48.480568" lon="16.782685">
        <ele>252.863105</ele>
        <time>2020-08-26T08:44:29.383Z</time>
      </trkpt>
      <trkpt lat="48.480474" lon="16.782700">
        <ele>252.856712</ele>
        <time>2020-08-26T08:44:31.374Z</time>
      </trkpt>
      <trkpt lat="48.480396" lon="16.782770">
        <ele>252.850574</ele>
        <time>2020-08-26T08:44:33.380Z</time>
      </trkpt>
      <trkpt lat="48.480369" lon="16.782966">
        <ele>252.841599</ele>
        <time>2020-08-26T08:44:36.412Z</time>
      </trkpt>
      <trkpt lat="48.480363" lon="16.783168">
        <ele>252.832534</ele>
        <time>2020-08-26T08:44:39.377Z</time>
      </trkpt>
      <trkpt lat="48.480349" lon="16.783365">
        <ele>252.820371</ele>
        <time>2020-08-26T08:44:42.373Z</time>
      </trkpt>
      <trkpt lat="48.480336" lon="16.783504">
        <ele>252.800707</ele>
        <time>2020-08-26T08:44:44.392Z</time>
      </trkpt>
      <trkpt lat="48.480321" lon="16.783638">
        <ele>252.781670</ele>
        <time>2020-08-26T08:44:46.372Z</time>
      </trkpt>
      <trkpt lat="48.480309" lon="16.783779">
        <ele>252.761756</ele>
        <time>2020-08-26T08:44:48.392Z</time>
      </trkpt>
      <trkpt lat="48.480302" lon="16.783921">
        <ele>252.741809</ele>
        <time>2020-08-26T08:44:50.362Z</time>
      </trkpt>
      <trkpt lat="48.480289" lon="16.784071">
        <ele>252.720617</ele>
        <time>2020-08-26T08:44:52.418Z</time>
      </trkpt>
      <trkpt lat="48.480274" lon="16.784228">
        <ele>252.698397</ele>
        <time>2020-08-26T08:44:54.379Z</time>
      </trkpt>
      <trkpt lat="48.480257" lon="16.784386">
        <ele>252.675974</ele>
        <time>2020-08-26T08:44:56.384Z</time>
      </trkpt>
      <trkpt lat="48.480247" lon="16.784551">
        <ele>252.652764</ele>
        <time>2020-08-26T08:44:58.406Z</time>
      </trkpt>
      <trkpt lat="48.480234" lon="16.784722">
        <ele>252.628652</ele>
        <time>2020-08-26T08:45:00.378Z</time>
      </trkpt>
      <trkpt lat="48.480220" lon="16.784900">
        <ele>252.603542</ele>
        <time>2020-08-26T08:45:02.376Z</time>
      </trkpt>
      <trkpt lat="48.480205" lon="16.785085">
        <ele>252.577434</ele>
        <time>2020-08-26T08:45:04.371Z</time>
      </trkpt>
      <trkpt lat="48.480187" lon="16.785265">
        <ele>252.551933</ele>
        <time>2020-08-26T08:45:06.369Z</time>
      </trkpt>
      <trkpt lat="48.480171" lon="16.785446">
        <ele>252.526354</ele>
        <time>2020-08-26T08:45:08.380Z</time>
      </trkpt>
      <trkpt lat="48.480158" lon="16.785626">
        <ele>252.500989</ele>
        <time>2020-08-26T08:45:10.383Z</time>
      </trkpt>
      <trkpt lat="48.480143" lon="16.785904">
        <ele>252.461917</ele>
        <time>2020-08-26T08:45:13.381Z</time>
      </trkpt>
      <trkpt lat="48.480114" lon="16.786087">
        <ele>252.424302</ele>
        <time>2020-08-26T08:45:15.365Z</time>
      </trkpt>
      <trkpt lat="48.480098" lon="16.786271">
        <ele>252.367614</ele>
        <time>2020-08-26T08:45:17.391Z</time>
      </trkpt>
      <trkpt lat="48.480082" lon="16.786456">
        <ele>252.310622</ele>
        <time>2020-08-26T08:45:19.368Z</time>
      </trkpt>
      <trkpt lat="48.480066" lon="16.786646">
        <ele>252.252115</ele>
        <time>2020-08-26T08:45:21.394Z</time>
      </trkpt>
      <trkpt lat="48.480050" lon="16.786842">
        <ele>252.191790</ele>
        <time>2020-08-26T08:45:23.396Z</time>
      </trkpt>
      <trkpt lat="48.480035" lon="16.787039">
        <ele>252.131216</ele>
        <time>2020-08-26T08:45:25.387Z</time>
      </trkpt>
      <trkpt lat="48.480020" lon="16.787231">
        <ele>252.072158</ele>
        <time>2020-08-26T08:45:27.379Z</time>
      </trkpt>
      <trkpt lat="48.480001" lon="16.787428">
        <ele>252.011346</ele>
        <time>2020-08-26T08:45:29.380Z</time>
      </trkpt>
      <trkpt lat="48.479980" lon="16.787636">
        <ele>251.947075</ele>
        <time>2020-08-26T08:45:31.371Z</time>
      </trkpt>
      <trkpt lat="48.479958" lon="16.787837">
        <ele>251.884843</ele>
        <time>2020-08-26T08:45:33.389Z</time>
      </trkpt>
      <trkpt lat="48.479934" lon="16.788044">
        <ele>251.820649</ele>
        <time>2020-08-26T08:45:35.395Z</time>
      </trkpt>
      <trkpt lat="48.479902" lon="16.788253">
        <ele>251.755124</ele>
        <time>2020-08-26T08:45:37.375Z</time>
      </trkpt>
      <trkpt lat="48.479857" lon="16.788454">
        <ele>251.690316</ele>
        <time>2020-08-26T08:45:39.379Z</time>
      </trkpt>
      <trkpt lat="48.479801" lon="16.788644">
        <ele>251.626797</ele>
        <time>2020-08-26T08:45:41.381Z</time>
      </trkpt>
      <trkpt lat="48.479738" lon="16.788830">
        <ele>251.534495</ele>
        <time>2020-08-26T08:45:43.380Z</time>
      </trkpt>
      <trkpt lat="48.479652" lon="16.788991">
        <ele>251.437523</ele>
        <time>2020-08-26T08:45:45.367Z</time>
      </trkpt>
      <trkpt lat="48.479554" lon="16.789135">
        <ele>251.340732</ele>
        <time>2020-08-26T08:45:47.383Z</time>
      </trkpt>
      <trkpt lat="48.479448" lon="16.789266">
        <ele>251.243784</ele>
        <time>2020-08-26T08:45:49.359Z</time>
      </trkpt>
      <trkpt lat="48.479340" lon="16.789397">
        <ele>251.145737</ele>
        <time>2020-08-26T08:45:51.370Z</time>
      </trkpt>
      <trkpt lat="48.479233" lon="16.789533">
        <ele>251.046745</ele>
        <time>2020-08-26T08:45:53.388Z</time>
      </trkpt>
      <trkpt lat="48.479126" lon="16.789671">
        <ele>250.947147</ele>
        <time>2020-08-26T08:45:55.368Z</time>
      </trkpt>
      <trkpt lat="48.479020" lon="16.789808">
        <ele>250.848391</ele>
        <time>2020-08-26T08:45:57.388Z</time>
      </trkpt>
      <trkpt lat="48.478918" lon="16.789950">
        <ele>250.750191</ele>
        <time>2020-08-26T08:45:59.388Z</time>
      </trkpt>
      <trkpt lat="48.478814" lon="16.790085">
        <ele>250.653120</ele>
        <time>2020-08-26T08:46:01.371Z</time>
      </trkpt>
      <trkpt lat="48.478712" lon="16.790217">
        <ele>250.558038</ele>
        <time>2020-08-26T08:46:03.381Z</time>
      </trkpt>
      <trkpt lat="48.478612" lon="16.790346">
        <ele>250.464947</ele>
        <time>2020-08-26T08:46:05.386Z</time>
      </trkpt>
      <trkpt lat="48.478515" lon="16.790477">
        <ele>250.372835</ele>
        <time>2020-08-26T08:46:07.368Z</time>
      </trkpt>
      <trkpt lat="48.478416" lon="16.790603">
        <ele>250.259211</ele>
        <time>2020-08-26T08:46:09.382Z</time>
      </trkpt>
      <trkpt lat="48.478319" lon="16.790730">
        <ele>250.136371</ele>
        <time>2020-08-26T08:46:11.374Z</time>
      </trkpt>
      <trkpt lat="48.478221" lon="16.790854">
        <ele>250.014039</ele>
        <time>2020-08-26T08:46:13.384Z</time>
      </trkpt>
      <trkpt lat="48.478123" lon="16.790980">
        <ele>249.890887</ele>
        <time>2020-08-26T08:46:15.403Z</time>
      </trkpt>
      <trkpt lat="48.478024" lon="16.791104">
        <ele>249.767820</ele>
        <time>2020-08-26T08:46:17.380Z</time>
      </trkpt>
      <trkpt lat="48.477923" lon="16.791231">
        <ele>249.642066</ele>
        <time>2020-08-26T08:46:19.401Z</time>
      </trkpt>
      <trkpt lat="48.477823" lon="16.791357">
        <ele>249.517452</ele>
        <time>2020-08-26T08:46:21.414Z</time>
      </trkpt>
      <trkpt lat="48.477731" lon="16.791485">
        <ele>249.397753</ele>
        <time>2020-08-26T08:46:23.405Z</time>
      </trkpt>
      <trkpt lat="48.477639" lon="16.791605">
        <ele>249.281433</ele>
        <time>2020-08-26T08:46:25.397Z</time>
      </trkpt>
      <trkpt lat="48.477558" lon="16.791704">
        <ele>249.181728</ele>
        <time>2020-08-26T08:46:27.366Z</time>
      </trkpt>
      <trkpt lat="48.477398" lon="16.791934">
        <ele>248.970351</ele>
        <time>2020-08-26T08:47:02.371Z</time>
      </trkpt>
      <trkpt lat="48.477317" lon="16.792079">
        <ele>248.850131</ele>
        <time>2020-08-26T08:47:05.366Z</time>
      </trkpt>
      <trkpt lat="48.477260" lon="16.792197">
        <ele>248.757562</ele>
        <time>2020-08-26T08:47:07.362Z</time>
      </trkpt>
      <trkpt lat="48.477197" lon="16.792323">
        <ele>248.657501</ele>
        <time>2020-08-26T08:47:09.368Z</time>
      </trkpt>
      <trkpt lat="48.477135" lon="16.792456">
        <ele>248.551954</ele>
        <time>2020-08-26T08:47:11.397Z</time>
      </trkpt>
      <trkpt lat="48.477073" lon="16.792606">
        <ele>248.435883</ele>
        <time>2020-08-26T08:47:13.373Z</time>
      </trkpt>
      <trkpt lat="48.477013" lon="16.792763">
        <ele>248.316889</ele>
        <time>2020-08-26T08:47:15.367Z</time>
      </trkpt>
      <trkpt lat="48.476949" lon="16.792924">
        <ele>248.193623</ele>
        <time>2020-08-26T08:47:17.352Z</time>
      </trkpt>
      <trkpt lat="48.476882" lon="16.793091">
        <ele>248.065448</ele>
        <time>2020-08-26T08:47:19.365Z</time>
      </trkpt>
      <trkpt lat="48.476812" lon="16.793257">
        <ele>247.936265</ele>
        <time>2020-08-26T08:47:21.384Z</time>
      </trkpt>
      <trkpt lat="48.476740" lon="16.793426">
        <ele>247.804354</ele>
        <time>2020-08-26T08:47:23.393Z</time>
      </trkpt>
      <trkpt lat="48.476665" lon="16.793604">
        <ele>247.665864</ele>
        <time>2020-08-26T08:47:25.403Z</time>
      </trkpt>
      <trkpt lat="48.476586" lon="16.793778">
        <ele>247.527383</ele>
        <time>2020-08-26T08:47:27.378Z</time>
      </trkpt>
      <trkpt lat="48.476511" lon="16.793956">
        <ele>247.388892</ele>
        <time>2020-08-26T08:47:29.379Z</time>
      </trkpt>
      <trkpt lat="48.476442" lon="16.794137">
        <ele>247.251792</ele>
        <time>2020-08-26T08:47:31.397Z</time>
      </trkpt>
      <trkpt lat="48.476366" lon="16.794310">
        <ele>247.115516</ele>
        <time>2020-08-26T08:47:33.378Z</time>
      </trkpt>
      <trkpt lat="48.476319" lon="16.794502">
        <ele>246.981121</ele>
        <time>2020-08-26T08:47:35.404Z</time>
      </trkpt>
      <trkpt lat="48.476294" lon="16.794717">
        <ele>246.840327</ele>
        <time>2020-08-26T08:47:37.378Z</time>
      </trkpt>
      <trkpt lat="48.476256" lon="16.794937">
        <ele>246.783301</ele>
        <time>2020-08-26T08:47:39.398Z</time>
      </trkpt>
      <trkpt lat="48.476211" lon="16.795159">
        <ele>246.725072</ele>
        <time>2020-08-26T08:47:41.380Z</time>
      </trkpt>
      <trkpt lat="48.476169" lon="16.795396">
        <ele>246.663537</ele>
        <time>2020-08-26T08:47:43.371Z</time>
      </trkpt>
      <trkpt lat="48.476131" lon="16.795644">
        <ele>246.599691</ele>
        <time>2020-08-26T08:47:45.387Z</time>
      </trkpt>
      <trkpt lat="48.476096" lon="16.795901">
        <ele>246.533881</ele>
        <time>2020-08-26T08:47:47.375Z</time>
      </trkpt>
      <trkpt lat="48.476058" lon="16.796165">
        <ele>246.466118</ele>
        <time>2020-08-26T08:47:49.393Z</time>
      </trkpt>
      <trkpt lat="48.476036" lon="16.796300">
        <ele>246.431247</ele>
        <time>2020-08-26T08:47:50.389Z</time>
      </trkpt>
      <trkpt lat="48.476012" lon="16.796434">
        <ele>246.396431</ele>
        <time>2020-08-26T08:47:51.375Z</time>
      </trkpt>
      <trkpt lat="48.475990" lon="16.796571">
        <ele>246.361073</ele>
        <time>2020-08-26T08:47:52.358Z</time>
      </trkpt>
      <trkpt lat="48.475961" lon="16.796708">
        <ele>246.324999</ele>
        <time>2020-08-26T08:47:53.370Z</time>
      </trkpt>
      <trkpt lat="48.475921" lon="16.796840">
        <ele>246.288594</ele>
        <time>2020-08-26T08:47:54.375Z</time>
      </trkpt>
      <trkpt lat="48.475876" lon="16.796964">
        <ele>246.253136</ele>
        <time>2020-08-26T08:47:55.364Z</time>
      </trkpt>
      <trkpt lat="48.475761" lon="16.797148">
        <ele>246.189705</ele>
        <time>2020-08-26T08:47:57.370Z</time>
      </trkpt>
      <trkpt lat="48.475641" lon="16.797313">
        <ele>246.088714</ele>
        <time>2020-08-26T08:47:59.387Z</time>
      </trkpt>
      <trkpt lat="48.475510" lon="16.797427">
        <ele>245.963064</ele>
        <time>2020-08-26T08:48:01.370Z</time>
      </trkpt>
      <trkpt lat="48.475378" lon="16.797428">
        <ele>245.853394</ele>
        <time>2020-08-26T08:48:03.368Z</time>
      </trkpt>
      <trkpt lat="48.475252" lon="16.797374">
        <ele>245.744568</ele>
        <time>2020-08-26T08:48:05.385Z</time>
      </trkpt>
      <trkpt lat="48.475141" lon="16.797299">
        <ele>245.643518</ele>
        <time>2020-08-26T08:48:07.384Z</time>
      </trkpt>
      <trkpt lat="48.475035" lon="16.797241">
        <ele>245.549836</ele>
        <time>2020-08-26T08:48:09.398Z</time>
      </trkpt>
      <trkpt lat="48.474938" lon="16.797187">
        <ele>245.463934</ele>
        <time>2020-08-26T08:48:11.372Z</time>
      </trkpt>
      <trkpt lat="48.474850" lon="16.797140">
        <ele>245.386374</ele>
        <time>2020-08-26T08:48:13.371Z</time>
      </trkpt>
      <trkpt lat="48.474736" lon="16.797072">
        <ele>245.284524</ele>
        <time>2020-08-26T08:48:16.377Z</time>
      </trkpt>
      <trkpt lat="48.474636" lon="16.797006">
        <ele>245.193837</ele>
        <time>2020-08-26T08:48:19.387Z</time>
      </trkpt>
      <trkpt lat="48.474550" lon="16.796948">
        <ele>245.115570</ele>
        <time>2020-08-26T08:48:22.406Z</time>
      </trkpt>
      <trkpt lat="48.474463" lon="16.796892">
        <ele>245.036983</ele>
        <time>2020-08-26T08:48:25.399Z</time>
      </trkpt>
      <trkpt lat="48.474354" lon="16.796839">
        <ele>244.941835</ele>
        <time>2020-08-26T08:48:29.368Z</time>
      </trkpt>
      <trkpt lat="48.474241" lon="16.796797">
        <ele>244.845145</ele>
        <time>2020-08-26T08:48:33.370Z</time>
      </trkpt>
      <trkpt lat="48.474129" lon="16.796772">
        <ele>244.751080</ele>
        <time>2020-08-26T08:48:37.383Z</time>
      </trkpt>
      <trkpt lat="48.474016" lon="16.796732">
        <ele>244.638012</ele>
        <time>2020-08-26T08:48:41.369Z</time>
      </trkpt>
      <trkpt lat="48.473917" lon="16.796694">
        <ele>244.438856</ele>
        <time>2020-08-26T08:48:45.404Z</time>
      </trkpt>
      <trkpt lat="48.473820" lon="16.796681">
        <ele>244.249006</ele>
        <time>2020-08-26T08:48:49.378Z</time>
      </trkpt>
      <trkpt lat="48.473724" lon="16.796712">
        <ele>244.057609</ele>
        <time>2020-08-26T08:48:53.383Z</time>
      </trkpt>
      <trkpt lat="48.473621" lon="16.796744">
        <ele>243.852591</ele>
        <time>2020-08-26T08:48:57.364Z</time>
      </trkpt>
      <trkpt lat="48.473508" lon="16.796757">
        <ele>243.631652</ele>
        <time>2020-08-26T08:49:01.373Z</time>
      </trkpt>
      <trkpt lat="48.473410" lon="16.796756">
        <ele>243.440593</ele>
        <time>2020-08-26T08:49:04.395Z</time>
      </trkpt>
      <trkpt lat="48.473316" lon="16.796737">
        <ele>243.255698</ele>
        <time>2020-08-26T08:49:07.363Z</time>
      </trkpt>
      <trkpt lat="48.473198" lon="16.796692">
        <ele>243.018413</ele>
        <time>2020-08-26T08:49:11.384Z</time>
      </trkpt>
      <trkpt lat="48.473074" lon="16.796665">
        <ele>242.774164</ele>
        <time>2020-08-26T08:49:14.405Z</time>
      </trkpt>
      <trkpt lat="48.472970" lon="16.796643">
        <ele>242.569427</ele>
        <time>2020-08-26T08:49:16.374Z</time>
      </trkpt>
      <trkpt lat="48.472858" lon="16.796601">
        <ele>242.344431</ele>
        <time>2020-08-26T08:49:18.387Z</time>
      </trkpt>
      <trkpt lat="48.472739" lon="16.796554">
        <ele>242.104614</ele>
        <time>2020-08-26T08:49:20.377Z</time>
      </trkpt>
      <trkpt lat="48.472604" lon="16.796560">
        <ele>241.841312</ele>
        <time>2020-08-26T08:49:22.369Z</time>
      </trkpt>
      <trkpt lat="48.472493" lon="16.796578">
        <ele>241.623666</ele>
        <time>2020-08-26T08:49:24.363Z</time>
      </trkpt>
      <trkpt lat="48.472408" lon="16.796628">
        <ele>241.445799</ele>
        <time>2020-08-26T08:49:26.372Z</time>
      </trkpt>
      <trkpt lat="48.472271" lon="16.796620">
        <ele>241.178511</ele>
        <time>2020-08-26T08:49:29.371Z</time>
      </trkpt>
      <trkpt lat="48.472190" lon="16.796683">
        <ele>240.534813</ele>
        <time>2020-08-26T08:49:31.361Z</time>
      </trkpt>
      <trkpt lat="48.472110" lon="16.796773">
        <ele>239.772214</ele>
        <time>2020-08-26T08:49:33.365Z</time>
      </trkpt>
      <trkpt lat="48.472032" lon="16.796853">
        <ele>239.051467</ele>
        <time>2020-08-26T08:49:35.361Z</time>
      </trkpt>
      <trkpt lat="48.471962" lon="16.796938">
        <ele>238.364793</ele>
        <time>2020-08-26T08:49:37.384Z</time>
      </trkpt>
      <trkpt lat="48.471864" lon="16.797054">
        <ele>237.412907</ele>
        <time>2020-08-26T08:49:40.371Z</time>
      </trkpt>
      <trkpt lat="48.471775" lon="16.797148">
        <ele>236.582694</ele>
        <time>2020-08-26T08:49:43.353Z</time>
      </trkpt>
      <trkpt lat="48.471675" lon="16.797254">
        <ele>235.648758</ele>
        <time>2020-08-26T08:49:46.382Z</time>
      </trkpt>
      <trkpt lat="48.471577" lon="16.797364">
        <ele>234.715328</ele>
        <time>2020-08-26T08:49:49.372Z</time>
      </trkpt>
      <trkpt lat="48.471493" lon="16.797507">
        <ele>233.747447</ele>
        <time>2020-08-26T08:49:52.376Z</time>
      </trkpt>
      <trkpt lat="48.471431" lon="16.797607">
        <ele>233.053843</ele>
        <time>2020-08-26T08:49:54.401Z</time>
      </trkpt>
      <trkpt lat="48.471336" lon="16.797747">
        <ele>232.038967</ele>
        <time>2020-08-26T08:49:57.373Z</time>
      </trkpt>
      <trkpt lat="48.471261" lon="16.797839">
        <ele>231.300283</ele>
        <time>2020-08-26T08:49:59.372Z</time>
      </trkpt>
      <trkpt lat="48.471206" lon="16.797944">
        <ele>230.622362</ele>
        <time>2020-08-26T08:50:12.211Z</time>
      </trkpt>
      <trkpt lat="48.471165" lon="16.798079">
        <ele>229.870104</ele>
        <time>2020-08-26T08:53:23.363Z</time>
      </trkpt>
      <trkpt lat="48.471109" lon="16.798218">
        <ele>229.046105</ele>
        <time>2020-08-26T08:53:29.337Z</time>
      </trkpt>
      <trkpt lat="48.471020" lon="16.798325">
        <ele>228.176436</ele>
        <time>2020-08-26T08:53:32.372Z</time>
      </trkpt>
      <trkpt lat="48.470919" lon="16.798402">
        <ele>227.338681</ele>
        <time>2020-08-26T08:53:34.360Z</time>
      </trkpt>
      <trkpt lat="48.470825" lon="16.798493">
        <ele>226.704398</ele>
        <time>2020-08-26T08:53:36.353Z</time>
      </trkpt>
      <trkpt lat="48.470710" lon="16.798552">
        <ele>226.014609</ele>
        <time>2020-08-26T08:53:38.367Z</time>
      </trkpt>
      <trkpt lat="48.470589" lon="16.798611">
        <ele>225.292479</ele>
        <time>2020-08-26T08:53:40.383Z</time>
      </trkpt>
      <trkpt lat="48.470498" lon="16.798683">
        <ele>224.708938</ele>
        <time>2020-08-26T08:53:42.362Z</time>
      </trkpt>
      <trkpt lat="48.470423" lon="16.798789">
        <ele>224.125277</ele>
        <time>2020-08-26T08:53:44.347Z</time>
      </trkpt>
      <trkpt lat="48.470357" lon="16.798911">
        <ele>223.532446</ele>
        <time>2020-08-26T08:53:46.364Z</time>
      </trkpt>
      <trkpt lat="48.470284" lon="16.799043">
        <ele>222.885274</ele>
        <time>2020-08-26T08:53:48.374Z</time>
      </trkpt>
      <trkpt lat="48.470178" lon="16.799163">
        <ele>222.132646</ele>
        <time>2020-08-26T08:53:50.378Z</time>
      </trkpt>
      <trkpt lat="48.470072" lon="16.799234">
        <ele>221.474023</ele>
        <time>2020-08-26T08:53:52.373Z</time>
      </trkpt>
      <trkpt lat="48.469969" lon="16.799221">
        <ele>220.887078</ele>
        <time>2020-08-26T08:53:55.377Z</time>
      </trkpt>
      <trkpt lat="48.469875" lon="16.799186">
        <ele>220.337261</ele>
        <time>2020-08-26T08:53:57.382Z</time>
      </trkpt>
      <trkpt lat="48.469742" lon="16.799143">
        <ele>219.564845</ele>
        <time>2020-08-26T08:53:59.373Z</time>
      </trkpt>
      <trkpt lat="48.469580" lon="16.799108">
        <ele>218.635514</ele>
        <time>2020-08-26T08:54:01.372Z</time>
      </trkpt>
      <trkpt lat="48.469489" lon="16.799106">
        <ele>218.118703</ele>
        <time>2020-08-26T08:54:02.386Z</time>
      </trkpt>
      <trkpt lat="48.469391" lon="16.799097">
        <ele>217.561166</ele>
        <time>2020-08-26T08:54:03.372Z</time>
      </trkpt>
      <trkpt lat="48.469291" lon="16.799078">
        <ele>217.121926</ele>
        <time>2020-08-26T08:54:04.381Z</time>
      </trkpt>
      <trkpt lat="48.469184" lon="16.799059">
        <ele>216.890490</ele>
        <time>2020-08-26T08:54:05.385Z</time>
      </trkpt>
      <trkpt lat="48.469083" lon="16.799038">
        <ele>216.671478</ele>
        <time>2020-08-26T08:54:06.376Z</time>
      </trkpt>
      <trkpt lat="48.468987" lon="16.799015">
        <ele>216.462673</ele>
        <time>2020-08-26T08:54:07.387Z</time>
      </trkpt>
      <trkpt lat="48.468898" lon="16.798982">
        <ele>216.265798</ele>
        <time>2020-08-26T08:54:08.373Z</time>
      </trkpt>
      <trkpt lat="48.468735" lon="16.798946">
        <ele>215.911921</ele>
        <time>2020-08-26T08:54:10.380Z</time>
      </trkpt>
      <trkpt lat="48.468619" lon="16.798876">
        <ele>215.643535</ele>
        <time>2020-08-26T08:54:12.387Z</time>
      </trkpt>
      <trkpt lat="48.468512" lon="16.798789">
        <ele>215.382413</ele>
        <time>2020-08-26T08:54:14.373Z</time>
      </trkpt>
      <trkpt lat="48.468427" lon="16.798718">
        <ele>215.173691</ele>
        <time>2020-08-26T08:54:16.395Z</time>
      </trkpt>
      <trkpt lat="48.468468" lon="16.798551">
        <ele>214.920055</ele>
        <time>2020-08-26T08:54:19.378Z</time>
      </trkpt>
      <trkpt lat="48.468534" lon="16.798423">
        <ele>214.689110</ele>
        <time>2020-08-26T08:54:21.400Z</time>
      </trkpt>
      <trkpt lat="48.468607" lon="16.798292">
        <ele>214.445384</ele>
        <time>2020-08-26T08:54:23.367Z</time>
      </trkpt>
      <trkpt lat="48.468683" lon="16.798172">
        <ele>214.209030</ele>
        <time>2020-08-26T08:54:25.380Z</time>
      </trkpt>
      <trkpt lat="48.468756" lon="16.798043">
        <ele>213.967479</ele>
        <time>2020-08-26T08:54:27.369Z</time>
      </trkpt>
      <trkpt lat="48.468827" lon="16.797911">
        <ele>213.725391</ele>
        <time>2020-08-26T08:54:29.373Z</time>
      </trkpt>
      <trkpt lat="48.468893" lon="16.797765">
        <ele>213.473717</ele>
        <time>2020-08-26T08:54:31.377Z</time>
      </trkpt>
      <trkpt lat="48.468953" lon="16.797616">
        <ele>213.207184</ele>
        <time>2020-08-26T08:54:33.392Z</time>
      </trkpt>
      <trkpt lat="48.469013" lon="16.797482">
        <ele>212.939965</ele>
        <time>2020-08-26T08:54:35.365Z</time>
      </trkpt>
      <trkpt lat="48.469069" lon="16.797338">
        <ele>212.664074</ele>
        <time>2020-08-26T08:54:37.390Z</time>
      </trkpt>
      <trkpt lat="48.469123" lon="16.797187">
        <ele>212.380546</ele>
        <time>2020-08-26T08:54:39.382Z</time>
      </trkpt>
      <trkpt lat="48.469173" lon="16.797021">
        <ele>212.079231</ele>
        <time>2020-08-26T08:54:41.389Z</time>
      </trkpt>
      <trkpt lat="48.469224" lon="16.796870">
        <ele>211.799175</ele>
        <time>2020-08-26T08:54:43.376Z</time>
      </trkpt>
      <trkpt lat="48.469269" lon="16.796731">
        <ele>211.543542</ele>
        <time>2020-08-26T08:54:45.367Z</time>
      </trkpt>
      <trkpt lat="48.469315" lon="16.796601">
        <ele>211.300023</ele>
        <time>2020-08-26T08:54:47.369Z</time>
      </trkpt>
      <trkpt lat="48.469354" lon="16.796471">
        <ele>211.064215</ele>
        <time>2020-08-26T08:54:49.373Z</time>
      </trkpt>
      <trkpt lat="48.469353" lon="16.796296">
        <ele>210.774999</ele>
        <time>2020-08-26T08:54:52.367Z</time>
      </trkpt>
      <trkpt lat="48.469267" lon="16.796239">
        <ele>210.540857</ele>
        <time>2020-08-26T08:54:54.369Z</time>
      </trkpt>
      <trkpt lat="48.469157" lon="16.796242">
        <ele>210.266634</ele>
        <time>2020-08-26T08:54:56.368Z</time>
      </trkpt>
      <trkpt lat="48.469047" lon="16.796251">
        <ele>209.992052</ele>
        <time>2020-08-26T08:54:58.369Z</time>
      </trkpt>
      <trkpt lat="48.468937" lon="16.796256">
        <ele>209.717748</ele>
        <time>2020-08-26T08:55:00.369Z</time>
      </trkpt>
      <trkpt lat="48.468821" lon="16.796253">
        <ele>209.428572</ele>
        <time>2020-08-26T08:55:02.398Z</time>
      </trkpt>
      <trkpt lat="48.468712" lon="16.796251">
        <ele>209.156866</ele>
        <time>2020-08-26T08:55:04.382Z</time>
      </trkpt>
      <trkpt lat="48.468604" lon="16.796231">
        <ele>208.885650</ele>
        <time>2020-08-26T08:55:06.400Z</time>
      </trkpt>
      <trkpt lat="48.468499" lon="16.796226">
        <ele>208.838607</ele>
        <time>2020-08-26T08:55:08.369Z</time>
      </trkpt>
      <trkpt lat="48.468393" lon="16.796222">
        <ele>208.818765</ele>
        <time>2020-08-26T08:55:10.365Z</time>
      </trkpt>
      <trkpt lat="48.468285" lon="16.796221">
        <ele>208.798556</ele>
        <time>2020-08-26T08:55:12.381Z</time>
      </trkpt>
      <trkpt lat="48.468184" lon="16.796221">
        <ele>208.779656</ele>
        <time>2020-08-26T08:55:14.385Z</time>
      </trkpt>
      <trkpt lat="48.468061" lon="16.796214">
        <ele>208.756624</ele>
        <time>2020-08-26T08:55:17.369Z</time>
      </trkpt>
      <trkpt lat="48.467934" lon="16.796235">
        <ele>208.732717</ele>
        <time>2020-08-26T08:55:20.373Z</time>
      </trkpt>
      <trkpt lat="48.467840" lon="16.796249">
        <ele>208.715042</ele>
        <time>2020-08-26T08:55:22.377Z</time>
      </trkpt>
      <trkpt lat="48.467746" lon="16.796270">
        <ele>208.697261</ele>
        <time>2020-08-26T08:55:24.419Z</time>
      </trkpt>
      <trkpt lat="48.467649" lon="16.796309">
        <ele>208.678476</ele>
        <time>2020-08-26T08:55:26.372Z</time>
      </trkpt>
      <trkpt lat="48.467552" lon="16.796353">
        <ele>208.659522</ele>
        <time>2020-08-26T08:55:28.378Z</time>
      </trkpt>
      <trkpt lat="48.467452" lon="16.796391">
        <ele>208.640225</ele>
        <time>2020-08-26T08:55:30.372Z</time>
      </trkpt>
      <trkpt lat="48.467352" lon="16.796431">
        <ele>208.620866</ele>
        <time>2020-08-26T08:55:32.398Z</time>
      </trkpt>
      <trkpt lat="48.467256" lon="16.796470">
        <ele>208.602262</ele>
        <time>2020-08-26T08:55:34.379Z</time>
      </trkpt>
      <trkpt lat="48.467162" lon="16.796499">
        <ele>208.584308</ele>
        <time>2020-08-26T08:55:36.364Z</time>
      </trkpt>
      <trkpt lat="48.467032" lon="16.796498">
        <ele>208.559982</ele>
        <time>2020-08-26T08:55:39.379Z</time>
      </trkpt>
      <trkpt lat="48.466939" lon="16.796487">
        <ele>208.542526</ele>
        <time>2020-08-26T08:55:41.367Z</time>
      </trkpt>
      <trkpt lat="48.466839" lon="16.796482">
        <ele>208.523803</ele>
        <time>2020-08-26T08:55:43.376Z</time>
      </trkpt>
      <trkpt lat="48.466739" lon="16.796474">
        <ele>208.504046</ele>
        <time>2020-08-26T08:55:45.373Z</time>
      </trkpt>
      <trkpt lat="48.466634" lon="16.796447">
        <ele>208.482706</ele>
        <time>2020-08-26T08:55:47.388Z</time>
      </trkpt>
      <trkpt lat="48.466529" lon="16.796422">
        <ele>208.461408</ele>
        <time>2020-08-26T08:55:49.376Z</time>
      </trkpt>
      <trkpt lat="48.466426" lon="16.796454">
        <ele>208.440339</ele>
        <time>2020-08-26T08:55:51.418Z</time>
      </trkpt>
      <trkpt lat="48.466329" lon="16.796533">
        <ele>208.418252</ele>
        <time>2020-08-26T08:55:53.392Z</time>
      </trkpt>
      <trkpt lat="48.466242" lon="16.796630">
        <ele>208.396576</ele>
        <time>2020-08-26T08:55:55.363Z</time>
      </trkpt>
      <trkpt lat="48.466161" lon="16.796729">
        <ele>208.375687</ele>
        <time>2020-08-26T08:55:57.370Z</time>
      </trkpt>
      <trkpt lat="48.466081" lon="16.796823">
        <ele>208.355369</ele>
        <time>2020-08-26T08:55:59.367Z</time>
      </trkpt>
      <trkpt lat="48.465996" lon="16.796917">
        <ele>208.334251</ele>
        <time>2020-08-26T08:56:01.366Z</time>
      </trkpt>
      <trkpt lat="48.465904" lon="16.796999">
        <ele>208.312840</ele>
        <time>2020-08-26T08:56:03.384Z</time>
      </trkpt>
      <trkpt lat="48.465807" lon="16.797068">
        <ele>208.291353</ele>
        <time>2020-08-26T08:56:05.364Z</time>
      </trkpt>
      <trkpt lat="48.465716" lon="16.797139">
        <ele>208.270826</ele>
        <time>2020-08-26T08:56:07.373Z</time>
      </trkpt>
      <trkpt lat="48.465626" lon="16.797187">
        <ele>208.251700</ele>
        <time>2020-08-26T08:56:09.374Z</time>
      </trkpt>
      <trkpt lat="48.465540" lon="16.797231">
        <ele>208.233505</ele>
        <time>2020-08-26T08:56:11.408Z</time>
      </trkpt>
      <trkpt lat="48.465421" lon="16.797310">
        <ele>208.207456</ele>
        <time>2020-08-26T08:56:14.388Z</time>
      </trkpt>
      <trkpt lat="48.465344" lon="16.797454">
        <ele>208.182880</ele>
        <time>2020-08-26T08:56:17.356Z</time>
      </trkpt>
      <trkpt lat="48.465332" lon="16.797597">
        <ele>208.163732</ele>
        <time>2020-08-26T08:56:19.382Z</time>
      </trkpt>
      <trkpt lat="48.465325" lon="16.797771">
        <ele>208.099817</ele>
        <time>2020-08-26T08:56:21.366Z</time>
      </trkpt>
      <trkpt lat="48.465321" lon="16.797966">
        <ele>208.016928</ele>
        <time>2020-08-26T08:56:23.368Z</time>
      </trkpt>
      <trkpt lat="48.465317" lon="16.798165">
        <ele>207.932340</ele>
        <time>2020-08-26T08:56:25.386Z</time>
      </trkpt>
      <trkpt lat="48.465313" lon="16.798367">
        <ele>207.846478</ele>
        <time>2020-08-26T08:56:27.413Z</time>
      </trkpt>
      <trkpt lat="48.465313" lon="16.798565">
        <ele>207.762354</ele>
        <time>2020-08-26T08:56:29.397Z</time>
      </trkpt>
      <trkpt lat="48.465308" lon="16.798758">
        <ele>207.680292</ele>
        <time>2020-08-26T08:56:31.369Z</time>
      </trkpt>
      <trkpt lat="48.465304" lon="16.798951">
        <ele>207.598252</ele>
        <time>2020-08-26T08:56:33.364Z</time>
      </trkpt>
      <trkpt lat="48.465299" lon="16.799142">
        <ele>207.517039</ele>
        <time>2020-08-26T08:56:35.367Z</time>
      </trkpt>
      <trkpt lat="48.465296" lon="16.799329">
        <ele>207.437565</ele>
        <time>2020-08-26T08:56:37.403Z</time>
      </trkpt>
      <trkpt lat="48.465288" lon="16.799507">
        <ele>207.361764</ele>
        <time>2020-08-26T08:56:39.381Z</time>
      </trkpt>
      <trkpt lat="48.465283" lon="16.799683">
        <ele>207.286919</ele>
        <time>2020-08-26T08:56:41.385Z</time>
      </trkpt>
      <trkpt lat="48.465281" lon="16.799856">
        <ele>207.213405</ele>
        <time>2020-08-26T08:56:43.360Z</time>
      </trkpt>
      <trkpt lat="48.465274" lon="16.800031">
        <ele>207.138918</ele>
        <time>2020-08-26T08:56:45.377Z</time>
      </trkpt>
      <trkpt lat="48.465255" lon="16.800202">
        <ele>207.065252</ele>
        <time>2020-08-26T08:56:47.375Z</time>
      </trkpt>
      <trkpt lat="48.465236" lon="16.800366">
        <ele>206.988612</ele>
        <time>2020-08-26T08:56:49.364Z</time>
      </trkpt>
      <trkpt lat="48.465216" lon="16.800522">
        <ele>206.888165</ele>
        <time>2020-08-26T08:56:51.395Z</time>
      </trkpt>
      <trkpt lat="48.465195" lon="16.800669">
        <ele>206.793101</ele>
        <time>2020-08-26T08:56:53.383Z</time>
      </trkpt>
      <trkpt lat="48.465174" lon="16.800809">
        <ele>206.702358</ele>
        <time>2020-08-26T08:56:55.375Z</time>
      </trkpt>
      <trkpt lat="48.465152" lon="16.800951">
        <ele>206.610170</ele>
        <time>2020-08-26T08:56:57.360Z</time>
      </trkpt>
      <trkpt lat="48.465133" lon="16.801098">
        <ele>206.515489</ele>
        <time>2020-08-26T08:56:59.377Z</time>
      </trkpt>
      <trkpt lat="48.465115" lon="16.801248">
        <ele>206.419121</ele>
        <time>2020-08-26T08:57:01.378Z</time>
      </trkpt>
      <trkpt lat="48.465100" lon="16.801403">
        <ele>206.320093</ele>
        <time>2020-08-26T08:57:03.387Z</time>
      </trkpt>
      <trkpt lat="48.465083" lon="16.801563">
        <ele>206.217653</ele>
        <time>2020-08-26T08:57:05.404Z</time>
      </trkpt>
      <trkpt lat="48.465059" lon="16.801735">
        <ele>206.106535</ele>
        <time>2020-08-26T08:57:07.375Z</time>
      </trkpt>
      <trkpt lat="48.465033" lon="16.801914">
        <ele>205.990690</ele>
        <time>2020-08-26T08:57:09.372Z</time>
      </trkpt>
      <trkpt lat="48.465002" lon="16.802097">
        <ele>205.871284</ele>
        <time>2020-08-26T08:57:11.392Z</time>
      </trkpt>
      <trkpt lat="48.464969" lon="16.802278">
        <ele>205.752611</ele>
        <time>2020-08-26T08:57:13.367Z</time>
      </trkpt>
      <trkpt lat="48.464938" lon="16.802462">
        <ele>205.632592</ele>
        <time>2020-08-26T08:57:15.400Z</time>
      </trkpt>
      <trkpt lat="48.464908" lon="16.802643">
        <ele>205.514645</ele>
        <time>2020-08-26T08:57:17.374Z</time>
      </trkpt>
      <trkpt lat="48.464878" lon="16.802821">
        <ele>205.398536</ele>
        <time>2020-08-26T08:57:19.381Z</time>
      </trkpt>
      <trkpt lat="48.464851" lon="16.803000">
        <ele>205.290162</ele>
        <time>2020-08-26T08:57:21.410Z</time>
      </trkpt>
      <trkpt lat="48.464825" lon="16.803183">
        <ele>205.269748</ele>
        <time>2020-08-26T08:57:23.388Z</time>
      </trkpt>
      <trkpt lat="48.464796" lon="16.803367">
        <ele>205.249118</ele>
        <time>2020-08-26T08:57:25.409Z</time>
      </trkpt>
      <trkpt lat="48.464769" lon="16.803547">
        <ele>205.228987</ele>
        <time>2020-08-26T08:57:27.518Z</time>
      </trkpt>
      <trkpt lat="48.464729" lon="16.803703">
        <ele>205.210743</ele>
        <time>2020-08-26T08:57:29.396Z</time>
      </trkpt>
      <trkpt lat="48.464675" lon="16.803835">
        <ele>205.193825</ele>
        <time>2020-08-26T08:57:31.390Z</time>
      </trkpt>
      <trkpt lat="48.464620" lon="16.803963">
        <ele>205.177187</ele>
        <time>2020-08-26T08:57:33.385Z</time>
      </trkpt>
      <trkpt lat="48.464571" lon="16.804096">
        <ele>205.160591</ele>
        <time>2020-08-26T08:57:35.427Z</time>
      </trkpt>
      <trkpt lat="48.464525" lon="16.804245">
        <ele>205.142662</ele>
        <time>2020-08-26T08:57:37.363Z</time>
      </trkpt>
      <trkpt lat="48.464493" lon="16.804399">
        <ele>205.125059</ele>
        <time>2020-08-26T08:57:39.401Z</time>
      </trkpt>
      <trkpt lat="48.464469" lon="16.804554">
        <ele>205.107696</ele>
        <time>2020-08-26T08:57:41.364Z</time>
      </trkpt>
      <trkpt lat="48.464436" lon="16.804712">
        <ele>205.089627</ele>
        <time>2020-08-26T08:57:43.373Z</time>
      </trkpt>
      <trkpt lat="48.464403" lon="16.804856">
        <ele>205.073008</ele>
        <time>2020-08-26T08:57:45.373Z</time>
      </trkpt>
      <trkpt lat="48.464362" lon="16.804994">
        <ele>205.056513</ele>
        <time>2020-08-26T08:57:47.355Z</time>
      </trkpt>
      <trkpt lat="48.464318" lon="16.805115">
        <ele>205.041459</ele>
        <time>2020-08-26T08:57:49.409Z</time>
      </trkpt>
      <trkpt lat="48.464270" lon="16.805235">
        <ele>205.026173</ele>
        <time>2020-08-26T08:57:51.368Z</time>
      </trkpt>
      <trkpt lat="48.464187" lon="16.805378">
        <ele>205.005442</ele>
        <time>2020-08-26T08:57:54.378Z</time>
      </trkpt>
      <trkpt lat="48.464120" lon="16.805547">
        <ele>205.019122</ele>
        <time>2020-08-26T08:57:57.407Z</time>
      </trkpt>
      <trkpt lat="48.464076" lon="16.805670">
        <ele>205.048860</ele>
        <time>2020-08-26T08:57:59.372Z</time>
      </trkpt>
      <trkpt lat="48.464036" lon="16.805799">
        <ele>205.079163</ele>
        <time>2020-08-26T08:58:01.402Z</time>
      </trkpt>
      <trkpt lat="48.464005" lon="16.805937">
        <ele>205.110167</ele>
        <time>2020-08-26T08:58:03.418Z</time>
      </trkpt>
      <trkpt lat="48.463977" lon="16.806071">
        <ele>205.140062</ele>
        <time>2020-08-26T08:58:05.414Z</time>
      </trkpt>
      <trkpt lat="48.463959" lon="16.806216">
        <ele>205.171453</ele>
        <time>2020-08-26T08:58:07.387Z</time>
      </trkpt>
      <trkpt lat="48.463937" lon="16.806360">
        <ele>205.202897</ele>
        <time>2020-08-26T08:58:09.373Z</time>
      </trkpt>
      <trkpt lat="48.463917" lon="16.806505">
        <ele>205.234411</ele>
        <time>2020-08-26T08:58:11.379Z</time>
      </trkpt>
      <trkpt lat="48.463892" lon="16.806664">
        <ele>205.269183</ele>
        <time>2020-08-26T08:58:13.389Z</time>
      </trkpt>
      <trkpt lat="48.463876" lon="16.806832">
        <ele>205.305298</ele>
        <time>2020-08-26T08:58:15.416Z</time>
      </trkpt>
      <trkpt lat="48.463848" lon="16.807000">
        <ele>205.342158</ele>
        <time>2020-08-26T08:58:17.376Z</time>
      </trkpt>
      <trkpt lat="48.463815" lon="16.807185">
        <ele>205.382924</ele>
        <time>2020-08-26T08:58:19.391Z</time>
      </trkpt>
      <trkpt lat="48.463784" lon="16.807371">
        <ele>205.423733</ele>
        <time>2020-08-26T08:58:21.378Z</time>
      </trkpt>
      <trkpt lat="48.463755" lon="16.807561">
        <ele>205.465220</ele>
        <time>2020-08-26T08:58:23.402Z</time>
      </trkpt>
      <trkpt lat="48.463728" lon="16.807749">
        <ele>205.506152</ele>
        <time>2020-08-26T08:58:25.370Z</time>
      </trkpt>
      <trkpt lat="48.463714" lon="16.807936">
        <ele>205.546196</ele>
        <time>2020-08-26T08:58:27.396Z</time>
      </trkpt>
      <trkpt lat="48.463694" lon="16.808127">
        <ele>205.597070</ele>
        <time>2020-08-26T08:58:29.369Z</time>
      </trkpt>
      <trkpt lat="48.463666" lon="16.808319">
        <ele>205.667406</ele>
        <time>2020-08-26T08:58:31.364Z</time>
      </trkpt>
      <trkpt lat="48.463637" lon="16.808505">
        <ele>205.735769</ele>
        <time>2020-08-26T08:58:33.391Z</time>
      </trkpt>
      <trkpt lat="48.463614" lon="16.808694">
        <ele>205.804520</ele>
        <time>2020-08-26T08:58:35.377Z</time>
      </trkpt>
      <trkpt lat="48.463591" lon="16.808876">
        <ele>205.870809</ele>
        <time>2020-08-26T08:58:37.371Z</time>
      </trkpt>
      <trkpt lat="48.463567" lon="16.809057">
        <ele>205.936851</ele>
        <time>2020-08-26T08:58:39.374Z</time>
      </trkpt>
      <trkpt lat="48.463548" lon="16.809235">
        <ele>206.001357</ele>
        <time>2020-08-26T08:58:41.372Z</time>
      </trkpt>
      <trkpt lat="48.463532" lon="16.809418">
        <ele>206.067399</ele>
        <time>2020-08-26T08:58:43.372Z</time>
      </trkpt>
      <trkpt lat="48.463519" lon="16.809596">
        <ele>206.131470</ele>
        <time>2020-08-26T08:58:45.381Z</time>
      </trkpt>
      <trkpt lat="48.463511" lon="16.809777">
        <ele>206.196373</ele>
        <time>2020-08-26T08:58:47.363Z</time>
      </trkpt>
      <trkpt lat="48.463512" lon="16.809958">
        <ele>206.261135</ele>
        <time>2020-08-26T08:58:49.376Z</time>
      </trkpt>
      <trkpt lat="48.463509" lon="16.810139">
        <ele>206.325915</ele>
        <time>2020-08-26T08:58:51.374Z</time>
      </trkpt>
      <trkpt lat="48.463509" lon="16.810322">
        <ele>206.391390</ele>
        <time>2020-08-26T08:58:53.388Z</time>
      </trkpt>
      <trkpt lat="48.463513" lon="16.810511">
        <ele>206.459046</ele>
        <time>2020-08-26T08:58:55.376Z</time>
      </trkpt>
      <trkpt lat="48.463518" lon="16.810704">
        <ele>206.528151</ele>
        <time>2020-08-26T08:58:57.390Z</time>
      </trkpt>
      <trkpt lat="48.463527" lon="16.810893">
        <ele>206.499551</ele>
        <time>2020-08-26T08:58:59.401Z</time>
      </trkpt>
      <trkpt lat="48.463533" lon="16.811077">
        <ele>206.444175</ele>
        <time>2020-08-26T08:59:01.376Z</time>
      </trkpt>
      <trkpt lat="48.463540" lon="16.811262">
        <ele>206.388475</ele>
        <time>2020-08-26T08:59:03.363Z</time>
      </trkpt>
      <trkpt lat="48.463545" lon="16.811446">
        <ele>206.333120</ele>
        <time>2020-08-26T08:59:05.386Z</time>
      </trkpt>
      <trkpt lat="48.463550" lon="16.811634">
        <ele>206.276563</ele>
        <time>2020-08-26T08:59:07.398Z</time>
      </trkpt>
      <trkpt lat="48.463557" lon="16.811812">
        <ele>206.222964</ele>
        <time>2020-08-26T08:59:09.429Z</time>
      </trkpt>
      <trkpt lat="48.463567" lon="16.811990">
        <ele>206.169267</ele>
        <time>2020-08-26T08:59:11.387Z</time>
      </trkpt>
      <trkpt lat="48.463577" lon="16.812169">
        <ele>206.115270</ele>
        <time>2020-08-26T08:59:13.363Z</time>
      </trkpt>
      <trkpt lat="48.463585" lon="16.812343">
        <ele>206.062842</ele>
        <time>2020-08-26T08:59:15.388Z</time>
      </trkpt>
      <trkpt lat="48.463592" lon="16.812520">
        <ele>206.009543</ele>
        <time>2020-08-26T08:59:17.414Z</time>
      </trkpt>
      <trkpt lat="48.463599" lon="16.812695">
        <ele>205.956844</ele>
        <time>2020-08-26T08:59:19.393Z</time>
      </trkpt>
      <trkpt lat="48.463601" lon="16.812869">
        <ele>205.904533</ele>
        <time>2020-08-26T08:59:21.379Z</time>
      </trkpt>
      <trkpt lat="48.463604" lon="16.813046">
        <ele>205.851311</ele>
        <time>2020-08-26T08:59:23.380Z</time>
      </trkpt>
      <trkpt lat="48.463613" lon="16.813226">
        <ele>205.797051</ele>
        <time>2020-08-26T08:59:25.390Z</time>
      </trkpt>
      <trkpt lat="48.463624" lon="16.813407">
        <ele>205.742416</ele>
        <time>2020-08-26T08:59:27.390Z</time>
      </trkpt>
      <trkpt lat="48.463637" lon="16.813591">
        <ele>205.626283</ele>
        <time>2020-08-26T08:59:29.408Z</time>
      </trkpt>
      <trkpt lat="48.463649" lon="16.813773">
        <ele>205.490982</ele>
        <time>2020-08-26T08:59:31.396Z</time>
      </trkpt>
      <trkpt lat="48.463659" lon="16.813954">
        <ele>205.356620</ele>
        <time>2020-08-26T08:59:33.370Z</time>
      </trkpt>
      <trkpt lat="48.463669" lon="16.814131">
        <ele>205.225206</ele>
        <time>2020-08-26T08:59:35.397Z</time>
      </trkpt>
      <trkpt lat="48.463681" lon="16.814305">
        <ele>205.095792</ele>
        <time>2020-08-26T08:59:37.382Z</time>
      </trkpt>
      <trkpt lat="48.463692" lon="16.814483">
        <ele>204.963543</ele>
        <time>2020-08-26T08:59:39.371Z</time>
      </trkpt>
      <trkpt lat="48.463704" lon="16.814661">
        <ele>204.831186</ele>
        <time>2020-08-26T08:59:41.370Z</time>
      </trkpt>
      <trkpt lat="48.463715" lon="16.814841">
        <ele>204.697463</ele>
        <time>2020-08-26T08:59:43.354Z</time>
      </trkpt>
      <trkpt lat="48.463726" lon="16.815028">
        <ele>204.558584</ele>
        <time>2020-08-26T08:59:45.353Z</time>
      </trkpt>
      <trkpt lat="48.463737" lon="16.815212">
        <ele>204.421914</ele>
        <time>2020-08-26T08:59:47.352Z</time>
      </trkpt>
      <trkpt lat="48.463746" lon="16.815401">
        <ele>204.281738</ele>
        <time>2020-08-26T08:59:49.356Z</time>
      </trkpt>
      <trkpt lat="48.463758" lon="16.815592">
        <ele>204.139810</ele>
        <time>2020-08-26T08:59:51.396Z</time>
      </trkpt>
      <trkpt lat="48.463787" lon="16.815769">
        <ele>204.004934</ele>
        <time>2020-08-26T08:59:53.386Z</time>
      </trkpt>
      <trkpt lat="48.463831" lon="16.815938">
        <ele>203.870622</ele>
        <time>2020-08-26T08:59:55.376Z</time>
      </trkpt>
      <trkpt lat="48.463887" lon="16.816102">
        <ele>203.734159</ele>
        <time>2020-08-26T08:59:57.382Z</time>
      </trkpt>
      <trkpt lat="48.463945" lon="16.816266">
        <ele>203.606466</ele>
        <time>2020-08-26T08:59:59.371Z</time>
      </trkpt>
      <trkpt lat="48.464004" lon="16.816426">
        <ele>203.481663</ele>
        <time>2020-08-26T09:00:01.378Z</time>
      </trkpt>
      <trkpt lat="48.464064" lon="16.816583">
        <ele>203.358133</ele>
        <time>2020-08-26T09:00:03.381Z</time>
      </trkpt>
      <trkpt lat="48.464114" lon="16.816733">
        <ele>203.243685</ele>
        <time>2020-08-26T09:00:05.384Z</time>
      </trkpt>
      <trkpt lat="48.464160" lon="16.816904">
        <ele>203.117887</ele>
        <time>2020-08-26T09:00:07.366Z</time>
      </trkpt>
      <trkpt lat="48.464180" lon="16.817086">
        <ele>202.992125</ele>
        <time>2020-08-26T09:00:09.390Z</time>
      </trkpt>
      <trkpt lat="48.464175" lon="16.817270">
        <ele>202.866588</ele>
        <time>2020-08-26T09:00:11.368Z</time>
      </trkpt>
      <trkpt lat="48.464163" lon="16.817453">
        <ele>202.741228</ele>
        <time>2020-08-26T09:00:13.385Z</time>
      </trkpt>
      <trkpt lat="48.464139" lon="16.817630">
        <ele>202.618071</ele>
        <time>2020-08-26T09:00:15.366Z</time>
      </trkpt>
      <trkpt lat="48.464110" lon="16.817807">
        <ele>202.493781</ele>
        <time>2020-08-26T09:00:17.394Z</time>
      </trkpt>
      <trkpt lat="48.464076" lon="16.817979">
        <ele>202.371430</ele>
        <time>2020-08-26T09:00:19.367Z</time>
      </trkpt>
      <trkpt lat="48.464045" lon="16.818140">
        <ele>202.257143</ele>
        <time>2020-08-26T09:00:21.384Z</time>
      </trkpt>
      <trkpt lat="48.464020" lon="16.818310">
        <ele>202.138438</ele>
        <time>2020-08-26T09:00:23.369Z</time>
      </trkpt>
      <trkpt lat="48.463989" lon="16.818476">
        <ele>202.020873</ele>
        <time>2020-08-26T09:00:25.374Z</time>
      </trkpt>
      <trkpt lat="48.463955" lon="16.818638">
        <ele>201.905038</ele>
        <time>2020-08-26T09:00:27.381Z</time>
      </trkpt>
      <trkpt lat="48.463915" lon="16.818796">
        <ele>201.814458</ele>
        <time>2020-08-26T09:00:29.386Z</time>
      </trkpt>
      <trkpt lat="48.463886" lon="16.818954">
        <ele>201.736085</ele>
        <time>2020-08-26T09:00:31.362Z</time>
      </trkpt>
      <trkpt lat="48.463859" lon="16.819105">
        <ele>201.661321</ele>
        <time>2020-08-26T09:00:33.378Z</time>
      </trkpt>
      <trkpt lat="48.463837" lon="16.819240">
        <ele>201.594863</ele>
        <time>2020-08-26T09:00:35.381Z</time>
      </trkpt>
      <trkpt lat="48.463804" lon="16.819431">
        <ele>201.500506</ele>
        <time>2020-08-26T09:00:38.394Z</time>
      </trkpt>
      <trkpt lat="48.463776" lon="16.819572">
        <ele>201.430142</ele>
        <time>2020-08-26T09:00:40.388Z</time>
      </trkpt>
      <trkpt lat="48.463743" lon="16.819720">
        <ele>201.355497</ele>
        <time>2020-08-26T09:00:42.380Z</time>
      </trkpt>
      <trkpt lat="48.463709" lon="16.819870">
        <ele>201.279715</ele>
        <time>2020-08-26T09:00:44.386Z</time>
      </trkpt>
      <trkpt lat="48.463673" lon="16.820021">
        <ele>201.203005</ele>
        <time>2020-08-26T09:00:46.402Z</time>
      </trkpt>
      <trkpt lat="48.463637" lon="16.820183">
        <ele>201.121327</ele>
        <time>2020-08-26T09:00:48.377Z</time>
      </trkpt>
      <trkpt lat="48.463602" lon="16.820338">
        <ele>201.043050</ele>
        <time>2020-08-26T09:00:50.398Z</time>
      </trkpt>
      <trkpt lat="48.463568" lon="16.820494">
        <ele>200.964548</ele>
        <time>2020-08-26T09:00:52.416Z</time>
      </trkpt>
      <trkpt lat="48.463529" lon="16.820639">
        <ele>200.889744</ele>
        <time>2020-08-26T09:00:54.383Z</time>
      </trkpt>
      <trkpt lat="48.463492" lon="16.820788">
        <ele>200.813683</ele>
        <time>2020-08-26T09:00:56.375Z</time>
      </trkpt>
      <trkpt lat="48.463459" lon="16.820937">
        <ele>200.738584</ele>
        <time>2020-08-26T09:00:58.380Z</time>
      </trkpt>
      <trkpt lat="48.463425" lon="16.821077">
        <ele>200.667309</ele>
        <time>2020-08-26T09:01:00.390Z</time>
      </trkpt>
      <trkpt lat="48.463377" lon="16.821214">
        <ele>200.593234</ele>
        <time>2020-08-26T09:01:02.401Z</time>
      </trkpt>
      <trkpt lat="48.463327" lon="16.821356">
        <ele>200.520222</ele>
        <time>2020-08-26T09:01:04.378Z</time>
      </trkpt>
      <trkpt lat="48.463274" lon="16.821497">
        <ele>200.447763</ele>
        <time>2020-08-26T09:01:06.363Z</time>
      </trkpt>
      <trkpt lat="48.463218" lon="16.821638">
        <ele>200.374286</ele>
        <time>2020-08-26T09:01:08.367Z</time>
      </trkpt>
      <trkpt lat="48.463162" lon="16.821789">
        <ele>200.296939</ele>
        <time>2020-08-26T09:01:10.376Z</time>
      </trkpt>
      <trkpt lat="48.463108" lon="16.821939">
        <ele>200.220634</ele>
        <time>2020-08-26T09:01:12.381Z</time>
      </trkpt>
      <trkpt lat="48.463056" lon="16.822090">
        <ele>200.144567</ele>
        <time>2020-08-26T09:01:14.370Z</time>
      </trkpt>
      <trkpt lat="48.463053" lon="16.822245">
        <ele>200.075242</ele>
        <time>2020-08-26T09:01:16.366Z</time>
      </trkpt>
      <trkpt lat="48.463127" lon="16.822363">
        <ele>200.002633</ele>
        <time>2020-08-26T09:01:18.378Z</time>
      </trkpt>
      <trkpt lat="48.463221" lon="16.822446">
        <ele>199.929195</ele>
        <time>2020-08-26T09:01:20.360Z</time>
      </trkpt>
      <trkpt lat="48.463317" lon="16.822522">
        <ele>199.856096</ele>
        <time>2020-08-26T09:01:22.365Z</time>
      </trkpt>
      <trkpt lat="48.463423" lon="16.822592">
        <ele>199.778079</ele>
        <time>2020-08-26T09:01:24.363Z</time>
      </trkpt>
      <trkpt lat="48.463535" lon="16.822664">
        <ele>199.695994</ele>
        <time>2020-08-26T09:01:26.368Z</time>
      </trkpt>
      <trkpt lat="48.463652" lon="16.822732">
        <ele>199.611458</ele>
        <time>2020-08-26T09:01:28.369Z</time>
      </trkpt>
      <trkpt lat="48.463767" lon="16.822800">
        <ele>199.528178</ele>
        <time>2020-08-26T09:01:30.383Z</time>
      </trkpt>
      <trkpt lat="48.463877" lon="16.822868">
        <ele>199.448027</ele>
        <time>2020-08-26T09:01:32.404Z</time>
      </trkpt>
      <trkpt lat="48.463985" lon="16.822943">
        <ele>199.367865</ele>
        <time>2020-08-26T09:01:34.391Z</time>
      </trkpt>
      <trkpt lat="48.464077" lon="16.823013">
        <ele>199.307151</ele>
        <time>2020-08-26T09:01:36.389Z</time>
      </trkpt>
      <trkpt lat="48.464174" lon="16.823075">
        <ele>199.245738</ele>
        <time>2020-08-26T09:01:38.406Z</time>
      </trkpt>
      <trkpt lat="48.464273" lon="16.823139">
        <ele>199.182949</ele>
        <time>2020-08-26T09:01:40.396Z</time>
      </trkpt>
      <trkpt lat="48.464373" lon="16.823207">
        <ele>199.119004</ele>
        <time>2020-08-26T09:01:42.395Z</time>
      </trkpt>
      <trkpt lat="48.464477" lon="16.823268">
        <ele>199.053956</ele>
        <time>2020-08-26T09:01:44.377Z</time>
      </trkpt>
      <trkpt lat="48.464582" lon="16.823321">
        <ele>198.989411</ele>
        <time>2020-08-26T09:01:46.389Z</time>
      </trkpt>
      <trkpt lat="48.464688" lon="16.823366">
        <ele>198.925219</ele>
        <time>2020-08-26T09:01:48.369Z</time>
      </trkpt>
      <trkpt lat="48.464792" lon="16.823410">
        <ele>198.862254</ele>
        <time>2020-08-26T09:01:50.432Z</time>
      </trkpt>
      <trkpt lat="48.464901" lon="16.823451">
        <ele>198.796768</ele>
        <time>2020-08-26T09:01:52.396Z</time>
      </trkpt>
      <trkpt lat="48.465009" lon="16.823500">
        <ele>198.731024</ele>
        <time>2020-08-26T09:01:54.380Z</time>
      </trkpt>
      <trkpt lat="48.465115" lon="16.823546">
        <ele>198.666726</ele>
        <time>2020-08-26T09:01:56.404Z</time>
      </trkpt>
      <trkpt lat="48.465222" lon="16.823586">
        <ele>198.602465</ele>
        <time>2020-08-26T09:01:58.394Z</time>
      </trkpt>
      <trkpt lat="48.465328" lon="16.823624">
        <ele>198.538953</ele>
        <time>2020-08-26T09:02:00.413Z</time>
      </trkpt>
      <trkpt lat="48.465433" lon="16.823661">
        <ele>198.476097</ele>
        <time>2020-08-26T09:02:02.409Z</time>
      </trkpt>
      <trkpt lat="48.465537" lon="16.823694">
        <ele>198.414145</ele>
        <time>2020-08-26T09:02:04.396Z</time>
      </trkpt>
      <trkpt lat="48.465637" lon="16.823728">
        <ele>198.354389</ele>
        <time>2020-08-26T09:02:06.373Z</time>
      </trkpt>
      <trkpt lat="48.465738" lon="16.823784">
        <ele>198.303787</ele>
        <time>2020-08-26T09:02:08.376Z</time>
      </trkpt>
      <trkpt lat="48.465835" lon="16.823856">
        <ele>198.274059</ele>
        <time>2020-08-26T09:02:10.367Z</time>
      </trkpt>
      <trkpt lat="48.465917" lon="16.823957">
        <ele>198.244947</ele>
        <time>2020-08-26T09:02:12.381Z</time>
      </trkpt>
      <trkpt lat="48.465988" lon="16.824091">
        <ele>198.213673</ele>
        <time>2020-08-26T09:02:14.366Z</time>
      </trkpt>
      <trkpt lat="48.466029" lon="16.824248">
        <ele>198.182908</ele>
        <time>2020-08-26T09:02:16.366Z</time>
      </trkpt>
      <trkpt lat="48.466046" lon="16.824416">
        <ele>198.151922</ele>
        <time>2020-08-26T09:02:18.384Z</time>
      </trkpt>
      <trkpt lat="48.466052" lon="16.824583">
        <ele>198.121429</ele>
        <time>2020-08-26T09:02:20.358Z</time>
      </trkpt>
      <trkpt lat="48.466053" lon="16.824751">
        <ele>198.090797</ele>
        <time>2020-08-26T09:02:22.365Z</time>
      </trkpt>
      <trkpt lat="48.466040" lon="16.824905">
        <ele>198.062492</ele>
        <time>2020-08-26T09:02:24.398Z</time>
      </trkpt>
      <trkpt lat="48.466014" lon="16.825077">
        <ele>198.030328</ele>
        <time>2020-08-26T09:02:26.403Z</time>
      </trkpt>
      <trkpt lat="48.465979" lon="16.825241">
        <ele>197.998916</ele>
        <time>2020-08-26T09:02:28.391Z</time>
      </trkpt>
      <trkpt lat="48.465923" lon="16.825365">
        <ele>197.971561</ele>
        <time>2020-08-26T09:02:30.384Z</time>
      </trkpt>
      <trkpt lat="48.465893" lon="16.825499">
        <ele>197.945774</ele>
        <time>2020-08-26T09:02:32.393Z</time>
      </trkpt>
      <trkpt lat="48.465857" lon="16.825628">
        <ele>197.920256</ele>
        <time>2020-08-26T09:02:34.381Z</time>
      </trkpt>
      <trkpt lat="48.465827" lon="16.825774">
        <ele>197.892388</ele>
        <time>2020-08-26T09:02:36.392Z</time>
      </trkpt>
      <trkpt lat="48.465794" lon="16.825915">
        <ele>197.865125</ele>
        <time>2020-08-26T09:02:38.393Z</time>
      </trkpt>
      <trkpt lat="48.465767" lon="16.826061">
        <ele>197.837489</ele>
        <time>2020-08-26T09:02:40.363Z</time>
      </trkpt>
      <trkpt lat="48.465741" lon="16.826203">
        <ele>197.800490</ele>
        <time>2020-08-26T09:02:42.373Z</time>
      </trkpt>
      <trkpt lat="48.465714" lon="16.826350">
        <ele>197.742690</ele>
        <time>2020-08-26T09:02:44.385Z</time>
      </trkpt>
      <trkpt lat="48.465683" lon="16.826495">
        <ele>197.684960</ele>
        <time>2020-08-26T09:02:46.374Z</time>
      </trkpt>
      <trkpt lat="48.465650" lon="16.826647">
        <ele>197.624354</ele>
        <time>2020-08-26T09:02:48.380Z</time>
      </trkpt>
      <trkpt lat="48.465620" lon="16.826799">
        <ele>197.564260</ele>
        <time>2020-08-26T09:02:50.374Z</time>
      </trkpt>
      <trkpt lat="48.465585" lon="16.826955">
        <ele>197.501855</ele>
        <time>2020-08-26T09:02:52.363Z</time>
      </trkpt>
      <trkpt lat="48.465549" lon="16.827114">
        <ele>197.438189</ele>
        <time>2020-08-26T09:02:54.376Z</time>
      </trkpt>
      <trkpt lat="48.465516" lon="16.827278">
        <ele>197.373247</ele>
        <time>2020-08-26T09:02:56.401Z</time>
      </trkpt>
      <trkpt lat="48.465482" lon="16.827440">
        <ele>197.308859</ele>
        <time>2020-08-26T09:02:58.371Z</time>
      </trkpt>
      <trkpt lat="48.465449" lon="16.827602">
        <ele>197.244641</ele>
        <time>2020-08-26T09:03:00.359Z</time>
      </trkpt>
      <trkpt lat="48.465425" lon="16.827759">
        <ele>197.183588</ele>
        <time>2020-08-26T09:03:02.384Z</time>
      </trkpt>
      <trkpt lat="48.465391" lon="16.827917">
        <ele>197.120643</ele>
        <time>2020-08-26T09:03:04.376Z</time>
      </trkpt>
      <trkpt lat="48.465367" lon="16.828073">
        <ele>197.059960</ele>
        <time>2020-08-26T09:03:06.389Z</time>
      </trkpt>
      <trkpt lat="48.465338" lon="16.828235">
        <ele>196.996376</ele>
        <time>2020-08-26T09:03:08.377Z</time>
      </trkpt>
      <trkpt lat="48.465312" lon="16.828391">
        <ele>196.935424</ele>
        <time>2020-08-26T09:03:10.377Z</time>
      </trkpt>
      <trkpt lat="48.465288" lon="16.828551">
        <ele>196.873263</ele>
        <time>2020-08-26T09:03:12.373Z</time>
      </trkpt>
      <trkpt lat="48.465265" lon="16.828713">
        <ele>196.810485</ele>
        <time>2020-08-26T09:03:14.367Z</time>
      </trkpt>
      <trkpt lat="48.465246" lon="16.828877">
        <ele>196.752666</ele>
        <time>2020-08-26T09:03:16.387Z</time>
      </trkpt>
      <trkpt lat="48.465229" lon="16.829041">
        <ele>196.697170</ele>
        <time>2020-08-26T09:03:18.379Z</time>
      </trkpt>
      <trkpt lat="48.465217" lon="16.829210">
        <ele>196.640345</ele>
        <time>2020-08-26T09:03:20.378Z</time>
      </trkpt>
      <trkpt lat="48.465208" lon="16.829378">
        <ele>196.583994</ele>
        <time>2020-08-26T09:03:22.399Z</time>
      </trkpt>
      <trkpt lat="48.465207" lon="16.829542">
        <ele>196.529161</ele>
        <time>2020-08-26T09:03:24.387Z</time>
      </trkpt>
      <trkpt lat="48.465216" lon="16.829713">
        <ele>196.471810</ele>
        <time>2020-08-26T09:03:26.354Z</time>
      </trkpt>
      <trkpt lat="48.465225" lon="16.829891">
        <ele>196.412126</ele>
        <time>2020-08-26T09:03:28.376Z</time>
      </trkpt>
      <trkpt lat="48.465249" lon="16.830064">
        <ele>196.353034</ele>
        <time>2020-08-26T09:03:30.375Z</time>
      </trkpt>
      <trkpt lat="48.465275" lon="16.830240">
        <ele>196.292749</ele>
        <time>2020-08-26T09:03:32.372Z</time>
      </trkpt>
      <trkpt lat="48.465312" lon="16.830406">
        <ele>196.234198</ele>
        <time>2020-08-26T09:03:34.381Z</time>
      </trkpt>
      <trkpt lat="48.465356" lon="16.830564">
        <ele>196.176904</ele>
        <time>2020-08-26T09:03:36.373Z</time>
      </trkpt>
      <trkpt lat="48.465412" lon="16.830713">
        <ele>196.119643</ele>
        <time>2020-08-26T09:03:38.369Z</time>
      </trkpt>
      <trkpt lat="48.465475" lon="16.830858">
        <ele>196.061684</ele>
        <time>2020-08-26T09:03:40.396Z</time>
      </trkpt>
      <trkpt lat="48.465543" lon="16.831002">
        <ele>196.002580</ele>
        <time>2020-08-26T09:03:42.377Z</time>
      </trkpt>
      <trkpt lat="48.465616" lon="16.831141">
        <ele>195.943297</ele>
        <time>2020-08-26T09:03:44.390Z</time>
      </trkpt>
      <trkpt lat="48.465696" lon="16.831273">
        <ele>195.883528</ele>
        <time>2020-08-26T09:03:46.381Z</time>
      </trkpt>
      <trkpt lat="48.465778" lon="16.831398">
        <ele>195.825415</ele>
        <time>2020-08-26T09:03:48.368Z</time>
      </trkpt>
      <trkpt lat="48.465863" lon="16.831526">
        <ele>195.765545</ele>
        <time>2020-08-26T09:03:50.370Z</time>
      </trkpt>
      <trkpt lat="48.465952" lon="16.831658">
        <ele>195.703327</ele>
        <time>2020-08-26T09:03:52.402Z</time>
      </trkpt>
      <trkpt lat="48.466035" lon="16.831787">
        <ele>195.643922</ele>
        <time>2020-08-26T09:03:54.367Z</time>
      </trkpt>
      <trkpt lat="48.466113" lon="16.831913">
        <ele>195.586952</ele>
        <time>2020-08-26T09:03:56.383Z</time>
      </trkpt>
      <trkpt lat="48.466193" lon="16.832046">
        <ele>195.527606</ele>
        <time>2020-08-26T09:03:58.380Z</time>
      </trkpt>
      <trkpt lat="48.466267" lon="16.832185">
        <ele>195.468693</ele>
        <time>2020-08-26T09:04:00.364Z</time>
      </trkpt>
      <trkpt lat="48.466332" lon="16.832336">
        <ele>195.409195</ele>
        <time>2020-08-26T09:04:02.371Z</time>
      </trkpt>
      <trkpt lat="48.466388" lon="16.832489">
        <ele>195.351437</ele>
        <time>2020-08-26T09:04:04.372Z</time>
      </trkpt>
      <trkpt lat="48.466441" lon="16.832647">
        <ele>195.292918</ele>
        <time>2020-08-26T09:04:06.391Z</time>
      </trkpt>
      <trkpt lat="48.466492" lon="16.832803">
        <ele>195.235436</ele>
        <time>2020-08-26T09:04:08.373Z</time>
      </trkpt>
      <trkpt lat="48.466533" lon="16.832958">
        <ele>195.180285</ele>
        <time>2020-08-26T09:04:10.392Z</time>
      </trkpt>
      <trkpt lat="48.466572" lon="16.833117">
        <ele>195.124257</ele>
        <time>2020-08-26T09:04:12.374Z</time>
      </trkpt>
      <trkpt lat="48.466606" lon="16.833275">
        <ele>195.069359</ele>
        <time>2020-08-26T09:04:14.390Z</time>
      </trkpt>
      <trkpt lat="48.466638" lon="16.833437">
        <ele>195.013494</ele>
        <time>2020-08-26T09:04:16.380Z</time>
      </trkpt>
      <trkpt lat="48.466666" lon="16.833599">
        <ele>194.965996</ele>
        <time>2020-08-26T09:04:18.386Z</time>
      </trkpt>
      <trkpt lat="48.466679" lon="16.833768">
        <ele>194.924162</ele>
        <time>2020-08-26T09:04:20.358Z</time>
      </trkpt>
      <trkpt lat="48.466689" lon="16.833943">
        <ele>194.880973</ele>
        <time>2020-08-26T09:04:22.398Z</time>
      </trkpt>
      <trkpt lat="48.466696" lon="16.834109">
        <ele>194.840074</ele>
        <time>2020-08-26T09:04:24.367Z</time>
      </trkpt>
      <trkpt lat="48.466700" lon="16.834271">
        <ele>194.800212</ele>
        <time>2020-08-26T09:04:26.376Z</time>
      </trkpt>
      <trkpt lat="48.466704" lon="16.834431">
        <ele>194.760843</ele>
        <time>2020-08-26T09:04:28.378Z</time>
      </trkpt>
      <trkpt lat="48.466710" lon="16.834588">
        <ele>194.722175</ele>
        <time>2020-08-26T09:04:30.383Z</time>
      </trkpt>
      <trkpt lat="48.466719" lon="16.834745">
        <ele>194.683427</ele>
        <time>2020-08-26T09:04:32.391Z</time>
      </trkpt>
      <trkpt lat="48.466727" lon="16.834902">
        <ele>194.644709</ele>
        <time>2020-08-26T09:04:34.365Z</time>
      </trkpt>
      <trkpt lat="48.466738" lon="16.835059">
        <ele>194.605890</ele>
        <time>2020-08-26T09:04:36.361Z</time>
      </trkpt>
      <trkpt lat="48.466747" lon="16.835219">
        <ele>194.566407</ele>
        <time>2020-08-26T09:04:38.398Z</time>
      </trkpt>
      <trkpt lat="48.466753" lon="16.835378">
        <ele>194.527248</ele>
        <time>2020-08-26T09:04:40.391Z</time>
      </trkpt>
      <trkpt lat="48.466761" lon="16.835531">
        <ele>194.489511</ele>
        <time>2020-08-26T09:04:42.385Z</time>
      </trkpt>
      <trkpt lat="48.466771" lon="16.835684">
        <ele>194.451708</ele>
        <time>2020-08-26T09:04:44.378Z</time>
      </trkpt>
      <trkpt lat="48.466790" lon="16.835843">
        <ele>194.411982</ele>
        <time>2020-08-26T09:04:46.381Z</time>
      </trkpt>
      <trkpt lat="48.466814" lon="16.835996">
        <ele>194.373324</ele>
        <time>2020-08-26T09:04:48.372Z</time>
      </trkpt>
      <trkpt lat="48.466843" lon="16.836140">
        <ele>194.336319</ele>
        <time>2020-08-26T09:04:50.383Z</time>
      </trkpt>
      <trkpt lat="48.466875" lon="16.836278">
        <ele>194.297675</ele>
        <time>2020-08-26T09:04:52.400Z</time>
      </trkpt>
      <trkpt lat="48.466911" lon="16.836421">
        <ele>194.255320</ele>
        <time>2020-08-26T09:04:54.378Z</time>
      </trkpt>
      <trkpt lat="48.466951" lon="16.836563">
        <ele>194.212599</ele>
        <time>2020-08-26T09:04:56.393Z</time>
      </trkpt>
      <trkpt lat="48.466993" lon="16.836702">
        <ele>194.170302</ele>
        <time>2020-08-26T09:04:58.366Z</time>
      </trkpt>
      <trkpt lat="48.467047" lon="16.836836">
        <ele>194.126881</ele>
        <time>2020-08-26T09:05:00.363Z</time>
      </trkpt>
      <trkpt lat="48.467097" lon="16.836959">
        <ele>194.086931</ele>
        <time>2020-08-26T09:05:02.397Z</time>
      </trkpt>
      <trkpt lat="48.467155" lon="16.837077">
        <ele>194.046258</ele>
        <time>2020-08-26T09:05:04.375Z</time>
      </trkpt>
      <trkpt lat="48.467221" lon="16.837188">
        <ele>194.004974</ele>
        <time>2020-08-26T09:05:06.391Z</time>
      </trkpt>
      <trkpt lat="48.467286" lon="16.837298">
        <ele>193.964174</ele>
        <time>2020-08-26T09:05:08.387Z</time>
      </trkpt>
      <trkpt lat="48.467355" lon="16.837395">
        <ele>193.924782</ele>
        <time>2020-08-26T09:05:10.373Z</time>
      </trkpt>
      <trkpt lat="48.467426" lon="16.837489">
        <ele>193.885328</ele>
        <time>2020-08-26T09:05:12.364Z</time>
      </trkpt>
      <trkpt lat="48.467504" lon="16.837570">
        <ele>193.845779</ele>
        <time>2020-08-26T09:05:14.367Z</time>
      </trkpt>
      <trkpt lat="48.467613" lon="16.837682">
        <ele>193.790698</ele>
        <time>2020-08-26T09:05:17.379Z</time>
      </trkpt>
      <trkpt lat="48.467722" lon="16.837793">
        <ele>193.735773</ele>
        <time>2020-08-26T09:05:20.398Z</time>
      </trkpt>
      <trkpt lat="48.467829" lon="16.837894">
        <ele>193.683058</ele>
        <time>2020-08-26T09:05:23.385Z</time>
      </trkpt>
      <trkpt lat="48.467913" lon="16.837959">
        <ele>193.643631</ele>
        <time>2020-08-26T09:05:25.370Z</time>
      </trkpt>
      <trkpt lat="48.468023" lon="16.838048">
        <ele>193.591500</ele>
        <time>2020-08-26T09:05:28.363Z</time>
      </trkpt>
      <trkpt lat="48.468126" lon="16.838136">
        <ele>193.564371</ele>
        <time>2020-08-26T09:05:31.376Z</time>
      </trkpt>
      <trkpt lat="48.468219" lon="16.838217">
        <ele>193.554576</ele>
        <time>2020-08-26T09:05:34.363Z</time>
      </trkpt>
      <trkpt lat="48.468312" lon="16.838303">
        <ele>193.544626</ele>
        <time>2020-08-26T09:05:37.383Z</time>
      </trkpt>
      <trkpt lat="48.468399" lon="16.838388">
        <ele>193.535172</ele>
        <time>2020-08-26T09:05:40.379Z</time>
      </trkpt>
      <trkpt lat="48.468489" lon="16.838478">
        <ele>193.525322</ele>
        <time>2020-08-26T09:05:43.386Z</time>
      </trkpt>
      <trkpt lat="48.468587" lon="16.838571">
        <ele>193.514761</ele>
        <time>2020-08-26T09:05:46.376Z</time>
      </trkpt>
      <trkpt lat="48.468683" lon="16.838663">
        <ele>193.504387</ele>
        <time>2020-08-26T09:05:49.377Z</time>
      </trkpt>
      <trkpt lat="48.468781" lon="16.838746">
        <ele>193.494136</ele>
        <time>2020-08-26T09:05:52.389Z</time>
      </trkpt>
      <trkpt lat="48.468884" lon="16.838822">
        <ele>193.483677</ele>
        <time>2020-08-26T09:05:55.384Z</time>
      </trkpt>
      <trkpt lat="48.468975" lon="16.838899">
        <ele>193.474160</ele>
        <time>2020-08-26T09:05:58.372Z</time>
      </trkpt>
      <trkpt lat="48.469078" lon="16.838985">
        <ele>193.463422</ele>
        <time>2020-08-26T09:06:01.404Z</time>
      </trkpt>
      <trkpt lat="48.469166" lon="16.839067">
        <ele>193.453987</ele>
        <time>2020-08-26T09:06:04.361Z</time>
      </trkpt>
      <trkpt lat="48.469249" lon="16.839148">
        <ele>193.444970</ele>
        <time>2020-08-26T09:06:07.377Z</time>
      </trkpt>
      <trkpt lat="48.469333" lon="16.839225">
        <ele>193.436005</ele>
        <time>2020-08-26T09:06:10.366Z</time>
      </trkpt>
      <trkpt lat="48.469420" lon="16.839301">
        <ele>193.426835</ele>
        <time>2020-08-26T09:06:13.379Z</time>
      </trkpt>
      <trkpt lat="48.469508" lon="16.839372">
        <ele>193.417732</ele>
        <time>2020-08-26T09:06:16.404Z</time>
      </trkpt>
      <trkpt lat="48.469591" lon="16.839444">
        <ele>193.408999</ele>
        <time>2020-08-26T09:06:19.363Z</time>
      </trkpt>
      <trkpt lat="48.469682" lon="16.839533">
        <ele>193.427084</ele>
        <time>2020-08-26T09:06:22.389Z</time>
      </trkpt>
      <trkpt lat="48.469770" lon="16.839622">
        <ele>193.453734</ele>
        <time>2020-08-26T09:06:25.379Z</time>
      </trkpt>
      <trkpt lat="48.469864" lon="16.839707">
        <ele>193.481302</ele>
        <time>2020-08-26T09:06:28.390Z</time>
      </trkpt>
      <trkpt lat="48.469963" lon="16.839794">
        <ele>193.510123</ele>
        <time>2020-08-26T09:06:31.386Z</time>
      </trkpt>
      <trkpt lat="48.470064" lon="16.839896">
        <ele>193.540697</ele>
        <time>2020-08-26T09:06:34.412Z</time>
      </trkpt>
      <trkpt lat="48.470143" lon="16.839971">
        <ele>193.564177</ele>
        <time>2020-08-26T09:06:36.375Z</time>
      </trkpt>
      <trkpt lat="48.470222" lon="16.840047">
        <ele>193.587746</ele>
        <time>2020-08-26T09:06:38.395Z</time>
      </trkpt>
      <trkpt lat="48.470301" lon="16.840130">
        <ele>193.611963</ele>
        <time>2020-08-26T09:06:40.360Z</time>
      </trkpt>
      <trkpt lat="48.470380" lon="16.840230">
        <ele>193.637905</ele>
        <time>2020-08-26T09:06:42.361Z</time>
      </trkpt>
      <trkpt lat="48.470458" lon="16.840340">
        <ele>193.664765</ele>
        <time>2020-08-26T09:06:44.366Z</time>
      </trkpt>
      <trkpt lat="48.470534" lon="16.840455">
        <ele>193.691844</ele>
        <time>2020-08-26T09:06:46.370Z</time>
      </trkpt>
      <trkpt lat="48.470609" lon="16.840577">
        <ele>193.719590</ele>
        <time>2020-08-26T09:06:48.369Z</time>
      </trkpt>
      <trkpt lat="48.470678" lon="16.840704">
        <ele>193.746972</ele>
        <time>2020-08-26T09:06:50.378Z</time>
      </trkpt>
      <trkpt lat="48.470737" lon="16.840843">
        <ele>193.774497</ele>
        <time>2020-08-26T09:06:52.353Z</time>
      </trkpt>
      <trkpt lat="48.470791" lon="16.840987">
        <ele>193.802087</ele>
        <time>2020-08-26T09:06:54.384Z</time>
      </trkpt>
      <trkpt lat="48.470840" lon="16.841129">
        <ele>193.828783</ele>
        <time>2020-08-26T09:06:56.378Z</time>
      </trkpt>
      <trkpt lat="48.470888" lon="16.841279">
        <ele>193.856560</ele>
        <time>2020-08-26T09:06:58.385Z</time>
      </trkpt>
      <trkpt lat="48.470936" lon="16.841431">
        <ele>193.865251</ele>
        <time>2020-08-26T09:07:00.375Z</time>
      </trkpt>
      <trkpt lat="48.470984" lon="16.841583">
        <ele>193.872120</ele>
        <time>2020-08-26T09:07:02.372Z</time>
      </trkpt>
      <trkpt lat="48.471035" lon="16.841732">
        <ele>193.878961</ele>
        <time>2020-08-26T09:07:04.391Z</time>
      </trkpt>
      <trkpt lat="48.471085" lon="16.841880">
        <ele>193.885738</ele>
        <time>2020-08-26T09:07:06.366Z</time>
      </trkpt>
      <trkpt lat="48.471133" lon="16.842018">
        <ele>193.892096</ele>
        <time>2020-08-26T09:07:08.387Z</time>
      </trkpt>
      <trkpt lat="48.471182" lon="16.842140">
        <ele>193.897915</ele>
        <time>2020-08-26T09:07:10.378Z</time>
      </trkpt>
      <trkpt lat="48.471287" lon="16.842212">
        <ele>193.905013</ele>
        <time>2020-08-26T09:07:13.367Z</time>
      </trkpt>
      <trkpt lat="48.471343" lon="16.842372">
        <ele>193.912394</ele>
        <time>2020-08-26T09:07:16.373Z</time>
      </trkpt>
      <trkpt lat="48.471383" lon="16.842496">
        <ele>193.918020</ele>
        <time>2020-08-26T09:07:18.373Z</time>
      </trkpt>
      <trkpt lat="48.471423" lon="16.842625">
        <ele>193.923830</ele>
        <time>2020-08-26T09:07:20.377Z</time>
      </trkpt>
      <trkpt lat="48.471464" lon="16.842754">
        <ele>193.929666</ele>
        <time>2020-08-26T09:07:22.375Z</time>
      </trkpt>
      <trkpt lat="48.471504" lon="16.842886">
        <ele>193.935587</ele>
        <time>2020-08-26T09:07:24.366Z</time>
      </trkpt>
      <trkpt lat="48.471548" lon="16.843015">
        <ele>193.941506</ele>
        <time>2020-08-26T09:07:26.383Z</time>
      </trkpt>
      <trkpt lat="48.471590" lon="16.843141">
        <ele>193.947259</ele>
        <time>2020-08-26T09:07:28.373Z</time>
      </trkpt>
      <trkpt lat="48.471648" lon="16.843314">
        <ele>193.955168</ele>
        <time>2020-08-26T09:07:31.379Z</time>
      </trkpt>
      <trkpt lat="48.471711" lon="16.843485">
        <ele>193.963150</ele>
        <time>2020-08-26T09:07:34.370Z</time>
      </trkpt>
      <trkpt lat="48.471760" lon="16.843599">
        <ele>193.968692</ele>
        <time>2020-08-26T09:07:36.373Z</time>
      </trkpt>
      <trkpt lat="48.471808" lon="16.843729">
        <ele>193.956552</ele>
        <time>2020-08-26T09:07:38.387Z</time>
      </trkpt>
      <trkpt lat="48.471857" lon="16.843869">
        <ele>193.939994</ele>
        <time>2020-08-26T09:07:40.391Z</time>
      </trkpt>
      <trkpt lat="48.471907" lon="16.844009">
        <ele>193.923363</ele>
        <time>2020-08-26T09:07:43.391Z</time>
      </trkpt>
      <trkpt lat="48.471870" lon="16.844153">
        <ele>193.907211</ele>
        <time>2020-08-26T09:07:50.373Z</time>
      </trkpt>
      <trkpt lat="48.471800" lon="16.844282">
        <ele>193.889776</ele>
        <time>2020-08-26T09:07:53.378Z</time>
      </trkpt>
      <trkpt lat="48.471751" lon="16.844405">
        <ele>193.874768</ele>
        <time>2020-08-26T09:07:55.384Z</time>
      </trkpt>
      <trkpt lat="48.471694" lon="16.844550">
        <ele>193.857138</ele>
        <time>2020-08-26T09:07:57.394Z</time>
      </trkpt>
      <trkpt lat="48.471623" lon="16.844711">
        <ele>193.836915</ele>
        <time>2020-08-26T09:07:59.375Z</time>
      </trkpt>
      <trkpt lat="48.471544" lon="16.844876">
        <ele>193.815628</ele>
        <time>2020-08-26T09:08:01.363Z</time>
      </trkpt>
      <trkpt lat="48.471460" lon="16.845069">
        <ele>193.791482</ele>
        <time>2020-08-26T09:08:03.367Z</time>
      </trkpt>
      <trkpt lat="48.471381" lon="16.845270">
        <ele>193.767044</ele>
        <time>2020-08-26T09:08:05.365Z</time>
      </trkpt>
      <trkpt lat="48.471303" lon="16.845476">
        <ele>193.742232</ele>
        <time>2020-08-26T09:08:07.388Z</time>
      </trkpt>
      <trkpt lat="48.471226" lon="16.845693">
        <ele>193.716491</ele>
        <time>2020-08-26T09:08:09.389Z</time>
      </trkpt>
      <trkpt lat="48.471146" lon="16.845910">
        <ele>193.690522</ele>
        <time>2020-08-26T09:08:11.370Z</time>
      </trkpt>
      <trkpt lat="48.471059" lon="16.846124">
        <ele>193.584770</ele>
        <time>2020-08-26T09:08:13.393Z</time>
      </trkpt>
      <trkpt lat="48.470975" lon="16.846338">
        <ele>193.463240</ele>
        <time>2020-08-26T09:08:15.390Z</time>
      </trkpt>
      <trkpt lat="48.470886" lon="16.846541">
        <ele>193.344311</ele>
        <time>2020-08-26T09:08:17.370Z</time>
      </trkpt>
      <trkpt lat="48.470798" lon="16.846740">
        <ele>193.227419</ele>
        <time>2020-08-26T09:08:19.375Z</time>
      </trkpt>
      <trkpt lat="48.470714" lon="16.846936">
        <ele>193.113369</ele>
        <time>2020-08-26T09:08:21.355Z</time>
      </trkpt>
      <trkpt lat="48.470633" lon="16.847128">
        <ele>193.002159</ele>
        <time>2020-08-26T09:08:23.372Z</time>
      </trkpt>
      <trkpt lat="48.470551" lon="16.847309">
        <ele>192.895031</ele>
        <time>2020-08-26T09:08:25.378Z</time>
      </trkpt>
      <trkpt lat="48.470481" lon="16.847456">
        <ele>192.806587</ele>
        <time>2020-08-26T09:08:27.390Z</time>
      </trkpt>
      <trkpt lat="48.470419" lon="16.847595">
        <ele>192.724719</ele>
        <time>2020-08-26T09:08:30.366Z</time>
      </trkpt>
      <trkpt lat="48.470466" lon="16.847750">
        <ele>192.641428</ele>
        <time>2020-08-26T09:08:34.381Z</time>
      </trkpt>
      <trkpt lat="48.470553" lon="16.847836">
        <ele>192.564759</ele>
        <time>2020-08-26T09:08:36.385Z</time>
      </trkpt>
      <trkpt lat="48.470648" lon="16.847917">
        <ele>192.484324</ele>
        <time>2020-08-26T09:08:38.388Z</time>
      </trkpt>
      <trkpt lat="48.470742" lon="16.848005">
        <ele>192.402779</ele>
        <time>2020-08-26T09:08:40.417Z</time>
      </trkpt>
      <trkpt lat="48.470836" lon="16.848096">
        <ele>192.425959</ele>
        <time>2020-08-26T09:08:42.374Z</time>
      </trkpt>
      <trkpt lat="48.470929" lon="16.848192">
        <ele>192.563392</ele>
        <time>2020-08-26T09:08:44.386Z</time>
      </trkpt>
      <trkpt lat="48.471024" lon="16.848281">
        <ele>192.699775</ele>
        <time>2020-08-26T09:08:46.397Z</time>
      </trkpt>
      <trkpt lat="48.471109" lon="16.848354">
        <ele>192.819060</ele>
        <time>2020-08-26T09:08:48.386Z</time>
      </trkpt>
      <trkpt lat="48.471443" lon="16.848688">
        <ele>193.307768</ele>
        <time>2020-08-26T09:09:29.359Z</time>
      </trkpt>
      <trkpt lat="48.471540" lon="16.848801">
        <ele>193.457236</ele>
        <time>2020-08-26T09:09:32.368Z</time>
      </trkpt>
      <trkpt lat="48.471614" lon="16.848886">
        <ele>193.570670</ele>
        <time>2020-08-26T09:09:34.358Z</time>
      </trkpt>
      <trkpt lat="48.471690" lon="16.848971">
        <ele>193.686053</ele>
        <time>2020-08-26T09:09:36.369Z</time>
      </trkpt>
      <trkpt lat="48.471771" lon="16.849050">
        <ele>193.803686</ele>
        <time>2020-08-26T09:09:38.395Z</time>
      </trkpt>
      <trkpt lat="48.471853" lon="16.849132">
        <ele>193.923668</ele>
        <time>2020-08-26T09:09:40.389Z</time>
      </trkpt>
      <trkpt lat="48.471933" lon="16.849214">
        <ele>194.041625</ele>
        <time>2020-08-26T09:09:42.388Z</time>
      </trkpt>
      <trkpt lat="48.472016" lon="16.849298">
        <ele>194.163518</ele>
        <time>2020-08-26T09:09:44.363Z</time>
      </trkpt>
      <trkpt lat="48.472096" lon="16.849382">
        <ele>194.282391</ele>
        <time>2020-08-26T09:09:46.355Z</time>
      </trkpt>
      <trkpt lat="48.472179" lon="16.849463">
        <ele>194.402950</ele>
        <time>2020-08-26T09:09:48.362Z</time>
      </trkpt>
      <trkpt lat="48.472258" lon="16.849539">
        <ele>194.517220</ele>
        <time>2020-08-26T09:09:50.393Z</time>
      </trkpt>
      <trkpt lat="48.472341" lon="16.849612">
        <ele>194.555820</ele>
        <time>2020-08-26T09:09:52.375Z</time>
      </trkpt>
      <trkpt lat="48.472424" lon="16.849667">
        <ele>194.558760</ele>
        <time>2020-08-26T09:09:54.367Z</time>
      </trkpt>
      <trkpt lat="48.472512" lon="16.849751">
        <ele>194.562138</ele>
        <time>2020-08-26T09:09:57.366Z</time>
      </trkpt>
      <trkpt lat="48.472606" lon="16.849859">
        <ele>194.565970</ele>
        <time>2020-08-26T09:10:01.358Z</time>
      </trkpt>
      <trkpt lat="48.472720" lon="16.849936">
        <ele>194.570021</ele>
        <time>2020-08-26T09:10:05.384Z</time>
      </trkpt>
      <trkpt lat="48.472801" lon="16.849867">
        <ele>194.573038</ele>
        <time>2020-08-26T09:10:08.382Z</time>
      </trkpt>
      <trkpt lat="48.472850" lon="16.849741">
        <ele>194.576179</ele>
        <time>2020-08-26T09:10:12.372Z</time>
      </trkpt>
      <trkpt lat="48.473044" lon="16.849600">
        <ele>194.583163</ele>
        <time>2020-08-26T09:10:42.370Z</time>
      </trkpt>
      <trkpt lat="48.473107" lon="16.849460">
        <ele>194.586801</ele>
        <time>2020-08-26T09:10:45.374Z</time>
      </trkpt>
      <trkpt lat="48.473054" lon="16.849344">
        <ele>194.589830</ele>
        <time>2020-08-26T09:10:48.380Z</time>
      </trkpt>
      <trkpt lat="48.472953" lon="16.849417">
        <ele>194.593462</ele>
        <time>2020-08-26T09:10:51.356Z</time>
      </trkpt>
      <trkpt lat="48.472894" lon="16.849525">
        <ele>194.596471</ele>
        <time>2020-08-26T09:10:53.372Z</time>
      </trkpt>
      <trkpt lat="48.472855" lon="16.849713">
        <ele>194.600707</ele>
        <time>2020-08-26T09:10:56.368Z</time>
      </trkpt>
      <trkpt lat="48.472805" lon="16.849888">
        <ele>194.604804</ele>
        <time>2020-08-26T09:10:59.361Z</time>
      </trkpt>
      <trkpt lat="48.472766" lon="16.850049">
        <ele>194.608489</ele>
        <time>2020-08-26T09:11:02.392Z</time>
      </trkpt>
      <trkpt lat="48.472850" lon="16.850148">
        <ele>194.611947</ele>
        <time>2020-08-26T09:11:06.358Z</time>
      </trkpt>
      <trkpt lat="48.472931" lon="16.850240">
        <ele>194.568461</ele>
        <time>2020-08-26T09:11:11.397Z</time>
      </trkpt>
      <trkpt lat="48.472910" lon="16.850414">
        <ele>194.517176</ele>
        <time>2020-08-26T09:11:17.367Z</time>
      </trkpt>
      <trkpt lat="48.472832" lon="16.850562">
        <ele>194.462352</ele>
        <time>2020-08-26T09:11:20.368Z</time>
      </trkpt>
      <trkpt lat="48.472781" lon="16.850675">
        <ele>194.422712</ele>
        <time>2020-08-26T09:11:22.364Z</time>
      </trkpt>
      <trkpt lat="48.472727" lon="16.850804">
        <ele>194.378473</ele>
        <time>2020-08-26T09:11:24.376Z</time>
      </trkpt>
      <trkpt lat="48.472666" lon="16.850938">
        <ele>194.331338</ele>
        <time>2020-08-26T09:11:26.402Z</time>
      </trkpt>
      <trkpt lat="48.472600" lon="16.851080">
        <ele>194.281050</ele>
        <time>2020-08-26T09:11:28.386Z</time>
      </trkpt>
      <trkpt lat="48.472526" lon="16.851222">
        <ele>194.228675</ele>
        <time>2020-08-26T09:11:30.381Z</time>
      </trkpt>
      <trkpt lat="48.472453" lon="16.851375">
        <ele>194.174013</ele>
        <time>2020-08-26T09:11:32.363Z</time>
      </trkpt>
      <trkpt lat="48.472385" lon="16.851524">
        <ele>194.121559</ele>
        <time>2020-08-26T09:11:34.358Z</time>
      </trkpt>
      <trkpt lat="48.472315" lon="16.851674">
        <ele>194.068367</ele>
        <time>2020-08-26T09:11:36.386Z</time>
      </trkpt>
      <trkpt lat="48.472244" lon="16.851821">
        <ele>194.015628</ele>
        <time>2020-08-26T09:11:38.372Z</time>
      </trkpt>
      <trkpt lat="48.472170" lon="16.851973">
        <ele>193.960944</ele>
        <time>2020-08-26T09:11:40.387Z</time>
      </trkpt>
      <trkpt lat="48.472102" lon="16.852121">
        <ele>193.908728</ele>
        <time>2020-08-26T09:11:42.374Z</time>
      </trkpt>
      <trkpt lat="48.472036" lon="16.852260">
        <ele>193.859150</ele>
        <time>2020-08-26T09:11:44.392Z</time>
      </trkpt>
      <trkpt lat="48.471968" lon="16.852397">
        <ele>193.774312</ele>
        <time>2020-08-26T09:11:46.360Z</time>
      </trkpt>
      <trkpt lat="48.471907" lon="16.852526">
        <ele>193.625850</ele>
        <time>2020-08-26T09:11:48.392Z</time>
      </trkpt>
      <trkpt lat="48.471849" lon="16.852648">
        <ele>193.485190</ele>
        <time>2020-08-26T09:11:50.371Z</time>
      </trkpt>
      <trkpt lat="48.471792" lon="16.852761">
        <ele>193.352152</ele>
        <time>2020-08-26T09:11:59.365Z</time>
      </trkpt>
      <trkpt lat="48.471720" lon="16.852897">
        <ele>193.189083</ele>
        <time>2020-08-26T09:12:03.372Z</time>
      </trkpt>
      <trkpt lat="48.471652" lon="16.853069">
        <ele>193.001447</ele>
        <time>2020-08-26T09:12:06.401Z</time>
      </trkpt>
      <trkpt lat="48.471602" lon="16.853192">
        <ele>192.866262</ele>
        <time>2020-08-26T09:12:08.361Z</time>
      </trkpt>
      <trkpt lat="48.471548" lon="16.853310">
        <ele>192.731919</ele>
        <time>2020-08-26T09:12:10.364Z</time>
      </trkpt>
      <trkpt lat="48.471486" lon="16.853423">
        <ele>192.594487</ele>
        <time>2020-08-26T09:12:12.382Z</time>
      </trkpt>
      <trkpt lat="48.471416" lon="16.853550">
        <ele>192.439741</ele>
        <time>2020-08-26T09:12:14.372Z</time>
      </trkpt>
      <trkpt lat="48.471346" lon="16.853679">
        <ele>192.283549</ele>
        <time>2020-08-26T09:12:16.379Z</time>
      </trkpt>
      <trkpt lat="48.471277" lon="16.853806">
        <ele>192.129702</ele>
        <time>2020-08-26T09:12:18.376Z</time>
      </trkpt>
      <trkpt lat="48.471208" lon="16.853936">
        <ele>191.973670</ele>
        <time>2020-08-26T09:12:20.372Z</time>
      </trkpt>
      <trkpt lat="48.471131" lon="16.854060">
        <ele>191.814482</ele>
        <time>2020-08-26T09:12:22.371Z</time>
      </trkpt>
      <trkpt lat="48.471054" lon="16.854185">
        <ele>191.654610</ele>
        <time>2020-08-26T09:12:24.392Z</time>
      </trkpt>
      <trkpt lat="48.470980" lon="16.854308">
        <ele>191.498985</ele>
        <time>2020-08-26T09:12:26.371Z</time>
      </trkpt>
      <trkpt lat="48.470905" lon="16.854437">
        <ele>191.338223</ele>
        <time>2020-08-26T09:12:28.370Z</time>
      </trkpt>
      <trkpt lat="48.470832" lon="16.854573">
        <ele>191.221124</ele>
        <time>2020-08-26T09:12:30.395Z</time>
      </trkpt>
      <trkpt lat="48.470759" lon="16.854714">
        <ele>191.125481</ele>
        <time>2020-08-26T09:12:32.411Z</time>
      </trkpt>
      <trkpt lat="48.470688" lon="16.854848">
        <ele>191.033775</ele>
        <time>2020-08-26T09:12:34.365Z</time>
      </trkpt>
      <trkpt lat="48.470616" lon="16.854982">
        <ele>190.941564</ele>
        <time>2020-08-26T09:12:36.389Z</time>
      </trkpt>
      <trkpt lat="48.470544" lon="16.855115">
        <ele>190.849766</ele>
        <time>2020-08-26T09:12:38.367Z</time>
      </trkpt>
      <trkpt lat="48.470471" lon="16.855245">
        <ele>190.758687</ele>
        <time>2020-08-26T09:12:40.382Z</time>
      </trkpt>
      <trkpt lat="48.470398" lon="16.855379">
        <ele>190.665965</ele>
        <time>2020-08-26T09:12:42.361Z</time>
      </trkpt>
      <trkpt lat="48.470326" lon="16.855507">
        <ele>190.576222</ele>
        <time>2020-08-26T09:12:44.409Z</time>
      </trkpt>
      <trkpt lat="48.470257" lon="16.855631">
        <ele>190.489674</ele>
        <time>2020-08-26T09:12:46.397Z</time>
      </trkpt>
      <trkpt lat="48.470187" lon="16.855755">
        <ele>190.402605</ele>
        <time>2020-08-26T09:12:48.358Z</time>
      </trkpt>
      <trkpt lat="48.470114" lon="16.855890">
        <ele>190.309470</ele>
        <time>2020-08-26T09:12:50.395Z</time>
      </trkpt>
      <trkpt lat="48.470046" lon="16.856014">
        <ele>190.223437</ele>
        <time>2020-08-26T09:12:52.374Z</time>
      </trkpt>
      <trkpt lat="48.469981" lon="16.856140">
        <ele>190.138085</ele>
        <time>2020-08-26T09:12:54.395Z</time>
      </trkpt>
      <trkpt lat="48.469917" lon="16.856272">
        <ele>190.050657</ele>
        <time>2020-08-26T09:12:56.395Z</time>
      </trkpt>
      <trkpt lat="48.469852" lon="16.856402">
        <ele>189.963607</ele>
        <time>2020-08-26T09:12:58.364Z</time>
      </trkpt>
      <trkpt lat="48.469789" lon="16.856530">
        <ele>189.878379</ele>
        <time>2020-08-26T09:13:00.375Z</time>
      </trkpt>
      <trkpt lat="48.469720" lon="16.856660">
        <ele>189.801456</ele>
        <time>2020-08-26T09:13:02.377Z</time>
      </trkpt>
      <trkpt lat="48.469648" lon="16.856791">
        <ele>189.735706</ele>
        <time>2020-08-26T09:13:04.376Z</time>
      </trkpt>
      <trkpt lat="48.469578" lon="16.856924">
        <ele>189.670090</ele>
        <time>2020-08-26T09:13:06.390Z</time>
      </trkpt>
      <trkpt lat="48.469509" lon="16.857053">
        <ele>189.606045</ele>
        <time>2020-08-26T09:13:08.366Z</time>
      </trkpt>
      <trkpt lat="48.469442" lon="16.857181">
        <ele>189.543029</ele>
        <time>2020-08-26T09:13:10.402Z</time>
      </trkpt>
      <trkpt lat="48.469387" lon="16.857305">
        <ele>189.485381</ele>
        <time>2020-08-26T09:13:12.398Z</time>
      </trkpt>
      <trkpt lat="48.469322" lon="16.857428">
        <ele>189.424603</ele>
        <time>2020-08-26T09:13:14.354Z</time>
      </trkpt>
      <trkpt lat="48.469251" lon="16.857547">
        <ele>189.362743</ele>
        <time>2020-08-26T09:13:16.374Z</time>
      </trkpt>
      <trkpt lat="48.469180" lon="16.857670">
        <ele>189.299726</ele>
        <time>2020-08-26T09:13:18.399Z</time>
      </trkpt>
      <trkpt lat="48.469108" lon="16.857791">
        <ele>189.236902</ele>
        <time>2020-08-26T09:13:20.367Z</time>
      </trkpt>
      <trkpt lat="48.469043" lon="16.857910">
        <ele>189.177324</ele>
        <time>2020-08-26T09:13:22.367Z</time>
      </trkpt>
      <trkpt lat="48.468975" lon="16.858021">
        <ele>189.118927</ele>
        <time>2020-08-26T09:13:24.364Z</time>
      </trkpt>
      <trkpt lat="48.468907" lon="16.858142">
        <ele>189.057635</ele>
        <time>2020-08-26T09:13:26.373Z</time>
      </trkpt>
      <trkpt lat="48.468829" lon="16.858247">
        <ele>188.996703</ele>
        <time>2020-08-26T09:13:28.379Z</time>
      </trkpt>
      <trkpt lat="48.468746" lon="16.858339">
        <ele>188.936673</ele>
        <time>2020-08-26T09:13:30.360Z</time>
      </trkpt>
      <trkpt lat="48.468666" lon="16.858443">
        <ele>188.875119</ele>
        <time>2020-08-26T09:13:32.376Z</time>
      </trkpt>
      <trkpt lat="48.468582" lon="16.858553">
        <ele>188.810286</ele>
        <time>2020-08-26T09:13:34.401Z</time>
      </trkpt>
      <trkpt lat="48.468500" lon="16.858659">
        <ele>188.750793</ele>
        <time>2020-08-26T09:13:36.391Z</time>
      </trkpt>
      <trkpt lat="48.468415" lon="16.858767">
        <ele>188.691985</ele>
        <time>2020-08-26T09:13:38.377Z</time>
      </trkpt>
      <trkpt lat="48.468326" lon="16.858877">
        <ele>188.631102</ele>
        <time>2020-08-26T09:13:40.385Z</time>
      </trkpt>
      <trkpt lat="48.468243" lon="16.858992">
        <ele>188.571467</ele>
        <time>2020-08-26T09:13:42.393Z</time>
      </trkpt>
      <trkpt lat="48.468167" lon="16.859107">
        <ele>188.514504</ele>
        <time>2020-08-26T09:13:44.387Z</time>
      </trkpt>
      <trkpt lat="48.468095" lon="16.859217">
        <ele>188.460277</ele>
        <time>2020-08-26T09:13:46.398Z</time>
      </trkpt>
      <trkpt lat="48.468024" lon="16.859330">
        <ele>188.405662</ele>
        <time>2020-08-26T09:13:48.374Z</time>
      </trkpt>
      <trkpt lat="48.467983" lon="16.859469">
        <ele>188.352289</ele>
        <time>2020-08-26T09:13:50.358Z</time>
      </trkpt>
      <trkpt lat="48.468007" lon="16.859612">
        <ele>188.300539</ele>
        <time>2020-08-26T09:13:52.362Z</time>
      </trkpt>
      <trkpt lat="48.468083" lon="16.859706">
        <ele>188.248534</ele>
        <time>2020-08-26T09:13:54.372Z</time>
      </trkpt>
      <trkpt lat="48.468176" lon="16.859776">
        <ele>188.193539</ele>
        <time>2020-08-26T09:13:56.363Z</time>
      </trkpt>
      <trkpt lat="48.468268" lon="16.859846">
        <ele>188.139016</ele>
        <time>2020-08-26T09:13:58.407Z</time>
      </trkpt>
      <trkpt lat="48.468359" lon="16.859926">
        <ele>188.083284</ele>
        <time>2020-08-26T09:14:00.392Z</time>
      </trkpt>
      <trkpt lat="48.468450" lon="16.860016">
        <ele>188.025706</ele>
        <time>2020-08-26T09:14:02.363Z</time>
      </trkpt>
      <trkpt lat="48.468542" lon="16.860109">
        <ele>187.967105</ele>
        <time>2020-08-26T09:14:04.370Z</time>
      </trkpt>
      <trkpt lat="48.468634" lon="16.860195">
        <ele>187.909835</ele>
        <time>2020-08-26T09:14:06.388Z</time>
      </trkpt>
      <trkpt lat="48.468731" lon="16.860282">
        <ele>187.850121</ele>
        <time>2020-08-26T09:14:08.372Z</time>
      </trkpt>
      <trkpt lat="48.468823" lon="16.860366">
        <ele>187.816708</ele>
        <time>2020-08-26T09:14:10.360Z</time>
      </trkpt>
      <trkpt lat="48.468918" lon="16.860438">
        <ele>187.793605</ele>
        <time>2020-08-26T09:14:12.374Z</time>
      </trkpt>
      <trkpt lat="48.469017" lon="16.860512">
        <ele>187.769596</ele>
        <time>2020-08-26T09:14:14.379Z</time>
      </trkpt>
      <trkpt lat="48.469115" lon="16.860600">
        <ele>187.744813</ele>
        <time>2020-08-26T09:14:16.352Z</time>
      </trkpt>
      <trkpt lat="48.469215" lon="16.860689">
        <ele>187.719582</ele>
        <time>2020-08-26T09:14:18.357Z</time>
      </trkpt>
      <trkpt lat="48.469316" lon="16.860771">
        <ele>187.694657</ele>
        <time>2020-08-26T09:14:20.355Z</time>
      </trkpt>
      <trkpt lat="48.469415" lon="16.860857">
        <ele>187.669832</ele>
        <time>2020-08-26T09:14:22.379Z</time>
      </trkpt>
      <trkpt lat="48.469518" lon="16.860947">
        <ele>187.643966</ele>
        <time>2020-08-26T09:14:24.389Z</time>
      </trkpt>
      <trkpt lat="48.469614" lon="16.861038">
        <ele>187.619327</ele>
        <time>2020-08-26T09:14:26.362Z</time>
      </trkpt>
      <trkpt lat="48.469709" lon="16.861133">
        <ele>187.594559</ele>
        <time>2020-08-26T09:14:28.360Z</time>
      </trkpt>
      <trkpt lat="48.469804" lon="16.861238">
        <ele>187.568967</ele>
        <time>2020-08-26T09:14:30.377Z</time>
      </trkpt>
      <trkpt lat="48.469893" lon="16.861339">
        <ele>187.544764</ele>
        <time>2020-08-26T09:14:32.391Z</time>
      </trkpt>
      <trkpt lat="48.469982" lon="16.861439">
        <ele>187.520648</ele>
        <time>2020-08-26T09:14:34.358Z</time>
      </trkpt>
      <trkpt lat="48.470067" lon="16.861533">
        <ele>187.497745</ele>
        <time>2020-08-26T09:14:36.367Z</time>
      </trkpt>
      <trkpt lat="48.470151" lon="16.861627">
        <ele>187.475017</ele>
        <time>2020-08-26T09:14:38.367Z</time>
      </trkpt>
      <trkpt lat="48.470227" lon="16.861735">
        <ele>187.452327</ele>
        <time>2020-08-26T09:14:40.397Z</time>
      </trkpt>
      <trkpt lat="48.470309" lon="16.861830">
        <ele>187.441337</ele>
        <time>2020-08-26T09:14:42.374Z</time>
      </trkpt>
      <trkpt lat="48.470395" lon="16.861933">
        <ele>187.439598</ele>
        <time>2020-08-26T09:14:44.374Z</time>
      </trkpt>
      <trkpt lat="48.470484" lon="16.862026">
        <ele>187.437882</ele>
        <time>2020-08-26T09:14:46.371Z</time>
      </trkpt>
      <trkpt lat="48.470574" lon="16.862122">
        <ele>187.436136</ele>
        <time>2020-08-26T09:14:48.380Z</time>
      </trkpt>
      <trkpt lat="48.470669" lon="16.862215">
        <ele>187.434342</ele>
        <time>2020-08-26T09:14:50.402Z</time>
      </trkpt>
      <trkpt lat="48.470774" lon="16.862292">
        <ele>187.432493</ele>
        <time>2020-08-26T09:14:52.376Z</time>
      </trkpt>
      <trkpt lat="48.470877" lon="16.862366">
        <ele>187.430686</ele>
        <time>2020-08-26T09:14:54.365Z</time>
      </trkpt>
      <trkpt lat="48.470980" lon="16.862438">
        <ele>187.428887</ele>
        <time>2020-08-26T09:14:56.391Z</time>
      </trkpt>
      <trkpt lat="48.471086" lon="16.862506">
        <ele>187.427063</ele>
        <time>2020-08-26T09:14:58.398Z</time>
      </trkpt>
      <trkpt lat="48.471186" lon="16.862561">
        <ele>187.425377</ele>
        <time>2020-08-26T09:15:00.356Z</time>
      </trkpt>
      <trkpt lat="48.471291" lon="16.862610">
        <ele>187.423636</ele>
        <time>2020-08-26T09:15:02.373Z</time>
      </trkpt>
      <trkpt lat="48.471395" lon="16.862653">
        <ele>187.421928</ele>
        <time>2020-08-26T09:15:04.376Z</time>
      </trkpt>
      <trkpt lat="48.471501" lon="16.862696">
        <ele>187.420189</ele>
        <time>2020-08-26T09:15:06.363Z</time>
      </trkpt>
      <trkpt lat="48.471608" lon="16.862735">
        <ele>187.418445</ele>
        <time>2020-08-26T09:15:08.374Z</time>
      </trkpt>
      <trkpt lat="48.471722" lon="16.862764">
        <ele>187.416614</ele>
        <time>2020-08-26T09:15:10.407Z</time>
      </trkpt>
      <trkpt lat="48.471838" lon="16.862785">
        <ele>187.414763</ele>
        <time>2020-08-26T09:15:12.383Z</time>
      </trkpt>
      <trkpt lat="48.471952" lon="16.862808">
        <ele>187.399439</ele>
        <time>2020-08-26T09:15:14.365Z</time>
      </trkpt>
      <trkpt lat="48.472066" lon="16.862835">
        <ele>187.367032</ele>
        <time>2020-08-26T09:15:16.365Z</time>
      </trkpt>
      <trkpt lat="48.472184" lon="16.862865">
        <ele>187.333427</ele>
        <time>2020-08-26T09:15:18.379Z</time>
      </trkpt>
      <trkpt lat="48.472300" lon="16.862894">
        <ele>187.300407</ele>
        <time>2020-08-26T09:15:20.378Z</time>
      </trkpt>
      <trkpt lat="48.472418" lon="16.862924">
        <ele>187.266801</ele>
        <time>2020-08-26T09:15:22.388Z</time>
      </trkpt>
      <trkpt lat="48.472533" lon="16.862942">
        <ele>187.234333</ele>
        <time>2020-08-26T09:15:24.361Z</time>
      </trkpt>
      <trkpt lat="48.472649" lon="16.862956">
        <ele>187.201653</ele>
        <time>2020-08-26T09:15:26.374Z</time>
      </trkpt>
      <trkpt lat="48.472764" lon="16.862989">
        <ele>187.168778</ele>
        <time>2020-08-26T09:15:28.380Z</time>
      </trkpt>
      <trkpt lat="48.472879" lon="16.863034">
        <ele>187.135414</ele>
        <time>2020-08-26T09:15:30.369Z</time>
      </trkpt>
      <trkpt lat="48.472997" lon="16.863081">
        <ele>187.101140</ele>
        <time>2020-08-26T09:15:32.410Z</time>
      </trkpt>
      <trkpt lat="48.473110" lon="16.863154">
        <ele>187.066618</ele>
        <time>2020-08-26T09:15:34.376Z</time>
      </trkpt>
      <trkpt lat="48.473207" lon="16.863265">
        <ele>187.032426</ele>
        <time>2020-08-26T09:15:36.371Z</time>
      </trkpt>
      <trkpt lat="48.473295" lon="16.863387">
        <ele>186.998860</ele>
        <time>2020-08-26T09:15:38.401Z</time>
      </trkpt>
      <trkpt lat="48.473377" lon="16.863513">
        <ele>186.965988</ele>
        <time>2020-08-26T09:15:40.363Z</time>
      </trkpt>
      <trkpt lat="48.473456" lon="16.863646">
        <ele>186.932741</ele>
        <time>2020-08-26T09:15:42.384Z</time>
      </trkpt>
      <trkpt lat="48.473533" lon="16.863777">
        <ele>186.896572</ele>
        <time>2020-08-26T09:15:44.356Z</time>
      </trkpt>
      <trkpt lat="48.473612" lon="16.863908">
        <ele>186.849727</ele>
        <time>2020-08-26T09:15:46.374Z</time>
      </trkpt>
      <trkpt lat="48.473690" lon="16.864039">
        <ele>186.803149</ele>
        <time>2020-08-26T09:15:48.362Z</time>
      </trkpt>
      <trkpt lat="48.473766" lon="16.864170">
        <ele>186.757101</ele>
        <time>2020-08-26T09:15:50.390Z</time>
      </trkpt>
      <trkpt lat="48.473843" lon="16.864297">
        <ele>186.711575</ele>
        <time>2020-08-26T09:15:52.364Z</time>
      </trkpt>
      <trkpt lat="48.473920" lon="16.864423">
        <ele>186.666245</ele>
        <time>2020-08-26T09:15:54.348Z</time>
      </trkpt>
      <trkpt lat="48.473998" lon="16.864548">
        <ele>186.620836</ele>
        <time>2020-08-26T09:15:56.379Z</time>
      </trkpt>
      <trkpt lat="48.474076" lon="16.864676">
        <ele>186.574846</ele>
        <time>2020-08-26T09:15:58.371Z</time>
      </trkpt>
      <trkpt lat="48.474153" lon="16.864810">
        <ele>186.527937</ele>
        <time>2020-08-26T09:16:00.363Z</time>
      </trkpt>
      <trkpt lat="48.474229" lon="16.864944">
        <ele>186.481289</ele>
        <time>2020-08-26T09:16:02.376Z</time>
      </trkpt>
      <trkpt lat="48.474308" lon="16.865078">
        <ele>186.433854</ele>
        <time>2020-08-26T09:16:04.384Z</time>
      </trkpt>
      <trkpt lat="48.474387" lon="16.865208">
        <ele>186.387205</ele>
        <time>2020-08-26T09:16:06.363Z</time>
      </trkpt>
      <trkpt lat="48.474467" lon="16.865340">
        <ele>186.339895</ele>
        <time>2020-08-26T09:16:08.374Z</time>
      </trkpt>
      <trkpt lat="48.474546" lon="16.865470">
        <ele>186.293246</ele>
        <time>2020-08-26T09:16:10.373Z</time>
      </trkpt>
      <trkpt lat="48.474625" lon="16.865598">
        <ele>186.246985</ele>
        <time>2020-08-26T09:16:12.402Z</time>
      </trkpt>
      <trkpt lat="48.474701" lon="16.865728">
        <ele>186.201136</ele>
        <time>2020-08-26T09:16:14.396Z</time>
      </trkpt>
      <trkpt lat="48.474780" lon="16.865859">
        <ele>186.152422</ele>
        <time>2020-08-26T09:16:16.408Z</time>
      </trkpt>
      <trkpt lat="48.474859" lon="16.865997">
        <ele>186.101732</ele>
        <time>2020-08-26T09:16:18.370Z</time>
      </trkpt>
      <trkpt lat="48.474936" lon="16.866139">
        <ele>186.050731</ele>
        <time>2020-08-26T09:16:20.353Z</time>
      </trkpt>
      <trkpt lat="48.475018" lon="16.866278">
        <ele>185.999003</ele>
        <time>2020-08-26T09:16:22.367Z</time>
      </trkpt>
      <trkpt lat="48.475107" lon="16.866404">
        <ele>185.947816</ele>
        <time>2020-08-26T09:16:24.373Z</time>
      </trkpt>
      <trkpt lat="48.475196" lon="16.866532">
        <ele>185.896248</ele>
        <time>2020-08-26T09:16:26.367Z</time>
      </trkpt>
      <trkpt lat="48.475281" lon="16.866662">
        <ele>185.845486</ele>
        <time>2020-08-26T09:16:28.379Z</time>
      </trkpt>
      <trkpt lat="48.475366" lon="16.866785">
        <ele>185.796091</ele>
        <time>2020-08-26T09:16:30.361Z</time>
      </trkpt>
      <trkpt lat="48.475456" lon="16.866900">
        <ele>185.746628</ele>
        <time>2020-08-26T09:16:32.407Z</time>
      </trkpt>
      <trkpt lat="48.475555" lon="16.866990">
        <ele>185.698155</ele>
        <time>2020-08-26T09:16:34.363Z</time>
      </trkpt>
      <trkpt lat="48.475660" lon="16.867083">
        <ele>185.647093</ele>
        <time>2020-08-26T09:16:36.366Z</time>
      </trkpt>
      <trkpt lat="48.475764" lon="16.867176">
        <ele>185.596393</ele>
        <time>2020-08-26T09:16:38.398Z</time>
      </trkpt>
      <trkpt lat="48.475874" lon="16.867274">
        <ele>185.542819</ele>
        <time>2020-08-26T09:16:40.388Z</time>
      </trkpt>
      <trkpt lat="48.475980" lon="16.867366">
        <ele>185.491534</ele>
        <time>2020-08-26T09:16:42.373Z</time>
      </trkpt>
      <trkpt lat="48.476086" lon="16.867461">
        <ele>185.439829</ele>
        <time>2020-08-26T09:16:44.402Z</time>
      </trkpt>
      <trkpt lat="48.476193" lon="16.867551">
        <ele>185.391524</ele>
        <time>2020-08-26T09:16:46.369Z</time>
      </trkpt>
      <trkpt lat="48.476298" lon="16.867647">
        <ele>185.343313</ele>
        <time>2020-08-26T09:16:48.360Z</time>
      </trkpt>
      <trkpt lat="48.476406" lon="16.867736">
        <ele>185.294990</ele>
        <time>2020-08-26T09:16:50.360Z</time>
      </trkpt>
      <trkpt lat="48.476517" lon="16.867821">
        <ele>185.246111</ele>
        <time>2020-08-26T09:16:52.369Z</time>
      </trkpt>
      <trkpt lat="48.476625" lon="16.867909">
        <ele>185.197912</ele>
        <time>2020-08-26T09:16:54.368Z</time>
      </trkpt>
      <trkpt lat="48.476734" lon="16.867997">
        <ele>185.149368</ele>
        <time>2020-08-26T09:16:56.386Z</time>
      </trkpt>
      <trkpt lat="48.476843" lon="16.868082">
        <ele>185.101187</ele>
        <time>2020-08-26T09:16:58.376Z</time>
      </trkpt>
      <trkpt lat="48.476951" lon="16.868169">
        <ele>185.053112</ele>
        <time>2020-08-26T09:17:00.367Z</time>
      </trkpt>
      <trkpt lat="48.477062" lon="16.868251">
        <ele>185.004581</ele>
        <time>2020-08-26T09:17:02.362Z</time>
      </trkpt>
      <trkpt lat="48.477173" lon="16.868330">
        <ele>184.956388</ele>
        <time>2020-08-26T09:17:04.368Z</time>
      </trkpt>
      <trkpt lat="48.477282" lon="16.868409">
        <ele>184.908905</ele>
        <time>2020-08-26T09:17:06.399Z</time>
      </trkpt>
      <trkpt lat="48.477390" lon="16.868491">
        <ele>184.861429</ele>
        <time>2020-08-26T09:17:08.385Z</time>
      </trkpt>
      <trkpt lat="48.477501" lon="16.868572">
        <ele>184.813012</ele>
        <time>2020-08-26T09:17:10.377Z</time>
      </trkpt>
      <trkpt lat="48.477620" lon="16.868615">
        <ele>184.764963</ele>
        <time>2020-08-26T09:17:12.372Z</time>
      </trkpt>
      <trkpt lat="48.477742" lon="16.868635">
        <ele>184.733651</ele>
        <time>2020-08-26T09:17:14.405Z</time>
      </trkpt>
      <trkpt lat="48.477861" lon="16.868659">
        <ele>184.744736</ele>
        <time>2020-08-26T09:17:16.367Z</time>
      </trkpt>
      <trkpt lat="48.477976" lon="16.868709">
        <ele>184.755787</ele>
        <time>2020-08-26T09:17:18.371Z</time>
      </trkpt>
      <trkpt lat="48.478063" lon="16.868839">
        <ele>184.767094</ele>
        <time>2020-08-26T09:17:20.354Z</time>
      </trkpt>
      <trkpt lat="48.478127" lon="16.868991">
        <ele>184.778116</ele>
        <time>2020-08-26T09:17:22.357Z</time>
      </trkpt>
      <trkpt lat="48.478184" lon="16.869146">
        <ele>184.788965</ele>
        <time>2020-08-26T09:17:24.358Z</time>
      </trkpt>
      <trkpt lat="48.478226" lon="16.869310">
        <ele>184.799726</ele>
        <time>2020-08-26T09:17:26.368Z</time>
      </trkpt>
      <trkpt lat="48.478255" lon="16.869481">
        <ele>184.810530</ele>
        <time>2020-08-26T09:17:28.381Z</time>
      </trkpt>
      <trkpt lat="48.478275" lon="16.869650">
        <ele>184.821038</ele>
        <time>2020-08-26T09:17:30.365Z</time>
      </trkpt>
      <trkpt lat="48.478299" lon="16.869813">
        <ele>184.831258</ele>
        <time>2020-08-26T09:17:32.400Z</time>
      </trkpt>
      <trkpt lat="48.478347" lon="16.869960">
        <ele>184.841288</ele>
        <time>2020-08-26T09:17:34.357Z</time>
      </trkpt>
      <trkpt lat="48.478442" lon="16.870062">
        <ele>184.852055</ele>
        <time>2020-08-26T09:17:36.372Z</time>
      </trkpt>
      <trkpt lat="48.478560" lon="16.870130">
        <ele>184.863718</ele>
        <time>2020-08-26T09:17:38.373Z</time>
      </trkpt>
      <trkpt lat="48.478681" lon="16.870186">
        <ele>184.875404</ele>
        <time>2020-08-26T09:17:40.370Z</time>
      </trkpt>
      <trkpt lat="48.478797" lon="16.870234">
        <ele>184.886511</ele>
        <time>2020-08-26T09:17:42.371Z</time>
      </trkpt>
      <trkpt lat="48.478912" lon="16.870280">
        <ele>184.892062</ele>
        <time>2020-08-26T09:17:44.389Z</time>
      </trkpt>
      <trkpt lat="48.479027" lon="16.870326">
        <ele>184.842254</ele>
        <time>2020-08-26T09:17:46.374Z</time>
      </trkpt>
      <trkpt lat="48.479137" lon="16.870375">
        <ele>184.794237</ele>
        <time>2020-08-26T09:17:48.393Z</time>
      </trkpt>
      <trkpt lat="48.479242" lon="16.870433">
        <ele>184.747424</ele>
        <time>2020-08-26T09:17:50.376Z</time>
      </trkpt>
      <trkpt lat="48.479351" lon="16.870490">
        <ele>184.699127</ele>
        <time>2020-08-26T09:17:52.370Z</time>
      </trkpt>
      <trkpt lat="48.479462" lon="16.870542">
        <ele>184.650468</ele>
        <time>2020-08-26T09:17:54.373Z</time>
      </trkpt>
      <trkpt lat="48.479578" lon="16.870590">
        <ele>184.600111</ele>
        <time>2020-08-26T09:17:56.372Z</time>
      </trkpt>
      <trkpt lat="48.479692" lon="16.870636">
        <ele>184.550707</ele>
        <time>2020-08-26T09:17:58.362Z</time>
      </trkpt>
      <trkpt lat="48.479803" lon="16.870684">
        <ele>184.502365</ele>
        <time>2020-08-26T09:18:00.377Z</time>
      </trkpt>
      <trkpt lat="48.479910" lon="16.870730">
        <ele>184.455786</ele>
        <time>2020-08-26T09:18:02.387Z</time>
      </trkpt>
      <trkpt lat="48.480018" lon="16.870774">
        <ele>184.408952</ele>
        <time>2020-08-26T09:18:04.365Z</time>
      </trkpt>
      <trkpt lat="48.480127" lon="16.870827">
        <ele>184.361007</ele>
        <time>2020-08-26T09:18:06.371Z</time>
      </trkpt>
      <trkpt lat="48.480236" lon="16.870878">
        <ele>184.313230</ele>
        <time>2020-08-26T09:18:08.385Z</time>
      </trkpt>
      <trkpt lat="48.480346" lon="16.870931">
        <ele>184.264887</ele>
        <time>2020-08-26T09:18:10.385Z</time>
      </trkpt>
      <trkpt lat="48.480461" lon="16.870984">
        <ele>184.214545</ele>
        <time>2020-08-26T09:18:12.369Z</time>
      </trkpt>
      <trkpt lat="48.480579" lon="16.871033">
        <ele>184.163307</ele>
        <time>2020-08-26T09:18:14.374Z</time>
      </trkpt>
      <trkpt lat="48.480698" lon="16.871083">
        <ele>184.094194</ele>
        <time>2020-08-26T09:18:16.381Z</time>
      </trkpt>
      <trkpt lat="48.480812" lon="16.871134">
        <ele>184.017283</ele>
        <time>2020-08-26T09:18:18.398Z</time>
      </trkpt>
      <trkpt lat="48.480921" lon="16.871187">
        <ele>183.943208</ele>
        <time>2020-08-26T09:18:20.384Z</time>
      </trkpt>
      <trkpt lat="48.481024" lon="16.871253">
        <ele>183.870825</ele>
        <time>2020-08-26T09:18:22.381Z</time>
      </trkpt>
      <trkpt lat="48.481124" lon="16.871322">
        <ele>183.799698</ele>
        <time>2020-08-26T09:18:24.375Z</time>
      </trkpt>
      <trkpt lat="48.481218" lon="16.871389">
        <ele>183.732453</ele>
        <time>2020-08-26T09:18:26.385Z</time>
      </trkpt>
      <trkpt lat="48.481313" lon="16.871454">
        <ele>183.664980</ele>
        <time>2020-08-26T09:18:28.374Z</time>
      </trkpt>
      <trkpt lat="48.481413" lon="16.871517">
        <ele>183.594885</ele>
        <time>2020-08-26T09:18:30.369Z</time>
      </trkpt>
      <trkpt lat="48.481511" lon="16.871582">
        <ele>183.525641</ele>
        <time>2020-08-26T09:18:32.393Z</time>
      </trkpt>
      <trkpt lat="48.481608" lon="16.871642">
        <ele>183.457830</ele>
        <time>2020-08-26T09:18:34.379Z</time>
      </trkpt>
      <trkpt lat="48.481707" lon="16.871705">
        <ele>183.388331</ele>
        <time>2020-08-26T09:18:36.371Z</time>
      </trkpt>
      <trkpt lat="48.481806" lon="16.871774">
        <ele>183.317793</ele>
        <time>2020-08-26T09:18:38.368Z</time>
      </trkpt>
      <trkpt lat="48.481911" lon="16.871845">
        <ele>183.243367</ele>
        <time>2020-08-26T09:18:40.389Z</time>
      </trkpt>
      <trkpt lat="48.482014" lon="16.871913">
        <ele>183.170644</ele>
        <time>2020-08-26T09:18:42.375Z</time>
      </trkpt>
      <trkpt lat="48.482115" lon="16.871982">
        <ele>183.098929</ele>
        <time>2020-08-26T09:18:44.370Z</time>
      </trkpt>
      <trkpt lat="48.482214" lon="16.872046">
        <ele>183.029263</ele>
        <time>2020-08-26T09:18:46.389Z</time>
      </trkpt>
      <trkpt lat="48.482313" lon="16.872108">
        <ele>182.974349</ele>
        <time>2020-08-26T09:18:48.366Z</time>
      </trkpt>
      <trkpt lat="48.482412" lon="16.872168">
        <ele>182.954636</ele>
        <time>2020-08-26T09:18:50.378Z</time>
      </trkpt>
      <trkpt lat="48.482514" lon="16.872232">
        <ele>182.934225</ele>
        <time>2020-08-26T09:18:52.381Z</time>
      </trkpt>
      <trkpt lat="48.482617" lon="16.872292">
        <ele>182.913824</ele>
        <time>2020-08-26T09:18:54.375Z</time>
      </trkpt>
      <trkpt lat="48.482719" lon="16.872352">
        <ele>182.893596</ele>
        <time>2020-08-26T09:18:56.396Z</time>
      </trkpt>
      <trkpt lat="48.482820" lon="16.872418">
        <ele>182.873259</ele>
        <time>2020-08-26T09:18:58.363Z</time>
      </trkpt>
      <trkpt lat="48.482923" lon="16.872488">
        <ele>182.852386</ele>
        <time>2020-08-26T09:19:00.368Z</time>
      </trkpt>
      <trkpt lat="48.483025" lon="16.872557">
        <ele>182.831732</ele>
        <time>2020-08-26T09:19:02.383Z</time>
      </trkpt>
      <trkpt lat="48.483131" lon="16.872618">
        <ele>182.810770</ele>
        <time>2020-08-26T09:19:04.406Z</time>
      </trkpt>
      <trkpt lat="48.483237" lon="16.872681">
        <ele>182.789720</ele>
        <time>2020-08-26T09:19:06.380Z</time>
      </trkpt>
      <trkpt lat="48.483345" lon="16.872746">
        <ele>182.768236</ele>
        <time>2020-08-26T09:19:08.372Z</time>
      </trkpt>
      <trkpt lat="48.483457" lon="16.872816">
        <ele>182.745836</ele>
        <time>2020-08-26T09:19:10.373Z</time>
      </trkpt>
      <trkpt lat="48.483567" lon="16.872891">
        <ele>182.723533</ele>
        <time>2020-08-26T09:19:12.364Z</time>
      </trkpt>
      <trkpt lat="48.483674" lon="16.872964">
        <ele>182.701835</ele>
        <time>2020-08-26T09:19:14.369Z</time>
      </trkpt>
      <trkpt lat="48.483786" lon="16.873036">
        <ele>182.679341</ele>
        <time>2020-08-26T09:19:16.374Z</time>
      </trkpt>
      <trkpt lat="48.483897" lon="16.873107">
        <ele>182.657065</ele>
        <time>2020-08-26T09:19:18.385Z</time>
      </trkpt>
      <trkpt lat="48.484005" lon="16.873176">
        <ele>182.645396</ele>
        <time>2020-08-26T09:19:20.401Z</time>
      </trkpt>
      <trkpt lat="48.484112" lon="16.873244">
        <ele>182.641262</ele>
        <time>2020-08-26T09:19:22.366Z</time>
      </trkpt>
      <trkpt lat="48.484217" lon="16.873306">
        <ele>182.637246</ele>
        <time>2020-08-26T09:19:24.383Z</time>
      </trkpt>
      <trkpt lat="48.484320" lon="16.873374">
        <ele>182.633242</ele>
        <time>2020-08-26T09:19:26.371Z</time>
      </trkpt>
      <trkpt lat="48.484422" lon="16.873436">
        <ele>182.629326</ele>
        <time>2020-08-26T09:19:28.371Z</time>
      </trkpt>
      <trkpt lat="48.484528" lon="16.873500">
        <ele>182.625260</ele>
        <time>2020-08-26T09:19:30.364Z</time>
      </trkpt>
      <trkpt lat="48.484631" lon="16.873564">
        <ele>182.621293</ele>
        <time>2020-08-26T09:19:32.370Z</time>
      </trkpt>
      <trkpt lat="48.484732" lon="16.873634">
        <ele>182.617335</ele>
        <time>2020-08-26T09:19:34.379Z</time>
      </trkpt>
      <trkpt lat="48.484830" lon="16.873701">
        <ele>182.613504</ele>
        <time>2020-08-26T09:19:36.398Z</time>
      </trkpt>
      <trkpt lat="48.484931" lon="16.873761">
        <ele>182.609638</ele>
        <time>2020-08-26T09:19:38.368Z</time>
      </trkpt>
      <trkpt lat="48.485036" lon="16.873808">
        <ele>182.605738</ele>
        <time>2020-08-26T09:19:40.362Z</time>
      </trkpt>
      <trkpt lat="48.485140" lon="16.873849">
        <ele>182.601910</ele>
        <time>2020-08-26T09:19:42.370Z</time>
      </trkpt>
      <trkpt lat="48.485242" lon="16.873891">
        <ele>182.598144</ele>
        <time>2020-08-26T09:19:44.364Z</time>
      </trkpt>
      <trkpt lat="48.485340" lon="16.873932">
        <ele>182.594523</ele>
        <time>2020-08-26T09:19:46.389Z</time>
      </trkpt>
      <trkpt lat="48.485430" lon="16.873969">
        <ele>182.591201</ele>
        <time>2020-08-26T09:19:48.410Z</time>
      </trkpt>
      <trkpt lat="48.485523" lon="16.874008">
        <ele>182.587763</ele>
        <time>2020-08-26T09:19:50.378Z</time>
      </trkpt>
      <trkpt lat="48.485615" lon="16.874049">
        <ele>182.584347</ele>
        <time>2020-08-26T09:19:52.376Z</time>
      </trkpt>
      <trkpt lat="48.485705" lon="16.874086">
        <ele>182.589666</ele>
        <time>2020-08-26T09:19:54.376Z</time>
      </trkpt>
      <trkpt lat="48.485799" lon="16.874120">
        <ele>182.597216</ele>
        <time>2020-08-26T09:19:56.367Z</time>
      </trkpt>
      <trkpt lat="48.485894" lon="16.874143">
        <ele>182.604731</ele>
        <time>2020-08-26T09:19:58.408Z</time>
      </trkpt>
      <trkpt lat="48.485993" lon="16.874178">
        <ele>182.612673</ele>
        <time>2020-08-26T09:20:00.359Z</time>
      </trkpt>
      <trkpt lat="48.486096" lon="16.874222">
        <ele>182.621034</ele>
        <time>2020-08-26T09:20:02.395Z</time>
      </trkpt>
      <trkpt lat="48.486200" lon="16.874265">
        <ele>182.629456</ele>
        <time>2020-08-26T09:20:04.360Z</time>
      </trkpt>
      <trkpt lat="48.486306" lon="16.874313">
        <ele>182.638100</ele>
        <time>2020-08-26T09:20:06.394Z</time>
      </trkpt>
      <trkpt lat="48.486407" lon="16.874391">
        <ele>182.646962</ele>
        <time>2020-08-26T09:20:08.358Z</time>
      </trkpt>
      <trkpt lat="48.486503" lon="16.874490">
        <ele>182.656044</ele>
        <time>2020-08-26T09:20:10.361Z</time>
      </trkpt>
      <trkpt lat="48.486601" lon="16.874601">
        <ele>182.665615</ele>
        <time>2020-08-26T09:20:12.363Z</time>
      </trkpt>
      <trkpt lat="48.486695" lon="16.874715">
        <ele>182.675034</ele>
        <time>2020-08-26T09:20:14.371Z</time>
      </trkpt>
      <trkpt lat="48.486786" lon="16.874845">
        <ele>182.684822</ele>
        <time>2020-08-26T09:20:16.377Z</time>
      </trkpt>
      <trkpt lat="48.486869" lon="16.874984">
        <ele>182.694508</ele>
        <time>2020-08-26T09:20:18.372Z</time>
      </trkpt>
      <trkpt lat="48.486941" lon="16.875127">
        <ele>182.703804</ele>
        <time>2020-08-26T09:20:20.382Z</time>
      </trkpt>
      <trkpt lat="48.487010" lon="16.875270">
        <ele>182.712960</ele>
        <time>2020-08-26T09:20:22.376Z</time>
      </trkpt>
      <trkpt lat="48.487075" lon="16.875419">
        <ele>182.722194</ele>
        <time>2020-08-26T09:20:24.378Z</time>
      </trkpt>
      <trkpt lat="48.487132" lon="16.875570">
        <ele>182.715562</ele>
        <time>2020-08-26T09:20:26.373Z</time>
      </trkpt>
      <trkpt lat="48.487191" lon="16.875718">
        <ele>182.704478</ele>
        <time>2020-08-26T09:20:28.381Z</time>
      </trkpt>
      <trkpt lat="48.487253" lon="16.875866">
        <ele>182.693241</ele>
        <time>2020-08-26T09:20:30.369Z</time>
      </trkpt>
      <trkpt lat="48.487317" lon="16.876019">
        <ele>182.681630</ele>
        <time>2020-08-26T09:20:32.390Z</time>
      </trkpt>
      <trkpt lat="48.487381" lon="16.876172">
        <ele>182.670019</ele>
        <time>2020-08-26T09:20:34.361Z</time>
      </trkpt>
      <trkpt lat="48.487446" lon="16.876322">
        <ele>182.658517</ele>
        <time>2020-08-26T09:20:36.371Z</time>
      </trkpt>
      <trkpt lat="48.487508" lon="16.876473">
        <ele>182.647117</ele>
        <time>2020-08-26T09:20:38.398Z</time>
      </trkpt>
      <trkpt lat="48.487575" lon="16.876619">
        <ele>182.635721</ele>
        <time>2020-08-26T09:20:40.387Z</time>
      </trkpt>
      <trkpt lat="48.487644" lon="16.876771">
        <ele>182.623897</ele>
        <time>2020-08-26T09:20:42.364Z</time>
      </trkpt>
      <trkpt lat="48.487706" lon="16.876922">
        <ele>182.612497</ele>
        <time>2020-08-26T09:20:44.392Z</time>
      </trkpt>
      <trkpt lat="48.487766" lon="16.877064">
        <ele>182.601690</ele>
        <time>2020-08-26T09:20:46.368Z</time>
      </trkpt>
      <trkpt lat="48.487829" lon="16.877201">
        <ele>182.590989</ele>
        <time>2020-08-26T09:20:48.366Z</time>
      </trkpt>
      <trkpt lat="48.487894" lon="16.877333">
        <ele>182.580435</ele>
        <time>2020-08-26T09:20:50.379Z</time>
      </trkpt>
      <trkpt lat="48.487970" lon="16.877450">
        <ele>182.569921</ele>
        <time>2020-08-26T09:20:52.375Z</time>
      </trkpt>
      <trkpt lat="48.488057" lon="16.877559">
        <ele>182.558971</ele>
        <time>2020-08-26T09:20:54.380Z</time>
      </trkpt>
      <trkpt lat="48.488152" lon="16.877660">
        <ele>182.540663</ele>
        <time>2020-08-26T09:20:56.373Z</time>
      </trkpt>
      <trkpt lat="48.488249" lon="16.877757">
        <ele>182.495290</ele>
        <time>2020-08-26T09:20:58.383Z</time>
      </trkpt>
      <trkpt lat="48.488347" lon="16.877858">
        <ele>182.449016</ele>
        <time>2020-08-26T09:21:00.369Z</time>
      </trkpt>
      <trkpt lat="48.488445" lon="16.877964">
        <ele>182.402001</ele>
        <time>2020-08-26T09:21:02.377Z</time>
      </trkpt>
      <trkpt lat="48.488543" lon="16.878076">
        <ele>182.354067</ele>
        <time>2020-08-26T09:21:04.399Z</time>
      </trkpt>
      <trkpt lat="48.488641" lon="16.878181">
        <ele>182.307203</ele>
        <time>2020-08-26T09:21:06.389Z</time>
      </trkpt>
      <trkpt lat="48.488739" lon="16.878287">
        <ele>182.260188</ele>
        <time>2020-08-26T09:21:08.363Z</time>
      </trkpt>
      <trkpt lat="48.488836" lon="16.878394">
        <ele>182.213338</ele>
        <time>2020-08-26T09:21:10.379Z</time>
      </trkpt>
      <trkpt lat="48.488936" lon="16.878502">
        <ele>182.165389</ele>
        <time>2020-08-26T09:21:12.377Z</time>
      </trkpt>
      <trkpt lat="48.489039" lon="16.878611">
        <ele>182.116336</ele>
        <time>2020-08-26T09:21:14.372Z</time>
      </trkpt>
      <trkpt lat="48.489144" lon="16.878721">
        <ele>182.066495</ele>
        <time>2020-08-26T09:21:16.375Z</time>
      </trkpt>
      <trkpt lat="48.489251" lon="16.878834">
        <ele>182.015572</ele>
        <time>2020-08-26T09:21:18.412Z</time>
      </trkpt>
      <trkpt lat="48.489360" lon="16.878952">
        <ele>181.963265</ele>
        <time>2020-08-26T09:21:20.374Z</time>
      </trkpt>
      <trkpt lat="48.489470" lon="16.879075">
        <ele>181.909882</ele>
        <time>2020-08-26T09:21:22.370Z</time>
      </trkpt>
      <trkpt lat="48.489581" lon="16.879196">
        <ele>181.856490</ele>
        <time>2020-08-26T09:21:24.372Z</time>
      </trkpt>
      <trkpt lat="48.489691" lon="16.879317">
        <ele>181.821071</ele>
        <time>2020-08-26T09:21:26.371Z</time>
      </trkpt>
      <trkpt lat="48.489800" lon="16.879439">
        <ele>181.788763</ele>
        <time>2020-08-26T09:21:28.374Z</time>
      </trkpt>
      <trkpt lat="48.489907" lon="16.879555">
        <ele>181.757398</ele>
        <time>2020-08-26T09:21:30.391Z</time>
      </trkpt>
      <trkpt lat="48.490016" lon="16.879665">
        <ele>181.726181</ele>
        <time>2020-08-26T09:21:32.367Z</time>
      </trkpt>
      <trkpt lat="48.490121" lon="16.879778">
        <ele>181.695479</ele>
        <time>2020-08-26T09:21:34.389Z</time>
      </trkpt>
      <trkpt lat="48.490224" lon="16.879886">
        <ele>181.665620</ele>
        <time>2020-08-26T09:21:36.377Z</time>
      </trkpt>
      <trkpt lat="48.490322" lon="16.879995">
        <ele>181.636637</ele>
        <time>2020-08-26T09:21:38.384Z</time>
      </trkpt>
      <trkpt lat="48.490417" lon="16.880106">
        <ele>181.608034</ele>
        <time>2020-08-26T09:21:40.374Z</time>
      </trkpt>
      <trkpt lat="48.490512" lon="16.880213">
        <ele>181.579813</ele>
        <time>2020-08-26T09:21:42.391Z</time>
      </trkpt>
      <trkpt lat="48.490607" lon="16.880320">
        <ele>181.551592</ele>
        <time>2020-08-26T09:21:44.398Z</time>
      </trkpt>
      <trkpt lat="48.490704" lon="16.880420">
        <ele>181.523626</ele>
        <time>2020-08-26T09:21:46.374Z</time>
      </trkpt>
      <trkpt lat="48.490800" lon="16.880520">
        <ele>181.495855</ele>
        <time>2020-08-26T09:21:48.377Z</time>
      </trkpt>
      <trkpt lat="48.490895" lon="16.880624">
        <ele>181.467915</ele>
        <time>2020-08-26T09:21:50.374Z</time>
      </trkpt>
      <trkpt lat="48.490989" lon="16.880734">
        <ele>181.439597</ele>
        <time>2020-08-26T09:21:52.378Z</time>
      </trkpt>
      <trkpt lat="48.491081" lon="16.880841">
        <ele>181.439750</ele>
        <time>2020-08-26T09:21:54.380Z</time>
      </trkpt>
      <trkpt lat="48.491172" lon="16.880942">
        <ele>181.499477</ele>
        <time>2020-08-26T09:21:56.360Z</time>
      </trkpt>
      <trkpt lat="48.491265" lon="16.881041">
        <ele>181.559653</ele>
        <time>2020-08-26T09:21:58.394Z</time>
      </trkpt>
      <trkpt lat="48.491359" lon="16.881138">
        <ele>181.619863</ele>
        <time>2020-08-26T09:22:00.383Z</time>
      </trkpt>
      <trkpt lat="48.491454" lon="16.881238">
        <ele>181.681105</ele>
        <time>2020-08-26T09:22:02.372Z</time>
      </trkpt>
      <trkpt lat="48.491549" lon="16.881342">
        <ele>181.743160</ele>
        <time>2020-08-26T09:22:04.372Z</time>
      </trkpt>
      <trkpt lat="48.491643" lon="16.881447">
        <ele>181.804995</ele>
        <time>2020-08-26T09:22:06.375Z</time>
      </trkpt>
      <trkpt lat="48.491734" lon="16.881548">
        <ele>181.864722</ele>
        <time>2020-08-26T09:22:08.370Z</time>
      </trkpt>
      <trkpt lat="48.491825" lon="16.881650">
        <ele>181.924657</ele>
        <time>2020-08-26T09:22:10.371Z</time>
      </trkpt>
      <trkpt lat="48.491913" lon="16.881749">
        <ele>181.982692</ele>
        <time>2020-08-26T09:22:12.408Z</time>
      </trkpt>
      <trkpt lat="48.492000" lon="16.881843">
        <ele>182.039266</ele>
        <time>2020-08-26T09:22:14.377Z</time>
      </trkpt>
      <trkpt lat="48.492082" lon="16.881926">
        <ele>182.091472</ele>
        <time>2020-08-26T09:22:16.403Z</time>
      </trkpt>
      <trkpt lat="48.492164" lon="16.882011">
        <ele>182.144071</ele>
        <time>2020-08-26T09:22:18.371Z</time>
      </trkpt>
      <trkpt lat="48.492243" lon="16.882094">
        <ele>182.194967</ele>
        <time>2020-08-26T09:22:20.373Z</time>
      </trkpt>
      <trkpt lat="48.492323" lon="16.882178">
        <ele>182.246497</ele>
        <time>2020-08-26T09:22:22.413Z</time>
      </trkpt>
      <trkpt lat="48.492406" lon="16.882266">
        <ele>182.300130</ele>
        <time>2020-08-26T09:22:24.397Z</time>
      </trkpt>
      <trkpt lat="48.492490" lon="16.882354">
        <ele>182.354196</ele>
        <time>2020-08-26T09:22:26.395Z</time>
      </trkpt>
      <trkpt lat="48.492572" lon="16.882449">
        <ele>182.390220</ele>
        <time>2020-08-26T09:22:28.364Z</time>
      </trkpt>
      <trkpt lat="48.492655" lon="16.882550">
        <ele>182.418437</ele>
        <time>2020-08-26T09:22:30.400Z</time>
      </trkpt>
      <trkpt lat="48.492742" lon="16.882641">
        <ele>182.446450</ele>
        <time>2020-08-26T09:22:32.373Z</time>
      </trkpt>
      <trkpt lat="48.492832" lon="16.882732">
        <ele>182.475120</ele>
        <time>2020-08-26T09:22:34.412Z</time>
      </trkpt>
      <trkpt lat="48.492929" lon="16.882817">
        <ele>182.504804</ele>
        <time>2020-08-26T09:22:36.386Z</time>
      </trkpt>
      <trkpt lat="48.493030" lon="16.882899">
        <ele>182.535155</ele>
        <time>2020-08-26T09:22:38.368Z</time>
      </trkpt>
      <trkpt lat="48.493133" lon="16.882982">
        <ele>182.566055</ele>
        <time>2020-08-26T09:22:40.374Z</time>
      </trkpt>
      <trkpt lat="48.493235" lon="16.883067">
        <ele>182.596891</ele>
        <time>2020-08-26T09:22:42.385Z</time>
      </trkpt>
      <trkpt lat="48.493334" lon="16.883152">
        <ele>182.627033</ele>
        <time>2020-08-26T09:22:44.362Z</time>
      </trkpt>
      <trkpt lat="48.493435" lon="16.883240">
        <ele>182.657897</ele>
        <time>2020-08-26T09:22:46.362Z</time>
      </trkpt>
      <trkpt lat="48.493534" lon="16.883324">
        <ele>182.687953</ele>
        <time>2020-08-26T09:22:48.376Z</time>
      </trkpt>
      <trkpt lat="48.493630" lon="16.883407">
        <ele>182.717232</ele>
        <time>2020-08-26T09:22:50.377Z</time>
      </trkpt>
      <trkpt lat="48.493728" lon="16.883490">
        <ele>182.746972</ele>
        <time>2020-08-26T09:22:52.386Z</time>
      </trkpt>
      <trkpt lat="48.493828" lon="16.883574">
        <ele>182.777259</ele>
        <time>2020-08-26T09:22:54.380Z</time>
      </trkpt>
      <trkpt lat="48.493927" lon="16.883658">
        <ele>182.807316</ele>
        <time>2020-08-26T09:22:56.368Z</time>
      </trkpt>
      <trkpt lat="48.494027" lon="16.883748">
        <ele>182.838128</ele>
        <time>2020-08-26T09:22:58.360Z</time>
      </trkpt>
      <trkpt lat="48.494120" lon="16.883835">
        <ele>182.919761</ele>
        <time>2020-08-26T09:23:00.361Z</time>
      </trkpt>
      <trkpt lat="48.494214" lon="16.883918">
        <ele>183.026202</ele>
        <time>2020-08-26T09:23:02.369Z</time>
      </trkpt>
      <trkpt lat="48.494306" lon="16.884003">
        <ele>183.131632</ele>
        <time>2020-08-26T09:23:04.385Z</time>
      </trkpt>
      <trkpt lat="48.494389" lon="16.884075">
        <ele>183.225199</ele>
        <time>2020-08-26T09:23:06.364Z</time>
      </trkpt>
      <trkpt lat="48.494470" lon="16.884153">
        <ele>183.319109</ele>
        <time>2020-08-26T09:23:08.379Z</time>
      </trkpt>
      <trkpt lat="48.494545" lon="16.884229">
        <ele>183.407403</ele>
        <time>2020-08-26T09:23:10.404Z</time>
      </trkpt>
      <trkpt lat="48.494640" lon="16.884252">
        <ele>183.501437</ele>
        <time>2020-08-26T09:23:12.370Z</time>
      </trkpt>
      <trkpt lat="48.494737" lon="16.884171">
        <ele>183.609786</ele>
        <time>2020-08-26T09:23:14.358Z</time>
      </trkpt>
      <trkpt lat="48.494792" lon="16.884039">
        <ele>183.710773</ele>
        <time>2020-08-26T09:23:16.370Z</time>
      </trkpt>
      <trkpt lat="48.494838" lon="16.883908">
        <ele>183.806792</ele>
        <time>2020-08-26T09:23:18.362Z</time>
      </trkpt>
      <trkpt lat="48.494886" lon="16.883787">
        <ele>183.898128</ele>
        <time>2020-08-26T09:23:20.373Z</time>
      </trkpt>
      <trkpt lat="48.494929" lon="16.883665">
        <ele>183.987624</ele>
        <time>2020-08-26T09:23:22.373Z</time>
      </trkpt>
      <trkpt lat="48.494973" lon="16.883509">
        <ele>184.097430</ele>
        <time>2020-08-26T09:23:25.365Z</time>
      </trkpt>
      <trkpt lat="48.495057" lon="16.883290">
        <ele>184.261314</ele>
        <time>2020-08-26T09:23:55.372Z</time>
      </trkpt>
      <trkpt lat="48.495104" lon="16.883127">
        <ele>184.376444</ele>
        <time>2020-08-26T09:23:58.354Z</time>
      </trkpt>
      <trkpt lat="48.495158" lon="16.882946">
        <ele>184.505003</ele>
        <time>2020-08-26T09:24:01.364Z</time>
      </trkpt>
      <trkpt lat="48.495189" lon="16.882817">
        <ele>184.593875</ele>
        <time>2020-08-26T09:24:03.366Z</time>
      </trkpt>
      <trkpt lat="48.495233" lon="16.882693">
        <ele>184.684445</ele>
        <time>2020-08-26T09:24:05.363Z</time>
      </trkpt>
      <trkpt lat="48.495279" lon="16.882562">
        <ele>184.779826</ele>
        <time>2020-08-26T09:24:07.361Z</time>
      </trkpt>
      <trkpt lat="48.495318" lon="16.882425">
        <ele>184.875754</ele>
        <time>2020-08-26T09:24:09.400Z</time>
      </trkpt>
      <trkpt lat="48.495353" lon="16.882284">
        <ele>184.972623</ele>
        <time>2020-08-26T09:24:11.358Z</time>
      </trkpt>
      <trkpt lat="48.495384" lon="16.882143">
        <ele>185.068199</ele>
        <time>2020-08-26T09:24:13.357Z</time>
      </trkpt>
      <trkpt lat="48.495418" lon="16.882004">
        <ele>185.163523</ele>
        <time>2020-08-26T09:24:15.374Z</time>
      </trkpt>
      <trkpt lat="48.495448" lon="16.881865">
        <ele>185.257573</ele>
        <time>2020-08-26T09:24:17.373Z</time>
      </trkpt>
      <trkpt lat="48.495474" lon="16.881719">
        <ele>185.354835</ele>
        <time>2020-08-26T09:24:19.379Z</time>
      </trkpt>
      <trkpt lat="48.495508" lon="16.881570">
        <ele>185.456219</ele>
        <time>2020-08-26T09:24:21.363Z</time>
      </trkpt>
      <trkpt lat="48.495547" lon="16.881422">
        <ele>185.558688</ele>
        <time>2020-08-26T09:24:23.397Z</time>
      </trkpt>
      <trkpt lat="48.495580" lon="16.881275">
        <ele>185.658540</ele>
        <time>2020-08-26T09:24:25.388Z</time>
      </trkpt>
      <trkpt lat="48.495611" lon="16.881131">
        <ele>185.755949</ele>
        <time>2020-08-26T09:24:27.355Z</time>
      </trkpt>
      <trkpt lat="48.495641" lon="16.880987">
        <ele>185.853062</ele>
        <time>2020-08-26T09:24:29.354Z</time>
      </trkpt>
      <trkpt lat="48.495668" lon="16.880837">
        <ele>185.953062</ele>
        <time>2020-08-26T09:24:31.356Z</time>
      </trkpt>
      <trkpt lat="48.495695" lon="16.880692">
        <ele>186.049961</ele>
        <time>2020-08-26T09:24:33.358Z</time>
      </trkpt>
      <trkpt lat="48.495723" lon="16.880549">
        <ele>186.145892</ele>
        <time>2020-08-26T09:24:35.375Z</time>
      </trkpt>
      <trkpt lat="48.495751" lon="16.880409">
        <ele>186.239975</ele>
        <time>2020-08-26T09:24:37.371Z</time>
      </trkpt>
      <trkpt lat="48.495781" lon="16.880270">
        <ele>186.334024</ele>
        <time>2020-08-26T09:24:39.366Z</time>
      </trkpt>
      <trkpt lat="48.495814" lon="16.880126">
        <ele>186.407259</ele>
        <time>2020-08-26T09:24:41.380Z</time>
      </trkpt>
      <trkpt lat="48.495850" lon="16.879982">
        <ele>186.475764</ele>
        <time>2020-08-26T09:24:43.379Z</time>
      </trkpt>
      <trkpt lat="48.495882" lon="16.879839">
        <ele>186.542945</ele>
        <time>2020-08-26T09:24:45.372Z</time>
      </trkpt>
      <trkpt lat="48.495913" lon="16.879694">
        <ele>186.610761</ele>
        <time>2020-08-26T09:24:47.385Z</time>
      </trkpt>
      <trkpt lat="48.495945" lon="16.879549">
        <ele>186.678787</ele>
        <time>2020-08-26T09:24:49.370Z</time>
      </trkpt>
      <trkpt lat="48.495973" lon="16.879404">
        <ele>186.746012</ele>
        <time>2020-08-26T09:24:51.361Z</time>
      </trkpt>
      <trkpt lat="48.495998" lon="16.879249">
        <ele>186.817017</ele>
        <time>2020-08-26T09:24:53.374Z</time>
      </trkpt>
      <trkpt lat="48.496029" lon="16.879094">
        <ele>186.889083</ele>
        <time>2020-08-26T09:24:55.385Z</time>
      </trkpt>
      <trkpt lat="48.496068" lon="16.878951">
        <ele>186.957912</ele>
        <time>2020-08-26T09:24:57.411Z</time>
      </trkpt>
      <trkpt lat="48.496113" lon="16.878816">
        <ele>187.025175</ele>
        <time>2020-08-26T09:24:59.371Z</time>
      </trkpt>
      <trkpt lat="48.496169" lon="16.878683">
        <ele>187.095314</ele>
        <time>2020-08-26T09:25:01.395Z</time>
      </trkpt>
      <trkpt lat="48.496229" lon="16.878555">
        <ele>187.165100</ele>
        <time>2020-08-26T09:25:03.361Z</time>
      </trkpt>
      <trkpt lat="48.496286" lon="16.878425">
        <ele>187.234483</ele>
        <time>2020-08-26T09:25:05.368Z</time>
      </trkpt>
      <trkpt lat="48.496338" lon="16.878287">
        <ele>187.305143</ele>
        <time>2020-08-26T09:25:07.372Z</time>
      </trkpt>
      <trkpt lat="48.496383" lon="16.878146">
        <ele>187.374802</ele>
        <time>2020-08-26T09:25:09.373Z</time>
      </trkpt>
      <trkpt lat="48.496428" lon="16.878003">
        <ele>187.445264</ele>
        <time>2020-08-26T09:25:11.384Z</time>
      </trkpt>
      <trkpt lat="48.496471" lon="16.877862">
        <ele>187.514350</ele>
        <time>2020-08-26T09:25:13.349Z</time>
      </trkpt>
      <trkpt lat="48.496513" lon="16.877721">
        <ele>187.587671</ele>
        <time>2020-08-26T09:25:15.363Z</time>
      </trkpt>
      <trkpt lat="48.496556" lon="16.877581">
        <ele>187.669574</ele>
        <time>2020-08-26T09:25:17.375Z</time>
      </trkpt>
      <trkpt lat="48.496600" lon="16.877440">
        <ele>187.752296</ele>
        <time>2020-08-26T09:25:19.408Z</time>
      </trkpt>
      <trkpt lat="48.496645" lon="16.877296">
        <ele>187.836800</ele>
        <time>2020-08-26T09:25:21.374Z</time>
      </trkpt>
      <trkpt lat="48.496691" lon="16.877143">
        <ele>187.925976</ele>
        <time>2020-08-26T09:25:23.372Z</time>
      </trkpt>
      <trkpt lat="48.496732" lon="16.876992">
        <ele>188.012590</ele>
        <time>2020-08-26T09:25:25.398Z</time>
      </trkpt>
      <trkpt lat="48.496769" lon="16.876844">
        <ele>188.096549</ele>
        <time>2020-08-26T09:25:27.364Z</time>
      </trkpt>
      <trkpt lat="48.496810" lon="16.876697">
        <ele>188.181202</ele>
        <time>2020-08-26T09:25:29.380Z</time>
      </trkpt>
      <trkpt lat="48.496854" lon="16.876549">
        <ele>188.267300</ele>
        <time>2020-08-26T09:25:31.371Z</time>
      </trkpt>
      <trkpt lat="48.496900" lon="16.876409">
        <ele>188.350242</ele>
        <time>2020-08-26T09:25:33.388Z</time>
      </trkpt>
      <trkpt lat="48.496945" lon="16.876267">
        <ele>188.433786</ele>
        <time>2020-08-26T09:25:35.410Z</time>
      </trkpt>
      <trkpt lat="48.496992" lon="16.876131">
        <ele>188.515198</ele>
        <time>2020-08-26T09:25:37.398Z</time>
      </trkpt>
      <trkpt lat="48.497041" lon="16.875987">
        <ele>188.601117</ele>
        <time>2020-08-26T09:25:39.380Z</time>
      </trkpt>
      <trkpt lat="48.497094" lon="16.875854">
        <ele>188.683491</ele>
        <time>2020-08-26T09:25:41.370Z</time>
      </trkpt>
      <trkpt lat="48.497152" lon="16.875720">
        <ele>188.768442</ele>
        <time>2020-08-26T09:25:43.367Z</time>
      </trkpt>
      <trkpt lat="48.497210" lon="16.875592">
        <ele>188.850745</ele>
        <time>2020-08-26T09:25:45.369Z</time>
      </trkpt>
      <trkpt lat="48.497265" lon="16.875471">
        <ele>188.928625</ele>
        <time>2020-08-26T09:25:47.380Z</time>
      </trkpt>
      <trkpt lat="48.497321" lon="16.875338">
        <ele>189.009861</ele>
        <time>2020-08-26T09:25:49.371Z</time>
      </trkpt>
      <trkpt lat="48.497378" lon="16.875204">
        <ele>189.077294</ele>
        <time>2020-08-26T09:25:51.367Z</time>
      </trkpt>
      <trkpt lat="48.497433" lon="16.875072">
        <ele>189.143327</ele>
        <time>2020-08-26T09:25:53.376Z</time>
      </trkpt>
      <trkpt lat="48.497489" lon="16.874941">
        <ele>189.209347</ele>
        <time>2020-08-26T09:25:55.374Z</time>
      </trkpt>
      <trkpt lat="48.497541" lon="16.874800">
        <ele>189.277683</ele>
        <time>2020-08-26T09:25:57.365Z</time>
      </trkpt>
      <trkpt lat="48.497596" lon="16.874675">
        <ele>189.341227</ele>
        <time>2020-08-26T09:25:59.391Z</time>
      </trkpt>
      <trkpt lat="48.497651" lon="16.874548">
        <ele>189.405477</ele>
        <time>2020-08-26T09:26:01.374Z</time>
      </trkpt>
      <trkpt lat="48.497705" lon="16.874422">
        <ele>189.469024</ele>
        <time>2020-08-26T09:26:03.363Z</time>
      </trkpt>
      <trkpt lat="48.497762" lon="16.874297">
        <ele>189.533283</ele>
        <time>2020-08-26T09:26:05.363Z</time>
      </trkpt>
      <trkpt lat="48.497817" lon="16.874167">
        <ele>189.598600</ele>
        <time>2020-08-26T09:26:07.378Z</time>
      </trkpt>
      <trkpt lat="48.497878" lon="16.874043">
        <ele>189.664001</ele>
        <time>2020-08-26T09:26:09.370Z</time>
      </trkpt>
      <trkpt lat="48.497939" lon="16.873921">
        <ele>189.728724</ele>
        <time>2020-08-26T09:26:11.357Z</time>
      </trkpt>
      <trkpt lat="48.497995" lon="16.873796">
        <ele>189.792623</ele>
        <time>2020-08-26T09:26:13.359Z</time>
      </trkpt>
      <trkpt lat="48.498052" lon="16.873672">
        <ele>189.856533</ele>
        <time>2020-08-26T09:26:15.381Z</time>
      </trkpt>
      <trkpt lat="48.498115" lon="16.873548">
        <ele>189.922703</ele>
        <time>2020-08-26T09:26:17.398Z</time>
      </trkpt>
      <trkpt lat="48.498180" lon="16.873433">
        <ele>189.986714</ele>
        <time>2020-08-26T09:26:19.366Z</time>
      </trkpt>
      <trkpt lat="48.498262" lon="16.873363">
        <ele>190.046922</ele>
        <time>2020-08-26T09:26:21.356Z</time>
      </trkpt>
      <trkpt lat="48.498362" lon="16.873381">
        <ele>190.111283</ele>
        <time>2020-08-26T09:26:23.365Z</time>
      </trkpt>
      <trkpt lat="48.498447" lon="16.873464">
        <ele>190.192312</ele>
        <time>2020-08-26T09:26:25.363Z</time>
      </trkpt>
      <trkpt lat="48.498545" lon="16.873528">
        <ele>190.303202</ele>
        <time>2020-08-26T09:26:27.377Z</time>
      </trkpt>
      <trkpt lat="48.498662" lon="16.873537">
        <ele>190.424860</ele>
        <time>2020-08-26T09:26:29.371Z</time>
      </trkpt>
      <trkpt lat="48.498762" lon="16.873472">
        <ele>190.537930</ele>
        <time>2020-08-26T09:26:31.374Z</time>
      </trkpt>
      <trkpt lat="48.498830" lon="16.873367">
        <ele>190.638960</ele>
        <time>2020-08-26T09:26:33.369Z</time>
      </trkpt>
      <trkpt lat="48.498913" lon="16.873253">
        <ele>190.755506</ele>
        <time>2020-08-26T09:26:36.351Z</time>
      </trkpt>
      <trkpt lat="48.498981" lon="16.873157">
        <ele>190.852203</ele>
        <time>2020-08-26T09:26:39.373Z</time>
      </trkpt>
      <trkpt lat="48.499057" lon="16.873044">
        <ele>190.962997</ele>
        <time>2020-08-26T09:26:43.360Z</time>
      </trkpt>
      <trkpt lat="48.499114" lon="16.872927">
        <ele>191.062925</ele>
        <time>2020-08-26T09:26:47.378Z</time>
      </trkpt>
      <trkpt lat="48.499185" lon="16.872837">
        <ele>191.159214</ele>
        <time>2020-08-26T09:26:51.369Z</time>
      </trkpt>
      <trkpt lat="48.499262" lon="16.872724">
        <ele>191.270750</ele>
        <time>2020-08-26T09:26:56.392Z</time>
      </trkpt>
      <trkpt lat="48.499336" lon="16.872629">
        <ele>191.371639</ele>
        <time>2020-08-26T09:27:01.395Z</time>
      </trkpt>
      <trkpt lat="48.499416" lon="16.872530">
        <ele>191.479076</ele>
        <time>2020-08-26T09:27:07.373Z</time>
      </trkpt>
      <trkpt lat="48.499496" lon="16.872440">
        <ele>191.582697</ele>
        <time>2020-08-26T09:27:13.380Z</time>
      </trkpt>
      <trkpt lat="48.499571" lon="16.872352">
        <ele>191.681352</ele>
        <time>2020-08-26T09:27:20.354Z</time>
      </trkpt>
      <trkpt lat="48.499655" lon="16.872273">
        <ele>191.784135</ele>
        <time>2020-08-26T09:27:26.352Z</time>
      </trkpt>
      <trkpt lat="48.499730" lon="16.872190">
        <ele>191.880716</ele>
        <time>2020-08-26T09:27:31.361Z</time>
      </trkpt>
      <trkpt lat="48.499805" lon="16.872109">
        <ele>191.976490</ele>
        <time>2020-08-26T09:27:35.394Z</time>
      </trkpt>
      <trkpt lat="48.499898" lon="16.872063">
        <ele>192.168051</ele>
        <time>2020-08-26T09:27:39.369Z</time>
      </trkpt>
      <trkpt lat="48.499992" lon="16.872022">
        <ele>192.420862</ele>
        <time>2020-08-26T09:27:43.404Z</time>
      </trkpt>
      <trkpt lat="48.500085" lon="16.871972">
        <ele>192.675942</ele>
        <time>2020-08-26T09:27:47.380Z</time>
      </trkpt>
      <trkpt lat="48.500189" lon="16.871925">
        <ele>192.956440</ele>
        <time>2020-08-26T09:27:52.383Z</time>
      </trkpt>
      <trkpt lat="48.500290" lon="16.871867">
        <ele>193.235651</ele>
        <time>2020-08-26T09:27:57.363Z</time>
      </trkpt>
      <trkpt lat="48.500371" lon="16.871805">
        <ele>193.470312</ele>
        <time>2020-08-26T09:28:01.376Z</time>
      </trkpt>
      <trkpt lat="48.500453" lon="16.871730">
        <ele>193.718051</ele>
        <time>2020-08-26T09:28:05.378Z</time>
      </trkpt>
      <trkpt lat="48.500532" lon="16.871633">
        <ele>193.981187</ele>
        <time>2020-08-26T09:28:10.375Z</time>
      </trkpt>
      <trkpt lat="48.500614" lon="16.871552">
        <ele>194.234402</ele>
        <time>2020-08-26T09:28:15.390Z</time>
      </trkpt>
      <trkpt lat="48.500705" lon="16.871552">
        <ele>194.469522</ele>
        <time>2020-08-26T09:28:19.388Z</time>
      </trkpt>
      <trkpt lat="48.500796" lon="16.871570">
        <ele>194.706653</ele>
        <time>2020-08-26T09:28:24.393Z</time>
      </trkpt>
      <trkpt lat="48.500901" lon="16.871593">
        <ele>194.980788</ele>
        <time>2020-08-26T09:28:31.378Z</time>
      </trkpt>
      <trkpt lat="48.500999" lon="16.871548">
        <ele>195.245455</ele>
        <time>2020-08-26T09:28:37.380Z</time>
      </trkpt>
      <trkpt lat="48.501095" lon="16.871500">
        <ele>195.506752</ele>
        <time>2020-08-26T09:28:42.370Z</time>
      </trkpt>
      <trkpt lat="48.501201" lon="16.871464">
        <ele>195.787477</ele>
        <time>2020-08-26T09:28:47.368Z</time>
      </trkpt>
      <trkpt lat="48.501301" lon="16.871431">
        <ele>196.051955</ele>
        <time>2020-08-26T09:28:52.358Z</time>
      </trkpt>
      <trkpt lat="48.501387" lon="16.871484">
        <ele>196.291969</ele>
        <time>2020-08-26T09:28:57.360Z</time>
      </trkpt>
      <trkpt lat="48.501470" lon="16.871562">
        <ele>196.544596</ele>
        <time>2020-08-26T09:29:04.377Z</time>
      </trkpt>
      <trkpt lat="48.501556" lon="16.871623">
        <ele>196.792443</ele>
        <time>2020-08-26T09:29:11.369Z</time>
      </trkpt>
      <trkpt lat="48.501648" lon="16.871700">
        <ele>197.069308</ele>
        <time>2020-08-26T09:29:26.368Z</time>
      </trkpt>
      <trkpt lat="48.501722" lon="16.871809">
        <ele>197.341444</ele>
        <time>2020-08-26T09:29:33.363Z</time>
      </trkpt>
      <trkpt lat="48.501792" lon="16.871906">
        <ele>197.591547</ele>
        <time>2020-08-26T09:29:39.370Z</time>
      </trkpt>
      <trkpt lat="48.501865" lon="16.872018">
        <ele>197.865510</ele>
        <time>2020-08-26T09:29:46.371Z</time>
      </trkpt>
      <trkpt lat="48.501946" lon="16.872117">
        <ele>198.139823</ele>
        <time>2020-08-26T09:29:53.400Z</time>
      </trkpt>
      <trkpt lat="48.502011" lon="16.872216">
        <ele>198.382861</ele>
        <time>2020-08-26T09:29:59.371Z</time>
      </trkpt>
      <trkpt lat="48.502087" lon="16.872314">
        <ele>198.645941</ele>
        <time>2020-08-26T09:30:06.372Z</time>
      </trkpt>
      <trkpt lat="48.502168" lon="16.872409">
        <ele>198.915919</ele>
        <time>2020-08-26T09:30:13.379Z</time>
      </trkpt>
      <trkpt lat="48.502241" lon="16.872501">
        <ele>199.166215</ele>
        <time>2020-08-26T09:30:20.359Z</time>
      </trkpt>
      <trkpt lat="48.502318" lon="16.872586">
        <ele>199.417286</ele>
        <time>2020-08-26T09:30:26.360Z</time>
      </trkpt>
      <trkpt lat="48.502392" lon="16.872666">
        <ele>199.656848</ele>
        <time>2020-08-26T09:30:32.369Z</time>
      </trkpt>
      <trkpt lat="48.502475" lon="16.872747">
        <ele>199.916977</ele>
        <time>2020-08-26T09:30:39.373Z</time>
      </trkpt>
      <trkpt lat="48.502560" lon="16.872835">
        <ele>200.188253</ele>
        <time>2020-08-26T09:30:46.374Z</time>
      </trkpt>
      <trkpt lat="48.502649" lon="16.872912">
        <ele>200.458240</ele>
        <time>2020-08-26T09:30:53.386Z</time>
      </trkpt>
      <trkpt lat="48.502728" lon="16.872981">
        <ele>200.698458</ele>
        <time>2020-08-26T09:30:59.365Z</time>
      </trkpt>
      <trkpt lat="48.502817" lon="16.873062">
        <ele>200.971980</ele>
        <time>2020-08-26T09:31:05.367Z</time>
      </trkpt>
      <trkpt lat="48.502898" lon="16.873119">
        <ele>201.207189</ele>
        <time>2020-08-26T09:31:10.370Z</time>
      </trkpt>
      <trkpt lat="48.503001" lon="16.873213">
        <ele>201.708176</ele>
        <time>2020-08-26T09:31:16.380Z</time>
      </trkpt>
      <trkpt lat="48.503084" lon="16.873296">
        <ele>202.355148</ele>
        <time>2020-08-26T09:31:23.369Z</time>
      </trkpt>
      <trkpt lat="48.503169" lon="16.873369">
        <ele>202.990634</ele>
        <time>2020-08-26T09:31:29.387Z</time>
      </trkpt>
      <trkpt lat="48.503255" lon="16.873449">
        <ele>203.647075</ele>
        <time>2020-08-26T09:31:35.390Z</time>
      </trkpt>
      <trkpt lat="48.503343" lon="16.873529">
        <ele>204.314613</ele>
        <time>2020-08-26T09:31:40.358Z</time>
      </trkpt>
      <trkpt lat="48.503429" lon="16.873602">
        <ele>204.955754</ele>
        <time>2020-08-26T09:31:45.392Z</time>
      </trkpt>
      <trkpt lat="48.503509" lon="16.873682">
        <ele>205.579340</ele>
        <time>2020-08-26T09:31:50.371Z</time>
      </trkpt>
      <trkpt lat="48.503601" lon="16.873775">
        <ele>206.298850</ele>
        <time>2020-08-26T09:31:55.394Z</time>
      </trkpt>
      <trkpt lat="48.503691" lon="16.873871">
        <ele>207.014975</ele>
        <time>2020-08-26T09:32:00.399Z</time>
      </trkpt>
      <trkpt lat="48.503758" lon="16.873963">
        <ele>207.603557</ele>
        <time>2020-08-26T09:32:05.412Z</time>
      </trkpt>
      <trkpt lat="48.503833" lon="16.874063">
        <ele>208.253837</ele>
        <time>2020-08-26T09:32:10.391Z</time>
      </trkpt>
      <trkpt lat="48.503904" lon="16.874153">
        <ele>208.856321</ele>
        <time>2020-08-26T09:32:15.352Z</time>
      </trkpt>
      <trkpt lat="48.503986" lon="16.874250">
        <ele>209.533308</ele>
        <time>2020-08-26T09:32:20.369Z</time>
      </trkpt>
      <trkpt lat="48.504069" lon="16.874344">
        <ele>210.207590</ele>
        <time>2020-08-26T09:32:25.402Z</time>
      </trkpt>
      <trkpt lat="48.504160" lon="16.874430">
        <ele>210.905257</ele>
        <time>2020-08-26T09:32:30.373Z</time>
      </trkpt>
      <trkpt lat="48.504260" lon="16.874502">
        <ele>211.625202</ele>
        <time>2020-08-26T09:32:35.381Z</time>
      </trkpt>
      <trkpt lat="48.504341" lon="16.874606">
        <ele>212.316220</ele>
        <time>2020-08-26T09:32:40.380Z</time>
      </trkpt>
      <trkpt lat="48.504300" lon="16.874751">
        <ele>212.994959</ele>
        <time>2020-08-26T09:32:45.386Z</time>
      </trkpt>
      <trkpt lat="48.504254" lon="16.874871">
        <ele>214.896824</ele>
        <time>2020-08-26T09:32:48.391Z</time>
      </trkpt>
      <trkpt lat="48.504204" lon="16.875007">
        <ele>217.294110</ele>
        <time>2020-08-26T09:32:51.392Z</time>
      </trkpt>
      <trkpt lat="48.504161" lon="16.875150">
        <ele>219.714576</ele>
        <time>2020-08-26T09:32:54.394Z</time>
      </trkpt>
      <trkpt lat="48.504143" lon="16.875306">
        <ele>222.155235</ele>
        <time>2020-08-26T09:32:58.368Z</time>
      </trkpt>
      <trkpt lat="48.504182" lon="16.875438">
        <ele>224.382905</ele>
        <time>2020-08-26T09:33:06.381Z</time>
      </trkpt>
      <trkpt lat="48.504214" lon="16.875453">
        <ele>225.162398</ele>
        <time>2020-08-26T09:33:21.779Z</time>
      </trkpt>
      <trkpt lat="48.504322" lon="16.875397">
        <ele>227.818935</ele>
        <time>2020-08-26T09:39:09.220Z</time>
      </trkpt>
      <trkpt lat="48.504437" lon="16.875604">
        <ele>231.982640</ele>
        <time>2020-08-26T09:39:12.144Z</time>
      </trkpt>
      <trkpt lat="48.504357" lon="16.875494">
        <ele>234.500184</ele>
        <time>2020-08-26T09:39:18.372Z</time>
      </trkpt>
      <trkpt lat="48.504336" lon="16.875360">
        <ele>236.622543</ele>
        <time>2020-08-26T09:39:22.371Z</time>
      </trkpt>
      <trkpt lat="48.504359" lon="16.875197">
        <ele>239.191239</ele>
        <time>2020-08-26T09:39:28.391Z</time>
      </trkpt>
      <trkpt lat="48.504418" lon="16.875044">
        <ele>241.919792</ele>
        <time>2020-08-26T09:39:32.380Z</time>
      </trkpt>
      <trkpt lat="48.504460" lon="16.874919">
        <ele>244.080022</ele>
        <time>2020-08-26T09:39:35.370Z</time>
      </trkpt>
      <trkpt lat="48.504502" lon="16.874797">
        <ele>246.199113</ele>
        <time>2020-08-26T09:39:38.377Z</time>
      </trkpt>
      <trkpt lat="48.504538" lon="16.874668">
        <ele>248.356584</ele>
        <time>2020-08-26T09:39:41.397Z</time>
      </trkpt>
      <trkpt lat="48.504588" lon="16.874542">
        <ele>250.620320</ele>
        <time>2020-08-26T09:39:44.366Z</time>
      </trkpt>
      <trkpt lat="48.504655" lon="16.874446">
        <ele>252.769435</ele>
        <time>2020-08-26T09:39:47.367Z</time>
      </trkpt>
      <trkpt lat="48.504716" lon="16.874339">
        <ele>254.928426</ele>
        <time>2020-08-26T09:39:50.381Z</time>
      </trkpt>
      <trkpt lat="48.504766" lon="16.874225">
        <ele>254.995355</ele>
        <time>2020-08-26T09:39:53.370Z</time>
      </trkpt>
      <trkpt lat="48.504814" lon="16.874110">
        <ele>255.061894</ele>
        <time>2020-08-26T09:39:56.371Z</time>
      </trkpt>
      <trkpt lat="48.504856" lon="16.873979">
        <ele>255.133140</ele>
        <time>2020-08-26T09:39:59.365Z</time>
      </trkpt>
      <trkpt lat="48.504898" lon="16.873859">
        <ele>255.199580</ele>
        <time>2020-08-26T09:40:02.375Z</time>
      </trkpt>
      <trkpt lat="48.504949" lon="16.873723">
        <ele>255.276084</ele>
        <time>2020-08-26T09:40:06.368Z</time>
      </trkpt>
      <trkpt lat="48.505004" lon="16.873580">
        <ele>255.357031</ele>
        <time>2020-08-26T09:40:11.376Z</time>
      </trkpt>
      <trkpt lat="48.505142" lon="16.873391">
        <ele>255.494719</ele>
        <time>2020-08-26T09:41:23.408Z</time>
      </trkpt>
      <trkpt lat="48.505238" lon="16.873266">
        <ele>255.588401</ele>
        <time>2020-08-26T09:41:26.375Z</time>
      </trkpt>
      <trkpt lat="48.505337" lon="16.873264">
        <ele>255.661558</ele>
        <time>2020-08-26T09:41:28.369Z</time>
      </trkpt>
      <trkpt lat="48.505425" lon="16.873331">
        <ele>255.734384</ele>
        <time>2020-08-26T09:41:30.376Z</time>
      </trkpt>
      <trkpt lat="48.505510" lon="16.873394">
        <ele>255.804354</ele>
        <time>2020-08-26T09:41:32.373Z</time>
      </trkpt>
      <trkpt lat="48.505602" lon="16.873451">
        <ele>255.877836</ele>
        <time>2020-08-26T09:41:34.367Z</time>
      </trkpt>
      <trkpt lat="48.505680" lon="16.873523">
        <ele>255.945393</ele>
        <time>2020-08-26T09:41:36.374Z</time>
      </trkpt>
      <trkpt lat="48.505752" lon="16.873616">
        <ele>256.015415</ele>
        <time>2020-08-26T09:41:38.394Z</time>
      </trkpt>
      <trkpt lat="48.505823" lon="16.873700">
        <ele>256.082072</ele>
        <time>2020-08-26T09:41:40.370Z</time>
      </trkpt>
      <trkpt lat="48.505915" lon="16.873828">
        <ele>256.174525</ele>
        <time>2020-08-26T09:41:43.383Z</time>
      </trkpt>
      <trkpt lat="48.506015" lon="16.873960">
        <ele>256.270244</ele>
        <time>2020-08-26T09:41:46.379Z</time>
      </trkpt>
      <trkpt lat="48.506106" lon="16.874083">
        <ele>256.346572</ele>
        <time>2020-08-26T09:41:49.370Z</time>
      </trkpt>
      <trkpt lat="48.506196" lon="16.874205">
        <ele>256.422159</ele>
        <time>2020-08-26T09:41:52.376Z</time>
      </trkpt>
      <trkpt lat="48.506285" lon="16.874324">
        <ele>256.496452</ele>
        <time>2020-08-26T09:41:55.389Z</time>
      </trkpt>
      <trkpt lat="48.506372" lon="16.874441">
        <ele>256.569262</ele>
        <time>2020-08-26T09:41:58.379Z</time>
      </trkpt>
      <trkpt lat="48.506463" lon="16.874566">
        <ele>256.646145</ele>
        <time>2020-08-26T09:42:01.367Z</time>
      </trkpt>
      <trkpt lat="48.506560" lon="16.874689">
        <ele>256.725305</ele>
        <time>2020-08-26T09:42:04.375Z</time>
      </trkpt>
      <trkpt lat="48.506654" lon="16.874800">
        <ele>256.799880</ele>
        <time>2020-08-26T09:42:07.365Z</time>
      </trkpt>
      <trkpt lat="48.506745" lon="16.874914">
        <ele>256.873774</ele>
        <time>2020-08-26T09:42:10.376Z</time>
      </trkpt>
      <trkpt lat="48.506847" lon="16.875023">
        <ele>256.951865</ele>
        <time>2020-08-26T09:42:13.371Z</time>
      </trkpt>
      <trkpt lat="48.506923" lon="16.875109">
        <ele>257.011217</ele>
        <time>2020-08-26T09:42:15.355Z</time>
      </trkpt>
      <trkpt lat="48.507002" lon="16.875190">
        <ele>257.070891</ele>
        <time>2020-08-26T09:42:17.375Z</time>
      </trkpt>
      <trkpt lat="48.507080" lon="16.875272">
        <ele>257.130286</ele>
        <time>2020-08-26T09:42:19.404Z</time>
      </trkpt>
      <trkpt lat="48.507160" lon="16.875356">
        <ele>257.191179</ele>
        <time>2020-08-26T09:42:21.386Z</time>
      </trkpt>
      <trkpt lat="48.507239" lon="16.875445">
        <ele>257.252776</ele>
        <time>2020-08-26T09:42:23.381Z</time>
      </trkpt>
      <trkpt lat="48.507322" lon="16.875539">
        <ele>257.317613</ele>
        <time>2020-08-26T09:42:25.366Z</time>
      </trkpt>
      <trkpt lat="48.507405" lon="16.875626">
        <ele>257.380753</ele>
        <time>2020-08-26T09:42:27.370Z</time>
      </trkpt>
      <trkpt lat="48.507487" lon="16.875713">
        <ele>257.429349</ele>
        <time>2020-08-26T09:42:29.366Z</time>
      </trkpt>
      <trkpt lat="48.507573" lon="16.875802">
        <ele>257.479904</ele>
        <time>2020-08-26T09:42:31.396Z</time>
      </trkpt>
      <trkpt lat="48.507656" lon="16.875890">
        <ele>257.529082</ele>
        <time>2020-08-26T09:42:33.372Z</time>
      </trkpt>
      <trkpt lat="48.507737" lon="16.875979">
        <ele>257.577657</ele>
        <time>2020-08-26T09:42:35.359Z</time>
      </trkpt>
      <trkpt lat="48.507817" lon="16.876073">
        <ele>257.626811</ele>
        <time>2020-08-26T09:42:37.364Z</time>
      </trkpt>
      <trkpt lat="48.507893" lon="16.876167">
        <ele>257.674450</ele>
        <time>2020-08-26T09:42:39.407Z</time>
      </trkpt>
      <trkpt lat="48.507975" lon="16.876259">
        <ele>257.723987</ele>
        <time>2020-08-26T09:42:41.369Z</time>
      </trkpt>
      <trkpt lat="48.508056" lon="16.876355">
        <ele>257.773919</ele>
        <time>2020-08-26T09:42:43.372Z</time>
      </trkpt>
      <trkpt lat="48.508134" lon="16.876446">
        <ele>257.821716</ele>
        <time>2020-08-26T09:42:45.369Z</time>
      </trkpt>
      <trkpt lat="48.508210" lon="16.876531">
        <ele>257.867577</ele>
        <time>2020-08-26T09:42:47.373Z</time>
      </trkpt>
      <trkpt lat="48.508290" lon="16.876611">
        <ele>257.914104</ele>
        <time>2020-08-26T09:42:49.390Z</time>
      </trkpt>
      <trkpt lat="48.508365" lon="16.876691">
        <ele>257.958631</ele>
        <time>2020-08-26T09:42:51.376Z</time>
      </trkpt>
      <trkpt lat="48.508439" lon="16.876767">
        <ele>258.002027</ele>
        <time>2020-08-26T09:42:53.375Z</time>
      </trkpt>
      <trkpt lat="48.508520" lon="16.876844">
        <ele>258.048438</ele>
        <time>2020-08-26T09:42:55.378Z</time>
      </trkpt>
      <trkpt lat="48.508605" lon="16.876925">
        <ele>258.097175</ele>
        <time>2020-08-26T09:42:57.380Z</time>
      </trkpt>
      <trkpt lat="48.508693" lon="16.877007">
        <ele>258.147316</ele>
        <time>2020-08-26T09:42:59.384Z</time>
      </trkpt>
      <trkpt lat="48.508782" lon="16.877090">
        <ele>258.198039</ele>
        <time>2020-08-26T09:43:01.373Z</time>
      </trkpt>
      <trkpt lat="48.508874" lon="16.877178">
        <ele>258.250846</ele>
        <time>2020-08-26T09:43:03.370Z</time>
      </trkpt>
      <trkpt lat="48.508965" lon="16.877269">
        <ele>258.308566</ele>
        <time>2020-08-26T09:43:05.373Z</time>
      </trkpt>
      <trkpt lat="48.509063" lon="16.877362">
        <ele>258.369971</ele>
        <time>2020-08-26T09:43:07.386Z</time>
      </trkpt>
      <trkpt lat="48.509169" lon="16.877455">
        <ele>258.435008</ele>
        <time>2020-08-26T09:43:09.400Z</time>
      </trkpt>
      <trkpt lat="48.509278" lon="16.877548">
        <ele>258.501426</ele>
        <time>2020-08-26T09:43:11.389Z</time>
      </trkpt>
      <trkpt lat="48.509395" lon="16.877636">
        <ele>258.570767</ele>
        <time>2020-08-26T09:43:13.369Z</time>
      </trkpt>
      <trkpt lat="48.509522" lon="16.877717">
        <ele>258.643902</ele>
        <time>2020-08-26T09:43:15.364Z</time>
      </trkpt>
      <trkpt lat="48.509641" lon="16.877791">
        <ele>258.712174</ele>
        <time>2020-08-26T09:43:17.366Z</time>
      </trkpt>
      <trkpt lat="48.509719" lon="16.877886">
        <ele>258.765339</ele>
        <time>2020-08-26T09:43:19.369Z</time>
      </trkpt>
      <trkpt lat="48.509772" lon="16.878012">
        <ele>258.817789</ele>
        <time>2020-08-26T09:43:22.395Z</time>
      </trkpt>
      <trkpt lat="48.509787" lon="16.878066">
        <ele>258.838367</ele>
        <time>2020-08-26T09:43:33.914Z</time>
      </trkpt>
      <trkpt lat="48.510024" lon="16.878240">
        <ele>258.978167</ele>
        <time>2020-08-26T09:46:29.397Z</time>
      </trkpt>
      <trkpt lat="48.510143" lon="16.878301">
        <ele>259.044832</ele>
        <time>2020-08-26T09:46:32.370Z</time>
      </trkpt>
      <trkpt lat="48.510237" lon="16.878335">
        <ele>259.096106</ele>
        <time>2020-08-26T09:46:34.383Z</time>
      </trkpt>
      <trkpt lat="48.510336" lon="16.878380">
        <ele>259.150951</ele>
        <time>2020-08-26T09:46:36.384Z</time>
      </trkpt>
      <trkpt lat="48.510437" lon="16.878428">
        <ele>259.206747</ele>
        <time>2020-08-26T09:46:38.373Z</time>
      </trkpt>
      <trkpt lat="48.510543" lon="16.878491">
        <ele>259.163771</ele>
        <time>2020-08-26T09:46:40.368Z</time>
      </trkpt>
      <trkpt lat="48.510650" lon="16.878547">
        <ele>259.121048</ele>
        <time>2020-08-26T09:46:42.382Z</time>
      </trkpt>
      <trkpt lat="48.510760" lon="16.878605">
        <ele>259.077092</ele>
        <time>2020-08-26T09:46:44.380Z</time>
      </trkpt>
      <trkpt lat="48.510867" lon="16.878650">
        <ele>259.035189</ele>
        <time>2020-08-26T09:46:46.375Z</time>
      </trkpt>
      <trkpt lat="48.510973" lon="16.878689">
        <ele>258.994030</ele>
        <time>2020-08-26T09:46:48.377Z</time>
      </trkpt>
      <trkpt lat="48.511077" lon="16.878723">
        <ele>258.953887</ele>
        <time>2020-08-26T09:46:50.378Z</time>
      </trkpt>
      <trkpt lat="48.511180" lon="16.878754">
        <ele>258.914266</ele>
        <time>2020-08-26T09:46:52.407Z</time>
      </trkpt>
      <trkpt lat="48.511278" lon="16.878797">
        <ele>258.875765</ele>
        <time>2020-08-26T09:46:54.363Z</time>
      </trkpt>
      <trkpt lat="48.511305" lon="16.878952">
        <ele>258.835711</ele>
        <time>2020-08-26T09:46:56.376Z</time>
      </trkpt>
      <trkpt lat="48.511299" lon="16.879136">
        <ele>258.789671</ele>
        <time>2020-08-26T09:46:58.376Z</time>
      </trkpt>
      <trkpt lat="48.511298" lon="16.879339">
        <ele>258.738937</ele>
        <time>2020-08-26T09:47:00.366Z</time>
      </trkpt>
      <trkpt lat="48.511299" lon="16.879572">
        <ele>258.680705</ele>
        <time>2020-08-26T09:47:02.367Z</time>
      </trkpt>
      <trkpt lat="48.511300" lon="16.879841">
        <ele>258.613477</ele>
        <time>2020-08-26T09:47:04.373Z</time>
      </trkpt>
      <trkpt lat="48.511304" lon="16.879988">
        <ele>258.576708</ele>
        <time>2020-08-26T09:47:05.357Z</time>
      </trkpt>
      <trkpt lat="48.511307" lon="16.880145">
        <ele>258.537455</ele>
        <time>2020-08-26T09:47:06.384Z</time>
      </trkpt>
      <trkpt lat="48.511309" lon="16.880312">
        <ele>258.442474</ele>
        <time>2020-08-26T09:47:07.363Z</time>
      </trkpt>
      <trkpt lat="48.511310" lon="16.880481">
        <ele>258.331378</ele>
        <time>2020-08-26T09:47:08.378Z</time>
      </trkpt>
      <trkpt lat="48.511311" lon="16.880636">
        <ele>258.229485</ele>
        <time>2020-08-26T09:47:09.377Z</time>
      </trkpt>
      <trkpt lat="48.511312" lon="16.880775">
        <ele>258.138109</ele>
        <time>2020-08-26T09:47:10.391Z</time>
      </trkpt>
      <trkpt lat="48.511311" lon="16.881041">
        <ele>257.963252</ele>
        <time>2020-08-26T09:47:12.368Z</time>
      </trkpt>
      <trkpt lat="48.511307" lon="16.881185">
        <ele>257.868511</ele>
        <time>2020-08-26T09:47:13.380Z</time>
      </trkpt>
      <trkpt lat="48.511293" lon="16.881344">
        <ele>257.763074</ele>
        <time>2020-08-26T09:47:14.371Z</time>
      </trkpt>
      <trkpt lat="48.511269" lon="16.881519">
        <ele>257.645600</ele>
        <time>2020-08-26T09:47:15.368Z</time>
      </trkpt>
      <trkpt lat="48.511248" lon="16.881702">
        <ele>257.523514</ele>
        <time>2020-08-26T09:47:16.374Z</time>
      </trkpt>
      <trkpt lat="48.511238" lon="16.881878">
        <ele>257.407396</ele>
        <time>2020-08-26T09:47:17.382Z</time>
      </trkpt>
      <trkpt lat="48.511234" lon="16.882036">
        <ele>257.303460</ele>
        <time>2020-08-26T09:47:18.396Z</time>
      </trkpt>
      <trkpt lat="48.511234" lon="16.882173">
        <ele>257.213404</ele>
        <time>2020-08-26T09:47:19.377Z</time>
      </trkpt>
      <trkpt lat="48.511252" lon="16.882444">
        <ele>257.034370</ele>
        <time>2020-08-26T09:47:21.395Z</time>
      </trkpt>
      <trkpt lat="48.511270" lon="16.882591">
        <ele>256.936103</ele>
        <time>2020-08-26T09:47:22.357Z</time>
      </trkpt>
      <trkpt lat="48.511289" lon="16.882741">
        <ele>256.835715</ele>
        <time>2020-08-26T09:47:23.385Z</time>
      </trkpt>
      <trkpt lat="48.511311" lon="16.882875">
        <ele>256.744966</ele>
        <time>2020-08-26T09:47:24.390Z</time>
      </trkpt>
      <trkpt lat="48.511346" lon="16.883090">
        <ele>254.983808</ele>
        <time>2020-08-26T09:47:26.380Z</time>
      </trkpt>
      <trkpt lat="48.511386" lon="16.883263">
        <ele>253.513983</ele>
        <time>2020-08-26T09:47:28.370Z</time>
      </trkpt>
      <trkpt lat="48.511409" lon="16.883426">
        <ele>252.177138</ele>
        <time>2020-08-26T09:47:30.361Z</time>
      </trkpt>
      <trkpt lat="48.511493" lon="16.883503">
        <ele>250.987166</ele>
        <time>2020-08-26T09:47:34.367Z</time>
      </trkpt>
      <trkpt lat="48.511610" lon="16.883476">
        <ele>249.554006</ele>
        <time>2020-08-26T09:47:37.371Z</time>
      </trkpt>
      <trkpt lat="48.511732" lon="16.883443">
        <ele>248.053234</ele>
        <time>2020-08-26T09:47:40.394Z</time>
      </trkpt>
      <trkpt lat="48.511859" lon="16.883402">
        <ele>246.480673</ele>
        <time>2020-08-26T09:47:43.375Z</time>
      </trkpt>
      <trkpt lat="48.511948" lon="16.883379">
        <ele>245.387334</ele>
        <time>2020-08-26T09:47:45.386Z</time>
      </trkpt>
      <trkpt lat="48.512072" lon="16.883333">
        <ele>243.841199</ele>
        <time>2020-08-26T09:47:48.369Z</time>
      </trkpt>
      <trkpt lat="48.512192" lon="16.883288">
        <ele>242.344008</ele>
        <time>2020-08-26T09:47:51.382Z</time>
      </trkpt>
      <trkpt lat="48.512296" lon="16.883260">
        <ele>241.064847</ele>
        <time>2020-08-26T09:47:54.411Z</time>
      </trkpt>
      <trkpt lat="48.512389" lon="16.883243">
        <ele>239.930525</ele>
        <time>2020-08-26T09:47:57.363Z</time>
      </trkpt>
      <trkpt lat="48.512420" lon="16.883218">
        <ele>239.504951</ele>
        <time>2020-08-26T09:48:11.308Z</time>
      </trkpt>
      <trkpt lat="48.512534" lon="16.883203">
        <ele>238.119343</ele>
        <time>2020-08-26T09:50:13.349Z</time>
      </trkpt>
      <trkpt lat="48.512641" lon="16.883205">
        <ele>236.823629</ele>
        <time>2020-08-26T09:50:16.371Z</time>
      </trkpt>
      <trkpt lat="48.512765" lon="16.883214">
        <ele>235.320434</ele>
        <time>2020-08-26T09:50:19.374Z</time>
      </trkpt>
      <trkpt lat="48.512856" lon="16.883215">
        <ele>234.582821</ele>
        <time>2020-08-26T09:50:21.389Z</time>
      </trkpt>
      <trkpt lat="48.512960" lon="16.883216">
        <ele>233.938335</ele>
        <time>2020-08-26T09:50:23.385Z</time>
      </trkpt>
      <trkpt lat="48.513074" lon="16.883233">
        <ele>233.228454</ele>
        <time>2020-08-26T09:50:25.398Z</time>
      </trkpt>
      <trkpt lat="48.513201" lon="16.883266">
        <ele>232.429879</ele>
        <time>2020-08-26T09:50:27.391Z</time>
      </trkpt>
      <trkpt lat="48.513332" lon="16.883300">
        <ele>231.606180</ele>
        <time>2020-08-26T09:50:29.395Z</time>
      </trkpt>
      <trkpt lat="48.513456" lon="16.883327">
        <ele>230.829817</ele>
        <time>2020-08-26T09:50:31.379Z</time>
      </trkpt>
      <trkpt lat="48.513583" lon="16.883353">
        <ele>230.035612</ele>
        <time>2020-08-26T09:50:33.357Z</time>
      </trkpt>
      <trkpt lat="48.513710" lon="16.883372">
        <ele>229.244755</ele>
        <time>2020-08-26T09:50:35.385Z</time>
      </trkpt>
      <trkpt lat="48.513831" lon="16.883378">
        <ele>228.494531</ele>
        <time>2020-08-26T09:50:37.401Z</time>
      </trkpt>
      <trkpt lat="48.513948" lon="16.883373">
        <ele>227.769209</ele>
        <time>2020-08-26T09:50:39.374Z</time>
      </trkpt>
      <trkpt lat="48.514063" lon="16.883357">
        <ele>227.053550</ele>
        <time>2020-08-26T09:50:41.369Z</time>
      </trkpt>
      <trkpt lat="48.514183" lon="16.883331">
        <ele>226.302306</ele>
        <time>2020-08-26T09:50:43.375Z</time>
      </trkpt>
      <trkpt lat="48.514307" lon="16.883282">
        <ele>225.508006</ele>
        <time>2020-08-26T09:50:45.363Z</time>
      </trkpt>
      <trkpt lat="48.514433" lon="16.883217">
        <ele>224.682869</ele>
        <time>2020-08-26T09:50:47.356Z</time>
      </trkpt>
      <trkpt lat="48.514548" lon="16.883236">
        <ele>223.965975</ele>
        <time>2020-08-26T09:50:49.366Z</time>
      </trkpt>
      <trkpt lat="48.514657" lon="16.883266">
        <ele>223.738914</ele>
        <time>2020-08-26T09:50:51.363Z</time>
      </trkpt>
      <trkpt lat="48.514749" lon="16.883312">
        <ele>223.650017</ele>
        <time>2020-08-26T09:50:53.356Z</time>
      </trkpt>
      <trkpt lat="48.514832" lon="16.883368">
        <ele>223.566626</ele>
        <time>2020-08-26T09:50:55.354Z</time>
      </trkpt>
      <trkpt lat="48.514916" lon="16.883425">
        <ele>223.482149</ele>
        <time>2020-08-26T09:50:57.358Z</time>
      </trkpt>
      <trkpt lat="48.515038" lon="16.883508">
        <ele>223.359403</ele>
        <time>2020-08-26T09:51:00.379Z</time>
      </trkpt>
      <trkpt lat="48.515157" lon="16.883587">
        <ele>223.240159</ele>
        <time>2020-08-26T09:51:03.375Z</time>
      </trkpt>
      <trkpt lat="48.515243" lon="16.883630">
        <ele>223.157060</ele>
        <time>2020-08-26T09:51:05.370Z</time>
      </trkpt>
      <trkpt lat="48.515332" lon="16.883676">
        <ele>223.070770</ele>
        <time>2020-08-26T09:51:07.359Z</time>
      </trkpt>
      <trkpt lat="48.515420" lon="16.883713">
        <ele>222.986978</ele>
        <time>2020-08-26T09:51:09.365Z</time>
      </trkpt>
      <trkpt lat="48.515552" lon="16.883760">
        <ele>222.862577</ele>
        <time>2020-08-26T09:51:12.410Z</time>
      </trkpt>
      <trkpt lat="48.515641" lon="16.883791">
        <ele>222.778795</ele>
        <time>2020-08-26T09:51:14.355Z</time>
      </trkpt>
      <trkpt lat="48.515779" lon="16.883814">
        <ele>222.651442</ele>
        <time>2020-08-26T09:51:17.373Z</time>
      </trkpt>
      <trkpt lat="48.515898" lon="16.883858">
        <ele>222.539061</ele>
        <time>2020-08-26T09:51:20.358Z</time>
      </trkpt>
      <trkpt lat="48.516028" lon="16.883891">
        <ele>222.418142</ele>
        <time>2020-08-26T09:51:23.359Z</time>
      </trkpt>
      <trkpt lat="48.516119" lon="16.883915">
        <ele>222.333406</ele>
        <time>2020-08-26T09:51:25.370Z</time>
      </trkpt>
      <trkpt lat="48.516247" lon="16.883931">
        <ele>222.215594</ele>
        <time>2020-08-26T09:51:28.382Z</time>
      </trkpt>
      <trkpt lat="48.516350" lon="16.883964">
        <ele>222.193012</ele>
        <time>2020-08-26T09:51:31.389Z</time>
      </trkpt>
      <trkpt lat="48.516484" lon="16.883965">
        <ele>222.252376</ele>
        <time>2020-08-26T09:51:34.380Z</time>
      </trkpt>
      <trkpt lat="48.516607" lon="16.883959">
        <ele>222.306894</ele>
        <time>2020-08-26T09:51:37.395Z</time>
      </trkpt>
      <trkpt lat="48.516729" lon="16.883952">
        <ele>222.360979</ele>
        <time>2020-08-26T09:51:40.398Z</time>
      </trkpt>
      <trkpt lat="48.516828" lon="16.883954">
        <ele>222.404841</ele>
        <time>2020-08-26T09:51:43.399Z</time>
      </trkpt>
      <trkpt lat="48.516918" lon="16.883949">
        <ele>222.444738</ele>
        <time>2020-08-26T09:51:46.381Z</time>
      </trkpt>
      <trkpt lat="48.517022" lon="16.883940">
        <ele>222.490886</ele>
        <time>2020-08-26T09:51:50.389Z</time>
      </trkpt>
      <trkpt lat="48.517118" lon="16.883943">
        <ele>222.533424</ele>
        <time>2020-08-26T09:51:53.392Z</time>
      </trkpt>
      <trkpt lat="48.517232" lon="16.883958">
        <ele>222.584118</ele>
        <time>2020-08-26T09:51:56.364Z</time>
      </trkpt>
      <trkpt lat="48.517357" lon="16.883995">
        <ele>222.640548</ele>
        <time>2020-08-26T09:51:59.387Z</time>
      </trkpt>
      <trkpt lat="48.517490" lon="16.884042">
        <ele>222.701060</ele>
        <time>2020-08-26T09:52:02.372Z</time>
      </trkpt>
      <trkpt lat="48.517583" lon="16.884063">
        <ele>222.742718</ele>
        <time>2020-08-26T09:52:04.390Z</time>
      </trkpt>
      <trkpt lat="48.517681" lon="16.884085">
        <ele>222.786609</ele>
        <time>2020-08-26T09:52:06.399Z</time>
      </trkpt>
      <trkpt lat="48.517783" lon="16.884116">
        <ele>222.832702</ele>
        <time>2020-08-26T09:52:08.401Z</time>
      </trkpt>
      <trkpt lat="48.517884" lon="16.884140">
        <ele>222.877997</ele>
        <time>2020-08-26T09:52:10.388Z</time>
      </trkpt>
      <trkpt lat="48.517990" lon="16.884166">
        <ele>222.925571</ele>
        <time>2020-08-26T09:52:12.365Z</time>
      </trkpt>
      <trkpt lat="48.518098" lon="16.884195">
        <ele>222.967480</ele>
        <time>2020-08-26T09:52:14.400Z</time>
      </trkpt>
      <trkpt lat="48.518213" lon="16.884224">
        <ele>222.978247</ele>
        <time>2020-08-26T09:52:16.396Z</time>
      </trkpt>
      <trkpt lat="48.518332" lon="16.884258">
        <ele>222.989430</ele>
        <time>2020-08-26T09:52:18.384Z</time>
      </trkpt>
      <trkpt lat="48.518453" lon="16.884294">
        <ele>223.000819</ele>
        <time>2020-08-26T09:52:20.379Z</time>
      </trkpt>
      <trkpt lat="48.518570" lon="16.884333">
        <ele>223.011883</ele>
        <time>2020-08-26T09:52:22.393Z</time>
      </trkpt>
      <trkpt lat="48.518687" lon="16.884372">
        <ele>223.022947</ele>
        <time>2020-08-26T09:52:24.390Z</time>
      </trkpt>
      <trkpt lat="48.518813" lon="16.884414">
        <ele>223.034863</ele>
        <time>2020-08-26T09:52:26.390Z</time>
      </trkpt>
      <trkpt lat="48.518942" lon="16.884455">
        <ele>223.047036</ele>
        <time>2020-08-26T09:52:28.402Z</time>
      </trkpt>
      <trkpt lat="48.519072" lon="16.884485">
        <ele>223.059180</ele>
        <time>2020-08-26T09:52:30.389Z</time>
      </trkpt>
      <trkpt lat="48.519210" lon="16.884529">
        <ele>223.072204</ele>
        <time>2020-08-26T09:52:32.382Z</time>
      </trkpt>
      <trkpt lat="48.519349" lon="16.884588">
        <ele>223.085538</ele>
        <time>2020-08-26T09:52:34.377Z</time>
      </trkpt>
      <trkpt lat="48.519490" lon="16.884639">
        <ele>223.098926</ele>
        <time>2020-08-26T09:52:36.366Z</time>
      </trkpt>
      <trkpt lat="48.519637" lon="16.884683">
        <ele>223.112765</ele>
        <time>2020-08-26T09:52:38.398Z</time>
      </trkpt>
      <trkpt lat="48.519781" lon="16.884723">
        <ele>223.126285</ele>
        <time>2020-08-26T09:52:40.400Z</time>
      </trkpt>
      <trkpt lat="48.519919" lon="16.884761">
        <ele>223.125758</ele>
        <time>2020-08-26T09:52:42.383Z</time>
      </trkpt>
      <trkpt lat="48.520056" lon="16.884809">
        <ele>223.115175</ele>
        <time>2020-08-26T09:52:44.387Z</time>
      </trkpt>
      <trkpt lat="48.520187" lon="16.884874">
        <ele>223.104799</ele>
        <time>2020-08-26T09:52:46.388Z</time>
      </trkpt>
      <trkpt lat="48.520303" lon="16.884981">
        <ele>223.094570</ele>
        <time>2020-08-26T09:52:48.382Z</time>
      </trkpt>
      <trkpt lat="48.520410" lon="16.885084">
        <ele>223.085021</ele>
        <time>2020-08-26T09:52:50.407Z</time>
      </trkpt>
      <trkpt lat="48.520523" lon="16.885153">
        <ele>223.075849</ele>
        <time>2020-08-26T09:52:52.372Z</time>
      </trkpt>
      <trkpt lat="48.520641" lon="16.885205">
        <ele>223.066600</ele>
        <time>2020-08-26T09:52:54.381Z</time>
      </trkpt>
      <trkpt lat="48.520763" lon="16.885242">
        <ele>223.057236</ele>
        <time>2020-08-26T09:52:56.383Z</time>
      </trkpt>
      <trkpt lat="48.520885" lon="16.885291">
        <ele>223.047737</ele>
        <time>2020-08-26T09:52:58.407Z</time>
      </trkpt>
      <trkpt lat="48.521008" lon="16.885337">
        <ele>223.038202</ele>
        <time>2020-08-26T09:53:00.373Z</time>
      </trkpt>
      <trkpt lat="48.521131" lon="16.885377">
        <ele>223.028734</ele>
        <time>2020-08-26T09:53:02.383Z</time>
      </trkpt>
      <trkpt lat="48.521253" lon="16.885419">
        <ele>223.019319</ele>
        <time>2020-08-26T09:53:04.379Z</time>
      </trkpt>
      <trkpt lat="48.521375" lon="16.885457">
        <ele>223.009945</ele>
        <time>2020-08-26T09:53:06.386Z</time>
      </trkpt>
      <trkpt lat="48.521495" lon="16.885490">
        <ele>223.000767</ele>
        <time>2020-08-26T09:53:08.368Z</time>
      </trkpt>
      <trkpt lat="48.521612" lon="16.885535">
        <ele>222.945632</ele>
        <time>2020-08-26T09:53:10.369Z</time>
      </trkpt>
      <trkpt lat="48.521728" lon="16.885583">
        <ele>222.849516</ele>
        <time>2020-08-26T09:53:12.376Z</time>
      </trkpt>
      <trkpt lat="48.521843" lon="16.885630">
        <ele>222.754311</ele>
        <time>2020-08-26T09:53:14.370Z</time>
      </trkpt>
      <trkpt lat="48.521955" lon="16.885685">
        <ele>222.660194</ele>
        <time>2020-08-26T09:53:16.364Z</time>
      </trkpt>
      <trkpt lat="48.522063" lon="16.885744">
        <ele>222.568414</ele>
        <time>2020-08-26T09:53:18.368Z</time>
      </trkpt>
      <trkpt lat="48.522171" lon="16.885799">
        <ele>222.477332</ele>
        <time>2020-08-26T09:53:20.368Z</time>
      </trkpt>
      <trkpt lat="48.522274" lon="16.885866">
        <ele>222.387709</ele>
        <time>2020-08-26T09:53:22.379Z</time>
      </trkpt>
      <trkpt lat="48.522377" lon="16.885920">
        <ele>222.300579</ele>
        <time>2020-08-26T09:53:24.377Z</time>
      </trkpt>
      <trkpt lat="48.522486" lon="16.885975">
        <ele>222.208739</ele>
        <time>2020-08-26T09:53:26.381Z</time>
      </trkpt>
      <trkpt lat="48.522600" lon="16.886024">
        <ele>222.114020</ele>
        <time>2020-08-26T09:53:28.394Z</time>
      </trkpt>
      <trkpt lat="48.522716" lon="16.886064">
        <ele>222.018936</ele>
        <time>2020-08-26T09:53:30.357Z</time>
      </trkpt>
      <trkpt lat="48.522840" lon="16.886107">
        <ele>221.917265</ele>
        <time>2020-08-26T09:53:32.370Z</time>
      </trkpt>
      <trkpt lat="48.522974" lon="16.886172">
        <ele>221.804793</ele>
        <time>2020-08-26T09:53:34.375Z</time>
      </trkpt>
      <trkpt lat="48.523118" lon="16.886273">
        <ele>221.677910</ele>
        <time>2020-08-26T09:53:36.388Z</time>
      </trkpt>
      <trkpt lat="48.523266" lon="16.886365">
        <ele>221.540569</ele>
        <time>2020-08-26T09:53:38.399Z</time>
      </trkpt>
      <trkpt lat="48.523403" lon="16.886440">
        <ele>221.303758</ele>
        <time>2020-08-26T09:53:40.402Z</time>
      </trkpt>
      <trkpt lat="48.523532" lon="16.886512">
        <ele>221.080265</ele>
        <time>2020-08-26T09:53:42.360Z</time>
      </trkpt>
      <trkpt lat="48.523661" lon="16.886585">
        <ele>220.856396</ele>
        <time>2020-08-26T09:53:44.411Z</time>
      </trkpt>
      <trkpt lat="48.523791" lon="16.886631">
        <ele>220.639419</ele>
        <time>2020-08-26T09:53:46.375Z</time>
      </trkpt>
      <trkpt lat="48.523921" lon="16.886673">
        <ele>220.423383</ele>
        <time>2020-08-26T09:53:48.392Z</time>
      </trkpt>
      <trkpt lat="48.524051" lon="16.886710">
        <ele>220.208409</ele>
        <time>2020-08-26T09:53:50.373Z</time>
      </trkpt>
      <trkpt lat="48.524177" lon="16.886746">
        <ele>220.000022</ele>
        <time>2020-08-26T09:53:52.401Z</time>
      </trkpt>
      <trkpt lat="48.524306" lon="16.886788">
        <ele>219.785575</ele>
        <time>2020-08-26T09:53:54.393Z</time>
      </trkpt>
      <trkpt lat="48.524439" lon="16.886816">
        <ele>219.567356</ele>
        <time>2020-08-26T09:53:56.352Z</time>
      </trkpt>
      <trkpt lat="48.524574" lon="16.886860">
        <ele>219.342924</ele>
        <time>2020-08-26T09:53:58.368Z</time>
      </trkpt>
      <trkpt lat="48.524714" lon="16.886894">
        <ele>219.112496</ele>
        <time>2020-08-26T09:54:00.358Z</time>
      </trkpt>
      <trkpt lat="48.524861" lon="16.886914">
        <ele>218.872649</ele>
        <time>2020-08-26T09:54:02.400Z</time>
      </trkpt>
      <trkpt lat="48.525004" lon="16.886948">
        <ele>218.637407</ele>
        <time>2020-08-26T09:54:04.382Z</time>
      </trkpt>
      <trkpt lat="48.525140" lon="16.886988">
        <ele>218.492915</ele>
        <time>2020-08-26T09:54:06.377Z</time>
      </trkpt>
      <trkpt lat="48.525265" lon="16.887034">
        <ele>218.359116</ele>
        <time>2020-08-26T09:54:08.378Z</time>
      </trkpt>
      <trkpt lat="48.525382" lon="16.887069">
        <ele>218.235076</ele>
        <time>2020-08-26T09:54:10.367Z</time>
      </trkpt>
      <trkpt lat="48.525499" lon="16.887060">
        <ele>218.113244</ele>
        <time>2020-08-26T09:54:12.371Z</time>
      </trkpt>
      <trkpt lat="48.525618" lon="16.887100">
        <ele>217.986460</ele>
        <time>2020-08-26T09:54:14.375Z</time>
      </trkpt>
      <trkpt lat="48.525737" lon="16.887138">
        <ele>217.859968</ele>
        <time>2020-08-26T09:54:16.374Z</time>
      </trkpt>
      <trkpt lat="48.525851" lon="16.887150">
        <ele>217.741126</ele>
        <time>2020-08-26T09:54:18.370Z</time>
      </trkpt>
      <trkpt lat="48.525967" lon="16.887156">
        <ele>217.620420</ele>
        <time>2020-08-26T09:54:20.382Z</time>
      </trkpt>
      <trkpt lat="48.526086" lon="16.887165">
        <ele>217.496511</ele>
        <time>2020-08-26T09:54:22.354Z</time>
      </trkpt>
      <trkpt lat="48.526196" lon="16.887175">
        <ele>217.381909</ele>
        <time>2020-08-26T09:54:24.368Z</time>
      </trkpt>
      <trkpt lat="48.526306" lon="16.887183">
        <ele>217.267381</ele>
        <time>2020-08-26T09:54:26.374Z</time>
      </trkpt>
      <trkpt lat="48.526412" lon="16.887183">
        <ele>217.157146</ele>
        <time>2020-08-26T09:54:28.377Z</time>
      </trkpt>
      <trkpt lat="48.526517" lon="16.887177">
        <ele>217.047873</ele>
        <time>2020-08-26T09:54:30.369Z</time>
      </trkpt>
      <trkpt lat="48.526627" lon="16.887179">
        <ele>216.933470</ele>
        <time>2020-08-26T09:54:32.404Z</time>
      </trkpt>
      <trkpt lat="48.526741" lon="16.887184">
        <ele>216.814865</ele>
        <time>2020-08-26T09:54:34.373Z</time>
      </trkpt>
      <trkpt lat="48.526862" lon="16.887179">
        <ele>216.760825</ele>
        <time>2020-08-26T09:54:36.399Z</time>
      </trkpt>
      <trkpt lat="48.526982" lon="16.887131">
        <ele>216.752478</ele>
        <time>2020-08-26T09:54:38.362Z</time>
      </trkpt>
      <trkpt lat="48.527098" lon="16.887060">
        <ele>216.744062</ele>
        <time>2020-08-26T09:54:40.370Z</time>
      </trkpt>
      <trkpt lat="48.527217" lon="16.886983">
        <ele>216.735356</ele>
        <time>2020-08-26T09:54:42.369Z</time>
      </trkpt>
      <trkpt lat="48.527326" lon="16.886928">
        <ele>216.727629</ele>
        <time>2020-08-26T09:54:44.372Z</time>
      </trkpt>
      <trkpt lat="48.527424" lon="16.886889">
        <ele>216.720814</ele>
        <time>2020-08-26T09:54:46.397Z</time>
      </trkpt>
      <trkpt lat="48.527514" lon="16.886853">
        <ele>216.714553</ele>
        <time>2020-08-26T09:54:48.364Z</time>
      </trkpt>
      <trkpt lat="48.527636" lon="16.886800">
        <ele>216.706017</ele>
        <time>2020-08-26T09:54:51.371Z</time>
      </trkpt>
      <trkpt lat="48.527748" lon="16.886750">
        <ele>216.698164</ele>
        <time>2020-08-26T09:54:54.370Z</time>
      </trkpt>
      <trkpt lat="48.527867" lon="16.886712">
        <ele>216.689985</ele>
        <time>2020-08-26T09:54:57.382Z</time>
      </trkpt>
      <trkpt lat="48.527959" lon="16.886686">
        <ele>216.683692</ele>
        <time>2020-08-26T09:54:59.366Z</time>
      </trkpt>
      <trkpt lat="48.528056" lon="16.886667">
        <ele>216.677115</ele>
        <time>2020-08-26T09:55:01.377Z</time>
      </trkpt>
      <trkpt lat="48.528153" lon="16.886639">
        <ele>216.670474</ele>
        <time>2020-08-26T09:55:03.374Z</time>
      </trkpt>
      <trkpt lat="48.528244" lon="16.886610">
        <ele>216.664220</ele>
        <time>2020-08-26T09:55:05.397Z</time>
      </trkpt>
      <trkpt lat="48.528334" lon="16.886580">
        <ele>216.658023</ele>
        <time>2020-08-26T09:55:07.373Z</time>
      </trkpt>
      <trkpt lat="48.528426" lon="16.886559">
        <ele>216.651766</ele>
        <time>2020-08-26T09:55:09.366Z</time>
      </trkpt>
      <trkpt lat="48.528518" lon="16.886538">
        <ele>216.645510</ele>
        <time>2020-08-26T09:55:11.385Z</time>
      </trkpt>
      <trkpt lat="48.528650" lon="16.886515">
        <ele>216.628372</ele>
        <time>2020-08-26T09:55:14.364Z</time>
      </trkpt>
      <trkpt lat="48.528783" lon="16.886493">
        <ele>216.610454</ele>
        <time>2020-08-26T09:55:17.389Z</time>
      </trkpt>
      <trkpt lat="48.528915" lon="16.886463">
        <ele>216.592579</ele>
        <time>2020-08-26T09:55:20.372Z</time>
      </trkpt>
      <trkpt lat="48.529049" lon="16.886441">
        <ele>216.574528</ele>
        <time>2020-08-26T09:55:23.360Z</time>
      </trkpt>
      <trkpt lat="48.529176" lon="16.886412">
        <ele>216.557328</ele>
        <time>2020-08-26T09:55:26.383Z</time>
      </trkpt>
      <trkpt lat="48.529297" lon="16.886374">
        <ele>216.540778</ele>
        <time>2020-08-26T09:55:29.385Z</time>
      </trkpt>
      <trkpt lat="48.529417" lon="16.886318">
        <ele>216.523958</ele>
        <time>2020-08-26T09:55:32.411Z</time>
      </trkpt>
      <trkpt lat="48.529541" lon="16.886249">
        <ele>216.506261</ele>
        <time>2020-08-26T09:55:35.397Z</time>
      </trkpt>
      <trkpt lat="48.529649" lon="16.886257">
        <ele>216.491781</ele>
        <time>2020-08-26T09:55:37.358Z</time>
      </trkpt>
      <trkpt lat="48.529791" lon="16.886290">
        <ele>216.472541</ele>
        <time>2020-08-26T09:55:39.370Z</time>
      </trkpt>
      <trkpt lat="48.529942" lon="16.886330">
        <ele>216.452011</ele>
        <time>2020-08-26T09:55:41.384Z</time>
      </trkpt>
      <trkpt lat="48.530031" lon="16.886366">
        <ele>216.439673</ele>
        <time>2020-08-26T09:55:42.382Z</time>
      </trkpt>
      <trkpt lat="48.530123" lon="16.886410">
        <ele>216.426750</ele>
        <time>2020-08-26T09:55:43.373Z</time>
      </trkpt>
      <trkpt lat="48.530211" lon="16.886464">
        <ele>216.414029</ele>
        <time>2020-08-26T09:55:44.389Z</time>
      </trkpt>
      <trkpt lat="48.530363" lon="16.886567">
        <ele>216.328865</ele>
        <time>2020-08-26T09:55:46.360Z</time>
      </trkpt>
      <trkpt lat="48.530529" lon="16.886599">
        <ele>216.191616</ele>
        <time>2020-08-26T09:55:48.375Z</time>
      </trkpt>
      <trkpt lat="48.530684" lon="16.886619">
        <ele>216.064031</ele>
        <time>2020-08-26T09:55:50.361Z</time>
      </trkpt>
      <trkpt lat="48.530804" lon="16.886724">
        <ele>215.950286</ele>
        <time>2020-08-26T09:55:52.360Z</time>
      </trkpt>
      <trkpt lat="48.530892" lon="16.886861">
        <ele>215.846627</ele>
        <time>2020-08-26T09:55:54.363Z</time>
      </trkpt>
      <trkpt lat="48.530950" lon="16.887010">
        <ele>215.752758</ele>
        <time>2020-08-26T09:55:57.379Z</time>
      </trkpt>
      <trkpt lat="48.531000" lon="16.887136">
        <ele>215.672980</ele>
        <time>2020-08-26T09:56:10.364Z</time>
      </trkpt>
      <trkpt lat="48.531088" lon="16.887404">
        <ele>215.510516</ele>
        <time>2020-08-26T09:56:47.367Z</time>
      </trkpt>
      <trkpt lat="48.531102" lon="16.887583">
        <ele>215.412624</ele>
        <time>2020-08-26T09:56:50.370Z</time>
      </trkpt>
      <trkpt lat="48.531110" lon="16.887725">
        <ele>215.335224</ele>
        <time>2020-08-26T09:56:52.362Z</time>
      </trkpt>
      <trkpt lat="48.531191" lon="16.887822">
        <ele>215.250439</ele>
        <time>2020-08-26T09:56:55.364Z</time>
      </trkpt>
      <trkpt lat="48.531316" lon="16.887879">
        <ele>215.143349</ele>
        <time>2020-08-26T09:56:58.362Z</time>
      </trkpt>
      <trkpt lat="48.531403" lon="16.887919">
        <ele>215.068763</ele>
        <time>2020-08-26T09:57:00.359Z</time>
      </trkpt>
      <trkpt lat="48.531540" lon="16.887929">
        <ele>214.956272</ele>
        <time>2020-08-26T09:57:03.379Z</time>
      </trkpt>
      <trkpt lat="48.531636" lon="16.887933">
        <ele>214.896831</ele>
        <time>2020-08-26T09:57:05.398Z</time>
      </trkpt>
      <trkpt lat="48.531737" lon="16.887941">
        <ele>214.845107</ele>
        <time>2020-08-26T09:57:07.363Z</time>
      </trkpt>
      <trkpt lat="48.531835" lon="16.887946">
        <ele>214.794959</ele>
        <time>2020-08-26T09:57:09.374Z</time>
      </trkpt>
      <trkpt lat="48.531931" lon="16.887946">
        <ele>214.745862</ele>
        <time>2020-08-26T09:57:11.383Z</time>
      </trkpt>
      <trkpt lat="48.532026" lon="16.887946">
        <ele>214.697277</ele>
        <time>2020-08-26T09:57:13.373Z</time>
      </trkpt>
      <trkpt lat="48.532124" lon="16.887956">
        <ele>214.647044</ele>
        <time>2020-08-26T09:57:15.390Z</time>
      </trkpt>
      <trkpt lat="48.532225" lon="16.887964">
        <ele>214.595319</ele>
        <time>2020-08-26T09:57:17.399Z</time>
      </trkpt>
      <trkpt lat="48.532328" lon="16.887964">
        <ele>214.542643</ele>
        <time>2020-08-26T09:57:19.368Z</time>
      </trkpt>
      <trkpt lat="48.532435" lon="16.887958">
        <ele>214.487883</ele>
        <time>2020-08-26T09:57:21.366Z</time>
      </trkpt>
      <trkpt lat="48.532544" lon="16.887950">
        <ele>214.432072</ele>
        <time>2020-08-26T09:57:23.422Z</time>
      </trkpt>
      <trkpt lat="48.532660" lon="16.887949">
        <ele>214.372746</ele>
        <time>2020-08-26T09:57:25.375Z</time>
      </trkpt>
      <trkpt lat="48.532775" lon="16.887942">
        <ele>214.313885</ele>
        <time>2020-08-26T09:57:27.401Z</time>
      </trkpt>
      <trkpt lat="48.532893" lon="16.887933">
        <ele>214.253460</ele>
        <time>2020-08-26T09:57:29.374Z</time>
      </trkpt>
      <trkpt lat="48.533019" lon="16.887923">
        <ele>214.188932</ele>
        <time>2020-08-26T09:57:31.370Z</time>
      </trkpt>
      <trkpt lat="48.533149" lon="16.887911">
        <ele>214.122323</ele>
        <time>2020-08-26T09:57:33.373Z</time>
      </trkpt>
      <trkpt lat="48.533284" lon="16.887900">
        <ele>214.053181</ele>
        <time>2020-08-26T09:57:35.360Z</time>
      </trkpt>
      <trkpt lat="48.533429" lon="16.887899">
        <ele>213.990593</ele>
        <time>2020-08-26T09:57:37.368Z</time>
      </trkpt>
      <trkpt lat="48.533576" lon="16.887889">
        <ele>213.944403</ele>
        <time>2020-08-26T09:57:39.362Z</time>
      </trkpt>
      <trkpt lat="48.533723" lon="16.887883">
        <ele>213.898244</ele>
        <time>2020-08-26T09:57:41.404Z</time>
      </trkpt>
      <trkpt lat="48.533871" lon="16.887869">
        <ele>213.851696</ele>
        <time>2020-08-26T09:57:43.404Z</time>
      </trkpt>
      <trkpt lat="48.534020" lon="16.887855">
        <ele>213.804836</ele>
        <time>2020-08-26T09:57:45.365Z</time>
      </trkpt>
      <trkpt lat="48.534173" lon="16.887848">
        <ele>213.756788</ele>
        <time>2020-08-26T09:57:47.370Z</time>
      </trkpt>
      <trkpt lat="48.534331" lon="16.887837">
        <ele>213.707139</ele>
        <time>2020-08-26T09:57:49.372Z</time>
      </trkpt>
      <trkpt lat="48.534492" lon="16.887821">
        <ele>213.656493</ele>
        <time>2020-08-26T09:57:51.401Z</time>
      </trkpt>
      <trkpt lat="48.534655" lon="16.887805">
        <ele>213.605220</ele>
        <time>2020-08-26T09:57:53.369Z</time>
      </trkpt>
      <trkpt lat="48.534808" lon="16.887799">
        <ele>213.557178</ele>
        <time>2020-08-26T09:57:55.369Z</time>
      </trkpt>
      <trkpt lat="48.534943" lon="16.887792">
        <ele>213.514777</ele>
        <time>2020-08-26T09:57:57.391Z</time>
      </trkpt>
      <trkpt lat="48.535068" lon="16.887782">
        <ele>213.475485</ele>
        <time>2020-08-26T09:57:59.376Z</time>
      </trkpt>
      <trkpt lat="48.535190" lon="16.887779">
        <ele>213.432148</ele>
        <time>2020-08-26T09:58:01.359Z</time>
      </trkpt>
      <trkpt lat="48.535310" lon="16.887770">
        <ele>213.368073</ele>
        <time>2020-08-26T09:58:03.369Z</time>
      </trkpt>
      <trkpt lat="48.535429" lon="16.887759">
        <ele>213.304492</ele>
        <time>2020-08-26T09:58:05.377Z</time>
      </trkpt>
      <trkpt lat="48.535544" lon="16.887751">
        <ele>213.243097</ele>
        <time>2020-08-26T09:58:07.368Z</time>
      </trkpt>
      <trkpt lat="48.535656" lon="16.887745">
        <ele>213.183330</ele>
        <time>2020-08-26T09:58:09.363Z</time>
      </trkpt>
      <trkpt lat="48.535768" lon="16.887739">
        <ele>213.123563</ele>
        <time>2020-08-26T09:58:11.364Z</time>
      </trkpt>
      <trkpt lat="48.535882" lon="16.887739">
        <ele>213.062766</ele>
        <time>2020-08-26T09:58:13.379Z</time>
      </trkpt>
      <trkpt lat="48.536000" lon="16.887736">
        <ele>212.999828</ele>
        <time>2020-08-26T09:58:15.390Z</time>
      </trkpt>
      <trkpt lat="48.536119" lon="16.887729">
        <ele>212.936317</ele>
        <time>2020-08-26T09:58:17.388Z</time>
      </trkpt>
      <trkpt lat="48.536240" lon="16.887722">
        <ele>212.871741</ele>
        <time>2020-08-26T09:58:19.395Z</time>
      </trkpt>
      <trkpt lat="48.536362" lon="16.887714">
        <ele>212.806617</ele>
        <time>2020-08-26T09:58:21.393Z</time>
      </trkpt>
      <trkpt lat="48.536487" lon="16.887704">
        <ele>212.739861</ele>
        <time>2020-08-26T09:58:23.407Z</time>
      </trkpt>
      <trkpt lat="48.536613" lon="16.887696">
        <ele>212.672606</ele>
        <time>2020-08-26T09:58:25.356Z</time>
      </trkpt>
      <trkpt lat="48.536740" lon="16.887682">
        <ele>212.604696</ele>
        <time>2020-08-26T09:58:27.380Z</time>
      </trkpt>
      <trkpt lat="48.536870" lon="16.887665">
        <ele>212.535108</ele>
        <time>2020-08-26T09:58:29.363Z</time>
      </trkpt>
      <trkpt lat="48.537000" lon="16.887651">
        <ele>212.465279</ele>
        <time>2020-08-26T09:58:31.364Z</time>
      </trkpt>
      <trkpt lat="48.537130" lon="16.887647">
        <ele>212.394789</ele>
        <time>2020-08-26T09:58:33.367Z</time>
      </trkpt>
      <trkpt lat="48.537260" lon="16.887645">
        <ele>212.324310</ele>
        <time>2020-08-26T09:58:35.370Z</time>
      </trkpt>
      <trkpt lat="48.537389" lon="16.887634">
        <ele>212.254265</ele>
        <time>2020-08-26T09:58:37.385Z</time>
      </trkpt>
      <trkpt lat="48.537516" lon="16.887626">
        <ele>212.185356</ele>
        <time>2020-08-26T09:58:39.382Z</time>
      </trkpt>
      <trkpt lat="48.537639" lon="16.887617">
        <ele>212.118597</ele>
        <time>2020-08-26T09:58:41.356Z</time>
      </trkpt>
      <trkpt lat="48.537758" lon="16.887612">
        <ele>212.054060</ele>
        <time>2020-08-26T09:58:43.379Z</time>
      </trkpt>
      <trkpt lat="48.537877" lon="16.887609">
        <ele>211.989539</ele>
        <time>2020-08-26T09:58:45.366Z</time>
      </trkpt>
      <trkpt lat="48.537994" lon="16.887602">
        <ele>211.926061</ele>
        <time>2020-08-26T09:58:47.367Z</time>
      </trkpt>
      <trkpt lat="48.538104" lon="16.887596">
        <ele>211.866389</ele>
        <time>2020-08-26T09:58:49.380Z</time>
      </trkpt>
      <trkpt lat="48.538209" lon="16.887589">
        <ele>211.809411</ele>
        <time>2020-08-26T09:58:51.394Z</time>
      </trkpt>
      <trkpt lat="48.538312" lon="16.887586">
        <ele>211.753563</ele>
        <time>2020-08-26T09:58:53.380Z</time>
      </trkpt>
      <trkpt lat="48.538417" lon="16.887581">
        <ele>211.696612</ele>
        <time>2020-08-26T09:58:55.374Z</time>
      </trkpt>
      <trkpt lat="48.538519" lon="16.887573">
        <ele>211.641241</ele>
        <time>2020-08-26T09:58:57.359Z</time>
      </trkpt>
      <trkpt lat="48.538625" lon="16.887572">
        <ele>211.583775</ele>
        <time>2020-08-26T09:58:59.384Z</time>
      </trkpt>
      <trkpt lat="48.538728" lon="16.887574">
        <ele>211.527932</ele>
        <time>2020-08-26T09:59:01.387Z</time>
      </trkpt>
      <trkpt lat="48.538831" lon="16.887585">
        <ele>211.424412</ele>
        <time>2020-08-26T09:59:03.397Z</time>
      </trkpt>
      <trkpt lat="48.538914" lon="16.887689">
        <ele>211.293070</ele>
        <time>2020-08-26T09:59:05.367Z</time>
      </trkpt>
      <trkpt lat="48.538938" lon="16.887846">
        <ele>211.163140</ele>
        <time>2020-08-26T09:59:07.369Z</time>
      </trkpt>
      <trkpt lat="48.538959" lon="16.887999">
        <ele>211.037143</ele>
        <time>2020-08-26T09:59:09.370Z</time>
      </trkpt>
      <trkpt lat="48.539024" lon="16.888094">
        <ele>210.926984</ele>
        <time>2020-08-26T09:59:11.353Z</time>
      </trkpt>
      <trkpt lat="48.539157" lon="16.888145">
        <ele>210.759868</ele>
        <time>2020-08-26T09:59:14.382Z</time>
      </trkpt>
      <trkpt lat="48.539262" lon="16.888171">
        <ele>210.630284</ele>
        <time>2020-08-26T09:59:16.357Z</time>
      </trkpt>
      <trkpt lat="48.539377" lon="16.888202">
        <ele>210.488015</ele>
        <time>2020-08-26T09:59:18.365Z</time>
      </trkpt>
      <trkpt lat="48.539492" lon="16.888224">
        <ele>210.346840</ele>
        <time>2020-08-26T09:59:20.375Z</time>
      </trkpt>
      <trkpt lat="48.539606" lon="16.888228">
        <ele>210.207965</ele>
        <time>2020-08-26T09:59:22.374Z</time>
      </trkpt>
      <trkpt lat="48.539720" lon="16.888222">
        <ele>210.069043</ele>
        <time>2020-08-26T09:59:24.382Z</time>
      </trkpt>
      <trkpt lat="48.539831" lon="16.888208">
        <ele>209.933389</ele>
        <time>2020-08-26T09:59:26.373Z</time>
      </trkpt>
      <trkpt lat="48.539938" lon="16.888199">
        <ele>209.802874</ele>
        <time>2020-08-26T09:59:28.377Z</time>
      </trkpt>
      <trkpt lat="48.540051" lon="16.888204">
        <ele>209.665195</ele>
        <time>2020-08-26T09:59:30.383Z</time>
      </trkpt>
      <trkpt lat="48.540169" lon="16.888213">
        <ele>209.521303</ele>
        <time>2020-08-26T09:59:32.371Z</time>
      </trkpt>
      <trkpt lat="48.540286" lon="16.888225">
        <ele>209.378484</ele>
        <time>2020-08-26T09:59:34.378Z</time>
      </trkpt>
      <trkpt lat="48.540404" lon="16.888234">
        <ele>209.276356</ele>
        <time>2020-08-26T09:59:36.364Z</time>
      </trkpt>
      <trkpt lat="48.540525" lon="16.888236">
        <ele>209.201410</ele>
        <time>2020-08-26T09:59:38.372Z</time>
      </trkpt>
      <trkpt lat="48.540643" lon="16.888240">
        <ele>209.128308</ele>
        <time>2020-08-26T09:59:40.373Z</time>
      </trkpt>
      <trkpt lat="48.540759" lon="16.888243">
        <ele>209.056452</ele>
        <time>2020-08-26T09:59:42.370Z</time>
      </trkpt>
      <trkpt lat="48.540871" lon="16.888245">
        <ele>208.987080</ele>
        <time>2020-08-26T09:59:44.381Z</time>
      </trkpt>
      <trkpt lat="48.540985" lon="16.888249">
        <ele>208.916454</ele>
        <time>2020-08-26T09:59:46.385Z</time>
      </trkpt>
      <trkpt lat="48.541100" lon="16.888260">
        <ele>208.845086</ele>
        <time>2020-08-26T09:59:48.363Z</time>
      </trkpt>
      <trkpt lat="48.541215" lon="16.888271">
        <ele>208.773718</ele>
        <time>2020-08-26T09:59:50.381Z</time>
      </trkpt>
      <trkpt lat="48.541328" lon="16.888281">
        <ele>208.703611</ele>
        <time>2020-08-26T09:59:52.401Z</time>
      </trkpt>
      <trkpt lat="48.541440" lon="16.888288">
        <ele>208.634184</ele>
        <time>2020-08-26T09:59:54.372Z</time>
      </trkpt>
      <trkpt lat="48.541553" lon="16.888297">
        <ele>208.564100</ele>
        <time>2020-08-26T09:59:56.387Z</time>
      </trkpt>
      <trkpt lat="48.541667" lon="16.888303">
        <ele>208.493451</ele>
        <time>2020-08-26T09:59:58.381Z</time>
      </trkpt>
      <trkpt lat="48.541786" lon="16.888307">
        <ele>208.419730</ele>
        <time>2020-08-26T10:00:00.368Z</time>
      </trkpt>
      <trkpt lat="48.541902" lon="16.888311">
        <ele>208.347866</ele>
        <time>2020-08-26T10:00:02.369Z</time>
      </trkpt>
      <trkpt lat="48.542016" lon="16.888314">
        <ele>208.277249</ele>
        <time>2020-08-26T10:00:04.375Z</time>
      </trkpt>
      <trkpt lat="48.542132" lon="16.888322">
        <ele>208.205406</ele>
        <time>2020-08-26T10:00:06.348Z</time>
      </trkpt>
      <trkpt lat="48.542249" lon="16.888332">
        <ele>208.154985</ele>
        <time>2020-08-26T10:00:08.366Z</time>
      </trkpt>
      <trkpt lat="48.542366" lon="16.888341">
        <ele>208.104579</ele>
        <time>2020-08-26T10:00:10.371Z</time>
      </trkpt>
      <trkpt lat="48.542483" lon="16.888351">
        <ele>208.054159</ele>
        <time>2020-08-26T10:00:12.369Z</time>
      </trkpt>
      <trkpt lat="48.542596" lon="16.888360">
        <ele>208.005472</ele>
        <time>2020-08-26T10:00:14.354Z</time>
      </trkpt>
      <trkpt lat="48.542712" lon="16.888364">
        <ele>207.955549</ele>
        <time>2020-08-26T10:00:16.377Z</time>
      </trkpt>
      <trkpt lat="48.542827" lon="16.888368">
        <ele>207.906056</ele>
        <time>2020-08-26T10:00:18.365Z</time>
      </trkpt>
      <trkpt lat="48.542943" lon="16.888373">
        <ele>207.856126</ele>
        <time>2020-08-26T10:00:20.375Z</time>
      </trkpt>
      <trkpt lat="48.543060" lon="16.888376">
        <ele>207.805778</ele>
        <time>2020-08-26T10:00:22.400Z</time>
      </trkpt>
      <trkpt lat="48.543178" lon="16.888384">
        <ele>207.754957</ele>
        <time>2020-08-26T10:00:24.372Z</time>
      </trkpt>
      <trkpt lat="48.543295" lon="16.888391">
        <ele>207.704577</ele>
        <time>2020-08-26T10:00:26.372Z</time>
      </trkpt>
      <trkpt lat="48.543413" lon="16.888397">
        <ele>207.653778</ele>
        <time>2020-08-26T10:00:28.375Z</time>
      </trkpt>
      <trkpt lat="48.543532" lon="16.888405">
        <ele>207.602526</ele>
        <time>2020-08-26T10:00:30.357Z</time>
      </trkpt>
      <trkpt lat="48.543656" lon="16.888412">
        <ele>207.549137</ele>
        <time>2020-08-26T10:00:32.367Z</time>
      </trkpt>
      <trkpt lat="48.543784" lon="16.888422">
        <ele>207.493990</ele>
        <time>2020-08-26T10:00:34.415Z</time>
      </trkpt>
      <trkpt lat="48.543919" lon="16.888437">
        <ele>207.435748</ele>
        <time>2020-08-26T10:00:36.369Z</time>
      </trkpt>
      <trkpt lat="48.544064" lon="16.888446">
        <ele>207.400880</ele>
        <time>2020-08-26T10:00:38.379Z</time>
      </trkpt>
      <trkpt lat="48.544212" lon="16.888460">
        <ele>207.367206</ele>
        <time>2020-08-26T10:00:40.369Z</time>
      </trkpt>
      <trkpt lat="48.544364" lon="16.888468">
        <ele>207.332668</ele>
        <time>2020-08-26T10:00:42.383Z</time>
      </trkpt>
      <trkpt lat="48.544517" lon="16.888479">
        <ele>207.297885</ele>
        <time>2020-08-26T10:00:44.372Z</time>
      </trkpt>
      <trkpt lat="48.544671" lon="16.888489">
        <ele>207.262882</ele>
        <time>2020-08-26T10:00:46.367Z</time>
      </trkpt>
      <trkpt lat="48.544818" lon="16.888496">
        <ele>207.229484</ele>
        <time>2020-08-26T10:00:48.390Z</time>
      </trkpt>
      <trkpt lat="48.544959" lon="16.888505">
        <ele>207.197436</ele>
        <time>2020-08-26T10:00:50.362Z</time>
      </trkpt>
      <trkpt lat="48.545098" lon="16.888516">
        <ele>207.165828</ele>
        <time>2020-08-26T10:00:52.367Z</time>
      </trkpt>
      <trkpt lat="48.545237" lon="16.888523">
        <ele>207.134246</ele>
        <time>2020-08-26T10:00:54.394Z</time>
      </trkpt>
      <trkpt lat="48.545376" lon="16.888531">
        <ele>207.102658</ele>
        <time>2020-08-26T10:00:56.364Z</time>
      </trkpt>
      <trkpt lat="48.545516" lon="16.888535">
        <ele>207.070861</ele>
        <time>2020-08-26T10:00:58.375Z</time>
      </trkpt>
      <trkpt lat="48.545655" lon="16.888551">
        <ele>207.039205</ele>
        <time>2020-08-26T10:01:00.365Z</time>
      </trkpt>
      <trkpt lat="48.545794" lon="16.888558">
        <ele>206.987799</ele>
        <time>2020-08-26T10:01:02.369Z</time>
      </trkpt>
      <trkpt lat="48.545932" lon="16.888567">
        <ele>206.916652</ele>
        <time>2020-08-26T10:01:04.372Z</time>
      </trkpt>
      <trkpt lat="48.546071" lon="16.888575">
        <ele>206.845004</ele>
        <time>2020-08-26T10:01:06.368Z</time>
      </trkpt>
      <trkpt lat="48.546211" lon="16.888579">
        <ele>206.772880</ele>
        <time>2020-08-26T10:01:08.384Z</time>
      </trkpt>
      <trkpt lat="48.546352" lon="16.888588">
        <ele>206.700189</ele>
        <time>2020-08-26T10:01:10.373Z</time>
      </trkpt>
      <trkpt lat="48.546493" lon="16.888602">
        <ele>206.627407</ele>
        <time>2020-08-26T10:01:12.397Z</time>
      </trkpt>
      <trkpt lat="48.546635" lon="16.888612">
        <ele>206.554186</ele>
        <time>2020-08-26T10:01:14.379Z</time>
      </trkpt>
      <trkpt lat="48.546778" lon="16.888622">
        <ele>206.480451</ele>
        <time>2020-08-26T10:01:16.373Z</time>
      </trkpt>
      <trkpt lat="48.546921" lon="16.888630">
        <ele>206.406745</ele>
        <time>2020-08-26T10:01:18.370Z</time>
      </trkpt>
      <trkpt lat="48.547067" lon="16.888637">
        <ele>206.331506</ele>
        <time>2020-08-26T10:01:20.371Z</time>
      </trkpt>
      <trkpt lat="48.547214" lon="16.888641">
        <ele>206.255777</ele>
        <time>2020-08-26T10:01:22.408Z</time>
      </trkpt>
      <trkpt lat="48.547360" lon="16.888645">
        <ele>206.180563</ele>
        <time>2020-08-26T10:01:24.386Z</time>
      </trkpt>
      <trkpt lat="48.547504" lon="16.888665">
        <ele>206.106079</ele>
        <time>2020-08-26T10:01:26.402Z</time>
      </trkpt>
      <trkpt lat="48.547630" lon="16.888769">
        <ele>206.089407</ele>
        <time>2020-08-26T10:01:28.383Z</time>
      </trkpt>
      <trkpt lat="48.547740" lon="16.888912">
        <ele>206.080849</ele>
        <time>2020-08-26T10:01:30.354Z</time>
      </trkpt>
      <trkpt lat="48.547825" lon="16.889077">
        <ele>206.072687</ele>
        <time>2020-08-26T10:01:32.379Z</time>
      </trkpt>
      <trkpt lat="48.547867" lon="16.889273">
        <ele>206.064645</ele>
        <time>2020-08-26T10:01:34.373Z</time>
      </trkpt>
      <trkpt lat="48.547900" lon="16.889469">
        <ele>206.056749</ele>
        <time>2020-08-26T10:01:36.381Z</time>
      </trkpt>
      <trkpt lat="48.547932" lon="16.889660">
        <ele>206.049058</ele>
        <time>2020-08-26T10:01:38.375Z</time>
      </trkpt>
      <trkpt lat="48.547965" lon="16.889845">
        <ele>206.041578</ele>
        <time>2020-08-26T10:01:40.378Z</time>
      </trkpt>
      <trkpt lat="48.547997" lon="16.890024">
        <ele>206.034340</ele>
        <time>2020-08-26T10:01:42.389Z</time>
      </trkpt>
      <trkpt lat="48.548032" lon="16.890193">
        <ele>206.027427</ele>
        <time>2020-08-26T10:01:44.388Z</time>
      </trkpt>
      <trkpt lat="48.548062" lon="16.890357">
        <ele>206.020785</ele>
        <time>2020-08-26T10:01:46.365Z</time>
      </trkpt>
      <trkpt lat="48.548086" lon="16.890511">
        <ele>206.014609</ele>
        <time>2020-08-26T10:01:48.387Z</time>
      </trkpt>
      <trkpt lat="48.548112" lon="16.890658">
        <ele>206.008669</ele>
        <time>2020-08-26T10:01:50.396Z</time>
      </trkpt>
      <trkpt lat="48.548137" lon="16.890799">
        <ele>206.002970</ele>
        <time>2020-08-26T10:01:52.379Z</time>
      </trkpt>
      <trkpt lat="48.548161" lon="16.890935">
        <ele>205.997476</ele>
        <time>2020-08-26T10:01:54.380Z</time>
      </trkpt>
      <trkpt lat="48.548184" lon="16.891067">
        <ele>205.992147</ele>
        <time>2020-08-26T10:01:56.369Z</time>
      </trkpt>
      <trkpt lat="48.548214" lon="16.891257">
        <ele>205.945365</ele>
        <time>2020-08-26T10:01:59.379Z</time>
      </trkpt>
      <trkpt lat="48.548251" lon="16.891427">
        <ele>205.894427</ele>
        <time>2020-08-26T10:02:02.358Z</time>
      </trkpt>
      <trkpt lat="48.548299" lon="16.891566">
        <ele>205.849801</ele>
        <time>2020-08-26T10:02:05.354Z</time>
      </trkpt>
      <trkpt lat="48.548358" lon="16.891669">
        <ele>205.811030</ele>
        <time>2020-08-26T10:02:08.371Z</time>
      </trkpt>
      <trkpt lat="48.548475" lon="16.891593">
        <ele>205.756267</ele>
        <time>2020-08-26T10:02:12.361Z</time>
      </trkpt>
      <trkpt lat="48.548567" lon="16.891484">
        <ele>205.705992</ele>
        <time>2020-08-26T10:02:15.371Z</time>
      </trkpt>
      <trkpt lat="48.548669" lon="16.891371">
        <ele>205.651602</ele>
        <time>2020-08-26T10:02:18.373Z</time>
      </trkpt>
      <trkpt lat="48.548780" lon="16.891250">
        <ele>205.592744</ele>
        <time>2020-08-26T10:02:21.373Z</time>
      </trkpt>
      <trkpt lat="48.548858" lon="16.891165">
        <ele>205.551388</ele>
        <time>2020-08-26T10:02:23.368Z</time>
      </trkpt>
      <trkpt lat="48.548937" lon="16.891075">
        <ele>205.508842</ele>
        <time>2020-08-26T10:02:25.354Z</time>
      </trkpt>
      <trkpt lat="48.549018" lon="16.890984">
        <ele>205.465437</ele>
        <time>2020-08-26T10:02:27.371Z</time>
      </trkpt>
      <trkpt lat="48.549105" lon="16.890897">
        <ele>205.420573</ele>
        <time>2020-08-26T10:02:29.380Z</time>
      </trkpt>
      <trkpt lat="48.549187" lon="16.890793">
        <ele>205.374535</ele>
        <time>2020-08-26T10:02:31.380Z</time>
      </trkpt>
      <trkpt lat="48.549268" lon="16.890692">
        <ele>205.329373</ele>
        <time>2020-08-26T10:02:33.373Z</time>
      </trkpt>
      <trkpt lat="48.549352" lon="16.890592">
        <ele>205.283386</ele>
        <time>2020-08-26T10:02:35.359Z</time>
      </trkpt>
      <trkpt lat="48.549437" lon="16.890492">
        <ele>205.237060</ele>
        <time>2020-08-26T10:02:37.367Z</time>
      </trkpt>
      <trkpt lat="48.549525" lon="16.890399">
        <ele>205.193994</ele>
        <time>2020-08-26T10:02:39.408Z</time>
      </trkpt>
      <trkpt lat="48.549609" lon="16.890312">
        <ele>205.155353</ele>
        <time>2020-08-26T10:02:41.367Z</time>
      </trkpt>
      <trkpt lat="48.549695" lon="16.890222">
        <ele>205.115659</ele>
        <time>2020-08-26T10:02:43.364Z</time>
      </trkpt>
      <trkpt lat="48.549780" lon="16.890126">
        <ele>205.075393</ele>
        <time>2020-08-26T10:02:45.393Z</time>
      </trkpt>
      <trkpt lat="48.549868" lon="16.890028">
        <ele>205.033913</ele>
        <time>2020-08-26T10:02:47.385Z</time>
      </trkpt>
      <trkpt lat="48.549953" lon="16.889931">
        <ele>204.993496</ele>
        <time>2020-08-26T10:02:49.381Z</time>
      </trkpt>
      <trkpt lat="48.550039" lon="16.889835">
        <ele>204.952926</ele>
        <time>2020-08-26T10:02:51.369Z</time>
      </trkpt>
      <trkpt lat="48.550128" lon="16.889739">
        <ele>204.911434</ele>
        <time>2020-08-26T10:02:53.401Z</time>
      </trkpt>
      <trkpt lat="48.550221" lon="16.889646">
        <ele>204.869119</ele>
        <time>2020-08-26T10:02:55.375Z</time>
      </trkpt>
      <trkpt lat="48.550313" lon="16.889555">
        <ele>204.827397</ele>
        <time>2020-08-26T10:02:57.370Z</time>
      </trkpt>
      <trkpt lat="48.550402" lon="16.889464">
        <ele>204.786622</ele>
        <time>2020-08-26T10:02:59.372Z</time>
      </trkpt>
      <trkpt lat="48.550488" lon="16.889372">
        <ele>204.746641</ele>
        <time>2020-08-26T10:03:01.363Z</time>
      </trkpt>
      <trkpt lat="48.550571" lon="16.889279">
        <ele>204.707433</ele>
        <time>2020-08-26T10:03:03.369Z</time>
      </trkpt>
      <trkpt lat="48.550657" lon="16.889182">
        <ele>204.666713</ele>
        <time>2020-08-26T10:03:05.380Z</time>
      </trkpt>
      <trkpt lat="48.550742" lon="16.889087">
        <ele>204.626597</ele>
        <time>2020-08-26T10:03:07.369Z</time>
      </trkpt>
      <trkpt lat="48.550827" lon="16.888993">
        <ele>204.586630</ele>
        <time>2020-08-26T10:03:09.361Z</time>
      </trkpt>
      <trkpt lat="48.550912" lon="16.888898">
        <ele>204.546514</ele>
        <time>2020-08-26T10:03:11.381Z</time>
      </trkpt>
      <trkpt lat="48.551001" lon="16.888805">
        <ele>204.519021</ele>
        <time>2020-08-26T10:03:13.367Z</time>
      </trkpt>
      <trkpt lat="48.551088" lon="16.888713">
        <ele>204.497273</ele>
        <time>2020-08-26T10:03:15.360Z</time>
      </trkpt>
      <trkpt lat="48.551171" lon="16.888622">
        <ele>204.476271</ele>
        <time>2020-08-26T10:03:17.369Z</time>
      </trkpt>
      <trkpt lat="48.551251" lon="16.888536">
        <ele>204.456163</ele>
        <time>2020-08-26T10:03:19.393Z</time>
      </trkpt>
      <trkpt lat="48.551329" lon="16.888447">
        <ele>204.436145</ele>
        <time>2020-08-26T10:03:21.392Z</time>
      </trkpt>
      <trkpt lat="48.551404" lon="16.888359">
        <ele>204.416698</ele>
        <time>2020-08-26T10:03:23.403Z</time>
      </trkpt>
      <trkpt lat="48.551479" lon="16.888272">
        <ele>204.397333</ele>
        <time>2020-08-26T10:03:25.359Z</time>
      </trkpt>
      <trkpt lat="48.551549" lon="16.888184">
        <ele>204.378684</ele>
        <time>2020-08-26T10:03:27.378Z</time>
      </trkpt>
      <trkpt lat="48.551615" lon="16.888090">
        <ele>204.360108</ele>
        <time>2020-08-26T10:03:29.353Z</time>
      </trkpt>
      <trkpt lat="48.551710" lon="16.887950">
        <ele>204.332930</ele>
        <time>2020-08-26T10:03:32.392Z</time>
      </trkpt>
      <trkpt lat="48.551794" lon="16.887799">
        <ele>204.306192</ele>
        <time>2020-08-26T10:03:35.381Z</time>
      </trkpt>
      <trkpt lat="48.551876" lon="16.887648">
        <ele>204.279716</ele>
        <time>2020-08-26T10:03:38.370Z</time>
      </trkpt>
      <trkpt lat="48.551958" lon="16.887499">
        <ele>204.253449</ele>
        <time>2020-08-26T10:03:41.373Z</time>
      </trkpt>
      <trkpt lat="48.552039" lon="16.887347">
        <ele>204.226997</ele>
        <time>2020-08-26T10:03:44.398Z</time>
      </trkpt>
      <trkpt lat="48.552115" lon="16.887194">
        <ele>204.201066</ele>
        <time>2020-08-26T10:03:47.369Z</time>
      </trkpt>
      <trkpt lat="48.552188" lon="16.887035">
        <ele>204.174836</ele>
        <time>2020-08-26T10:03:50.395Z</time>
      </trkpt>
      <trkpt lat="48.552261" lon="16.886873">
        <ele>204.175988</ele>
        <time>2020-08-26T10:03:53.352Z</time>
      </trkpt>
      <trkpt lat="48.552333" lon="16.886707">
        <ele>204.189792</ele>
        <time>2020-08-26T10:03:56.363Z</time>
      </trkpt>
      <trkpt lat="48.552392" lon="16.886601">
        <ele>204.199425</ele>
        <time>2020-08-26T10:03:58.397Z</time>
      </trkpt>
      <trkpt lat="48.552478" lon="16.886446">
        <ele>204.213492</ele>
        <time>2020-08-26T10:04:01.384Z</time>
      </trkpt>
      <trkpt lat="48.552558" lon="16.886286">
        <ele>204.227439</ele>
        <time>2020-08-26T10:04:04.364Z</time>
      </trkpt>
      <trkpt lat="48.552635" lon="16.886131">
        <ele>204.240918</ele>
        <time>2020-08-26T10:04:07.375Z</time>
      </trkpt>
      <trkpt lat="48.552709" lon="16.885974">
        <ele>204.254324</ele>
        <time>2020-08-26T10:04:10.375Z</time>
      </trkpt>
      <trkpt lat="48.552782" lon="16.885818">
        <ele>204.267612</ele>
        <time>2020-08-26T10:04:13.384Z</time>
      </trkpt>
      <trkpt lat="48.552854" lon="16.885663">
        <ele>204.280782</ele>
        <time>2020-08-26T10:04:16.389Z</time>
      </trkpt>
      <trkpt lat="48.552931" lon="16.885511">
        <ele>204.294095</ele>
        <time>2020-08-26T10:04:19.368Z</time>
      </trkpt>
      <trkpt lat="48.553005" lon="16.885362">
        <ele>204.307051</ele>
        <time>2020-08-26T10:04:22.406Z</time>
      </trkpt>
      <trkpt lat="48.553082" lon="16.885223">
        <ele>204.319658</ele>
        <time>2020-08-26T10:04:25.393Z</time>
      </trkpt>
      <trkpt lat="48.553153" lon="16.885085">
        <ele>204.331815</ele>
        <time>2020-08-26T10:04:28.357Z</time>
      </trkpt>
      <trkpt lat="48.553221" lon="16.884953">
        <ele>204.343449</ele>
        <time>2020-08-26T10:04:31.376Z</time>
      </trkpt>
      <trkpt lat="48.553287" lon="16.884829">
        <ele>204.354516</ele>
        <time>2020-08-26T10:04:34.380Z</time>
      </trkpt>
      <trkpt lat="48.553344" lon="16.884720">
        <ele>204.416875</ele>
        <time>2020-08-26T10:04:37.372Z</time>
      </trkpt>
      <trkpt lat="48.553397" lon="16.884604">
        <ele>204.486806</ele>
        <time>2020-08-26T10:04:40.398Z</time>
      </trkpt>
      <trkpt lat="48.553475" lon="16.884492">
        <ele>204.567463</ele>
        <time>2020-08-26T10:04:44.369Z</time>
      </trkpt>
      <trkpt lat="48.553545" lon="16.884387">
        <ele>204.641400</ele>
        <time>2020-08-26T10:04:48.379Z</time>
      </trkpt>
      <trkpt lat="48.553602" lon="16.884248">
        <ele>204.722524</ele>
        <time>2020-08-26T10:04:52.396Z</time>
      </trkpt>
      <trkpt lat="48.553670" lon="16.884127">
        <ele>204.801274</ele>
        <time>2020-08-26T10:04:56.371Z</time>
      </trkpt>
      <trkpt lat="48.553735" lon="16.884009">
        <ele>204.877437</ele>
        <time>2020-08-26T10:05:00.375Z</time>
      </trkpt>
      <trkpt lat="48.553811" lon="16.883884">
        <ele>204.961645</ele>
        <time>2020-08-26T10:05:04.410Z</time>
      </trkpt>
      <trkpt lat="48.553891" lon="16.883774">
        <ele>205.042724</ele>
        <time>2020-08-26T10:05:08.365Z</time>
      </trkpt>
      <trkpt lat="48.553961" lon="16.883651">
        <ele>205.123202</ele>
        <time>2020-08-26T10:05:12.383Z</time>
      </trkpt>
      <trkpt lat="48.554042" lon="16.883525">
        <ele>205.210344</ele>
        <time>2020-08-26T10:05:16.370Z</time>
      </trkpt>
      <trkpt lat="48.554112" lon="16.883388">
        <ele>205.296208</ele>
        <time>2020-08-26T10:05:19.388Z</time>
      </trkpt>
      <trkpt lat="48.554182" lon="16.883239">
        <ele>205.386858</ele>
        <time>2020-08-26T10:05:22.396Z</time>
      </trkpt>
      <trkpt lat="48.554245" lon="16.883104">
        <ele>205.468807</ele>
        <time>2020-08-26T10:05:25.375Z</time>
      </trkpt>
      <trkpt lat="48.554295" lon="16.882987">
        <ele>205.537900</ele>
        <time>2020-08-26T10:05:28.384Z</time>
      </trkpt>
      <trkpt lat="48.554360" lon="16.882859">
        <ele>205.617940</ele>
        <time>2020-08-26T10:05:32.384Z</time>
      </trkpt>
      <trkpt lat="48.554419" lon="16.882748">
        <ele>205.688568</ele>
        <time>2020-08-26T10:05:36.370Z</time>
      </trkpt>
      <trkpt lat="48.554482" lon="16.882643">
        <ele>205.782911</ele>
        <time>2020-08-26T10:05:40.373Z</time>
      </trkpt>
      <trkpt lat="48.554551" lon="16.882533">
        <ele>205.890862</ele>
        <time>2020-08-26T10:05:44.370Z</time>
      </trkpt>
      <trkpt lat="48.554615" lon="16.882436">
        <ele>205.988422</ele>
        <time>2020-08-26T10:05:47.362Z</time>
      </trkpt>
      <trkpt lat="48.554687" lon="16.882314">
        <ele>206.104852</ele>
        <time>2020-08-26T10:05:51.382Z</time>
      </trkpt>
      <trkpt lat="48.554757" lon="16.882211">
        <ele>206.210008</ele>
        <time>2020-08-26T10:05:54.359Z</time>
      </trkpt>
      <trkpt lat="48.554826" lon="16.882114">
        <ele>206.311438</ele>
        <time>2020-08-26T10:05:57.370Z</time>
      </trkpt>
      <trkpt lat="48.554896" lon="16.882000">
        <ele>206.422204</ele>
        <time>2020-08-26T10:06:00.385Z</time>
      </trkpt>
      <trkpt lat="48.554973" lon="16.881883">
        <ele>206.539730</ele>
        <time>2020-08-26T10:06:03.380Z</time>
      </trkpt>
      <trkpt lat="48.555061" lon="16.881755">
        <ele>206.671190</ele>
        <time>2020-08-26T10:06:06.379Z</time>
      </trkpt>
      <trkpt lat="48.555146" lon="16.881627">
        <ele>206.800344</ele>
        <time>2020-08-26T10:06:09.375Z</time>
      </trkpt>
      <trkpt lat="48.555227" lon="16.881489">
        <ele>206.931726</ele>
        <time>2020-08-26T10:06:12.380Z</time>
      </trkpt>
      <trkpt lat="48.555317" lon="16.881352">
        <ele>207.069218</ele>
        <time>2020-08-26T10:06:15.380Z</time>
      </trkpt>
      <trkpt lat="48.555408" lon="16.881212">
        <ele>207.208987</ele>
        <time>2020-08-26T10:06:18.367Z</time>
      </trkpt>
      <trkpt lat="48.555470" lon="16.881109">
        <ele>207.308158</ele>
        <time>2020-08-26T10:06:20.371Z</time>
      </trkpt>
      <trkpt lat="48.555529" lon="16.881007">
        <ele>207.404647</ele>
        <time>2020-08-26T10:06:22.384Z</time>
      </trkpt>
      <trkpt lat="48.555592" lon="16.880906">
        <ele>207.503503</ele>
        <time>2020-08-26T10:06:24.382Z</time>
      </trkpt>
      <trkpt lat="48.555658" lon="16.880809">
        <ele>207.602593</ele>
        <time>2020-08-26T10:06:26.360Z</time>
      </trkpt>
      <trkpt lat="48.555725" lon="16.880706">
        <ele>207.675706</ele>
        <time>2020-08-26T10:06:28.364Z</time>
      </trkpt>
      <trkpt lat="48.555789" lon="16.880599">
        <ele>207.732183</ele>
        <time>2020-08-26T10:06:30.405Z</time>
      </trkpt>
      <trkpt lat="48.555850" lon="16.880493">
        <ele>207.787189</ele>
        <time>2020-08-26T10:06:32.384Z</time>
      </trkpt>
      <trkpt lat="48.555917" lon="16.880393">
        <ele>207.842912</ele>
        <time>2020-08-26T10:06:34.371Z</time>
      </trkpt>
      <trkpt lat="48.555989" lon="16.880289">
        <ele>207.901848</ele>
        <time>2020-08-26T10:06:36.371Z</time>
      </trkpt>
      <trkpt lat="48.556062" lon="16.880184">
        <ele>207.961482</ele>
        <time>2020-08-26T10:06:38.376Z</time>
      </trkpt>
      <trkpt lat="48.556154" lon="16.880049">
        <ele>208.037363</ele>
        <time>2020-08-26T10:06:41.362Z</time>
      </trkpt>
      <trkpt lat="48.556245" lon="16.879906">
        <ele>208.115047</ele>
        <time>2020-08-26T10:06:44.378Z</time>
      </trkpt>
      <trkpt lat="48.556332" lon="16.879767">
        <ele>208.189964</ele>
        <time>2020-08-26T10:06:47.374Z</time>
      </trkpt>
      <trkpt lat="48.556417" lon="16.879626">
        <ele>208.264651</ele>
        <time>2020-08-26T10:06:50.377Z</time>
      </trkpt>
      <trkpt lat="48.556507" lon="16.879476">
        <ele>208.343935</ele>
        <time>2020-08-26T10:06:53.369Z</time>
      </trkpt>
      <trkpt lat="48.556573" lon="16.879381">
        <ele>208.397869</ele>
        <time>2020-08-26T10:06:55.370Z</time>
      </trkpt>
      <trkpt lat="48.556643" lon="16.879292">
        <ele>208.451999</ele>
        <time>2020-08-26T10:06:57.382Z</time>
      </trkpt>
      <trkpt lat="48.556742" lon="16.879160">
        <ele>208.530121</ele>
        <time>2020-08-26T10:07:00.365Z</time>
      </trkpt>
      <trkpt lat="48.556807" lon="16.879062">
        <ele>208.584451</ele>
        <time>2020-08-26T10:07:02.403Z</time>
      </trkpt>
      <trkpt lat="48.556897" lon="16.878915">
        <ele>208.662869</ele>
        <time>2020-08-26T10:07:05.360Z</time>
      </trkpt>
      <trkpt lat="48.556986" lon="16.878767">
        <ele>208.738792</ele>
        <time>2020-08-26T10:07:08.387Z</time>
      </trkpt>
      <trkpt lat="48.557072" lon="16.878616">
        <ele>208.811862</ele>
        <time>2020-08-26T10:07:11.376Z</time>
      </trkpt>
      <trkpt lat="48.557161" lon="16.878469">
        <ele>208.884938</ele>
        <time>2020-08-26T10:07:14.394Z</time>
      </trkpt>
      <trkpt lat="48.557256" lon="16.878330">
        <ele>208.958228</ele>
        <time>2020-08-26T10:07:17.379Z</time>
      </trkpt>
      <trkpt lat="48.557323" lon="16.878229">
        <ele>209.010679</ele>
        <time>2020-08-26T10:07:19.390Z</time>
      </trkpt>
      <trkpt lat="48.557389" lon="16.878127">
        <ele>209.063002</ele>
        <time>2020-08-26T10:07:21.365Z</time>
      </trkpt>
      <trkpt lat="48.557455" lon="16.878031">
        <ele>209.113773</ele>
        <time>2020-08-26T10:07:23.372Z</time>
      </trkpt>
      <trkpt lat="48.557520" lon="16.877931">
        <ele>209.165184</ele>
        <time>2020-08-26T10:07:25.367Z</time>
      </trkpt>
      <trkpt lat="48.557582" lon="16.877822">
        <ele>209.217901</ele>
        <time>2020-08-26T10:07:27.381Z</time>
      </trkpt>
      <trkpt lat="48.557648" lon="16.877713">
        <ele>209.272089</ele>
        <time>2020-08-26T10:07:29.390Z</time>
      </trkpt>
      <trkpt lat="48.557717" lon="16.877608">
        <ele>209.326362</ele>
        <time>2020-08-26T10:07:31.389Z</time>
      </trkpt>
      <trkpt lat="48.557792" lon="16.877496">
        <ele>209.384802</ele>
        <time>2020-08-26T10:07:33.377Z</time>
      </trkpt>
      <trkpt lat="48.557865" lon="16.877383">
        <ele>209.442721</ele>
        <time>2020-08-26T10:07:35.381Z</time>
      </trkpt>
      <trkpt lat="48.557935" lon="16.877272">
        <ele>209.498958</ele>
        <time>2020-08-26T10:07:37.360Z</time>
      </trkpt>
      <trkpt lat="48.558004" lon="16.877165">
        <ele>209.553753</ele>
        <time>2020-08-26T10:07:39.365Z</time>
      </trkpt>
      <trkpt lat="48.558080" lon="16.877055">
        <ele>209.612079</ele>
        <time>2020-08-26T10:07:42.360Z</time>
      </trkpt>
      <trkpt lat="48.558165" lon="16.876929">
        <ele>209.678071</ele>
        <time>2020-08-26T10:07:45.385Z</time>
      </trkpt>
      <trkpt lat="48.558236" lon="16.876808">
        <ele>209.721064</ele>
        <time>2020-08-26T10:07:47.386Z</time>
      </trkpt>
      <trkpt lat="48.558302" lon="16.876704">
        <ele>209.750630</ele>
        <time>2020-08-26T10:07:49.374Z</time>
      </trkpt>
      <trkpt lat="48.558376" lon="16.876596">
        <ele>209.782528</ele>
        <time>2020-08-26T10:07:51.386Z</time>
      </trkpt>
      <trkpt lat="48.558436" lon="16.876455">
        <ele>209.816926</ele>
        <time>2020-08-26T10:07:53.363Z</time>
      </trkpt>
      <trkpt lat="48.558498" lon="16.876306">
        <ele>209.853041</ele>
        <time>2020-08-26T10:07:55.369Z</time>
      </trkpt>
      <trkpt lat="48.558560" lon="16.876154">
        <ele>209.889680</ele>
        <time>2020-08-26T10:07:57.384Z</time>
      </trkpt>
      <trkpt lat="48.558623" lon="16.876001">
        <ele>209.926655</ele>
        <time>2020-08-26T10:07:59.379Z</time>
      </trkpt>
      <trkpt lat="48.558692" lon="16.875862">
        <ele>209.962309</ele>
        <time>2020-08-26T10:08:01.377Z</time>
      </trkpt>
      <trkpt lat="48.558779" lon="16.875754">
        <ele>209.997219</ele>
        <time>2020-08-26T10:08:03.382Z</time>
      </trkpt>
      <trkpt lat="48.558865" lon="16.875651">
        <ele>210.031243</ele>
        <time>2020-08-26T10:08:05.383Z</time>
      </trkpt>
      <trkpt lat="48.558942" lon="16.875536">
        <ele>210.064811</ele>
        <time>2020-08-26T10:08:07.380Z</time>
      </trkpt>
      <trkpt lat="48.559010" lon="16.875407">
        <ele>210.098651</ele>
        <time>2020-08-26T10:08:09.359Z</time>
      </trkpt>
      <trkpt lat="48.559071" lon="16.875273">
        <ele>210.132024</ele>
        <time>2020-08-26T10:08:11.372Z</time>
      </trkpt>
      <trkpt lat="48.559121" lon="16.875127">
        <ele>210.165756</ele>
        <time>2020-08-26T10:08:13.363Z</time>
      </trkpt>
      <trkpt lat="48.559175" lon="16.874982">
        <ele>210.199897</ele>
        <time>2020-08-26T10:08:15.370Z</time>
      </trkpt>
      <trkpt lat="48.559239" lon="16.874826">
        <ele>210.237559</ele>
        <time>2020-08-26T10:08:17.365Z</time>
      </trkpt>
      <trkpt lat="48.559311" lon="16.874655">
        <ele>210.270740</ele>
        <time>2020-08-26T10:08:19.365Z</time>
      </trkpt>
      <trkpt lat="48.559399" lon="16.874477">
        <ele>210.298217</ele>
        <time>2020-08-26T10:08:21.381Z</time>
      </trkpt>
      <trkpt lat="48.559493" lon="16.874280">
        <ele>210.328251</ele>
        <time>2020-08-26T10:08:23.369Z</time>
      </trkpt>
      <trkpt lat="48.559592" lon="16.874085">
        <ele>210.358644</ele>
        <time>2020-08-26T10:08:25.371Z</time>
      </trkpt>
      <trkpt lat="48.559676" lon="16.873870">
        <ele>210.389520</ele>
        <time>2020-08-26T10:08:27.356Z</time>
      </trkpt>
      <trkpt lat="48.559752" lon="16.873647">
        <ele>210.420540</ele>
        <time>2020-08-26T10:08:29.371Z</time>
      </trkpt>
      <trkpt lat="48.559820" lon="16.873406">
        <ele>210.452940</ele>
        <time>2020-08-26T10:08:31.362Z</time>
      </trkpt>
      <trkpt lat="48.559859" lon="16.873281">
        <ele>210.470030</ele>
        <time>2020-08-26T10:08:32.390Z</time>
      </trkpt>
      <trkpt lat="48.559936" lon="16.873071">
        <ele>210.499719</ele>
        <time>2020-08-26T10:08:34.371Z</time>
      </trkpt>
      <trkpt lat="48.560033" lon="16.873009">
        <ele>210.519399</ele>
        <time>2020-08-26T10:08:37.373Z</time>
      </trkpt>
      <trkpt lat="48.560117" lon="16.873118">
        <ele>210.540089</ele>
        <time>2020-08-26T10:09:23.389Z</time>
      </trkpt>
      <trkpt lat="48.560148" lon="16.873260">
        <ele>210.558580</ele>
        <time>2020-08-26T10:09:25.372Z</time>
      </trkpt>
      <trkpt lat="48.560180" lon="16.873409">
        <ele>210.577953</ele>
        <time>2020-08-26T10:09:27.350Z</time>
      </trkpt>
      <trkpt lat="48.560219" lon="16.873570">
        <ele>210.583923</ele>
        <time>2020-08-26T10:09:29.366Z</time>
      </trkpt>
      <trkpt lat="48.560260" lon="16.873738">
        <ele>210.539652</ele>
        <time>2020-08-26T10:09:31.382Z</time>
      </trkpt>
      <trkpt lat="48.560301" lon="16.873916">
        <ele>210.493055</ele>
        <time>2020-08-26T10:09:33.368Z</time>
      </trkpt>
      <trkpt lat="48.560341" lon="16.874090">
        <ele>210.447514</ele>
        <time>2020-08-26T10:09:35.374Z</time>
      </trkpt>
      <trkpt lat="48.560382" lon="16.874263">
        <ele>210.402082</ele>
        <time>2020-08-26T10:09:37.372Z</time>
      </trkpt>
      <trkpt lat="48.560425" lon="16.874450">
        <ele>210.353137</ele>
        <time>2020-08-26T10:09:39.357Z</time>
      </trkpt>
      <trkpt lat="48.560465" lon="16.874643">
        <ele>210.303135</ele>
        <time>2020-08-26T10:09:41.375Z</time>
      </trkpt>
      <trkpt lat="48.560508" lon="16.874844">
        <ele>210.250909</ele>
        <time>2020-08-26T10:09:43.378Z</time>
      </trkpt>
      <trkpt lat="48.560550" lon="16.875052">
        <ele>210.197143</ele>
        <time>2020-08-26T10:09:45.369Z</time>
      </trkpt>
      <trkpt lat="48.560596" lon="16.875258">
        <ele>210.143391</ele>
        <time>2020-08-26T10:09:47.369Z</time>
      </trkpt>
      <trkpt lat="48.560644" lon="16.875456">
        <ele>210.091257</ele>
        <time>2020-08-26T10:09:49.363Z</time>
      </trkpt>
      <trkpt lat="48.560705" lon="16.875643">
        <ele>210.039713</ele>
        <time>2020-08-26T10:09:51.384Z</time>
      </trkpt>
      <trkpt lat="48.560771" lon="16.875824">
        <ele>209.988620</ele>
        <time>2020-08-26T10:09:53.372Z</time>
      </trkpt>
      <trkpt lat="48.560863" lon="16.875986">
        <ele>209.935844</ele>
        <time>2020-08-26T10:09:55.369Z</time>
      </trkpt>
      <trkpt lat="48.560951" lon="16.876159">
        <ele>209.825825</ele>
        <time>2020-08-26T10:09:57.378Z</time>
      </trkpt>
      <trkpt lat="48.561029" lon="16.876337">
        <ele>209.699538</ele>
        <time>2020-08-26T10:09:59.380Z</time>
      </trkpt>
      <trkpt lat="48.561110" lon="16.876507">
        <ele>209.575622</ele>
        <time>2020-08-26T10:10:01.372Z</time>
      </trkpt>
      <trkpt lat="48.561201" lon="16.876672">
        <ele>209.448565</ele>
        <time>2020-08-26T10:10:03.362Z</time>
      </trkpt>
      <trkpt lat="48.561279" lon="16.876848">
        <ele>209.323264</ele>
        <time>2020-08-26T10:10:05.365Z</time>
      </trkpt>
      <trkpt lat="48.561358" lon="16.877019">
        <ele>209.199899</ele>
        <time>2020-08-26T10:10:07.382Z</time>
      </trkpt>
      <trkpt lat="48.561434" lon="16.877185">
        <ele>209.080494</ele>
        <time>2020-08-26T10:10:09.370Z</time>
      </trkpt>
      <trkpt lat="48.561512" lon="16.877341">
        <ele>208.964835</ele>
        <time>2020-08-26T10:10:11.362Z</time>
      </trkpt>
      <trkpt lat="48.561586" lon="16.877486">
        <ele>208.856519</ele>
        <time>2020-08-26T10:10:13.353Z</time>
      </trkpt>
      <trkpt lat="48.561647" lon="16.877618">
        <ele>208.761281</ele>
        <time>2020-08-26T10:10:15.389Z</time>
      </trkpt>
      <trkpt lat="48.561715" lon="16.877756">
        <ele>208.659504</ele>
        <time>2020-08-26T10:10:18.370Z</time>
      </trkpt>
      <trkpt lat="48.561903" lon="16.877504">
        <ele>208.434871</ele>
        <time>2020-08-26T10:10:52.383Z</time>
      </trkpt>
      <trkpt lat="48.561988" lon="16.877401">
        <ele>208.337481</ele>
        <time>2020-08-26T10:10:55.362Z</time>
      </trkpt>
      <trkpt lat="48.562033" lon="16.877230">
        <ele>208.241687</ele>
        <time>2020-08-26T10:10:58.368Z</time>
      </trkpt>
      <trkpt lat="48.562015" lon="16.877026">
        <ele>208.138472</ele>
        <time>2020-08-26T10:11:01.351Z</time>
      </trkpt>
      <trkpt lat="48.562012" lon="16.876881">
        <ele>208.065716</ele>
        <time>2020-08-26T10:11:03.365Z</time>
      </trkpt>
      <trkpt lat="48.562010" lon="16.876733">
        <ele>207.991476</ele>
        <time>2020-08-26T10:11:05.370Z</time>
      </trkpt>
      <trkpt lat="48.562001" lon="16.876568">
        <ele>207.908444</ele>
        <time>2020-08-26T10:11:07.374Z</time>
      </trkpt>
      <trkpt lat="48.561991" lon="16.876423">
        <ele>207.835330</ele>
        <time>2020-08-26T10:11:09.375Z</time>
      </trkpt>
      <trkpt lat="48.561989" lon="16.876278">
        <ele>207.762594</ele>
        <time>2020-08-26T10:11:11.375Z</time>
      </trkpt>
      <trkpt lat="48.561994" lon="16.876129">
        <ele>207.687771</ele>
        <time>2020-08-26T10:11:13.382Z</time>
      </trkpt>
      <trkpt lat="48.562008" lon="16.875981">
        <ele>207.612792</ele>
        <time>2020-08-26T10:11:15.370Z</time>
      </trkpt>
      <trkpt lat="48.562021" lon="16.875838">
        <ele>207.540401</ele>
        <time>2020-08-26T10:11:17.381Z</time>
      </trkpt>
      <trkpt lat="48.562032" lon="16.875694">
        <ele>207.467703</ele>
        <time>2020-08-26T10:11:19.370Z</time>
      </trkpt>
      <trkpt lat="48.562044" lon="16.875551">
        <ele>207.395411</ele>
        <time>2020-08-26T10:11:21.363Z</time>
      </trkpt>
      <trkpt lat="48.562050" lon="16.875402">
        <ele>207.320547</ele>
        <time>2020-08-26T10:11:23.384Z</time>
      </trkpt>
      <trkpt lat="48.562052" lon="16.875257">
        <ele>207.247811</ele>
        <time>2020-08-26T10:11:25.369Z</time>
      </trkpt>
      <trkpt lat="48.562050" lon="16.875117">
        <ele>207.177581</ele>
        <time>2020-08-26T10:11:27.394Z</time>
      </trkpt>
      <trkpt lat="48.562017" lon="16.874990">
        <ele>207.109155</ele>
        <time>2020-08-26T10:11:29.373Z</time>
      </trkpt>
      <trkpt lat="48.561957" lon="16.874884">
        <ele>207.039202</ele>
        <time>2020-08-26T10:11:31.382Z</time>
      </trkpt>
      <trkpt lat="48.561869" lon="16.874814">
        <ele>206.963839</ele>
        <time>2020-08-26T10:11:33.393Z</time>
      </trkpt>
      <trkpt lat="48.561772" lon="16.874748">
        <ele>206.899959</ele>
        <time>2020-08-26T10:11:35.363Z</time>
      </trkpt>
      <trkpt lat="48.561678" lon="16.874677">
        <ele>206.839856</ele>
        <time>2020-08-26T10:11:37.372Z</time>
      </trkpt>
      <trkpt lat="48.561581" lon="16.874614">
        <ele>206.779473</ele>
        <time>2020-08-26T10:11:39.362Z</time>
      </trkpt>
      <trkpt lat="48.561485" lon="16.874556">
        <ele>206.720342</ele>
        <time>2020-08-26T10:11:41.381Z</time>
      </trkpt>
      <trkpt lat="48.561397" lon="16.874499">
        <ele>206.665584</ele>
        <time>2020-08-26T10:11:43.375Z</time>
      </trkpt>
      <trkpt lat="48.561283" lon="16.874410">
        <ele>206.592197</ele>
        <time>2020-08-26T10:11:46.378Z</time>
      </trkpt>
      <trkpt lat="48.561198" lon="16.874336">
        <ele>206.536092</ele>
        <time>2020-08-26T10:11:48.363Z</time>
      </trkpt>
      <trkpt lat="48.561120" lon="16.874264">
        <ele>206.483817</ele>
        <time>2020-08-26T10:11:50.361Z</time>
      </trkpt>
      <trkpt lat="48.561043" lon="16.874186">
        <ele>206.430799</ele>
        <time>2020-08-26T10:11:52.388Z</time>
      </trkpt>
      <trkpt lat="48.561024" lon="16.873990">
        <ele>206.355820</ele>
        <time>2020-08-26T10:11:55.365Z</time>
      </trkpt>
      <trkpt lat="48.561059" lon="16.873847">
        <ele>206.298110</ele>
        <time>2020-08-26T10:11:57.356Z</time>
      </trkpt>
      <trkpt lat="48.561104" lon="16.873729">
        <ele>206.246562</ele>
        <time>2020-08-26T10:11:59.363Z</time>
      </trkpt>
      <trkpt lat="48.561155" lon="16.873613">
        <ele>206.193850</ele>
        <time>2020-08-26T10:12:01.357Z</time>
      </trkpt>
      <trkpt lat="48.561211" lon="16.873498">
        <ele>206.139809</ele>
        <time>2020-08-26T10:12:03.378Z</time>
      </trkpt>
      <trkpt lat="48.561265" lon="16.873385">
        <ele>206.087053</ele>
        <time>2020-08-26T10:12:05.379Z</time>
      </trkpt>
      <trkpt lat="48.561315" lon="16.873268">
        <ele>206.034338</ele>
        <time>2020-08-26T10:12:07.397Z</time>
      </trkpt>
      <trkpt lat="48.561369" lon="16.873158">
        <ele>205.982499</ele>
        <time>2020-08-26T10:12:09.360Z</time>
      </trkpt>
      <trkpt lat="48.561429" lon="16.873056">
        <ele>205.930846</ele>
        <time>2020-08-26T10:12:11.377Z</time>
      </trkpt>
      <trkpt lat="48.561492" lon="16.872945">
        <ele>205.899922</ele>
        <time>2020-08-26T10:12:13.351Z</time>
      </trkpt>
      <trkpt lat="48.561556" lon="16.872834">
        <ele>205.872986</ele>
        <time>2020-08-26T10:12:15.355Z</time>
      </trkpt>
      <trkpt lat="48.561621" lon="16.872718">
        <ele>205.845176</ele>
        <time>2020-08-26T10:12:17.360Z</time>
      </trkpt>
      <trkpt lat="48.561692" lon="16.872601">
        <ele>205.816132</ele>
        <time>2020-08-26T10:12:19.373Z</time>
      </trkpt>
      <trkpt lat="48.561765" lon="16.872490">
        <ele>205.787500</ele>
        <time>2020-08-26T10:12:21.382Z</time>
      </trkpt>
      <trkpt lat="48.561837" lon="16.872368">
        <ele>205.757592</ele>
        <time>2020-08-26T10:12:23.388Z</time>
      </trkpt>
      <trkpt lat="48.561903" lon="16.872236">
        <ele>205.727323</ele>
        <time>2020-08-26T10:12:25.384Z</time>
      </trkpt>
      <trkpt lat="48.561967" lon="16.872111">
        <ele>205.698407</ele>
        <time>2020-08-26T10:12:27.371Z</time>
      </trkpt>
      <trkpt lat="48.562035" lon="16.871985">
        <ele>205.668660</ele>
        <time>2020-08-26T10:12:29.374Z</time>
      </trkpt>
      <trkpt lat="48.562101" lon="16.871859">
        <ele>205.639259</ele>
        <time>2020-08-26T10:12:31.381Z</time>
      </trkpt>
      <trkpt lat="48.562163" lon="16.871733">
        <ele>205.610531</ele>
        <time>2020-08-26T10:12:33.362Z</time>
      </trkpt>
      <trkpt lat="48.562225" lon="16.871609">
        <ele>205.582097</ele>
        <time>2020-08-26T10:12:35.409Z</time>
      </trkpt>
      <trkpt lat="48.562284" lon="16.871480">
        <ele>205.553406</ele>
        <time>2020-08-26T10:12:37.369Z</time>
      </trkpt>
      <trkpt lat="48.562344" lon="16.871349">
        <ele>205.524258</ele>
        <time>2020-08-26T10:12:39.375Z</time>
      </trkpt>
      <trkpt lat="48.562402" lon="16.871220">
        <ele>205.495724</ele>
        <time>2020-08-26T10:12:41.361Z</time>
      </trkpt>
      <trkpt lat="48.562456" lon="16.871099">
        <ele>205.469022</ele>
        <time>2020-08-26T10:12:43.355Z</time>
      </trkpt>
      <trkpt lat="48.562507" lon="16.870976">
        <ele>205.442465</ele>
        <time>2020-08-26T10:12:45.376Z</time>
      </trkpt>
      <trkpt lat="48.562559" lon="16.870862">
        <ele>205.420996</ele>
        <time>2020-08-26T10:12:47.359Z</time>
      </trkpt>
      <trkpt lat="48.562611" lon="16.870747">
        <ele>205.407254</ele>
        <time>2020-08-26T10:12:49.369Z</time>
      </trkpt>
      <trkpt lat="48.562670" lon="16.870631">
        <ele>205.392820</ele>
        <time>2020-08-26T10:12:51.349Z</time>
      </trkpt>
      <trkpt lat="48.562727" lon="16.870517">
        <ele>205.378723</ele>
        <time>2020-08-26T10:12:53.359Z</time>
      </trkpt>
      <trkpt lat="48.562778" lon="16.870396">
        <ele>205.364569</ele>
        <time>2020-08-26T10:12:55.399Z</time>
      </trkpt>
      <trkpt lat="48.562856" lon="16.870238">
        <ele>205.345121</ele>
        <time>2020-08-26T10:12:58.389Z</time>
      </trkpt>
      <trkpt lat="48.562938" lon="16.870092">
        <ele>205.326228</ele>
        <time>2020-08-26T10:13:01.346Z</time>
      </trkpt>
      <trkpt lat="48.563018" lon="16.869946">
        <ele>205.307527</ele>
        <time>2020-08-26T10:13:04.396Z</time>
      </trkpt>
      <trkpt lat="48.563091" lon="16.869782">
        <ele>205.288027</ele>
        <time>2020-08-26T10:13:07.403Z</time>
      </trkpt>
      <trkpt lat="48.563147" lon="16.869666">
        <ele>205.273860</ele>
        <time>2020-08-26T10:13:09.385Z</time>
      </trkpt>
      <trkpt lat="48.563206" lon="16.869547">
        <ele>205.259190</ele>
        <time>2020-08-26T10:13:11.366Z</time>
      </trkpt>
      <trkpt lat="48.563271" lon="16.869430">
        <ele>205.244118</ele>
        <time>2020-08-26T10:13:13.394Z</time>
      </trkpt>
      <trkpt lat="48.563342" lon="16.869312">
        <ele>205.228384</ele>
        <time>2020-08-26T10:13:15.364Z</time>
      </trkpt>
      <trkpt lat="48.563415" lon="16.869191">
        <ele>205.212230</ele>
        <time>2020-08-26T10:13:17.385Z</time>
      </trkpt>
      <trkpt lat="48.563476" lon="16.869085">
        <ele>205.198370</ele>
        <time>2020-08-26T10:13:19.354Z</time>
      </trkpt>
      <trkpt lat="48.563549" lon="16.868966">
        <ele>205.182362</ele>
        <time>2020-08-26T10:13:21.359Z</time>
      </trkpt>
      <trkpt lat="48.563621" lon="16.868850">
        <ele>205.166671</ele>
        <time>2020-08-26T10:13:23.357Z</time>
      </trkpt>
      <trkpt lat="48.563689" lon="16.868733">
        <ele>205.154905</ele>
        <time>2020-08-26T10:13:25.362Z</time>
      </trkpt>
      <trkpt lat="48.563755" lon="16.868614">
        <ele>205.148675</ele>
        <time>2020-08-26T10:13:27.357Z</time>
      </trkpt>
      <trkpt lat="48.563825" lon="16.868502">
        <ele>205.142493</ele>
        <time>2020-08-26T10:13:29.401Z</time>
      </trkpt>
      <trkpt lat="48.563900" lon="16.868401">
        <ele>205.136402</ele>
        <time>2020-08-26T10:13:31.357Z</time>
      </trkpt>
      <trkpt lat="48.563991" lon="16.868328">
        <ele>205.130155</ele>
        <time>2020-08-26T10:13:33.389Z</time>
      </trkpt>
      <trkpt lat="48.564090" lon="16.868277">
        <ele>205.123813</ele>
        <time>2020-08-26T10:13:35.362Z</time>
      </trkpt>
      <trkpt lat="48.564198" lon="16.868228">
        <ele>205.116976</ele>
        <time>2020-08-26T10:13:37.358Z</time>
      </trkpt>
      <trkpt lat="48.564303" lon="16.868174">
        <ele>205.110251</ele>
        <time>2020-08-26T10:13:39.376Z</time>
      </trkpt>
      <trkpt lat="48.564409" lon="16.868114">
        <ele>205.103387</ele>
        <time>2020-08-26T10:13:41.379Z</time>
      </trkpt>
      <trkpt lat="48.564515" lon="16.868051">
        <ele>205.096481</ele>
        <time>2020-08-26T10:13:43.385Z</time>
      </trkpt>
      <trkpt lat="48.564616" lon="16.867973">
        <ele>205.089604</ele>
        <time>2020-08-26T10:13:45.355Z</time>
      </trkpt>
      <trkpt lat="48.564710" lon="16.867889">
        <ele>205.082982</ele>
        <time>2020-08-26T10:13:47.399Z</time>
      </trkpt>
      <trkpt lat="48.564789" lon="16.867780">
        <ele>205.076496</ele>
        <time>2020-08-26T10:13:49.369Z</time>
      </trkpt>
      <trkpt lat="48.564844" lon="16.867640">
        <ele>205.069963</ele>
        <time>2020-08-26T10:13:51.370Z</time>
      </trkpt>
      <trkpt lat="48.564890" lon="16.867493">
        <ele>205.063438</ele>
        <time>2020-08-26T10:13:53.369Z</time>
      </trkpt>
      <trkpt lat="48.564939" lon="16.867339">
        <ele>205.056582</ele>
        <time>2020-08-26T10:13:55.397Z</time>
      </trkpt>
      <trkpt lat="48.564983" lon="16.867173">
        <ele>205.049407</ele>
        <time>2020-08-26T10:13:57.373Z</time>
      </trkpt>
      <trkpt lat="48.565027" lon="16.867002">
        <ele>205.033907</ele>
        <time>2020-08-26T10:13:59.366Z</time>
      </trkpt>
      <trkpt lat="48.565073" lon="16.866839">
        <ele>205.017567</ele>
        <time>2020-08-26T10:14:01.349Z</time>
      </trkpt>
      <trkpt lat="48.565117" lon="16.866677">
        <ele>205.001419</ele>
        <time>2020-08-26T10:14:03.406Z</time>
      </trkpt>
      <trkpt lat="48.565159" lon="16.866531">
        <ele>204.986739</ele>
        <time>2020-08-26T10:14:05.369Z</time>
      </trkpt>
      <trkpt lat="48.565199" lon="16.866386">
        <ele>204.972253</ele>
        <time>2020-08-26T10:14:07.372Z</time>
      </trkpt>
      <trkpt lat="48.565241" lon="16.866246">
        <ele>204.958078</ele>
        <time>2020-08-26T10:14:09.372Z</time>
      </trkpt>
      <trkpt lat="48.565297" lon="16.866126">
        <ele>204.944538</ele>
        <time>2020-08-26T10:14:11.348Z</time>
      </trkpt>
      <trkpt lat="48.565399" lon="16.866108">
        <ele>204.930228</ele>
        <time>2020-08-26T10:14:13.368Z</time>
      </trkpt>
      <trkpt lat="48.565497" lon="16.866202">
        <ele>204.914054</ele>
        <time>2020-08-26T10:14:15.351Z</time>
      </trkpt>
      <trkpt lat="48.565596" lon="16.866311">
        <ele>204.896985</ele>
        <time>2020-08-26T10:14:17.359Z</time>
      </trkpt>
      <trkpt lat="48.565709" lon="16.866422">
        <ele>204.878205</ele>
        <time>2020-08-26T10:14:19.361Z</time>
      </trkpt>
      <trkpt lat="48.565826" lon="16.866521">
        <ele>204.859520</ele>
        <time>2020-08-26T10:14:21.349Z</time>
      </trkpt>
      <trkpt lat="48.565938" lon="16.866627">
        <ele>204.841105</ele>
        <time>2020-08-26T10:14:23.356Z</time>
      </trkpt>
      <trkpt lat="48.566046" lon="16.866736">
        <ele>204.823008</ele>
        <time>2020-08-26T10:14:25.371Z</time>
      </trkpt>
      <trkpt lat="48.566158" lon="16.866832">
        <ele>204.805066</ele>
        <time>2020-08-26T10:14:27.367Z</time>
      </trkpt>
      <trkpt lat="48.566266" lon="16.866930">
        <ele>204.777684</ele>
        <time>2020-08-26T10:14:29.390Z</time>
      </trkpt>
      <trkpt lat="48.566373" lon="16.867028">
        <ele>204.743404</ele>
        <time>2020-08-26T10:14:31.367Z</time>
      </trkpt>
      <trkpt lat="48.566477" lon="16.867115">
        <ele>204.710835</ele>
        <time>2020-08-26T10:14:33.378Z</time>
      </trkpt>
      <trkpt lat="48.566578" lon="16.867106">
        <ele>204.683115</ele>
        <time>2020-08-26T10:14:35.358Z</time>
      </trkpt>
      <trkpt lat="48.566654" lon="16.866957">
        <ele>204.649006</ele>
        <time>2020-08-26T10:14:37.362Z</time>
      </trkpt>
      <trkpt lat="48.566711" lon="16.866785">
        <ele>204.614129</ele>
        <time>2020-08-26T10:14:39.352Z</time>
      </trkpt>
      <trkpt lat="48.566762" lon="16.866627">
        <ele>204.582257</ele>
        <time>2020-08-26T10:14:41.366Z</time>
      </trkpt>
      <trkpt lat="48.566813" lon="16.866468">
        <ele>204.550221</ele>
        <time>2020-08-26T10:14:43.369Z</time>
      </trkpt>
      <trkpt lat="48.566859" lon="16.866314">
        <ele>204.519587</ele>
        <time>2020-08-26T10:14:45.365Z</time>
      </trkpt>
      <trkpt lat="48.566899" lon="16.866166">
        <ele>204.490602</ele>
        <time>2020-08-26T10:14:47.359Z</time>
      </trkpt>
      <trkpt lat="48.566937" lon="16.866019">
        <ele>204.461988</ele>
        <time>2020-08-26T10:14:49.366Z</time>
      </trkpt>
      <trkpt lat="48.566976" lon="16.865876">
        <ele>204.433946</ele>
        <time>2020-08-26T10:14:51.393Z</time>
      </trkpt>
      <trkpt lat="48.567011" lon="16.865738">
        <ele>204.407151</ele>
        <time>2020-08-26T10:14:53.363Z</time>
      </trkpt>
      <trkpt lat="48.567043" lon="16.865599">
        <ele>204.380468</ele>
        <time>2020-08-26T10:14:55.365Z</time>
      </trkpt>
      <trkpt lat="48.567083" lon="16.865468">
        <ele>204.354310</ele>
        <time>2020-08-26T10:14:57.381Z</time>
      </trkpt>
      <trkpt lat="48.567122" lon="16.865331">
        <ele>204.327270</ele>
        <time>2020-08-26T10:14:59.365Z</time>
      </trkpt>
      <trkpt lat="48.567158" lon="16.865194">
        <ele>204.301394</ele>
        <time>2020-08-26T10:15:01.362Z</time>
      </trkpt>
      <trkpt lat="48.567193" lon="16.865055">
        <ele>204.279705</ele>
        <time>2020-08-26T10:15:03.366Z</time>
      </trkpt>
      <trkpt lat="48.567230" lon="16.864919">
        <ele>204.258261</ele>
        <time>2020-08-26T10:15:05.368Z</time>
      </trkpt>
      <trkpt lat="48.567269" lon="16.864781">
        <ele>204.236378</ele>
        <time>2020-08-26T10:15:07.372Z</time>
      </trkpt>
      <trkpt lat="48.567309" lon="16.864637">
        <ele>204.213602</ele>
        <time>2020-08-26T10:15:09.364Z</time>
      </trkpt>
      <trkpt lat="48.567346" lon="16.864504">
        <ele>204.192562</ele>
        <time>2020-08-26T10:15:11.401Z</time>
      </trkpt>
      <trkpt lat="48.567396" lon="16.864341">
        <ele>204.166362</ele>
        <time>2020-08-26T10:15:14.366Z</time>
      </trkpt>
      <trkpt lat="48.567449" lon="16.864197">
        <ele>204.142332</ele>
        <time>2020-08-26T10:15:18.359Z</time>
      </trkpt>
      <trkpt lat="48.567512" lon="16.864092">
        <ele>204.121663</ele>
        <time>2020-08-26T10:15:21.352Z</time>
      </trkpt>
      <trkpt lat="48.567597" lon="16.863962">
        <ele>204.095011</ele>
        <time>2020-08-26T10:15:24.392Z</time>
      </trkpt>
      <trkpt lat="48.567660" lon="16.863857">
        <ele>204.074341</ele>
        <time>2020-08-26T10:15:26.383Z</time>
      </trkpt>
      <trkpt lat="48.567728" lon="16.863736">
        <ele>204.051191</ele>
        <time>2020-08-26T10:15:28.367Z</time>
      </trkpt>
      <trkpt lat="48.567799" lon="16.863621">
        <ele>204.028254</ele>
        <time>2020-08-26T10:15:30.380Z</time>
      </trkpt>
      <trkpt lat="48.567865" lon="16.863500">
        <ele>204.005387</ele>
        <time>2020-08-26T10:15:32.406Z</time>
      </trkpt>
      <trkpt lat="48.567846" lon="16.863351">
        <ele>203.983258</ele>
        <time>2020-08-26T10:15:34.356Z</time>
      </trkpt>
      <trkpt lat="48.567770" lon="16.863229">
        <ele>203.958823</ele>
        <time>2020-08-26T10:15:36.351Z</time>
      </trkpt>
      <trkpt lat="48.567692" lon="16.863118">
        <ele>203.935212</ele>
        <time>2020-08-26T10:15:38.351Z</time>
      </trkpt>
      <trkpt lat="48.567615" lon="16.863012">
        <ele>203.912257</ele>
        <time>2020-08-26T10:15:40.364Z</time>
      </trkpt>
      <trkpt lat="48.567537" lon="16.862903">
        <ele>203.893466</ele>
        <time>2020-08-26T10:15:42.380Z</time>
      </trkpt>
      <trkpt lat="48.567461" lon="16.862796">
        <ele>203.875956</ele>
        <time>2020-08-26T10:15:44.359Z</time>
      </trkpt>
      <trkpt lat="48.567389" lon="16.862693">
        <ele>203.859243</ele>
        <time>2020-08-26T10:15:46.363Z</time>
      </trkpt>
      <trkpt lat="48.567322" lon="16.862598">
        <ele>203.843755</ele>
        <time>2020-08-26T10:15:48.370Z</time>
      </trkpt>
      <trkpt lat="48.567275" lon="16.862448">
        <ele>203.825241</ele>
        <time>2020-08-26T10:15:51.351Z</time>
      </trkpt>
      <trkpt lat="48.567298" lon="16.862272">
        <ele>203.805229</ele>
        <time>2020-08-26T10:15:54.387Z</time>
      </trkpt>
      <trkpt lat="48.567342" lon="16.862130">
        <ele>203.787738</ele>
        <time>2020-08-26T10:15:57.354Z</time>
      </trkpt>
      <trkpt lat="48.567394" lon="16.862003">
        <ele>203.771079</ele>
        <time>2020-08-26T10:16:00.369Z</time>
      </trkpt>
      <trkpt lat="48.567459" lon="16.861856">
        <ele>203.751357</ele>
        <time>2020-08-26T10:16:03.377Z</time>
      </trkpt>
      <trkpt lat="48.567531" lon="16.861697">
        <ele>203.729865</ele>
        <time>2020-08-26T10:16:06.370Z</time>
      </trkpt>
      <trkpt lat="48.567578" lon="16.861580">
        <ele>203.714597</ele>
        <time>2020-08-26T10:16:08.362Z</time>
      </trkpt>
      <trkpt lat="48.567627" lon="16.861460">
        <ele>203.698867</ele>
        <time>2020-08-26T10:16:10.391Z</time>
      </trkpt>
      <trkpt lat="48.567680" lon="16.861339">
        <ele>203.682681</ele>
        <time>2020-08-26T10:16:12.356Z</time>
      </trkpt>
      <trkpt lat="48.567737" lon="16.861227">
        <ele>203.666919</ele>
        <time>2020-08-26T10:16:14.376Z</time>
      </trkpt>
      <trkpt lat="48.567808" lon="16.861077">
        <ele>203.646347</ele>
        <time>2020-08-26T10:16:17.379Z</time>
      </trkpt>
      <trkpt lat="48.567889" lon="16.860939">
        <ele>203.625770</ele>
        <time>2020-08-26T10:16:20.388Z</time>
      </trkpt>
      <trkpt lat="48.567995" lon="16.860893">
        <ele>203.607179</ele>
        <time>2020-08-26T10:16:23.365Z</time>
      </trkpt>
      <trkpt lat="48.568072" lon="16.860990">
        <ele>203.597995</ele>
        <time>2020-08-26T10:16:25.380Z</time>
      </trkpt>
      <trkpt lat="48.568152" lon="16.861099">
        <ele>203.589164</ele>
        <time>2020-08-26T10:16:27.365Z</time>
      </trkpt>
      <trkpt lat="48.568225" lon="16.861204">
        <ele>203.580902</ele>
        <time>2020-08-26T10:16:29.370Z</time>
      </trkpt>
      <trkpt lat="48.568302" lon="16.861279">
        <ele>203.573391</ele>
        <time>2020-08-26T10:16:31.361Z</time>
      </trkpt>
      <trkpt lat="48.568412" lon="16.861206">
        <ele>203.563541</ele>
        <time>2020-08-26T10:16:34.390Z</time>
      </trkpt>
      <trkpt lat="48.568445" lon="16.861059">
        <ele>203.555120</ele>
        <time>2020-08-26T10:16:36.370Z</time>
      </trkpt>
      <trkpt lat="48.568441" lon="16.860919">
        <ele>203.547517</ele>
        <time>2020-08-26T10:16:38.364Z</time>
      </trkpt>
      <trkpt lat="48.568432" lon="16.860779">
        <ele>203.539886</ele>
        <time>2020-08-26T10:16:40.348Z</time>
      </trkpt>
      <trkpt lat="48.568419" lon="16.860577">
        <ele>203.528875</ele>
        <time>2020-08-26T10:16:43.365Z</time>
      </trkpt>
      <trkpt lat="48.568415" lon="16.860439">
        <ele>203.521381</ele>
        <time>2020-08-26T10:16:45.369Z</time>
      </trkpt>
      <trkpt lat="48.568414" lon="16.860243">
        <ele>203.510747</ele>
        <time>2020-08-26T10:16:48.376Z</time>
      </trkpt>
      <trkpt lat="48.568410" lon="16.860098">
        <ele>203.502874</ele>
        <time>2020-08-26T10:16:50.367Z</time>
      </trkpt>
      <trkpt lat="48.568403" lon="16.859956">
        <ele>203.495149</ele>
        <time>2020-08-26T10:16:52.379Z</time>
      </trkpt>
      <trkpt lat="48.568400" lon="16.859815">
        <ele>203.487495</ele>
        <time>2020-08-26T10:16:54.372Z</time>
      </trkpt>
      <trkpt lat="48.568399" lon="16.859670">
        <ele>203.479628</ele>
        <time>2020-08-26T10:16:56.385Z</time>
      </trkpt>
      <trkpt lat="48.568398" lon="16.859523">
        <ele>203.471653</ele>
        <time>2020-08-26T10:16:58.371Z</time>
      </trkpt>
      <trkpt lat="48.568395" lon="16.859375">
        <ele>203.463619</ele>
        <time>2020-08-26T10:17:00.373Z</time>
      </trkpt>
      <trkpt lat="48.568387" lon="16.859226">
        <ele>203.466083</ele>
        <time>2020-08-26T10:17:02.375Z</time>
      </trkpt>
      <trkpt lat="48.568384" lon="16.859079">
        <ele>203.494363</ele>
        <time>2020-08-26T10:17:04.369Z</time>
      </trkpt>
      <trkpt lat="48.568382" lon="16.858934">
        <ele>203.522252</ele>
        <time>2020-08-26T10:17:06.381Z</time>
      </trkpt>
      <trkpt lat="48.568379" lon="16.858787">
        <ele>203.550532</ele>
        <time>2020-08-26T10:17:08.362Z</time>
      </trkpt>
      <trkpt lat="48.568379" lon="16.858641">
        <ele>203.578607</ele>
        <time>2020-08-26T10:17:10.379Z</time>
      </trkpt>
      <trkpt lat="48.568380" lon="16.858494">
        <ele>203.606875</ele>
        <time>2020-08-26T10:17:12.360Z</time>
      </trkpt>
      <trkpt lat="48.568379" lon="16.858352">
        <ele>203.634183</ele>
        <time>2020-08-26T10:17:14.359Z</time>
      </trkpt>
      <trkpt lat="48.568371" lon="16.858214">
        <ele>203.660821</ele>
        <time>2020-08-26T10:17:16.384Z</time>
      </trkpt>
      <trkpt lat="48.568365" lon="16.858068">
        <ele>203.688950</ele>
        <time>2020-08-26T10:17:18.361Z</time>
      </trkpt>
      <trkpt lat="48.568356" lon="16.857921">
        <ele>203.717337</ele>
        <time>2020-08-26T10:17:20.383Z</time>
      </trkpt>
      <trkpt lat="48.568344" lon="16.857778">
        <ele>203.745055</ele>
        <time>2020-08-26T10:17:22.364Z</time>
      </trkpt>
      <trkpt lat="48.568339" lon="16.857639">
        <ele>203.771824</ele>
        <time>2020-08-26T10:17:24.368Z</time>
      </trkpt>
      <trkpt lat="48.568334" lon="16.857442">
        <ele>203.809733</ele>
        <time>2020-08-26T10:17:27.369Z</time>
      </trkpt>
      <trkpt lat="48.568363" lon="16.857254">
        <ele>203.846854</ele>
        <time>2020-08-26T10:17:30.353Z</time>
      </trkpt>
      <trkpt lat="48.568410" lon="16.857060">
        <ele>203.886580</ele>
        <time>2020-08-26T10:17:33.367Z</time>
      </trkpt>
      <trkpt lat="48.568452" lon="16.856925">
        <ele>203.915265</ele>
        <time>2020-08-26T10:17:35.365Z</time>
      </trkpt>
      <trkpt lat="48.568497" lon="16.856789">
        <ele>203.944504</ele>
        <time>2020-08-26T10:17:37.393Z</time>
      </trkpt>
      <trkpt lat="48.568550" lon="16.856646">
        <ele>203.976022</ele>
        <time>2020-08-26T10:17:39.355Z</time>
      </trkpt>
      <trkpt lat="48.568602" lon="16.856502">
        <ele>203.985358</ele>
        <time>2020-08-26T10:17:41.347Z</time>
      </trkpt>
      <trkpt lat="48.568656" lon="16.856363">
        <ele>203.990913</ele>
        <time>2020-08-26T10:17:43.362Z</time>
      </trkpt>
      <trkpt lat="48.568705" lon="16.856216">
        <ele>203.996586</ele>
        <time>2020-08-26T10:17:45.363Z</time>
      </trkpt>
      <trkpt lat="48.568752" lon="16.856072">
        <ele>204.002119</ele>
        <time>2020-08-26T10:17:47.358Z</time>
      </trkpt>
      <trkpt lat="48.568795" lon="16.855928">
        <ele>204.007563</ele>
        <time>2020-08-26T10:17:49.368Z</time>
      </trkpt>
      <trkpt lat="48.568841" lon="16.855793">
        <ele>204.012796</ele>
        <time>2020-08-26T10:17:51.362Z</time>
      </trkpt>
      <trkpt lat="48.568890" lon="16.855663">
        <ele>204.017952</ele>
        <time>2020-08-26T10:17:53.366Z</time>
      </trkpt>
      <trkpt lat="48.568944" lon="16.855534">
        <ele>204.023213</ele>
        <time>2020-08-26T10:17:55.423Z</time>
      </trkpt>
      <trkpt lat="48.568999" lon="16.855402">
        <ele>204.028588</ele>
        <time>2020-08-26T10:17:57.401Z</time>
      </trkpt>
      <trkpt lat="48.569054" lon="16.855264">
        <ele>204.034140</ele>
        <time>2020-08-26T10:17:59.367Z</time>
      </trkpt>
      <trkpt lat="48.569108" lon="16.855119">
        <ele>204.039874</ele>
        <time>2020-08-26T10:18:01.380Z</time>
      </trkpt>
      <trkpt lat="48.569160" lon="16.854975">
        <ele>204.045527</ele>
        <time>2020-08-26T10:18:03.390Z</time>
      </trkpt>
      <trkpt lat="48.569212" lon="16.854830">
        <ele>204.051211</ele>
        <time>2020-08-26T10:18:05.373Z</time>
      </trkpt>
      <trkpt lat="48.569253" lon="16.854681">
        <ele>204.056772</ele>
        <time>2020-08-26T10:18:07.376Z</time>
      </trkpt>
      <trkpt lat="48.569289" lon="16.854529">
        <ele>204.062336</ele>
        <time>2020-08-26T10:18:09.371Z</time>
      </trkpt>
      <trkpt lat="48.569306" lon="16.854372">
        <ele>204.067818</ele>
        <time>2020-08-26T10:18:11.378Z</time>
      </trkpt>
      <trkpt lat="48.569289" lon="16.854229">
        <ele>204.072825</ele>
        <time>2020-08-26T10:18:13.352Z</time>
      </trkpt>
      <trkpt lat="48.569272" lon="16.854093">
        <ele>204.085742</ele>
        <time>2020-08-26T10:18:15.362Z</time>
      </trkpt>
      <trkpt lat="48.569253" lon="16.853909">
        <ele>204.107479</ele>
        <time>2020-08-26T10:18:18.358Z</time>
      </trkpt>
      <trkpt lat="48.569275" lon="16.853755">
        <ele>204.125869</ele>
        <time>2020-08-26T10:18:21.351Z</time>
      </trkpt>
      <trkpt lat="48.569318" lon="16.853619">
        <ele>204.143462</ele>
        <time>2020-08-26T10:18:24.362Z</time>
      </trkpt>
      <trkpt lat="48.569374" lon="16.853472">
        <ele>204.163261</ele>
        <time>2020-08-26T10:18:27.396Z</time>
      </trkpt>
      <trkpt lat="48.569433" lon="16.853319">
        <ele>204.183931</ele>
        <time>2020-08-26T10:18:30.369Z</time>
      </trkpt>
      <trkpt lat="48.569498" lon="16.853150">
        <ele>204.206747</ele>
        <time>2020-08-26T10:18:33.385Z</time>
      </trkpt>
      <trkpt lat="48.569544" lon="16.853026">
        <ele>204.223340</ele>
        <time>2020-08-26T10:18:35.365Z</time>
      </trkpt>
      <trkpt lat="48.569588" lon="16.852901">
        <ele>204.239867</ele>
        <time>2020-08-26T10:18:37.371Z</time>
      </trkpt>
      <trkpt lat="48.569634" lon="16.852774">
        <ele>204.256766</ele>
        <time>2020-08-26T10:18:39.353Z</time>
      </trkpt>
      <trkpt lat="48.569682" lon="16.852650">
        <ele>204.273534</ele>
        <time>2020-08-26T10:18:41.352Z</time>
      </trkpt>
      <trkpt lat="48.569741" lon="16.852538">
        <ele>204.290244</ele>
        <time>2020-08-26T10:18:43.369Z</time>
      </trkpt>
      <trkpt lat="48.569810" lon="16.852443">
        <ele>204.306709</ele>
        <time>2020-08-26T10:18:45.383Z</time>
      </trkpt>
      <trkpt lat="48.569887" lon="16.852365">
        <ele>204.323061</ele>
        <time>2020-08-26T10:18:47.377Z</time>
      </trkpt>
      <trkpt lat="48.569967" lon="16.852282">
        <ele>204.340178</ele>
        <time>2020-08-26T10:18:49.352Z</time>
      </trkpt>
      <trkpt lat="48.570033" lon="16.852166">
        <ele>204.358035</ele>
        <time>2020-08-26T10:18:51.399Z</time>
      </trkpt>
      <trkpt lat="48.570095" lon="16.852041">
        <ele>204.376269</ele>
        <time>2020-08-26T10:18:53.387Z</time>
      </trkpt>
      <trkpt lat="48.570157" lon="16.851911">
        <ele>204.391494</ele>
        <time>2020-08-26T10:18:55.363Z</time>
      </trkpt>
      <trkpt lat="48.570213" lon="16.851776">
        <ele>204.391696</ele>
        <time>2020-08-26T10:18:57.398Z</time>
      </trkpt>
      <trkpt lat="48.570277" lon="16.851653">
        <ele>204.391895</ele>
        <time>2020-08-26T10:18:59.362Z</time>
      </trkpt>
      <trkpt lat="48.570341" lon="16.851529">
        <ele>204.392094</ele>
        <time>2020-08-26T10:19:01.355Z</time>
      </trkpt>
      <trkpt lat="48.570408" lon="16.851408">
        <ele>204.392294</ele>
        <time>2020-08-26T10:19:03.348Z</time>
      </trkpt>
      <trkpt lat="48.570474" lon="16.851286">
        <ele>204.392494</ele>
        <time>2020-08-26T10:19:05.375Z</time>
      </trkpt>
      <trkpt lat="48.570541" lon="16.851171">
        <ele>204.392688</ele>
        <time>2020-08-26T10:19:07.361Z</time>
      </trkpt>
      <trkpt lat="48.570607" lon="16.851052">
        <ele>204.392885</ele>
        <time>2020-08-26T10:19:09.375Z</time>
      </trkpt>
      <trkpt lat="48.570672" lon="16.850937">
        <ele>204.393077</ele>
        <time>2020-08-26T10:19:11.369Z</time>
      </trkpt>
      <trkpt lat="48.570741" lon="16.850829">
        <ele>204.393268</ele>
        <time>2020-08-26T10:19:13.368Z</time>
      </trkpt>
      <trkpt lat="48.570813" lon="16.850725">
        <ele>204.393458</ele>
        <time>2020-08-26T10:19:15.365Z</time>
      </trkpt>
      <trkpt lat="48.570891" lon="16.850631">
        <ele>204.393650</ele>
        <time>2020-08-26T10:19:17.377Z</time>
      </trkpt>
      <trkpt lat="48.570971" lon="16.850533">
        <ele>204.393847</ele>
        <time>2020-08-26T10:19:19.354Z</time>
      </trkpt>
      <trkpt lat="48.571053" lon="16.850437">
        <ele>204.394046</ele>
        <time>2020-08-26T10:19:21.365Z</time>
      </trkpt>
      <trkpt lat="48.571142" lon="16.850356">
        <ele>204.394245</ele>
        <time>2020-08-26T10:19:23.366Z</time>
      </trkpt>
      <trkpt lat="48.571244" lon="16.850313">
        <ele>204.394448</ele>
        <time>2020-08-26T10:19:25.353Z</time>
      </trkpt>
      <trkpt lat="48.571357" lon="16.850360">
        <ele>204.394673</ele>
        <time>2020-08-26T10:19:27.351Z</time>
      </trkpt>
      <trkpt lat="48.571460" lon="16.850466">
        <ele>204.393457</ele>
        <time>2020-08-26T10:19:29.390Z</time>
      </trkpt>
      <trkpt lat="48.571566" lon="16.850577">
        <ele>204.349212</ele>
        <time>2020-08-26T10:19:31.362Z</time>
      </trkpt>
      <trkpt lat="48.571667" lon="16.850701">
        <ele>204.304567</ele>
        <time>2020-08-26T10:19:33.350Z</time>
      </trkpt>
      <trkpt lat="48.571769" lon="16.850810">
        <ele>204.261707</ele>
        <time>2020-08-26T10:19:35.368Z</time>
      </trkpt>
      <trkpt lat="48.571869" lon="16.850909">
        <ele>204.220692</ele>
        <time>2020-08-26T10:19:37.372Z</time>
      </trkpt>
      <trkpt lat="48.571956" lon="16.851009">
        <ele>204.183191</ele>
        <time>2020-08-26T10:19:39.348Z</time>
      </trkpt>
      <trkpt lat="48.572026" lon="16.851101">
        <ele>204.151363</ele>
        <time>2020-08-26T10:19:41.369Z</time>
      </trkpt>
      <trkpt lat="48.572116" lon="16.851122">
        <ele>204.120119</ele>
        <time>2020-08-26T10:19:43.362Z</time>
      </trkpt>
      <trkpt lat="48.572217" lon="16.851040">
        <ele>204.080784</ele>
        <time>2020-08-26T10:19:45.371Z</time>
      </trkpt>
      <trkpt lat="48.572325" lon="16.850916">
        <ele>204.034250</ele>
        <time>2020-08-26T10:19:47.367Z</time>
      </trkpt>
      <trkpt lat="48.572449" lon="16.850827">
        <ele>203.987153</ele>
        <time>2020-08-26T10:19:49.364Z</time>
      </trkpt>
      <trkpt lat="48.572567" lon="16.850746">
        <ele>203.942688</ele>
        <time>2020-08-26T10:19:51.350Z</time>
      </trkpt>
      <trkpt lat="48.572684" lon="16.850675">
        <ele>203.899431</ele>
        <time>2020-08-26T10:19:53.369Z</time>
      </trkpt>
      <trkpt lat="48.572801" lon="16.850602">
        <ele>203.856003</ele>
        <time>2020-08-26T10:19:55.358Z</time>
      </trkpt>
      <trkpt lat="48.572911" lon="16.850534">
        <ele>203.815228</ele>
        <time>2020-08-26T10:19:57.371Z</time>
      </trkpt>
      <trkpt lat="48.573019" lon="16.850474">
        <ele>203.773662</ele>
        <time>2020-08-26T10:19:59.370Z</time>
      </trkpt>
      <trkpt lat="48.573127" lon="16.850420">
        <ele>203.694975</ele>
        <time>2020-08-26T10:20:01.361Z</time>
      </trkpt>
      <trkpt lat="48.573231" lon="16.850354">
        <ele>203.616952</ele>
        <time>2020-08-26T10:20:03.363Z</time>
      </trkpt>
      <trkpt lat="48.573337" lon="16.850293">
        <ele>203.538495</ele>
        <time>2020-08-26T10:20:05.398Z</time>
      </trkpt>
      <trkpt lat="48.573444" lon="16.850232">
        <ele>203.459391</ele>
        <time>2020-08-26T10:20:07.363Z</time>
      </trkpt>
      <trkpt lat="48.573553" lon="16.850170">
        <ele>203.378831</ele>
        <time>2020-08-26T10:20:09.362Z</time>
      </trkpt>
      <trkpt lat="48.573658" lon="16.850112">
        <ele>203.301502</ele>
        <time>2020-08-26T10:20:11.380Z</time>
      </trkpt>
      <trkpt lat="48.573757" lon="16.850043">
        <ele>203.226091</ele>
        <time>2020-08-26T10:20:13.377Z</time>
      </trkpt>
      <trkpt lat="48.573859" lon="16.849978">
        <ele>203.149521</ele>
        <time>2020-08-26T10:20:15.368Z</time>
      </trkpt>
      <trkpt lat="48.573964" lon="16.849916">
        <ele>203.071545</ele>
        <time>2020-08-26T10:20:17.368Z</time>
      </trkpt>
      <trkpt lat="48.574066" lon="16.849855">
        <ele>202.995667</ele>
        <time>2020-08-26T10:20:19.355Z</time>
      </trkpt>
      <trkpt lat="48.574166" lon="16.849795">
        <ele>202.921244</ele>
        <time>2020-08-26T10:20:21.356Z</time>
      </trkpt>
      <trkpt lat="48.574265" lon="16.849735">
        <ele>202.847464</ele>
        <time>2020-08-26T10:20:23.366Z</time>
      </trkpt>
      <trkpt lat="48.574367" lon="16.849666">
        <ele>202.770164</ele>
        <time>2020-08-26T10:20:25.375Z</time>
      </trkpt>
      <trkpt lat="48.574468" lon="16.849598">
        <ele>202.693682</ele>
        <time>2020-08-26T10:20:27.373Z</time>
      </trkpt>
      <trkpt lat="48.574567" lon="16.849530">
        <ele>202.618463</ele>
        <time>2020-08-26T10:20:29.366Z</time>
      </trkpt>
      <trkpt lat="48.574666" lon="16.849463">
        <ele>202.543431</ele>
        <time>2020-08-26T10:20:31.352Z</time>
      </trkpt>
      <trkpt lat="48.574768" lon="16.849392">
        <ele>202.468347</ele>
        <time>2020-08-26T10:20:33.371Z</time>
      </trkpt>
      <trkpt lat="48.574871" lon="16.849319">
        <ele>202.392663</ele>
        <time>2020-08-26T10:20:35.366Z</time>
      </trkpt>
      <trkpt lat="48.574968" lon="16.849246">
        <ele>202.320572</ele>
        <time>2020-08-26T10:20:37.359Z</time>
      </trkpt>
      <trkpt lat="48.575064" lon="16.849175">
        <ele>202.249468</ele>
        <time>2020-08-26T10:20:39.378Z</time>
      </trkpt>
      <trkpt lat="48.575155" lon="16.849110">
        <ele>202.182507</ele>
        <time>2020-08-26T10:20:41.384Z</time>
      </trkpt>
      <trkpt lat="48.575244" lon="16.849039">
        <ele>202.115555</ele>
        <time>2020-08-26T10:20:43.394Z</time>
      </trkpt>
      <trkpt lat="48.575333" lon="16.848958">
        <ele>202.046438</ele>
        <time>2020-08-26T10:20:45.364Z</time>
      </trkpt>
      <trkpt lat="48.575423" lon="16.848868">
        <ele>201.974643</ele>
        <time>2020-08-26T10:20:47.372Z</time>
      </trkpt>
      <trkpt lat="48.575513" lon="16.848776">
        <ele>201.902359</ele>
        <time>2020-08-26T10:20:49.347Z</time>
      </trkpt>
      <trkpt lat="48.575604" lon="16.848686">
        <ele>201.830008</ele>
        <time>2020-08-26T10:20:51.382Z</time>
      </trkpt>
      <trkpt lat="48.575693" lon="16.848600">
        <ele>201.759731</ele>
        <time>2020-08-26T10:20:53.371Z</time>
      </trkpt>
      <trkpt lat="48.575785" lon="16.848511">
        <ele>201.687061</ele>
        <time>2020-08-26T10:20:55.369Z</time>
      </trkpt>
      <trkpt lat="48.575872" lon="16.848414">
        <ele>201.615137</ele>
        <time>2020-08-26T10:20:57.401Z</time>
      </trkpt>
      <trkpt lat="48.575952" lon="16.848310">
        <ele>201.544935</ele>
        <time>2020-08-26T10:20:59.374Z</time>
      </trkpt>
      <trkpt lat="48.576028" lon="16.848209">
        <ele>201.477608</ele>
        <time>2020-08-26T10:21:01.368Z</time>
      </trkpt>
      <trkpt lat="48.576113" lon="16.848114">
        <ele>201.407277</ele>
        <time>2020-08-26T10:21:03.366Z</time>
      </trkpt>
      <trkpt lat="48.576198" lon="16.848017">
        <ele>201.337018</ele>
        <time>2020-08-26T10:21:05.369Z</time>
      </trkpt>
      <trkpt lat="48.576282" lon="16.847923">
        <ele>201.333991</ele>
        <time>2020-08-26T10:21:07.369Z</time>
      </trkpt>
      <trkpt lat="48.576367" lon="16.847828">
        <ele>201.330930</ele>
        <time>2020-08-26T10:21:09.357Z</time>
      </trkpt>
      <trkpt lat="48.576445" lon="16.847726">
        <ele>201.327943</ele>
        <time>2020-08-26T10:21:11.389Z</time>
      </trkpt>
      <trkpt lat="48.576519" lon="16.847621">
        <ele>201.325004</ele>
        <time>2020-08-26T10:21:13.388Z</time>
      </trkpt>
      <trkpt lat="48.576595" lon="16.847509">
        <ele>201.321930</ele>
        <time>2020-08-26T10:21:15.372Z</time>
      </trkpt>
      <trkpt lat="48.576669" lon="16.847405">
        <ele>201.319004</ele>
        <time>2020-08-26T10:21:17.356Z</time>
      </trkpt>
      <trkpt lat="48.576747" lon="16.847296">
        <ele>201.315928</ele>
        <time>2020-08-26T10:21:19.374Z</time>
      </trkpt>
      <trkpt lat="48.576829" lon="16.847187">
        <ele>201.312765</ele>
        <time>2020-08-26T10:21:21.400Z</time>
      </trkpt>
      <trkpt lat="48.576912" lon="16.847075">
        <ele>201.309543</ele>
        <time>2020-08-26T10:21:23.373Z</time>
      </trkpt>
      <trkpt lat="48.576995" lon="16.846965">
        <ele>201.306347</ele>
        <time>2020-08-26T10:21:25.379Z</time>
      </trkpt>
      <trkpt lat="48.577077" lon="16.846853">
        <ele>201.303146</ele>
        <time>2020-08-26T10:21:27.368Z</time>
      </trkpt>
      <trkpt lat="48.577158" lon="16.846742">
        <ele>201.299980</ele>
        <time>2020-08-26T10:21:29.371Z</time>
      </trkpt>
      <trkpt lat="48.577239" lon="16.846633">
        <ele>201.296840</ele>
        <time>2020-08-26T10:21:31.380Z</time>
      </trkpt>
      <trkpt lat="48.577320" lon="16.846523">
        <ele>201.293686</ele>
        <time>2020-08-26T10:21:33.366Z</time>
      </trkpt>
      <trkpt lat="48.577399" lon="16.846412">
        <ele>201.290563</ele>
        <time>2020-08-26T10:21:35.354Z</time>
      </trkpt>
      <trkpt lat="48.577480" lon="16.846304">
        <ele>201.287435</ele>
        <time>2020-08-26T10:21:37.351Z</time>
      </trkpt>
      <trkpt lat="48.577564" lon="16.846194">
        <ele>201.286490</ele>
        <time>2020-08-26T10:21:39.377Z</time>
      </trkpt>
      <trkpt lat="48.577647" lon="16.846093">
        <ele>201.292846</ele>
        <time>2020-08-26T10:21:41.383Z</time>
      </trkpt>
      <trkpt lat="48.577724" lon="16.845992">
        <ele>201.298927</ele>
        <time>2020-08-26T10:21:43.349Z</time>
      </trkpt>
      <trkpt lat="48.577800" lon="16.845895">
        <ele>201.304860</ele>
        <time>2020-08-26T10:21:45.355Z</time>
      </trkpt>
      <trkpt lat="48.577881" lon="16.845786">
        <ele>201.311328</ele>
        <time>2020-08-26T10:21:47.390Z</time>
      </trkpt>
      <trkpt lat="48.577957" lon="16.845681">
        <ele>201.317469</ele>
        <time>2020-08-26T10:21:49.358Z</time>
      </trkpt>
      <trkpt lat="48.578037" lon="16.845574">
        <ele>201.323841</ele>
        <time>2020-08-26T10:21:51.384Z</time>
      </trkpt>
      <trkpt lat="48.578119" lon="16.845469">
        <ele>201.330251</ele>
        <time>2020-08-26T10:21:53.385Z</time>
      </trkpt>
      <trkpt lat="48.578202" lon="16.845364">
        <ele>201.336706</ele>
        <time>2020-08-26T10:21:55.381Z</time>
      </trkpt>
      <trkpt lat="48.578285" lon="16.845260">
        <ele>201.343137</ele>
        <time>2020-08-26T10:21:57.387Z</time>
      </trkpt>
      <trkpt lat="48.578367" lon="16.845161">
        <ele>201.349396</ele>
        <time>2020-08-26T10:21:59.367Z</time>
      </trkpt>
      <trkpt lat="48.578448" lon="16.845061">
        <ele>201.355634</ele>
        <time>2020-08-26T10:22:01.381Z</time>
      </trkpt>
      <trkpt lat="48.578527" lon="16.844957">
        <ele>201.361883</ele>
        <time>2020-08-26T10:22:03.379Z</time>
      </trkpt>
      <trkpt lat="48.578606" lon="16.844850">
        <ele>201.368210</ele>
        <time>2020-08-26T10:22:05.383Z</time>
      </trkpt>
      <trkpt lat="48.578685" lon="16.844744">
        <ele>201.374510</ele>
        <time>2020-08-26T10:22:07.357Z</time>
      </trkpt>
      <trkpt lat="48.578765" lon="16.844638">
        <ele>201.380856</ele>
        <time>2020-08-26T10:22:09.384Z</time>
      </trkpt>
      <trkpt lat="48.578845" lon="16.844526">
        <ele>201.387360</ele>
        <time>2020-08-26T10:22:11.381Z</time>
      </trkpt>
      <trkpt lat="48.578928" lon="16.844431">
        <ele>201.387492</ele>
        <time>2020-08-26T10:22:13.356Z</time>
      </trkpt>
      <trkpt lat="48.579011" lon="16.844333">
        <ele>201.365077</ele>
        <time>2020-08-26T10:22:15.365Z</time>
      </trkpt>
      <trkpt lat="48.579091" lon="16.844225">
        <ele>201.342248</ele>
        <time>2020-08-26T10:22:17.354Z</time>
      </trkpt>
      <trkpt lat="48.579170" lon="16.844121">
        <ele>201.319952</ele>
        <time>2020-08-26T10:22:19.359Z</time>
      </trkpt>
      <trkpt lat="48.579252" lon="16.844015">
        <ele>201.296988</ele>
        <time>2020-08-26T10:22:21.367Z</time>
      </trkpt>
      <trkpt lat="48.579331" lon="16.843912">
        <ele>201.274785</ele>
        <time>2020-08-26T10:22:23.371Z</time>
      </trkpt>
      <trkpt lat="48.579410" lon="16.843810">
        <ele>201.252672</ele>
        <time>2020-08-26T10:22:25.365Z</time>
      </trkpt>
      <trkpt lat="48.579494" lon="16.843702">
        <ele>201.229202</ele>
        <time>2020-08-26T10:22:27.366Z</time>
      </trkpt>
      <trkpt lat="48.579573" lon="16.843601">
        <ele>201.207181</ele>
        <time>2020-08-26T10:22:29.374Z</time>
      </trkpt>
      <trkpt lat="48.579645" lon="16.843498">
        <ele>201.186083</ele>
        <time>2020-08-26T10:22:31.371Z</time>
      </trkpt>
      <trkpt lat="48.579717" lon="16.843394">
        <ele>201.164888</ele>
        <time>2020-08-26T10:22:33.407Z</time>
      </trkpt>
      <trkpt lat="48.579789" lon="16.843293">
        <ele>201.143982</ele>
        <time>2020-08-26T10:22:35.391Z</time>
      </trkpt>
      <trkpt lat="48.579862" lon="16.843195">
        <ele>201.123203</ele>
        <time>2020-08-26T10:22:37.372Z</time>
      </trkpt>
      <trkpt lat="48.579936" lon="16.843094">
        <ele>201.101983</ele>
        <time>2020-08-26T10:22:39.367Z</time>
      </trkpt>
      <trkpt lat="48.580009" lon="16.842996">
        <ele>201.081204</ele>
        <time>2020-08-26T10:22:41.393Z</time>
      </trkpt>
      <trkpt lat="48.580079" lon="16.842911">
        <ele>201.062094</ele>
        <time>2020-08-26T10:22:43.386Z</time>
      </trkpt>
      <trkpt lat="48.580181" lon="16.842812">
        <ele>201.036296</ele>
        <time>2020-08-26T10:22:46.380Z</time>
      </trkpt>
      <trkpt lat="48.580270" lon="16.842837">
        <ele>201.017030</ele>
        <time>2020-08-26T10:22:48.355Z</time>
      </trkpt>
      <trkpt lat="48.580357" lon="16.842928">
        <ele>200.985704</ele>
        <time>2020-08-26T10:22:50.376Z</time>
      </trkpt>
      <trkpt lat="48.580453" lon="16.843019">
        <ele>200.947354</ele>
        <time>2020-08-26T10:22:52.372Z</time>
      </trkpt>
      <trkpt lat="48.580548" lon="16.843108">
        <ele>200.909528</ele>
        <time>2020-08-26T10:22:54.368Z</time>
      </trkpt>
      <trkpt lat="48.580644" lon="16.843199">
        <ele>200.871177</ele>
        <time>2020-08-26T10:22:56.372Z</time>
      </trkpt>
      <trkpt lat="48.580735" lon="16.843289">
        <ele>200.834373</ele>
        <time>2020-08-26T10:22:58.386Z</time>
      </trkpt>
      <trkpt lat="48.580810" lon="16.843367">
        <ele>200.803562</ele>
        <time>2020-08-26T10:23:00.393Z</time>
      </trkpt>
      <trkpt lat="48.580942" lon="16.843542">
        <ele>200.744140</ele>
        <time>2020-08-26T10:23:33.350Z</time>
      </trkpt>
      <trkpt lat="48.581027" lon="16.843636">
        <ele>200.708496</ele>
        <time>2020-08-26T10:23:36.369Z</time>
      </trkpt>
      <trkpt lat="48.581130" lon="16.843745">
        <ele>200.665943</ele>
        <time>2020-08-26T10:23:39.369Z</time>
      </trkpt>
      <trkpt lat="48.581244" lon="16.843851">
        <ele>200.620646</ele>
        <time>2020-08-26T10:23:42.372Z</time>
      </trkpt>
      <trkpt lat="48.581323" lon="16.843920">
        <ele>200.589767</ele>
        <time>2020-08-26T10:23:44.367Z</time>
      </trkpt>
      <trkpt lat="48.581403" lon="16.843996">
        <ele>200.557789</ele>
        <time>2020-08-26T10:23:46.368Z</time>
      </trkpt>
      <trkpt lat="48.581486" lon="16.844081">
        <ele>200.523859</ele>
        <time>2020-08-26T10:23:48.391Z</time>
      </trkpt>
      <trkpt lat="48.581570" lon="16.844158">
        <ele>200.490611</ele>
        <time>2020-08-26T10:23:50.381Z</time>
      </trkpt>
      <trkpt lat="48.581659" lon="16.844233">
        <ele>200.456125</ele>
        <time>2020-08-26T10:23:52.365Z</time>
      </trkpt>
      <trkpt lat="48.581747" lon="16.844305">
        <ele>200.422260</ele>
        <time>2020-08-26T10:23:54.363Z</time>
      </trkpt>
      <trkpt lat="48.581832" lon="16.844395">
        <ele>200.419234</ele>
        <time>2020-08-26T10:23:56.389Z</time>
      </trkpt>
      <trkpt lat="48.581921" lon="16.844482">
        <ele>200.468195</ele>
        <time>2020-08-26T10:23:58.371Z</time>
      </trkpt>
      <trkpt lat="48.582012" lon="16.844560">
        <ele>200.516519</ele>
        <time>2020-08-26T10:24:00.357Z</time>
      </trkpt>
      <trkpt lat="48.582105" lon="16.844638">
        <ele>200.565649</ele>
        <time>2020-08-26T10:24:02.367Z</time>
      </trkpt>
      <trkpt lat="48.582196" lon="16.844716">
        <ele>200.613974</ele>
        <time>2020-08-26T10:24:04.362Z</time>
      </trkpt>
      <trkpt lat="48.582287" lon="16.844797">
        <ele>200.662757</ele>
        <time>2020-08-26T10:24:06.380Z</time>
      </trkpt>
      <trkpt lat="48.582376" lon="16.844878">
        <ele>200.710746</ele>
        <time>2020-08-26T10:24:08.375Z</time>
      </trkpt>
      <trkpt lat="48.582464" lon="16.844964">
        <ele>200.759153</ele>
        <time>2020-08-26T10:24:10.363Z</time>
      </trkpt>
      <trkpt lat="48.582549" lon="16.845047">
        <ele>200.805897</ele>
        <time>2020-08-26T10:24:12.360Z</time>
      </trkpt>
      <trkpt lat="48.582637" lon="16.845129">
        <ele>200.853651</ele>
        <time>2020-08-26T10:24:14.357Z</time>
      </trkpt>
      <trkpt lat="48.582722" lon="16.845211">
        <ele>200.900231</ele>
        <time>2020-08-26T10:24:16.350Z</time>
      </trkpt>
      <trkpt lat="48.582813" lon="16.845269">
        <ele>200.945851</ele>
        <time>2020-08-26T10:24:19.353Z</time>
      </trkpt>
      <trkpt lat="48.582893" lon="16.845184">
        <ele>200.991022</ele>
        <time>2020-08-26T10:25:21.395Z</time>
      </trkpt>
      <trkpt lat="48.582987" lon="16.845102">
        <ele>201.041156</ele>
        <time>2020-08-26T10:25:25.373Z</time>
      </trkpt>
      <trkpt lat="48.583081" lon="16.845025">
        <ele>201.090544</ele>
        <time>2020-08-26T10:25:28.379Z</time>
      </trkpt>
      <trkpt lat="48.583184" lon="16.844944">
        <ele>201.144178</ele>
        <time>2020-08-26T10:25:31.357Z</time>
      </trkpt>
      <trkpt lat="48.583292" lon="16.844841">
        <ele>201.203166</ele>
        <time>2020-08-26T10:25:34.359Z</time>
      </trkpt>
      <trkpt lat="48.583372" lon="16.844777">
        <ele>201.243812</ele>
        <time>2020-08-26T10:25:36.402Z</time>
      </trkpt>
      <trkpt lat="48.583454" lon="16.844717">
        <ele>201.282235</ele>
        <time>2020-08-26T10:25:38.357Z</time>
      </trkpt>
      <trkpt lat="48.583539" lon="16.844659">
        <ele>201.321567</ele>
        <time>2020-08-26T10:25:40.371Z</time>
      </trkpt>
      <trkpt lat="48.583626" lon="16.844589">
        <ele>201.363134</ele>
        <time>2020-08-26T10:25:42.397Z</time>
      </trkpt>
      <trkpt lat="48.583710" lon="16.844509">
        <ele>201.405007</ele>
        <time>2020-08-26T10:25:44.367Z</time>
      </trkpt>
      <trkpt lat="48.583797" lon="16.844428">
        <ele>201.448101</ele>
        <time>2020-08-26T10:25:46.381Z</time>
      </trkpt>
      <trkpt lat="48.583885" lon="16.844357">
        <ele>201.490172</ele>
        <time>2020-08-26T10:25:48.353Z</time>
      </trkpt>
      <trkpt lat="48.583977" lon="16.844286">
        <ele>201.533738</ele>
        <time>2020-08-26T10:25:50.380Z</time>
      </trkpt>
      <trkpt lat="48.584068" lon="16.844216">
        <ele>201.576801</ele>
        <time>2020-08-26T10:25:52.361Z</time>
      </trkpt>
      <trkpt lat="48.584156" lon="16.844134">
        <ele>201.620401</ele>
        <time>2020-08-26T10:25:54.353Z</time>
      </trkpt>
      <trkpt lat="48.584248" lon="16.844056">
        <ele>201.664888</ele>
        <time>2020-08-26T10:25:56.381Z</time>
      </trkpt>
      <trkpt lat="48.584338" lon="16.843972">
        <ele>201.709499</ele>
        <time>2020-08-26T10:25:58.362Z</time>
      </trkpt>
      <trkpt lat="48.584425" lon="16.843887">
        <ele>201.753188</ele>
        <time>2020-08-26T10:26:00.348Z</time>
      </trkpt>
      <trkpt lat="48.584514" lon="16.843806">
        <ele>201.797003</ele>
        <time>2020-08-26T10:26:02.387Z</time>
      </trkpt>
      <trkpt lat="48.584602" lon="16.843727">
        <ele>201.840169</ele>
        <time>2020-08-26T10:26:04.362Z</time>
      </trkpt>
      <trkpt lat="48.584692" lon="16.843650">
        <ele>201.883785</ele>
        <time>2020-08-26T10:26:06.389Z</time>
      </trkpt>
      <trkpt lat="48.584785" lon="16.843567">
        <ele>201.929334</ele>
        <time>2020-08-26T10:26:08.378Z</time>
      </trkpt>
      <trkpt lat="48.584882" lon="16.843489">
        <ele>201.975673</ele>
        <time>2020-08-26T10:26:10.393Z</time>
      </trkpt>
      <trkpt lat="48.584981" lon="16.843407">
        <ele>201.989577</ele>
        <time>2020-08-26T10:26:12.388Z</time>
      </trkpt>
      <trkpt lat="48.585080" lon="16.843322">
        <ele>201.988716</ele>
        <time>2020-08-26T10:26:14.366Z</time>
      </trkpt>
      <trkpt lat="48.585184" lon="16.843239">
        <ele>201.987828</ele>
        <time>2020-08-26T10:26:16.361Z</time>
      </trkpt>
      <trkpt lat="48.585285" lon="16.843160">
        <ele>201.986968</ele>
        <time>2020-08-26T10:26:18.391Z</time>
      </trkpt>
      <trkpt lat="48.585384" lon="16.843074">
        <ele>201.986105</ele>
        <time>2020-08-26T10:26:20.366Z</time>
      </trkpt>
      <trkpt lat="48.585486" lon="16.842987">
        <ele>201.985220</ele>
        <time>2020-08-26T10:26:22.382Z</time>
      </trkpt>
      <trkpt lat="48.585595" lon="16.842900">
        <ele>201.984289</ele>
        <time>2020-08-26T10:26:24.364Z</time>
      </trkpt>
      <trkpt lat="48.585704" lon="16.842815">
        <ele>201.983362</ele>
        <time>2020-08-26T10:26:26.360Z</time>
      </trkpt>
      <trkpt lat="48.585813" lon="16.842728">
        <ele>201.982430</ele>
        <time>2020-08-26T10:26:28.370Z</time>
      </trkpt>
      <trkpt lat="48.585923" lon="16.842639">
        <ele>201.981488</ele>
        <time>2020-08-26T10:26:30.371Z</time>
      </trkpt>
      <trkpt lat="48.586033" lon="16.842551">
        <ele>201.980547</ele>
        <time>2020-08-26T10:26:32.363Z</time>
      </trkpt>
      <trkpt lat="48.586139" lon="16.842453">
        <ele>201.979608</ele>
        <time>2020-08-26T10:26:34.391Z</time>
      </trkpt>
      <trkpt lat="48.586240" lon="16.842355">
        <ele>201.978701</ele>
        <time>2020-08-26T10:26:36.368Z</time>
      </trkpt>
      <trkpt lat="48.586341" lon="16.842265">
        <ele>201.977815</ele>
        <time>2020-08-26T10:26:38.379Z</time>
      </trkpt>
      <trkpt lat="48.586441" lon="16.842177">
        <ele>201.976941</ele>
        <time>2020-08-26T10:26:40.388Z</time>
      </trkpt>
      <trkpt lat="48.586539" lon="16.842092">
        <ele>202.036474</ele>
        <time>2020-08-26T10:26:42.416Z</time>
      </trkpt>
      <trkpt lat="48.586638" lon="16.842012">
        <ele>202.140031</ele>
        <time>2020-08-26T10:26:44.363Z</time>
      </trkpt>
      <trkpt lat="48.586738" lon="16.841934">
        <ele>202.243838</ele>
        <time>2020-08-26T10:26:46.375Z</time>
      </trkpt>
      <trkpt lat="48.586834" lon="16.841857">
        <ele>202.344092</ele>
        <time>2020-08-26T10:26:48.390Z</time>
      </trkpt>
      <trkpt lat="48.586929" lon="16.841776">
        <ele>202.444709</ele>
        <time>2020-08-26T10:26:50.375Z</time>
      </trkpt>
      <trkpt lat="48.587026" lon="16.841702">
        <ele>202.544941</ele>
        <time>2020-08-26T10:26:52.356Z</time>
      </trkpt>
      <trkpt lat="48.587120" lon="16.841625">
        <ele>202.643569</ele>
        <time>2020-08-26T10:26:54.376Z</time>
      </trkpt>
      <trkpt lat="48.587221" lon="16.841536">
        <ele>202.751415</ele>
        <time>2020-08-26T10:26:56.368Z</time>
      </trkpt>
      <trkpt lat="48.587324" lon="16.841451">
        <ele>202.859669</ele>
        <time>2020-08-26T10:26:58.372Z</time>
      </trkpt>
      <trkpt lat="48.587406" lon="16.841328">
        <ele>202.966233</ele>
        <time>2020-08-26T10:27:00.355Z</time>
      </trkpt>
      <trkpt lat="48.587451" lon="16.841155">
        <ele>203.079670</ele>
        <time>2020-08-26T10:27:02.362Z</time>
      </trkpt>
      <trkpt lat="48.587484" lon="16.840985">
        <ele>203.187782</ele>
        <time>2020-08-26T10:27:04.357Z</time>
      </trkpt>
      <trkpt lat="48.587515" lon="16.840825">
        <ele>203.289519</ele>
        <time>2020-08-26T10:27:06.374Z</time>
      </trkpt>
      <trkpt lat="48.587538" lon="16.840660">
        <ele>203.392416</ele>
        <time>2020-08-26T10:27:08.362Z</time>
      </trkpt>
      <trkpt lat="48.587562" lon="16.840493">
        <ele>203.496700</ele>
        <time>2020-08-26T10:27:10.349Z</time>
      </trkpt>
      <trkpt lat="48.587590" lon="16.840335">
        <ele>203.596515</ele>
        <time>2020-08-26T10:27:12.356Z</time>
      </trkpt>
      <trkpt lat="48.587618" lon="16.840174">
        <ele>203.673342</ele>
        <time>2020-08-26T10:27:14.359Z</time>
      </trkpt>
      <trkpt lat="48.587646" lon="16.840021">
        <ele>203.731690</ele>
        <time>2020-08-26T10:27:16.371Z</time>
      </trkpt>
      <trkpt lat="48.587671" lon="16.839871">
        <ele>203.788545</ele>
        <time>2020-08-26T10:27:18.376Z</time>
      </trkpt>
      <trkpt lat="48.587704" lon="16.839724">
        <ele>203.845602</ele>
        <time>2020-08-26T10:27:20.384Z</time>
      </trkpt>
      <trkpt lat="48.587739" lon="16.839577">
        <ele>203.903025</ele>
        <time>2020-08-26T10:27:22.369Z</time>
      </trkpt>
      <trkpt lat="48.587770" lon="16.839430">
        <ele>203.959734</ele>
        <time>2020-08-26T10:27:24.400Z</time>
      </trkpt>
      <trkpt lat="48.587803" lon="16.839281">
        <ele>204.017487</ele>
        <time>2020-08-26T10:27:26.367Z</time>
      </trkpt>
      <trkpt lat="48.587835" lon="16.839128">
        <ele>204.076466</ele>
        <time>2020-08-26T10:27:28.358Z</time>
      </trkpt>
      <trkpt lat="48.587870" lon="16.838972">
        <ele>204.137012</ele>
        <time>2020-08-26T10:27:30.374Z</time>
      </trkpt>
      <trkpt lat="48.587899" lon="16.838817">
        <ele>204.196216</ele>
        <time>2020-08-26T10:27:32.357Z</time>
      </trkpt>
      <trkpt lat="48.587926" lon="16.838663">
        <ele>204.254773</ele>
        <time>2020-08-26T10:27:34.376Z</time>
      </trkpt>
      <trkpt lat="48.587953" lon="16.838515">
        <ele>204.311201</ele>
        <time>2020-08-26T10:27:36.369Z</time>
      </trkpt>
      <trkpt lat="48.587979" lon="16.838364">
        <ele>204.368550</ele>
        <time>2020-08-26T10:27:38.363Z</time>
      </trkpt>
      <trkpt lat="48.588006" lon="16.838221">
        <ele>204.423209</ele>
        <time>2020-08-26T10:27:40.396Z</time>
      </trkpt>
      <trkpt lat="48.588035" lon="16.838079">
        <ele>204.477831</ele>
        <time>2020-08-26T10:27:42.389Z</time>
      </trkpt>
      <trkpt lat="48.588069" lon="16.837935">
        <ele>204.534028</ele>
        <time>2020-08-26T10:27:44.366Z</time>
      </trkpt>
      <trkpt lat="48.588104" lon="16.837786">
        <ele>204.592143</ele>
        <time>2020-08-26T10:27:46.378Z</time>
      </trkpt>
      <trkpt lat="48.588138" lon="16.837644">
        <ele>204.652028</ele>
        <time>2020-08-26T10:27:48.377Z</time>
      </trkpt>
      <trkpt lat="48.588172" lon="16.837499">
        <ele>204.728567</ele>
        <time>2020-08-26T10:27:50.378Z</time>
      </trkpt>
      <trkpt lat="48.588213" lon="16.837367">
        <ele>204.801120</ele>
        <time>2020-08-26T10:27:52.372Z</time>
      </trkpt>
      <trkpt lat="48.588259" lon="16.837235">
        <ele>204.875350</ele>
        <time>2020-08-26T10:27:54.359Z</time>
      </trkpt>
      <trkpt lat="48.588304" lon="16.837102">
        <ele>204.949674</ele>
        <time>2020-08-26T10:27:56.377Z</time>
      </trkpt>
      <trkpt lat="48.588344" lon="16.836961">
        <ele>205.026004</ele>
        <time>2020-08-26T10:27:58.387Z</time>
      </trkpt>
      <trkpt lat="48.588377" lon="16.836816">
        <ele>205.102295</ele>
        <time>2020-08-26T10:28:00.352Z</time>
      </trkpt>
      <trkpt lat="48.588403" lon="16.836660">
        <ele>205.182334</ele>
        <time>2020-08-26T10:28:02.384Z</time>
      </trkpt>
      <trkpt lat="48.588426" lon="16.836504">
        <ele>205.261852</ele>
        <time>2020-08-26T10:28:04.384Z</time>
      </trkpt>
      <trkpt lat="48.588446" lon="16.836353">
        <ele>205.338468</ele>
        <time>2020-08-26T10:28:06.400Z</time>
      </trkpt>
      <trkpt lat="48.588468" lon="16.836206">
        <ele>205.413452</ele>
        <time>2020-08-26T10:28:08.370Z</time>
      </trkpt>
      <trkpt lat="48.588494" lon="16.836056">
        <ele>205.490600</ele>
        <time>2020-08-26T10:28:10.382Z</time>
      </trkpt>
      <trkpt lat="48.588524" lon="16.835913">
        <ele>205.565238</ele>
        <time>2020-08-26T10:28:12.366Z</time>
      </trkpt>
      <trkpt lat="48.588555" lon="16.835763">
        <ele>205.643423</ele>
        <time>2020-08-26T10:28:14.407Z</time>
      </trkpt>
      <trkpt lat="48.588588" lon="16.835618">
        <ele>205.719714</ele>
        <time>2020-08-26T10:28:16.402Z</time>
      </trkpt>
      <trkpt lat="48.588625" lon="16.835470">
        <ele>205.798430</ele>
        <time>2020-08-26T10:28:18.369Z</time>
      </trkpt>
      <trkpt lat="48.588661" lon="16.835325">
        <ele>205.875485</ele>
        <time>2020-08-26T10:28:20.376Z</time>
      </trkpt>
      <trkpt lat="48.588697" lon="16.835178">
        <ele>205.953471</ele>
        <time>2020-08-26T10:28:22.361Z</time>
      </trkpt>
      <trkpt lat="48.588726" lon="16.835021">
        <ele>206.008212</ele>
        <time>2020-08-26T10:28:24.391Z</time>
      </trkpt>
      <trkpt lat="48.588750" lon="16.834858">
        <ele>206.044154</ele>
        <time>2020-08-26T10:28:26.371Z</time>
      </trkpt>
      <trkpt lat="48.588774" lon="16.834701">
        <ele>206.078836</ele>
        <time>2020-08-26T10:28:28.369Z</time>
      </trkpt>
      <trkpt lat="48.588802" lon="16.834551">
        <ele>206.112381</ele>
        <time>2020-08-26T10:28:30.374Z</time>
      </trkpt>
      <trkpt lat="48.588845" lon="16.834402">
        <ele>206.147370</ele>
        <time>2020-08-26T10:28:32.353Z</time>
      </trkpt>
      <trkpt lat="48.588896" lon="16.834262">
        <ele>206.181770</ele>
        <time>2020-08-26T10:28:34.365Z</time>
      </trkpt>
      <trkpt lat="48.588954" lon="16.834136">
        <ele>206.214810</ele>
        <time>2020-08-26T10:28:36.386Z</time>
      </trkpt>
      <trkpt lat="48.589017" lon="16.834014">
        <ele>206.248122</ele>
        <time>2020-08-26T10:28:38.380Z</time>
      </trkpt>
      <trkpt lat="48.589081" lon="16.833888">
        <ele>206.282314</ele>
        <time>2020-08-26T10:28:40.359Z</time>
      </trkpt>
      <trkpt lat="48.589142" lon="16.833759">
        <ele>206.316444</ele>
        <time>2020-08-26T10:28:42.387Z</time>
      </trkpt>
      <trkpt lat="48.589202" lon="16.833633">
        <ele>206.349860</ele>
        <time>2020-08-26T10:28:44.364Z</time>
      </trkpt>
      <trkpt lat="48.589266" lon="16.833510">
        <ele>206.383542</ele>
        <time>2020-08-26T10:28:46.382Z</time>
      </trkpt>
      <trkpt lat="48.589325" lon="16.833391">
        <ele>206.415551</ele>
        <time>2020-08-26T10:28:48.381Z</time>
      </trkpt>
      <trkpt lat="48.589383" lon="16.833274">
        <ele>206.447020</ele>
        <time>2020-08-26T10:28:50.365Z</time>
      </trkpt>
      <trkpt lat="48.589433" lon="16.833155">
        <ele>206.477363</ele>
        <time>2020-08-26T10:28:52.379Z</time>
      </trkpt>
      <trkpt lat="48.589479" lon="16.833036">
        <ele>206.507028</ele>
        <time>2020-08-26T10:28:54.417Z</time>
      </trkpt>
      <trkpt lat="48.589536" lon="16.832919">
        <ele>206.538303</ele>
        <time>2020-08-26T10:28:56.371Z</time>
      </trkpt>
      <trkpt lat="48.589600" lon="16.832789">
        <ele>206.573182</ele>
        <time>2020-08-26T10:28:58.361Z</time>
      </trkpt>
      <trkpt lat="48.589665" lon="16.832658">
        <ele>206.556238</ele>
        <time>2020-08-26T10:29:00.360Z</time>
      </trkpt>
      <trkpt lat="48.589732" lon="16.832526">
        <ele>206.538731</ele>
        <time>2020-08-26T10:29:02.356Z</time>
      </trkpt>
      <trkpt lat="48.589792" lon="16.832384">
        <ele>206.521001</ele>
        <time>2020-08-26T10:29:04.363Z</time>
      </trkpt>
      <trkpt lat="48.589851" lon="16.832247">
        <ele>206.503800</ele>
        <time>2020-08-26T10:29:06.368Z</time>
      </trkpt>
      <trkpt lat="48.589910" lon="16.832114">
        <ele>206.486950</ele>
        <time>2020-08-26T10:29:08.364Z</time>
      </trkpt>
      <trkpt lat="48.589968" lon="16.831979">
        <ele>206.470012</ele>
        <time>2020-08-26T10:29:10.367Z</time>
      </trkpt>
      <trkpt lat="48.590029" lon="16.831844">
        <ele>206.452810</ele>
        <time>2020-08-26T10:29:12.374Z</time>
      </trkpt>
      <trkpt lat="48.590093" lon="16.831713">
        <ele>206.435674</ele>
        <time>2020-08-26T10:29:14.366Z</time>
      </trkpt>
      <trkpt lat="48.590159" lon="16.831583">
        <ele>206.418431</ele>
        <time>2020-08-26T10:29:16.359Z</time>
      </trkpt>
      <trkpt lat="48.590218" lon="16.831450">
        <ele>206.401581</ele>
        <time>2020-08-26T10:29:18.367Z</time>
      </trkpt>
      <trkpt lat="48.590278" lon="16.831309">
        <ele>206.383940</ele>
        <time>2020-08-26T10:29:20.380Z</time>
      </trkpt>
      <trkpt lat="48.590339" lon="16.831178">
        <ele>206.367083</ele>
        <time>2020-08-26T10:29:22.376Z</time>
      </trkpt>
      <trkpt lat="48.590398" lon="16.831054">
        <ele>206.351011</ele>
        <time>2020-08-26T10:29:24.367Z</time>
      </trkpt>
      <trkpt lat="48.590460" lon="16.830934">
        <ele>206.334990</ele>
        <time>2020-08-26T10:29:26.362Z</time>
      </trkpt>
      <trkpt lat="48.590570" lon="16.830928">
        <ele>206.317480</ele>
        <time>2020-08-26T10:29:28.357Z</time>
      </trkpt>
      <trkpt lat="48.590642" lon="16.831058">
        <ele>206.299640</ele>
        <time>2020-08-26T10:29:30.371Z</time>
      </trkpt>
      <trkpt lat="48.590691" lon="16.831196">
        <ele>206.269841</ele>
        <time>2020-08-26T10:29:32.371Z</time>
      </trkpt>
      <trkpt lat="48.590747" lon="16.831307">
        <ele>206.207388</ele>
        <time>2020-08-26T10:29:34.362Z</time>
      </trkpt>
      <trkpt lat="48.590833" lon="16.831466">
        <ele>206.115503</ele>
        <time>2020-08-26T10:29:37.358Z</time>
      </trkpt>
      <trkpt lat="48.590911" lon="16.831555">
        <ele>206.049410</ele>
        <time>2020-08-26T10:29:39.367Z</time>
      </trkpt>
      <trkpt lat="48.590994" lon="16.831644">
        <ele>205.980587</ele>
        <time>2020-08-26T10:29:41.376Z</time>
      </trkpt>
      <trkpt lat="48.591076" lon="16.831742">
        <ele>205.909891</ele>
        <time>2020-08-26T10:29:43.373Z</time>
      </trkpt>
      <trkpt lat="48.591202" lon="16.831773">
        <ele>205.823550</ele>
        <time>2020-08-26T10:29:45.388Z</time>
      </trkpt>
      <trkpt lat="48.591289" lon="16.831715">
        <ele>205.759241</ele>
        <time>2020-08-26T10:29:46.357Z</time>
      </trkpt>
      <trkpt lat="48.591366" lon="16.831620">
        <ele>205.692023</ele>
        <time>2020-08-26T10:29:47.364Z</time>
      </trkpt>
      <trkpt lat="48.591430" lon="16.831509">
        <ele>205.626148</ele>
        <time>2020-08-26T10:29:48.359Z</time>
      </trkpt>
      <trkpt lat="48.591528" lon="16.831324">
        <ele>205.520117</ele>
        <time>2020-08-26T10:29:50.384Z</time>
      </trkpt>
      <trkpt lat="48.591609" lon="16.831174">
        <ele>205.433491</ele>
        <time>2020-08-26T10:29:52.400Z</time>
      </trkpt>
      <trkpt lat="48.591684" lon="16.831018">
        <ele>205.347216</ele>
        <time>2020-08-26T10:29:54.374Z</time>
      </trkpt>
      <trkpt lat="48.591744" lon="16.830864">
        <ele>205.267260</ele>
        <time>2020-08-26T10:29:56.359Z</time>
      </trkpt>
      <trkpt lat="48.591790" lon="16.830707">
        <ele>205.190443</ele>
        <time>2020-08-26T10:29:58.400Z</time>
      </trkpt>
      <trkpt lat="48.591833" lon="16.830551">
        <ele>205.114839</ele>
        <time>2020-08-26T10:30:00.355Z</time>
      </trkpt>
      <trkpt lat="48.591869" lon="16.830397">
        <ele>205.065027</ele>
        <time>2020-08-26T10:30:02.383Z</time>
      </trkpt>
      <trkpt lat="48.591898" lon="16.830243">
        <ele>205.050891</ele>
        <time>2020-08-26T10:30:04.368Z</time>
      </trkpt>
      <trkpt lat="48.591939" lon="16.830101">
        <ele>205.037212</ele>
        <time>2020-08-26T10:30:06.362Z</time>
      </trkpt>
      <trkpt lat="48.592003" lon="16.829972">
        <ele>205.022975</ele>
        <time>2020-08-26T10:30:08.366Z</time>
      </trkpt>
      <trkpt lat="48.592063" lon="16.829844">
        <ele>205.009124</ele>
        <time>2020-08-26T10:30:10.356Z</time>
      </trkpt>
      <trkpt lat="48.592122" lon="16.829720">
        <ele>204.995638</ele>
        <time>2020-08-26T10:30:12.365Z</time>
      </trkpt>
      <trkpt lat="48.592171" lon="16.829588">
        <ele>204.982275</ele>
        <time>2020-08-26T10:30:14.362Z</time>
      </trkpt>
      <trkpt lat="48.592216" lon="16.829452">
        <ele>204.968849</ele>
        <time>2020-08-26T10:30:16.358Z</time>
      </trkpt>
      <trkpt lat="48.592263" lon="16.829322">
        <ele>204.955770</ele>
        <time>2020-08-26T10:30:18.384Z</time>
      </trkpt>
      <trkpt lat="48.592310" lon="16.829189">
        <ele>204.942457</ele>
        <time>2020-08-26T10:30:20.380Z</time>
      </trkpt>
      <trkpt lat="48.592358" lon="16.829056">
        <ele>204.929081</ele>
        <time>2020-08-26T10:30:22.363Z</time>
      </trkpt>
      <trkpt lat="48.592402" lon="16.828919">
        <ele>204.915635</ele>
        <time>2020-08-26T10:30:24.357Z</time>
      </trkpt>
      <trkpt lat="48.592454" lon="16.828788">
        <ele>204.902147</ele>
        <time>2020-08-26T10:30:26.374Z</time>
      </trkpt>
      <trkpt lat="48.592508" lon="16.828663">
        <ele>204.888966</ele>
        <time>2020-08-26T10:30:28.396Z</time>
      </trkpt>
      <trkpt lat="48.592564" lon="16.828528">
        <ele>204.874897</ele>
        <time>2020-08-26T10:30:30.368Z</time>
      </trkpt>
      <trkpt lat="48.592614" lon="16.828397">
        <ele>204.861545</ele>
        <time>2020-08-26T10:30:32.363Z</time>
      </trkpt>
      <trkpt lat="48.592663" lon="16.828276">
        <ele>204.849019</ele>
        <time>2020-08-26T10:30:34.368Z</time>
      </trkpt>
      <trkpt lat="48.592714" lon="16.828144">
        <ele>204.835523</ele>
        <time>2020-08-26T10:30:36.371Z</time>
      </trkpt>
      <trkpt lat="48.592774" lon="16.828019">
        <ele>204.869849</ele>
        <time>2020-08-26T10:30:38.367Z</time>
      </trkpt>
      <trkpt lat="48.592832" lon="16.827892">
        <ele>204.930689</ele>
        <time>2020-08-26T10:30:40.369Z</time>
      </trkpt>
      <trkpt lat="48.592888" lon="16.827769">
        <ele>204.989554</ele>
        <time>2020-08-26T10:30:42.397Z</time>
      </trkpt>
      <trkpt lat="48.592944" lon="16.827645">
        <ele>205.048744</ele>
        <time>2020-08-26T10:30:44.368Z</time>
      </trkpt>
      <trkpt lat="48.593008" lon="16.827531">
        <ele>205.107691</ele>
        <time>2020-08-26T10:30:46.372Z</time>
      </trkpt>
      <trkpt lat="48.593069" lon="16.827416">
        <ele>205.165803</ele>
        <time>2020-08-26T10:30:48.361Z</time>
      </trkpt>
      <trkpt lat="48.593123" lon="16.827288">
        <ele>205.225653</ele>
        <time>2020-08-26T10:30:50.374Z</time>
      </trkpt>
      <trkpt lat="48.593173" lon="16.827157">
        <ele>205.285276</ele>
        <time>2020-08-26T10:30:52.366Z</time>
      </trkpt>
      <trkpt lat="48.593214" lon="16.827023">
        <ele>205.343479</ele>
        <time>2020-08-26T10:30:54.359Z</time>
      </trkpt>
      <trkpt lat="48.593255" lon="16.826896">
        <ele>205.399189</ele>
        <time>2020-08-26T10:30:56.366Z</time>
      </trkpt>
      <trkpt lat="48.593307" lon="16.826774">
        <ele>205.456404</ele>
        <time>2020-08-26T10:30:58.374Z</time>
      </trkpt>
      <trkpt lat="48.593357" lon="16.826644">
        <ele>205.515686</ele>
        <time>2020-08-26T10:31:00.372Z</time>
      </trkpt>
      <trkpt lat="48.593404" lon="16.826514">
        <ele>205.574089</ele>
        <time>2020-08-26T10:31:02.352Z</time>
      </trkpt>
      <trkpt lat="48.593451" lon="16.826391">
        <ele>205.630087</ele>
        <time>2020-08-26T10:31:04.362Z</time>
      </trkpt>
      <trkpt lat="48.593500" lon="16.826265">
        <ele>205.687707</ele>
        <time>2020-08-26T10:31:06.378Z</time>
      </trkpt>
      <trkpt lat="48.593550" lon="16.826138">
        <ele>205.745969</ele>
        <time>2020-08-26T10:31:08.361Z</time>
      </trkpt>
      <trkpt lat="48.593601" lon="16.826004">
        <ele>205.806915</ele>
        <time>2020-08-26T10:31:10.366Z</time>
      </trkpt>
      <trkpt lat="48.593654" lon="16.825865">
        <ele>205.870163</ele>
        <time>2020-08-26T10:31:12.364Z</time>
      </trkpt>
      <trkpt lat="48.593710" lon="16.825724">
        <ele>205.910251</ele>
        <time>2020-08-26T10:31:14.387Z</time>
      </trkpt>
      <trkpt lat="48.593781" lon="16.825604">
        <ele>205.925102</ele>
        <time>2020-08-26T10:31:16.367Z</time>
      </trkpt>
      <trkpt lat="48.593849" lon="16.825476">
        <ele>205.940246</ele>
        <time>2020-08-26T10:31:18.363Z</time>
      </trkpt>
      <trkpt lat="48.593918" lon="16.825346">
        <ele>205.955621</ele>
        <time>2020-08-26T10:31:20.390Z</time>
      </trkpt>
      <trkpt lat="48.593980" lon="16.825212">
        <ele>205.970705</ele>
        <time>2020-08-26T10:31:22.378Z</time>
      </trkpt>
      <trkpt lat="48.594040" lon="16.825084">
        <ele>205.985176</ele>
        <time>2020-08-26T10:31:24.383Z</time>
      </trkpt>
      <trkpt lat="48.594110" lon="16.824964">
        <ele>205.999935</ele>
        <time>2020-08-26T10:31:26.381Z</time>
      </trkpt>
      <trkpt lat="48.594181" lon="16.824834">
        <ele>206.015485</ele>
        <time>2020-08-26T10:31:28.400Z</time>
      </trkpt>
      <trkpt lat="48.594247" lon="16.824699">
        <ele>206.030970</ele>
        <time>2020-08-26T10:31:30.361Z</time>
      </trkpt>
      <trkpt lat="48.594318" lon="16.824571">
        <ele>206.046379</ele>
        <time>2020-08-26T10:31:32.364Z</time>
      </trkpt>
      <trkpt lat="48.594383" lon="16.824434">
        <ele>206.061931</ele>
        <time>2020-08-26T10:31:34.373Z</time>
      </trkpt>
      <trkpt lat="48.594453" lon="16.824303">
        <ele>206.077465</ele>
        <time>2020-08-26T10:31:36.381Z</time>
      </trkpt>
      <trkpt lat="48.594530" lon="16.824176">
        <ele>206.093356</ele>
        <time>2020-08-26T10:31:38.353Z</time>
      </trkpt>
      <trkpt lat="48.594612" lon="16.824044">
        <ele>206.110060</ele>
        <time>2020-08-26T10:31:40.367Z</time>
      </trkpt>
      <trkpt lat="48.594697" lon="16.823931">
        <ele>206.125845</ele>
        <time>2020-08-26T10:31:42.361Z</time>
      </trkpt>
      <trkpt lat="48.594778" lon="16.823828">
        <ele>206.140605</ele>
        <time>2020-08-26T10:31:44.365Z</time>
      </trkpt>
      <trkpt lat="48.594853" lon="16.823724">
        <ele>206.155623</ele>
        <time>2020-08-26T10:31:46.377Z</time>
      </trkpt>
      <trkpt lat="48.594921" lon="16.823616">
        <ele>206.178360</ele>
        <time>2020-08-26T10:31:48.371Z</time>
      </trkpt>
      <trkpt lat="48.594985" lon="16.823519">
        <ele>206.199253</ele>
        <time>2020-08-26T10:31:50.367Z</time>
      </trkpt>
      <trkpt lat="48.595066" lon="16.823394">
        <ele>206.225938</ele>
        <time>2020-08-26T10:31:53.368Z</time>
      </trkpt>
      <trkpt lat="48.595147" lon="16.823285">
        <ele>206.250938</ele>
        <time>2020-08-26T10:31:57.372Z</time>
      </trkpt>
      <trkpt lat="48.595266" lon="16.823324">
        <ele>206.279011</ele>
        <time>2020-08-26T10:32:01.373Z</time>
      </trkpt>
      <trkpt lat="48.595367" lon="16.823401">
        <ele>206.305090</ele>
        <time>2020-08-26T10:32:04.364Z</time>
      </trkpt>
      <trkpt lat="48.595471" lon="16.823488">
        <ele>206.332493</ele>
        <time>2020-08-26T10:32:07.363Z</time>
      </trkpt>
      <trkpt lat="48.595563" lon="16.823424">
        <ele>206.355842</ele>
        <time>2020-08-26T10:32:09.357Z</time>
      </trkpt>
      <trkpt lat="48.595661" lon="16.823312">
        <ele>206.384165</ele>
        <time>2020-08-26T10:32:11.370Z</time>
      </trkpt>
      <trkpt lat="48.595760" lon="16.823219">
        <ele>206.411036</ele>
        <time>2020-08-26T10:32:13.380Z</time>
      </trkpt>
      <trkpt lat="48.595868" lon="16.823129">
        <ele>206.439468</ele>
        <time>2020-08-26T10:32:15.366Z</time>
      </trkpt>
      <trkpt lat="48.595976" lon="16.823037">
        <ele>206.468048</ele>
        <time>2020-08-26T10:32:17.370Z</time>
      </trkpt>
      <trkpt lat="48.596081" lon="16.822946">
        <ele>206.495951</ele>
        <time>2020-08-26T10:32:19.355Z</time>
      </trkpt>
      <trkpt lat="48.596186" lon="16.822850">
        <ele>206.524241</ele>
        <time>2020-08-26T10:32:21.377Z</time>
      </trkpt>
      <trkpt lat="48.596281" lon="16.822743">
        <ele>206.551553</ele>
        <time>2020-08-26T10:32:23.389Z</time>
      </trkpt>
      <trkpt lat="48.596372" lon="16.822640">
        <ele>206.577777</ele>
        <time>2020-08-26T10:32:25.404Z</time>
      </trkpt>
      <trkpt lat="48.596465" lon="16.822544">
        <ele>206.603784</ele>
        <time>2020-08-26T10:32:27.366Z</time>
      </trkpt>
      <trkpt lat="48.596557" lon="16.822447">
        <ele>206.629688</ele>
        <time>2020-08-26T10:32:29.360Z</time>
      </trkpt>
      <trkpt lat="48.596646" lon="16.822350">
        <ele>206.655026</ele>
        <time>2020-08-26T10:32:31.374Z</time>
      </trkpt>
      <trkpt lat="48.596735" lon="16.822267">
        <ele>206.679176</ele>
        <time>2020-08-26T10:32:33.402Z</time>
      </trkpt>
      <trkpt lat="48.596824" lon="16.822191">
        <ele>206.702783</ele>
        <time>2020-08-26T10:32:35.373Z</time>
      </trkpt>
      <trkpt lat="48.596908" lon="16.822109">
        <ele>206.725875</ele>
        <time>2020-08-26T10:32:37.398Z</time>
      </trkpt>
      <trkpt lat="48.596993" lon="16.822027">
        <ele>206.749161</ele>
        <time>2020-08-26T10:32:39.374Z</time>
      </trkpt>
      <trkpt lat="48.597080" lon="16.821950">
        <ele>206.772444</ele>
        <time>2020-08-26T10:32:41.385Z</time>
      </trkpt>
      <trkpt lat="48.597168" lon="16.821875">
        <ele>206.795774</ele>
        <time>2020-08-26T10:32:43.365Z</time>
      </trkpt>
      <trkpt lat="48.597259" lon="16.821797">
        <ele>206.819933</ele>
        <time>2020-08-26T10:32:45.397Z</time>
      </trkpt>
      <trkpt lat="48.597350" lon="16.821721">
        <ele>206.843943</ele>
        <time>2020-08-26T10:32:47.379Z</time>
      </trkpt>
      <trkpt lat="48.597440" lon="16.821645">
        <ele>206.867750</ele>
        <time>2020-08-26T10:32:49.359Z</time>
      </trkpt>
      <trkpt lat="48.597532" lon="16.821570">
        <ele>206.891890</ele>
        <time>2020-08-26T10:32:51.378Z</time>
      </trkpt>
      <trkpt lat="48.597625" lon="16.821494">
        <ele>206.916305</ele>
        <time>2020-08-26T10:32:53.372Z</time>
      </trkpt>
      <trkpt lat="48.597716" lon="16.821409">
        <ele>206.941008</ele>
        <time>2020-08-26T10:32:55.368Z</time>
      </trkpt>
      <trkpt lat="48.597808" lon="16.821321">
        <ele>206.966151</ele>
        <time>2020-08-26T10:32:57.372Z</time>
      </trkpt>
      <trkpt lat="48.597899" lon="16.821238">
        <ele>206.981074</ele>
        <time>2020-08-26T10:32:59.398Z</time>
      </trkpt>
      <trkpt lat="48.597989" lon="16.821162">
        <ele>206.972461</ele>
        <time>2020-08-26T10:33:01.372Z</time>
      </trkpt>
      <trkpt lat="48.598082" lon="16.821105">
        <ele>206.964077</ele>
        <time>2020-08-26T10:33:03.364Z</time>
      </trkpt>
      <trkpt lat="48.598174" lon="16.821048">
        <ele>206.955770</ele>
        <time>2020-08-26T10:33:05.391Z</time>
      </trkpt>
      <trkpt lat="48.598268" lon="16.820998">
        <ele>206.947444</ele>
        <time>2020-08-26T10:33:07.377Z</time>
      </trkpt>
      <trkpt lat="48.598364" lon="16.820950">
        <ele>206.938996</ele>
        <time>2020-08-26T10:33:09.381Z</time>
      </trkpt>
      <trkpt lat="48.598463" lon="16.820903">
        <ele>206.930327</ele>
        <time>2020-08-26T10:33:11.373Z</time>
      </trkpt>
      <trkpt lat="48.598566" lon="16.820865">
        <ele>206.921469</ele>
        <time>2020-08-26T10:33:13.360Z</time>
      </trkpt>
      <trkpt lat="48.598671" lon="16.820827">
        <ele>206.912448</ele>
        <time>2020-08-26T10:33:15.381Z</time>
      </trkpt>
      <trkpt lat="48.598776" lon="16.820787">
        <ele>206.903401</ele>
        <time>2020-08-26T10:33:17.380Z</time>
      </trkpt>
      <trkpt lat="48.598883" lon="16.820743">
        <ele>206.894136</ele>
        <time>2020-08-26T10:33:19.377Z</time>
      </trkpt>
      <trkpt lat="48.598990" lon="16.820695">
        <ele>206.884811</ele>
        <time>2020-08-26T10:33:21.380Z</time>
      </trkpt>
      <trkpt lat="48.599091" lon="16.820649">
        <ele>206.875998</ele>
        <time>2020-08-26T10:33:23.373Z</time>
      </trkpt>
      <trkpt lat="48.599193" lon="16.820604">
        <ele>206.867121</ele>
        <time>2020-08-26T10:33:25.367Z</time>
      </trkpt>
      <trkpt lat="48.599300" lon="16.820559">
        <ele>206.857841</ele>
        <time>2020-08-26T10:33:27.368Z</time>
      </trkpt>
      <trkpt lat="48.599411" lon="16.820519">
        <ele>206.848308</ele>
        <time>2020-08-26T10:33:29.366Z</time>
      </trkpt>
      <trkpt lat="48.599510" lon="16.820478">
        <ele>206.839731</ele>
        <time>2020-08-26T10:33:31.382Z</time>
      </trkpt>
      <trkpt lat="48.599613" lon="16.820440">
        <ele>206.830840</ele>
        <time>2020-08-26T10:33:33.360Z</time>
      </trkpt>
      <trkpt lat="48.599714" lon="16.820394">
        <ele>206.821911</ele>
        <time>2020-08-26T10:33:35.360Z</time>
      </trkpt>
      <trkpt lat="48.599816" lon="16.820339">
        <ele>206.812743</ele>
        <time>2020-08-26T10:33:37.371Z</time>
      </trkpt>
      <trkpt lat="48.599915" lon="16.820276">
        <ele>206.803650</ele>
        <time>2020-08-26T10:33:39.366Z</time>
      </trkpt>
      <trkpt lat="48.600013" lon="16.820216">
        <ele>206.794700</ele>
        <time>2020-08-26T10:33:41.372Z</time>
      </trkpt>
      <trkpt lat="48.600112" lon="16.820158">
        <ele>206.785712</ele>
        <time>2020-08-26T10:33:43.388Z</time>
      </trkpt>
      <trkpt lat="48.600210" lon="16.820100">
        <ele>206.776803</ele>
        <time>2020-08-26T10:33:45.398Z</time>
      </trkpt>
      <trkpt lat="48.600307" lon="16.820043">
        <ele>206.767993</ele>
        <time>2020-08-26T10:33:47.363Z</time>
      </trkpt>
      <trkpt lat="48.600394" lon="16.819969">
        <ele>206.759542</ele>
        <time>2020-08-26T10:33:49.359Z</time>
      </trkpt>
      <trkpt lat="48.600476" lon="16.819880">
        <ele>206.750997</ele>
        <time>2020-08-26T10:33:51.388Z</time>
      </trkpt>
      <trkpt lat="48.600555" lon="16.819793">
        <ele>206.742724</ele>
        <time>2020-08-26T10:33:53.388Z</time>
      </trkpt>
      <trkpt lat="48.600634" lon="16.819705">
        <ele>206.734418</ele>
        <time>2020-08-26T10:33:55.366Z</time>
      </trkpt>
      <trkpt lat="48.600708" lon="16.819619">
        <ele>206.726517</ele>
        <time>2020-08-26T10:33:57.360Z</time>
      </trkpt>
      <trkpt lat="48.600785" lon="16.819530">
        <ele>206.718312</ele>
        <time>2020-08-26T10:33:59.377Z</time>
      </trkpt>
      <trkpt lat="48.600864" lon="16.819444">
        <ele>206.710071</ele>
        <time>2020-08-26T10:34:01.367Z</time>
      </trkpt>
      <trkpt lat="48.600950" lon="16.819356">
        <ele>206.701281</ele>
        <time>2020-08-26T10:34:03.353Z</time>
      </trkpt>
      <trkpt lat="48.601038" lon="16.819267">
        <ele>206.692318</ele>
        <time>2020-08-26T10:34:05.388Z</time>
      </trkpt>
      <trkpt lat="48.601130" lon="16.819188">
        <ele>206.683362</ele>
        <time>2020-08-26T10:34:07.370Z</time>
      </trkpt>
      <trkpt lat="48.601226" lon="16.819106">
        <ele>206.681942</ele>
        <time>2020-08-26T10:34:09.366Z</time>
      </trkpt>
      <trkpt lat="48.601322" lon="16.819022">
        <ele>206.683082</ele>
        <time>2020-08-26T10:34:11.377Z</time>
      </trkpt>
      <trkpt lat="48.601419" lon="16.818937">
        <ele>206.684234</ele>
        <time>2020-08-26T10:34:13.392Z</time>
      </trkpt>
      <trkpt lat="48.601514" lon="16.818850">
        <ele>206.685375</ele>
        <time>2020-08-26T10:34:15.368Z</time>
      </trkpt>
      <trkpt lat="48.601592" lon="16.818734">
        <ele>206.686500</ele>
        <time>2020-08-26T10:34:17.362Z</time>
      </trkpt>
      <trkpt lat="48.601654" lon="16.818593">
        <ele>206.687651</ele>
        <time>2020-08-26T10:34:19.360Z</time>
      </trkpt>
      <trkpt lat="48.601731" lon="16.818477">
        <ele>206.688768</ele>
        <time>2020-08-26T10:34:21.386Z</time>
      </trkpt>
      <trkpt lat="48.601778" lon="16.818351">
        <ele>206.689751</ele>
        <time>2020-08-26T10:34:23.372Z</time>
      </trkpt>
      <trkpt lat="48.601702" lon="16.818257">
        <ele>206.690760</ele>
        <time>2020-08-26T10:34:25.374Z</time>
      </trkpt>
      <trkpt lat="48.601604" lon="16.818179">
        <ele>206.691899</ele>
        <time>2020-08-26T10:34:27.378Z</time>
      </trkpt>
      <trkpt lat="48.601502" lon="16.818115">
        <ele>206.693034</ele>
        <time>2020-08-26T10:34:29.377Z</time>
      </trkpt>
      <trkpt lat="48.601405" lon="16.818060">
        <ele>206.694098</ele>
        <time>2020-08-26T10:34:31.359Z</time>
      </trkpt>
      <trkpt lat="48.601313" lon="16.818003">
        <ele>206.695120</ele>
        <time>2020-08-26T10:34:33.361Z</time>
      </trkpt>
      <trkpt lat="48.601225" lon="16.817943">
        <ele>206.696112</ele>
        <time>2020-08-26T10:34:35.393Z</time>
      </trkpt>
      <trkpt lat="48.601141" lon="16.817878">
        <ele>206.697082</ele>
        <time>2020-08-26T10:34:37.409Z</time>
      </trkpt>
      <trkpt lat="48.601068" lon="16.817789">
        <ele>206.698046</ele>
        <time>2020-08-26T10:34:39.362Z</time>
      </trkpt>
      <trkpt lat="48.600994" lon="16.817685">
        <ele>206.699084</ele>
        <time>2020-08-26T10:34:41.386Z</time>
      </trkpt>
      <trkpt lat="48.600916" lon="16.817577">
        <ele>206.707058</ele>
        <time>2020-08-26T10:34:43.364Z</time>
      </trkpt>
      <trkpt lat="48.600857" lon="16.817439">
        <ele>206.721000</ele>
        <time>2020-08-26T10:34:45.375Z</time>
      </trkpt>
      <trkpt lat="48.600850" lon="16.817282">
        <ele>206.734351</ele>
        <time>2020-08-26T10:34:47.364Z</time>
      </trkpt>
      <trkpt lat="48.600878" lon="16.817047">
        <ele>206.754610</ele>
        <time>2020-08-26T10:34:50.366Z</time>
      </trkpt>
      <trkpt lat="48.600896" lon="16.816886">
        <ele>206.768463</ele>
        <time>2020-08-26T10:34:52.376Z</time>
      </trkpt>
      <trkpt lat="48.600914" lon="16.816728">
        <ele>206.782066</ele>
        <time>2020-08-26T10:34:54.383Z</time>
      </trkpt>
      <trkpt lat="48.600932" lon="16.816574">
        <ele>206.795334</ele>
        <time>2020-08-26T10:34:56.360Z</time>
      </trkpt>
      <trkpt lat="48.600950" lon="16.816424">
        <ele>206.808268</ele>
        <time>2020-08-26T10:34:58.358Z</time>
      </trkpt>
      <trkpt lat="48.600967" lon="16.816274">
        <ele>206.821180</ele>
        <time>2020-08-26T10:35:00.413Z</time>
      </trkpt>
      <trkpt lat="48.600980" lon="16.816118">
        <ele>206.834520</ele>
        <time>2020-08-26T10:35:02.359Z</time>
      </trkpt>
      <trkpt lat="48.600986" lon="16.815958">
        <ele>206.848116</ele>
        <time>2020-08-26T10:35:04.373Z</time>
      </trkpt>
      <trkpt lat="48.600993" lon="16.815799">
        <ele>206.861636</ele>
        <time>2020-08-26T10:35:06.391Z</time>
      </trkpt>
      <trkpt lat="48.601004" lon="16.815639">
        <ele>206.875284</ele>
        <time>2020-08-26T10:35:08.379Z</time>
      </trkpt>
      <trkpt lat="48.601018" lon="16.815480">
        <ele>206.888893</ele>
        <time>2020-08-26T10:35:10.379Z</time>
      </trkpt>
      <trkpt lat="48.601033" lon="16.815320">
        <ele>206.902603</ele>
        <time>2020-08-26T10:35:12.383Z</time>
      </trkpt>
      <trkpt lat="48.601046" lon="16.815157">
        <ele>206.916533</ele>
        <time>2020-08-26T10:35:14.369Z</time>
      </trkpt>
      <trkpt lat="48.601056" lon="16.814993">
        <ele>206.930715</ele>
        <time>2020-08-26T10:35:16.359Z</time>
      </trkpt>
      <trkpt lat="48.601067" lon="16.814829">
        <ele>206.961366</ele>
        <time>2020-08-26T10:35:18.375Z</time>
      </trkpt>
      <trkpt lat="48.601077" lon="16.814667">
        <ele>206.991619</ele>
        <time>2020-08-26T10:35:20.369Z</time>
      </trkpt>
      <trkpt lat="48.601089" lon="16.814504">
        <ele>207.022114</ele>
        <time>2020-08-26T10:35:22.385Z</time>
      </trkpt>
      <trkpt lat="48.601106" lon="16.814347">
        <ele>207.051696</ele>
        <time>2020-08-26T10:35:24.378Z</time>
      </trkpt>
      <trkpt lat="48.601128" lon="16.814193">
        <ele>207.080991</ele>
        <time>2020-08-26T10:35:26.370Z</time>
      </trkpt>
      <trkpt lat="48.601148" lon="16.814040">
        <ele>207.109990</ele>
        <time>2020-08-26T10:35:28.401Z</time>
      </trkpt>
      <trkpt lat="48.601167" lon="16.813885">
        <ele>207.139301</ele>
        <time>2020-08-26T10:35:30.357Z</time>
      </trkpt>
      <trkpt lat="48.601184" lon="16.813730">
        <ele>207.168516</ele>
        <time>2020-08-26T10:35:32.359Z</time>
      </trkpt>
      <trkpt lat="48.601199" lon="16.813583">
        <ele>207.196172</ele>
        <time>2020-08-26T10:35:34.377Z</time>
      </trkpt>
      <trkpt lat="48.601214" lon="16.813433">
        <ele>207.224380</ele>
        <time>2020-08-26T10:35:36.377Z</time>
      </trkpt>
      <trkpt lat="48.601237" lon="16.813284">
        <ele>207.252830</ele>
        <time>2020-08-26T10:35:38.356Z</time>
      </trkpt>
      <trkpt lat="48.601257" lon="16.813130">
        <ele>207.282011</ele>
        <time>2020-08-26T10:35:40.360Z</time>
      </trkpt>
      <trkpt lat="48.601274" lon="16.812981">
        <ele>207.310126</ele>
        <time>2020-08-26T10:35:42.363Z</time>
      </trkpt>
      <trkpt lat="48.601285" lon="16.812843">
        <ele>207.335971</ele>
        <time>2020-08-26T10:35:44.356Z</time>
      </trkpt>
      <trkpt lat="48.601297" lon="16.812670">
        <ele>207.368315</ele>
        <time>2020-08-26T10:35:47.364Z</time>
      </trkpt>
      <trkpt lat="48.601318" lon="16.812506">
        <ele>207.399375</ele>
        <time>2020-08-26T10:35:51.385Z</time>
      </trkpt>
      <trkpt lat="48.601339" lon="16.812340">
        <ele>207.430801</ele>
        <time>2020-08-26T10:35:55.381Z</time>
      </trkpt>
      <trkpt lat="48.601357" lon="16.812198">
        <ele>207.457419</ele>
        <time>2020-08-26T10:35:57.365Z</time>
      </trkpt>
      <trkpt lat="48.601390" lon="16.812021">
        <ele>207.491194</ele>
        <time>2020-08-26T10:35:59.369Z</time>
      </trkpt>
      <trkpt lat="48.601438" lon="16.811841">
        <ele>207.526838</ele>
        <time>2020-08-26T10:36:01.369Z</time>
      </trkpt>
      <trkpt lat="48.601485" lon="16.811657">
        <ele>207.563064</ele>
        <time>2020-08-26T10:36:03.385Z</time>
      </trkpt>
      <trkpt lat="48.601538" lon="16.811482">
        <ele>207.598414</ele>
        <time>2020-08-26T10:36:05.369Z</time>
      </trkpt>
      <trkpt lat="48.601591" lon="16.811316">
        <ele>207.632269</ele>
        <time>2020-08-26T10:36:07.360Z</time>
      </trkpt>
      <trkpt lat="48.601644" lon="16.811158">
        <ele>207.664806</ele>
        <time>2020-08-26T10:36:09.359Z</time>
      </trkpt>
      <trkpt lat="48.601694" lon="16.811000">
        <ele>207.696975</ele>
        <time>2020-08-26T10:36:11.388Z</time>
      </trkpt>
      <trkpt lat="48.601741" lon="16.810843">
        <ele>207.728625</ele>
        <time>2020-08-26T10:36:13.377Z</time>
      </trkpt>
      <trkpt lat="48.601786" lon="16.810687">
        <ele>207.759883</ele>
        <time>2020-08-26T10:36:15.370Z</time>
      </trkpt>
      <trkpt lat="48.601830" lon="16.810534">
        <ele>207.790524</ele>
        <time>2020-08-26T10:36:17.382Z</time>
      </trkpt>
      <trkpt lat="48.601874" lon="16.810383">
        <ele>207.820829</ele>
        <time>2020-08-26T10:36:19.369Z</time>
      </trkpt>
      <trkpt lat="48.601919" lon="16.810236">
        <ele>207.850578</ele>
        <time>2020-08-26T10:36:21.364Z</time>
      </trkpt>
      <trkpt lat="48.601962" lon="16.810093">
        <ele>207.879429</ele>
        <time>2020-08-26T10:36:23.370Z</time>
      </trkpt>
      <trkpt lat="48.602007" lon="16.809954">
        <ele>207.907851</ele>
        <time>2020-08-26T10:36:25.381Z</time>
      </trkpt>
      <trkpt lat="48.602054" lon="16.809817">
        <ele>207.936371</ele>
        <time>2020-08-26T10:36:27.368Z</time>
      </trkpt>
      <trkpt lat="48.602096" lon="16.809678">
        <ele>207.972442</ele>
        <time>2020-08-26T10:36:29.373Z</time>
      </trkpt>
      <trkpt lat="48.602135" lon="16.809541">
        <ele>208.007648</ele>
        <time>2020-08-26T10:36:31.363Z</time>
      </trkpt>
      <trkpt lat="48.602165" lon="16.809405">
        <ele>208.041488</ele>
        <time>2020-08-26T10:36:33.382Z</time>
      </trkpt>
      <trkpt lat="48.602191" lon="16.809271">
        <ele>208.074450</ele>
        <time>2020-08-26T10:36:35.378Z</time>
      </trkpt>
      <trkpt lat="48.602210" lon="16.809132">
        <ele>208.107952</ele>
        <time>2020-08-26T10:36:37.363Z</time>
      </trkpt>
      <trkpt lat="48.602226" lon="16.808986">
        <ele>208.142883</ele>
        <time>2020-08-26T10:36:39.370Z</time>
      </trkpt>
      <trkpt lat="48.602241" lon="16.808834">
        <ele>208.179158</ele>
        <time>2020-08-26T10:36:41.376Z</time>
      </trkpt>
      <trkpt lat="48.602256" lon="16.808671">
        <ele>208.218002</ele>
        <time>2020-08-26T10:36:43.388Z</time>
      </trkpt>
      <trkpt lat="48.602275" lon="16.808502">
        <ele>208.258464</ele>
        <time>2020-08-26T10:36:45.411Z</time>
      </trkpt>
      <trkpt lat="48.602295" lon="16.808335">
        <ele>208.298523</ele>
        <time>2020-08-26T10:36:47.373Z</time>
      </trkpt>
      <trkpt lat="48.602311" lon="16.808167">
        <ele>208.338586</ele>
        <time>2020-08-26T10:36:49.353Z</time>
      </trkpt>
      <trkpt lat="48.602328" lon="16.808001">
        <ele>208.378235</ele>
        <time>2020-08-26T10:36:51.366Z</time>
      </trkpt>
      <trkpt lat="48.602347" lon="16.807836">
        <ele>208.417767</ele>
        <time>2020-08-26T10:36:53.384Z</time>
      </trkpt>
      <trkpt lat="48.602364" lon="16.807671">
        <ele>208.457182</ele>
        <time>2020-08-26T10:36:55.355Z</time>
      </trkpt>
      <trkpt lat="48.602382" lon="16.807507">
        <ele>208.496421</ele>
        <time>2020-08-26T10:36:57.387Z</time>
      </trkpt>
      <trkpt lat="48.602401" lon="16.807340">
        <ele>208.536418</ele>
        <time>2020-08-26T10:36:59.353Z</time>
      </trkpt>
      <trkpt lat="48.602425" lon="16.807173">
        <ele>208.576756</ele>
        <time>2020-08-26T10:37:01.364Z</time>
      </trkpt>
      <trkpt lat="48.602447" lon="16.807007">
        <ele>208.646115</ele>
        <time>2020-08-26T10:37:03.363Z</time>
      </trkpt>
      <trkpt lat="48.602469" lon="16.806844">
        <ele>208.714880</ele>
        <time>2020-08-26T10:37:05.376Z</time>
      </trkpt>
      <trkpt lat="48.602489" lon="16.806688">
        <ele>208.780564</ele>
        <time>2020-08-26T10:37:07.368Z</time>
      </trkpt>
      <trkpt lat="48.602512" lon="16.806533">
        <ele>208.846226</ele>
        <time>2020-08-26T10:37:09.363Z</time>
      </trkpt>
      <trkpt lat="48.602533" lon="16.806379">
        <ele>208.911222</ele>
        <time>2020-08-26T10:37:11.368Z</time>
      </trkpt>
      <trkpt lat="48.602549" lon="16.806227">
        <ele>208.974842</ele>
        <time>2020-08-26T10:37:13.360Z</time>
      </trkpt>
      <trkpt lat="48.602562" lon="16.806077">
        <ele>209.037375</ele>
        <time>2020-08-26T10:37:15.378Z</time>
      </trkpt>
      <trkpt lat="48.602579" lon="16.805930">
        <ele>209.099059</ele>
        <time>2020-08-26T10:37:17.397Z</time>
      </trkpt>
      <trkpt lat="48.602592" lon="16.805778">
        <ele>209.162412</ele>
        <time>2020-08-26T10:37:19.368Z</time>
      </trkpt>
      <trkpt lat="48.602605" lon="16.805626">
        <ele>209.225764</ele>
        <time>2020-08-26T10:37:21.379Z</time>
      </trkpt>
      <trkpt lat="48.602623" lon="16.805471">
        <ele>209.290814</ele>
        <time>2020-08-26T10:37:23.368Z</time>
      </trkpt>
      <trkpt lat="48.602643" lon="16.805316">
        <ele>209.356091</ele>
        <time>2020-08-26T10:37:25.363Z</time>
      </trkpt>
      <trkpt lat="48.602667" lon="16.805167">
        <ele>209.419481</ele>
        <time>2020-08-26T10:37:27.372Z</time>
      </trkpt>
      <trkpt lat="48.602684" lon="16.805017">
        <ele>209.482388</ele>
        <time>2020-08-26T10:37:29.377Z</time>
      </trkpt>
      <trkpt lat="48.602700" lon="16.804862">
        <ele>209.547233</ele>
        <time>2020-08-26T10:37:31.349Z</time>
      </trkpt>
      <trkpt lat="48.602717" lon="16.804712">
        <ele>209.610139</ele>
        <time>2020-08-26T10:37:33.376Z</time>
      </trkpt>
      <trkpt lat="48.602733" lon="16.804561">
        <ele>209.673351</ele>
        <time>2020-08-26T10:37:35.369Z</time>
      </trkpt>
      <trkpt lat="48.602750" lon="16.804412">
        <ele>209.723899</ele>
        <time>2020-08-26T10:37:37.385Z</time>
      </trkpt>
      <trkpt lat="48.602770" lon="16.804265">
        <ele>209.764114</ele>
        <time>2020-08-26T10:37:39.375Z</time>
      </trkpt>
      <trkpt lat="48.602791" lon="16.804122">
        <ele>209.803366</ele>
        <time>2020-08-26T10:37:41.379Z</time>
      </trkpt>
      <trkpt lat="48.602811" lon="16.803977">
        <ele>209.843056</ele>
        <time>2020-08-26T10:37:43.390Z</time>
      </trkpt>
      <trkpt lat="48.602826" lon="16.803829">
        <ele>209.883177</ele>
        <time>2020-08-26T10:37:45.378Z</time>
      </trkpt>
      <trkpt lat="48.602841" lon="16.803685">
        <ele>209.922239</ele>
        <time>2020-08-26T10:37:47.362Z</time>
      </trkpt>
      <trkpt lat="48.602858" lon="16.803542">
        <ele>209.961171</ele>
        <time>2020-08-26T10:37:49.390Z</time>
      </trkpt>
      <trkpt lat="48.602873" lon="16.803398">
        <ele>210.000233</ele>
        <time>2020-08-26T10:37:51.370Z</time>
      </trkpt>
      <trkpt lat="48.602888" lon="16.803252">
        <ele>210.039824</ele>
        <time>2020-08-26T10:37:53.364Z</time>
      </trkpt>
      <trkpt lat="48.602902" lon="16.803105">
        <ele>210.079620</ele>
        <time>2020-08-26T10:37:55.372Z</time>
      </trkpt>
      <trkpt lat="48.602917" lon="16.802958">
        <ele>210.119476</ele>
        <time>2020-08-26T10:37:57.368Z</time>
      </trkpt>
      <trkpt lat="48.602936" lon="16.802814">
        <ele>210.158823</ele>
        <time>2020-08-26T10:37:59.375Z</time>
      </trkpt>
      <trkpt lat="48.602955" lon="16.802667">
        <ele>210.198958</ele>
        <time>2020-08-26T10:38:01.371Z</time>
      </trkpt>
      <trkpt lat="48.602977" lon="16.802519">
        <ele>210.239605</ele>
        <time>2020-08-26T10:38:03.365Z</time>
      </trkpt>
      <trkpt lat="48.602998" lon="16.802376">
        <ele>210.278856</ele>
        <time>2020-08-26T10:38:05.368Z</time>
      </trkpt>
      <trkpt lat="48.603018" lon="16.802237">
        <ele>210.316974</ele>
        <time>2020-08-26T10:38:07.380Z</time>
      </trkpt>
      <trkpt lat="48.603039" lon="16.802100">
        <ele>210.354657</ele>
        <time>2020-08-26T10:38:09.368Z</time>
      </trkpt>
      <trkpt lat="48.603050" lon="16.801956">
        <ele>210.393500</ele>
        <time>2020-08-26T10:38:11.373Z</time>
      </trkpt>
      <trkpt lat="48.603061" lon="16.801812">
        <ele>210.431930</ele>
        <time>2020-08-26T10:38:13.371Z</time>
      </trkpt>
      <trkpt lat="48.603072" lon="16.801671">
        <ele>210.460359</ele>
        <time>2020-08-26T10:38:15.366Z</time>
      </trkpt>
      <trkpt lat="48.603078" lon="16.801526">
        <ele>210.489450</ele>
        <time>2020-08-26T10:38:17.379Z</time>
      </trkpt>
      <trkpt lat="48.603083" lon="16.801389">
        <ele>210.516924</ele>
        <time>2020-08-26T10:38:19.356Z</time>
      </trkpt>
      <trkpt lat="48.603088" lon="16.801250">
        <ele>210.544798</ele>
        <time>2020-08-26T10:38:21.363Z</time>
      </trkpt>
      <trkpt lat="48.603092" lon="16.801111">
        <ele>210.572657</ele>
        <time>2020-08-26T10:38:23.361Z</time>
      </trkpt>
      <trkpt lat="48.603098" lon="16.800972">
        <ele>210.600549</ele>
        <time>2020-08-26T10:38:25.374Z</time>
      </trkpt>
      <trkpt lat="48.603103" lon="16.800770">
        <ele>210.641025</ele>
        <time>2020-08-26T10:38:28.364Z</time>
      </trkpt>
      <trkpt lat="48.603109" lon="16.800634">
        <ele>210.668318</ele>
        <time>2020-08-26T10:38:30.373Z</time>
      </trkpt>
      <trkpt lat="48.603116" lon="16.800497">
        <ele>210.695832</ele>
        <time>2020-08-26T10:38:32.366Z</time>
      </trkpt>
      <trkpt lat="48.603128" lon="16.800357">
        <ele>210.724100</ele>
        <time>2020-08-26T10:38:34.370Z</time>
      </trkpt>
      <trkpt lat="48.603142" lon="16.800157">
        <ele>210.764371</ele>
        <time>2020-08-26T10:38:37.377Z</time>
      </trkpt>
      <trkpt lat="48.603148" lon="16.799960">
        <ele>210.803859</ele>
        <time>2020-08-26T10:38:40.377Z</time>
      </trkpt>
      <trkpt lat="48.603155" lon="16.799770">
        <ele>210.841963</ele>
        <time>2020-08-26T10:38:43.365Z</time>
      </trkpt>
      <trkpt lat="48.603167" lon="16.799576">
        <ele>210.880978</ele>
        <time>2020-08-26T10:38:46.367Z</time>
      </trkpt>
      <trkpt lat="48.603172" lon="16.799383">
        <ele>210.919654</ele>
        <time>2020-08-26T10:38:49.369Z</time>
      </trkpt>
      <trkpt lat="48.603175" lon="16.799195">
        <ele>210.957309</ele>
        <time>2020-08-26T10:38:52.385Z</time>
      </trkpt>
      <trkpt lat="48.603187" lon="16.799015">
        <ele>210.993483</ele>
        <time>2020-08-26T10:38:55.376Z</time>
      </trkpt>
      <trkpt lat="48.603192" lon="16.798825">
        <ele>211.031452</ele>
        <time>2020-08-26T10:38:58.378Z</time>
      </trkpt>
      <trkpt lat="48.603193" lon="16.798629">
        <ele>211.070590</ele>
        <time>2020-08-26T10:39:01.362Z</time>
      </trkpt>
      <trkpt lat="48.603190" lon="16.798435">
        <ele>211.109338</ele>
        <time>2020-08-26T10:39:04.380Z</time>
      </trkpt>
      <trkpt lat="48.603192" lon="16.798247">
        <ele>211.146882</ele>
        <time>2020-08-26T10:39:07.384Z</time>
      </trkpt>
      <trkpt lat="48.603197" lon="16.798053">
        <ele>211.185649</ele>
        <time>2020-08-26T10:39:10.364Z</time>
      </trkpt>
      <trkpt lat="48.603214" lon="16.797867">
        <ele>211.223142</ele>
        <time>2020-08-26T10:39:13.379Z</time>
      </trkpt>
      <trkpt lat="48.603227" lon="16.797684">
        <ele>211.259893</ele>
        <time>2020-08-26T10:39:16.383Z</time>
      </trkpt>
      <trkpt lat="48.603233" lon="16.797497">
        <ele>211.297276</ele>
        <time>2020-08-26T10:39:19.371Z</time>
      </trkpt>
      <trkpt lat="48.603242" lon="16.797305">
        <ele>211.335710</ele>
        <time>2020-08-26T10:39:22.373Z</time>
      </trkpt>
      <trkpt lat="48.603256" lon="16.797107">
        <ele>211.375472</ele>
        <time>2020-08-26T10:39:25.370Z</time>
      </trkpt>
      <trkpt lat="48.603269" lon="16.796918">
        <ele>211.413414</ele>
        <time>2020-08-26T10:39:28.364Z</time>
      </trkpt>
      <trkpt lat="48.603283" lon="16.796732">
        <ele>211.450794</ele>
        <time>2020-08-26T10:39:31.365Z</time>
      </trkpt>
      <trkpt lat="48.603294" lon="16.796532">
        <ele>211.490867</ele>
        <time>2020-08-26T10:39:34.380Z</time>
      </trkpt>
      <trkpt lat="48.603299" lon="16.796396">
        <ele>211.518065</ele>
        <time>2020-08-26T10:39:36.385Z</time>
      </trkpt>
      <trkpt lat="48.603307" lon="16.796205">
        <ele>211.553590</ele>
        <time>2020-08-26T10:39:39.351Z</time>
      </trkpt>
      <trkpt lat="48.603310" lon="16.796004">
        <ele>211.590880</ele>
        <time>2020-08-26T10:39:42.363Z</time>
      </trkpt>
      <trkpt lat="48.603322" lon="16.795869">
        <ele>211.616144</ele>
        <time>2020-08-26T10:39:44.363Z</time>
      </trkpt>
      <trkpt lat="48.603332" lon="16.795731">
        <ele>211.641892</ele>
        <time>2020-08-26T10:39:46.360Z</time>
      </trkpt>
      <trkpt lat="48.603335" lon="16.795588">
        <ele>211.668428</ele>
        <time>2020-08-26T10:39:48.369Z</time>
      </trkpt>
      <trkpt lat="48.603335" lon="16.795445">
        <ele>211.694951</ele>
        <time>2020-08-26T10:39:50.421Z</time>
      </trkpt>
      <trkpt lat="48.603342" lon="16.795305">
        <ele>211.720991</ele>
        <time>2020-08-26T10:39:52.378Z</time>
      </trkpt>
      <trkpt lat="48.603353" lon="16.795165">
        <ele>211.747140</ele>
        <time>2020-08-26T10:39:54.375Z</time>
      </trkpt>
      <trkpt lat="48.603363" lon="16.795025">
        <ele>211.773257</ele>
        <time>2020-08-26T10:39:56.372Z</time>
      </trkpt>
      <trkpt lat="48.603372" lon="16.794884">
        <ele>211.799530</ele>
        <time>2020-08-26T10:39:58.391Z</time>
      </trkpt>
      <trkpt lat="48.603374" lon="16.794736">
        <ele>211.826986</ele>
        <time>2020-08-26T10:40:00.348Z</time>
      </trkpt>
      <trkpt lat="48.603383" lon="16.794590">
        <ele>211.854182</ele>
        <time>2020-08-26T10:40:02.376Z</time>
      </trkpt>
      <trkpt lat="48.603396" lon="16.794442">
        <ele>211.881873</ele>
        <time>2020-08-26T10:40:04.387Z</time>
      </trkpt>
      <trkpt lat="48.603407" lon="16.794299">
        <ele>211.908575</ele>
        <time>2020-08-26T10:40:06.371Z</time>
      </trkpt>
      <trkpt lat="48.603418" lon="16.794160">
        <ele>211.934539</ele>
        <time>2020-08-26T10:40:08.390Z</time>
      </trkpt>
      <trkpt lat="48.603426" lon="16.794022">
        <ele>211.960233</ele>
        <time>2020-08-26T10:40:10.376Z</time>
      </trkpt>
      <trkpt lat="48.603433" lon="16.793880">
        <ele>211.986643</ele>
        <time>2020-08-26T10:40:12.349Z</time>
      </trkpt>
      <trkpt lat="48.603433" lon="16.793731">
        <ele>212.014278</ele>
        <time>2020-08-26T10:40:14.380Z</time>
      </trkpt>
      <trkpt lat="48.603435" lon="16.793586">
        <ele>212.033579</ele>
        <time>2020-08-26T10:40:16.381Z</time>
      </trkpt>
      <trkpt lat="48.603442" lon="16.793445">
        <ele>212.048871</ele>
        <time>2020-08-26T10:40:18.384Z</time>
      </trkpt>
      <trkpt lat="48.603451" lon="16.793308">
        <ele>212.063760</ele>
        <time>2020-08-26T10:40:20.403Z</time>
      </trkpt>
      <trkpt lat="48.603463" lon="16.793171">
        <ele>212.078706</ele>
        <time>2020-08-26T10:40:22.364Z</time>
      </trkpt>
      <trkpt lat="48.603475" lon="16.793032">
        <ele>212.093866</ele>
        <time>2020-08-26T10:40:24.383Z</time>
      </trkpt>
      <trkpt lat="48.603483" lon="16.792896">
        <ele>212.108633</ele>
        <time>2020-08-26T10:40:26.374Z</time>
      </trkpt>
      <trkpt lat="48.603493" lon="16.792761">
        <ele>212.123324</ele>
        <time>2020-08-26T10:40:28.383Z</time>
      </trkpt>
      <trkpt lat="48.603512" lon="16.792559">
        <ele>212.145390</ele>
        <time>2020-08-26T10:40:31.350Z</time>
      </trkpt>
      <trkpt lat="48.603521" lon="16.792420">
        <ele>212.160495</ele>
        <time>2020-08-26T10:40:33.398Z</time>
      </trkpt>
      <trkpt lat="48.603528" lon="16.792283">
        <ele>212.175355</ele>
        <time>2020-08-26T10:40:35.370Z</time>
      </trkpt>
      <trkpt lat="48.603536" lon="16.792146">
        <ele>212.190229</ele>
        <time>2020-08-26T10:40:37.402Z</time>
      </trkpt>
      <trkpt lat="48.603543" lon="16.791946">
        <ele>212.211889</ele>
        <time>2020-08-26T10:40:40.394Z</time>
      </trkpt>
      <trkpt lat="48.603545" lon="16.791805">
        <ele>212.227142</ele>
        <time>2020-08-26T10:40:42.383Z</time>
      </trkpt>
      <trkpt lat="48.603556" lon="16.791602">
        <ele>212.249170</ele>
        <time>2020-08-26T10:40:45.369Z</time>
      </trkpt>
      <trkpt lat="48.603571" lon="16.791404">
        <ele>212.270723</ele>
        <time>2020-08-26T10:40:48.370Z</time>
      </trkpt>
      <trkpt lat="48.603591" lon="16.791206">
        <ele>212.292385</ele>
        <time>2020-08-26T10:40:51.405Z</time>
      </trkpt>
      <trkpt lat="48.603611" lon="16.791008">
        <ele>212.314047</ele>
        <time>2020-08-26T10:40:54.359Z</time>
      </trkpt>
      <trkpt lat="48.603643" lon="16.790813">
        <ele>212.326249</ele>
        <time>2020-08-26T10:40:57.362Z</time>
      </trkpt>
      <trkpt lat="48.603675" lon="16.790619">
        <ele>212.336833</ele>
        <time>2020-08-26T10:41:00.398Z</time>
      </trkpt>
      <trkpt lat="48.603697" lon="16.790485">
        <ele>212.344142</ele>
        <time>2020-08-26T10:41:02.374Z</time>
      </trkpt>
      <trkpt lat="48.603717" lon="16.790346">
        <ele>212.351672</ele>
        <time>2020-08-26T10:41:04.381Z</time>
      </trkpt>
      <trkpt lat="48.603734" lon="16.790206">
        <ele>212.359207</ele>
        <time>2020-08-26T10:41:06.365Z</time>
      </trkpt>
      <trkpt lat="48.603755" lon="16.790071">
        <ele>212.366548</ele>
        <time>2020-08-26T10:41:08.374Z</time>
      </trkpt>
      <trkpt lat="48.603775" lon="16.789933">
        <ele>212.374027</ele>
        <time>2020-08-26T10:41:10.360Z</time>
      </trkpt>
      <trkpt lat="48.603802" lon="16.789796">
        <ele>212.381594</ele>
        <time>2020-08-26T10:41:12.374Z</time>
      </trkpt>
      <trkpt lat="48.603831" lon="16.789663">
        <ele>212.389007</ele>
        <time>2020-08-26T10:41:14.402Z</time>
      </trkpt>
      <trkpt lat="48.603870" lon="16.789467">
        <ele>212.399842</ele>
        <time>2020-08-26T10:41:17.408Z</time>
      </trkpt>
      <trkpt lat="48.603893" lon="16.789330">
        <ele>212.407324</ele>
        <time>2020-08-26T10:41:19.366Z</time>
      </trkpt>
      <trkpt lat="48.603922" lon="16.789196">
        <ele>212.414788</ele>
        <time>2020-08-26T10:41:21.362Z</time>
      </trkpt>
      <trkpt lat="48.603952" lon="16.789062">
        <ele>212.422277</ele>
        <time>2020-08-26T10:41:23.381Z</time>
      </trkpt>
      <trkpt lat="48.603985" lon="16.788935">
        <ele>212.429500</ele>
        <time>2020-08-26T10:41:25.370Z</time>
      </trkpt>
      <trkpt lat="48.604035" lon="16.788748">
        <ele>212.440177</ele>
        <time>2020-08-26T10:41:28.385Z</time>
      </trkpt>
      <trkpt lat="48.604081" lon="16.788569">
        <ele>212.450343</ele>
        <time>2020-08-26T10:41:31.367Z</time>
      </trkpt>
      <trkpt lat="48.604126" lon="16.788387">
        <ele>212.460629</ele>
        <time>2020-08-26T10:41:34.377Z</time>
      </trkpt>
      <trkpt lat="48.604167" lon="16.788209">
        <ele>212.471434</ele>
        <time>2020-08-26T10:41:37.394Z</time>
      </trkpt>
      <trkpt lat="48.604213" lon="16.788028">
        <ele>212.482593</ele>
        <time>2020-08-26T10:41:40.362Z</time>
      </trkpt>
      <trkpt lat="48.604257" lon="16.787849">
        <ele>212.493582</ele>
        <time>2020-08-26T10:41:43.388Z</time>
      </trkpt>
      <trkpt lat="48.604297" lon="16.787681">
        <ele>212.503857</ele>
        <time>2020-08-26T10:41:46.371Z</time>
      </trkpt>
      <trkpt lat="48.604338" lon="16.787525">
        <ele>212.513517</ele>
        <time>2020-08-26T10:41:49.375Z</time>
      </trkpt>
      <trkpt lat="48.604372" lon="16.787391">
        <ele>212.521777</ele>
        <time>2020-08-26T10:41:52.364Z</time>
      </trkpt>
      <trkpt lat="48.604399" lon="16.787260">
        <ele>212.529673</ele>
        <time>2020-08-26T10:41:55.397Z</time>
      </trkpt>
      <trkpt lat="48.604458" lon="16.787089">
        <ele>212.540772</ele>
        <time>2020-08-26T10:41:58.371Z</time>
      </trkpt>
      <trkpt lat="48.604517" lon="16.786939">
        <ele>212.550815</ele>
        <time>2020-08-26T10:42:00.381Z</time>
      </trkpt>
      <trkpt lat="48.604576" lon="16.786787">
        <ele>212.560958</ele>
        <time>2020-08-26T10:42:02.388Z</time>
      </trkpt>
      <trkpt lat="48.604634" lon="16.786632">
        <ele>212.571206</ele>
        <time>2020-08-26T10:42:04.364Z</time>
      </trkpt>
      <trkpt lat="48.604693" lon="16.786471">
        <ele>212.581799</ele>
        <time>2020-08-26T10:42:06.366Z</time>
      </trkpt>
      <trkpt lat="48.604752" lon="16.786321">
        <ele>212.591842</ele>
        <time>2020-08-26T10:42:08.395Z</time>
      </trkpt>
      <trkpt lat="48.604809" lon="16.786173">
        <ele>212.601698</ele>
        <time>2020-08-26T10:42:10.368Z</time>
      </trkpt>
      <trkpt lat="48.604860" lon="16.786032">
        <ele>212.610946</ele>
        <time>2020-08-26T10:42:12.361Z</time>
      </trkpt>
      <trkpt lat="48.604909" lon="16.785893">
        <ele>212.622694</ele>
        <time>2020-08-26T10:42:14.379Z</time>
      </trkpt>
      <trkpt lat="48.604955" lon="16.785758">
        <ele>212.641267</ele>
        <time>2020-08-26T10:42:16.374Z</time>
      </trkpt>
      <trkpt lat="48.605001" lon="16.785619">
        <ele>212.660276</ele>
        <time>2020-08-26T10:42:18.367Z</time>
      </trkpt>
      <trkpt lat="48.605047" lon="16.785484">
        <ele>212.678848</ele>
        <time>2020-08-26T10:42:20.372Z</time>
      </trkpt>
      <trkpt lat="48.605089" lon="16.785348">
        <ele>212.697205</ele>
        <time>2020-08-26T10:42:22.379Z</time>
      </trkpt>
      <trkpt lat="48.605131" lon="16.785214">
        <ele>212.715340</ele>
        <time>2020-08-26T10:42:24.386Z</time>
      </trkpt>
      <trkpt lat="48.605176" lon="16.785084">
        <ele>212.733285</ele>
        <time>2020-08-26T10:42:26.369Z</time>
      </trkpt>
      <trkpt lat="48.605216" lon="16.784948">
        <ele>212.751488</ele>
        <time>2020-08-26T10:42:28.365Z</time>
      </trkpt>
      <trkpt lat="48.605257" lon="16.784815">
        <ele>212.769433</ele>
        <time>2020-08-26T10:42:30.358Z</time>
      </trkpt>
      <trkpt lat="48.605297" lon="16.784683">
        <ele>212.787190</ele>
        <time>2020-08-26T10:42:32.357Z</time>
      </trkpt>
      <trkpt lat="48.605339" lon="16.784544">
        <ele>212.805880</ele>
        <time>2020-08-26T10:42:34.381Z</time>
      </trkpt>
      <trkpt lat="48.605383" lon="16.784411">
        <ele>212.824067</ele>
        <time>2020-08-26T10:42:36.373Z</time>
      </trkpt>
      <trkpt lat="48.605431" lon="16.784284">
        <ele>212.841956</ele>
        <time>2020-08-26T10:42:38.356Z</time>
      </trkpt>
      <trkpt lat="48.605479" lon="16.784155">
        <ele>212.860058</ele>
        <time>2020-08-26T10:42:40.373Z</time>
      </trkpt>
      <trkpt lat="48.605520" lon="16.784028">
        <ele>212.877342</ele>
        <time>2020-08-26T10:42:42.386Z</time>
      </trkpt>
      <trkpt lat="48.605562" lon="16.783891">
        <ele>212.895809</ele>
        <time>2020-08-26T10:42:44.354Z</time>
      </trkpt>
      <trkpt lat="48.605602" lon="16.783759">
        <ele>212.913566</ele>
        <time>2020-08-26T10:42:46.363Z</time>
      </trkpt>
      <trkpt lat="48.605644" lon="16.783635">
        <ele>212.930604</ele>
        <time>2020-08-26T10:42:48.358Z</time>
      </trkpt>
      <trkpt lat="48.605685" lon="16.783507">
        <ele>212.947997</ele>
        <time>2020-08-26T10:42:50.393Z</time>
      </trkpt>
      <trkpt lat="48.605729" lon="16.783374">
        <ele>212.954502</ele>
        <time>2020-08-26T10:42:52.391Z</time>
      </trkpt>
      <trkpt lat="48.605775" lon="16.783245">
        <ele>212.959264</ele>
        <time>2020-08-26T10:42:54.388Z</time>
      </trkpt>
      <trkpt lat="48.605818" lon="16.783116">
        <ele>212.963958</ele>
        <time>2020-08-26T10:42:56.379Z</time>
      </trkpt>
      <trkpt lat="48.605854" lon="16.782989">
        <ele>212.968448</ele>
        <time>2020-08-26T10:42:58.367Z</time>
      </trkpt>
      <trkpt lat="48.605881" lon="16.782859">
        <ele>212.972875</ele>
        <time>2020-08-26T10:43:00.355Z</time>
      </trkpt>
      <trkpt lat="48.605910" lon="16.782673">
        <ele>212.979084</ele>
        <time>2020-08-26T10:43:03.394Z</time>
      </trkpt>
      <trkpt lat="48.605938" lon="16.782493">
        <ele>212.985092</ele>
        <time>2020-08-26T10:43:06.370Z</time>
      </trkpt>
      <trkpt lat="48.605969" lon="16.782310">
        <ele>212.991230</ele>
        <time>2020-08-26T10:43:09.363Z</time>
      </trkpt>
      <trkpt lat="48.605981" lon="16.782175">
        <ele>212.995656</ele>
        <time>2020-08-26T10:43:11.393Z</time>
      </trkpt>
      <trkpt lat="48.605998" lon="16.781978">
        <ele>213.002111</ele>
        <time>2020-08-26T10:43:14.382Z</time>
      </trkpt>
      <trkpt lat="48.606020" lon="16.781779">
        <ele>213.008666</ele>
        <time>2020-08-26T10:43:17.373Z</time>
      </trkpt>
      <trkpt lat="48.606049" lon="16.781584">
        <ele>213.015160</ele>
        <time>2020-08-26T10:43:20.365Z</time>
      </trkpt>
      <trkpt lat="48.606069" lon="16.781451">
        <ele>213.019592</ele>
        <time>2020-08-26T10:43:22.383Z</time>
      </trkpt>
      <trkpt lat="48.606090" lon="16.781251">
        <ele>213.026171</ele>
        <time>2020-08-26T10:43:25.381Z</time>
      </trkpt>
      <trkpt lat="48.606108" lon="16.781060">
        <ele>213.032440</ele>
        <time>2020-08-26T10:43:28.374Z</time>
      </trkpt>
      <trkpt lat="48.606127" lon="16.780886">
        <ele>213.038170</ele>
        <time>2020-08-26T10:43:31.401Z</time>
      </trkpt>
      <trkpt lat="48.606148" lon="16.780713">
        <ele>213.051603</ele>
        <time>2020-08-26T10:43:34.395Z</time>
      </trkpt>
      <trkpt lat="48.606175" lon="16.780544">
        <ele>213.065589</ele>
        <time>2020-08-26T10:43:37.363Z</time>
      </trkpt>
      <trkpt lat="48.606199" lon="16.780371">
        <ele>213.079809</ele>
        <time>2020-08-26T10:43:40.401Z</time>
      </trkpt>
      <trkpt lat="48.606229" lon="16.780206">
        <ele>213.093575</ele>
        <time>2020-08-26T10:43:43.368Z</time>
      </trkpt>
      <trkpt lat="48.606265" lon="16.780047">
        <ele>213.107095</ele>
        <time>2020-08-26T10:43:46.362Z</time>
      </trkpt>
      <trkpt lat="48.606301" lon="16.779880">
        <ele>213.121226</ele>
        <time>2020-08-26T10:43:49.367Z</time>
      </trkpt>
      <trkpt lat="48.606336" lon="16.779696">
        <ele>213.136628</ele>
        <time>2020-08-26T10:43:52.398Z</time>
      </trkpt>
      <trkpt lat="48.606375" lon="16.779515">
        <ele>213.151942</ele>
        <time>2020-08-26T10:43:55.383Z</time>
      </trkpt>
      <trkpt lat="48.606419" lon="16.779322">
        <ele>213.168365</ele>
        <time>2020-08-26T10:43:58.369Z</time>
      </trkpt>
      <trkpt lat="48.606467" lon="16.779133">
        <ele>213.184652</ele>
        <time>2020-08-26T10:44:01.371Z</time>
      </trkpt>
      <trkpt lat="48.606494" lon="16.779001">
        <ele>213.195767</ele>
        <time>2020-08-26T10:44:03.371Z</time>
      </trkpt>
      <trkpt lat="48.606519" lon="16.778869">
        <ele>213.206813</ele>
        <time>2020-08-26T10:44:05.357Z</time>
      </trkpt>
      <trkpt lat="48.606552" lon="16.778735">
        <ele>213.218316</ele>
        <time>2020-08-26T10:44:07.404Z</time>
      </trkpt>
      <trkpt lat="48.606599" lon="16.778544">
        <ele>213.234710</ele>
        <time>2020-08-26T10:44:10.397Z</time>
      </trkpt>
      <trkpt lat="48.606645" lon="16.778352">
        <ele>213.251138</ele>
        <time>2020-08-26T10:44:13.356Z</time>
      </trkpt>
      <trkpt lat="48.606674" lon="16.778218">
        <ele>213.263281</ele>
        <time>2020-08-26T10:44:15.385Z</time>
      </trkpt>
      <trkpt lat="48.606698" lon="16.778086">
        <ele>213.276057</ele>
        <time>2020-08-26T10:44:17.399Z</time>
      </trkpt>
      <trkpt lat="48.606725" lon="16.777953">
        <ele>213.289041</ele>
        <time>2020-08-26T10:44:19.382Z</time>
      </trkpt>
      <trkpt lat="48.606755" lon="16.777821">
        <ele>213.302067</ele>
        <time>2020-08-26T10:44:21.360Z</time>
      </trkpt>
      <trkpt lat="48.606788" lon="16.777691">
        <ele>213.315063</ele>
        <time>2020-08-26T10:44:23.372Z</time>
      </trkpt>
      <trkpt lat="48.606820" lon="16.777564">
        <ele>213.327746</ele>
        <time>2020-08-26T10:44:25.367Z</time>
      </trkpt>
      <trkpt lat="48.606865" lon="16.777375">
        <ele>213.346493</ele>
        <time>2020-08-26T10:44:28.382Z</time>
      </trkpt>
      <trkpt lat="48.606911" lon="16.777190">
        <ele>213.364938</ele>
        <time>2020-08-26T10:44:31.410Z</time>
      </trkpt>
      <trkpt lat="48.606960" lon="16.777020">
        <ele>213.382245</ele>
        <time>2020-08-26T10:44:34.375Z</time>
      </trkpt>
      <trkpt lat="48.607000" lon="16.776853">
        <ele>213.398821</ele>
        <time>2020-08-26T10:44:37.394Z</time>
      </trkpt>
      <trkpt lat="48.607042" lon="16.776704">
        <ele>213.413937</ele>
        <time>2020-08-26T10:44:40.385Z</time>
      </trkpt>
      <trkpt lat="48.607087" lon="16.776545">
        <ele>213.430078</ele>
        <time>2020-08-26T10:44:43.361Z</time>
      </trkpt>
      <trkpt lat="48.607152" lon="16.776411">
        <ele>213.445587</ele>
        <time>2020-08-26T10:44:46.368Z</time>
      </trkpt>
      <trkpt lat="48.607242" lon="16.776310">
        <ele>213.461405</ele>
        <time>2020-08-26T10:44:49.369Z</time>
      </trkpt>
      <trkpt lat="48.607324" lon="16.776200">
        <ele>213.476875</ele>
        <time>2020-08-26T10:44:52.383Z</time>
      </trkpt>
      <trkpt lat="48.607335" lon="16.776036">
        <ele>213.492258</ele>
        <time>2020-08-26T10:44:56.360Z</time>
      </trkpt>
      <trkpt lat="48.607332" lon="16.775851">
        <ele>213.509528</ele>
        <time>2020-08-26T10:45:00.371Z</time>
      </trkpt>
      <trkpt lat="48.607327" lon="16.775686">
        <ele>213.527938</ele>
        <time>2020-08-26T10:45:03.349Z</time>
      </trkpt>
      <trkpt lat="48.607323" lon="16.775521">
        <ele>213.546739</ele>
        <time>2020-08-26T10:45:06.385Z</time>
      </trkpt>
      <trkpt lat="48.607318" lon="16.775341">
        <ele>213.567253</ele>
        <time>2020-08-26T10:45:09.353Z</time>
      </trkpt>
      <trkpt lat="48.607308" lon="16.775150">
        <ele>213.589070</ele>
        <time>2020-08-26T10:45:12.368Z</time>
      </trkpt>
      <trkpt lat="48.607288" lon="16.775015">
        <ele>213.604823</ele>
        <time>2020-08-26T10:45:14.379Z</time>
      </trkpt>
      <trkpt lat="48.607265" lon="16.774878">
        <ele>213.620918</ele>
        <time>2020-08-26T10:45:16.373Z</time>
      </trkpt>
      <trkpt lat="48.607235" lon="16.774736">
        <ele>213.637892</ele>
        <time>2020-08-26T10:45:18.367Z</time>
      </trkpt>
      <trkpt lat="48.607209" lon="16.774589">
        <ele>213.655219</ele>
        <time>2020-08-26T10:45:20.425Z</time>
      </trkpt>
      <trkpt lat="48.607190" lon="16.774455">
        <ele>213.670824</ele>
        <time>2020-08-26T10:45:22.359Z</time>
      </trkpt>
      <trkpt lat="48.607175" lon="16.774319">
        <ele>213.686524</ele>
        <time>2020-08-26T10:45:24.377Z</time>
      </trkpt>
      <trkpt lat="48.607162" lon="16.774172">
        <ele>213.703411</ele>
        <time>2020-08-26T10:45:26.368Z</time>
      </trkpt>
      <trkpt lat="48.607145" lon="16.774031">
        <ele>213.719732</ele>
        <time>2020-08-26T10:45:28.365Z</time>
      </trkpt>
      <trkpt lat="48.607127" lon="16.773897">
        <ele>213.735301</ele>
        <time>2020-08-26T10:45:30.392Z</time>
      </trkpt>
      <trkpt lat="48.607107" lon="16.773713">
        <ele>213.756534</ele>
        <time>2020-08-26T10:45:33.367Z</time>
      </trkpt>
      <trkpt lat="48.607026" lon="16.773650">
        <ele>213.772220</ele>
        <time>2020-08-26T10:45:37.365Z</time>
      </trkpt>
      <trkpt lat="48.606924" lon="16.773686">
        <ele>213.790257</ele>
        <time>2020-08-26T10:45:40.389Z</time>
      </trkpt>
      <trkpt lat="48.606835" lon="16.773711">
        <ele>213.805846</ele>
        <time>2020-08-26T10:45:43.361Z</time>
      </trkpt>
      <trkpt lat="48.606721" lon="16.773756">
        <ele>213.819665</ele>
        <time>2020-08-26T10:45:47.366Z</time>
      </trkpt>
      <trkpt lat="48.606609" lon="16.773750">
        <ele>213.814271</ele>
        <time>2020-08-26T10:45:50.352Z</time>
      </trkpt>
      <trkpt lat="48.606480" lon="16.773725">
        <ele>213.808012</ele>
        <time>2020-08-26T10:45:53.363Z</time>
      </trkpt>
      <trkpt lat="48.606383" lon="16.773708">
        <ele>213.803312</ele>
        <time>2020-08-26T10:45:55.394Z</time>
      </trkpt>
      <trkpt lat="48.606289" lon="16.773695">
        <ele>213.798769</ele>
        <time>2020-08-26T10:45:57.363Z</time>
      </trkpt>
      <trkpt lat="48.606163" lon="16.773701">
        <ele>213.792702</ele>
        <time>2020-08-26T10:46:00.349Z</time>
      </trkpt>
      <trkpt lat="48.606053" lon="16.773715">
        <ele>213.787389</ele>
        <time>2020-08-26T10:46:03.379Z</time>
      </trkpt>
      <trkpt lat="48.605958" lon="16.773726">
        <ele>213.782804</ele>
        <time>2020-08-26T10:46:06.364Z</time>
      </trkpt>
      <trkpt lat="48.605846" lon="16.773773">
        <ele>213.777210</ele>
        <time>2020-08-26T10:46:10.392Z</time>
      </trkpt>
      <trkpt lat="48.605752" lon="16.773848">
        <ele>213.772095</ele>
        <time>2020-08-26T10:46:13.371Z</time>
      </trkpt>
      <trkpt lat="48.605641" lon="16.773959">
        <ele>213.765690</ele>
        <time>2020-08-26T10:46:16.409Z</time>
      </trkpt>
      <trkpt lat="48.605537" lon="16.774075">
        <ele>213.759471</ele>
        <time>2020-08-26T10:46:19.368Z</time>
      </trkpt>
      <trkpt lat="48.605411" lon="16.774071">
        <ele>213.753406</ele>
        <time>2020-08-26T10:46:22.365Z</time>
      </trkpt>
      <trkpt lat="48.605330" lon="16.773997">
        <ele>213.748851</ele>
        <time>2020-08-26T10:46:25.376Z</time>
      </trkpt>
      <trkpt lat="48.605291" lon="16.773857">
        <ele>213.744016</ele>
        <time>2020-08-26T10:46:30.360Z</time>
      </trkpt>
      <trkpt lat="48.605317" lon="16.773701">
        <ele>213.738897</ele>
        <time>2020-08-26T10:46:34.361Z</time>
      </trkpt>
      <trkpt lat="48.605339" lon="16.773563">
        <ele>213.736240</ele>
        <time>2020-08-26T10:46:38.365Z</time>
      </trkpt>
      <trkpt lat="48.605353" lon="16.773423">
        <ele>213.794219</ele>
        <time>2020-08-26T10:46:41.366Z</time>
      </trkpt>
      <trkpt lat="48.605373" lon="16.773277">
        <ele>213.855272</ele>
        <time>2020-08-26T10:46:44.372Z</time>
      </trkpt>
      <trkpt lat="48.605398" lon="16.773132">
        <ele>213.916631</ele>
        <time>2020-08-26T10:46:47.366Z</time>
      </trkpt>
      <trkpt lat="48.605412" lon="16.772966">
        <ele>213.985155</ele>
        <time>2020-08-26T10:46:50.392Z</time>
      </trkpt>
      <trkpt lat="48.605431" lon="16.772799">
        <ele>214.054543</ele>
        <time>2020-08-26T10:46:53.384Z</time>
      </trkpt>
      <trkpt lat="48.605455" lon="16.772631">
        <ele>214.124922</ele>
        <time>2020-08-26T10:46:56.377Z</time>
      </trkpt>
      <trkpt lat="48.605483" lon="16.772458">
        <ele>214.197853</ele>
        <time>2020-08-26T10:46:59.379Z</time>
      </trkpt>
      <trkpt lat="48.605508" lon="16.772271">
        <ele>214.275975</ele>
        <time>2020-08-26T10:47:02.366Z</time>
      </trkpt>
      <trkpt lat="48.605541" lon="16.772107">
        <ele>214.346169</ele>
        <time>2020-08-26T10:47:05.386Z</time>
      </trkpt>
      <trkpt lat="48.605569" lon="16.771963">
        <ele>214.407630</ele>
        <time>2020-08-26T10:47:08.361Z</time>
      </trkpt>
      <trkpt lat="48.605596" lon="16.771826">
        <ele>214.466167</ele>
        <time>2020-08-26T10:47:11.388Z</time>
      </trkpt>
      <trkpt lat="48.605627" lon="16.771681">
        <ele>214.528568</ele>
        <time>2020-08-26T10:47:14.379Z</time>
      </trkpt>
      <trkpt lat="48.605648" lon="16.771534">
        <ele>214.590149</ele>
        <time>2020-08-26T10:47:17.363Z</time>
      </trkpt>
      <trkpt lat="48.605666" lon="16.771389">
        <ele>214.650561</ele>
        <time>2020-08-26T10:47:20.348Z</time>
      </trkpt>
      <trkpt lat="48.605688" lon="16.771233">
        <ele>214.715875</ele>
        <time>2020-08-26T10:47:23.368Z</time>
      </trkpt>
      <trkpt lat="48.605701" lon="16.771072">
        <ele>214.782291</ele>
        <time>2020-08-26T10:47:26.362Z</time>
      </trkpt>
      <trkpt lat="48.605700" lon="16.770899">
        <ele>214.853155</ele>
        <time>2020-08-26T10:47:29.373Z</time>
      </trkpt>
      <trkpt lat="48.605697" lon="16.770732">
        <ele>214.921881</ele>
        <time>2020-08-26T10:47:32.355Z</time>
      </trkpt>
      <trkpt lat="48.605691" lon="16.770565">
        <ele>214.990684</ele>
        <time>2020-08-26T10:47:35.373Z</time>
      </trkpt>
      <trkpt lat="48.605679" lon="16.770397">
        <ele>215.060198</ele>
        <time>2020-08-26T10:47:38.395Z</time>
      </trkpt>
      <trkpt lat="48.605669" lon="16.770225">
        <ele>215.131229</ele>
        <time>2020-08-26T10:47:41.353Z</time>
      </trkpt>
      <trkpt lat="48.605665" lon="16.770056">
        <ele>215.200797</ele>
        <time>2020-08-26T10:47:44.380Z</time>
      </trkpt>
      <trkpt lat="48.605655" lon="16.769887">
        <ele>215.270598</ele>
        <time>2020-08-26T10:47:47.368Z</time>
      </trkpt>
      <trkpt lat="48.605641" lon="16.769725">
        <ele>215.337809</ele>
        <time>2020-08-26T10:47:50.390Z</time>
      </trkpt>
      <trkpt lat="48.605630" lon="16.769560">
        <ele>215.406032</ele>
        <time>2020-08-26T10:47:53.369Z</time>
      </trkpt>
      <trkpt lat="48.605626" lon="16.769391">
        <ele>215.475600</ele>
        <time>2020-08-26T10:47:56.374Z</time>
      </trkpt>
      <trkpt lat="48.605619" lon="16.769220">
        <ele>215.546081</ele>
        <time>2020-08-26T10:47:59.368Z</time>
      </trkpt>
      <trkpt lat="48.605609" lon="16.769049">
        <ele>215.616702</ele>
        <time>2020-08-26T10:48:02.362Z</time>
      </trkpt>
      <trkpt lat="48.605597" lon="16.768876">
        <ele>215.688262</ele>
        <time>2020-08-26T10:48:05.369Z</time>
      </trkpt>
      <trkpt lat="48.605596" lon="16.768692">
        <ele>215.763959</ele>
        <time>2020-08-26T10:48:08.365Z</time>
      </trkpt>
      <trkpt lat="48.605593" lon="16.768501">
        <ele>215.842555</ele>
        <time>2020-08-26T10:48:11.375Z</time>
      </trkpt>
      <trkpt lat="48.605589" lon="16.768307">
        <ele>215.922403</ele>
        <time>2020-08-26T10:48:14.372Z</time>
      </trkpt>
      <trkpt lat="48.605598" lon="16.768117">
        <ele>215.979265</ele>
        <time>2020-08-26T10:48:17.397Z</time>
      </trkpt>
      <trkpt lat="48.605619" lon="16.767924">
        <ele>216.007965</ele>
        <time>2020-08-26T10:48:20.384Z</time>
      </trkpt>
      <trkpt lat="48.605635" lon="16.767784">
        <ele>216.028812</ele>
        <time>2020-08-26T10:48:22.371Z</time>
      </trkpt>
      <trkpt lat="48.605663" lon="16.767641">
        <ele>216.050696</ele>
        <time>2020-08-26T10:48:24.355Z</time>
      </trkpt>
      <trkpt lat="48.605704" lon="16.767503">
        <ele>216.072895</ele>
        <time>2020-08-26T10:48:26.388Z</time>
      </trkpt>
      <trkpt lat="48.605754" lon="16.767356">
        <ele>216.097151</ele>
        <time>2020-08-26T10:48:28.348Z</time>
      </trkpt>
      <trkpt lat="48.605819" lon="16.767220">
        <ele>216.121774</ele>
        <time>2020-08-26T10:48:30.378Z</time>
      </trkpt>
      <trkpt lat="48.605886" lon="16.767082">
        <ele>216.146895</ele>
        <time>2020-08-26T10:48:32.384Z</time>
      </trkpt>
      <trkpt lat="48.605937" lon="16.766927">
        <ele>216.172298</ele>
        <time>2020-08-26T10:48:34.381Z</time>
      </trkpt>
      <trkpt lat="48.605964" lon="16.766757">
        <ele>216.197952</ele>
        <time>2020-08-26T10:48:36.359Z</time>
      </trkpt>
      <trkpt lat="48.605975" lon="16.766583">
        <ele>216.223600</ele>
        <time>2020-08-26T10:48:38.367Z</time>
      </trkpt>
      <trkpt lat="48.605985" lon="16.766409">
        <ele>216.249228</ele>
        <time>2020-08-26T10:48:40.396Z</time>
      </trkpt>
      <trkpt lat="48.605990" lon="16.766245">
        <ele>216.273317</ele>
        <time>2020-08-26T10:48:42.370Z</time>
      </trkpt>
      <trkpt lat="48.605989" lon="16.766082">
        <ele>216.297236</ele>
        <time>2020-08-26T10:48:44.366Z</time>
      </trkpt>
      <trkpt lat="48.605997" lon="16.765921">
        <ele>216.320926</ele>
        <time>2020-08-26T10:48:46.359Z</time>
      </trkpt>
      <trkpt lat="48.606006" lon="16.765759">
        <ele>216.344780</ele>
        <time>2020-08-26T10:48:48.369Z</time>
      </trkpt>
      <trkpt lat="48.606017" lon="16.765611">
        <ele>216.366640</ele>
        <time>2020-08-26T10:48:50.381Z</time>
      </trkpt>
      <trkpt lat="48.606022" lon="16.765464">
        <ele>216.389125</ele>
        <time>2020-08-26T10:48:52.355Z</time>
      </trkpt>
      <trkpt lat="48.606030" lon="16.765313">
        <ele>216.412265</ele>
        <time>2020-08-26T10:48:54.380Z</time>
      </trkpt>
      <trkpt lat="48.606037" lon="16.765160">
        <ele>216.435692</ele>
        <time>2020-08-26T10:48:56.391Z</time>
      </trkpt>
      <trkpt lat="48.606042" lon="16.765014">
        <ele>216.458024</ele>
        <time>2020-08-26T10:48:58.371Z</time>
      </trkpt>
      <trkpt lat="48.606054" lon="16.764863">
        <ele>216.481256</ele>
        <time>2020-08-26T10:49:00.360Z</time>
      </trkpt>
      <trkpt lat="48.606063" lon="16.764710">
        <ele>216.504720</ele>
        <time>2020-08-26T10:49:02.391Z</time>
      </trkpt>
      <trkpt lat="48.606068" lon="16.764559">
        <ele>216.527815</ele>
        <time>2020-08-26T10:49:04.359Z</time>
      </trkpt>
      <trkpt lat="48.606074" lon="16.764407">
        <ele>216.551075</ele>
        <time>2020-08-26T10:49:06.368Z</time>
      </trkpt>
      <trkpt lat="48.606071" lon="16.764254">
        <ele>216.574456</ele>
        <time>2020-08-26T10:49:08.369Z</time>
      </trkpt>
      <trkpt lat="48.606071" lon="16.764098">
        <ele>216.598286</ele>
        <time>2020-08-26T10:49:10.391Z</time>
      </trkpt>
      <trkpt lat="48.606073" lon="16.763950">
        <ele>216.620898</ele>
        <time>2020-08-26T10:49:12.388Z</time>
      </trkpt>
      <trkpt lat="48.606074" lon="16.763811">
        <ele>216.642133</ele>
        <time>2020-08-26T10:49:14.376Z</time>
      </trkpt>
      <trkpt lat="48.606080" lon="16.763614">
        <ele>216.672257</ele>
        <time>2020-08-26T10:49:17.379Z</time>
      </trkpt>
      <trkpt lat="48.606084" lon="16.763425">
        <ele>216.701143</ele>
        <time>2020-08-26T10:49:20.382Z</time>
      </trkpt>
      <trkpt lat="48.606091" lon="16.763239">
        <ele>216.729601</ele>
        <time>2020-08-26T10:49:23.372Z</time>
      </trkpt>
      <trkpt lat="48.606094" lon="16.763050">
        <ele>216.758480</ele>
        <time>2020-08-26T10:49:26.367Z</time>
      </trkpt>
      <trkpt lat="48.606102" lon="16.762868">
        <ele>216.786714</ele>
        <time>2020-08-26T10:49:29.360Z</time>
      </trkpt>
      <trkpt lat="48.606103" lon="16.762683">
        <ele>216.817386</ele>
        <time>2020-08-26T10:49:32.350Z</time>
      </trkpt>
      <trkpt lat="48.606112" lon="16.762500">
        <ele>216.847809</ele>
        <time>2020-08-26T10:49:35.370Z</time>
      </trkpt>
      <trkpt lat="48.606121" lon="16.762297">
        <ele>216.881540</ele>
        <time>2020-08-26T10:49:38.366Z</time>
      </trkpt>
      <trkpt lat="48.606125" lon="16.762160">
        <ele>216.904275</ele>
        <time>2020-08-26T10:49:40.374Z</time>
      </trkpt>
      <trkpt lat="48.606124" lon="16.762023">
        <ele>216.926989</ele>
        <time>2020-08-26T10:49:42.371Z</time>
      </trkpt>
      <trkpt lat="48.606120" lon="16.761814">
        <ele>216.961654</ele>
        <time>2020-08-26T10:49:45.399Z</time>
      </trkpt>
      <trkpt lat="48.606125" lon="16.761669">
        <ele>216.985726</ele>
        <time>2020-08-26T10:49:47.368Z</time>
      </trkpt>
      <trkpt lat="48.606132" lon="16.761526">
        <ele>217.009498</ele>
        <time>2020-08-26T10:49:49.371Z</time>
      </trkpt>
      <trkpt lat="48.606135" lon="16.761379">
        <ele>217.033881</ele>
        <time>2020-08-26T10:49:51.403Z</time>
      </trkpt>
      <trkpt lat="48.606138" lon="16.761232">
        <ele>217.058263</ele>
        <time>2020-08-26T10:49:53.367Z</time>
      </trkpt>
      <trkpt lat="48.606154" lon="16.761082">
        <ele>217.083453</ele>
        <time>2020-08-26T10:49:55.358Z</time>
      </trkpt>
      <trkpt lat="48.606175" lon="16.760934">
        <ele>217.108548</ele>
        <time>2020-08-26T10:49:57.372Z</time>
      </trkpt>
      <trkpt lat="48.606202" lon="16.760788">
        <ele>217.133682</ele>
        <time>2020-08-26T10:49:59.368Z</time>
      </trkpt>
      <trkpt lat="48.606231" lon="16.760642">
        <ele>217.158956</ele>
        <time>2020-08-26T10:50:01.377Z</time>
      </trkpt>
      <trkpt lat="48.606271" lon="16.760502">
        <ele>217.184240</ele>
        <time>2020-08-26T10:50:03.362Z</time>
      </trkpt>
      <trkpt lat="48.606314" lon="16.760372">
        <ele>217.208339</ele>
        <time>2020-08-26T10:50:05.356Z</time>
      </trkpt>
      <trkpt lat="48.606358" lon="16.760244">
        <ele>217.232256</ele>
        <time>2020-08-26T10:50:07.357Z</time>
      </trkpt>
      <trkpt lat="48.606415" lon="16.760127">
        <ele>217.248935</ele>
        <time>2020-08-26T10:50:09.356Z</time>
      </trkpt>
      <trkpt lat="48.606472" lon="16.760011">
        <ele>217.265302</ele>
        <time>2020-08-26T10:50:11.376Z</time>
      </trkpt>
      <trkpt lat="48.606529" lon="16.759896">
        <ele>217.281578</ele>
        <time>2020-08-26T10:50:13.368Z</time>
      </trkpt>
      <trkpt lat="48.606586" lon="16.759789">
        <ele>217.297138</ele>
        <time>2020-08-26T10:50:15.393Z</time>
      </trkpt>
      <trkpt lat="48.606641" lon="16.759676">
        <ele>217.313027</ele>
        <time>2020-08-26T10:50:17.365Z</time>
      </trkpt>
      <trkpt lat="48.606695" lon="16.759565">
        <ele>217.328633</ele>
        <time>2020-08-26T10:50:19.359Z</time>
      </trkpt>
      <trkpt lat="48.606754" lon="16.759459">
        <ele>217.344323</ele>
        <time>2020-08-26T10:50:21.359Z</time>
      </trkpt>
      <trkpt lat="48.606822" lon="16.759349">
        <ele>217.361376</ele>
        <time>2020-08-26T10:50:23.374Z</time>
      </trkpt>
      <trkpt lat="48.606893" lon="16.759243">
        <ele>217.378463</ele>
        <time>2020-08-26T10:50:25.359Z</time>
      </trkpt>
      <trkpt lat="48.606962" lon="16.759138">
        <ele>217.395227</ele>
        <time>2020-08-26T10:50:27.382Z</time>
      </trkpt>
      <trkpt lat="48.607041" lon="16.759028">
        <ele>217.413617</ele>
        <time>2020-08-26T10:50:29.368Z</time>
      </trkpt>
      <trkpt lat="48.607127" lon="16.758923">
        <ele>217.432547</ele>
        <time>2020-08-26T10:50:31.370Z</time>
      </trkpt>
      <trkpt lat="48.607218" lon="16.758821">
        <ele>217.451945</ele>
        <time>2020-08-26T10:50:33.359Z</time>
      </trkpt>
      <trkpt lat="48.607308" lon="16.758716">
        <ele>217.471412</ele>
        <time>2020-08-26T10:50:35.361Z</time>
      </trkpt>
      <trkpt lat="48.607403" lon="16.758619">
        <ele>217.491043</ele>
        <time>2020-08-26T10:50:37.373Z</time>
      </trkpt>
      <trkpt lat="48.607497" lon="16.758541">
        <ele>217.509406</ele>
        <time>2020-08-26T10:50:39.372Z</time>
      </trkpt>
      <trkpt lat="48.607583" lon="16.758469">
        <ele>217.526241</ele>
        <time>2020-08-26T10:50:41.372Z</time>
      </trkpt>
      <trkpt lat="48.607679" lon="16.758397">
        <ele>217.542417</ele>
        <time>2020-08-26T10:50:43.370Z</time>
      </trkpt>
      <trkpt lat="48.607778" lon="16.758335">
        <ele>217.549664</ele>
        <time>2020-08-26T10:50:45.379Z</time>
      </trkpt>
      <trkpt lat="48.607906" lon="16.758257">
        <ele>217.558997</ele>
        <time>2020-08-26T10:50:48.378Z</time>
      </trkpt>
      <trkpt lat="48.608018" lon="16.758173">
        <ele>217.567452</ele>
        <time>2020-08-26T10:50:51.356Z</time>
      </trkpt>
      <trkpt lat="48.608133" lon="16.758090">
        <ele>217.576070</ele>
        <time>2020-08-26T10:50:54.388Z</time>
      </trkpt>
      <trkpt lat="48.608252" lon="16.758024">
        <ele>217.584642</ele>
        <time>2020-08-26T10:50:57.390Z</time>
      </trkpt>
      <trkpt lat="48.608343" lon="16.757983">
        <ele>217.591064</ele>
        <time>2020-08-26T10:50:59.367Z</time>
      </trkpt>
      <trkpt lat="48.608443" lon="16.757919">
        <ele>217.598408</ele>
        <time>2020-08-26T10:51:01.365Z</time>
      </trkpt>
      <trkpt lat="48.608541" lon="16.757884">
        <ele>217.605218</ele>
        <time>2020-08-26T10:51:03.369Z</time>
      </trkpt>
      <trkpt lat="48.608643" lon="16.757858">
        <ele>217.612214</ele>
        <time>2020-08-26T10:51:05.403Z</time>
      </trkpt>
      <trkpt lat="48.608746" lon="16.757822">
        <ele>217.619364</ele>
        <time>2020-08-26T10:51:07.377Z</time>
      </trkpt>
      <trkpt lat="48.608857" lon="16.757786">
        <ele>217.627041</ele>
        <time>2020-08-26T10:51:09.352Z</time>
      </trkpt>
      <trkpt lat="48.608974" lon="16.757752">
        <ele>217.635099</ele>
        <time>2020-08-26T10:51:11.365Z</time>
      </trkpt>
      <trkpt lat="48.609096" lon="16.757718">
        <ele>217.643489</ele>
        <time>2020-08-26T10:51:13.360Z</time>
      </trkpt>
      <trkpt lat="48.609210" lon="16.757682">
        <ele>217.651365</ele>
        <time>2020-08-26T10:51:15.364Z</time>
      </trkpt>
      <trkpt lat="48.609319" lon="16.757639">
        <ele>217.658984</ele>
        <time>2020-08-26T10:51:17.369Z</time>
      </trkpt>
      <trkpt lat="48.609429" lon="16.757596">
        <ele>217.668677</ele>
        <time>2020-08-26T10:51:19.364Z</time>
      </trkpt>
      <trkpt lat="48.609542" lon="16.757563">
        <ele>217.680345</ele>
        <time>2020-08-26T10:51:21.394Z</time>
      </trkpt>
      <trkpt lat="48.609653" lon="16.757537">
        <ele>217.691733</ele>
        <time>2020-08-26T10:51:23.373Z</time>
      </trkpt>
      <trkpt lat="48.609760" lon="16.757525">
        <ele>217.702611</ele>
        <time>2020-08-26T10:51:25.368Z</time>
      </trkpt>
      <trkpt lat="48.609855" lon="16.757510">
        <ele>217.712296</ele>
        <time>2020-08-26T10:51:27.391Z</time>
      </trkpt>
      <trkpt lat="48.609956" lon="16.757482">
        <ele>217.722706</ele>
        <time>2020-08-26T10:51:29.368Z</time>
      </trkpt>
      <trkpt lat="48.610056" lon="16.757447">
        <ele>217.733113</ele>
        <time>2020-08-26T10:51:31.379Z</time>
      </trkpt>
      <trkpt lat="48.610160" lon="16.757398">
        <ele>217.744157</ele>
        <time>2020-08-26T10:51:33.359Z</time>
      </trkpt>
      <trkpt lat="48.610257" lon="16.757354">
        <ele>217.754424</ele>
        <time>2020-08-26T10:51:35.359Z</time>
      </trkpt>
      <trkpt lat="48.610352" lon="16.757298">
        <ele>217.764762</ele>
        <time>2020-08-26T10:51:37.371Z</time>
      </trkpt>
      <trkpt lat="48.610445" lon="16.757238">
        <ele>217.775013</ele>
        <time>2020-08-26T10:51:39.362Z</time>
      </trkpt>
      <trkpt lat="48.610539" lon="16.757175">
        <ele>217.785437</ele>
        <time>2020-08-26T10:51:41.364Z</time>
      </trkpt>
      <trkpt lat="48.610631" lon="16.757113">
        <ele>217.795649</ele>
        <time>2020-08-26T10:51:43.365Z</time>
      </trkpt>
      <trkpt lat="48.610735" lon="16.757047">
        <ele>217.807084</ele>
        <time>2020-08-26T10:51:45.364Z</time>
      </trkpt>
      <trkpt lat="48.610841" lon="16.756988">
        <ele>217.818535</ele>
        <time>2020-08-26T10:51:47.373Z</time>
      </trkpt>
      <trkpt lat="48.610950" lon="16.756927">
        <ele>217.830319</ele>
        <time>2020-08-26T10:51:49.375Z</time>
      </trkpt>
      <trkpt lat="48.611056" lon="16.756869">
        <ele>217.841748</ele>
        <time>2020-08-26T10:51:51.369Z</time>
      </trkpt>
      <trkpt lat="48.611166" lon="16.756813">
        <ele>217.853024</ele>
        <time>2020-08-26T10:51:53.373Z</time>
      </trkpt>
      <trkpt lat="48.611274" lon="16.756757">
        <ele>217.863932</ele>
        <time>2020-08-26T10:51:55.383Z</time>
      </trkpt>
      <trkpt lat="48.611374" lon="16.756695">
        <ele>217.874257</ele>
        <time>2020-08-26T10:51:57.371Z</time>
      </trkpt>
      <trkpt lat="48.611457" lon="16.756614">
        <ele>217.883694</ele>
        <time>2020-08-26T10:51:59.369Z</time>
      </trkpt>
      <trkpt lat="48.611531" lon="16.756508">
        <ele>217.893431</ele>
        <time>2020-08-26T10:52:01.386Z</time>
      </trkpt>
      <trkpt lat="48.611591" lon="16.756392">
        <ele>217.902734</ele>
        <time>2020-08-26T10:52:03.370Z</time>
      </trkpt>
      <trkpt lat="48.611644" lon="16.756271">
        <ele>217.911903</ele>
        <time>2020-08-26T10:52:05.378Z</time>
      </trkpt>
      <trkpt lat="48.611691" lon="16.756149">
        <ele>217.920822</ele>
        <time>2020-08-26T10:52:07.367Z</time>
      </trkpt>
      <trkpt lat="48.611739" lon="16.756019">
        <ele>217.930227</ele>
        <time>2020-08-26T10:52:09.362Z</time>
      </trkpt>
      <trkpt lat="48.611785" lon="16.755893">
        <ele>217.939319</ele>
        <time>2020-08-26T10:52:11.382Z</time>
      </trkpt>
      <trkpt lat="48.611836" lon="16.755779">
        <ele>217.948013</ele>
        <time>2020-08-26T10:52:13.367Z</time>
      </trkpt>
      <trkpt lat="48.611919" lon="16.755632">
        <ele>217.960224</ele>
        <time>2020-08-26T10:52:16.389Z</time>
      </trkpt>
      <trkpt lat="48.612013" lon="16.755538">
        <ele>217.970990</ele>
        <time>2020-08-26T10:52:19.390Z</time>
      </trkpt>
      <trkpt lat="48.612094" lon="16.755657">
        <ele>217.981778</ele>
        <time>2020-08-26T10:52:22.363Z</time>
      </trkpt>
      <trkpt lat="48.612126" lon="16.755785">
        <ele>217.990422</ele>
        <time>2020-08-26T10:52:24.363Z</time>
      </trkpt>
      <trkpt lat="48.612169" lon="16.755915">
        <ele>217.999604</ele>
        <time>2020-08-26T10:52:26.395Z</time>
      </trkpt>
      <trkpt lat="48.612219" lon="16.756050">
        <ele>218.009378</ele>
        <time>2020-08-26T10:52:28.369Z</time>
      </trkpt>
      <trkpt lat="48.612277" lon="16.756187">
        <ele>218.017226</ele>
        <time>2020-08-26T10:52:30.359Z</time>
      </trkpt>
      <trkpt lat="48.612332" lon="16.756336">
        <ele>218.018698</ele>
        <time>2020-08-26T10:52:32.369Z</time>
      </trkpt>
      <trkpt lat="48.612386" lon="16.756493">
        <ele>218.020224</ele>
        <time>2020-08-26T10:52:34.401Z</time>
      </trkpt>
      <trkpt lat="48.612440" lon="16.756652">
        <ele>218.021766</ele>
        <time>2020-08-26T10:52:36.356Z</time>
      </trkpt>
      <trkpt lat="48.612495" lon="16.756810">
        <ele>218.023306</ele>
        <time>2020-08-26T10:52:38.373Z</time>
      </trkpt>
      <trkpt lat="48.612549" lon="16.756966">
        <ele>218.024824</ele>
        <time>2020-08-26T10:52:40.356Z</time>
      </trkpt>
      <trkpt lat="48.612604" lon="16.757115">
        <ele>218.026296</ele>
        <time>2020-08-26T10:52:42.389Z</time>
      </trkpt>
      <trkpt lat="48.612659" lon="16.757258">
        <ele>218.027723</ele>
        <time>2020-08-26T10:52:44.384Z</time>
      </trkpt>
      <trkpt lat="48.612711" lon="16.757402">
        <ele>218.029138</ele>
        <time>2020-08-26T10:52:46.369Z</time>
      </trkpt>
      <trkpt lat="48.612763" lon="16.757544">
        <ele>218.030538</ele>
        <time>2020-08-26T10:52:48.368Z</time>
      </trkpt>
      <trkpt lat="48.612817" lon="16.757693">
        <ele>218.032003</ele>
        <time>2020-08-26T10:52:50.371Z</time>
      </trkpt>
      <trkpt lat="48.612866" lon="16.757842">
        <ele>218.033439</ele>
        <time>2020-08-26T10:52:52.396Z</time>
      </trkpt>
      <trkpt lat="48.612924" lon="16.757983">
        <ele>218.034871</ele>
        <time>2020-08-26T10:52:54.370Z</time>
      </trkpt>
      <trkpt lat="48.613011" lon="16.758047">
        <ele>218.036133</ele>
        <time>2020-08-26T10:52:56.359Z</time>
      </trkpt>
      <trkpt lat="48.613115" lon="16.757991">
        <ele>218.037573</ele>
        <time>2020-08-26T10:52:58.370Z</time>
      </trkpt>
      <trkpt lat="48.613215" lon="16.757899">
        <ele>218.039099</ele>
        <time>2020-08-26T10:53:00.358Z</time>
      </trkpt>
      <trkpt lat="48.613317" lon="16.757818">
        <ele>218.043232</ele>
        <time>2020-08-26T10:53:02.369Z</time>
      </trkpt>
      <trkpt lat="48.613416" lon="16.757726">
        <ele>218.058134</ele>
        <time>2020-08-26T10:53:04.362Z</time>
      </trkpt>
      <trkpt lat="48.613517" lon="16.757648">
        <ele>218.072679</ele>
        <time>2020-08-26T10:53:06.362Z</time>
      </trkpt>
      <trkpt lat="48.613619" lon="16.757568">
        <ele>218.087415</ele>
        <time>2020-08-26T10:53:08.366Z</time>
      </trkpt>
      <trkpt lat="48.613713" lon="16.757471">
        <ele>218.102009</ele>
        <time>2020-08-26T10:53:10.357Z</time>
      </trkpt>
      <trkpt lat="48.613807" lon="16.757398">
        <ele>218.115561</ele>
        <time>2020-08-26T10:53:12.369Z</time>
      </trkpt>
      <trkpt lat="48.613898" lon="16.757326">
        <ele>218.128733</ele>
        <time>2020-08-26T10:53:14.381Z</time>
      </trkpt>
      <trkpt lat="48.613992" lon="16.757239">
        <ele>218.142867</ele>
        <time>2020-08-26T10:53:16.370Z</time>
      </trkpt>
      <trkpt lat="48.614080" lon="16.757160">
        <ele>218.155992</ele>
        <time>2020-08-26T10:53:18.372Z</time>
      </trkpt>
      <trkpt lat="48.614167" lon="16.757076">
        <ele>218.169229</ele>
        <time>2020-08-26T10:53:20.363Z</time>
      </trkpt>
      <trkpt lat="48.614257" lon="16.757003">
        <ele>218.182327</ele>
        <time>2020-08-26T10:53:22.393Z</time>
      </trkpt>
      <trkpt lat="48.614349" lon="16.756931">
        <ele>218.195613</ele>
        <time>2020-08-26T10:53:24.390Z</time>
      </trkpt>
      <trkpt lat="48.614436" lon="16.756856">
        <ele>218.208456</ele>
        <time>2020-08-26T10:53:26.388Z</time>
      </trkpt>
      <trkpt lat="48.614526" lon="16.756779">
        <ele>218.221717</ele>
        <time>2020-08-26T10:53:28.386Z</time>
      </trkpt>
      <trkpt lat="48.614618" lon="16.756699">
        <ele>218.235328</ele>
        <time>2020-08-26T10:53:30.369Z</time>
      </trkpt>
      <trkpt lat="48.614705" lon="16.756624">
        <ele>218.248171</ele>
        <time>2020-08-26T10:53:32.388Z</time>
      </trkpt>
      <trkpt lat="48.614792" lon="16.756546">
        <ele>218.261142</ele>
        <time>2020-08-26T10:53:34.370Z</time>
      </trkpt>
      <trkpt lat="48.614884" lon="16.756476">
        <ele>218.274087</ele>
        <time>2020-08-26T10:53:36.382Z</time>
      </trkpt>
      <trkpt lat="48.614977" lon="16.756408">
        <ele>218.286295</ele>
        <time>2020-08-26T10:53:38.362Z</time>
      </trkpt>
      <trkpt lat="48.615068" lon="16.756334">
        <ele>218.298507</ele>
        <time>2020-08-26T10:53:40.361Z</time>
      </trkpt>
      <trkpt lat="48.615160" lon="16.756252">
        <ele>218.311128</ele>
        <time>2020-08-26T10:53:42.364Z</time>
      </trkpt>
      <trkpt lat="48.615249" lon="16.756171">
        <ele>218.323404</ele>
        <time>2020-08-26T10:53:44.385Z</time>
      </trkpt>
      <trkpt lat="48.615337" lon="16.756094">
        <ele>218.335420</ele>
        <time>2020-08-26T10:53:46.396Z</time>
      </trkpt>
      <trkpt lat="48.615429" lon="16.756026">
        <ele>218.347522</ele>
        <time>2020-08-26T10:53:48.358Z</time>
      </trkpt>
      <trkpt lat="48.615523" lon="16.755950">
        <ele>218.360120</ele>
        <time>2020-08-26T10:53:50.353Z</time>
      </trkpt>
      <trkpt lat="48.615619" lon="16.755868">
        <ele>218.373150</ele>
        <time>2020-08-26T10:53:52.361Z</time>
      </trkpt>
      <trkpt lat="48.615713" lon="16.755786">
        <ele>218.385975</ele>
        <time>2020-08-26T10:53:54.367Z</time>
      </trkpt>
      <trkpt lat="48.615804" lon="16.755702">
        <ele>218.398575</ele>
        <time>2020-08-26T10:53:56.383Z</time>
      </trkpt>
      <trkpt lat="48.615897" lon="16.755621">
        <ele>218.411259</ele>
        <time>2020-08-26T10:53:58.375Z</time>
      </trkpt>
      <trkpt lat="48.615992" lon="16.755544">
        <ele>218.423998</ele>
        <time>2020-08-26T10:54:00.359Z</time>
      </trkpt>
      <trkpt lat="48.616089" lon="16.755472">
        <ele>218.436768</ele>
        <time>2020-08-26T10:54:02.373Z</time>
      </trkpt>
      <trkpt lat="48.616177" lon="16.755403">
        <ele>218.448484</ele>
        <time>2020-08-26T10:54:04.360Z</time>
      </trkpt>
      <trkpt lat="48.616266" lon="16.755326">
        <ele>218.460602</ele>
        <time>2020-08-26T10:54:06.370Z</time>
      </trkpt>
      <trkpt lat="48.616353" lon="16.755247">
        <ele>218.472595</ele>
        <time>2020-08-26T10:54:08.386Z</time>
      </trkpt>
      <trkpt lat="48.616437" lon="16.755170">
        <ele>218.483284</ele>
        <time>2020-08-26T10:54:10.365Z</time>
      </trkpt>
      <trkpt lat="48.616519" lon="16.755090">
        <ele>218.477934</ele>
        <time>2020-08-26T10:54:12.356Z</time>
      </trkpt>
      <trkpt lat="48.616602" lon="16.755017">
        <ele>218.472670</ele>
        <time>2020-08-26T10:54:14.374Z</time>
      </trkpt>
      <trkpt lat="48.616683" lon="16.754948">
        <ele>218.467574</ele>
        <time>2020-08-26T10:54:16.370Z</time>
      </trkpt>
      <trkpt lat="48.616765" lon="16.754879">
        <ele>218.462429</ele>
        <time>2020-08-26T10:54:18.368Z</time>
      </trkpt>
      <trkpt lat="48.616837" lon="16.754788">
        <ele>218.457285</ele>
        <time>2020-08-26T10:54:20.396Z</time>
      </trkpt>
      <trkpt lat="48.616875" lon="16.754612">
        <ele>218.450574</ele>
        <time>2020-08-26T10:54:23.372Z</time>
      </trkpt>
      <trkpt lat="48.616819" lon="16.754448">
        <ele>218.443884</ele>
        <time>2020-08-26T10:54:26.367Z</time>
      </trkpt>
      <trkpt lat="48.616774" lon="16.754279">
        <ele>218.437280</ele>
        <time>2020-08-26T10:54:29.359Z</time>
      </trkpt>
      <trkpt lat="48.616720" lon="16.754108">
        <ele>218.430412</ele>
        <time>2020-08-26T10:54:32.353Z</time>
      </trkpt>
      <trkpt lat="48.616679" lon="16.753936">
        <ele>218.423785</ele>
        <time>2020-08-26T10:54:35.362Z</time>
      </trkpt>
      <trkpt lat="48.616640" lon="16.753792">
        <ele>218.418144</ele>
        <time>2020-08-26T10:54:38.363Z</time>
      </trkpt>
      <trkpt lat="48.616594" lon="16.753591">
        <ele>218.410435</ele>
        <time>2020-08-26T10:55:47.360Z</time>
      </trkpt>
      <trkpt lat="48.616558" lon="16.753453">
        <ele>218.405058</ele>
        <time>2020-08-26T10:55:50.368Z</time>
      </trkpt>
      <trkpt lat="48.616516" lon="16.753319">
        <ele>218.399683</ele>
        <time>2020-08-26T10:55:53.353Z</time>
      </trkpt>
      <trkpt lat="48.616479" lon="16.753181">
        <ele>218.394285</ele>
        <time>2020-08-26T10:55:56.370Z</time>
      </trkpt>
      <trkpt lat="48.616449" lon="16.753042">
        <ele>218.388985</ele>
        <time>2020-08-26T10:55:59.375Z</time>
      </trkpt>
      <trkpt lat="48.616402" lon="16.752902">
        <ele>218.381518</ele>
        <time>2020-08-26T10:56:02.380Z</time>
      </trkpt>
      <trkpt lat="48.616350" lon="16.752749">
        <ele>218.368645</ele>
        <time>2020-08-26T10:56:05.381Z</time>
      </trkpt>
      <trkpt lat="48.616296" lon="16.752592">
        <ele>218.355402</ele>
        <time>2020-08-26T10:56:08.367Z</time>
      </trkpt>
      <trkpt lat="48.616242" lon="16.752432">
        <ele>218.341959</ele>
        <time>2020-08-26T10:56:11.363Z</time>
      </trkpt>
      <trkpt lat="48.616188" lon="16.752250">
        <ele>218.327031</ele>
        <time>2020-08-26T10:56:14.384Z</time>
      </trkpt>
      <trkpt lat="48.616144" lon="16.752124">
        <ele>218.316368</ele>
        <time>2020-08-26T10:56:16.364Z</time>
      </trkpt>
      <trkpt lat="48.616105" lon="16.752000">
        <ele>218.306093</ele>
        <time>2020-08-26T10:56:18.361Z</time>
      </trkpt>
      <trkpt lat="48.616062" lon="16.751872">
        <ele>218.295349</ele>
        <time>2020-08-26T10:56:20.401Z</time>
      </trkpt>
      <trkpt lat="48.616016" lon="16.751753">
        <ele>218.285034</ele>
        <time>2020-08-26T10:56:22.388Z</time>
      </trkpt>
      <trkpt lat="48.615970" lon="16.751629">
        <ele>218.274394</ele>
        <time>2020-08-26T10:56:24.373Z</time>
      </trkpt>
      <trkpt lat="48.615906" lon="16.751456">
        <ele>218.259560</ele>
        <time>2020-08-26T10:56:27.367Z</time>
      </trkpt>
      <trkpt lat="48.615837" lon="16.751285">
        <ele>218.244569</ele>
        <time>2020-08-26T10:56:30.368Z</time>
      </trkpt>
      <trkpt lat="48.615784" lon="16.751169">
        <ele>218.234017</ele>
        <time>2020-08-26T10:56:32.391Z</time>
      </trkpt>
      <trkpt lat="48.615719" lon="16.751054">
        <ele>218.222696</ele>
        <time>2020-08-26T10:56:34.383Z</time>
      </trkpt>
      <trkpt lat="48.615650" lon="16.750935">
        <ele>218.210851</ele>
        <time>2020-08-26T10:56:36.373Z</time>
      </trkpt>
      <trkpt lat="48.615575" lon="16.750814">
        <ele>218.198440</ele>
        <time>2020-08-26T10:56:38.389Z</time>
      </trkpt>
      <trkpt lat="48.615488" lon="16.750711">
        <ele>218.185935</ele>
        <time>2020-08-26T10:56:40.369Z</time>
      </trkpt>
      <trkpt lat="48.615400" lon="16.750606">
        <ele>218.177544</ele>
        <time>2020-08-26T10:56:42.363Z</time>
      </trkpt>
      <trkpt lat="48.615307" lon="16.750514">
        <ele>218.171614</ele>
        <time>2020-08-26T10:56:44.383Z</time>
      </trkpt>
      <trkpt lat="48.615216" lon="16.750427">
        <ele>218.165869</ele>
        <time>2020-08-26T10:56:46.384Z</time>
      </trkpt>
      <trkpt lat="48.615124" lon="16.750362">
        <ele>218.160451</ele>
        <time>2020-08-26T10:56:48.385Z</time>
      </trkpt>
      <trkpt lat="48.615035" lon="16.750309">
        <ele>218.155346</ele>
        <time>2020-08-26T10:56:50.382Z</time>
      </trkpt>
      <trkpt lat="48.614952" lon="16.750258">
        <ele>218.150565</ele>
        <time>2020-08-26T10:56:52.358Z</time>
      </trkpt>
      <trkpt lat="48.614833" lon="16.750197">
        <ele>218.143860</ele>
        <time>2020-08-26T10:56:55.387Z</time>
      </trkpt>
      <trkpt lat="48.614712" lon="16.750129">
        <ele>218.136972</ele>
        <time>2020-08-26T10:56:58.363Z</time>
      </trkpt>
      <trkpt lat="48.614588" lon="16.750060">
        <ele>218.129921</ele>
        <time>2020-08-26T10:57:01.379Z</time>
      </trkpt>
      <trkpt lat="48.614463" lon="16.749988">
        <ele>218.122783</ele>
        <time>2020-08-26T10:57:04.399Z</time>
      </trkpt>
      <trkpt lat="48.614378" lon="16.749941">
        <ele>218.117953</ele>
        <time>2020-08-26T10:57:06.374Z</time>
      </trkpt>
      <trkpt lat="48.614259" lon="16.749847">
        <ele>218.110789</ele>
        <time>2020-08-26T10:57:09.374Z</time>
      </trkpt>
      <trkpt lat="48.614171" lon="16.749787">
        <ele>218.105638</ele>
        <time>2020-08-26T10:57:11.383Z</time>
      </trkpt>
      <trkpt lat="48.614084" lon="16.749716">
        <ele>218.100362</ele>
        <time>2020-08-26T10:57:13.373Z</time>
      </trkpt>
      <trkpt lat="48.613999" lon="16.749642">
        <ele>218.095129</ele>
        <time>2020-08-26T10:57:15.366Z</time>
      </trkpt>
      <trkpt lat="48.613914" lon="16.749576">
        <ele>218.090030</ele>
        <time>2020-08-26T10:57:17.392Z</time>
      </trkpt>
      <trkpt lat="48.613829" lon="16.749506">
        <ele>218.086819</ele>
        <time>2020-08-26T10:57:19.374Z</time>
      </trkpt>
      <trkpt lat="48.613748" lon="16.749442">
        <ele>218.100028</ele>
        <time>2020-08-26T10:57:21.368Z</time>
      </trkpt>
      <trkpt lat="48.613660" lon="16.749388">
        <ele>218.113755</ele>
        <time>2020-08-26T10:57:23.361Z</time>
      </trkpt>
      <trkpt lat="48.613575" lon="16.749329">
        <ele>218.127273</ele>
        <time>2020-08-26T10:57:25.373Z</time>
      </trkpt>
      <trkpt lat="48.613493" lon="16.749261">
        <ele>218.140790</ele>
        <time>2020-08-26T10:57:27.385Z</time>
      </trkpt>
      <trkpt lat="48.613406" lon="16.749209">
        <ele>218.154311</ele>
        <time>2020-08-26T10:57:29.359Z</time>
      </trkpt>
      <trkpt lat="48.613321" lon="16.749152">
        <ele>218.167751</ele>
        <time>2020-08-26T10:57:31.383Z</time>
      </trkpt>
      <trkpt lat="48.613237" lon="16.749101">
        <ele>218.180834</ele>
        <time>2020-08-26T10:57:33.386Z</time>
      </trkpt>
      <trkpt lat="48.613151" lon="16.749047">
        <ele>218.194293</ele>
        <time>2020-08-26T10:57:35.375Z</time>
      </trkpt>
      <trkpt lat="48.613068" lon="16.748990">
        <ele>218.207469</ele>
        <time>2020-08-26T10:57:37.383Z</time>
      </trkpt>
      <trkpt lat="48.612985" lon="16.748937">
        <ele>218.220491</ele>
        <time>2020-08-26T10:57:39.368Z</time>
      </trkpt>
      <trkpt lat="48.612899" lon="16.748892">
        <ele>218.233644</ele>
        <time>2020-08-26T10:57:41.361Z</time>
      </trkpt>
      <trkpt lat="48.612809" lon="16.748843">
        <ele>218.247470</ele>
        <time>2020-08-26T10:57:43.373Z</time>
      </trkpt>
      <trkpt lat="48.612714" lon="16.748802">
        <ele>218.261750</ele>
        <time>2020-08-26T10:57:45.359Z</time>
      </trkpt>
      <trkpt lat="48.612617" lon="16.748759">
        <ele>218.276360</ele>
        <time>2020-08-26T10:57:47.372Z</time>
      </trkpt>
      <trkpt lat="48.612516" lon="16.748711">
        <ele>218.291662</ele>
        <time>2020-08-26T10:57:49.393Z</time>
      </trkpt>
      <trkpt lat="48.612421" lon="16.748665">
        <ele>218.306080</ele>
        <time>2020-08-26T10:57:51.369Z</time>
      </trkpt>
      <trkpt lat="48.612334" lon="16.748615">
        <ele>218.319533</ele>
        <time>2020-08-26T10:57:53.379Z</time>
      </trkpt>
      <trkpt lat="48.612247" lon="16.748568">
        <ele>218.332886</ele>
        <time>2020-08-26T10:57:55.371Z</time>
      </trkpt>
      <trkpt lat="48.612161" lon="16.748524">
        <ele>218.345488</ele>
        <time>2020-08-26T10:57:57.412Z</time>
      </trkpt>
      <trkpt lat="48.612073" lon="16.748480">
        <ele>218.347937</ele>
        <time>2020-08-26T10:57:59.383Z</time>
      </trkpt>
      <trkpt lat="48.611985" lon="16.748438">
        <ele>218.350377</ele>
        <time>2020-08-26T10:58:01.364Z</time>
      </trkpt>
      <trkpt lat="48.611896" lon="16.748391">
        <ele>218.352869</ele>
        <time>2020-08-26T10:58:03.349Z</time>
      </trkpt>
      <trkpt lat="48.611809" lon="16.748352">
        <ele>218.355267</ele>
        <time>2020-08-26T10:58:05.357Z</time>
      </trkpt>
      <trkpt lat="48.611718" lon="16.748306">
        <ele>218.357803</ele>
        <time>2020-08-26T10:58:07.373Z</time>
      </trkpt>
      <trkpt lat="48.611620" lon="16.748256">
        <ele>218.360537</ele>
        <time>2020-08-26T10:58:09.369Z</time>
      </trkpt>
      <trkpt lat="48.611524" lon="16.748203">
        <ele>218.363239</ele>
        <time>2020-08-26T10:58:11.350Z</time>
      </trkpt>
      <trkpt lat="48.611429" lon="16.748144">
        <ele>218.365953</ele>
        <time>2020-08-26T10:58:13.369Z</time>
      </trkpt>
      <trkpt lat="48.611326" lon="16.748105">
        <ele>218.368760</ele>
        <time>2020-08-26T10:58:15.377Z</time>
      </trkpt>
      <trkpt lat="48.611221" lon="16.748085">
        <ele>218.371557</ele>
        <time>2020-08-26T10:58:17.373Z</time>
      </trkpt>
      <trkpt lat="48.611119" lon="16.748133">
        <ele>218.374381</ele>
        <time>2020-08-26T10:58:19.364Z</time>
      </trkpt>
      <trkpt lat="48.611035" lon="16.748214">
        <ele>218.377014</ele>
        <time>2020-08-26T10:58:21.365Z</time>
      </trkpt>
      <trkpt lat="48.610967" lon="16.748314">
        <ele>218.379521</ele>
        <time>2020-08-26T10:58:23.395Z</time>
      </trkpt>
      <trkpt lat="48.610889" lon="16.748424">
        <ele>218.382340</ele>
        <time>2020-08-26T10:58:25.374Z</time>
      </trkpt>
      <trkpt lat="48.610788" lon="16.748476">
        <ele>218.385161</ele>
        <time>2020-08-26T10:58:27.370Z</time>
      </trkpt>
      <trkpt lat="48.610683" lon="16.748457">
        <ele>218.387956</ele>
        <time>2020-08-26T10:58:29.366Z</time>
      </trkpt>
      <trkpt lat="48.610583" lon="16.748440">
        <ele>218.390616</ele>
        <time>2020-08-26T10:58:31.357Z</time>
      </trkpt>
      <trkpt lat="48.610480" lon="16.748426">
        <ele>218.390966</ele>
        <time>2020-08-26T10:58:33.384Z</time>
      </trkpt>
      <trkpt lat="48.610379" lon="16.748391">
        <ele>218.378673</ele>
        <time>2020-08-26T10:58:35.364Z</time>
      </trkpt>
      <trkpt lat="48.610279" lon="16.748376">
        <ele>218.366750</ele>
        <time>2020-08-26T10:58:37.372Z</time>
      </trkpt>
      <trkpt lat="48.610155" lon="16.748319">
        <ele>218.351374</ele>
        <time>2020-08-26T10:58:40.394Z</time>
      </trkpt>
      <trkpt lat="48.610065" lon="16.748248">
        <ele>218.339331</ele>
        <time>2020-08-26T10:58:43.358Z</time>
      </trkpt>
      <trkpt lat="48.609979" lon="16.748176">
        <ele>218.327668</ele>
        <time>2020-08-26T10:58:46.380Z</time>
      </trkpt>
      <trkpt lat="48.609894" lon="16.748100">
        <ele>218.315953</ele>
        <time>2020-08-26T10:58:49.395Z</time>
      </trkpt>
      <trkpt lat="48.609802" lon="16.748026">
        <ele>218.303591</ele>
        <time>2020-08-26T10:58:52.369Z</time>
      </trkpt>
      <trkpt lat="48.609692" lon="16.747957">
        <ele>218.289462</ele>
        <time>2020-08-26T10:58:55.371Z</time>
      </trkpt>
      <trkpt lat="48.609571" lon="16.747886">
        <ele>218.274064</ele>
        <time>2020-08-26T10:58:58.362Z</time>
      </trkpt>
      <trkpt lat="48.609444" lon="16.747823">
        <ele>218.258206</ele>
        <time>2020-08-26T10:59:01.359Z</time>
      </trkpt>
      <trkpt lat="48.609317" lon="16.747764">
        <ele>218.242444</ele>
        <time>2020-08-26T10:59:04.403Z</time>
      </trkpt>
      <trkpt lat="48.609191" lon="16.747712">
        <ele>218.226948</ele>
        <time>2020-08-26T10:59:07.370Z</time>
      </trkpt>
      <trkpt lat="48.609070" lon="16.747671">
        <ele>218.212236</ele>
        <time>2020-08-26T10:59:10.368Z</time>
      </trkpt>
      <trkpt lat="48.608943" lon="16.747637">
        <ele>218.196935</ele>
        <time>2020-08-26T10:59:13.379Z</time>
      </trkpt>
      <trkpt lat="48.608836" lon="16.747615">
        <ele>218.184123</ele>
        <time>2020-08-26T10:59:16.359Z</time>
      </trkpt>
      <trkpt lat="48.608722" lon="16.747592">
        <ele>218.198822</ele>
        <time>2020-08-26T10:59:19.354Z</time>
      </trkpt>
      <trkpt lat="48.608608" lon="16.747570">
        <ele>218.227935</ele>
        <time>2020-08-26T10:59:22.365Z</time>
      </trkpt>
      <trkpt lat="48.608496" lon="16.747551">
        <ele>218.256485</ele>
        <time>2020-08-26T10:59:25.360Z</time>
      </trkpt>
      <trkpt lat="48.608384" lon="16.747525">
        <ele>218.285190</ele>
        <time>2020-08-26T10:59:28.387Z</time>
      </trkpt>
      <trkpt lat="48.608268" lon="16.747498">
        <ele>218.314921</ele>
        <time>2020-08-26T10:59:31.365Z</time>
      </trkpt>
      <trkpt lat="48.608141" lon="16.747475">
        <ele>218.347323</ele>
        <time>2020-08-26T10:59:34.380Z</time>
      </trkpt>
      <trkpt lat="48.608050" lon="16.747460">
        <ele>218.370511</ele>
        <time>2020-08-26T10:59:36.387Z</time>
      </trkpt>
      <trkpt lat="48.607955" lon="16.747455">
        <ele>218.394592</ele>
        <time>2020-08-26T10:59:38.360Z</time>
      </trkpt>
      <trkpt lat="48.607859" lon="16.747447">
        <ele>218.418947</ele>
        <time>2020-08-26T10:59:40.375Z</time>
      </trkpt>
      <trkpt lat="48.607765" lon="16.747429">
        <ele>218.442950</ele>
        <time>2020-08-26T10:59:42.355Z</time>
      </trkpt>
      <trkpt lat="48.607670" lon="16.747415">
        <ele>218.467129</ele>
        <time>2020-08-26T10:59:44.371Z</time>
      </trkpt>
      <trkpt lat="48.607577" lon="16.747404">
        <ele>218.490760</ele>
        <time>2020-08-26T10:59:46.396Z</time>
      </trkpt>
      <trkpt lat="48.607483" lon="16.747395">
        <ele>218.514620</ele>
        <time>2020-08-26T10:59:48.367Z</time>
      </trkpt>
      <trkpt lat="48.607389" lon="16.747374">
        <ele>218.538691</ele>
        <time>2020-08-26T10:59:50.370Z</time>
      </trkpt>
      <trkpt lat="48.607295" lon="16.747357">
        <ele>218.562673</ele>
        <time>2020-08-26T10:59:52.381Z</time>
      </trkpt>
      <trkpt lat="48.607203" lon="16.747333">
        <ele>218.586323</ele>
        <time>2020-08-26T10:59:54.370Z</time>
      </trkpt>
      <trkpt lat="48.607080" lon="16.747263">
        <ele>218.619615</ele>
        <time>2020-08-26T10:59:57.367Z</time>
      </trkpt>
      <trkpt lat="48.606956" lon="16.747202">
        <ele>218.667194</ele>
        <time>2020-08-26T11:00:00.390Z</time>
      </trkpt>
      <trkpt lat="48.606841" lon="16.747124">
        <ele>218.725674</ele>
        <time>2020-08-26T11:00:03.373Z</time>
      </trkpt>
      <trkpt lat="48.606743" lon="16.747038">
        <ele>218.778247</ele>
        <time>2020-08-26T11:00:06.369Z</time>
      </trkpt>
      <trkpt lat="48.606660" lon="16.746955">
        <ele>218.824417</ele>
        <time>2020-08-26T11:00:09.388Z</time>
      </trkpt>
      <trkpt lat="48.606577" lon="16.746865">
        <ele>218.871806</ele>
        <time>2020-08-26T11:00:12.356Z</time>
      </trkpt>
      <trkpt lat="48.606500" lon="16.746779">
        <ele>218.916221</ele>
        <time>2020-08-26T11:00:15.361Z</time>
      </trkpt>
      <trkpt lat="48.606420" lon="16.746690">
        <ele>218.962302</ele>
        <time>2020-08-26T11:00:18.403Z</time>
      </trkpt>
      <trkpt lat="48.606347" lon="16.746589">
        <ele>219.008211</ele>
        <time>2020-08-26T11:00:21.373Z</time>
      </trkpt>
      <trkpt lat="48.606272" lon="16.746478">
        <ele>219.056902</ele>
        <time>2020-08-26T11:00:24.357Z</time>
      </trkpt>
      <trkpt lat="48.606199" lon="16.746357">
        <ele>219.107157</ele>
        <time>2020-08-26T11:00:27.368Z</time>
      </trkpt>
      <trkpt lat="48.606124" lon="16.746223">
        <ele>219.161021</ele>
        <time>2020-08-26T11:00:30.379Z</time>
      </trkpt>
      <trkpt lat="48.606054" lon="16.746078">
        <ele>219.216104</ele>
        <time>2020-08-26T11:00:33.352Z</time>
      </trkpt>
      <trkpt lat="48.605994" lon="16.745937">
        <ele>219.267548</ele>
        <time>2020-08-26T11:00:36.369Z</time>
      </trkpt>
      <trkpt lat="48.605940" lon="16.745799">
        <ele>219.316747</ele>
        <time>2020-08-26T11:00:39.360Z</time>
      </trkpt>
      <trkpt lat="48.605891" lon="16.745668">
        <ele>219.362925</ele>
        <time>2020-08-26T11:00:42.353Z</time>
      </trkpt>
      <trkpt lat="48.605845" lon="16.745513">
        <ele>219.415051</ele>
        <time>2020-08-26T11:00:45.362Z</time>
      </trkpt>
      <trkpt lat="48.605806" lon="16.745349">
        <ele>219.468524</ele>
        <time>2020-08-26T11:00:48.400Z</time>
      </trkpt>
      <trkpt lat="48.605772" lon="16.745163">
        <ele>219.531339</ele>
        <time>2020-08-26T11:00:51.363Z</time>
      </trkpt>
      <trkpt lat="48.605751" lon="16.744964">
        <ele>219.597013</ele>
        <time>2020-08-26T11:00:54.351Z</time>
      </trkpt>
      <trkpt lat="48.605742" lon="16.744775">
        <ele>219.658768</ele>
        <time>2020-08-26T11:00:57.414Z</time>
      </trkpt>
      <trkpt lat="48.605743" lon="16.744617">
        <ele>219.710262</ele>
        <time>2020-08-26T11:01:00.381Z</time>
      </trkpt>
      <trkpt lat="48.605746" lon="16.744461">
        <ele>219.761123</ele>
        <time>2020-08-26T11:01:04.367Z</time>
      </trkpt>
      <trkpt lat="48.605751" lon="16.744285">
        <ele>219.818534</ele>
        <time>2020-08-26T11:01:08.369Z</time>
      </trkpt>
      <trkpt lat="48.605759" lon="16.744132">
        <ele>219.868552</ele>
        <time>2020-08-26T11:01:11.388Z</time>
      </trkpt>
      <trkpt lat="48.605771" lon="16.743939">
        <ele>219.931728</ele>
        <time>2020-08-26T11:01:14.386Z</time>
      </trkpt>
      <trkpt lat="48.605787" lon="16.743765">
        <ele>219.988979</ele>
        <time>2020-08-26T11:01:16.366Z</time>
      </trkpt>
      <trkpt lat="48.605803" lon="16.743574">
        <ele>220.051723</ele>
        <time>2020-08-26T11:01:18.384Z</time>
      </trkpt>
      <trkpt lat="48.605829" lon="16.743408">
        <ele>220.107319</ele>
        <time>2020-08-26T11:01:20.363Z</time>
      </trkpt>
      <trkpt lat="48.605866" lon="16.743257">
        <ele>220.159800</ele>
        <time>2020-08-26T11:01:22.377Z</time>
      </trkpt>
      <trkpt lat="48.605902" lon="16.743119">
        <ele>220.208147</ele>
        <time>2020-08-26T11:01:24.373Z</time>
      </trkpt>
      <trkpt lat="48.605943" lon="16.742997">
        <ele>220.252747</ele>
        <time>2020-08-26T11:01:26.369Z</time>
      </trkpt>
      <trkpt lat="48.605994" lon="16.742836">
        <ele>220.310926</ele>
        <time>2020-08-26T11:01:29.371Z</time>
      </trkpt>
      <trkpt lat="48.606051" lon="16.742708">
        <ele>220.356284</ele>
        <time>2020-08-26T11:01:32.399Z</time>
      </trkpt>
      <trkpt lat="48.606109" lon="16.742600">
        <ele>220.356973</ele>
        <time>2020-08-26T11:01:35.356Z</time>
      </trkpt>
      <trkpt lat="48.606177" lon="16.742475">
        <ele>220.357774</ele>
        <time>2020-08-26T11:01:39.392Z</time>
      </trkpt>
      <trkpt lat="48.606240" lon="16.742322">
        <ele>220.358666</ele>
        <time>2020-08-26T11:01:43.369Z</time>
      </trkpt>
      <trkpt lat="48.606305" lon="16.742210">
        <ele>220.359404</ele>
        <time>2020-08-26T11:01:46.401Z</time>
      </trkpt>
      <trkpt lat="48.606371" lon="16.742059">
        <ele>220.360299</ele>
        <time>2020-08-26T11:01:50.362Z</time>
      </trkpt>
      <trkpt lat="48.606426" lon="16.741942">
        <ele>220.361010</ele>
        <time>2020-08-26T11:01:53.362Z</time>
      </trkpt>
      <trkpt lat="48.606486" lon="16.741817">
        <ele>220.361774</ele>
        <time>2020-08-26T11:01:56.361Z</time>
      </trkpt>
      <trkpt lat="48.606546" lon="16.741690">
        <ele>220.362547</ele>
        <time>2020-08-26T11:01:59.373Z</time>
      </trkpt>
      <trkpt lat="48.606617" lon="16.741539">
        <ele>220.363464</ele>
        <time>2020-08-26T11:02:02.383Z</time>
      </trkpt>
      <trkpt lat="48.606691" lon="16.741374">
        <ele>220.364450</ele>
        <time>2020-08-26T11:02:05.376Z</time>
      </trkpt>
      <trkpt lat="48.606745" lon="16.741258">
        <ele>220.365152</ele>
        <time>2020-08-26T11:02:07.372Z</time>
      </trkpt>
      <trkpt lat="48.606807" lon="16.741145">
        <ele>220.365879</ele>
        <time>2020-08-26T11:02:09.358Z</time>
      </trkpt>
      <trkpt lat="48.606868" lon="16.741012">
        <ele>220.366680</ele>
        <time>2020-08-26T11:02:11.401Z</time>
      </trkpt>
      <trkpt lat="48.606931" lon="16.740881">
        <ele>220.367482</ele>
        <time>2020-08-26T11:02:13.366Z</time>
      </trkpt>
      <trkpt lat="48.606994" lon="16.740748">
        <ele>220.368291</ele>
        <time>2020-08-26T11:02:15.363Z</time>
      </trkpt>
      <trkpt lat="48.607069" lon="16.740610">
        <ele>220.369175</ele>
        <time>2020-08-26T11:02:17.369Z</time>
      </trkpt>
      <trkpt lat="48.607140" lon="16.740473">
        <ele>220.364071</ele>
        <time>2020-08-26T11:02:19.377Z</time>
      </trkpt>
      <trkpt lat="48.607216" lon="16.740346">
        <ele>220.351125</ele>
        <time>2020-08-26T11:02:21.372Z</time>
      </trkpt>
      <trkpt lat="48.607298" lon="16.740216">
        <ele>220.337546</ele>
        <time>2020-08-26T11:02:23.376Z</time>
      </trkpt>
      <trkpt lat="48.607382" lon="16.740067">
        <ele>220.322748</ele>
        <time>2020-08-26T11:02:25.404Z</time>
      </trkpt>
      <trkpt lat="48.607471" lon="16.739904">
        <ele>220.306772</ele>
        <time>2020-08-26T11:02:27.372Z</time>
      </trkpt>
      <trkpt lat="48.607568" lon="16.739739">
        <ele>220.290085</ele>
        <time>2020-08-26T11:02:29.392Z</time>
      </trkpt>
      <trkpt lat="48.607665" lon="16.739567">
        <ele>220.273000</ele>
        <time>2020-08-26T11:02:31.364Z</time>
      </trkpt>
      <trkpt lat="48.607767" lon="16.739401">
        <ele>220.255874</ele>
        <time>2020-08-26T11:02:33.366Z</time>
      </trkpt>
      <trkpt lat="48.607881" lon="16.739257">
        <ele>220.238896</ele>
        <time>2020-08-26T11:02:35.388Z</time>
      </trkpt>
      <trkpt lat="48.607998" lon="16.739117">
        <ele>220.221844</ele>
        <time>2020-08-26T11:02:37.393Z</time>
      </trkpt>
      <trkpt lat="48.608113" lon="16.738980">
        <ele>220.205111</ele>
        <time>2020-08-26T11:02:39.347Z</time>
      </trkpt>
      <trkpt lat="48.608224" lon="16.738852">
        <ele>220.189157</ele>
        <time>2020-08-26T11:02:41.347Z</time>
      </trkpt>
      <trkpt lat="48.608329" lon="16.738734">
        <ele>220.174204</ele>
        <time>2020-08-26T11:02:43.348Z</time>
      </trkpt>
      <trkpt lat="48.608426" lon="16.738615">
        <ele>220.195473</ele>
        <time>2020-08-26T11:02:45.352Z</time>
      </trkpt>
      <trkpt lat="48.608523" lon="16.738502">
        <ele>220.301161</ele>
        <time>2020-08-26T11:02:47.360Z</time>
      </trkpt>
      <trkpt lat="48.608620" lon="16.738397">
        <ele>220.404125</ele>
        <time>2020-08-26T11:02:49.347Z</time>
      </trkpt>
      <trkpt lat="48.608711" lon="16.738291">
        <ele>220.503271</ele>
        <time>2020-08-26T11:02:51.364Z</time>
      </trkpt>
      <trkpt lat="48.608797" lon="16.738185">
        <ele>220.599034</ele>
        <time>2020-08-26T11:02:53.366Z</time>
      </trkpt>
      <trkpt lat="48.608879" lon="16.738080">
        <ele>220.691776</ele>
        <time>2020-08-26T11:02:55.362Z</time>
      </trkpt>
      <trkpt lat="48.608964" lon="16.737973">
        <ele>220.787236</ele>
        <time>2020-08-26T11:02:57.386Z</time>
      </trkpt>
      <trkpt lat="48.609051" lon="16.737868">
        <ele>220.883312</ele>
        <time>2020-08-26T11:02:59.375Z</time>
      </trkpt>
      <trkpt lat="48.609135" lon="16.737769">
        <ele>220.975235</ele>
        <time>2020-08-26T11:03:01.364Z</time>
      </trkpt>
      <trkpt lat="48.609214" lon="16.737678">
        <ele>221.060951</ele>
        <time>2020-08-26T11:03:03.382Z</time>
      </trkpt>
      <trkpt lat="48.609287" lon="16.737593">
        <ele>221.140474</ele>
        <time>2020-08-26T11:03:05.383Z</time>
      </trkpt>
      <trkpt lat="48.609386" lon="16.737459">
        <ele>221.255153</ele>
        <time>2020-08-26T11:03:08.371Z</time>
      </trkpt>
      <trkpt lat="48.609483" lon="16.737347">
        <ele>221.360493</ele>
        <time>2020-08-26T11:03:11.364Z</time>
      </trkpt>
      <trkpt lat="48.609571" lon="16.737258">
        <ele>221.451871</ele>
        <time>2020-08-26T11:03:14.402Z</time>
      </trkpt>
      <trkpt lat="48.609657" lon="16.737178">
        <ele>221.539021</ele>
        <time>2020-08-26T11:03:17.373Z</time>
      </trkpt>
      <trkpt lat="48.609741" lon="16.737082">
        <ele>221.629901</ele>
        <time>2020-08-26T11:03:20.368Z</time>
      </trkpt>
      <trkpt lat="48.609832" lon="16.736975">
        <ele>221.731040</ele>
        <time>2020-08-26T11:03:23.369Z</time>
      </trkpt>
      <trkpt lat="48.609934" lon="16.736863">
        <ele>221.853861</ele>
        <time>2020-08-26T11:03:26.368Z</time>
      </trkpt>
      <trkpt lat="48.610033" lon="16.736739">
        <ele>221.979112</ele>
        <time>2020-08-26T11:03:29.371Z</time>
      </trkpt>
      <trkpt lat="48.610128" lon="16.736610">
        <ele>222.103515</ele>
        <time>2020-08-26T11:03:32.374Z</time>
      </trkpt>
      <trkpt lat="48.610212" lon="16.736500">
        <ele>222.211782</ele>
        <time>2020-08-26T11:03:35.364Z</time>
      </trkpt>
      <trkpt lat="48.610283" lon="16.736405">
        <ele>222.304153</ele>
        <time>2020-08-26T11:03:38.365Z</time>
      </trkpt>
      <trkpt lat="48.610358" lon="16.736310">
        <ele>222.399477</ele>
        <time>2020-08-26T11:03:41.361Z</time>
      </trkpt>
      <trkpt lat="48.610450" lon="16.736200">
        <ele>222.513751</ele>
        <time>2020-08-26T11:03:45.398Z</time>
      </trkpt>
      <trkpt lat="48.610536" lon="16.736100">
        <ele>222.619454</ele>
        <time>2020-08-26T11:03:49.364Z</time>
      </trkpt>
      <trkpt lat="48.610613" lon="16.735991">
        <ele>222.722219</ele>
        <time>2020-08-26T11:03:53.357Z</time>
      </trkpt>
      <trkpt lat="48.610699" lon="16.735889">
        <ele>222.828711</ele>
        <time>2020-08-26T11:03:57.372Z</time>
      </trkpt>
      <trkpt lat="48.610772" lon="16.735787">
        <ele>222.925551</ele>
        <time>2020-08-26T11:04:00.370Z</time>
      </trkpt>
      <trkpt lat="48.610857" lon="16.735639">
        <ele>223.051850</ele>
        <time>2020-08-26T11:04:03.360Z</time>
      </trkpt>
      <trkpt lat="48.610911" lon="16.735531">
        <ele>223.139085</ele>
        <time>2020-08-26T11:04:05.365Z</time>
      </trkpt>
      <trkpt lat="48.610960" lon="16.735402">
        <ele>223.234932</ele>
        <time>2020-08-26T11:04:07.376Z</time>
      </trkpt>
      <trkpt lat="48.611008" lon="16.735270">
        <ele>223.331986</ele>
        <time>2020-08-26T11:04:09.367Z</time>
      </trkpt>
      <trkpt lat="48.611055" lon="16.735128">
        <ele>223.434292</ele>
        <time>2020-08-26T11:04:11.391Z</time>
      </trkpt>
      <trkpt lat="48.611092" lon="16.734980">
        <ele>223.457034</ele>
        <time>2020-08-26T11:04:13.365Z</time>
      </trkpt>
      <trkpt lat="48.611135" lon="16.734840">
        <ele>223.438898</ele>
        <time>2020-08-26T11:04:15.371Z</time>
      </trkpt>
      <trkpt lat="48.611174" lon="16.734701">
        <ele>223.421158</ele>
        <time>2020-08-26T11:04:17.363Z</time>
      </trkpt>
      <trkpt lat="48.611197" lon="16.734563">
        <ele>223.404438</ele>
        <time>2020-08-26T11:04:19.347Z</time>
      </trkpt>
      <trkpt lat="48.611217" lon="16.734422">
        <ele>223.387495</ele>
        <time>2020-08-26T11:04:21.365Z</time>
      </trkpt>
      <trkpt lat="48.611229" lon="16.734265">
        <ele>223.368928</ele>
        <time>2020-08-26T11:04:23.358Z</time>
      </trkpt>
      <trkpt lat="48.611230" lon="16.734095">
        <ele>223.348954</ele>
        <time>2020-08-26T11:04:25.376Z</time>
      </trkpt>
      <trkpt lat="48.611230" lon="16.733914">
        <ele>223.327690</ele>
        <time>2020-08-26T11:04:27.354Z</time>
      </trkpt>
      <trkpt lat="48.611221" lon="16.733740">
        <ele>223.307185</ele>
        <time>2020-08-26T11:04:29.393Z</time>
      </trkpt>
      <trkpt lat="48.611213" lon="16.733560">
        <ele>223.285990</ele>
        <time>2020-08-26T11:04:31.371Z</time>
      </trkpt>
      <trkpt lat="48.611210" lon="16.733378">
        <ele>223.264601</ele>
        <time>2020-08-26T11:04:33.358Z</time>
      </trkpt>
      <trkpt lat="48.611207" lon="16.733203">
        <ele>223.244034</ele>
        <time>2020-08-26T11:04:35.373Z</time>
      </trkpt>
      <trkpt lat="48.611215" lon="16.733025">
        <ele>223.223074</ele>
        <time>2020-08-26T11:04:37.406Z</time>
      </trkpt>
      <trkpt lat="48.611256" lon="16.732871">
        <ele>223.203569</ele>
        <time>2020-08-26T11:04:39.375Z</time>
      </trkpt>
      <trkpt lat="48.611258" lon="16.732724">
        <ele>223.186296</ele>
        <time>2020-08-26T11:04:44.379Z</time>
      </trkpt>
      <trkpt lat="48.611190" lon="16.732581">
        <ele>223.165601</ele>
        <time>2020-08-26T11:04:48.365Z</time>
      </trkpt>
      <trkpt lat="48.611131" lon="16.732456">
        <ele>223.147879</ele>
        <time>2020-08-26T11:04:50.390Z</time>
      </trkpt>
      <trkpt lat="48.611072" lon="16.732326">
        <ele>223.132215</ele>
        <time>2020-08-26T11:04:52.358Z</time>
      </trkpt>
      <trkpt lat="48.611015" lon="16.732198">
        <ele>223.116884</ele>
        <time>2020-08-26T11:04:54.372Z</time>
      </trkpt>
      <trkpt lat="48.610939" lon="16.732026">
        <ele>223.096332</ele>
        <time>2020-08-26T11:04:57.374Z</time>
      </trkpt>
      <trkpt lat="48.610866" lon="16.731855">
        <ele>223.076111</ele>
        <time>2020-08-26T11:05:00.353Z</time>
      </trkpt>
      <trkpt lat="48.610793" lon="16.731680">
        <ele>223.055555</ele>
        <time>2020-08-26T11:05:03.348Z</time>
      </trkpt>
      <trkpt lat="48.610742" lon="16.731553">
        <ele>223.040793</ele>
        <time>2020-08-26T11:05:05.387Z</time>
      </trkpt>
      <trkpt lat="48.610688" lon="16.731430">
        <ele>223.026125</ele>
        <time>2020-08-26T11:05:07.346Z</time>
      </trkpt>
      <trkpt lat="48.610613" lon="16.731266">
        <ele>223.006315</ele>
        <time>2020-08-26T11:05:10.365Z</time>
      </trkpt>
      <trkpt lat="48.610540" lon="16.731108">
        <ele>222.987166</ele>
        <time>2020-08-26T11:05:13.396Z</time>
      </trkpt>
      <trkpt lat="48.610468" lon="16.730984">
        <ele>222.970772</ele>
        <time>2020-08-26T11:05:16.371Z</time>
      </trkpt>
      <trkpt lat="48.610390" lon="16.730861">
        <ele>222.953840</ele>
        <time>2020-08-26T11:05:20.370Z</time>
      </trkpt>
      <trkpt lat="48.610331" lon="16.730756">
        <ele>222.940151</ele>
        <time>2020-08-26T11:05:23.371Z</time>
      </trkpt>
      <trkpt lat="48.610265" lon="16.730627">
        <ele>222.923947</ele>
        <time>2020-08-26T11:05:27.368Z</time>
      </trkpt>
      <trkpt lat="48.610193" lon="16.730509">
        <ele>222.907995</ele>
        <time>2020-08-26T11:05:31.360Z</time>
      </trkpt>
      <trkpt lat="48.610125" lon="16.730397">
        <ele>222.892889</ele>
        <time>2020-08-26T11:05:35.389Z</time>
      </trkpt>
      <trkpt lat="48.610055" lon="16.730292">
        <ele>222.880768</ele>
        <time>2020-08-26T11:05:39.395Z</time>
      </trkpt>
      <trkpt lat="48.609981" lon="16.730198">
        <ele>222.896060</ele>
        <time>2020-08-26T11:05:43.370Z</time>
      </trkpt>
      <trkpt lat="48.609891" lon="16.730159">
        <ele>222.910874</ele>
        <time>2020-08-26T11:05:47.367Z</time>
      </trkpt>
      <trkpt lat="48.609795" lon="16.730261">
        <ele>222.929438</ele>
        <time>2020-08-26T11:05:51.368Z</time>
      </trkpt>
      <trkpt lat="48.609692" lon="16.730247">
        <ele>222.945802</ele>
        <time>2020-08-26T11:05:55.362Z</time>
      </trkpt>
      <trkpt lat="48.609627" lon="16.730150">
        <ele>222.960251</ele>
        <time>2020-08-26T11:05:58.363Z</time>
      </trkpt>
      <trkpt lat="48.609538" lon="16.730038">
        <ele>222.978572</ele>
        <time>2020-08-26T11:06:02.371Z</time>
      </trkpt>
      <trkpt lat="48.609460" lon="16.729955">
        <ele>222.993663</ele>
        <time>2020-08-26T11:06:05.360Z</time>
      </trkpt>
      <trkpt lat="48.609383" lon="16.729879">
        <ele>223.008212</ele>
        <time>2020-08-26T11:06:08.410Z</time>
      </trkpt>
      <trkpt lat="48.609304" lon="16.729791">
        <ele>223.023737</ele>
        <time>2020-08-26T11:06:11.408Z</time>
      </trkpt>
      <trkpt lat="48.609228" lon="16.729695">
        <ele>223.039406</ele>
        <time>2020-08-26T11:06:14.367Z</time>
      </trkpt>
      <trkpt lat="48.609142" lon="16.729614">
        <ele>223.055437</ele>
        <time>2020-08-26T11:06:17.357Z</time>
      </trkpt>
      <trkpt lat="48.609060" lon="16.729528">
        <ele>223.071227</ele>
        <time>2020-08-26T11:06:20.375Z</time>
      </trkpt>
      <trkpt lat="48.608983" lon="16.729435">
        <ele>223.086819</ele>
        <time>2020-08-26T11:06:23.392Z</time>
      </trkpt>
      <trkpt lat="48.608906" lon="16.729350">
        <ele>223.101904</ele>
        <time>2020-08-26T11:06:26.385Z</time>
      </trkpt>
      <trkpt lat="48.608829" lon="16.729262">
        <ele>223.117175</ele>
        <time>2020-08-26T11:06:29.354Z</time>
      </trkpt>
      <trkpt lat="48.608751" lon="16.729177">
        <ele>223.132388</ele>
        <time>2020-08-26T11:06:32.358Z</time>
      </trkpt>
      <trkpt lat="48.608652" lon="16.729079">
        <ele>223.151110</ele>
        <time>2020-08-26T11:06:36.359Z</time>
      </trkpt>
      <trkpt lat="48.608574" lon="16.728991">
        <ele>223.164895</ele>
        <time>2020-08-26T11:06:39.366Z</time>
      </trkpt>
      <trkpt lat="48.608472" lon="16.728882">
        <ele>223.171970</ele>
        <time>2020-08-26T11:06:42.366Z</time>
      </trkpt>
      <trkpt lat="48.608398" lon="16.728801">
        <ele>223.177144</ele>
        <time>2020-08-26T11:06:44.380Z</time>
      </trkpt>
      <trkpt lat="48.608328" lon="16.728704">
        <ele>223.182522</ele>
        <time>2020-08-26T11:06:46.358Z</time>
      </trkpt>
      <trkpt lat="48.608254" lon="16.728607">
        <ele>223.188069</ele>
        <time>2020-08-26T11:06:48.367Z</time>
      </trkpt>
      <trkpt lat="48.608181" lon="16.728520">
        <ele>223.193334</ele>
        <time>2020-08-26T11:06:50.361Z</time>
      </trkpt>
      <trkpt lat="48.608109" lon="16.728433">
        <ele>223.198554</ele>
        <time>2020-08-26T11:06:52.375Z</time>
      </trkpt>
      <trkpt lat="48.608040" lon="16.728346">
        <ele>223.203643</ele>
        <time>2020-08-26T11:06:54.371Z</time>
      </trkpt>
      <trkpt lat="48.607968" lon="16.728262">
        <ele>223.208794</ele>
        <time>2020-08-26T11:06:56.366Z</time>
      </trkpt>
      <trkpt lat="48.607897" lon="16.728174">
        <ele>223.213994</ele>
        <time>2020-08-26T11:06:58.378Z</time>
      </trkpt>
      <trkpt lat="48.607825" lon="16.728082">
        <ele>223.219333</ele>
        <time>2020-08-26T11:07:00.353Z</time>
      </trkpt>
      <trkpt lat="48.607743" lon="16.728007">
        <ele>223.224761</ele>
        <time>2020-08-26T11:07:02.378Z</time>
      </trkpt>
      <trkpt lat="48.607644" lon="16.728006">
        <ele>223.230369</ele>
        <time>2020-08-26T11:07:04.367Z</time>
      </trkpt>
      <trkpt lat="48.607563" lon="16.728096">
        <ele>223.236063</ele>
        <time>2020-08-26T11:07:06.361Z</time>
      </trkpt>
      <trkpt lat="48.607486" lon="16.728207">
        <ele>223.242088</ele>
        <time>2020-08-26T11:07:08.372Z</time>
      </trkpt>
      <trkpt lat="48.607405" lon="16.728318">
        <ele>223.248280</ele>
        <time>2020-08-26T11:07:10.371Z</time>
      </trkpt>
      <trkpt lat="48.607317" lon="16.728407">
        <ele>223.254277</ele>
        <time>2020-08-26T11:07:12.361Z</time>
      </trkpt>
      <trkpt lat="48.607225" lon="16.728482">
        <ele>223.260197</ele>
        <time>2020-08-26T11:07:14.358Z</time>
      </trkpt>
      <trkpt lat="48.607140" lon="16.728558">
        <ele>223.265790</ele>
        <time>2020-08-26T11:07:16.391Z</time>
      </trkpt>
      <trkpt lat="48.607065" lon="16.728658">
        <ele>223.261540</ele>
        <time>2020-08-26T11:07:18.361Z</time>
      </trkpt>
      <trkpt lat="48.606992" lon="16.728762">
        <ele>223.257115</ele>
        <time>2020-08-26T11:07:20.373Z</time>
      </trkpt>
      <trkpt lat="48.606918" lon="16.728848">
        <ele>223.252998</ele>
        <time>2020-08-26T11:07:22.381Z</time>
      </trkpt>
      <trkpt lat="48.606829" lon="16.728925">
        <ele>223.248475</ele>
        <time>2020-08-26T11:07:25.377Z</time>
      </trkpt>
      <trkpt lat="48.606740" lon="16.728978">
        <ele>223.244255</ele>
        <time>2020-08-26T11:07:28.385Z</time>
      </trkpt>
      <trkpt lat="48.606631" lon="16.729033">
        <ele>223.239186</ele>
        <time>2020-08-26T11:07:31.348Z</time>
      </trkpt>
      <trkpt lat="48.606545" lon="16.729074">
        <ele>223.235208</ele>
        <time>2020-08-26T11:07:33.365Z</time>
      </trkpt>
      <trkpt lat="48.606453" lon="16.729125">
        <ele>223.230885</ele>
        <time>2020-08-26T11:07:35.388Z</time>
      </trkpt>
      <trkpt lat="48.606357" lon="16.729167">
        <ele>223.226476</ele>
        <time>2020-08-26T11:07:37.369Z</time>
      </trkpt>
      <trkpt lat="48.606247" lon="16.729237">
        <ele>223.221211</ele>
        <time>2020-08-26T11:07:40.359Z</time>
      </trkpt>
      <trkpt lat="48.606260" lon="16.729399">
        <ele>223.216451</ele>
        <time>2020-08-26T11:07:43.364Z</time>
      </trkpt>
      <trkpt lat="48.606284" lon="16.729537">
        <ele>223.212288</ele>
        <time>2020-08-26T11:07:46.380Z</time>
      </trkpt>
      <trkpt lat="48.606239" lon="16.729672">
        <ele>223.207878</ele>
        <time>2020-08-26T11:07:49.361Z</time>
      </trkpt>
      <trkpt lat="48.606148" lon="16.729718">
        <ele>223.203645</ele>
        <time>2020-08-26T11:07:51.361Z</time>
      </trkpt>
      <trkpt lat="48.606043" lon="16.729746">
        <ele>223.198941</ele>
        <time>2020-08-26T11:07:53.359Z</time>
      </trkpt>
      <trkpt lat="48.605939" lon="16.729780">
        <ele>223.194247</ele>
        <time>2020-08-26T11:07:55.376Z</time>
      </trkpt>
      <trkpt lat="48.605838" lon="16.729816">
        <ele>223.189669</ele>
        <time>2020-08-26T11:07:57.364Z</time>
      </trkpt>
      <trkpt lat="48.605737" lon="16.729860">
        <ele>223.188486</ele>
        <time>2020-08-26T11:07:59.378Z</time>
      </trkpt>
      <trkpt lat="48.605638" lon="16.729905">
        <ele>223.194440</ele>
        <time>2020-08-26T11:08:01.380Z</time>
      </trkpt>
      <trkpt lat="48.605537" lon="16.729947">
        <ele>223.200472</ele>
        <time>2020-08-26T11:08:03.355Z</time>
      </trkpt>
      <trkpt lat="48.605435" lon="16.729986">
        <ele>223.206531</ele>
        <time>2020-08-26T11:08:05.365Z</time>
      </trkpt>
      <trkpt lat="48.605334" lon="16.730026">
        <ele>223.212544</ele>
        <time>2020-08-26T11:08:07.365Z</time>
      </trkpt>
      <trkpt lat="48.605236" lon="16.730066">
        <ele>223.218390</ele>
        <time>2020-08-26T11:08:09.350Z</time>
      </trkpt>
      <trkpt lat="48.605143" lon="16.730114">
        <ele>223.224049</ele>
        <time>2020-08-26T11:08:11.356Z</time>
      </trkpt>
      <trkpt lat="48.605053" lon="16.730156">
        <ele>223.229473</ele>
        <time>2020-08-26T11:08:13.387Z</time>
      </trkpt>
      <trkpt lat="48.604965" lon="16.730191">
        <ele>223.234713</ele>
        <time>2020-08-26T11:08:15.366Z</time>
      </trkpt>
      <trkpt lat="48.604841" lon="16.730248">
        <ele>223.242177</ele>
        <time>2020-08-26T11:08:18.377Z</time>
      </trkpt>
      <trkpt lat="48.604720" lon="16.730298">
        <ele>223.249401</ele>
        <time>2020-08-26T11:08:21.374Z</time>
      </trkpt>
      <trkpt lat="48.604596" lon="16.730348">
        <ele>223.256791</ele>
        <time>2020-08-26T11:08:24.376Z</time>
      </trkpt>
      <trkpt lat="48.604477" lon="16.730389">
        <ele>223.263820</ele>
        <time>2020-08-26T11:08:27.361Z</time>
      </trkpt>
      <trkpt lat="48.604367" lon="16.730420">
        <ele>223.270264</ele>
        <time>2020-08-26T11:08:30.369Z</time>
      </trkpt>
      <trkpt lat="48.604264" lon="16.730470">
        <ele>223.276494</ele>
        <time>2020-08-26T11:08:33.389Z</time>
      </trkpt>
      <trkpt lat="48.604157" lon="16.730525">
        <ele>223.283002</ele>
        <time>2020-08-26T11:08:37.354Z</time>
      </trkpt>
      <trkpt lat="48.604061" lon="16.730589">
        <ele>223.289044</ele>
        <time>2020-08-26T11:08:42.382Z</time>
      </trkpt>
      <trkpt lat="48.603983" lon="16.730466">
        <ele>223.318312</ele>
        <time>2020-08-26T11:08:47.360Z</time>
      </trkpt>
      <trkpt lat="48.603944" lon="16.730296">
        <ele>223.353962</ele>
        <time>2020-08-26T11:08:51.363Z</time>
      </trkpt>
      <trkpt lat="48.603909" lon="16.730153">
        <ele>223.384172</ele>
        <time>2020-08-26T11:08:54.384Z</time>
      </trkpt>
      <trkpt lat="48.603850" lon="16.729993">
        <ele>223.420467</ele>
        <time>2020-08-26T11:08:57.377Z</time>
      </trkpt>
      <trkpt lat="48.603785" lon="16.729824">
        <ele>223.459201</ele>
        <time>2020-08-26T11:09:00.362Z</time>
      </trkpt>
      <trkpt lat="48.603731" lon="16.729705">
        <ele>223.487795</ele>
        <time>2020-08-26T11:09:02.374Z</time>
      </trkpt>
      <trkpt lat="48.603677" lon="16.729582">
        <ele>223.517045</ele>
        <time>2020-08-26T11:09:04.371Z</time>
      </trkpt>
      <trkpt lat="48.603623" lon="16.729462">
        <ele>223.545803</ele>
        <time>2020-08-26T11:09:06.351Z</time>
      </trkpt>
      <trkpt lat="48.603549" lon="16.729313">
        <ele>223.582722</ele>
        <time>2020-08-26T11:09:09.386Z</time>
      </trkpt>
      <trkpt lat="48.603426" lon="16.729313">
        <ele>223.619574</ele>
        <time>2020-08-26T11:09:12.367Z</time>
      </trkpt>
      <trkpt lat="48.603331" lon="16.729442">
        <ele>223.657827</ele>
        <time>2020-08-26T11:09:15.379Z</time>
      </trkpt>
      <trkpt lat="48.603226" lon="16.729543">
        <ele>223.695111</ele>
        <time>2020-08-26T11:09:18.364Z</time>
      </trkpt>
      <trkpt lat="48.603113" lon="16.729631">
        <ele>223.733193</ele>
        <time>2020-08-26T11:09:21.372Z</time>
      </trkpt>
      <trkpt lat="48.602999" lon="16.729691">
        <ele>223.769358</ele>
        <time>2020-08-26T11:09:24.373Z</time>
      </trkpt>
      <trkpt lat="48.602881" lon="16.729652">
        <ele>223.805547</ele>
        <time>2020-08-26T11:09:27.371Z</time>
      </trkpt>
      <trkpt lat="48.602781" lon="16.729584">
        <ele>223.839445</ele>
        <time>2020-08-26T11:09:30.370Z</time>
      </trkpt>
      <trkpt lat="48.602702" lon="16.729507">
        <ele>223.870747</ele>
        <time>2020-08-26T11:09:33.348Z</time>
      </trkpt>
      <trkpt lat="48.602624" lon="16.729419">
        <ele>223.903158</ele>
        <time>2020-08-26T11:09:37.358Z</time>
      </trkpt>
      <trkpt lat="48.602557" lon="16.729316">
        <ele>223.934977</ele>
        <time>2020-08-26T11:09:43.378Z</time>
      </trkpt>
      <trkpt lat="48.602499" lon="16.729185">
        <ele>223.969698</ele>
        <time>2020-08-26T11:09:49.375Z</time>
      </trkpt>
      <trkpt lat="48.602449" lon="16.729061">
        <ele>224.001683</ele>
        <time>2020-08-26T11:09:54.360Z</time>
      </trkpt>
      <trkpt lat="48.602389" lon="16.728920">
        <ele>224.038611</ele>
        <time>2020-08-26T11:09:59.369Z</time>
      </trkpt>
      <trkpt lat="48.602326" lon="16.728808">
        <ele>224.070994</ele>
        <time>2020-08-26T11:10:02.357Z</time>
      </trkpt>
      <trkpt lat="48.602247" lon="16.728704">
        <ele>224.105877</ele>
        <time>2020-08-26T11:10:05.369Z</time>
      </trkpt>
      <trkpt lat="48.602153" lon="16.728584">
        <ele>224.146847</ele>
        <time>2020-08-26T11:10:08.371Z</time>
      </trkpt>
      <trkpt lat="48.602059" lon="16.728441">
        <ele>224.191254</ele>
        <time>2020-08-26T11:10:11.375Z</time>
      </trkpt>
      <trkpt lat="48.602000" lon="16.728338">
        <ele>224.221265</ele>
        <time>2020-08-26T11:10:13.375Z</time>
      </trkpt>
      <trkpt lat="48.601943" lon="16.728227">
        <ele>224.252217</ele>
        <time>2020-08-26T11:10:15.372Z</time>
      </trkpt>
      <trkpt lat="48.601881" lon="16.728117">
        <ele>224.284049</ele>
        <time>2020-08-26T11:10:17.358Z</time>
      </trkpt>
      <trkpt lat="48.601823" lon="16.728008">
        <ele>224.314862</ele>
        <time>2020-08-26T11:10:19.381Z</time>
      </trkpt>
      <trkpt lat="48.601766" lon="16.727898">
        <ele>224.345640</ele>
        <time>2020-08-26T11:10:21.376Z</time>
      </trkpt>
      <trkpt lat="48.601705" lon="16.727787">
        <ele>224.377426</ele>
        <time>2020-08-26T11:10:23.362Z</time>
      </trkpt>
      <trkpt lat="48.601648" lon="16.727677">
        <ele>224.408204</ele>
        <time>2020-08-26T11:10:25.363Z</time>
      </trkpt>
      <trkpt lat="48.601598" lon="16.727563">
        <ele>224.433730</ele>
        <time>2020-08-26T11:10:27.365Z</time>
      </trkpt>
      <trkpt lat="48.601491" lon="16.727259">
        <ele>224.475685</ele>
        <time>2020-08-26T11:10:54.368Z</time>
      </trkpt>
      <trkpt lat="48.601435" lon="16.727094">
        <ele>224.498279</ele>
        <time>2020-08-26T11:10:57.372Z</time>
      </trkpt>
      <trkpt lat="48.601375" lon="16.726952">
        <ele>224.518809</ele>
        <time>2020-08-26T11:11:00.350Z</time>
      </trkpt>
      <trkpt lat="48.601299" lon="16.726794">
        <ele>224.542611</ele>
        <time>2020-08-26T11:11:03.367Z</time>
      </trkpt>
      <trkpt lat="48.601222" lon="16.726621">
        <ele>224.568016</ele>
        <time>2020-08-26T11:11:06.385Z</time>
      </trkpt>
      <trkpt lat="48.601163" lon="16.726495">
        <ele>224.586825</ele>
        <time>2020-08-26T11:11:08.369Z</time>
      </trkpt>
      <trkpt lat="48.601107" lon="16.726356">
        <ele>224.606654</ele>
        <time>2020-08-26T11:11:10.395Z</time>
      </trkpt>
      <trkpt lat="48.601058" lon="16.726211">
        <ele>224.626492</ele>
        <time>2020-08-26T11:11:12.380Z</time>
      </trkpt>
      <trkpt lat="48.601015" lon="16.726067">
        <ele>224.645741</ele>
        <time>2020-08-26T11:11:14.392Z</time>
      </trkpt>
      <trkpt lat="48.600969" lon="16.725918">
        <ele>224.665774</ele>
        <time>2020-08-26T11:11:16.359Z</time>
      </trkpt>
      <trkpt lat="48.600918" lon="16.725776">
        <ele>224.685461</ele>
        <time>2020-08-26T11:11:18.380Z</time>
      </trkpt>
      <trkpt lat="48.600867" lon="16.725637">
        <ele>224.704827</ele>
        <time>2020-08-26T11:11:20.380Z</time>
      </trkpt>
      <trkpt lat="48.600822" lon="16.725489">
        <ele>224.724672</ele>
        <time>2020-08-26T11:11:22.393Z</time>
      </trkpt>
      <trkpt lat="48.600782" lon="16.725335">
        <ele>224.744829</ele>
        <time>2020-08-26T11:11:24.389Z</time>
      </trkpt>
      <trkpt lat="48.600752" lon="16.725180">
        <ele>224.761034</ele>
        <time>2020-08-26T11:11:26.358Z</time>
      </trkpt>
      <trkpt lat="48.600721" lon="16.725031">
        <ele>224.767145</ele>
        <time>2020-08-26T11:11:28.368Z</time>
      </trkpt>
      <trkpt lat="48.600689" lon="16.724882">
        <ele>224.773274</ele>
        <time>2020-08-26T11:11:30.363Z</time>
      </trkpt>
      <trkpt lat="48.600666" lon="16.724732">
        <ele>224.779298</ele>
        <time>2020-08-26T11:11:32.367Z</time>
      </trkpt>
      <trkpt lat="48.600648" lon="16.724571">
        <ele>224.785686</ele>
        <time>2020-08-26T11:11:34.356Z</time>
      </trkpt>
      <trkpt lat="48.600635" lon="16.724416">
        <ele>224.791799</ele>
        <time>2020-08-26T11:11:36.369Z</time>
      </trkpt>
      <trkpt lat="48.600621" lon="16.724271">
        <ele>224.797532</ele>
        <time>2020-08-26T11:11:38.391Z</time>
      </trkpt>
      <trkpt lat="48.600610" lon="16.724122">
        <ele>224.803398</ele>
        <time>2020-08-26T11:11:40.381Z</time>
      </trkpt>
      <trkpt lat="48.600602" lon="16.723976">
        <ele>224.809129</ele>
        <time>2020-08-26T11:11:42.373Z</time>
      </trkpt>
      <trkpt lat="48.600592" lon="16.723833">
        <ele>224.814755</ele>
        <time>2020-08-26T11:11:44.368Z</time>
      </trkpt>
      <trkpt lat="48.600570" lon="16.723684">
        <ele>224.820728</ele>
        <time>2020-08-26T11:11:46.364Z</time>
      </trkpt>
      <trkpt lat="48.600545" lon="16.723533">
        <ele>224.826818</ele>
        <time>2020-08-26T11:11:48.366Z</time>
      </trkpt>
      <trkpt lat="48.600520" lon="16.723394">
        <ele>224.832454</ele>
        <time>2020-08-26T11:11:50.378Z</time>
      </trkpt>
      <trkpt lat="48.600492" lon="16.723261">
        <ele>224.837915</ele>
        <time>2020-08-26T11:11:52.359Z</time>
      </trkpt>
      <trkpt lat="48.600465" lon="16.723125">
        <ele>224.843470</ele>
        <time>2020-08-26T11:11:54.379Z</time>
      </trkpt>
      <trkpt lat="48.600422" lon="16.722939">
        <ele>224.851179</ele>
        <time>2020-08-26T11:11:57.378Z</time>
      </trkpt>
      <trkpt lat="48.600388" lon="16.722745">
        <ele>224.859031</ele>
        <time>2020-08-26T11:12:00.376Z</time>
      </trkpt>
      <trkpt lat="48.600344" lon="16.722561">
        <ele>224.867480</ele>
        <time>2020-08-26T11:12:03.362Z</time>
      </trkpt>
      <trkpt lat="48.600294" lon="16.722385">
        <ele>224.881705</ele>
        <time>2020-08-26T11:12:06.392Z</time>
      </trkpt>
      <trkpt lat="48.600236" lon="16.722229">
        <ele>224.894995</ele>
        <time>2020-08-26T11:12:09.365Z</time>
      </trkpt>
      <trkpt lat="48.600177" lon="16.722099">
        <ele>224.906703</ele>
        <time>2020-08-26T11:12:12.362Z</time>
      </trkpt>
      <trkpt lat="48.600124" lon="16.721982">
        <ele>224.917234</ele>
        <time>2020-08-26T11:12:15.362Z</time>
      </trkpt>
      <trkpt lat="48.600085" lon="16.721823">
        <ele>224.929828</ele>
        <time>2020-08-26T11:12:19.367Z</time>
      </trkpt>
      <trkpt lat="48.600039" lon="16.721669">
        <ele>224.942376</ele>
        <time>2020-08-26T11:12:23.354Z</time>
      </trkpt>
      <trkpt lat="48.600013" lon="16.721526">
        <ele>224.953389</ele>
        <time>2020-08-26T11:12:26.374Z</time>
      </trkpt>
      <trkpt lat="48.600003" lon="16.721357">
        <ele>224.965989</ele>
        <time>2020-08-26T11:12:29.396Z</time>
      </trkpt>
      <trkpt lat="48.599995" lon="16.721184">
        <ele>224.978868</ele>
        <time>2020-08-26T11:12:32.383Z</time>
      </trkpt>
      <trkpt lat="48.599983" lon="16.721007">
        <ele>224.992081</ele>
        <time>2020-08-26T11:12:35.362Z</time>
      </trkpt>
      <trkpt lat="48.599980" lon="16.720819">
        <ele>225.006046</ele>
        <time>2020-08-26T11:12:38.377Z</time>
      </trkpt>
      <trkpt lat="48.599962" lon="16.720632">
        <ele>225.020079</ele>
        <time>2020-08-26T11:12:41.374Z</time>
      </trkpt>
      <trkpt lat="48.599952" lon="16.720435">
        <ele>225.034751</ele>
        <time>2020-08-26T11:12:44.353Z</time>
      </trkpt>
      <trkpt lat="48.599945" lon="16.720300">
        <ele>225.044807</ele>
        <time>2020-08-26T11:12:46.397Z</time>
      </trkpt>
      <trkpt lat="48.599933" lon="16.720165">
        <ele>225.054922</ele>
        <time>2020-08-26T11:12:48.392Z</time>
      </trkpt>
      <trkpt lat="48.599915" lon="16.719966">
        <ele>225.071983</ele>
        <time>2020-08-26T11:12:51.368Z</time>
      </trkpt>
      <trkpt lat="48.599900" lon="16.719767">
        <ele>225.102331</ele>
        <time>2020-08-26T11:12:54.389Z</time>
      </trkpt>
      <trkpt lat="48.599892" lon="16.719632">
        <ele>225.122869</ele>
        <time>2020-08-26T11:12:56.399Z</time>
      </trkpt>
      <trkpt lat="48.599876" lon="16.719427">
        <ele>225.154146</ele>
        <time>2020-08-26T11:12:59.376Z</time>
      </trkpt>
      <trkpt lat="48.599866" lon="16.719290">
        <ele>225.175031</ele>
        <time>2020-08-26T11:13:01.375Z</time>
      </trkpt>
      <trkpt lat="48.599861" lon="16.719152">
        <ele>225.195973</ele>
        <time>2020-08-26T11:13:03.381Z</time>
      </trkpt>
      <trkpt lat="48.599859" lon="16.719013">
        <ele>225.217039</ele>
        <time>2020-08-26T11:13:05.363Z</time>
      </trkpt>
      <trkpt lat="48.599855" lon="16.718874">
        <ele>225.238121</ele>
        <time>2020-08-26T11:13:07.363Z</time>
      </trkpt>
      <trkpt lat="48.599858" lon="16.718735">
        <ele>225.259194</ele>
        <time>2020-08-26T11:13:09.379Z</time>
      </trkpt>
      <trkpt lat="48.599861" lon="16.718592">
        <ele>225.280872</ele>
        <time>2020-08-26T11:13:11.374Z</time>
      </trkpt>
      <trkpt lat="48.599858" lon="16.718389">
        <ele>225.311639</ele>
        <time>2020-08-26T11:13:14.377Z</time>
      </trkpt>
      <trkpt lat="48.599856" lon="16.718188">
        <ele>225.342098</ele>
        <time>2020-08-26T11:13:17.376Z</time>
      </trkpt>
      <trkpt lat="48.599858" lon="16.717987">
        <ele>225.372558</ele>
        <time>2020-08-26T11:13:20.393Z</time>
      </trkpt>
      <trkpt lat="48.599854" lon="16.717787">
        <ele>225.402876</ele>
        <time>2020-08-26T11:13:23.365Z</time>
      </trkpt>
      <trkpt lat="48.599850" lon="16.717588">
        <ele>225.433043</ele>
        <time>2020-08-26T11:13:26.357Z</time>
      </trkpt>
      <trkpt lat="48.599876" lon="16.717397">
        <ele>225.462590</ele>
        <time>2020-08-26T11:13:29.355Z</time>
      </trkpt>
      <trkpt lat="48.599913" lon="16.717271">
        <ele>225.483233</ele>
        <time>2020-08-26T11:13:31.357Z</time>
      </trkpt>
      <trkpt lat="48.599948" lon="16.717143">
        <ele>225.502778</ele>
        <time>2020-08-26T11:13:33.364Z</time>
      </trkpt>
      <trkpt lat="48.599977" lon="16.717012">
        <ele>225.522272</ele>
        <time>2020-08-26T11:13:35.357Z</time>
      </trkpt>
      <trkpt lat="48.600013" lon="16.716881">
        <ele>225.542290</ele>
        <time>2020-08-26T11:13:37.387Z</time>
      </trkpt>
      <trkpt lat="48.600062" lon="16.716758">
        <ele>225.562552</ele>
        <time>2020-08-26T11:13:39.387Z</time>
      </trkpt>
      <trkpt lat="48.600138" lon="16.716667">
        <ele>225.583238</ele>
        <time>2020-08-26T11:13:41.371Z</time>
      </trkpt>
      <trkpt lat="48.600192" lon="16.716558">
        <ele>225.602456</ele>
        <time>2020-08-26T11:13:43.353Z</time>
      </trkpt>
      <trkpt lat="48.600173" lon="16.716409">
        <ele>225.623868</ele>
        <time>2020-08-26T11:13:45.376Z</time>
      </trkpt>
      <trkpt lat="48.600139" lon="16.716266">
        <ele>225.645312</ele>
        <time>2020-08-26T11:13:47.396Z</time>
      </trkpt>
      <trkpt lat="48.600111" lon="16.716133">
        <ele>225.665007</ele>
        <time>2020-08-26T11:13:49.411Z</time>
      </trkpt>
      <trkpt lat="48.600089" lon="16.715999">
        <ele>225.684490</ele>
        <time>2020-08-26T11:13:51.396Z</time>
      </trkpt>
      <trkpt lat="48.600071" lon="16.715818">
        <ele>225.710318</ele>
        <time>2020-08-26T11:13:54.399Z</time>
      </trkpt>
      <trkpt lat="48.600069" lon="16.715627">
        <ele>225.737274</ele>
        <time>2020-08-26T11:13:57.362Z</time>
      </trkpt>
      <trkpt lat="48.600070" lon="16.715451">
        <ele>225.762110</ele>
        <time>2020-08-26T11:14:00.354Z</time>
      </trkpt>
      <trkpt lat="48.600067" lon="16.715282">
        <ele>225.785966</ele>
        <time>2020-08-26T11:14:03.365Z</time>
      </trkpt>
      <trkpt lat="48.600063" lon="16.715109">
        <ele>225.810393</ele>
        <time>2020-08-26T11:14:06.375Z</time>
      </trkpt>
      <trkpt lat="48.600054" lon="16.714937">
        <ele>225.834740</ele>
        <time>2020-08-26T11:14:09.377Z</time>
      </trkpt>
      <trkpt lat="48.600039" lon="16.714767">
        <ele>225.858941</ele>
        <time>2020-08-26T11:14:12.397Z</time>
      </trkpt>
      <trkpt lat="48.600013" lon="16.714612">
        <ele>225.883057</ele>
        <time>2020-08-26T11:14:15.373Z</time>
      </trkpt>
      <trkpt lat="48.599986" lon="16.714449">
        <ele>225.908831</ele>
        <time>2020-08-26T11:14:18.390Z</time>
      </trkpt>
      <trkpt lat="48.599965" lon="16.714288">
        <ele>225.934002</ele>
        <time>2020-08-26T11:14:21.359Z</time>
      </trkpt>
      <trkpt lat="48.599948" lon="16.714121">
        <ele>225.959920</ele>
        <time>2020-08-26T11:14:24.367Z</time>
      </trkpt>
      <trkpt lat="48.599916" lon="16.713949">
        <ele>225.987326</ele>
        <time>2020-08-26T11:14:27.369Z</time>
      </trkpt>
      <trkpt lat="48.599882" lon="16.713786">
        <ele>226.013543</ele>
        <time>2020-08-26T11:14:30.372Z</time>
      </trkpt>
      <trkpt lat="48.599851" lon="16.713618">
        <ele>226.040296</ele>
        <time>2020-08-26T11:14:33.348Z</time>
      </trkpt>
      <trkpt lat="48.599822" lon="16.713444">
        <ele>226.067820</ele>
        <time>2020-08-26T11:14:36.352Z</time>
      </trkpt>
      <trkpt lat="48.599788" lon="16.713285">
        <ele>226.093452</ele>
        <time>2020-08-26T11:14:39.375Z</time>
      </trkpt>
      <trkpt lat="48.599752" lon="16.713119">
        <ele>226.120248</ele>
        <time>2020-08-26T11:14:42.366Z</time>
      </trkpt>
      <trkpt lat="48.599718" lon="16.712953">
        <ele>226.146904</ele>
        <time>2020-08-26T11:14:45.373Z</time>
      </trkpt>
      <trkpt lat="48.599676" lon="16.712800">
        <ele>226.172314</ele>
        <time>2020-08-26T11:14:48.379Z</time>
      </trkpt>
      <trkpt lat="48.599639" lon="16.712644">
        <ele>226.197734</ele>
        <time>2020-08-26T11:14:51.361Z</time>
      </trkpt>
      <trkpt lat="48.599599" lon="16.712500">
        <ele>226.221692</ele>
        <time>2020-08-26T11:14:54.358Z</time>
      </trkpt>
      <trkpt lat="48.599565" lon="16.712372">
        <ele>226.242850</ele>
        <time>2020-08-26T11:14:57.378Z</time>
      </trkpt>
      <trkpt lat="48.599535" lon="16.712224">
        <ele>226.266594</ele>
        <time>2020-08-26T11:15:00.382Z</time>
      </trkpt>
      <trkpt lat="48.599516" lon="16.712076">
        <ele>226.291070</ele>
        <time>2020-08-26T11:15:03.383Z</time>
      </trkpt>
      <trkpt lat="48.599503" lon="16.711929">
        <ele>226.317289</ele>
        <time>2020-08-26T11:15:07.374Z</time>
      </trkpt>
      <trkpt lat="48.599500" lon="16.711749">
        <ele>226.349121</ele>
        <time>2020-08-26T11:15:11.366Z</time>
      </trkpt>
      <trkpt lat="48.599492" lon="16.711555">
        <ele>226.383485</ele>
        <time>2020-08-26T11:15:14.359Z</time>
      </trkpt>
      <trkpt lat="48.599497" lon="16.711353">
        <ele>226.419221</ele>
        <time>2020-08-26T11:15:17.374Z</time>
      </trkpt>
      <trkpt lat="48.599490" lon="16.711155">
        <ele>226.454275</ele>
        <time>2020-08-26T11:15:20.355Z</time>
      </trkpt>
      <trkpt lat="48.599485" lon="16.710963">
        <ele>226.488245</ele>
        <time>2020-08-26T11:15:23.358Z</time>
      </trkpt>
      <trkpt lat="48.599487" lon="16.710777">
        <ele>226.521132</ele>
        <time>2020-08-26T11:15:26.353Z</time>
      </trkpt>
      <trkpt lat="48.599472" lon="16.710592">
        <ele>226.554083</ele>
        <time>2020-08-26T11:15:29.382Z</time>
      </trkpt>
      <trkpt lat="48.599453" lon="16.710392">
        <ele>226.589803</ele>
        <time>2020-08-26T11:15:32.387Z</time>
      </trkpt>
      <trkpt lat="48.599435" lon="16.710200">
        <ele>226.624086</ele>
        <time>2020-08-26T11:15:35.378Z</time>
      </trkpt>
      <trkpt lat="48.599412" lon="16.710010">
        <ele>226.658234</ele>
        <time>2020-08-26T11:15:38.367Z</time>
      </trkpt>
      <trkpt lat="48.599403" lon="16.709816">
        <ele>226.692615</ele>
        <time>2020-08-26T11:15:41.397Z</time>
      </trkpt>
      <trkpt lat="48.599382" lon="16.709627">
        <ele>226.726497</ele>
        <time>2020-08-26T11:15:44.368Z</time>
      </trkpt>
      <trkpt lat="48.599355" lon="16.709443">
        <ele>226.759817</ele>
        <time>2020-08-26T11:15:47.388Z</time>
      </trkpt>
      <trkpt lat="48.599334" lon="16.709268">
        <ele>226.781229</ele>
        <time>2020-08-26T11:15:50.396Z</time>
      </trkpt>
      <trkpt lat="48.599312" lon="16.709108">
        <ele>226.800319</ele>
        <time>2020-08-26T11:15:53.385Z</time>
      </trkpt>
      <trkpt lat="48.599283" lon="16.708956">
        <ele>226.818800</ele>
        <time>2020-08-26T11:15:56.365Z</time>
      </trkpt>
      <trkpt lat="48.599254" lon="16.708800">
        <ele>226.837730</ele>
        <time>2020-08-26T11:15:59.377Z</time>
      </trkpt>
      <trkpt lat="48.599217" lon="16.708637">
        <ele>226.857862</ele>
        <time>2020-08-26T11:16:02.370Z</time>
      </trkpt>
      <trkpt lat="48.599168" lon="16.708474">
        <ele>226.878778</ele>
        <time>2020-08-26T11:16:05.354Z</time>
      </trkpt>
      <trkpt lat="48.599110" lon="16.708324">
        <ele>226.899076</ele>
        <time>2020-08-26T11:16:08.352Z</time>
      </trkpt>
      <trkpt lat="48.599062" lon="16.708164">
        <ele>226.919601</ele>
        <time>2020-08-26T11:16:11.396Z</time>
      </trkpt>
      <trkpt lat="48.599009" lon="16.708003">
        <ele>226.940610</ele>
        <time>2020-08-26T11:16:14.361Z</time>
      </trkpt>
      <trkpt lat="48.598964" lon="16.707839">
        <ele>226.961352</ele>
        <time>2020-08-26T11:16:17.359Z</time>
      </trkpt>
      <trkpt lat="48.598931" lon="16.707680">
        <ele>226.980819</ele>
        <time>2020-08-26T11:16:20.399Z</time>
      </trkpt>
      <trkpt lat="48.598902" lon="16.707514">
        <ele>227.000877</ele>
        <time>2020-08-26T11:16:23.357Z</time>
      </trkpt>
      <trkpt lat="48.598882" lon="16.707354">
        <ele>227.019899</ele>
        <time>2020-08-26T11:16:26.369Z</time>
      </trkpt>
      <trkpt lat="48.598864" lon="16.707199">
        <ele>227.038283</ele>
        <time>2020-08-26T11:16:29.357Z</time>
      </trkpt>
      <trkpt lat="48.598837" lon="16.707024">
        <ele>227.059275</ele>
        <time>2020-08-26T11:16:33.363Z</time>
      </trkpt>
      <trkpt lat="48.598812" lon="16.706893">
        <ele>227.075203</ele>
        <time>2020-08-26T11:16:36.396Z</time>
      </trkpt>
      <trkpt lat="48.598791" lon="16.706759">
        <ele>227.095198</ele>
        <time>2020-08-26T11:16:39.358Z</time>
      </trkpt>
      <trkpt lat="48.598758" lon="16.706605">
        <ele>227.120329</ele>
        <time>2020-08-26T11:16:42.377Z</time>
      </trkpt>
      <trkpt lat="48.598722" lon="16.706451">
        <ele>227.145685</ele>
        <time>2020-08-26T11:16:45.371Z</time>
      </trkpt>
      <trkpt lat="48.598714" lon="16.706280">
        <ele>227.172297</ele>
        <time>2020-08-26T11:16:48.366Z</time>
      </trkpt>
      <trkpt lat="48.598697" lon="16.706085">
        <ele>227.202831</ele>
        <time>2020-08-26T11:16:51.376Z</time>
      </trkpt>
      <trkpt lat="48.598689" lon="16.705941">
        <ele>227.225264</ele>
        <time>2020-08-26T11:16:53.357Z</time>
      </trkpt>
      <trkpt lat="48.598686" lon="16.705793">
        <ele>227.248250</ele>
        <time>2020-08-26T11:16:55.362Z</time>
      </trkpt>
      <trkpt lat="48.598681" lon="16.705653">
        <ele>227.270015</ele>
        <time>2020-08-26T11:16:57.410Z</time>
      </trkpt>
      <trkpt lat="48.598653" lon="16.705464">
        <ele>227.300082</ele>
        <time>2020-08-26T11:17:00.363Z</time>
      </trkpt>
      <trkpt lat="48.598625" lon="16.705334">
        <ele>227.321306</ele>
        <time>2020-08-26T11:17:02.364Z</time>
      </trkpt>
      <trkpt lat="48.598602" lon="16.705202">
        <ele>227.342497</ele>
        <time>2020-08-26T11:17:04.377Z</time>
      </trkpt>
      <trkpt lat="48.598561" lon="16.705010">
        <ele>227.373818</ele>
        <time>2020-08-26T11:17:07.359Z</time>
      </trkpt>
      <trkpt lat="48.598526" lon="16.704815">
        <ele>227.405185</ele>
        <time>2020-08-26T11:17:10.376Z</time>
      </trkpt>
      <trkpt lat="48.598494" lon="16.704630">
        <ele>227.434870</ele>
        <time>2020-08-26T11:17:13.368Z</time>
      </trkpt>
      <trkpt lat="48.598458" lon="16.704449">
        <ele>227.464212</ele>
        <time>2020-08-26T11:17:16.381Z</time>
      </trkpt>
      <trkpt lat="48.598424" lon="16.704280">
        <ele>227.491635</ele>
        <time>2020-08-26T11:17:19.406Z</time>
      </trkpt>
      <trkpt lat="48.598370" lon="16.704131">
        <ele>227.539675</ele>
        <time>2020-08-26T11:17:22.382Z</time>
      </trkpt>
      <trkpt lat="48.598311" lon="16.703995">
        <ele>227.598292</ele>
        <time>2020-08-26T11:17:25.363Z</time>
      </trkpt>
      <trkpt lat="48.598266" lon="16.703832">
        <ele>227.661947</ele>
        <time>2020-08-26T11:17:29.349Z</time>
      </trkpt>
      <trkpt lat="48.598258" lon="16.703681">
        <ele>227.716539</ele>
        <time>2020-08-26T11:17:33.357Z</time>
      </trkpt>
      <trkpt lat="48.598241" lon="16.703525">
        <ele>227.773517</ele>
        <time>2020-08-26T11:17:37.366Z</time>
      </trkpt>
      <trkpt lat="48.598225" lon="16.703373">
        <ele>227.828985</ele>
        <time>2020-08-26T11:17:41.373Z</time>
      </trkpt>
      <trkpt lat="48.598219" lon="16.703234">
        <ele>227.879184</ele>
        <time>2020-08-26T11:17:44.351Z</time>
      </trkpt>
      <trkpt lat="48.598217" lon="16.703066">
        <ele>227.939738</ele>
        <time>2020-08-26T11:17:47.382Z</time>
      </trkpt>
      <trkpt lat="48.598220" lon="16.702929">
        <ele>227.989138</ele>
        <time>2020-08-26T11:17:49.363Z</time>
      </trkpt>
      <trkpt lat="48.598215" lon="16.702773">
        <ele>228.045424</ele>
        <time>2020-08-26T11:17:51.369Z</time>
      </trkpt>
      <trkpt lat="48.598203" lon="16.702598">
        <ele>228.108829</ele>
        <time>2020-08-26T11:17:53.357Z</time>
      </trkpt>
      <trkpt lat="48.598190" lon="16.702404">
        <ele>228.179101</ele>
        <time>2020-08-26T11:17:55.363Z</time>
      </trkpt>
      <trkpt lat="48.598181" lon="16.702214">
        <ele>228.247749</ele>
        <time>2020-08-26T11:17:57.369Z</time>
      </trkpt>
      <trkpt lat="48.598176" lon="16.702042">
        <ele>228.309795</ele>
        <time>2020-08-26T11:17:59.376Z</time>
      </trkpt>
      <trkpt lat="48.598182" lon="16.701897">
        <ele>228.362153</ele>
        <time>2020-08-26T11:18:01.380Z</time>
      </trkpt>
      <trkpt lat="48.598185" lon="16.701720">
        <ele>228.425962</ele>
        <time>2020-08-26T11:18:04.396Z</time>
      </trkpt>
      <trkpt lat="48.598191" lon="16.701557">
        <ele>228.483760</ele>
        <time>2020-08-26T11:18:07.352Z</time>
      </trkpt>
      <trkpt lat="48.598184" lon="16.701371">
        <ele>228.528048</ele>
        <time>2020-08-26T11:18:10.415Z</time>
      </trkpt>
      <trkpt lat="48.598189" lon="16.701216">
        <ele>228.564939</ele>
        <time>2020-08-26T11:18:12.351Z</time>
      </trkpt>
      <trkpt lat="48.598196" lon="16.701038">
        <ele>228.607328</ele>
        <time>2020-08-26T11:18:14.367Z</time>
      </trkpt>
      <trkpt lat="48.598201" lon="16.700840">
        <ele>228.654431</ele>
        <time>2020-08-26T11:18:16.363Z</time>
      </trkpt>
      <trkpt lat="48.598204" lon="16.700632">
        <ele>228.703889</ele>
        <time>2020-08-26T11:18:18.348Z</time>
      </trkpt>
      <trkpt lat="48.598207" lon="16.700447">
        <ele>228.747880</ele>
        <time>2020-08-26T11:18:20.351Z</time>
      </trkpt>
      <trkpt lat="48.598213" lon="16.700286">
        <ele>228.786214</ele>
        <time>2020-08-26T11:18:22.383Z</time>
      </trkpt>
      <trkpt lat="48.598225" lon="16.700149">
        <ele>228.819066</ele>
        <time>2020-08-26T11:18:24.426Z</time>
      </trkpt>
      <trkpt lat="48.598241" lon="16.699988">
        <ele>228.857769</ele>
        <time>2020-08-26T11:18:27.383Z</time>
      </trkpt>
      <trkpt lat="48.598254" lon="16.699846">
        <ele>228.891847</ele>
        <time>2020-08-26T11:18:30.362Z</time>
      </trkpt>
      <trkpt lat="48.598274" lon="16.699703">
        <ele>228.926593</ele>
        <time>2020-08-26T11:18:33.396Z</time>
      </trkpt>
      <trkpt lat="48.598312" lon="16.699545">
        <ele>228.966560</ele>
        <time>2020-08-26T11:18:36.352Z</time>
      </trkpt>
      <trkpt lat="48.598375" lon="16.699384">
        <ele>229.011031</ele>
        <time>2020-08-26T11:18:39.391Z</time>
      </trkpt>
      <trkpt lat="48.598426" lon="16.699233">
        <ele>229.051337</ele>
        <time>2020-08-26T11:18:42.388Z</time>
      </trkpt>
      <trkpt lat="48.598479" lon="16.699085">
        <ele>229.091346</ele>
        <time>2020-08-26T11:18:45.402Z</time>
      </trkpt>
      <trkpt lat="48.598538" lon="16.698928">
        <ele>229.133205</ele>
        <time>2020-08-26T11:18:48.400Z</time>
      </trkpt>
      <trkpt lat="48.598590" lon="16.698802">
        <ele>229.162208</ele>
        <time>2020-08-26T11:18:50.378Z</time>
      </trkpt>
      <trkpt lat="48.598631" lon="16.698673">
        <ele>229.190158</ele>
        <time>2020-08-26T11:18:52.365Z</time>
      </trkpt>
      <trkpt lat="48.598667" lon="16.698528">
        <ele>229.220403</ele>
        <time>2020-08-26T11:18:54.376Z</time>
      </trkpt>
      <trkpt lat="48.598691" lon="16.698375">
        <ele>229.251111</ele>
        <time>2020-08-26T11:18:56.391Z</time>
      </trkpt>
      <trkpt lat="48.598705" lon="16.698212">
        <ele>229.283209</ele>
        <time>2020-08-26T11:18:58.374Z</time>
      </trkpt>
      <trkpt lat="48.598733" lon="16.698043">
        <ele>229.317231</ele>
        <time>2020-08-26T11:19:00.362Z</time>
      </trkpt>
      <trkpt lat="48.598759" lon="16.697849">
        <ele>229.355886</ele>
        <time>2020-08-26T11:19:02.387Z</time>
      </trkpt>
      <trkpt lat="48.598786" lon="16.697630">
        <ele>229.399390</ele>
        <time>2020-08-26T11:19:04.378Z</time>
      </trkpt>
      <trkpt lat="48.598796" lon="16.697394">
        <ele>229.445571</ele>
        <time>2020-08-26T11:19:06.368Z</time>
      </trkpt>
      <trkpt lat="48.598757" lon="16.697144">
        <ele>229.495731</ele>
        <time>2020-08-26T11:19:08.364Z</time>
      </trkpt>
      <trkpt lat="48.598701" lon="16.696914">
        <ele>229.543593</ele>
        <time>2020-08-26T11:19:10.364Z</time>
      </trkpt>
      <trkpt lat="48.598696" lon="16.696733">
        <ele>229.578970</ele>
        <time>2020-08-26T11:19:12.361Z</time>
      </trkpt>
      <trkpt lat="48.598649" lon="16.696605">
        <ele>229.607560</ele>
        <time>2020-08-26T11:19:14.358Z</time>
      </trkpt>
      <trkpt lat="48.598563" lon="16.696532">
        <ele>229.636683</ele>
        <time>2020-08-26T11:19:16.366Z</time>
      </trkpt>
      <trkpt lat="48.598497" lon="16.696435">
        <ele>229.672873</ele>
        <time>2020-08-26T11:19:18.368Z</time>
      </trkpt>
      <trkpt lat="48.598435" lon="16.696328">
        <ele>229.756848</ele>
        <time>2020-08-26T11:19:20.364Z</time>
      </trkpt>
      <trkpt lat="48.598358" lon="16.696178">
        <ele>229.868936</ele>
        <time>2020-08-26T11:19:23.359Z</time>
      </trkpt>
      <trkpt lat="48.598294" lon="16.696017">
        <ele>229.979820</ele>
        <time>2020-08-26T11:19:26.379Z</time>
      </trkpt>
      <trkpt lat="48.598241" lon="16.695858">
        <ele>230.084925</ele>
        <time>2020-08-26T11:19:29.394Z</time>
      </trkpt>
      <trkpt lat="48.598192" lon="16.695706">
        <ele>230.184742</ele>
        <time>2020-08-26T11:19:32.374Z</time>
      </trkpt>
      <trkpt lat="48.598148" lon="16.695558">
        <ele>230.280527</ele>
        <time>2020-08-26T11:19:35.370Z</time>
      </trkpt>
      <trkpt lat="48.598107" lon="16.695410">
        <ele>230.375246</ele>
        <time>2020-08-26T11:19:38.359Z</time>
      </trkpt>
      <trkpt lat="48.598064" lon="16.695258">
        <ele>230.472835</ele>
        <time>2020-08-26T11:19:41.359Z</time>
      </trkpt>
      <trkpt lat="48.598035" lon="16.695106">
        <ele>230.566220</ele>
        <time>2020-08-26T11:19:44.364Z</time>
      </trkpt>
      <trkpt lat="48.598003" lon="16.694961">
        <ele>230.656453</ele>
        <time>2020-08-26T11:19:47.354Z</time>
      </trkpt>
      <trkpt lat="48.597977" lon="16.694808">
        <ele>230.749702</ele>
        <time>2020-08-26T11:19:50.376Z</time>
      </trkpt>
      <trkpt lat="48.597948" lon="16.694655">
        <ele>230.843654</ele>
        <time>2020-08-26T11:19:53.372Z</time>
      </trkpt>
      <trkpt lat="48.597900" lon="16.694480">
        <ele>230.955488</ele>
        <time>2020-08-26T11:19:56.394Z</time>
      </trkpt>
      <trkpt lat="48.597868" lon="16.694351">
        <ele>231.036817</ele>
        <time>2020-08-26T11:19:58.397Z</time>
      </trkpt>
      <trkpt lat="48.597830" lon="16.694226">
        <ele>231.118027</ele>
        <time>2020-08-26T11:20:00.367Z</time>
      </trkpt>
      <trkpt lat="48.597785" lon="16.694098">
        <ele>231.203597</ele>
        <time>2020-08-26T11:20:02.358Z</time>
      </trkpt>
      <trkpt lat="48.597729" lon="16.693976">
        <ele>231.279012</ele>
        <time>2020-08-26T11:20:04.365Z</time>
      </trkpt>
      <trkpt lat="48.597651" lon="16.693866">
        <ele>231.330083</ele>
        <time>2020-08-26T11:20:06.360Z</time>
      </trkpt>
      <trkpt lat="48.597554" lon="16.693757">
        <ele>231.387949</ele>
        <time>2020-08-26T11:20:08.372Z</time>
      </trkpt>
      <trkpt lat="48.597451" lon="16.693642">
        <ele>231.449256</ele>
        <time>2020-08-26T11:20:10.396Z</time>
      </trkpt>
      <trkpt lat="48.597354" lon="16.693528">
        <ele>231.508081</ele>
        <time>2020-08-26T11:20:12.362Z</time>
      </trkpt>
      <trkpt lat="48.597260" lon="16.693419">
        <ele>231.564801</ele>
        <time>2020-08-26T11:20:14.380Z</time>
      </trkpt>
      <trkpt lat="48.597168" lon="16.693318">
        <ele>231.619239</ele>
        <time>2020-08-26T11:20:16.360Z</time>
      </trkpt>
      <trkpt lat="48.597079" lon="16.693250">
        <ele>231.666986</ele>
        <time>2020-08-26T11:20:18.373Z</time>
      </trkpt>
      <trkpt lat="48.596981" lon="16.693215">
        <ele>231.715201</ele>
        <time>2020-08-26T11:20:20.365Z</time>
      </trkpt>
      <trkpt lat="48.596884" lon="16.693180">
        <ele>231.762951</ele>
        <time>2020-08-26T11:20:22.364Z</time>
      </trkpt>
      <trkpt lat="48.596788" lon="16.693134">
        <ele>231.811171</ele>
        <time>2020-08-26T11:20:24.366Z</time>
      </trkpt>
      <trkpt lat="48.596693" lon="16.693090">
        <ele>231.858745</ele>
        <time>2020-08-26T11:20:26.410Z</time>
      </trkpt>
      <trkpt lat="48.596605" lon="16.693022">
        <ele>231.906064</ele>
        <time>2020-08-26T11:20:28.383Z</time>
      </trkpt>
      <trkpt lat="48.596532" lon="16.692926">
        <ele>231.952389</ele>
        <time>2020-08-26T11:20:30.362Z</time>
      </trkpt>
      <trkpt lat="48.596481" lon="16.692809">
        <ele>231.996763</ele>
        <time>2020-08-26T11:20:32.374Z</time>
      </trkpt>
      <trkpt lat="48.596436" lon="16.692635">
        <ele>232.055927</ele>
        <time>2020-08-26T11:20:35.382Z</time>
      </trkpt>
      <trkpt lat="48.596419" lon="16.692458">
        <ele>232.112566</ele>
        <time>2020-08-26T11:20:38.366Z</time>
      </trkpt>
      <trkpt lat="48.596423" lon="16.692287">
        <ele>232.132492</ele>
        <time>2020-08-26T11:20:41.367Z</time>
      </trkpt>
      <trkpt lat="48.596428" lon="16.692122">
        <ele>232.140756</ele>
        <time>2020-08-26T11:20:44.355Z</time>
      </trkpt>
      <trkpt lat="48.596430" lon="16.691964">
        <ele>232.148662</ele>
        <time>2020-08-26T11:20:47.367Z</time>
      </trkpt>
      <trkpt lat="48.596427" lon="16.691784">
        <ele>232.157671</ele>
        <time>2020-08-26T11:20:50.377Z</time>
      </trkpt>
      <trkpt lat="48.596427" lon="16.691605">
        <ele>232.166627</ele>
        <time>2020-08-26T11:20:53.385Z</time>
      </trkpt>
      <trkpt lat="48.596456" lon="16.691418">
        <ele>232.176236</ele>
        <time>2020-08-26T11:20:56.368Z</time>
      </trkpt>
      <trkpt lat="48.596478" lon="16.691283">
        <ele>232.183193</ele>
        <time>2020-08-26T11:20:58.378Z</time>
      </trkpt>
      <trkpt lat="48.596500" lon="16.691138">
        <ele>232.190636</ele>
        <time>2020-08-26T11:21:00.362Z</time>
      </trkpt>
      <trkpt lat="48.596518" lon="16.690992">
        <ele>232.198066</ele>
        <time>2020-08-26T11:21:02.353Z</time>
      </trkpt>
      <trkpt lat="48.596539" lon="16.690854">
        <ele>232.205151</ele>
        <time>2020-08-26T11:21:04.381Z</time>
      </trkpt>
      <trkpt lat="48.596558" lon="16.690707">
        <ele>232.212645</ele>
        <time>2020-08-26T11:21:06.376Z</time>
      </trkpt>
      <trkpt lat="48.596566" lon="16.690557">
        <ele>232.220174</ele>
        <time>2020-08-26T11:21:08.353Z</time>
      </trkpt>
      <trkpt lat="48.596554" lon="16.690408">
        <ele>232.227683</ele>
        <time>2020-08-26T11:21:10.393Z</time>
      </trkpt>
      <trkpt lat="48.596537" lon="16.690269">
        <ele>232.234756</ele>
        <time>2020-08-26T11:21:12.355Z</time>
      </trkpt>
      <trkpt lat="48.596511" lon="16.690080">
        <ele>232.244414</ele>
        <time>2020-08-26T11:21:15.388Z</time>
      </trkpt>
      <trkpt lat="48.596487" lon="16.689882">
        <ele>232.254485</ele>
        <time>2020-08-26T11:21:18.368Z</time>
      </trkpt>
      <trkpt lat="48.596465" lon="16.689680">
        <ele>232.265839</ele>
        <time>2020-08-26T11:21:21.380Z</time>
      </trkpt>
      <trkpt lat="48.596441" lon="16.689485">
        <ele>232.280007</ele>
        <time>2020-08-26T11:21:24.409Z</time>
      </trkpt>
      <trkpt lat="48.596401" lon="16.689306">
        <ele>232.293504</ele>
        <time>2020-08-26T11:21:27.382Z</time>
      </trkpt>
      <trkpt lat="48.596351" lon="16.689137">
        <ele>232.306729</ele>
        <time>2020-08-26T11:21:30.360Z</time>
      </trkpt>
      <trkpt lat="48.596301" lon="16.688970">
        <ele>232.319823</ele>
        <time>2020-08-26T11:21:33.359Z</time>
      </trkpt>
      <trkpt lat="48.596248" lon="16.688804">
        <ele>232.332990</ele>
        <time>2020-08-26T11:21:36.361Z</time>
      </trkpt>
      <trkpt lat="48.596187" lon="16.688657">
        <ele>232.345387</ele>
        <time>2020-08-26T11:21:39.370Z</time>
      </trkpt>
      <trkpt lat="48.596131" lon="16.688512">
        <ele>232.357381</ele>
        <time>2020-08-26T11:21:42.380Z</time>
      </trkpt>
      <trkpt lat="48.596078" lon="16.688375">
        <ele>232.368719</ele>
        <time>2020-08-26T11:21:45.364Z</time>
      </trkpt>
      <trkpt lat="48.596026" lon="16.688249">
        <ele>232.379328</ele>
        <time>2020-08-26T11:21:48.361Z</time>
      </trkpt>
      <trkpt lat="48.595975" lon="16.688111">
        <ele>232.390620</ele>
        <time>2020-08-26T11:21:51.382Z</time>
      </trkpt>
      <trkpt lat="48.595930" lon="16.687983">
        <ele>232.400975</ele>
        <time>2020-08-26T11:21:54.365Z</time>
      </trkpt>
      <trkpt lat="48.595884" lon="16.687850">
        <ele>232.411697</ele>
        <time>2020-08-26T11:21:57.394Z</time>
      </trkpt>
      <trkpt lat="48.595830" lon="16.687704">
        <ele>232.423646</ele>
        <time>2020-08-26T11:22:00.359Z</time>
      </trkpt>
      <trkpt lat="48.595774" lon="16.687573">
        <ele>232.434788</ele>
        <time>2020-08-26T11:22:03.367Z</time>
      </trkpt>
      <trkpt lat="48.595721" lon="16.687426">
        <ele>232.446748</ele>
        <time>2020-08-26T11:22:06.355Z</time>
      </trkpt>
      <trkpt lat="48.595669" lon="16.687285">
        <ele>232.460338</ele>
        <time>2020-08-26T11:22:09.373Z</time>
      </trkpt>
      <trkpt lat="48.595615" lon="16.687148">
        <ele>232.484194</ele>
        <time>2020-08-26T11:22:12.364Z</time>
      </trkpt>
      <trkpt lat="48.595560" lon="16.687002">
        <ele>232.509327</ele>
        <time>2020-08-26T11:22:15.372Z</time>
      </trkpt>
      <trkpt lat="48.595502" lon="16.686850">
        <ele>232.535576</ele>
        <time>2020-08-26T11:22:18.412Z</time>
      </trkpt>
      <trkpt lat="48.595447" lon="16.686686">
        <ele>232.563081</ele>
        <time>2020-08-26T11:22:21.378Z</time>
      </trkpt>
      <trkpt lat="48.595385" lon="16.686519">
        <ele>232.591728</ele>
        <time>2020-08-26T11:22:24.353Z</time>
      </trkpt>
      <trkpt lat="48.595351" lon="16.686386">
        <ele>232.613057</ele>
        <time>2020-08-26T11:22:26.352Z</time>
      </trkpt>
      <trkpt lat="48.595322" lon="16.686244">
        <ele>232.635287</ele>
        <time>2020-08-26T11:22:28.351Z</time>
      </trkpt>
      <trkpt lat="48.595290" lon="16.686103">
        <ele>232.657585</ele>
        <time>2020-08-26T11:22:30.354Z</time>
      </trkpt>
      <trkpt lat="48.595259" lon="16.685967">
        <ele>232.679103</ele>
        <time>2020-08-26T11:22:32.456Z</time>
      </trkpt>
      <trkpt lat="48.595228" lon="16.685834">
        <ele>232.700197</ele>
        <time>2020-08-26T11:22:34.368Z</time>
      </trkpt>
      <trkpt lat="48.595198" lon="16.685701">
        <ele>232.721216</ele>
        <time>2020-08-26T11:22:36.386Z</time>
      </trkpt>
      <trkpt lat="48.595174" lon="16.685501">
        <ele>232.751621</ele>
        <time>2020-08-26T11:22:39.399Z</time>
      </trkpt>
      <trkpt lat="48.595169" lon="16.685364">
        <ele>232.772145</ele>
        <time>2020-08-26T11:22:41.365Z</time>
      </trkpt>
      <trkpt lat="48.595172" lon="16.685216">
        <ele>232.794294</ele>
        <time>2020-08-26T11:22:43.364Z</time>
      </trkpt>
      <trkpt lat="48.595178" lon="16.685059">
        <ele>232.817817</ele>
        <time>2020-08-26T11:22:45.363Z</time>
      </trkpt>
      <trkpt lat="48.595181" lon="16.684895">
        <ele>232.842358</ele>
        <time>2020-08-26T11:22:47.360Z</time>
      </trkpt>
      <trkpt lat="48.595182" lon="16.684728">
        <ele>232.865037</ele>
        <time>2020-08-26T11:22:49.388Z</time>
      </trkpt>
      <trkpt lat="48.595187" lon="16.684566">
        <ele>232.875814</ele>
        <time>2020-08-26T11:22:51.358Z</time>
      </trkpt>
      <trkpt lat="48.595191" lon="16.684398">
        <ele>232.886986</ele>
        <time>2020-08-26T11:22:53.379Z</time>
      </trkpt>
      <trkpt lat="48.595195" lon="16.684227">
        <ele>232.898357</ele>
        <time>2020-08-26T11:22:55.367Z</time>
      </trkpt>
      <trkpt lat="48.595189" lon="16.684068">
        <ele>232.908940</ele>
        <time>2020-08-26T11:22:57.369Z</time>
      </trkpt>
      <trkpt lat="48.595189" lon="16.683913">
        <ele>232.919240</ele>
        <time>2020-08-26T11:22:59.373Z</time>
      </trkpt>
      <trkpt lat="48.595190" lon="16.683757">
        <ele>232.929607</ele>
        <time>2020-08-26T11:23:01.360Z</time>
      </trkpt>
      <trkpt lat="48.595203" lon="16.683620">
        <ele>232.938805</ele>
        <time>2020-08-26T11:23:03.364Z</time>
      </trkpt>
      <trkpt lat="48.595214" lon="16.683473">
        <ele>232.948636</ele>
        <time>2020-08-26T11:23:05.370Z</time>
      </trkpt>
      <trkpt lat="48.595214" lon="16.683319">
        <ele>232.958869</ele>
        <time>2020-08-26T11:23:07.393Z</time>
      </trkpt>
      <trkpt lat="48.595208" lon="16.683159">
        <ele>232.969519</ele>
        <time>2020-08-26T11:23:09.368Z</time>
      </trkpt>
      <trkpt lat="48.595196" lon="16.683005">
        <ele>232.979824</ele>
        <time>2020-08-26T11:23:11.388Z</time>
      </trkpt>
      <trkpt lat="48.595171" lon="16.682855">
        <ele>232.990103</ele>
        <time>2020-08-26T11:23:13.384Z</time>
      </trkpt>
      <trkpt lat="48.595139" lon="16.682711">
        <ele>233.000198</ele>
        <time>2020-08-26T11:23:15.395Z</time>
      </trkpt>
      <trkpt lat="48.595106" lon="16.682572">
        <ele>233.010013</ele>
        <time>2020-08-26T11:23:17.384Z</time>
      </trkpt>
      <trkpt lat="48.595065" lon="16.682446">
        <ele>233.019344</ele>
        <time>2020-08-26T11:23:19.373Z</time>
      </trkpt>
      <trkpt lat="48.595009" lon="16.682264">
        <ele>233.032684</ele>
        <time>2020-08-26T11:23:22.400Z</time>
      </trkpt>
      <trkpt lat="48.594958" lon="16.682095">
        <ele>233.047449</ele>
        <time>2020-08-26T11:23:25.371Z</time>
      </trkpt>
      <trkpt lat="48.594914" lon="16.681947">
        <ele>233.081798</ele>
        <time>2020-08-26T11:23:28.376Z</time>
      </trkpt>
      <trkpt lat="48.594877" lon="16.681810">
        <ele>233.113123</ele>
        <time>2020-08-26T11:23:31.380Z</time>
      </trkpt>
      <trkpt lat="48.594841" lon="16.681664">
        <ele>233.146107</ele>
        <time>2020-08-26T11:23:34.365Z</time>
      </trkpt>
      <trkpt lat="48.594825" lon="16.681500">
        <ele>233.181199</ele>
        <time>2020-08-26T11:23:37.374Z</time>
      </trkpt>
      <trkpt lat="48.594813" lon="16.681301">
        <ele>233.223499</ele>
        <time>2020-08-26T11:23:40.389Z</time>
      </trkpt>
      <trkpt lat="48.594802" lon="16.681158">
        <ele>233.253974</ele>
        <time>2020-08-26T11:23:42.366Z</time>
      </trkpt>
      <trkpt lat="48.594792" lon="16.681014">
        <ele>233.284624</ele>
        <time>2020-08-26T11:23:44.371Z</time>
      </trkpt>
      <trkpt lat="48.594779" lon="16.680846">
        <ele>233.320430</ele>
        <time>2020-08-26T11:23:46.366Z</time>
      </trkpt>
      <trkpt lat="48.594774" lon="16.680675">
        <ele>233.356663</ele>
        <time>2020-08-26T11:23:48.365Z</time>
      </trkpt>
      <trkpt lat="48.594771" lon="16.680507">
        <ele>233.392239</ele>
        <time>2020-08-26T11:23:50.365Z</time>
      </trkpt>
      <trkpt lat="48.594762" lon="16.680341">
        <ele>233.427497</ele>
        <time>2020-08-26T11:23:52.384Z</time>
      </trkpt>
      <trkpt lat="48.594752" lon="16.680175">
        <ele>233.462782</ele>
        <time>2020-08-26T11:23:54.387Z</time>
      </trkpt>
      <trkpt lat="48.594737" lon="16.680014">
        <ele>233.497200</ele>
        <time>2020-08-26T11:23:56.369Z</time>
      </trkpt>
      <trkpt lat="48.594709" lon="16.679861">
        <ele>233.530805</ele>
        <time>2020-08-26T11:23:58.360Z</time>
      </trkpt>
      <trkpt lat="48.594673" lon="16.679711">
        <ele>233.564583</ele>
        <time>2020-08-26T11:24:00.351Z</time>
      </trkpt>
      <trkpt lat="48.594632" lon="16.679556">
        <ele>233.599921</ele>
        <time>2020-08-26T11:24:02.367Z</time>
      </trkpt>
      <trkpt lat="48.594598" lon="16.679408">
        <ele>233.620684</ele>
        <time>2020-08-26T11:24:04.402Z</time>
      </trkpt>
      <trkpt lat="48.594567" lon="16.679275">
        <ele>233.623077</ele>
        <time>2020-08-26T11:24:06.396Z</time>
      </trkpt>
      <trkpt lat="48.594531" lon="16.679143">
        <ele>233.625499</ele>
        <time>2020-08-26T11:24:08.382Z</time>
      </trkpt>
      <trkpt lat="48.594478" lon="16.678956">
        <ele>233.628951</ele>
        <time>2020-08-26T11:24:11.363Z</time>
      </trkpt>
      <trkpt lat="48.594441" lon="16.678763">
        <ele>233.632360</ele>
        <time>2020-08-26T11:24:14.376Z</time>
      </trkpt>
      <trkpt lat="48.594420" lon="16.678630">
        <ele>233.634680</ele>
        <time>2020-08-26T11:24:16.394Z</time>
      </trkpt>
      <trkpt lat="48.594382" lon="16.678438">
        <ele>233.638081</ele>
        <time>2020-08-26T11:24:19.371Z</time>
      </trkpt>
      <trkpt lat="48.594353" lon="16.678253">
        <ele>233.641307</ele>
        <time>2020-08-26T11:24:22.363Z</time>
      </trkpt>
      <trkpt lat="48.594352" lon="16.678101">
        <ele>233.643886</ele>
        <time>2020-08-26T11:24:24.384Z</time>
      </trkpt>
      <trkpt lat="48.594352" lon="16.677900">
        <ele>233.647296</ele>
        <time>2020-08-26T11:24:27.404Z</time>
      </trkpt>
      <trkpt lat="48.594350" lon="16.677712">
        <ele>233.650486</ele>
        <time>2020-08-26T11:24:30.351Z</time>
      </trkpt>
      <trkpt lat="48.594359" lon="16.677530">
        <ele>233.653583</ele>
        <time>2020-08-26T11:24:33.355Z</time>
      </trkpt>
      <trkpt lat="48.594364" lon="16.677392">
        <ele>233.655928</ele>
        <time>2020-08-26T11:24:35.358Z</time>
      </trkpt>
      <trkpt lat="48.594359" lon="16.677248">
        <ele>233.658375</ele>
        <time>2020-08-26T11:24:37.372Z</time>
      </trkpt>
      <trkpt lat="48.594356" lon="16.677111">
        <ele>233.660700</ele>
        <time>2020-08-26T11:24:39.366Z</time>
      </trkpt>
      <trkpt lat="48.594348" lon="16.676934">
        <ele>233.663711</ele>
        <time>2020-08-26T11:24:42.395Z</time>
      </trkpt>
      <trkpt lat="48.594330" lon="16.676760">
        <ele>233.667497</ele>
        <time>2020-08-26T11:24:45.369Z</time>
      </trkpt>
      <trkpt lat="48.594303" lon="16.676595">
        <ele>233.672795</ele>
        <time>2020-08-26T11:24:48.375Z</time>
      </trkpt>
      <trkpt lat="48.594281" lon="16.676438">
        <ele>233.677796</ele>
        <time>2020-08-26T11:24:51.361Z</time>
      </trkpt>
      <trkpt lat="48.594262" lon="16.676294">
        <ele>233.682373</ele>
        <time>2020-08-26T11:24:54.380Z</time>
      </trkpt>
      <trkpt lat="48.594251" lon="16.676152">
        <ele>233.686829</ele>
        <time>2020-08-26T11:24:57.365Z</time>
      </trkpt>
      <trkpt lat="48.594241" lon="16.675987">
        <ele>233.691993</ele>
        <time>2020-08-26T11:25:00.372Z</time>
      </trkpt>
      <trkpt lat="48.594230" lon="16.675827">
        <ele>233.697007</ele>
        <time>2020-08-26T11:25:03.358Z</time>
      </trkpt>
      <trkpt lat="48.594205" lon="16.675666">
        <ele>233.702161</ele>
        <time>2020-08-26T11:25:06.367Z</time>
      </trkpt>
      <trkpt lat="48.594189" lon="16.675494">
        <ele>233.707574</ele>
        <time>2020-08-26T11:25:09.389Z</time>
      </trkpt>
      <trkpt lat="48.594169" lon="16.675308">
        <ele>233.713448</ele>
        <time>2020-08-26T11:25:12.368Z</time>
      </trkpt>
      <trkpt lat="48.594143" lon="16.675116">
        <ele>233.719556</ele>
        <time>2020-08-26T11:25:15.377Z</time>
      </trkpt>
      <trkpt lat="48.594113" lon="16.674926">
        <ele>233.725644</ele>
        <time>2020-08-26T11:25:18.365Z</time>
      </trkpt>
      <trkpt lat="48.594086" lon="16.674742">
        <ele>233.731518</ele>
        <time>2020-08-26T11:25:21.380Z</time>
      </trkpt>
      <trkpt lat="48.594059" lon="16.674568">
        <ele>233.737089</ele>
        <time>2020-08-26T11:25:24.368Z</time>
      </trkpt>
      <trkpt lat="48.594027" lon="16.674385">
        <ele>233.742988</ele>
        <time>2020-08-26T11:25:27.380Z</time>
      </trkpt>
      <trkpt lat="48.593991" lon="16.674200">
        <ele>233.748998</ele>
        <time>2020-08-26T11:25:30.381Z</time>
      </trkpt>
      <trkpt lat="48.593956" lon="16.674019">
        <ele>233.751105</ele>
        <time>2020-08-26T11:25:33.366Z</time>
      </trkpt>
      <trkpt lat="48.593925" lon="16.673851">
        <ele>233.751853</ele>
        <time>2020-08-26T11:25:36.368Z</time>
      </trkpt>
      <trkpt lat="48.593891" lon="16.673673">
        <ele>233.752647</ele>
        <time>2020-08-26T11:25:39.369Z</time>
      </trkpt>
      <trkpt lat="48.593859" lon="16.673521">
        <ele>233.753331</ele>
        <time>2020-08-26T11:25:42.367Z</time>
      </trkpt>
      <trkpt lat="48.593831" lon="16.673349">
        <ele>233.754090</ele>
        <time>2020-08-26T11:25:45.370Z</time>
      </trkpt>
      <trkpt lat="48.593802" lon="16.673173">
        <ele>233.754867</ele>
        <time>2020-08-26T11:25:48.363Z</time>
      </trkpt>
      <trkpt lat="48.593769" lon="16.673008">
        <ele>233.755606</ele>
        <time>2020-08-26T11:25:51.362Z</time>
      </trkpt>
      <trkpt lat="48.593751" lon="16.672847">
        <ele>233.756306</ele>
        <time>2020-08-26T11:25:54.369Z</time>
      </trkpt>
      <trkpt lat="48.593737" lon="16.672688">
        <ele>233.756994</ele>
        <time>2020-08-26T11:25:57.362Z</time>
      </trkpt>
      <trkpt lat="48.593730" lon="16.672521">
        <ele>233.757711</ele>
        <time>2020-08-26T11:26:00.384Z</time>
      </trkpt>
      <trkpt lat="48.593772" lon="16.672355">
        <ele>233.758473</ele>
        <time>2020-08-26T11:26:03.355Z</time>
      </trkpt>
      <trkpt lat="48.593808" lon="16.672192">
        <ele>233.759209</ele>
        <time>2020-08-26T11:26:06.358Z</time>
      </trkpt>
      <trkpt lat="48.593792" lon="16.672044">
        <ele>233.759852</ele>
        <time>2020-08-26T11:26:09.355Z</time>
      </trkpt>
      <trkpt lat="48.593780" lon="16.671875">
        <ele>233.760581</ele>
        <time>2020-08-26T11:26:12.366Z</time>
      </trkpt>
      <trkpt lat="48.593750" lon="16.671723">
        <ele>233.761261</ele>
        <time>2020-08-26T11:26:15.376Z</time>
      </trkpt>
      <trkpt lat="48.593719" lon="16.671543">
        <ele>233.762058</ele>
        <time>2020-08-26T11:26:18.385Z</time>
      </trkpt>
      <trkpt lat="48.593676" lon="16.671353">
        <ele>233.764964</ele>
        <time>2020-08-26T11:26:21.367Z</time>
      </trkpt>
      <trkpt lat="48.593633" lon="16.671157">
        <ele>233.768237</ele>
        <time>2020-08-26T11:26:24.419Z</time>
      </trkpt>
      <trkpt lat="48.593617" lon="16.671005">
        <ele>233.770677</ele>
        <time>2020-08-26T11:26:26.378Z</time>
      </trkpt>
      <trkpt lat="48.593608" lon="16.670865">
        <ele>233.772906</ele>
        <time>2020-08-26T11:26:28.405Z</time>
      </trkpt>
      <trkpt lat="48.593598" lon="16.670715">
        <ele>233.775296</ele>
        <time>2020-08-26T11:26:30.360Z</time>
      </trkpt>
      <trkpt lat="48.593570" lon="16.670564">
        <ele>233.777782</ele>
        <time>2020-08-26T11:26:32.357Z</time>
      </trkpt>
      <trkpt lat="48.593540" lon="16.670411">
        <ele>233.780311</ele>
        <time>2020-08-26T11:26:34.366Z</time>
      </trkpt>
      <trkpt lat="48.593492" lon="16.670280">
        <ele>233.782685</ele>
        <time>2020-08-26T11:26:36.379Z</time>
      </trkpt>
      <trkpt lat="48.593434" lon="16.670166">
        <ele>233.784965</ele>
        <time>2020-08-26T11:26:38.349Z</time>
      </trkpt>
      <trkpt lat="48.593382" lon="16.670051">
        <ele>233.787173</ele>
        <time>2020-08-26T11:26:40.358Z</time>
      </trkpt>
      <trkpt lat="48.593311" lon="16.669894">
        <ele>233.790187</ele>
        <time>2020-08-26T11:26:43.386Z</time>
      </trkpt>
      <trkpt lat="48.593245" lon="16.669737">
        <ele>233.793136</ele>
        <time>2020-08-26T11:26:46.392Z</time>
      </trkpt>
      <trkpt lat="48.593183" lon="16.669589">
        <ele>233.795913</ele>
        <time>2020-08-26T11:26:49.367Z</time>
      </trkpt>
      <trkpt lat="48.593130" lon="16.669462">
        <ele>233.798293</ele>
        <time>2020-08-26T11:26:52.368Z</time>
      </trkpt>
      <trkpt lat="48.593074" lon="16.669349">
        <ele>233.800531</ele>
        <time>2020-08-26T11:26:55.372Z</time>
      </trkpt>
      <trkpt lat="48.593028" lon="16.669193">
        <ele>233.803239</ele>
        <time>2020-08-26T11:26:59.373Z</time>
      </trkpt>
      <trkpt lat="48.592981" lon="16.669040">
        <ele>233.808169</ele>
        <time>2020-08-26T11:27:03.358Z</time>
      </trkpt>
      <trkpt lat="48.592922" lon="16.668904">
        <ele>233.819738</ele>
        <time>2020-08-26T11:27:07.380Z</time>
      </trkpt>
      <trkpt lat="48.592863" lon="16.668766">
        <ele>233.831426</ele>
        <time>2020-08-26T11:27:11.369Z</time>
      </trkpt>
      <trkpt lat="48.592805" lon="16.668636">
        <ele>233.842580</ele>
        <time>2020-08-26T11:27:15.361Z</time>
      </trkpt>
      <trkpt lat="48.592754" lon="16.668487">
        <ele>233.854513</ele>
        <time>2020-08-26T11:27:19.349Z</time>
      </trkpt>
      <trkpt lat="48.592706" lon="16.668336">
        <ele>233.866430</ele>
        <time>2020-08-26T11:27:23.365Z</time>
      </trkpt>
      <trkpt lat="48.592645" lon="16.668191">
        <ele>233.878654</ele>
        <time>2020-08-26T11:27:27.366Z</time>
      </trkpt>
      <trkpt lat="48.592590" lon="16.668060">
        <ele>233.889690</ele>
        <time>2020-08-26T11:27:30.358Z</time>
      </trkpt>
      <trkpt lat="48.592523" lon="16.667915">
        <ele>233.902272</ele>
        <time>2020-08-26T11:27:33.387Z</time>
      </trkpt>
      <trkpt lat="48.592451" lon="16.667819">
        <ele>233.912596</ele>
        <time>2020-08-26T11:27:35.351Z</time>
      </trkpt>
      <trkpt lat="48.592373" lon="16.667718">
        <ele>233.923640</ele>
        <time>2020-08-26T11:27:37.395Z</time>
      </trkpt>
      <trkpt lat="48.592292" lon="16.667623">
        <ele>233.934665</ele>
        <time>2020-08-26T11:27:39.368Z</time>
      </trkpt>
      <trkpt lat="48.592209" lon="16.667535">
        <ele>233.945567</ele>
        <time>2020-08-26T11:27:41.371Z</time>
      </trkpt>
      <trkpt lat="48.592105" lon="16.667427">
        <ele>233.959136</ele>
        <time>2020-08-26T11:27:44.372Z</time>
      </trkpt>
      <trkpt lat="48.592016" lon="16.667346">
        <ele>233.970308</ele>
        <time>2020-08-26T11:27:47.360Z</time>
      </trkpt>
      <trkpt lat="48.591939" lon="16.667263">
        <ele>233.980478</ele>
        <time>2020-08-26T11:27:50.387Z</time>
      </trkpt>
      <trkpt lat="48.591841" lon="16.667154">
        <ele>233.993562</ele>
        <time>2020-08-26T11:27:54.368Z</time>
      </trkpt>
      <trkpt lat="48.591767" lon="16.667076">
        <ele>234.005923</ele>
        <time>2020-08-26T11:27:57.355Z</time>
      </trkpt>
      <trkpt lat="48.591668" lon="16.666984">
        <ele>234.025702</ele>
        <time>2020-08-26T11:28:01.388Z</time>
      </trkpt>
      <trkpt lat="48.591581" lon="16.666916">
        <ele>234.042372</ele>
        <time>2020-08-26T11:28:04.401Z</time>
      </trkpt>
      <trkpt lat="48.591483" lon="16.666839">
        <ele>234.061171</ele>
        <time>2020-08-26T11:28:07.374Z</time>
      </trkpt>
      <trkpt lat="48.591385" lon="16.666761">
        <ele>234.080022</ele>
        <time>2020-08-26T11:28:10.389Z</time>
      </trkpt>
      <trkpt lat="48.591289" lon="16.666660">
        <ele>234.099929</ele>
        <time>2020-08-26T11:28:13.359Z</time>
      </trkpt>
      <trkpt lat="48.591220" lon="16.666571">
        <ele>234.115367</ele>
        <time>2020-08-26T11:28:15.371Z</time>
      </trkpt>
      <trkpt lat="48.591159" lon="16.666468">
        <ele>234.130932</ele>
        <time>2020-08-26T11:28:17.375Z</time>
      </trkpt>
      <trkpt lat="48.591100" lon="16.666349">
        <ele>234.147675</ele>
        <time>2020-08-26T11:28:19.359Z</time>
      </trkpt>
      <trkpt lat="48.591047" lon="16.666206">
        <ele>234.166129</ele>
        <time>2020-08-26T11:28:21.371Z</time>
      </trkpt>
      <trkpt lat="48.590999" lon="16.666060">
        <ele>234.184485</ele>
        <time>2020-08-26T11:28:23.353Z</time>
      </trkpt>
      <trkpt lat="48.590953" lon="16.665906">
        <ele>234.203508</ele>
        <time>2020-08-26T11:28:25.378Z</time>
      </trkpt>
      <trkpt lat="48.590914" lon="16.665746">
        <ele>234.222706</ele>
        <time>2020-08-26T11:28:27.379Z</time>
      </trkpt>
      <trkpt lat="48.590866" lon="16.665594">
        <ele>234.241669</ele>
        <time>2020-08-26T11:28:29.383Z</time>
      </trkpt>
      <trkpt lat="48.590810" lon="16.665426">
        <ele>234.262849</ele>
        <time>2020-08-26T11:28:31.369Z</time>
      </trkpt>
      <trkpt lat="48.590761" lon="16.665265">
        <ele>234.282801</ele>
        <time>2020-08-26T11:28:33.365Z</time>
      </trkpt>
      <trkpt lat="48.590707" lon="16.665098">
        <ele>234.303729</ele>
        <time>2020-08-26T11:28:35.367Z</time>
      </trkpt>
      <trkpt lat="48.590656" lon="16.664934">
        <ele>234.312994</ele>
        <time>2020-08-26T11:28:37.375Z</time>
      </trkpt>
      <trkpt lat="48.590612" lon="16.664776">
        <ele>234.321150</ele>
        <time>2020-08-26T11:28:39.380Z</time>
      </trkpt>
      <trkpt lat="48.590567" lon="16.664628">
        <ele>234.328898</ele>
        <time>2020-08-26T11:28:41.371Z</time>
      </trkpt>
      <trkpt lat="48.590529" lon="16.664484">
        <ele>234.336273</ele>
        <time>2020-08-26T11:28:43.351Z</time>
      </trkpt>
      <trkpt lat="48.590488" lon="16.664341">
        <ele>234.343688</ele>
        <time>2020-08-26T11:28:45.370Z</time>
      </trkpt>
      <trkpt lat="48.590443" lon="16.664208">
        <ele>234.350794</ele>
        <time>2020-08-26T11:28:47.389Z</time>
      </trkpt>
      <trkpt lat="48.590402" lon="16.664080">
        <ele>234.357560</ele>
        <time>2020-08-26T11:28:49.382Z</time>
      </trkpt>
      <trkpt lat="48.590364" lon="16.663951">
        <ele>234.364277</ele>
        <time>2020-08-26T11:28:51.364Z</time>
      </trkpt>
      <trkpt lat="48.590324" lon="16.663820">
        <ele>234.371141</ele>
        <time>2020-08-26T11:28:53.357Z</time>
      </trkpt>
      <trkpt lat="48.590284" lon="16.663681">
        <ele>234.378352</ele>
        <time>2020-08-26T11:28:55.374Z</time>
      </trkpt>
      <trkpt lat="48.590248" lon="16.663535">
        <ele>234.385764</ele>
        <time>2020-08-26T11:28:57.371Z</time>
      </trkpt>
      <trkpt lat="48.590209" lon="16.663392">
        <ele>234.393122</ele>
        <time>2020-08-26T11:28:59.361Z</time>
      </trkpt>
      <trkpt lat="48.590164" lon="16.663242">
        <ele>234.400957</ele>
        <time>2020-08-26T11:29:01.374Z</time>
      </trkpt>
      <trkpt lat="48.590114" lon="16.663094">
        <ele>234.408863</ele>
        <time>2020-08-26T11:29:03.384Z</time>
      </trkpt>
      <trkpt lat="48.590068" lon="16.662942">
        <ele>234.416815</ele>
        <time>2020-08-26T11:29:05.379Z</time>
      </trkpt>
      <trkpt lat="48.590022" lon="16.662785">
        <ele>234.424983</ele>
        <time>2020-08-26T11:29:07.374Z</time>
      </trkpt>
      <trkpt lat="48.589978" lon="16.662633">
        <ele>234.432876</ele>
        <time>2020-08-26T11:29:09.365Z</time>
      </trkpt>
      <trkpt lat="48.589935" lon="16.662480">
        <ele>234.440653</ele>
        <time>2020-08-26T11:29:11.393Z</time>
      </trkpt>
      <trkpt lat="48.589889" lon="16.662330">
        <ele>234.448361</ele>
        <time>2020-08-26T11:29:13.350Z</time>
      </trkpt>
      <trkpt lat="48.589845" lon="16.662180">
        <ele>234.456011</ele>
        <time>2020-08-26T11:29:15.372Z</time>
      </trkpt>
      <trkpt lat="48.589806" lon="16.662036">
        <ele>234.463265</ele>
        <time>2020-08-26T11:29:17.378Z</time>
      </trkpt>
      <trkpt lat="48.589782" lon="16.661902">
        <ele>234.469738</ele>
        <time>2020-08-26T11:29:19.362Z</time>
      </trkpt>
      <trkpt lat="48.589749" lon="16.661716">
        <ele>234.478716</ele>
        <time>2020-08-26T11:29:22.368Z</time>
      </trkpt>
      <trkpt lat="48.589743" lon="16.661522">
        <ele>234.487770</ele>
        <time>2020-08-26T11:29:25.376Z</time>
      </trkpt>
      <trkpt lat="48.589741" lon="16.661322">
        <ele>234.497095</ele>
        <time>2020-08-26T11:29:28.369Z</time>
      </trkpt>
      <trkpt lat="48.589748" lon="16.661183">
        <ele>234.503594</ele>
        <time>2020-08-26T11:29:30.368Z</time>
      </trkpt>
      <trkpt lat="48.589766" lon="16.661045">
        <ele>234.510152</ele>
        <time>2020-08-26T11:29:32.363Z</time>
      </trkpt>
      <trkpt lat="48.589779" lon="16.660906">
        <ele>234.516697</ele>
        <time>2020-08-26T11:29:34.361Z</time>
      </trkpt>
      <trkpt lat="48.589744" lon="16.660721">
        <ele>234.525668</ele>
        <time>2020-08-26T11:29:37.381Z</time>
      </trkpt>
      <trkpt lat="48.589670" lon="16.660582">
        <ele>234.533986</ele>
        <time>2020-08-26T11:29:40.380Z</time>
      </trkpt>
      <trkpt lat="48.589590" lon="16.660457">
        <ele>234.542095</ele>
        <time>2020-08-26T11:29:42.359Z</time>
      </trkpt>
      <trkpt lat="48.589510" lon="16.660325">
        <ele>234.550442</ele>
        <time>2020-08-26T11:29:44.361Z</time>
      </trkpt>
      <trkpt lat="48.589433" lon="16.660191">
        <ele>234.558717</ele>
        <time>2020-08-26T11:29:46.399Z</time>
      </trkpt>
      <trkpt lat="48.589361" lon="16.660055">
        <ele>234.577893</ele>
        <time>2020-08-26T11:29:48.375Z</time>
      </trkpt>
      <trkpt lat="48.589294" lon="16.659917">
        <ele>234.600928</ele>
        <time>2020-08-26T11:29:50.353Z</time>
      </trkpt>
      <trkpt lat="48.589247" lon="16.659770">
        <ele>234.622898</ele>
        <time>2020-08-26T11:29:52.378Z</time>
      </trkpt>
      <trkpt lat="48.589189" lon="16.659628">
        <ele>234.645355</ele>
        <time>2020-08-26T11:29:54.370Z</time>
      </trkpt>
      <trkpt lat="48.589133" lon="16.659489">
        <ele>234.667256</ele>
        <time>2020-08-26T11:29:56.386Z</time>
      </trkpt>
      <trkpt lat="48.589078" lon="16.659354">
        <ele>234.688591</ele>
        <time>2020-08-26T11:29:58.368Z</time>
      </trkpt>
      <trkpt lat="48.589025" lon="16.659218">
        <ele>234.709832</ele>
        <time>2020-08-26T11:30:00.359Z</time>
      </trkpt>
      <trkpt lat="48.588973" lon="16.659071">
        <ele>234.732263</ele>
        <time>2020-08-26T11:30:02.369Z</time>
      </trkpt>
      <trkpt lat="48.588934" lon="16.658923">
        <ele>234.753701</ele>
        <time>2020-08-26T11:30:04.378Z</time>
      </trkpt>
      <trkpt lat="48.588896" lon="16.658773">
        <ele>234.775315</ele>
        <time>2020-08-26T11:30:06.373Z</time>
      </trkpt>
      <trkpt lat="48.588862" lon="16.658629">
        <ele>234.795890</ele>
        <time>2020-08-26T11:30:08.391Z</time>
      </trkpt>
      <trkpt lat="48.588830" lon="16.658487">
        <ele>234.816076</ele>
        <time>2020-08-26T11:30:10.354Z</time>
      </trkpt>
      <trkpt lat="48.588805" lon="16.658346">
        <ele>234.835719</ele>
        <time>2020-08-26T11:30:12.364Z</time>
      </trkpt>
      <trkpt lat="48.588780" lon="16.658209">
        <ele>234.854843</ele>
        <time>2020-08-26T11:30:14.377Z</time>
      </trkpt>
      <trkpt lat="48.588747" lon="16.658015">
        <ele>234.881798</ele>
        <time>2020-08-26T11:30:17.368Z</time>
      </trkpt>
      <trkpt lat="48.588717" lon="16.657829">
        <ele>234.907560</ele>
        <time>2020-08-26T11:30:20.392Z</time>
      </trkpt>
      <trkpt lat="48.588691" lon="16.657698">
        <ele>234.925964</ele>
        <time>2020-08-26T11:30:22.389Z</time>
      </trkpt>
      <trkpt lat="48.588674" lon="16.657559">
        <ele>234.949744</ele>
        <time>2020-08-26T11:30:24.393Z</time>
      </trkpt>
      <trkpt lat="48.588660" lon="16.657415">
        <ele>234.974477</ele>
        <time>2020-08-26T11:30:26.379Z</time>
      </trkpt>
      <trkpt lat="48.588647" lon="16.657268">
        <ele>234.999679</ele>
        <time>2020-08-26T11:30:28.371Z</time>
      </trkpt>
      <trkpt lat="48.588636" lon="16.657130">
        <ele>235.023299</ele>
        <time>2020-08-26T11:30:30.364Z</time>
      </trkpt>
      <trkpt lat="48.588630" lon="16.656992">
        <ele>235.046801</ele>
        <time>2020-08-26T11:30:32.381Z</time>
      </trkpt>
      <trkpt lat="48.588625" lon="16.656790">
        <ele>235.081151</ele>
        <time>2020-08-26T11:30:35.391Z</time>
      </trkpt>
      <trkpt lat="48.588612" lon="16.656590">
        <ele>235.115301</ele>
        <time>2020-08-26T11:30:38.364Z</time>
      </trkpt>
      <trkpt lat="48.588607" lon="16.656450">
        <ele>235.139126</ele>
        <time>2020-08-26T11:30:40.380Z</time>
      </trkpt>
      <trkpt lat="48.588596" lon="16.656310">
        <ele>235.163084</ele>
        <time>2020-08-26T11:30:42.366Z</time>
      </trkpt>
      <trkpt lat="48.588586" lon="16.656173">
        <ele>235.186506</ele>
        <time>2020-08-26T11:30:44.366Z</time>
      </trkpt>
      <trkpt lat="48.588579" lon="16.656033">
        <ele>235.210365</ele>
        <time>2020-08-26T11:30:46.405Z</time>
      </trkpt>
      <trkpt lat="48.588568" lon="16.655890">
        <ele>235.234829</ele>
        <time>2020-08-26T11:30:48.367Z</time>
      </trkpt>
      <trkpt lat="48.588559" lon="16.655746">
        <ele>235.259408</ele>
        <time>2020-08-26T11:30:50.355Z</time>
      </trkpt>
      <trkpt lat="48.588556" lon="16.655599">
        <ele>235.284400</ele>
        <time>2020-08-26T11:30:52.369Z</time>
      </trkpt>
      <trkpt lat="48.588550" lon="16.655452">
        <ele>235.309428</ele>
        <time>2020-08-26T11:30:54.386Z</time>
      </trkpt>
      <trkpt lat="48.588538" lon="16.655309">
        <ele>235.333923</ele>
        <time>2020-08-26T11:30:56.356Z</time>
      </trkpt>
      <trkpt lat="48.588532" lon="16.655162">
        <ele>235.358951</ele>
        <time>2020-08-26T11:30:58.367Z</time>
      </trkpt>
      <trkpt lat="48.588527" lon="16.655012">
        <ele>235.384473</ele>
        <time>2020-08-26T11:31:00.353Z</time>
      </trkpt>
      <trkpt lat="48.588518" lon="16.654858">
        <ele>235.391410</ele>
        <time>2020-08-26T11:31:02.380Z</time>
      </trkpt>
      <trkpt lat="48.588503" lon="16.654697">
        <ele>235.394513</ele>
        <time>2020-08-26T11:31:04.353Z</time>
      </trkpt>
      <trkpt lat="48.588482" lon="16.654538">
        <ele>235.397607</ele>
        <time>2020-08-26T11:31:06.379Z</time>
      </trkpt>
      <trkpt lat="48.588455" lon="16.654394">
        <ele>235.400464</ele>
        <time>2020-08-26T11:31:08.358Z</time>
      </trkpt>
      <trkpt lat="48.588431" lon="16.654247">
        <ele>235.403353</ele>
        <time>2020-08-26T11:31:10.371Z</time>
      </trkpt>
      <trkpt lat="48.588403" lon="16.654096">
        <ele>235.406346</ele>
        <time>2020-08-26T11:31:12.370Z</time>
      </trkpt>
      <trkpt lat="48.588365" lon="16.653939">
        <ele>235.409536</ele>
        <time>2020-08-26T11:31:14.364Z</time>
      </trkpt>
      <trkpt lat="48.588321" lon="16.653784">
        <ele>235.412755</ele>
        <time>2020-08-26T11:31:16.387Z</time>
      </trkpt>
      <trkpt lat="48.588279" lon="16.653642">
        <ele>235.415724</ele>
        <time>2020-08-26T11:31:18.380Z</time>
      </trkpt>
      <trkpt lat="48.588237" lon="16.653509">
        <ele>235.418536</ele>
        <time>2020-08-26T11:31:20.370Z</time>
      </trkpt>
      <trkpt lat="48.588191" lon="16.653382">
        <ele>235.421299</ele>
        <time>2020-08-26T11:31:22.357Z</time>
      </trkpt>
      <trkpt lat="48.588133" lon="16.653204">
        <ele>235.425086</ele>
        <time>2020-08-26T11:31:25.385Z</time>
      </trkpt>
      <trkpt lat="48.588080" lon="16.653065">
        <ele>235.428148</ele>
        <time>2020-08-26T11:31:28.379Z</time>
      </trkpt>
      <trkpt lat="48.588030" lon="16.652948">
        <ele>235.430806</ele>
        <time>2020-08-26T11:31:31.355Z</time>
      </trkpt>
      <trkpt lat="48.587959" lon="16.652824">
        <ele>235.433936</ele>
        <time>2020-08-26T11:31:34.367Z</time>
      </trkpt>
      <trkpt lat="48.587857" lon="16.652689">
        <ele>235.437847</ele>
        <time>2020-08-26T11:31:37.382Z</time>
      </trkpt>
      <trkpt lat="48.587797" lon="16.652586">
        <ele>235.440466</ele>
        <time>2020-08-26T11:31:39.375Z</time>
      </trkpt>
      <trkpt lat="48.587729" lon="16.652484">
        <ele>235.436946</ele>
        <time>2020-08-26T11:31:41.367Z</time>
      </trkpt>
      <trkpt lat="48.587657" lon="16.652385">
        <ele>235.432320</ele>
        <time>2020-08-26T11:31:43.357Z</time>
      </trkpt>
      <trkpt lat="48.587588" lon="16.652282">
        <ele>235.427710</ele>
        <time>2020-08-26T11:31:45.369Z</time>
      </trkpt>
      <trkpt lat="48.587523" lon="16.652167">
        <ele>235.422954</ele>
        <time>2020-08-26T11:31:47.374Z</time>
      </trkpt>
      <trkpt lat="48.587454" lon="16.652042">
        <ele>235.417835</ele>
        <time>2020-08-26T11:31:49.354Z</time>
      </trkpt>
      <trkpt lat="48.587380" lon="16.651926">
        <ele>235.412767</ele>
        <time>2020-08-26T11:31:51.369Z</time>
      </trkpt>
      <trkpt lat="48.587309" lon="16.651807">
        <ele>235.407728</ele>
        <time>2020-08-26T11:31:53.370Z</time>
      </trkpt>
      <trkpt lat="48.587236" lon="16.651687">
        <ele>235.402602</ele>
        <time>2020-08-26T11:31:55.360Z</time>
      </trkpt>
      <trkpt lat="48.587163" lon="16.651565">
        <ele>235.397429</ele>
        <time>2020-08-26T11:31:57.351Z</time>
      </trkpt>
      <trkpt lat="48.587088" lon="16.651440">
        <ele>235.392123</ele>
        <time>2020-08-26T11:31:59.364Z</time>
      </trkpt>
      <trkpt lat="48.587010" lon="16.651324">
        <ele>235.386922</ele>
        <time>2020-08-26T11:32:01.369Z</time>
      </trkpt>
      <trkpt lat="48.586935" lon="16.651208">
        <ele>235.381821</ele>
        <time>2020-08-26T11:32:03.360Z</time>
      </trkpt>
      <trkpt lat="48.586861" lon="16.651093">
        <ele>235.376777</ele>
        <time>2020-08-26T11:32:05.360Z</time>
      </trkpt>
      <trkpt lat="48.586785" lon="16.650978">
        <ele>235.371665</ele>
        <time>2020-08-26T11:32:07.404Z</time>
      </trkpt>
      <trkpt lat="48.586708" lon="16.650867">
        <ele>235.366607</ele>
        <time>2020-08-26T11:32:09.366Z</time>
      </trkpt>
      <trkpt lat="48.586622" lon="16.650763">
        <ele>235.361372</ele>
        <time>2020-08-26T11:32:11.359Z</time>
      </trkpt>
      <trkpt lat="48.586531" lon="16.650672">
        <ele>235.356186</ele>
        <time>2020-08-26T11:32:13.365Z</time>
      </trkpt>
      <trkpt lat="48.586441" lon="16.650584">
        <ele>235.361811</ele>
        <time>2020-08-26T11:32:15.363Z</time>
      </trkpt>
      <trkpt lat="48.586344" lon="16.650512">
        <ele>235.369580</ele>
        <time>2020-08-26T11:32:17.370Z</time>
      </trkpt>
      <trkpt lat="48.586246" lon="16.650436">
        <ele>235.377498</ele>
        <time>2020-08-26T11:32:19.376Z</time>
      </trkpt>
      <trkpt lat="48.586150" lon="16.650349">
        <ele>235.385545</ele>
        <time>2020-08-26T11:32:21.373Z</time>
      </trkpt>
      <trkpt lat="48.586049" lon="16.650269">
        <ele>235.393743</ele>
        <time>2020-08-26T11:32:23.374Z</time>
      </trkpt>
      <trkpt lat="48.585948" lon="16.650203">
        <ele>235.401654</ele>
        <time>2020-08-26T11:32:25.402Z</time>
      </trkpt>
      <trkpt lat="48.585847" lon="16.650135">
        <ele>235.409603</ele>
        <time>2020-08-26T11:32:27.375Z</time>
      </trkpt>
      <trkpt lat="48.585745" lon="16.650062">
        <ele>235.417716</ele>
        <time>2020-08-26T11:32:29.359Z</time>
      </trkpt>
      <trkpt lat="48.585648" lon="16.649985">
        <ele>235.425593</ele>
        <time>2020-08-26T11:32:31.370Z</time>
      </trkpt>
      <trkpt lat="48.585550" lon="16.649908">
        <ele>235.433534</ele>
        <time>2020-08-26T11:32:33.369Z</time>
      </trkpt>
      <trkpt lat="48.585448" lon="16.649833">
        <ele>235.441688</ele>
        <time>2020-08-26T11:32:35.375Z</time>
      </trkpt>
      <trkpt lat="48.585351" lon="16.649750">
        <ele>235.449702</ele>
        <time>2020-08-26T11:32:37.395Z</time>
      </trkpt>
      <trkpt lat="48.585254" lon="16.649663">
        <ele>235.457811</ele>
        <time>2020-08-26T11:32:39.349Z</time>
      </trkpt>
      <trkpt lat="48.585167" lon="16.649570">
        <ele>235.465471</ele>
        <time>2020-08-26T11:32:41.380Z</time>
      </trkpt>
      <trkpt lat="48.585091" lon="16.649481">
        <ele>235.472383</ele>
        <time>2020-08-26T11:32:43.398Z</time>
      </trkpt>
      <trkpt lat="48.585013" lon="16.649395">
        <ele>235.479324</ele>
        <time>2020-08-26T11:32:45.370Z</time>
      </trkpt>
      <trkpt lat="48.584931" lon="16.649300">
        <ele>235.484670</ele>
        <time>2020-08-26T11:32:47.366Z</time>
      </trkpt>
      <trkpt lat="48.584851" lon="16.649202">
        <ele>235.484670</ele>
        <time>2020-08-26T11:32:49.372Z</time>
      </trkpt>
      <trkpt lat="48.584777" lon="16.649095">
        <ele>235.484670</ele>
        <time>2020-08-26T11:32:51.362Z</time>
      </trkpt>
      <trkpt lat="48.584707" lon="16.648985">
        <ele>235.484670</ele>
        <time>2020-08-26T11:32:53.367Z</time>
      </trkpt>
      <trkpt lat="48.584634" lon="16.648868">
        <ele>235.484670</ele>
        <time>2020-08-26T11:32:55.394Z</time>
      </trkpt>
      <trkpt lat="48.584557" lon="16.648754">
        <ele>235.484670</ele>
        <time>2020-08-26T11:32:57.372Z</time>
      </trkpt>
      <trkpt lat="48.584461" lon="16.648680">
        <ele>235.484670</ele>
        <time>2020-08-26T11:32:59.368Z</time>
      </trkpt>
      <trkpt lat="48.584358" lon="16.648712">
        <ele>235.484670</ele>
        <time>2020-08-26T11:33:01.364Z</time>
      </trkpt>
      <trkpt lat="48.584260" lon="16.648799">
        <ele>235.484670</ele>
        <time>2020-08-26T11:33:03.379Z</time>
      </trkpt>
      <trkpt lat="48.584168" lon="16.648881">
        <ele>235.484670</ele>
        <time>2020-08-26T11:33:05.356Z</time>
      </trkpt>
      <trkpt lat="48.584086" lon="16.648976">
        <ele>235.484670</ele>
        <time>2020-08-26T11:33:07.382Z</time>
      </trkpt>
      <trkpt lat="48.584012" lon="16.649054">
        <ele>235.484670</ele>
        <time>2020-08-26T11:33:09.358Z</time>
      </trkpt>
      <trkpt lat="48.583922" lon="16.649029">
        <ele>235.484670</ele>
        <time>2020-08-26T11:33:13.398Z</time>
      </trkpt>
      <trkpt lat="48.583932" lon="16.649028">
        <ele>235.484670</ele>
        <time>2020-08-26T11:33:26.400Z</time>
      </trkpt>
    </trkseg>
  </trk>
</gpx>